Date_time	Conductivity	Temperature	Pressure	Depth	Specific Conductivity
15-07-2017 21:00:00.00	0.2128	4.7341	19.4372	9.22882368577941	347.189755892155
15-07-2017 22:00:00.00	0.2115	4.7256	19.4363	9.22793102496877	345.160191537632
15-07-2017 23:00:00.00	0.2123	4.7185	19.4371	9.2287245012449	346.5424554908
16-07-2017 00:00:00.00	0.2113	4.7174	19.4341	9.22574896520942	344.921960304624
16-07-2017 01:00:00.00	0.2109	4.7239	19.4407	9.23229514448747	344.199252753051
16-07-2017 02:00:00.00	0.2121	4.7277	19.4359	9.22753428683071	346.116713264594
16-07-2017 03:00:00.00	0.2113	4.7183	19.4365	9.2281293940378	344.91228185298
16-07-2017 04:00:00.00	0.2102	4.6959	19.4365	9.2281293940378	343.356506521675
16-07-2017 05:00:00.00	0.2104	4.6841	19.4405	9.23209677541844	343.809776064307
16-07-2017 06:00:00.00	0.211	4.6961	19.4329	9.22455875079523	344.6611361132
16-07-2017 07:00:00.00	0.2114	4.7139	19.4306	9.22227750650137	345.122859738299
16-07-2017 08:00:00.00	0.212	4.721	19.4292	9.22088892301815	346.025787735051
16-07-2017 09:00:00.00	0.2121	4.7243	19.4324	9.22406282812265	346.153396090406
16-07-2017 10:00:00.00	0.212	4.736	19.4275	9.21920278593138	345.864053239571
16-07-2017 11:00:00.00	0.2111	4.7312	19.433	9.22465793532975	344.447281389052
16-07-2017 12:00:00.00	0.2112	4.7306	19.4297	9.22138484569073	344.616893218008
16-07-2017 13:00:00.00	0.2109	4.735	19.4291	9.22078973848363	344.080197279172
16-07-2017 14:00:00.00	0.2115	4.7257	19.432	9.22366608998459	345.159115659588
16-07-2017 15:00:00.00	0.2112	4.7343	19.4299	9.22158321475976	344.577159040616
16-07-2017 16:00:00.00	0.2115	4.7157	19.434	9.22564978067491	345.266736674463
16-07-2017 17:00:00.00	0.2102	4.6661	19.4384	9.2300139001936	343.676036383945
16-07-2017 18:00:00.00	0.2109	4.6728	19.4349	9.22654244148555	344.748401341671
16-07-2017 19:00:00.00	0.2113	4.7392	19.4399	9.23150166821134	344.687679358307
16-07-2017 20:00:00.00	0.2107	4.7232	19.4407	9.23229514448747	343.880346482543
16-07-2017 21:00:00.00	0.2109	4.7104	19.439	9.2306090074007	344.34416103329
16-07-2017 22:00:00.00	0.211	4.6338	19.4437	9.23527068052294	345.332361776467
16-07-2017 23:00:00.00	0.2114	4.7337	19.444	9.23556823412649	344.909912027252
17-07-2017 00:00:00.00	0.2113	4.7219	19.4467	9.23824621655841	344.873573477306
17-07-2017 01:00:00.00	0.2105	4.7264	19.4528	9.24429647316388	343.519662314787
17-07-2017 02:00:00.00	0.2111	4.715	19.4539	9.24538750304355	344.62127167045
17-07-2017 03:00:00.00	0.2114	4.7226	19.4623	9.25371900394288	345.029259427827
17-07-2017 04:00:00.00	0.2107	4.7249	19.4618	9.2532230812703	343.862123919978
17-07-2017 05:00:00.00	0.2108	4.729	19.4666	9.25798393892706	343.981362345692
17-07-2017 06:00:00.00	0.2109	4.7326	19.468	9.25937252241028	344.105932024051
17-07-2017 07:00:00.00	0.2108	4.7358	19.4743	9.26562114808478	343.908475448181
17-07-2017 08:00:00.00	0.2122	4.7346	19.4812	9.27246488096637	346.205443139215
17-07-2017 09:00:00.00	0.211	4.7463	19.4847	9.27593633967442	344.122172308561
17-07-2017 10:00:00.00	0.2099	4.7431	19.4908	9.28198659627989	342.362297569728
17-07-2017 11:00:00.00	0.2116	4.7413	19.5011	9.29220260333501	345.15447726281
17-07-2017 12:00:00.00	0.2112	4.7379	19.4974	9.28853277555793	344.538507553477
17-07-2017 13:00:00.00	0.2112	4.7374	19.5057	9.29676509192274	344.543875297043
17-07-2017 14:00:00.00	0.2102	4.7463	19.5105	9.3015259495795	342.817443693173
17-07-2017 15:00:00.00	0.2101	4.7335	19.5169	9.30787375978851	342.791031992715
17-07-2017 16:00:00.00	0.2118	4.7276	19.5251	9.31600689161881	345.628233655652
17-07-2017 17:00:00.00	0.2098	4.7377	19.524	9.31491586173913	342.256767715666
17-07-2017 18:00:00.00	0.2114	4.7465	19.5269	9.31779221324009	344.772388656988
17-07-2017 19:00:00.00	0.2118	4.7498	19.5347	9.32552860693233	345.389244383242
17-07-2017 20:00:00.00	0.21	4.7327	19.5299	9.32076774927557	342.636417875264
17-07-2017 21:00:00.00	0.2084	4.6566	19.5276	9.3184865049817	340.834159877977
17-07-2017 22:00:00.00	0.2107	4.6667	19.536	9.32681800588103	344.487079421047
17-07-2017 23:00:00.00	0.2104	4.6933	19.5347	9.32552860693233	343.711082867484
18-07-2017 00:00:00.00	0.2104	4.713	19.536	9.32681800588103	343.499941144616
18-07-2017 01:00:00.00	0.2101	4.7347	19.5304	9.32126367194815	342.778213669339
18-07-2017 02:00:00.00	0.2098	4.7757	19.5346	9.32542942239781	341.852003924878
18-07-2017 03:00:00.00	0.2104	4.7555	19.5348	9.32562779146684	343.045314671929
18-07-2017 04:00:00.00	0.2084	4.6851	19.535	9.32582616053587	340.530994031377
18-07-2017 05:00:00.00	0.2088	4.6292	19.5297	9.32056938020653	341.780886630691
18-07-2017 06:00:00.00	0.2077	4.6298	19.5309	9.32175959462072	339.973939368881
18-07-2017 07:00:00.00	0.2099	4.739	19.5313	9.32215633275879	342.406032871305
18-07-2017 08:00:00.00	0.2138	4.8148	19.5283	9.31918079672331	347.946273970618
18-07-2017 09:00:00.00	0.213	4.8313	19.5215	9.31243624837624	346.466625187183
18-07-2017 10:00:00.00	0.2127	4.8223	19.5219	9.3128329865143	346.0754112802
18-07-2017 11:00:00.00	0.2112	4.7854	19.5213	9.31223787930721	344.029333452614
18-07-2017 12:00:00.00	0.2093	4.7254	19.5205	9.31144440303108	341.572002154074
18-07-2017 13:00:00.00	0.2078	4.6508	19.5138	9.30479903921852	339.914456715607
18-07-2017 14:00:00.00	0.2084	4.6418	19.5194	9.31035337315141	340.991806411948
18-07-2017 15:00:00.00	0.2092	4.6878	19.5144	9.30539414642561	341.809411581633
18-07-2017 16:00:00.00	0.211	4.7303	19.5114	9.30241861039014	344.29377050353
18-07-2017 17:00:00.00	0.2112	4.7482	19.5078	9.29884796714757	344.427969234102
18-07-2017 18:00:00.00	0.2106	4.7644	19.5095	9.30053410423434	343.276261237082
18-07-2017 19:00:00.00	0.2116	4.7903	19.5068	9.29785612180241	344.62836513271
18-07-2017 20:00:00.00	0.2118	4.7886	19.5	9.29111157345534	344.972344065578
18-07-2017 21:00:00.00	0.2119	4.786	19.4976	9.28873114462696	345.163138857225
18-07-2017 22:00:00.00	0.2112	4.7682	19.4975	9.28863196009244	344.213534169761
18-07-2017 23:00:00.00	0.2091	4.7108	19.4901	9.28129230453828	341.400976377404
19-07-2017 00:00:00.00	0.2087	4.6824	19.4901	9.28129230453828	341.049940954401
19-07-2017 01:00:00.00	0.2091	4.6423	19.4836	9.27484530979475	342.131826190553
19-07-2017 02:00:00.00	0.2103	4.6408	19.4774	9.26869586865477	344.111411068194
19-07-2017 03:00:00.00	0.2092	4.6396	19.4801	9.27137385108669	342.324332472461
19-07-2017 04:00:00.00	0.2096	4.6594	19.4772	9.26849749958574	342.766756347489
19-07-2017 05:00:00.00	0.2116	4.7179	19.4738	9.2651252254122	345.406289779978
19-07-2017 06:00:00.00	0.2104	4.752	19.4692	9.26056273682447	343.082709022814
19-07-2017 07:00:00.00	0.2101	4.7582	19.4615	9.25292552766675	342.527381241062
19-07-2017 08:00:00.00	0.2118	4.752	19.4609	9.25233042045966	345.365578759658
19-07-2017 09:00:00.00	0.2109	4.7526	19.4554	9.24687527106129	343.891593368622
19-07-2017 10:00:00.00	0.2088	4.7586	19.4507	9.24221359793905	340.403742967394
19-07-2017 11:00:00.00	0.2094	4.7292	19.4461	9.23765110935132	341.694726211145
19-07-2017 12:00:00.00	0.2082	4.7061	19.4503	9.24181685980098	339.981362424198
19-07-2017 13:00:00.00	0.2109	4.7205	19.4469	9.23844458562745	344.235736680391
19-07-2017 14:00:00.00	0.2113	4.7719	19.444	9.23556823412649	344.336854070383
19-07-2017 15:00:00.00	0.2122	4.7649	19.4433	9.23487394238488	345.878863931043
19-07-2017 16:00:00.00	0.2115	4.7596	19.4396	9.23120411460779	344.794779125606
19-07-2017 17:00:00.00	0.2113	4.7716	19.439	9.2306090074007	344.340069405139
19-07-2017 18:00:00.00	0.2107	4.7577	19.4399	9.23150166821134	343.510913367803
19-07-2017 19:00:00.00	0.2117	4.7332	19.4346	9.226244887882	345.40475923053
19-07-2017 20:00:00.00	0.2112	4.7647	19.4328	9.22445956626072	344.251041029329
19-07-2017 21:00:00.00	0.2114	4.7584	19.423	9.21473948187817	344.644633234203
19-07-2017 22:00:00.00	0.2111	4.752	19.4262	9.21791338698268	344.224143891236
19-07-2017 23:00:00.00	0.2118	4.7463	19.4205	9.21225986851527	345.426900923948
20-07-2017 00:00:00.00	0.211	4.7474	19.4235	9.21523540455075	344.11038121657
20-07-2017 01:00:00.00	0.2099	4.6876	19.4157	9.20749901085852	342.955273861305
20-07-2017 02:00:00.00	0.2092	4.7158	19.4162	9.20799493353109	341.51099810703
20-07-2017 03:00:00.00	0.2107	4.7334	19.4139	9.20571368923723	343.771040068432
20-07-2017 04:00:00.00	0.212	4.7519	19.4155	9.20730064178948	345.692779663298
20-07-2017 05:00:00.00	0.2116	4.7623	19.4141	9.20591205830626	344.928804070382
20-07-2017 06:00:00.00	0.2113	4.7246	19.4161	9.20789574899658	344.844547896721
20-07-2017 07:00:00.00	0.2094	4.6511	19.4045	9.19639034299274	342.528489365447
20-07-2017 08:00:00.00	0.2098	4.6477	19.4108	9.20263896866724	343.219252957612
20-07-2017 09:00:00.00	0.2096	4.6354	19.4118	9.2036308140124	343.023900353914
20-07-2017 10:00:00.00	0.2114	4.7256	19.4109	9.20273815320176	344.996995229576
20-07-2017 11:00:00.00	0.2111	4.7757	19.4146	9.20640798097884	343.970247991143
20-07-2017 12:00:00.00	0.2125	4.7742	19.4079	9.19976261716628	346.267598663697
20-07-2017 13:00:00.00	0.2107	4.7563	19.4126	9.20442429028853	343.525889403935
20-07-2017 14:00:00.00	0.2072	4.6651	19.4055	9.1973821883379	338.781629749252
20-07-2017 15:00:00.00	0.2096	4.6498	19.4072	9.19906832542467	342.869567672556
20-07-2017 16:00:00.00	0.2089	4.6485	19.4114	9.20323407587434	341.73836860581
20-07-2017 17:00:00.00	0.2096	4.6527	19.4108	9.20263896866724	342.838503583865
20-07-2017 18:00:00.00	0.2089	4.6622	19.4104	9.20224223052918	341.59214512705
20-07-2017 19:00:00.00	0.2099	4.6338	19.4174	9.20918514794528	343.532050885689
20-07-2017 20:00:00.00	0.2092	4.648	19.4164	9.20819330260012	342.234483625094
20-07-2017 21:00:00.00	0.2098	4.6377	19.4136	9.20541613563368	343.326530024126
20-07-2017 22:00:00.00	0.2093	4.647	19.421	9.21275579118785	342.408774564312
20-07-2017 23:00:00.00	0.2102	4.6388	19.4189	9.21067291596302	343.969282463058
21-07-2017 00:00:00.00	0.2086	4.6275	19.4236	9.21533458908526	341.471659366469
21-07-2017 01:00:00.00	0.208	4.6454	19.423	9.21473948187817	340.29902533451
21-07-2017 02:00:00.00	0.2106	4.7195	19.4288	9.22049218488008	343.756786686917
21-07-2017 03:00:00.00	0.2112	4.7885	19.4358	9.22743510229619	343.996155452058
21-07-2017 04:00:00.00	0.2116	4.7761	19.4421	9.23368372797069	344.78066515653
21-07-2017 05:00:00.00	0.2112	4.7988	19.4506	9.24211441340453	343.885964808873
21-07-2017 06:00:00.00	0.209	4.6556	19.4601	9.25153694418353	341.826126101195
21-07-2017 07:00:00.00	0.2112	4.7929	19.4599	9.2513385751145	343.949075082341
21-07-2017 08:00:00.00	0.2086	4.6772	19.471	9.26234805844576	340.941861207831
21-07-2017 09:00:00.00	0.208	4.7069	19.4746	9.26591870168832	339.646296592307
21-07-2017 10:00:00.00	0.2063	4.7317	19.4706	9.26195132030769	336.609980490816
21-07-2017 11:00:00.00	0.2089	4.7113	19.4791	9.27038200574153	341.069115019363
21-07-2017 12:00:00.00	0.2109	4.8478	19.4796	9.27087792841412	342.874991029811
21-07-2017 13:00:00.00	0.2096	4.8478	19.4864	9.27762247676119	340.76148942555
21-07-2017 14:00:00.00	0.2088	4.7444	19.486	9.27722573862313	340.554324579978
21-07-2017 15:00:00.00	0.2093	4.7065	19.4908	9.28198659627989	341.773349729092
21-07-2017 16:00:00.00	0.2112	4.8585	19.4948	9.28595397766052	343.248674807392
21-07-2017 17:00:00.00	0.2096	4.679	19.4929	9.28406947150472	342.557041222393
21-07-2017 18:00:00.00	0.2089	4.6595	19.4886	9.27980453652054	341.620952991632
21-07-2017 19:00:00.00	0.2098	4.7855	19.4882	9.27940779838247	341.747772714275
21-07-2017 20:00:00.00	0.2089	4.8207	19.4877	9.27891187570989	339.909489050952
21-07-2017 21:00:00.00	0.2098	4.8323	19.4836	9.27484530979475	341.250890761605
21-07-2017 22:00:00.00	0.2087	4.6728	19.4799	9.27117548201766	341.152163869164
21-07-2017 23:00:00.00	0.2085	4.8343	19.4727	9.26403419553252	339.115300714844
22-07-2017 00:00:00.00	0.2093	4.8714	19.4666	9.25798393892706	340.024577294865
22-07-2017 01:00:00.00	0.2093	4.8668	19.4676	9.25897578427222	340.073117832589
22-07-2017 02:00:00.00	0.2087	4.848	19.4649	9.25629780184029	339.296188827515
22-07-2017 03:00:00.00	0.2097	4.7347	19.4579	9.24935488442418	342.125613548122
22-07-2017 04:00:00.00	0.2104	4.7779	19.4618	9.2532230812703	342.806183721728
22-07-2017 05:00:00.00	0.2096	4.7834	19.4526	9.24409810409485	341.444296995678
22-07-2017 06:00:00.00	0.2094	4.7942	19.4559	9.24737119373387	341.003901807682
22-07-2017 07:00:00.00	0.2096	4.8183	19.449	9.24052746085228	341.07392691121
22-07-2017 08:00:00.00	0.2093	4.8335	19.4466	9.2381470320239	340.424922845285
22-07-2017 09:00:00.00	0.2086	4.839	19.4377	9.22931960845199	339.228416348078
22-07-2017 10:00:00.00	0.2093	4.8468	19.4421	9.23368372797069	340.284324868421
22-07-2017 11:00:00.00	0.2102	4.8271	19.4374	9.22902205484844	341.956754964445
22-07-2017 12:00:00.00	0.2104	4.8335	19.4353	9.22693917962361	342.21406481915
22-07-2017 13:00:00.00	0.2087	4.8201	19.4342	9.22584814974394	339.590393454767
22-07-2017 14:00:00.00	0.2102	4.8441	19.4337	9.22535222707136	341.776219467551
22-07-2017 15:00:00.00	0.2096	4.8239	19.4338	9.22545141160588	341.01457269483
22-07-2017 16:00:00.00	0.209	4.8446	19.4378	9.22941879298651	339.819794050994
22-07-2017 17:00:00.00	0.21	4.8375	19.4437	9.23527068052294	341.521028954072
22-07-2017 18:00:00.00	0.211	4.8922	19.4457	9.23725437121326	342.565267044562
22-07-2017 19:00:00.00	0.2099	4.879	19.4497	9.24122175259389	340.918928374379
22-07-2017 20:00:00.00	0.2108	4.8823	19.4462	9.23775029388584	342.345658583644
22-07-2017 21:00:00.00	0.2108	4.8942	19.4439	9.23546904959197	342.219336554892
22-07-2017 22:00:00.00	0.2098	4.85	19.453	9.24449484223291	341.063343818837
22-07-2017 23:00:00.00	0.2088	4.8343	19.4478	9.23933724643809	339.603236399326
23-07-2017 00:00:00.00	0.2085	4.8138	19.4433	9.23487394238488	339.331399638027
23-07-2017 01:00:00.00	0.2101	4.8126	19.4491	9.2406266453868	341.948136965316
23-07-2017 02:00:00.00	0.2088	4.8124	19.4495	9.24102338352486	339.834435527516
23-07-2017 03:00:00.00	0.2101	4.8411	19.4546	9.24608179478516	341.645453942168
23-07-2017 04:00:00.00	0.2088	4.8262	19.4526	9.24409810409485	339.688711737394
23-07-2017 05:00:00.00	0.2098	4.8275	19.4643	9.2557026946332	341.301786506622
23-07-2017 06:00:00.00	0.2097	4.8505	19.4684	9.25976926054834	340.895485459475
23-07-2017 07:00:00.00	0.2095	4.8511	19.4778	9.26909260679283	340.564013997035
23-07-2017 08:00:00.00	0.2093	4.8463	19.4955	9.28664826940213	340.289608405677
23-07-2017 09:00:00.00	0.2096	4.8646	19.4978	9.28892951369599	340.58381460567
23-07-2017 10:00:00.00	0.2096	4.851	19.5088	9.29983981249273	340.727632311969
23-07-2017 11:00:00.00	0.2102	4.9121	19.5229	9.31382483185946	341.055979731085
23-07-2017 12:00:00.00	0.2109	4.8532	19.5191	9.31005581954786	342.817506716395
23-07-2017 13:00:00.00	0.2079	4.827	19.5278	9.31868487405073	338.21612872841
23-07-2017 14:00:00.00	0.2098	4.8674	19.5345	9.32533023786329	340.879176464506
23-07-2017 15:00:00.00	0.2103	4.9549	19.5389	9.32969435738199	340.766245066606
23-07-2017 16:00:00.00	0.2084	4.9918	19.5389	9.32969435738199	337.302311145585
23-07-2017 17:00:00.00	0.2097	4.8862	19.5442	9.33495113771133	340.518031038681
23-07-2017 18:00:00.00	0.2099	4.9059	19.5378	9.32860332750231	340.634670062865
23-07-2017 19:00:00.00	0.2092	4.8512	19.5365	9.32731392855361	340.075276930516
23-07-2017 20:00:00.00	0.2086	4.8978	19.5298	9.32066856474105	338.609989436212
23-07-2017 21:00:00.00	0.2105	4.9672	19.5339	9.3247351306562	340.9605258094
23-07-2017 22:00:00.00	0.2098	4.9814	19.5237	9.31461830813559	339.677465722447
23-07-2017 23:00:00.00	0.2099	4.8369	19.5228	9.31372564732494	341.364762006879
24-07-2017 00:00:00.00	0.2103	4.9337	19.5277	9.31858568951622	340.989977083625
24-07-2017 01:00:00.00	0.2101	4.9501	19.5272	9.31808976684364	340.492751191315
24-07-2017 02:00:00.00	0.2098	5.0017	19.5258	9.31670118336042	339.464365035708
24-07-2017 03:00:00.00	0.2097	4.988	19.525	9.31590770708429	339.446280076689
24-07-2017 04:00:00.00	0.2091	4.8942	19.5169	9.30787375978851	339.459503195579
24-07-2017 05:00:00.00	0.2093	4.8972	19.5291	9.31997427299944	339.752584798057
24-07-2017 06:00:00.00	0.2089	4.8644	19.5196	9.31055174222044	339.448475686227
24-07-2017 07:00:00.00	0.2091	4.9192	19.5227	9.31362646279043	339.19656192571
24-07-2017 08:00:00.00	0.2096	4.9717	19.5165	9.30747702165045	339.455478753933
24-07-2017 09:00:00.00	0.2091	4.9982	19.513	9.3040055629424	338.368338355134
24-07-2017 10:00:00.00	0.2094	4.9904	19.518	9.30896478966818	338.935513294041
24-07-2017 11:00:00.00	0.2094	5.0223	19.5076	9.29864959807854	338.601584833288
24-07-2017 12:00:00.00	0.2099	5.041	19.5085	9.29954225888918	339.214176987057
24-07-2017 13:00:00.00	0.2103	5.0578	19.5005	9.29160749612792	339.684458174538
24-07-2017 14:00:00.00	0.2101	5.063	19.4943	9.28545805498794	339.306977207647
24-07-2017 15:00:00.00	0.2108	5.0579	19.4926	9.28377191790117	340.491026502752
24-07-2017 16:00:00.00	0.2103	5.1234	19.4921	9.28327599522859	338.99838373695
24-07-2017 17:00:00.00	0.211	5.1411	19.4884	9.2796061674515	339.94151169348
24-07-2017 18:00:00.00	0.2111	5.1091	19.4897	9.28089556640021	340.437851457531
24-07-2017 19:00:00.00	0.2107	5.0438	19.4803	9.27157222015573	340.477610421802
24-07-2017 20:00:00.00	0.2095	5.058	19.4838	9.27504367886378	338.390180191559
24-07-2017 21:00:00.00	0.2094	5.0196	19.4781	9.26939016039638	338.629822879461
24-07-2017 22:00:00.00	0.2107	5.0517	19.4731	9.26443093367059	340.3946125113
24-07-2017 23:00:00.00	0.2103	5.0259	19.4779	9.26919179132735	340.019087310192
25-07-2017 00:00:00.00	0.2124	5.0635	19.4742	9.26552196355026	343.016137342757
25-07-2017 01:00:00.00	0.2114	5.081	19.4739	9.26522440994671	341.216995447158
25-07-2017 02:00:00.00	0.2109	5.0788	19.481	9.27226651189734	340.433043745178
25-07-2017 03:00:00.00	0.2106	5.1116	19.4785	9.26978689853444	339.605357289024
25-07-2017 04:00:00.00	0.2096	5.07	19.475	9.26631543982639	338.426414052446
25-07-2017 05:00:00.00	0.2111	5.1331	19.486	9.27722573862313	340.186367016033
25-07-2017 06:00:00.00	0.2111	5.092	19.4831	9.27434938712217	340.617261082243
25-07-2017 07:00:00.00	0.2098	5.0781	19.4861	9.27732492315764	338.66474177677
25-07-2017 08:00:00.00	0.2116	5.185	19.4902	9.28139148907279	340.448262241697
25-07-2017 09:00:00.00	0.21	5.1678	19.4945	9.28565642405697	338.052666609337
25-07-2017 10:00:00.00	0.2103	5.0933	19.4959	9.28704500754019	339.312838741065
25-07-2017 11:00:00.00	0.2108	5.1446	19.4984	9.28952462090309	339.582718564572
25-07-2017 12:00:00.00	0.2109	5.2206	19.5019	9.29299607961114	338.951201730673
25-07-2017 13:00:00.00	0.2098	5.2444	19.5089	9.29993899702725	336.9371583613
25-07-2017 14:00:00.00	0.2105	5.2129	19.5057	9.29676509192274	338.388318970263
25-07-2017 15:00:00.00	0.2108	5.201	19.5149	9.3058900690982	338.994444061173
25-07-2017 16:00:00.00	0.2112	5.2067	19.5158	9.30678272990884	339.578244784688
25-07-2017 17:00:00.00	0.2112	5.1932	19.5174	9.30836968246109	339.719087059
25-07-2017 18:00:00.00	0.2111	5.2364	19.5178	9.30876642059915	339.1081638419
25-07-2017 19:00:00.00	0.2102	5.2366	19.5152	9.30618762270174	337.660344086493
25-07-2017 20:00:00.00	0.2101	5.2621	19.5155	9.30648517630529	337.235857927621
25-07-2017 21:00:00.00	0.2102	5.3022	19.5181	9.3090639742027	336.982091630208
25-07-2017 22:00:00.00	0.2114	5.267	19.515	9.30598925363271	339.27154835735
25-07-2017 23:00:00.00	0.2112	5.2642	19.5163	9.30727865258142	338.979666709157
26-07-2017 00:00:00.00	0.2113	5.2543	19.5149	9.3058900690982	339.24312626878
26-07-2017 01:00:00.00	0.2098	5.2762	19.5127	9.30370800933885	336.608814125864
26-07-2017 02:00:00.00	0.2105	5.2768	19.5205	9.31144440303108	337.725703451355
26-07-2017 03:00:00.00	0.2119	5.2594	19.5218	9.31273380197978	340.153231726989
26-07-2017 04:00:00.00	0.2131	5.2934	19.5133	9.30430311654594	341.723305981678
26-07-2017 05:00:00.00	0.2112	5.311	19.5128	9.30380719387336	338.49403171875
26-07-2017 06:00:00.00	0.2109	5.3214	19.5097	9.30073247330337	337.905639377552
26-07-2017 07:00:00.00	0.2114	5.3106	19.5123	9.30331127120078	338.818724065102
26-07-2017 08:00:00.00	0.2128	5.2748	19.5104	9.30142676504498	341.436743997597
26-07-2017 09:00:00.00	0.2133	5.2678	19.5127	9.30370800933885	342.312425228487
26-07-2017 10:00:00.00	0.2101	5.3133	19.5105	9.3015259495795	336.707335282283
26-07-2017 11:00:00.00	0.2121	5.302	19.5086	9.2996414434237	340.030158639059
26-07-2017 12:00:00.00	0.2106	5.3162	19.5104	9.30142676504498	337.478680433361
26-07-2017 13:00:00.00	0.2121	5.3009	19.5082	9.29924470528563	340.04161205119
26-07-2017 14:00:00.00	0.2113	5.2882	19.5124	9.3034104557353	338.890832917966
26-07-2017 15:00:00.00	0.2109	5.3127	19.5124	9.3034104557353	337.995626955204
26-07-2017 16:00:00.00	0.2121	5.3129	19.5064	9.29745938366435	339.91670742542
26-07-2017 17:00:00.00	0.2102	5.316	19.5027	9.29378955588727	336.839757218979
26-07-2017 18:00:00.00	0.2116	5.3146	19.5045	9.29557487750855	339.097749349264
26-07-2017 19:00:00.00	0.2116	5.2866	19.5026	9.29369037135275	339.388618670037
26-07-2017 20:00:00.00	0.211	5.2898	19.4958	9.28694582300568	338.393095959718
26-07-2017 21:00:00.00	0.2116	5.3125	19.5053	9.29636835378468	339.119547252967
26-07-2017 22:00:00.00	0.2103	5.3382	19.5062	9.29726101459532	336.771175052119
26-07-2017 23:00:00.00	0.2122	5.3421	19.5045	9.29557487750855	339.773275153858
27-07-2017 00:00:00.00	0.2112	5.3398	19.5018	9.29289689507662	338.19587042986
27-07-2017 01:00:00.00	0.2118	5.3359	19.5159	9.30688191444335	339.197114025114
27-07-2017 02:00:00.00	0.212	5.3355	19.5113	9.30231942585562	339.521567667169
27-07-2017 03:00:00.00	0.2117	5.3283	19.5117	9.30271616399369	339.115799683833
27-07-2017 04:00:00.00	0.2119	5.3237	19.517	9.30797294432303	339.483952670458
27-07-2017 05:00:00.00	0.2118	5.3201	19.5223	9.31322972465237	339.361127201924
27-07-2017 06:00:00.00	0.212	5.3133	19.5251	9.31600689161881	339.752285006397
27-07-2017 07:00:00.00	0.2112	5.2651	19.5285	9.31937916579234	338.970314433967
27-07-2017 08:00:00.00	0.2119	5.2859	19.5287	9.31957753486138	339.877081905517
27-07-2017 09:00:00.00	0.2127	5.3132	19.5343	9.32513186879426	340.875151999548
27-07-2017 10:00:00.00	0.2122	5.3393	19.5391	9.32989272645102	339.802373053588
27-07-2017 11:00:00.00	0.2113	5.3489	19.5363	9.32711555948458	338.26185498543
27-07-2017 12:00:00.00	0.2114	5.3499	19.5398	9.33058701819263	338.411593629019
27-07-2017 13:00:00.00	0.2111	5.3165	19.5424	9.33316581609004	338.276805772787
27-07-2017 14:00:00.00	0.2114	5.3578	19.5524	9.34308426954162	338.329871240357
27-07-2017 15:00:00.00	0.2111	5.3662	19.5527	9.34338182314517	337.763015548203
27-07-2017 16:00:00.00	0.212	5.4241	19.5656	9.35617662809771	338.603889207466
27-07-2017 17:00:00.00	0.2123	5.3629	19.5584	9.34903534161257	339.717292805535
27-07-2017 18:00:00.00	0.2111	5.3684	19.5637	9.35429212194191	337.74030838906
27-07-2017 19:00:00.00	0.212	5.3774	19.5636	9.35419293740739	339.086967393941
27-07-2017 20:00:00.00	0.2104	5.3709	19.5663	9.35687091983932	336.594659353007
27-07-2017 21:00:00.00	0.2115	5.3477	19.5683	9.35885461052964	338.594450729921
27-07-2017 22:00:00.00	0.2114	5.3237	19.5611	9.3517133240445	338.682905118144
27-07-2017 23:00:00.00	0.2116	5.3495	19.5667	9.35726765797738	338.735898777517
28-07-2017 00:00:00.00	0.212	5.3507	19.5618	9.35240761578611	339.363779674981
28-07-2017 01:00:00.00	0.2109	5.2895	19.5683	9.35885461052964	338.235828315728
28-07-2017 02:00:00.00	0.2119	5.3871	19.5679	9.35845787239157	338.82661512963
28-07-2017 03:00:00.00	0.2123	5.3861	19.5667	9.35726765797738	339.476580201518
28-07-2017 04:00:00.00	0.2112	5.369	19.5643	9.354887229149	337.894103795885
28-07-2017 05:00:00.00	0.2128	5.3657	19.5604	9.35101903230289	340.488242539375
28-07-2017 06:00:00.00	0.211	5.3515	19.5605	9.3511182168374	337.754745714296
28-07-2017 07:00:00.00	0.2119	5.3532	19.5563	9.34695246638774	339.177776726328
28-07-2017 08:00:00.00	0.212	5.3717	19.5549	9.34556388290452	339.146024231951
28-07-2017 09:00:00.00	0.2116	5.3789	19.556	9.34665491278419	338.431672124837
28-07-2017 10:00:00.00	0.2129	5.3873	19.5561	9.34675409731871	340.423528763142
28-07-2017 11:00:00.00	0.211	5.413	19.5455	9.33624053666003	337.12085686855
28-07-2017 12:00:00.00	0.212	5.4083	19.5508	9.34149731698937	338.767174796655
28-07-2017 13:00:00.00	0.213	5.3743	19.5508	9.34149731698937	340.718701792003
28-07-2017 14:00:00.00	0.2112	5.3928	19.5518	9.34248916233453	337.648541377486
28-07-2017 15:00:00.00	0.2112	5.4198	19.5506	9.34129894792034	337.370393939678
28-07-2017 16:00:00.00	0.2116	5.4384	19.5478	9.33852178095389	337.817644375215
28-07-2017 17:00:00.00	0.2119	5.4512	19.5516	9.3422907932655	338.16460276144
28-07-2017 18:00:00.00	0.2129	5.3818	19.5479	9.33862096548841	340.480720395153
28-07-2017 19:00:00.00	0.2106	5.386	19.5533	9.34397693035226	336.759237612905
28-07-2017 20:00:00.00	0.2116	5.4328	19.5492	9.33991036443711	337.875340222584
28-07-2017 21:00:00.00	0.2119	5.4186	19.551	9.3416956860584	338.500965646289
28-07-2017 22:00:00.00	0.211	5.4254	19.549	9.33971199536808	336.993336507779
28-07-2017 23:00:00.00	0.2112	5.4334	19.5489	9.33961281083357	337.230463522314
29-07-2017 00:00:00.00	0.2127	5.4366	19.5488	9.33951362629905	339.592424588688
29-07-2017 01:00:00.00	0.2124	5.4115	19.547	9.33772830467777	339.373212508587
29-07-2017 02:00:00.00	0.2106	5.354	19.5472	9.3379266737468	337.08868697714
29-07-2017 03:00:00.00	0.2117	5.4122	19.5564	9.34705165092225	338.247525033113
29-07-2017 04:00:00.00	0.2114	5.4033	19.5563	9.34695246638774	337.85995890095
29-07-2017 05:00:00.00	0.2119	5.3967	19.5547	9.34536551383549	338.727303212585
29-07-2017 06:00:00.00	0.2124	5.4099	19.5659	9.35647418170126	339.389784517687
29-07-2017 07:00:00.00	0.2124	5.4217	19.5636	9.35419293740739	339.267603983404
29-07-2017 08:00:00.00	0.2125	5.4491	19.569	9.35954890227124	339.143832750796
29-07-2017 09:00:00.00	0.2117	5.4591	19.5743	9.36480568260058	337.764095185273
29-07-2017 10:00:00.00	0.212	5.4266	19.5723	9.36282199191027	338.578067302484
29-07-2017 11:00:00.00	0.2125	5.3896	19.5752	9.36569834341122	339.760069593095
29-07-2017 12:00:00.00	0.2111	5.447	19.5807	9.3711534928096	336.931041819191
29-07-2017 13:00:00.00	0.2118	5.4974	19.5754	9.36589671248026	337.529697593471
29-07-2017 14:00:00.00	0.2127	5.5028	19.5826	9.37303799896539	338.908254619621
29-07-2017 15:00:00.00	0.2117	5.4337	19.5786	9.36907061758476	338.02573840062
29-07-2017 16:00:00.00	0.2117	5.4653	19.5855	9.37591435046635	337.700291007682
29-07-2017 17:00:00.00	0.2125	5.5577	19.5847	9.37512087419023	338.024815539063
29-07-2017 18:00:00.00	0.2115	5.452	19.5848	9.37522005872474	337.518024898777
29-07-2017 19:00:00.00	0.2126	5.4409	19.5867	9.37710456488054	339.388263669688
29-07-2017 20:00:00.00	0.2111	5.4445	19.5781	9.36857469491218	336.956722130978
29-07-2017 21:00:00.00	0.2115	5.4615	19.5814	9.37184778455121	337.420320345097
29-07-2017 22:00:00.00	0.2125	5.4986	19.5756	9.36609508154929	338.632865975358
29-07-2017 23:00:00.00	0.2118	5.4835	19.5642	9.35478804461449	337.67256395272
30-07-2017 00:00:00.00	0.2126	5.4919	19.5686	9.35915216413318	338.861326166475
30-07-2017 01:00:00.00	0.2116	5.4362	19.5588	9.34943207975063	337.840308250862
30-07-2017 02:00:00.00	0.2121	5.461	19.5601	9.35072147869934	338.382696630899
30-07-2017 03:00:00.00	0.213	5.4973	19.5617	9.35230843125159	339.44308035958
30-07-2017 04:00:00.00	0.2127	5.4971	19.5634	9.35399456833836	338.967055031756
30-07-2017 05:00:00.00	0.2125	5.5208	19.557	9.34764675812935	338.404204888028
30-07-2017 06:00:00.00	0.2122	5.474	19.5552	9.34586143650806	338.40818022835
30-07-2017 07:00:00.00	0.2125	5.4922	19.554	9.34467122209387	338.698843683742
30-07-2017 08:00:00.00	0.2121	5.4809	19.5616	9.35220924671708	338.177628205794
30-07-2017 09:00:00.00	0.2132	5.5567	19.5637	9.35429212194191	339.148613220207
30-07-2017 10:00:00.00	0.2119	5.5598	19.5689	9.35944971773673	337.048887740261
30-07-2017 11:00:00.00	0.211	5.5626	19.5735	9.36401220632446	335.58879754335
30-07-2017 12:00:00.00	0.2116	5.4676	19.5725	9.3630203609793	337.517120699504
30-07-2017 13:00:00.00	0.2121	5.5705	19.5813	9.37174860001669	337.25737563674
30-07-2017 14:00:00.00	0.2124	5.4957	19.5779	9.36837632584315	338.503388229265
30-07-2017 15:00:00.00	0.2124	5.5819	19.5895	9.37988173184699	337.617509848648
30-07-2017 16:00:00.00	0.2132	5.5211	19.5883	9.3786915174328	339.515850079292
30-07-2017 17:00:00.00	0.2119	5.5599	19.5895	9.37988173184699	337.047863771075
30-07-2017 18:00:00.00	0.2116	5.3948	19.5839	9.3743273979141	338.267368958323
30-07-2017 19:00:00.00	0.2126	5.5091	19.5801	9.3705583856025	338.683982689776
30-07-2017 20:00:00.00	0.2134	5.5166	19.5822	9.37264126082733	339.880865863548
30-07-2017 21:00:00.00	0.2121	5.5382	19.5817	9.37214533815476	337.588540592802
30-07-2017 22:00:00.00	0.2118	5.5321	19.5774	9.36788040317057	337.173572641029
30-07-2017 23:00:00.00	0.2126	5.5481	19.5827	9.37313718349991	338.282553478279
31-07-2017 00:00:00.00	0.2119	5.4977	19.5758	9.36629345061832	337.685976487845
31-07-2017 01:00:00.00	0.2123	5.5298	19.5769	9.36738448049799	337.993181485081
31-07-2017 02:00:00.00	0.2119	5.608	19.5823	9.37274044536185	336.556054768899
31-07-2017 03:00:00.00	0.2126	5.4764	19.5734	9.36391302178994	339.021300679618
31-07-2017 04:00:00.00	0.2131	5.4904	19.5731	9.36361546818639	339.67378310074
31-07-2017 05:00:00.00	0.2126	5.5095	19.571	9.36153259296156	338.679860631485
31-07-2017 06:00:00.00	0.2126	5.517	19.5706	9.3611358548235	338.602590612426
31-07-2017 07:00:00.00	0.213	5.5068	19.568	9.35855705692609	339.344953991516
31-07-2017 08:00:00.00	0.2125	5.5721	19.5642	9.35478804461449	337.876991818654
31-07-2017 09:00:00.00	0.2116	5.5852	19.5578	9.34844023440548	336.312186205313
31-07-2017 10:00:00.00	0.2128	5.6571	19.555	9.34566306743903	337.482823147217
31-07-2017 11:00:00.00	0.2128	5.6088	19.5589	9.34953126428515	337.97730241002
31-07-2017 12:00:00.00	0.2128	5.5874	19.5536	9.34427448395581	338.196851991231
31-07-2017 13:00:00.00	0.2128	5.6495	19.5547	9.34536551383549	337.560533463028
31-07-2017 14:00:00.00	0.213	5.5986	19.5518	9.34248916233453	338.399658130554
31-07-2017 15:00:00.00	0.2122	5.6732	19.5459	9.3366372747981	336.367232619594
31-07-2017 16:00:00.00	0.2119	5.664	19.5497	9.3404062871097	335.985275631602
31-07-2017 17:00:00.00	0.213	5.6306	19.5456	9.33633972119455	338.071379914998
31-07-2017 18:00:00.00	0.212	5.6169	19.5441	9.33485195317681	336.623996981562
31-07-2017 19:00:00.00	0.2121	5.6157	19.5396	9.3303886491236	336.795039036069
31-07-2017 20:00:00.00	0.2142	5.6072	19.5432	9.33395929236617	340.217350284353
31-07-2017 21:00:00.00	0.2122	5.637	19.5397	9.33048783365811	336.736295332648
31-07-2017 22:00:00.00	0.2123	5.6281	19.5376	9.32840495843328	336.985886799314
31-07-2017 23:00:00.00	0.2113	5.6693	19.5413	9.33207478621037	334.980157934663
01-08-2017 00:00:00.00	0.2122	5.602	19.5366	9.32741311308812	337.093894787944
01-08-2017 01:00:00.00	0.2133	5.6143	19.5373	9.32810740482973	338.714909282286
01-08-2017 02:00:00.00	0.2129	5.6257	19.5384	9.32919843470941	337.962863675385
01-08-2017 03:00:00.00	0.211	5.6028	19.5408	9.33157886353779	335.179478603063
01-08-2017 04:00:00.00	0.2121	5.6299	19.5419	9.33266989341746	336.650053253721
01-08-2017 05:00:00.00	0.2128	5.6619	19.5328	9.32364410077653	337.433761380005
01-08-2017 06:00:00.00	0.2127	5.6798	19.537	9.32780985122619	337.092445011854
01-08-2017 07:00:00.00	0.2132	5.6292	19.5413	9.33207478621037	338.403180151822
01-08-2017 08:00:00.00	0.2131	5.6716	19.5461	9.33683564386713	337.81022503202
01-08-2017 09:00:00.00	0.2129	5.6891	19.5394	9.33019028005457	337.314451899427
01-08-2017 10:00:00.00	0.2119	5.6187	19.5534	9.34407611488678	336.4468453599
01-08-2017 11:00:00.00	0.2121	5.6531	19.5535	9.34417529942129	336.413443461867
01-08-2017 12:00:00.00	0.2123	5.6774	19.5511	9.34179487059292	336.482959650225
01-08-2017 13:00:00.00	0.2125	5.7338	19.5548	9.34546469837	336.225888608632
01-08-2017 14:00:00.00	0.212	5.665	19.5629	9.35349864566578	336.133654351543
01-08-2017 15:00:00.00	0.2119	5.7382	19.5565	9.34715083545677	335.231968657092
01-08-2017 16:00:00.00	0.2132	5.6565	19.5654	9.35597825902868	338.123334609754
01-08-2017 17:00:00.00	0.2133	5.6204	19.5545	9.34516714476645	338.652253575949
01-08-2017 18:00:00.00	0.213	5.6916	19.5557	9.34635735918065	337.447360588138
01-08-2017 19:00:00.00	0.2127	5.7249	19.558	9.34863860347451	336.632878928537
01-08-2017 20:00:00.00	0.2116	5.7638	19.5523	9.34298508500711	334.498608874665
01-08-2017 21:00:00.00	0.2127	5.7113	19.5477	9.33842259641938	336.771330034431
01-08-2017 22:00:00.00	0.2118	5.6733	19.5339	9.3247351306562	335.732159160567
01-08-2017 23:00:00.00	0.2126	5.6869	19.5354	9.32622289867393	336.861564743517
02-08-2017 00:00:00.00	0.2114	5.6878	19.5192	9.31015500408238	334.951059277179
02-08-2017 01:00:00.00	0.212	5.6674	19.5165	9.30747702165045	336.109225605295
02-08-2017 02:00:00.00	0.2138	5.6632	19.5041	9.29517813937049	339.006098811684
02-08-2017 03:00:00.00	0.2123	5.673	19.5055	9.29656672285371	336.527784624754
02-08-2017 04:00:00.00	0.2122	5.7012	19.4989	9.29002054357566	336.08232414136
02-08-2017 05:00:00.00	0.212	5.6911	19.4899	9.28109393546924	335.868182258109
02-08-2017 06:00:00.00	0.211	5.7674	19.4768	9.26810076144767	333.513873402623
02-08-2017 07:00:00.00	0.2128	5.7628	19.4709	9.26224887391124	336.405733643678
02-08-2017 08:00:00.00	0.214	5.6713	19.4665	9.25788475439254	339.240003789977
02-08-2017 09:00:00.00	0.2125	5.6727	19.4664	9.25778556985803	336.847874601666
02-08-2017 10:00:00.00	0.2127	5.8001	19.4628	9.25421492661546	335.869376088763
02-08-2017 11:00:00.00	0.2089	5.806	19.4586	9.2500491761658	329.810200465871
02-08-2017 12:00:00.00	0.2103	5.798	19.4514	9.24290788968066	332.100628859308
02-08-2017 13:00:00.00	0.2102	5.801	19.4604	9.25183449778708	331.912677595784
02-08-2017 14:00:00.00	0.2114	5.8083	19.4657	9.25709127811642	333.73404046009
02-08-2017 15:00:00.00	0.2123	5.7647	19.4683	9.25967007601383	335.596053763468
02-08-2017 16:00:00.00	0.2124	5.7196	19.4862	9.27742410769216	336.211944970906
02-08-2017 17:00:00.00	0.2119	5.7406	19.4808	9.2720681428283	335.207659325751
02-08-2017 18:00:00.00	0.2128	5.7063	19.4861	9.27732492315764	336.980615364292
02-08-2017 19:00:00.00	0.213	5.7822	19.4917	9.28287925709053	336.524778445831
02-08-2017 20:00:00.00	0.2118	5.7067	19.4833	9.2745477561912	335.393002134274
02-08-2017 21:00:00.00	0.2102	5.7865	19.4928	9.2839702869702	332.057890865272
02-08-2017 22:00:00.00	0.2137	5.7432	19.4934	9.2845653941773	338.028550426014
02-08-2017 23:00:00.00	0.2089	5.8213	19.4927	9.28387110243568	329.658105723927
03-08-2017 00:00:00.00	0.2073	5.8447	19.4965	9.28764011474729	326.902634439418
03-08-2017 01:00:00.00	0.2117	5.7985	19.5085	9.29954225888918	334.306432982733
03-08-2017 02:00:00.00	0.2109	5.7624	19.5119	9.30291453306272	333.406137809388
03-08-2017 03:00:00.00	0.21	5.8213	19.5122	9.30321208666627	331.393978946982
03-08-2017 04:00:00.00	0.2102	5.8135	19.5226	9.31352727825591	331.78759564247
03-08-2017 05:00:00.00	0.2114	5.8154	19.5269	9.31779221324009	333.662608136121
03-08-2017 06:00:00.00	0.2109	5.7902	19.5313	9.32215633275879	333.126507421139
03-08-2017 07:00:00.00	0.211	5.8	19.5297	9.32056938020653	333.185952501263
03-08-2017 08:00:00.00	0.2119	5.8025	19.5315	9.32235470182782	334.581896971986
03-08-2017 09:00:00.00	0.2119	5.7785	19.5298	9.32066856474105	334.824241369881
03-08-2017 10:00:00.00	0.2104	5.8203	19.5394	9.33019028005457	332.035213470631
03-08-2017 11:00:00.00	0.2116	5.8249	19.5382	9.32900006564038	333.882656561657
03-08-2017 12:00:00.00	0.2123	5.8393	19.5442	9.33495113771133	334.841867182347
03-08-2017 13:00:00.00	0.2118	5.7877	19.5415	9.3322731552794	334.573334565262
03-08-2017 14:00:00.00	0.2109	5.7883	19.5545	9.34516714476645	333.145603916289
03-08-2017 15:00:00.00	0.2116	5.7949	19.5556	9.34625817464613	334.184804417948
03-08-2017 16:00:00.00	0.2104	5.8279	19.5591	9.34972963335418	331.959168580494
03-08-2017 17:00:00.00	0.2123	5.8418	19.5665	9.35706928890835	334.816651531314
03-08-2017 18:00:00.00	0.2105	5.869	19.5749	9.36540078980768	331.70610870285
03-08-2017 19:00:00.00	0.2104	5.8346	19.5699	9.36044156308189	331.892157889933
03-08-2017 20:00:00.00	0.2122	5.8399	19.5711	9.36163177749608	334.678096843697
03-08-2017 21:00:00.00	0.2121	5.9283	19.5795	9.3699632783954	333.63192420537
03-08-2017 22:00:00.00	0.211	5.8143	19.5839	9.3743273979141	333.042313278446
03-08-2017 23:00:00.00	0.211	5.852	19.5826	9.37303799896539	332.664221032829
04-08-2017 00:00:00.00	0.2122	5.8124	19.589	9.37938580917441	334.955579081371
04-08-2017 01:00:00.00	0.2118	5.8359	19.5861	9.37650945767345	334.087480349291
04-08-2017 02:00:00.00	0.2107	5.8305	19.5925	9.38285726788246	332.406449947232
04-08-2017 03:00:00.00	0.2111	5.8346	19.5967	9.38702301833212	332.996361837286
04-08-2017 04:00:00.00	0.2121	5.8913	19.6004	9.39069284610921	334.003213706169
04-08-2017 05:00:00.00	0.2102	5.7986	19.5963	9.38662628019406	331.936704123718
04-08-2017 06:00:00.00	0.2107	5.8674	19.6027	9.39297409040307	332.037258646182
04-08-2017 07:00:00.00	0.2113	5.8091	19.6088	9.39902434700854	333.568125511788
04-08-2017 08:00:00.00	0.2117	5.8537	19.6121	9.40229743664756	333.750760891039
04-08-2017 09:00:00.00	0.211	5.8583	19.6102	9.40041293049176	332.601122208797
04-08-2017 10:00:00.00	0.21	5.9128	19.6064	9.39664391818016	330.482538498698
04-08-2017 11:00:00.00	0.2124	5.8614	19.6042	9.39446185842081	334.776708506295
04-08-2017 12:00:00.00	0.2117	5.9563	19.6059	9.39614799550758	332.722828069227
04-08-2017 13:00:00.00	0.2125	5.9376	19.6071	9.39733820992177	334.167751519339
04-08-2017 14:00:00.00	0.2123	5.8728	19.6155	9.4056697108211	334.504292684292
04-08-2017 15:00:00.00	0.2123	5.8908	19.6106	9.40080966862982	334.323190338334
04-08-2017 16:00:00.00	0.2118	5.9216	19.6071	9.39733820992177	333.227103427651
04-08-2017 17:00:00.00	0.2125	5.9263	19.6158	9.40596726442464	334.281208017721
04-08-2017 18:00:00.00	0.2112	5.9332	19.6148	9.40497541907948	332.1673295439
04-08-2017 19:00:00.00	0.2116	5.9326	19.6136	9.4037852046653	332.80243271658
04-08-2017 20:00:00.00	0.2113	5.937	19.6109	9.40110722223337	332.286674864015
04-08-2017 21:00:00.00	0.2115	5.942	19.6148	9.40497541907948	332.551248270026
04-08-2017 22:00:00.00	0.211	5.9558	19.6089	9.39912353154305	331.627635665644
04-08-2017 23:00:00.00	0.2122	5.9489	19.6037	9.39396593574823	333.582765837836
05-08-2017 00:00:00.00	0.2122	5.9734	19.6025	9.39277572133404	333.337553723976
05-08-2017 01:00:00.00	0.2112	5.9382	19.6062	9.39644554911113	332.117445912425
05-08-2017 02:00:00.00	0.2112	5.9645	19.6064	9.39664391818016	331.855304487848
05-08-2017 03:00:00.00	0.2125	5.9581	19.6013	9.39158550691985	333.962119831863
05-08-2017 04:00:00.00	0.2113	5.9756	19.6064	9.39664391818016	331.901867126284
05-08-2017 05:00:00.00	0.2123	5.9199	19.5964	9.38672546472858	334.030822627289
05-08-2017 06:00:00.00	0.2121	5.931	19.5964	9.38672546472858	333.604862420631
05-08-2017 07:00:00.00	0.2115	5.9859	19.593	9.38335319055504	332.113391080446
05-08-2017 08:00:00.00	0.2113	5.9959	19.589	9.37938580917441	331.699851538807
05-08-2017 09:00:00.00	0.2111	6.0033	19.5907	9.38107194626117	331.312380129776
05-08-2017 10:00:00.00	0.2122	5.995	19.5857	9.37611271953539	333.121665545534
05-08-2017 11:00:00.00	0.2116	5.9469	19.5867	9.37710456488054	332.659530092631
05-08-2017 12:00:00.00	0.2119	5.9757	19.5792	9.36966572479186	332.843325337606
05-08-2017 13:00:00.00	0.212	5.9924	19.5778	9.36827714130864	332.833643276814
05-08-2017 14:00:00.00	0.2125	6.0259	19.5778	9.36827714130864	333.28382957518
05-08-2017 15:00:00.00	0.2118	6.0382	19.5769	9.36738448049799	332.063600307555
05-08-2017 16:00:00.00	0.2115	6.057	19.5719	9.3624252537722	331.406682694319
05-08-2017 17:00:00.00	0.2115	5.9956	19.566	9.35657336623577	332.016799076745
05-08-2017 18:00:00.00	0.2117	5.9962	19.5647	9.35528396728706	332.324784386832
05-08-2017 19:00:00.00	0.212	6.0337	19.5612	9.35181250857901	332.421958809877
05-08-2017 20:00:00.00	0.2123	6.0214	19.5485	9.33921607269551	333.015042272205
05-08-2017 21:00:00.00	0.2131	5.9912	19.5464	9.33713319747067	334.57264945993
05-08-2017 22:00:00.00	0.2112	6.009	19.5333	9.3241400234491	331.412698410208
05-08-2017 23:00:00.00	0.2125	6.0058	19.5307	9.32156122555169	333.484628116304
06-08-2017 00:00:00.00	0.2119	6.0074	19.5246	9.31551096894623	332.52707679009
06-08-2017 01:00:00.00	0.2139	5.9904	19.5191	9.31005581954786	335.8367273934
06-08-2017 02:00:00.00	0.2136	6.0566	19.5104	9.30142676504498	334.701252337385
06-08-2017 03:00:00.00	0.2104	6.0444	19.4985	9.2896238054376	329.807424441652
06-08-2017 04:00:00.00	0.2129	6.0011	19.4941	9.28525968591891	334.159440135242
06-08-2017 05:00:00.00	0.2127	6.0163	19.4939	9.28506131684988	333.693472314024
06-08-2017 06:00:00.00	0.2122	6.0261	19.494	9.28516050138439	332.811317266096
06-08-2017 07:00:00.00	0.212	6.0391	19.4942	9.28535887045342	332.368206090111
06-08-2017 08:00:00.00	0.2124	6.0648	19.4878	9.27901106024441	332.739248605848
06-08-2017 09:00:00.00	0.2117	6.0808	19.4845	9.27573797060539	331.483954548148
06-08-2017 10:00:00.00	0.213	5.9957	19.4842	9.27544041700184	334.370525586668
06-08-2017 11:00:00.00	0.2128	5.9992	19.4762	9.26750565424058	334.021509729507
06-08-2017 12:00:00.00	0.2118	6.0406	19.481	9.27226651189734	332.039737035816
06-08-2017 13:00:00.00	0.2132	6.0226	19.4839	9.27514286339829	334.414764593809
06-08-2017 14:00:00.00	0.2125	6.0707	19.4821	9.27335754177701	332.837147545235
06-08-2017 15:00:00.00	0.2129	6.0184	19.4784	9.26968771399993	333.986224895813
06-08-2017 16:00:00.00	0.212	6.0403	19.4798	9.27107629748315	332.356263401933
06-08-2017 17:00:00.00	0.2122	6.0913	19.4771	9.26839831505122	332.162556848988
06-08-2017 18:00:00.00	0.213	6.0649	19.4826	9.27385346444959	333.678191571981
06-08-2017 19:00:00.00	0.2124	6.0878	19.4801	9.27137385108669	332.510417015967
06-08-2017 20:00:00.00	0.2117	6.0226	19.4832	9.27444857165668	332.061940265053
06-08-2017 21:00:00.00	0.2118	6.0642	19.4898	9.28099475093473	331.805264085815
06-08-2017 22:00:00.00	0.2115	6.0881	19.4869	9.27811839943377	331.098504529028
06-08-2017 23:00:00.00	0.2129	6.0552	19.4934	9.2845653941773	333.618363658496
07-08-2017 00:00:00.00	0.2139	6.0664	19.4955	9.28664826940213	335.073060652266
07-08-2017 01:00:00.00	0.2121	6.0529	19.5003	9.29140912705889	332.387629670158
07-08-2017 02:00:00.00	0.2131	6.0959	19.5	9.29111157345534	333.525482199826
07-08-2017 03:00:00.00	0.211	6.1415	19.505	9.29607080018113	329.789193589617
07-08-2017 04:00:00.00	0.2132	6.0248	19.5092	9.30023655063079	334.392724618118
07-08-2017 05:00:00.00	0.2117	6.0157	19.521	9.31194032570366	332.130598018478
07-08-2017 06:00:00.00	0.2126	6.055	19.5237	9.31461830813559	333.150252174056
07-08-2017 07:00:00.00	0.2109	6.0176	19.5248	9.31570933801526	330.856661787119
07-08-2017 08:00:00.00	0.213	6.0613	19.5327	9.32354491624201	333.714138244419
07-08-2017 09:00:00.00	0.212	6.097	19.5395	9.33028946458908	331.792948053901
07-08-2017 10:00:00.00	0.2116	6.0973	19.5437	9.33445521503875	331.163953811518
07-08-2017 11:00:00.00	0.2132	6.112	19.547	9.33772830467777	333.521473651804
07-08-2017 12:00:00.00	0.2135	5.9919	19.5462	9.33693482840164	335.193623929616
07-08-2017 13:00:00.00	0.2126	6.0416	19.558	9.34863860347451	333.283920778381
07-08-2017 14:00:00.00	0.2136	6.0534	19.5545	9.34516714476645	334.733310480785
07-08-2017 15:00:00.00	0.2129	6.0342	19.5579	9.34853941893999	333.828185140327
07-08-2017 16:00:00.00	0.2117	6.0683	19.5606	9.35121740137192	331.607922644283
07-08-2017 17:00:00.00	0.2129	6.0766	19.5681	9.3586562414606	333.404816745898
07-08-2017 18:00:00.00	0.2123	6.0654	19.566	9.35657336623577	332.576621000852
07-08-2017 19:00:00.00	0.2126	6.14	19.5692	9.35974727134028	332.304845148443
07-08-2017 20:00:00.00	0.2123	5.9731	19.5615	9.35211006218256	333.497642055426
07-08-2017 21:00:00.00	0.2114	6.0941	19.5719	9.3624252537722	330.88259520141
07-08-2017 22:00:00.00	0.2123	6.0593	19.5707	9.36123503935801	332.637333193071
07-08-2017 23:00:00.00	0.2129	5.9998	19.572	9.36252443830672	334.172463567432
08-08-2017 00:00:00.00	0.2119	6.0453	19.5691	9.35964808680576	332.149763083483
08-08-2017 01:00:00.00	0.2129	5.9992	19.5696	9.36014400947834	334.17847472468
08-08-2017 02:00:00.00	0.2126	6.0162	19.5743	9.36480568260058	333.537587191604
08-08-2017 03:00:00.00	0.2123	6.0521	19.5736	9.36411139085897	332.709022013975
08-08-2017 04:00:00.00	0.2122	6.0512	19.5696	9.36014400947834	332.561264617964
08-08-2017 05:00:00.00	0.2136	6.0682	19.5727	9.36321873004833	334.585093024838
08-08-2017 06:00:00.00	0.2118	5.9666	19.5649	9.3554823363561	332.777102220359
08-08-2017 07:00:00.00	0.2121	6.0185	19.571	9.36153259296156	332.730230376858
08-08-2017 08:00:00.00	0.2129	6.0407	19.5678	9.35835868785705	333.763212198608
08-08-2017 09:00:00.00	0.2113	6.0446	19.5679	9.35845787239157	331.216214339433
08-08-2017 10:00:00.00	0.2128	6.0714	19.566	9.35657336623577	333.300055536435
08-08-2017 11:00:00.00	0.2111	6.0659	19.5615	9.35211006218256	330.691824685586
08-08-2017 12:00:00.00	0.212	6.0874	19.5605	9.3511182168374	331.888189874611
08-08-2017 13:00:00.00	0.2128	6.1123	19.5634	9.35399456833836	332.89274582123
08-08-2017 14:00:00.00	0.2123	6.1101	19.5621	9.35270516938966	332.132405342147
08-08-2017 15:00:00.00	0.2134	6.0447	19.555	9.34566306743903	334.506997270351
08-08-2017 16:00:00.00	0.212	5.9982	19.5593	9.34992800242321	332.775766490114
08-08-2017 17:00:00.00	0.2133	6.0222	19.5539	9.34457203755936	334.575629009241
08-08-2017 18:00:00.00	0.2131	6.0189	19.5528	9.34348100767969	334.294966033922
08-08-2017 19:00:00.00	0.2137	6.0381	19.5458	9.33653809026358	335.043455543818
08-08-2017 20:00:00.00	0.2119	6.0441	19.546	9.33673645933261	332.161696564694
08-08-2017 21:00:00.00	0.2122	6.059	19.5461	9.33683564386713	332.4836355221
08-08-2017 22:00:00.00	0.2118	6.0513	19.5414	9.33217397074488	331.933388334811
08-08-2017 23:00:00.00	0.2119	6.0312	19.5377	9.3285041429678	332.290035664647
09-08-2017 00:00:00.00	0.2118	6.0281	19.5415	9.3322731552794	332.164062511395
09-08-2017 01:00:00.00	0.2135	6.0376	19.5358	9.326619636812	334.734903126622
09-08-2017 02:00:00.00	0.2116	6.0421	19.5373	9.32810740482973	331.711297486389
09-08-2017 03:00:00.00	0.2134	6.0505	19.5362	9.32701637495006	334.448920567676
09-08-2017 04:00:00.00	0.2133	6.028	19.5381	9.32890088110586	334.517501240522
09-08-2017 05:00:00.00	0.2129	6.0164	19.5421	9.3328682624865	334.006240598328
09-08-2017 06:00:00.00	0.2129	6.0248	19.5374	9.32820658936425	333.922190765466
09-08-2017 07:00:00.00	0.2116	6.0862	19.5338	9.32463594612168	331.273872345148
09-08-2017 08:00:00.00	0.2113	6.1161	19.5329	9.32374328531104	330.508701380633
09-08-2017 09:00:00.00	0.2124	6.1642	19.5301	9.3209661183446	331.752552206434
09-08-2017 10:00:00.00	0.2118	6.1823	19.5272	9.31808976684364	330.636863265874
09-08-2017 11:00:00.00	0.2122	6.1592	19.5243	9.31521341534268	331.489613721183
09-08-2017 12:00:00.00	0.2127	6.1382	19.5266	9.31749465963654	332.479017010077
09-08-2017 13:00:00.00	0.212	6.1697	19.5242	9.31511423080816	331.073460250344
09-08-2017 14:00:00.00	0.2117	6.2022	19.5237	9.31461830813559	330.28478036811
09-08-2017 15:00:00.00	0.2126	6.1934	19.5272	9.31808976684364	331.775921601256
09-08-2017 16:00:00.00	0.2134	6.1391	19.5238	9.3147174926701	333.564249202756
09-08-2017 17:00:00.00	0.2123	6.145	19.5221	9.31303135558333	331.786403321302
09-08-2017 18:00:00.00	0.2118	6.1538	19.518	9.30896478966818	330.918068904641
09-08-2017 19:00:00.00	0.2128	6.186	19.5214	9.31233706384172	332.161299275145
09-08-2017 20:00:00.00	0.2125	6.1578	19.5177	9.30866723606464	331.972127838858
09-08-2017 21:00:00.00	0.2119	6.1126	19.52	9.3109484803585	331.48186346808
09-08-2017 22:00:00.00	0.2121	6.1327	19.5147	9.30569170002916	331.595585898367
09-08-2017 23:00:00.00	0.2124	6.1012	19.5057	9.29676509192274	332.377242787429
10-08-2017 00:00:00.00	0.212	6.0901	19.5078	9.29884796714757	331.861397586375
10-08-2017 01:00:00.00	0.213	6.1334	19.5053	9.29636835378468	332.995678841708
10-08-2017 02:00:00.00	0.2121	6.138	19.5123	9.30331127120078	331.54311514222
10-08-2017 03:00:00.00	0.2119	6.1582	19.5012	9.29230178786953	331.030843794965
10-08-2017 04:00:00.00	0.2123	6.1347	19.5056	9.29666590738823	331.888443524022
10-08-2017 05:00:00.00	0.213	6.1294	19.501	9.2921034188005	333.03545683099
10-08-2017 06:00:00.00	0.2126	6.1268	19.4884	9.2796061674515	332.435850357458
10-08-2017 07:00:00.00	0.2124	6.0829	19.4787	9.26998526760347	332.559141705564
10-08-2017 08:00:00.00	0.2127	6.1015	19.4773	9.26859668412025	332.84371766872
10-08-2017 09:00:00.00	0.2124	6.1288	19.473	9.26433174913607	332.103279491741
10-08-2017 10:00:00.00	0.2125	6.1014	19.4705	9.26185213577318	332.531741445727
10-08-2017 11:00:00.00	0.2127	6.1441	19.4627	9.25411574208094	332.420461215495
10-08-2017 12:00:00.00	0.2129	6.1227	19.4598	9.25123939057999	332.94572029241
10-08-2017 13:00:00.00	0.2123	6.1562	19.4544	9.24588342571613	331.675518169179
10-08-2017 14:00:00.00	0.2127	6.2051	19.4579	9.24935488442418	331.816260653513
10-08-2017 15:00:00.00	0.2128	6.1249	19.4524	9.24389973502582	332.767467051134
10-08-2017 16:00:00.00	0.2119	6.1531	19.4515	9.24300707421517	331.081225818005
10-08-2017 17:00:00.00	0.2127	6.1697	19.4473	9.23884132376551	332.166627336077
10-08-2017 18:00:00.00	0.2143	6.1517	19.4427	9.23427883517778	334.845073684432
10-08-2017 19:00:00.00	0.2121	6.1872	19.4467	9.23824621655841	331.056819526989
10-08-2017 20:00:00.00	0.2115	6.1955	19.4411	9.23269188262553	330.03864260958
10-08-2017 21:00:00.00	0.2124	6.1576	19.4404	9.23199759088392	331.817885846399
10-08-2017 22:00:00.00	0.2111	6.1889	19.4426	9.23417965064326	329.479268707106
10-08-2017 23:00:00.00	0.2124	6.1711	19.4511	9.24261033607711	331.684276358527
11-08-2017 00:00:00.00	0.2106	6.2096	19.4425	9.23408046610875	328.49617259844
11-08-2017 01:00:00.00	0.2074	6.1864	19.4592	9.25064428337289	323.728533551575
11-08-2017 02:00:00.00	0.2075	6.1544	19.4566	9.24806548547548	324.19390864175
11-08-2017 03:00:00.00	0.2099	6.2085	19.4564	9.24786711640645	327.415034901522
11-08-2017 04:00:00.00	0.2078	6.1845	19.4548	9.24628016385419	324.371263359729
11-08-2017 05:00:00.00	0.2117	6.1591	19.453	9.24449484223291	330.709522205035
11-08-2017 06:00:00.00	0.2102	6.1783	19.4569	9.24836303907903	328.178275057204
11-08-2017 07:00:00.00	0.2108	6.1518	19.4549	9.24637934838871	329.37531908234
11-08-2017 08:00:00.00	0.2101	6.1722	19.4616	9.25302471220127	328.081827511659
11-08-2017 09:00:00.00	0.2112	6.1453	19.4621	9.25352063487385	330.064347075914
11-08-2017 10:00:00.00	0.2102	6.1637	19.4626	9.25401655754643	328.321217858669
11-08-2017 11:00:00.00	0.2115	6.1426	19.4637	9.2551075874261	330.559829563039
11-08-2017 12:00:00.00	0.2119	6.1674	19.4771	9.26839831505122	330.939997345608
11-08-2017 13:00:00.00	0.2105	6.1717	19.4783	9.26958852946541	328.711349850113
11-08-2017 14:00:00.00	0.2111	6.158	19.4833	9.2745477561912	329.783049307487
11-08-2017 15:00:00.00	0.2112	6.1503	19.4943	9.28545805498794	330.01509303402
11-08-2017 16:00:00.00	0.2103	6.1525	19.4985	9.2896238054376	328.587203926797
11-08-2017 17:00:00.00	0.2106	6.1561	19.5036	9.29468221669791	329.020596142513
11-08-2017 18:00:00.00	0.2097	6.1706	19.5066	9.29765775273338	327.472834512095
11-08-2017 19:00:00.00	0.2104	6.1743	19.5113	9.30231942585562	328.529715692351
11-08-2017 20:00:00.00	0.2109	6.1285	19.5162	9.3071794680469	329.760871769538
11-08-2017 21:00:00.00	0.2109	6.1152	19.5184	9.30936152780625	329.891904324403
11-08-2017 22:00:00.00	0.2115	6.1211	19.5235	9.31441993906655	330.772124889983
11-08-2017 23:00:00.00	0.2108	6.1254	19.523	9.31392401639397	329.635030533617
12-08-2017 00:00:00.00	0.2116	6.1667	19.5282	9.31908161218879	330.478365716387
12-08-2017 01:00:00.00	0.2125	6.1742	19.5301	9.3209661183446	331.809756618402
12-08-2017 02:00:00.00	0.2097	6.0648	19.5344	9.32523105332878	328.509512394756
12-08-2017 03:00:00.00	0.2113	6.092	19.532	9.3228506245004	330.746839825864
12-08-2017 04:00:00.00	0.2108	6.119	19.5257	9.3166019988259	329.698052576204
12-08-2017 05:00:00.00	0.2113	6.1213	19.5269	9.31779221324009	330.457363782558
12-08-2017 06:00:00.00	0.2087	6.1457	19.5205	9.31144440303108	326.153441175883
12-08-2017 07:00:00.00	0.209	6.1436	19.5118	9.30281534852821	326.642752041142
12-08-2017 08:00:00.00	0.2093	6.0285	19.5053	9.29636835378468	328.239401791924
12-08-2017 09:00:00.00	0.2098	6.1408	19.4959	9.28704500754019	327.920467814028
12-08-2017 10:00:00.00	0.2111	6.0432	19.4842	9.27544041700184	330.916581557409
12-08-2017 11:00:00.00	0.2108	6.0743	19.4705	9.26185213577318	330.138894977195
12-08-2017 12:00:00.00	0.2112	6.0747	19.4597	9.25114020604547	330.761386871846
12-08-2017 13:00:00.00	0.2117	6.0983	19.4494	9.24092419899034	331.310554848462
12-08-2017 14:00:00.00	0.2111	6.0451	19.4517	9.2432054432842	330.897757593206
12-08-2017 15:00:00.00	0.2104	6.1001	19.4452	9.23675844854068	329.258338862573
12-08-2017 16:00:00.00	0.2097	6.0873	19.4348	9.22644325695103	328.288497740093
12-08-2017 17:00:00.00	0.2112	6.0831	19.4417	9.23328698983262	330.678298693346
12-08-2017 18:00:00.00	0.2104	6.0083	19.4339	9.22555059614039	330.164274144749
12-08-2017 19:00:00.00	0.2099	6.0528	19.4367	9.22832776310683	328.940934933195
12-08-2017 20:00:00.00	0.2103	6.0423	19.4355	9.22713754869265	329.671399444744
12-08-2017 21:00:00.00	0.2092	6.1261	19.4401	9.23170003728037	327.126217601076
12-08-2017 22:00:00.00	0.2113	6.0954	19.4349	9.22654244148555	330.713222741037
12-08-2017 23:00:00.00	0.211	6.01	19.4346	9.226244887882	331.088937392808
13-08-2017 00:00:00.00	0.2096	6.0301	19.4342	9.22584814974394	328.69413036809
13-08-2017 01:00:00.00	0.2094	6.0173	19.4408	9.23239432902198	328.506437949628
13-08-2017 02:00:00.00	0.2107	6.0086	19.4421	9.23368372797069	330.632067770441
13-08-2017 03:00:00.00	0.2095	6.0405	19.4475	9.23903969283454	328.43500094964
13-08-2017 04:00:00.00	0.2095	6.0103	19.4514	9.24290788968066	328.732268875756
13-08-2017 05:00:00.00	0.2092	6.0911	19.448	9.23953561550712	327.468531596823
13-08-2017 06:00:00.00	0.2092	6.0368	19.4518	9.24330462781872	328.001027527502
13-08-2017 07:00:00.00	0.2079	6.0967	19.4536	9.24508994944001	325.379115578246
13-08-2017 08:00:00.00	0.2061	6.0986	19.4554	9.24687527106129	322.54366100295
13-08-2017 09:00:00.00	0.2094	6.0045	19.4629	9.25431411114998	328.632481617022
13-08-2017 10:00:00.00	0.2077	6.0342	19.4646	9.25600024823675	325.674561078657
13-08-2017 11:00:00.00	0.2072	6.0114	19.4619	9.25332226580482	325.112556885675
13-08-2017 12:00:00.00	0.2065	6.0283	19.4736	9.26492685634317	323.850179347916
13-08-2017 13:00:00.00	0.208	6.0632	19.4692	9.26056273682447	325.861945578799
13-08-2017 14:00:00.00	0.2089	6.0389	19.4675	9.2588765997377	327.510066387968
13-08-2017 15:00:00.00	0.2081	6.0147	19.4719	9.2632407192564	326.492435597014
13-08-2017 16:00:00.00	0.2072	6.0015	19.4655	9.25689290904739	325.209045300349
13-08-2017 17:00:00.00	0.2072	6.0436	19.4655	9.25689290904739	324.799121462268
13-08-2017 18:00:00.00	0.207	6.0316	19.4646	9.25600024823675	324.602233677353
13-08-2017 19:00:00.00	0.2074	5.9555	19.4528	9.24429647316388	325.972469471712
13-08-2017 20:00:00.00	0.2075	6.0005	19.4561	9.2475695628029	325.68967142307
13-08-2017 21:00:00.00	0.209	5.9725	19.4527	9.24419728862936	328.319651384225
13-08-2017 22:00:00.00	0.2095	5.9879	19.452	9.24350299688775	328.953106816067
13-08-2017 23:00:00.00	0.2078	5.9535	19.4408	9.23239432902198	326.620763193895
14-08-2017 00:00:00.00	0.2068	5.9984	19.4437	9.23527068052294	324.611395580362
14-08-2017 01:00:00.00	0.2075	5.9818	19.4391	9.23070819193521	325.872358733861
14-08-2017 02:00:00.00	0.2072	5.9966	19.441	9.23259269809101	325.256823384258
14-08-2017 03:00:00.00	0.2082	5.9053	19.44	9.23160085274586	327.723711847872
14-08-2017 04:00:00.00	0.2074	5.9597	19.4417	9.23328698983262	325.931375227521
14-08-2017 05:00:00.00	0.2051	5.9326	19.4422	9.2337829125052	322.579295605721
14-08-2017 06:00:00.00	0.2071	5.9174	19.446	9.23755192481681	325.873674244087
14-08-2017 07:00:00.00	0.2069	5.9018	19.4526	9.24409810409485	325.711680020846
14-08-2017 08:00:00.00	0.207	5.9074	19.4559	9.24737119373387	325.814243635455
14-08-2017 09:00:00.00	0.2078	5.9651	19.4593	9.25074346790741	326.507057509756
14-08-2017 10:00:00.00	0.2073	5.9671	19.4654	9.25679372451287	325.701880088571
14-08-2017 11:00:00.00	0.2059	6.0054	19.4815	9.27276243456992	323.130862161163
14-08-2017 12:00:00.00	0.2029	6.0091	19.4849	9.27613470874345	318.387476177626
14-08-2017 13:00:00.00	0.1942	5.9052	19.4981	9.28922706729954	305.68749369185
14-08-2017 14:00:00.00	0.1751	5.2828	19.4977	9.28883032916147	280.878383541855
14-08-2017 15:00:00.00	0.1972	5.7837	19.5082	9.29924470528563	311.547805359782
14-08-2017 16:00:00.00	0.1944	5.783	19.5117	9.30271616399369	307.130693115296
14-08-2017 17:00:00.00	0.1949	5.7382	19.5137	9.304699854684	308.337473767189
14-08-2017 18:00:00.00	0.1922	5.698	19.5068	9.29785612180241	304.435797468146
14-08-2017 19:00:00.00	0.1906	5.6285	19.5081	9.29914552075112	302.537593589632
14-08-2017 20:00:00.00	0.1889	5.6509	19.5069	9.29795530633693	299.635714984668
14-08-2017 21:00:00.00	0.1911	5.6509	19.5077	9.29874878261306	303.125384508047
14-08-2017 22:00:00.00	0.1878	5.5388	19.5092	9.30023655063079	298.906042084825
14-08-2017 23:00:00.00	0.1875	5.5814	19.5085	9.29954225888918	298.042580318184
15-08-2017 00:00:00.00	0.1892	5.5991	19.5098	9.30083165783789	300.583304780302
15-08-2017 01:00:00.00	0.1889	5.5867	19.511	9.30202187225208	300.219656212099
15-08-2017 02:00:00.00	0.1895	5.6132	19.5084	9.29944307435467	300.931162004632
15-08-2017 03:00:00.00	0.1898	5.6302	19.5119	9.30291453306272	301.252234750344
15-08-2017 04:00:00.00	0.1889	5.6202	19.5031	9.29418629402533	299.914668005576
15-08-2017 05:00:00.00	0.1904	5.6332	19.5109	9.30192268771756	302.177077926072
15-08-2017 06:00:00.00	0.1874	5.577	19.5102	9.30122839597595	297.923422869867
15-08-2017 07:00:00.00	0.1892	5.6276	19.5107	9.30172431864853	300.323581198068
15-08-2017 08:00:00.00	0.1867	5.5601	19.5032	9.29428547855984	296.962972248468
15-08-2017 09:00:00.00	0.1881	5.5686	19.5056	9.29666590738823	299.112556420722
15-08-2017 10:00:00.00	0.1897	5.6088	19.5096	9.30063328876886	301.288976819458
15-08-2017 11:00:00.00	0.1891	5.5959	19.505	9.29607080018113	300.453608683786
15-08-2017 12:00:00.00	0.189	5.5745	19.5112	9.30222024132111	300.489870033361
15-08-2017 13:00:00.00	0.1871	5.5609	19.516	9.30698109897787	297.59197512621
15-08-2017 14:00:00.00	0.1874	5.5254	19.5169	9.30787375978851	298.39094672314
15-08-2017 15:00:00.00	0.1887	5.5556	19.5192	9.31015500408238	300.18518896777
15-08-2017 16:00:00.00	0.1875	5.5253	19.5187	9.30965908140979	298.551081445165
15-08-2017 17:00:00.00	0.1876	5.5154	19.522	9.31293217104882	298.800272309621
15-08-2017 18:00:00.00	0.1874	5.5242	19.5229	9.31382483185946	298.4018368305
15-08-2017 19:00:00.00	0.1878	5.5609	19.522	9.31293217104882	298.705360388574
15-08-2017 20:00:00.00	0.1891	5.5423	19.5202	9.31114684942753	300.943126475701
15-08-2017 21:00:00.00	0.1877	5.5237	19.5276	9.3184865049817	298.884079585203
15-08-2017 22:00:00.00	0.1875	5.5273	19.5371	9.3279090357607	298.532923237728
15-08-2017 23:00:00.00	0.1835	5.4279	19.5373	9.32810740482973	293.050055233148
16-08-2017 00:00:00.00	0.1863	5.5065	19.5426	9.33336418515907	296.810056619346
16-08-2017 01:00:00.00	0.1872	5.4923	19.5519	9.34258834686904	298.372849486055
16-08-2017 02:00:00.00	0.1882	5.5345	19.5648	9.35538315182158	299.581850911229
16-08-2017 03:00:00.00	0.1893	5.4974	19.5719	9.3624252537722	301.673143316544
16-08-2017 04:00:00.00	0.1867	5.4716	19.5762	9.36669018875638	297.763554876436
16-08-2017 05:00:00.00	0.1873	5.5318	19.5883	9.3786915174328	298.173683798796
16-08-2017 06:00:00.00	0.1874	5.5017	19.5936	9.38394829776213	298.606173623683
16-08-2017 07:00:00.00	0.1862	5.4219	19.5999	9.39019692343663	297.416395524449
16-08-2017 08:00:00.00	0.1884	5.4724	19.6123	9.40249580571659	300.467523639171
16-08-2017 09:00:00.00	0.1863	5.4671	19.617	9.40715747883883	297.166339504551
16-08-2017 10:00:00.00	0.1873	5.474	19.6237	9.41380284265139	298.698643528605
16-08-2017 11:00:00.00	0.187	5.4585	19.6264	9.41648082508332	298.361080248999
16-08-2017 12:00:00.00	0.186	5.3934	19.6281	9.41816696217009	297.355483396581
16-08-2017 13:00:00.00	0.1857	5.4128	19.6392	9.42917644550134	296.700119485308
16-08-2017 14:00:00.00	0.184	5.3875	19.6393	9.42927563003586	294.211116463231
16-08-2017 15:00:00.00	0.1852	5.4137	19.6476	9.43750794640067	295.893123276057
16-08-2017 16:00:00.00	0.1872	5.4076	19.6525	9.44236798859194	299.144198306013
16-08-2017 17:00:00.00	0.1854	5.402	19.6552	9.44504597102387	296.318458913863
16-08-2017 18:00:00.00	0.185	5.3861	19.6576	9.44742639985225	295.822738282058
16-08-2017 19:00:00.00	0.186	5.4019	19.6559	9.44574026276548	297.278325825644
16-08-2017 20:00:00.00	0.1858	5.378	19.6591	9.44891416786999	297.175489323915
16-08-2017 21:00:00.00	0.1854	5.4007	19.6584	9.44821987612838	296.33021875995
16-08-2017 22:00:00.00	0.1864	5.389	19.6576	9.44742639985225	298.034999605871
16-08-2017 23:00:00.00	0.1856	5.3913	19.6566	9.44643455450709	296.735036859975
17-08-2017 00:00:00.00	0.1847	5.3609	19.6608	9.45060030495675	295.570511818188
17-08-2017 01:00:00.00	0.1848	5.389	19.6616	9.45139378123288	295.476759265907
17-08-2017 02:00:00.00	0.1851	5.3884	19.6615	9.45129459669837	295.961852356
17-08-2017 03:00:00.00	0.1849	5.3556	19.6584	9.44821987612838	295.938507275286
17-08-2017 04:00:00.00	0.1838	5.3307	19.6571	9.44693047717967	294.402019283909
17-08-2017 05:00:00.00	0.1862	5.3509	19.6521	9.44197125045388	298.062025362837
17-08-2017 06:00:00.00	0.1857	5.3803	19.6483	9.43820223814228	296.994677749819
17-08-2017 07:00:00.00	0.1827	5.3067	19.6513	9.44117777417775	292.855118930355
17-08-2017 08:00:00.00	0.1834	5.27	19.6475	9.43740876186616	294.307855002832
17-08-2017 09:00:00.00	0.1833	5.2713	19.6443	9.43423485676165	294.135661817996
17-08-2017 10:00:00.00	0.1836	5.2394	19.6358	9.4258041713278	294.905393675089
17-08-2017 11:00:00.00	0.1839	5.2661	19.639	9.42897807643231	295.145501676816
17-08-2017 12:00:00.00	0.1843	5.2839	19.6372	9.42719275481103	295.62616517091
17-08-2017 13:00:00.00	0.1846	5.3057	19.6333	9.42332455796491	295.909743488731
17-08-2017 14:00:00.00	0.1845	5.2974	19.6247	9.41479468799655	295.824620670262
17-08-2017 15:00:00.00	0.184	5.2992	19.626	9.41608408694526	295.006665868011
17-08-2017 16:00:00.00	0.1849	5.3167	19.6234	9.41350528904784	296.290850379899
17-08-2017 17:00:00.00	0.184	5.2955	19.6113	9.40150396037143	295.040095387746
17-08-2017 18:00:00.00	0.1845	5.2956	19.6045	9.39475941202436	295.840928721802
17-08-2017 19:00:00.00	0.1835	5.2546	19.6077	9.39793331712886	294.60738757164
17-08-2017 20:00:00.00	0.184	5.2863	19.5944	9.38474177403826	295.123250286025
17-08-2017 21:00:00.00	0.1862	5.2911	19.5941	9.38444422043471	298.607988026686
17-08-2017 22:00:00.00	0.1841	5.3069	19.5943	9.38464258950374	295.09741252145
17-08-2017 23:00:00.00	0.1857	5.2983	19.5893	9.37968336277796	297.740476862238
18-08-2017 00:00:00.00	0.1847	5.3053	19.5803	9.37075675467153	296.073667232081
18-08-2017 01:00:00.00	0.1848	5.2723	19.5783	9.36877306398121	296.533575455351
18-08-2017 02:00:00.00	0.1847	5.2682	19.5711	9.36163177749608	296.41035981008
18-08-2017 03:00:00.00	0.1841	5.2818	19.5668	9.3573668425119	295.324356135956
18-08-2017 04:00:00.00	0.1835	5.2746	19.5672	9.35776358064996	294.426816452205
18-08-2017 05:00:00.00	0.185	5.2844	19.5678	9.35835868785705	296.744453493279
18-08-2017 06:00:00.00	0.1839	5.2309	19.5643	9.354887229149	295.464314297296
18-08-2017 07:00:00.00	0.1843	5.2494	19.5677	9.35825950332254	295.938969066815
18-08-2017 08:00:00.00	0.1848	5.2332	19.5629	9.35349864566578	296.889351459349
18-08-2017 09:00:00.00	0.1831	5.2621	19.5593	9.34992800242321	293.897599174429
18-08-2017 10:00:00.00	0.1843	5.2548	19.556	9.34665491278419	295.88996476742
18-08-2017 11:00:00.00	0.1833	5.2753	19.5548	9.34546469837	294.099606193728
18-08-2017 12:00:00.00	0.1837	5.2019	19.5524	9.34308426954162	295.40587263337
18-08-2017 13:00:00.00	0.1844	5.212	19.557	9.34764675812935	296.439574233035
18-08-2017 14:00:00.00	0.1849	5.2226	19.5544	9.34506796023194	297.146656065168
18-08-2017 15:00:00.00	0.1861	5.2183	19.5574	9.34804349626741	299.114615915054
18-08-2017 16:00:00.00	0.1852	5.223	19.5616	9.35220924671708	297.625121874434
18-08-2017 17:00:00.00	0.1848	5.2343	19.554	9.34467122209387	296.87933074531
18-08-2017 18:00:00.00	0.1842	5.2373	19.5539	9.34457203755936	295.8881997521
18-08-2017 19:00:00.00	0.1853	5.1999	19.5539	9.34457203755936	297.997120025891
18-08-2017 20:00:00.00	0.1833	5.1697	19.558	9.34863860347451	295.054448008581
18-08-2017 21:00:00.00	0.1838	5.2322	19.5536	9.34427448395581	295.291868378486
18-08-2017 22:00:00.00	0.184	5.1812	19.5604	9.35101903230289	296.076541707562
18-08-2017 23:00:00.00	0.1822	5.1636	19.5561	9.34675409731871	293.338813284468
19-08-2017 00:00:00.00	0.1828	5.1771	19.5555	9.34615899011161	294.182677561575
19-08-2017 01:00:00.00	0.1834	5.1516	19.5575	9.34814268080193	295.379789799109
19-08-2017 02:00:00.00	0.1832	5.1754	19.5609	9.35151495497547	294.841810126574
19-08-2017 03:00:00.00	0.1838	5.1635	19.5608	9.35141577044095	295.915695260607
19-08-2017 04:00:00.00	0.1828	5.2169	19.567	9.35756521158093	293.823223443608
19-08-2017 05:00:00.00	0.1837	5.2426	19.5671	9.35766439611545	295.037052767112
19-08-2017 06:00:00.00	0.1852	5.1389	19.5629	9.35349864566578	298.395404491647
19-08-2017 07:00:00.00	0.1846	5.183	19.5633	9.35389538380385	297.025576862769
19-08-2017 08:00:00.00	0.1845	5.1656	19.5659	9.35647418170126	297.023505715795
19-08-2017 09:00:00.00	0.1842	5.1458	19.5608	9.35141577044095	296.721192165826
19-08-2017 10:00:00.00	0.183	5.1822	19.5664	9.35697010437384	294.458380174474
19-08-2017 11:00:00.00	0.1851	5.1956	19.5594	9.35002718695773	297.714804850599
19-08-2017 12:00:00.00	0.1844	5.1647	19.5662	9.3567717353048	296.870732936006
19-08-2017 13:00:00.00	0.1853	5.1768	19.5643	9.354887229149	298.208713526644
19-08-2017 14:00:00.00	0.1836	5.168	19.5629	9.35349864566578	295.552799638383
19-08-2017 15:00:00.00	0.1818	5.1358	19.5586	9.3492337106816	292.945249950781
19-08-2017 16:00:00.00	0.1835	5.1341	19.5631	9.35369701473481	295.700033248931
19-08-2017 17:00:00.00	0.1831	5.149	19.569	9.35954890227124	294.920204836659
19-08-2017 18:00:00.00	0.1826	5.1516	19.5662	9.3567717353048	294.091328338698
19-08-2017 19:00:00.00	0.1842	5.1368	19.559	9.34963044881967	296.803379265993
19-08-2017 20:00:00.00	0.1849	5.1436	19.5513	9.34199323966195	297.868959438206
19-08-2017 21:00:00.00	0.1835	5.1569	19.555	9.34566306743903	295.492670743113
19-08-2017 22:00:00.00	0.1852	5.152	19.5526	9.34328263861066	298.275157866798
19-08-2017 23:00:00.00	0.1822	5.1668	19.5559	9.34655572824968	293.30995096025
20-08-2017 00:00:00.00	0.186	5.1523	19.5483	9.33901770362647	299.560838978431
20-08-2017 01:00:00.00	0.1859	5.1109	19.5485	9.33921607269551	299.781562608251
20-08-2017 02:00:00.00	0.1838	5.1515	19.5465	9.33723238200519	296.024931161721
20-08-2017 03:00:00.00	0.1815	5.1295	19.5447	9.3354470603839	292.518559819119
20-08-2017 04:00:00.00	0.1844	5.1387	19.553	9.34367937674872	297.108268105796
20-08-2017 05:00:00.00	0.1802	5.1436	19.5462	9.33693482840164	290.297385023065
20-08-2017 06:00:00.00	0.1838	5.1265	19.5512	9.34189405512743	296.252765180275
20-08-2017 07:00:00.00	0.1838	5.1358	19.545	9.33574461398745	296.167969972242
20-08-2017 08:00:00.00	0.1825	5.1466	19.5475	9.33822422735035	293.975487051338
20-08-2017 09:00:00.00	0.1835	5.1338	19.5441	9.33485195317681	295.702763642863
20-08-2017 10:00:00.00	0.1816	5.1326	19.5434	9.3341576614352	292.651800148601
20-08-2017 11:00:00.00	0.1787	5.0872	19.5449	9.33564542945293	288.381383556729
20-08-2017 12:00:00.00	0.1607	4.4481	19.5434	9.3341576614352	264.544729303495
20-08-2017 13:00:00.00	0.1754	4.936	19.5563	9.34695246638774	284.381274546936
20-08-2017 14:00:00.00	0.1679	4.6721	19.5507	9.34139813245485	274.464303792196
20-08-2017 15:00:00.00	0.173	4.8342	19.5524	9.34308426954162	281.377118822565
20-08-2017 16:00:00.00	0.1653	4.5254	19.5616	9.35220924671708	271.457482319053
20-08-2017 17:00:00.00	0.165	4.583	19.5636	9.35419293740739	270.476151134205
20-08-2017 18:00:00.00	0.1672	4.6298	19.5586	9.3492337106816	273.681476468353
20-08-2017 19:00:00.00	0.1654	4.5703	19.5615	9.35211006218256	271.239704678014
20-08-2017 20:00:00.00	0.1687	4.7045	19.5682	9.35875542599512	275.493362969691
20-08-2017 21:00:00.00	0.1649	4.55	19.5659	9.35647418170126	270.591806762334
20-08-2017 22:00:00.00	0.1634	4.6037	19.573	9.36351628365188	267.679866085366
20-08-2017 23:00:00.00	0.1648	4.572	19.5783	9.36877306398121	270.241374085558
21-08-2017 00:00:00.00	0.1652	4.6239	19.5859	9.37631108860442	270.457662333248
21-08-2017 01:00:00.00	0.161	4.4607	19.5772	9.36768203410154	264.933629929549
21-08-2017 02:00:00.00	0.1673	4.6556	19.5802	9.37065757013702	273.62445405134
21-08-2017 03:00:00.00	0.1606	4.4375	19.573	9.36351628365188	264.468253723202
21-08-2017 04:00:00.00	0.1634	4.447	19.5779	9.36837632584315	268.998779627936
21-08-2017 05:00:00.00	0.1637	4.5217	19.5876	9.37799722569118	268.861147374883
21-08-2017 06:00:00.00	0.1599	4.3771	19.5879	9.37829477929473	263.816715786787
21-08-2017 07:00:00.00	0.1622	4.4613	19.5872	9.37760048755312	266.903257261352
21-08-2017 08:00:00.00	0.1649	4.5403	19.5857	9.37611271953539	270.67409652015
21-08-2017 09:00:00.00	0.1597	4.3871	19.5851	9.37551761232829	263.40373272283
21-08-2017 10:00:00.00	0.1602	4.4166	19.5796	9.37006246292992	263.983086890346
21-08-2017 11:00:00.00	0.1601	4.4099	19.5804	9.37085593920605	263.873947431794
21-08-2017 12:00:00.00	0.1642	4.5264	19.5818	9.37224452268927	269.642592520581
21-08-2017 13:00:00.00	0.164	4.5049	19.5841	9.37452576698313	269.495895930808
21-08-2017 14:00:00.00	0.165	4.5375	19.5858	9.3762119040699	270.862018373474
21-08-2017 15:00:00.00	0.1652	4.5558	19.5809	9.37135186187863	271.034820460268
21-08-2017 16:00:00.00	0.1645	4.5582	19.5817	9.37214533815476	269.866071948559
21-08-2017 17:00:00.00	0.1632	4.4834	19.5859	9.37631108860442	268.362374845211
21-08-2017 18:00:00.00	0.1638	4.4677	19.579	9.36946735572283	269.481882583322
21-08-2017 19:00:00.00	0.164	4.4827	19.5803	9.37075675467153	269.683805768658
21-08-2017 20:00:00.00	0.1635	4.4699	19.5837	9.37412902884507	268.96973192305
21-08-2017 21:00:00.00	0.1635	4.4918	19.5761	9.36659100422187	268.784776188095
21-08-2017 22:00:00.00	0.1635	4.4903	19.5827	9.37313718349991	268.79743627417
21-08-2017 23:00:00.00	0.1635	4.5183	19.577	9.36748366503251	268.561311142931
22-08-2017 00:00:00.00	0.1646	4.5262	19.5744	9.3649048671351	270.30115193943
22-08-2017 01:00:00.00	0.164	4.5259	19.5747	9.36520242073865	269.318384236178
22-08-2017 02:00:00.00	0.164	4.5203	19.5738	9.364309759928	269.365697819023
22-08-2017 03:00:00.00	0.1641	4.5206	19.5695	9.36004482494383	269.527408572312
22-08-2017 04:00:00.00	0.1631	4.4515	19.5723	9.36282199191027	268.466914827102
22-08-2017 05:00:00.00	0.1627	4.4669	19.5769	9.36738448049799	267.678904232138
22-08-2017 06:00:00.00	0.1633	4.5052	19.5752	9.36569834341122	268.343081872148
22-08-2017 07:00:00.00	0.1641	4.5018	19.576	9.36649181968735	269.686462617167
22-08-2017 08:00:00.00	0.1647	4.4666	19.5753	9.36579752794574	270.97191852363
22-08-2017 09:00:00.00	0.1626	4.4733	19.5679	9.35845787239157	267.460591466563
22-08-2017 10:00:00.00	0.1639	4.5009	19.5696	9.36014400947834	269.365386817324
22-08-2017 11:00:00.00	0.1645	4.4966	19.5676	9.35816031878802	270.38796777817
22-08-2017 12:00:00.00	0.1599	4.3308	19.5623	9.35290353845869	264.202198254818
22-08-2017 13:00:00.00	0.162	4.338	19.5694	9.35994564040931	267.61121310806
22-08-2017 14:00:00.00	0.1645	4.4839	19.5719	9.3624252537722	270.495817518029
22-08-2017 15:00:00.00	0.163	4.4688	19.5702	9.36073911668544	268.156462814233
22-08-2017 16:00:00.00	0.1626	4.4674	19.5669	9.35746602704641	267.510178137101
22-08-2017 17:00:00.00	0.1633	4.431	19.5623	9.35290353845869	268.969471388517
22-08-2017 18:00:00.00	0.1635	4.4757	19.5679	9.35845787239157	268.920723437208
22-08-2017 19:00:00.00	0.1612	4.4298	19.5641	9.35468886007997	265.520610312629
22-08-2017 20:00:00.00	0.1619	4.373	19.5629	9.35349864566578	267.151003680875
22-08-2017 21:00:00.00	0.1611	4.3744	19.5685	9.35905297959867	265.819195690185
22-08-2017 22:00:00.00	0.1646	4.4379	19.5705	9.36103667028898	271.051848645241
22-08-2017 23:00:00.00	0.1618	4.3831	19.5722	9.36272280737575	266.901033707044
23-08-2017 00:00:00.00	0.1621	4.3729	19.5712	9.3617309620306	267.481866470313
23-08-2017 01:00:00.00	0.1606	4.3217	19.5649	9.3554823363561	265.435034882643
23-08-2017 02:00:00.00	0.1626	4.439	19.5756	9.36609508154929	267.749124010823
23-08-2017 03:00:00.00	0.1624	4.4508	19.5745	9.36500405166962	267.320579332419
23-08-2017 04:00:00.00	0.1633	4.4501	19.5747	9.36520242073865	268.807951632215
23-08-2017 05:00:00.00	0.1632	4.4449	19.5771	9.36758284956703	268.68726956918
23-08-2017 06:00:00.00	0.1636	4.4512	19.5718	9.36232606923769	269.292467948929
23-08-2017 07:00:00.00	0.1621	4.4412	19.5795	9.3699632783954	266.907319043259
23-08-2017 08:00:00.00	0.1633	4.4352	19.5796	9.37006246292992	268.933937308782
23-08-2017 09:00:00.00	0.1634	4.4467	19.5762	9.36669018875638	269.001317135152
23-08-2017 10:00:00.00	0.1628	4.4275	19.5772	9.36768203410154	268.175455603825
23-08-2017 11:00:00.00	0.1602	4.3829	19.5808	9.37125267734411	264.263380919382
23-08-2017 12:00:00.00	0.1615	4.3563	19.5773	9.36778121863606	266.631300734963
23-08-2017 13:00:00.00	0.1644	4.4569	19.5797	9.37016164746444	270.560815792865
23-08-2017 14:00:00.00	0.1627	4.4586	19.5746	9.36510323620413	267.748738001623
23-08-2017 15:00:00.00	0.162	4.427	19.5818	9.37224452268927	266.861838213528
23-08-2017 16:00:00.00	0.1624	4.4216	19.5815	9.37194696908572	267.566216377768
23-08-2017 17:00:00.00	0.1625	4.4601	19.5775	9.36797958770509	267.406998437734
23-08-2017 18:00:00.00	0.1614	4.4023	19.5773	9.36778121863606	266.080243833693
23-08-2017 19:00:00.00	0.1633	4.4484	19.5823	9.37274044536185	268.822319871102
23-08-2017 20:00:00.00	0.162	4.4085	19.5846	9.37502168965571	267.01726142976
23-08-2017 21:00:00.00	0.1635	4.3829	19.5808	9.37125267734411	269.707008616223
23-08-2017 22:00:00.00	0.1629	4.4415	19.5824	9.37283962989636	268.222036144442
23-08-2017 23:00:00.00	0.1627	4.3982	19.5823	9.37274044536185	268.258025374934
24-08-2017 00:00:00.00	0.1616	4.3831	19.5912	9.38156786893376	266.571118955861
24-08-2017 01:00:00.00	0.1619	4.3791	19.588	9.37839396382925	267.099652966775
24-08-2017 02:00:00.00	0.1603	4.4045	19.5902	9.3805760235886	264.248504370774
24-08-2017 03:00:00.00	0.1613	4.4125	19.5918	9.38216297614085	265.830008054831
24-08-2017 04:00:00.00	0.1624	4.3966	19.5937	9.38404748229665	267.776881047672
24-08-2017 05:00:00.00	0.1639	4.4546	19.5972	9.3875189410047	269.757445099752
24-08-2017 06:00:00.00	0.1644	4.4579	19.6058	9.39604881097306	270.552311314078
24-08-2017 07:00:00.00	0.1633	4.4505	19.6007	9.39099039971276	268.804571093336
24-08-2017 08:00:00.00	0.1629	4.4249	19.6015	9.39178387598889	268.362135476619
24-08-2017 09:00:00.00	0.1643	4.4569	19.6045	9.39475941202436	270.396241087395
24-08-2017 10:00:00.00	0.1622	4.4353	19.6027	9.39297409040307	267.121539625315
24-08-2017 11:00:00.00	0.1636	4.4447	19.6158	9.40596726442464	269.34751075896
24-08-2017 12:00:00.00	0.1625	4.4417	19.6123	9.40249580571659	267.5617355895
24-08-2017 13:00:00.00	0.1645	4.448	19.6107	9.40090885316434	270.80114997478
24-08-2017 14:00:00.00	0.1622	4.4287	19.6099	9.40011537688821	267.177006595269
24-08-2017 15:00:00.00	0.1613	4.4052	19.6122	9.40239662118208	265.891106432072
24-08-2017 16:00:00.00	0.1648	4.4776	19.619	9.40914116952915	271.042752783879
24-08-2017 17:00:00.00	0.1624	4.4493	19.6196	9.40973627673624	267.33318668418
24-08-2017 18:00:00.00	0.1633	4.4433	19.6175	9.40765340151141	268.865433805322
24-08-2017 19:00:00.00	0.1644	4.4764	19.6179	9.40805013964947	270.395074835949
24-08-2017 20:00:00.00	0.1629	4.4523	19.6111	9.4013055913024	268.130965697951
24-08-2017 21:00:00.00	0.1647	4.4557	19.6133	9.40348765106175	271.064764613826
24-08-2017 22:00:00.00	0.1634	4.4538	19.6073	9.3975365789908	268.941275635543
24-08-2017 23:00:00.00	0.1652	4.4665	19.6105	9.4007104840953	271.795395322043
25-08-2017 00:00:00.00	0.1641	4.4749	19.6124	9.40259499025111	269.914372009343
25-08-2017 01:00:00.00	0.1646	4.4997	19.6127	9.40289254385465	270.52600889807
25-08-2017 02:00:00.00	0.1635	4.4771	19.6116	9.40180151397498	268.908896478315
25-08-2017 03:00:00.00	0.1643	4.4705	19.6037	9.39396593574823	270.280696291109
25-08-2017 04:00:00.00	0.1638	4.4869	19.6092	9.3994210851466	269.319395851814
25-08-2017 05:00:00.00	0.1631	4.4567	19.6033	9.39356919761017	268.423032131257
25-08-2017 06:00:00.00	0.1628	4.4564	19.5985	9.38880833995341	267.93183155896
25-08-2017 07:00:00.00	0.1648	4.485	19.5997	9.3899985543676	270.979761199085
25-08-2017 08:00:00.00	0.1629	4.4725	19.5997	9.3899985543676	267.960796134719
25-08-2017 09:00:00.00	0.1624	4.4241	19.5952	9.38553525031439	267.545168140029
25-08-2017 10:00:00.00	0.1616	4.4416	19.5883	9.3786915174328	266.08069199948
25-08-2017 11:00:00.00	0.1664	4.5166	19.5803	9.37075675467153	273.339362349862
25-08-2017 12:00:00.00	0.1646	4.4823	19.5786	9.36907061758476	270.673854400455
25-08-2017 13:00:00.00	0.165	4.4949	19.5824	9.37283962989636	271.224291163123
25-08-2017 14:00:00.00	0.1665	4.5	19.5761	9.36659100422187	273.646150053414
25-08-2017 15:00:00.00	0.1638	4.4731	19.5762	9.36669018875638	269.436163376417
25-08-2017 16:00:00.00	0.1621	4.4398	19.5699	9.36044156308189	266.919071224382
25-08-2017 17:00:00.00	0.1627	4.4429	19.5671	9.35766439611545	267.880932902017
25-08-2017 18:00:00.00	0.1648	4.5103	19.5604	9.35101903230289	270.764619075502
25-08-2017 19:00:00.00	0.1644	4.5093	19.5621	9.35270516938966	270.115899930471
25-08-2017 20:00:00.00	0.1646	4.4931	19.5598	9.35042392509579	270.582069210126
25-08-2017 21:00:00.00	0.1646	4.4603	19.5499	9.34060465617873	270.861016983068
25-08-2017 22:00:00.00	0.164	4.511	19.5488	9.33951362629905	269.444308900813
25-08-2017 23:00:00.00	0.1617	4.4373	19.5451	9.33584379852197	266.281355185355
26-08-2017 00:00:00.00	0.1647	4.5152	19.5385	9.32929761924392	270.558717056889
26-08-2017 01:00:00.00	0.1649	4.4717	19.5332	9.32404083891459	271.257494968782
26-08-2017 02:00:00.00	0.1649	4.4981	19.533	9.32384246984556	271.032682679028
26-08-2017 03:00:00.00	0.1626	4.4793	19.5225	9.3134280937214	267.410183193573
26-08-2017 04:00:00.00	0.1595	4.3717	19.5232	9.31412238546301	263.201550324788
26-08-2017 05:00:00.00	0.1663	4.4764	19.5255	9.31640362975687	273.520078742204
26-08-2017 06:00:00.00	0.1652	4.4878	19.5171	9.30807212885754	271.613594214354
26-08-2017 07:00:00.00	0.1654	4.4701	19.5107	9.30172431864853	272.093664180585
26-08-2017 08:00:00.00	0.1657	4.4809	19.5076	9.29864959807854	272.494714104121
26-08-2017 09:00:00.00	0.1646	4.4691	19.5001	9.29121075798986	270.786120898501
26-08-2017 10:00:00.00	0.1619	4.4393	19.4952	9.28635071579858	266.593937074247
26-08-2017 11:00:00.00	0.1633	4.4449	19.4939	9.28506131684988	268.851906376514
26-08-2017 12:00:00.00	0.1621	4.4524	19.4931	9.28426784057375	266.813338836612
26-08-2017 13:00:00.00	0.167	4.4987	19.4907	9.28188741174537	274.479111375356
26-08-2017 14:00:00.00	0.167	4.4965	19.4835	9.27474612526023	274.498069185512
26-08-2017 15:00:00.00	0.168	4.4932	19.4795	9.2707787438796	276.17038213367
26-08-2017 16:00:00.00	0.1639	4.4507	19.4795	9.2707787438796	269.790521569275
26-08-2017 17:00:00.00	0.1644	4.4403	19.4767	9.26800157691316	270.702068284004
26-08-2017 18:00:00.00	0.1657	4.4591	19.4743	9.26562114808478	272.68142987296
26-08-2017 19:00:00.00	0.1638	4.4417	19.4749	9.26621625529187	269.702229474216
26-08-2017 20:00:00.00	0.165	4.4733	19.4704	9.26175295123866	271.408349274187
26-08-2017 21:00:00.00	0.1636	4.4523	19.4725	9.26383582646349	269.283155237476
26-08-2017 22:00:00.00	0.1642	4.4338	19.4712	9.26254642751479	270.428029598463
26-08-2017 23:00:00.00	0.1676	4.4889	19.4722	9.26353827285995	275.550035932481
27-08-2017 00:00:00.00	0.1634	4.4499	19.4677	9.25907496880673	268.974252859403
27-08-2017 01:00:00.00	0.1621	4.411	19.4725	9.26383582646349	267.161060212433
27-08-2017 02:00:00.00	0.1655	4.4604	19.473	9.26433174913607	272.341175069728
27-08-2017 03:00:00.00	0.1664	4.4547	19.4649	9.25629780184029	273.871249274402
27-08-2017 04:00:00.00	0.1655	4.46	19.4583	9.24975162256225	272.344599019889
27-08-2017 05:00:00.00	0.1655	4.4423	19.4634	9.25481003382255	272.496195055773
27-08-2017 06:00:00.00	0.1635	4.45	19.4686	9.25996762961737	269.138017596853
27-08-2017 07:00:00.00	0.1648	4.4222	19.4605	9.2519336823216	271.515270377971
27-08-2017 08:00:00.00	0.1581	4.2135	19.4596	9.25104102151095	262.198686071138
27-08-2017 09:00:00.00	0.16	4.2814	19.4559	9.24737119373387	264.780222320728
27-08-2017 10:00:00.00	0.1617	4.3375	19.4619	9.25332226580482	267.119850829174
27-08-2017 11:00:00.00	0.1617	4.3374	19.4559	9.24737119373387	267.120693653467
27-08-2017 12:00:00.00	0.1613	4.3387	19.4552	9.24667690199226	266.448983518602
27-08-2017 13:00:00.00	0.1605	4.2715	19.4523	9.2438005504913	265.690800633983
27-08-2017 14:00:00.00	0.1624	4.256	19.4459	9.23745274028229	268.967865627364
27-08-2017 15:00:00.00	0.1587	4.2715	19.451	9.2425111515426	262.711090720331
27-08-2017 16:00:00.00	0.1629	4.3273	19.4431	9.23467557331585	269.188821052608
27-08-2017 17:00:00.00	0.1629	4.3343	19.4471	9.23864295469648	269.129360570943
27-08-2017 18:00:00.00	0.1623	4.2841	19.4488	9.24032909178325	268.563518275416
27-08-2017 19:00:00.00	0.1615	4.318	19.4441	9.235667418661	266.953709400308
27-08-2017 20:00:00.00	0.1582	4.2381	19.4472	9.23874213923099	262.160245831408
27-08-2017 21:00:00.00	0.1573	4.2003	19.4386	9.23021226926264	260.981060158159
27-08-2017 22:00:00.00	0.1588	4.2425	19.4467	9.23824621655841	263.117888992584
27-08-2017 23:00:00.00	0.159	4.1996	19.4468	9.23834540109293	263.807432122348
28-08-2017 00:00:00.00	0.1594	4.2533	19.4512	9.24270952061163	264.021797666117
28-08-2017 01:00:00.00	0.1538	4.0424	19.4491	9.2406266453868	256.457356110748
28-08-2017 02:00:00.00	0.1586	4.2258	19.4527	9.24419728862936	262.925463880258
28-08-2017 03:00:00.00	0.1594	4.2335	19.456	9.24747037826838	264.187283923516
28-08-2017 04:00:00.00	0.1551	4.0343	19.4526	9.24409810409485	258.69180704033
28-08-2017 05:00:00.00	0.1592	4.2169	19.4576	9.24905733082064	263.99453345591
28-08-2017 06:00:00.00	0.1593	4.2325	19.4588	9.25024754523483	264.029903499805
28-08-2017 07:00:00.00	0.1556	4.1172	19.4611	9.25252878952869	258.84217168449
28-08-2017 08:00:00.00	0.1548	4.1265	19.4587	9.25014836070031	257.435294229167
28-08-2017 09:00:00.00	0.1602	4.2351	19.4641	9.25550432556416	265.499745015835
28-08-2017 10:00:00.00	0.1581	4.1806	19.4598	9.25123939057999	262.472220029881
28-08-2017 11:00:00.00	0.1591	4.191	19.4587	9.25014836070031	264.045310241622
28-08-2017 12:00:00.00	0.1568	4.1467	19.4626	9.25401655754643	260.5941276875
28-08-2017 13:00:00.00	0.1564	4.1047	19.4619	9.25332226580482	260.276351911401
28-08-2017 14:00:00.00	0.1555	4.103	19.4689	9.26026518322093	258.792581989401
28-08-2017 15:00:00.00	0.1563	4.1382	19.4688	9.26016599868641	259.833259195795
28-08-2017 16:00:00.00	0.1583	4.1508	19.4701	9.26145539763511	263.052820541079
28-08-2017 17:00:00.00	0.157	4.1503	19.4742	9.26552196355026	260.896703965645
28-08-2017 18:00:00.00	0.1568	4.1163	19.4775	9.26879505318928	260.845842884996
28-08-2017 19:00:00.00	0.1571	4.1603	19.4731	9.26443093367059	260.980046023856
28-08-2017 20:00:00.00	0.1569	4.1238	19.4704	9.26175295123866	260.950013054153
28-08-2017 21:00:00.00	0.1597	4.1651	19.471	9.26234805844576	265.258858013943
28-08-2017 22:00:00.00	0.1579	4.1657	19.4736	9.26492685634317	262.264097886994
28-08-2017 23:00:00.00	0.1575	4.1127	19.478	9.26929097586186	262.040307056669
29-08-2017 00:00:00.00	0.1567	4.0884	19.4715	9.26284398111833	260.910782764983
29-08-2017 01:00:00.00	0.157	4.1136	19.4803	9.27157222015573	261.200962763457
29-08-2017 02:00:00.00	0.1581	4.1391	19.483	9.27425020258765	262.818070333208
29-08-2017 03:00:00.00	0.157	4.1381	19.4788	9.27008445213799	260.997768535575
29-08-2017 04:00:00.00	0.157	4.1165	19.4784	9.26968771399993	261.17689469489
29-08-2017 05:00:00.00	0.1573	4.1318	19.4841	9.27534123246733	261.548809913009
29-08-2017 06:00:00.00	0.1572	4.1071	19.4812	9.27246488096637	261.58773337241
29-08-2017 07:00:00.00	0.1566	4.0934	19.4814	9.2726632500354	260.702824849954
29-08-2017 08:00:00.00	0.1577	4.1085	19.4813	9.27256406550088	262.408079173692
29-08-2017 09:00:00.00	0.1575	4.1279	19.4786	9.26988608306896	261.913797633826
29-08-2017 10:00:00.00	0.157	4.09	19.485	9.27623389327797	261.396992103147
29-08-2017 11:00:00.00	0.156	4.0431	19.4857	9.27692818501958	260.119997690268
29-08-2017 12:00:00.00	0.1578	4.1286	19.4937	9.28486294778084	262.406846816561
29-08-2017 13:00:00.00	0.1579	4.1346	19.4977	9.28883032916147	262.523108767065
29-08-2017 14:00:00.00	0.1564	4.0957	19.4952	9.28635071579858	260.350830734722
29-08-2017 15:00:00.00	0.1563	4.0604	19.4966	9.2877392992818	260.476713381824
29-08-2017 16:00:00.00	0.1568	4.0484	19.4976	9.28873114462696	261.409821847206
29-08-2017 17:00:00.00	0.1563	4.0845	19.5001	9.29121075798986	260.27705101605
29-08-2017 18:00:00.00	0.1563	4.0853	19.4962	9.28734256114374	260.270428468569
29-08-2017 19:00:00.00	0.1578	4.0688	19.4894	9.28059801279666	262.906195069599
29-08-2017 20:00:00.00	0.1569	4.0749	19.4901	9.28129230453828	261.355997201475
29-08-2017 21:00:00.00	0.1565	4.1112	19.4878	9.27901106024441	260.388970874903
29-08-2017 22:00:00.00	0.157	4.104	19.4843	9.27553960153636	261.280668026436
29-08-2017 23:00:00.00	0.1572	4.0947	19.4832	9.27444857165668	261.690868938038
30-08-2017 00:00:00.00	0.1559	4.0501	19.4786	9.26988608306896	259.895314034142
30-08-2017 01:00:00.00	0.1566	4.0365	19.4803	9.27157222015573	261.17535748794
30-08-2017 02:00:00.00	0.1572	4.0818	19.4772	9.26849749958574	261.798249542294
30-08-2017 03:00:00.00	0.1581	4.0825	19.4667	9.25808312346158	263.291231993965
30-08-2017 04:00:00.00	0.1572	4.0865	19.4685	9.25986844508286	261.759116173341
30-08-2017 05:00:00.00	0.1561	4.0742	19.4606	9.25203286685611	260.029189234318
30-08-2017 06:00:00.00	0.1574	4.0798	19.4567	9.24816467001	262.148003433173
30-08-2017 07:00:00.00	0.158	4.0886	19.452	9.24350299688775	263.073653330131
30-08-2017 08:00:00.00	0.1576	4.0923	19.4501	9.24161849073195	262.376770945395
30-08-2017 09:00:00.00	0.1577	4.087	19.4472	9.23874213923099	262.587507661577
30-08-2017 10:00:00.00	0.1571	4.0557	19.4375	9.22912123938296	261.849101013366
30-08-2017 11:00:00.00	0.1559	4.023	19.4387	9.23031145379715	260.119768551804
30-08-2017 12:00:00.00	0.1576	4.0777	19.4313	9.22297179824298	262.498636914201
30-08-2017 13:00:00.00	0.1578	4.0886	19.4282	9.21989707767299	262.740648705663
30-08-2017 14:00:00.00	0.1578	4.0843	19.428	9.21969870860396	262.77658296955
30-08-2017 15:00:00.00	0.1563	4.0783	19.421	9.21275579118785	260.328387188359
30-08-2017 16:00:00.00	0.1566	4.0725	19.4209	9.21265660665334	260.876192506973
30-08-2017 17:00:00.00	0.1552	4.0022	19.4145	9.20630879644433	259.123579274
30-08-2017 18:00:00.00	0.1547	3.9418	19.4097	9.20154793878757	258.787231695604
30-08-2017 19:00:00.00	0.1559	3.9953	19.4091	9.20095283158047	260.349593559883
30-08-2017 20:00:00.00	0.1567	4.0744	19.4117	9.20353162947788	261.026999819963
30-08-2017 21:00:00.00	0.157	4.0582	19.4004	9.1923237770776	261.661599153696
30-08-2017 22:00:00.00	0.158	4.0629	19.3973	9.18924905650761	263.288841907198
30-08-2017 23:00:00.00	0.1577	4.0473	19.3934	9.18538085966149	262.91947013374
31-08-2017 00:00:00.00	0.1572	4.058	19.3838	9.17585914434797	261.996594044277
31-08-2017 01:00:00.00	0.1553	4.0267	19.3811	9.17318116191605	259.088116268737
31-08-2017 02:00:00.00	0.1547	3.9775	19.3742	9.16633742903445	258.492381200235
31-08-2017 03:00:00.00	0.1564	3.9986	19.3714	9.16356026206801	261.157093572687
31-08-2017 04:00:00.00	0.1576	4.0006	19.3604	9.15264996327127	263.144071412492
31-08-2017 05:00:00.00	0.1566	4.0161	19.361	9.15324507047837	261.345189081492
31-08-2017 06:00:00.00	0.1561	4.0333	19.3488	9.14114455726744	260.368004905393
31-08-2017 07:00:00.00	0.1577	4.0331	19.3444	9.13678043774875	263.038411230649
31-08-2017 08:00:00.00	0.1551	3.9809	19.3479	9.1402518964568	259.132633454685
31-08-2017 09:00:00.00	0.1577	4.0035	19.3464	9.13876412843906	263.286691074807
31-08-2017 10:00:00.00	0.1556	3.9967	19.3437	9.13608614600713	259.836997037775
31-08-2017 11:00:00.00	0.1532	3.9532	19.3534	9.14570704585517	256.184669146864
31-08-2017 12:00:00.00	0.1449	3.6293	19.3487	9.14104537273293	244.838110557435
31-08-2017 13:00:00.00	0.1553	3.9543	19.3553	9.14759155201097	259.687215193732
31-08-2017 14:00:00.00	0.154	3.9698	19.3682	9.16038635696351	257.385983274123
31-08-2017 15:00:00.00	0.1552	3.9615	19.3704	9.16256841672285	259.460334207312
31-08-2017 16:00:00.00	0.1559	3.9593	19.3762	9.16832111972477	260.648890679826
31-08-2017 17:00:00.00	0.1501	3.7593	19.3717	9.16385781567156	252.564926391122
31-08-2017 18:00:00.00	0.1559	3.9664	19.3819	9.17397463819217	260.589808173808
31-08-2017 19:00:00.00	0.1537	3.9321	19.3842	9.17625588248604	257.194109983798
31-08-2017 20:00:00.00	0.1545	3.9692	19.3836	9.17566077527894	258.226598001456
31-08-2017 21:00:00.00	0.1534	3.9134	19.386	9.17804120410732	256.845613718195
31-08-2017 22:00:00.00	0.1567	3.9283	19.3994	9.19133193173244	262.246014442141
31-08-2017 23:00:00.00	0.1526	3.8714	19.401	9.19291888428469	255.849780567736
01-09-2017 00:00:00.00	0.1528	3.9064	19.4029	9.19480339044049	255.898288067248
01-09-2017 01:00:00.00	0.1534	3.9299	19.416	9.20779656446206	256.710154939974
01-09-2017 02:00:00.00	0.1541	3.9253	19.4279	9.21959952406944	257.919505447968
01-09-2017 03:00:00.00	0.1539	3.8688	19.4255	9.21721909524106	258.050851208986
01-09-2017 04:00:00.00	0.1521	3.8854	19.4399	9.23150166821134	254.897202019724
01-09-2017 05:00:00.00	0.1525	3.9089	19.4471	9.23864295469648	255.375448043664
01-09-2017 06:00:00.00	0.1534	3.9064	19.4516	9.24310625874969	256.903124276937
01-09-2017 07:00:00.00	0.1528	3.8613	19.4594	9.25084265244192	256.26798708188
01-09-2017 08:00:00.00	0.1525	3.8237	19.4633	9.25471084928804	256.073273024635
01-09-2017 09:00:00.00	0.1538	3.893	19.4747	9.26601788622284	257.683465852668
01-09-2017 10:00:00.00	0.1534	3.8963	19.4706	9.26195132030769	256.986149200429
01-09-2017 11:00:00.00	0.1544	3.8866	19.4778	9.26909260679283	258.741724915115
01-09-2017 12:00:00.00	0.1523	3.8618	19.4863	9.27752329222667	255.42532274239
01-09-2017 13:00:00.00	0.1537	3.8619	19.4891	9.28030045919312	257.772464530668
01-09-2017 14:00:00.00	0.1531	3.8619	19.4971	9.28823522195438	256.76619596386
01-09-2017 15:00:00.00	0.1537	3.8623	19.5003	9.29140912705889	257.769161694939
01-09-2017 16:00:00.00	0.1535	3.8602	19.506	9.29706264552629	257.451061404477
01-09-2017 17:00:00.00	0.1534	3.8785	19.513	9.3040055629424	257.132601052986
01-09-2017 18:00:00.00	0.1553	3.9092	19.5158	9.30678272990884	260.061813327128
01-09-2017 19:00:00.00	0.155	3.9203	19.5159	9.30688191444335	259.467322292045
01-09-2017 20:00:00.00	0.1541	3.9013	19.518	9.30896478966818	258.117541234277
01-09-2017 21:00:00.00	0.1548	3.897	19.5243	9.31521341534268	259.325716282589
01-09-2017 22:00:00.00	0.1538	3.897	19.5184	9.30936152780625	257.65048555725
01-09-2017 23:00:00.00	0.1553	3.8937	19.5258	9.31670118336042	260.190805138415
02-09-2017 00:00:00.00	0.1543	3.8935	19.5256	9.31650281429139	258.517052031038
02-09-2017 01:00:00.00	0.1531	3.8939	19.5265	9.31739547510203	256.503266714023
02-09-2017 02:00:00.00	0.1537	3.8917	19.5319	9.32275143996588	257.526634780167
02-09-2017 03:00:00.00	0.1542	3.8758	19.5394	9.33019028005457	258.495924531796
02-09-2017 04:00:00.00	0.1543	3.8714	19.5331	9.32394165438007	258.700007481007
02-09-2017 05:00:00.00	0.1537	3.8661	19.5334	9.32423920798362	257.737788976338
02-09-2017 06:00:00.00	0.154	3.8905	19.5354	9.32622289867393	258.039198667646
02-09-2017 07:00:00.00	0.1542	3.8998	19.5333	9.3241400234491	258.297436634128
02-09-2017 08:00:00.00	0.1548	3.8983	19.5383	9.32909925017489	259.314929824237
02-09-2017 09:00:00.00	0.1554	3.8954	19.534	9.32483431519071	260.344183051513
02-09-2017 10:00:00.00	0.155	3.8879	19.5387	9.32949598831295	259.736390353565
02-09-2017 11:00:00.00	0.1548	3.8935	19.5356	9.32642126774297	259.354761208067
02-09-2017 12:00:00.00	0.1544	3.8941	19.5409	9.33167804807231	258.679627141464
02-09-2017 13:00:00.00	0.1545	3.8948	19.5383	9.32909925017489	258.841367735881
02-09-2017 14:00:00.00	0.1555	3.889	19.5397	9.33048783365811	260.565076002057
02-09-2017 15:00:00.00	0.1541	3.8869	19.5478	9.33852178095389	258.23650874697
02-09-2017 16:00:00.00	0.1548	3.89	19.5461	9.33683564386713	259.383812640437
02-09-2017 17:00:00.00	0.1547	3.8905	19.5477	9.33842259641938	259.212104116136
02-09-2017 18:00:00.00	0.1543	3.8859	19.5485	9.33921607269551	258.579939636415
02-09-2017 19:00:00.00	0.1536	3.884	19.5482	9.33891851909196	257.422516827991
02-09-2017 20:00:00.00	0.1537	3.8863	19.5504	9.34110057885131	257.571146320471
02-09-2017 21:00:00.00	0.1534	3.8886	19.551	9.3416956860584	257.049481488969
02-09-2017 22:00:00.00	0.1541	3.8875	19.5545	9.34516714476645	258.231549577818
02-09-2017 23:00:00.00	0.1542	3.8878	19.553	9.34367937674872	258.396642465749
03-09-2017 00:00:00.00	0.154	3.8898	19.5609	9.35151495497547	258.044979518769
03-09-2017 01:00:00.00	0.1549	3.888	19.5659	9.35647418170126	259.567987709648
03-09-2017 02:00:00.00	0.1539	3.8893	19.5662	9.3567717353048	257.881544500326
03-09-2017 03:00:00.00	0.1541	3.8875	19.5709	9.36143340842705	258.231549577818
03-09-2017 04:00:00.00	0.1546	3.8874	19.5759	9.36639263515284	259.070248825076
03-09-2017 05:00:00.00	0.1541	3.887	19.5739	9.36440894446252	258.235682205551
03-09-2017 06:00:00.00	0.1551	3.8904	19.5838	9.37422821337958	259.883167519718
03-09-2017 07:00:00.00	0.1545	3.8918	19.5831	9.37353392163798	258.866218240005
03-09-2017 08:00:00.00	0.1541	3.8943	19.591	9.38136949986473	258.175358969716
03-09-2017 09:00:00.00	0.1555	3.8961	19.5921	9.3824605297444	260.505879634456
03-09-2017 10:00:00.00	0.1535	3.8955	19.594	9.3843450359002	257.160258838921
03-09-2017 11:00:00.00	0.1547	3.8945	19.5929	9.38325400602052	259.178925519901
03-09-2017 12:00:00.00	0.1554	3.8946	19.5959	9.386229542056	260.350847730171
03-09-2017 13:00:00.00	0.1536	3.8941	19.6034	9.39366838214468	257.339318192544
03-09-2017 14:00:00.00	0.1549	3.8929	19.6032	9.39347001307565	259.527286043753
03-09-2017 15:00:00.00	0.1542	3.8902	19.6124	9.40259499025111	258.376795203481
03-09-2017 16:00:00.00	0.1538	3.8826	19.6102	9.40041293049176	257.769254148183
03-09-2017 17:00:00.00	0.1544	3.8767	19.6168	9.4069591097698	258.823739641959
03-09-2017 18:00:00.00	0.1545	3.8771	19.6128	9.40299172838917	258.988054716582
03-09-2017 19:00:00.00	0.1546	3.8824	19.6209	9.41102567568495	259.111715429503
03-09-2017 20:00:00.00	0.154	3.8848	19.6229	9.41300936637527	258.086278846337
03-09-2017 21:00:00.00	0.1533	3.8853	19.6214	9.41152159835753	256.909047644529
03-09-2017 22:00:00.00	0.1526	3.8812	19.6191	9.40924035406366	255.76951325285
03-09-2017 23:00:00.00	0.1538	3.8838	19.6238	9.41390202718591	257.759352583588
04-09-2017 00:00:00.00	0.1543	3.8845	19.6258	9.41588571787623	258.591527532666
04-09-2017 01:00:00.00	0.1548	3.883	19.6342	9.42421721877555	259.4419350346
04-09-2017 02:00:00.00	0.1547	3.8814	19.6371	9.42709357027651	259.287617077075
04-09-2017 03:00:00.00	0.1534	3.8797	19.6335	9.42352292703394	257.122722647368
04-09-2017 04:00:00.00	0.1548	3.8755	19.631	9.42104331367105	259.504237940576
04-09-2017 05:00:00.00	0.1538	3.875	19.6347	9.42471314144813	257.831981727122
04-09-2017 06:00:00.00	0.1538	3.8753	19.6371	9.42709357027651	257.82950505972
04-09-2017 07:00:00.00	0.1554	3.8765	19.6358	9.4258041713278	260.501727332641
04-09-2017 08:00:00.00	0.1548	3.8797	19.6366	9.42659764760393	259.4693446272
04-09-2017 09:00:00.00	0.1548	3.8789	19.6379	9.42788704655264	259.475990249134
04-09-2017 10:00:00.00	0.1548	3.876	19.6377	9.4276886774836	259.500083482585
04-09-2017 11:00:00.00	0.1559	3.8758	19.6409	9.43086258258811	261.345749899527
04-09-2017 12:00:00.00	0.1544	3.8749	19.6394	9.42937481457037	258.838656996852
04-09-2017 13:00:00.00	0.155	3.8751	19.6395	9.42947399910489	259.842842690087
04-09-2017 14:00:00.00	0.1555	3.8792	19.6365	9.42649846306942	260.646827872791
04-09-2017 15:00:00.00	0.1554	3.8847	19.6399	9.42987073724295	260.433351376527
04-09-2017 16:00:00.00	0.1559	3.883	19.6418	9.43175524339875	261.285514676319
04-09-2017 17:00:00.00	0.1556	3.8813	19.6415	9.43145768979521	260.796912566813
04-09-2017 18:00:00.00	0.1549	3.8742	19.6471	9.43701202372809	259.682685528694
04-09-2017 19:00:00.00	0.1551	3.8696	19.6449	9.43482996396874	260.056280806861
04-09-2017 20:00:00.00	0.1535	3.868	19.6362	9.42620090946587	257.386748154026
04-09-2017 21:00:00.00	0.155	3.8697	19.6347	9.42471314144813	259.887778445233
04-09-2017 22:00:00.00	0.1552	3.8706	19.6276	9.41767103949751	260.215617477409
04-09-2017 23:00:00.00	0.156	3.8711	19.6288	9.4188612539117	261.552747116167
05-09-2017 00:00:00.00	0.1565	3.8712	19.6335	9.42352292703394	262.390216939201
05-09-2017 01:00:00.00	0.1548	3.8711	19.626	9.41608408694526	259.540802907581
05-09-2017 02:00:00.00	0.1555	3.8704	19.6215	9.41162078289205	260.72028144243
05-09-2017 03:00:00.00	0.1562	3.8689	19.6249	9.41499305706558	261.906522879203
05-09-2017 04:00:00.00	0.156	3.8662	19.62	9.41013301487431	261.593795075671
05-09-2017 05:00:00.00	0.1567	3.8587	19.6161	9.40626481802819	262.830748889674
05-09-2017 06:00:00.00	0.1558	3.8552	19.6108	9.40100803769885	261.350495639976
05-09-2017 07:00:00.00	0.1556	3.8562	19.6098	9.40001619235369	261.006638190552
05-09-2017 08:00:00.00	0.1547	3.8388	19.6016	9.3918830605234	259.641703177068
05-09-2017 09:00:00.00	0.1567	3.8245	19.6	9.39029610797115	263.119031809277
05-09-2017 10:00:00.00	0.1571	3.8239	19.5917	9.38206379160633	263.795758342197
05-09-2017 11:00:00.00	0.1557	3.8249	19.5858	9.3762119040699	261.436552043782
05-09-2017 12:00:00.00	0.1564	3.8253	19.5869	9.37730293394958	262.608556273697
05-09-2017 13:00:00.00	0.155	3.8247	19.5856	9.37601353500087	260.262848349859
05-09-2017 14:00:00.00	0.156	3.8233	19.5825	9.37293881443088	261.953725102033
05-09-2017 15:00:00.00	0.1554	3.8136	19.5865	9.37690619581151	261.027417352404
05-09-2017 16:00:00.00	0.1563	3.8134	19.5784	9.36887224851573	262.540843746138
05-09-2017 17:00:00.00	0.1556	3.8134	19.572	9.36252443830672	261.365037024306
05-09-2017 18:00:00.00	0.1559	3.8138	19.5723	9.36282199191027	261.865593645941
05-09-2017 19:00:00.00	0.1554	3.8137	19.5751	9.36559915887671	261.026579913346
05-09-2017 20:00:00.00	0.1559	3.826	19.5738	9.364309759928	261.763138444324
05-09-2017 21:00:00.00	0.1563	3.8387	19.5748	9.36530160527316	262.327914021296
05-09-2017 22:00:00.00	0.1559	3.8427	19.5714	9.36192933109963	261.623022302381
05-09-2017 23:00:00.00	0.1566	3.8419	19.5742	9.36470649806607	262.804463628089
06-09-2017 00:00:00.00	0.1577	3.8387	19.5724	9.36292117644478	264.677620224942
06-09-2017 01:00:00.00	0.1569	3.8356	19.5783	9.36877306398121	263.361102683034
06-09-2017 02:00:00.00	0.1566	3.8319	19.5774	9.36788040317057	262.888728451035
06-09-2017 03:00:00.00	0.1579	3.8249	19.5759	9.36639263515284	265.130581680881
06-09-2017 04:00:00.00	0.1582	3.8215	19.5733	9.36381383725542	265.663281195095
06-09-2017 05:00:00.00	0.1576	3.8201	19.5754	9.36589671248026	264.667593372703
06-09-2017 06:00:00.00	0.1579	3.8239	19.5805	9.37095512374056	265.13908492828
06-09-2017 07:00:00.00	0.1582	3.8299	19.5733	9.36381383725542	265.591724175305
06-09-2017 08:00:00.00	0.1578	3.8337	19.58	9.37045920106798	264.887913552268
06-09-2017 09:00:00.00	0.1579	3.8355	19.5804	9.37085593920605	265.040480779068
06-09-2017 10:00:00.00	0.1573	3.8412	19.5768	9.36728529596348	263.985119361887
06-09-2017 11:00:00.00	0.158	3.8469	19.5796	9.37006246292992	265.111440181152
06-09-2017 12:00:00.00	0.1579	3.8467	19.5798	9.37026083199895	264.945346339023
06-09-2017 13:00:00.00	0.1586	3.8344	19.5811	9.37155023094766	266.224843095202
06-09-2017 14:00:00.00	0.1569	3.8246	19.5839	9.3743273979141	263.454012062063
06-09-2017 15:00:00.00	0.1578	3.792	19.5803	9.37075675467153	265.24253723817
06-09-2017 16:00:00.00	0.1587	3.7779	19.5839	9.3743273979141	266.876136125933
06-09-2017 17:00:00.00	0.1572	3.8002	19.5802	9.37065757013702	264.164466780495
06-09-2017 18:00:00.00	0.1579	3.7989	19.5807	9.3711534928096	265.351843520589
06-09-2017 19:00:00.00	0.1596	3.7786	19.583	9.37343473710346	268.383577171696
06-09-2017 20:00:00.00	0.1582	3.7758	19.5845	9.37492250512119	266.053261979485
06-09-2017 21:00:00.00	0.1587	3.7753	19.5826	9.37303799896539	266.898424867076
06-09-2017 22:00:00.00	0.1582	3.7705	19.5799	9.37036001653347	266.098563614419
06-09-2017 23:00:00.00	0.1586	3.7675	19.5824	9.37283962989636	266.797093324732
07-09-2017 00:00:00.00	0.158	3.7675	19.5817	9.37214533815476	265.787772669027
07-09-2017 01:00:00.00	0.1573	3.7694	19.5833	9.37373229070701	264.594079208736
07-09-2017 02:00:00.00	0.1593	3.7722	19.585	9.37541842779378	267.934173030846
07-09-2017 03:00:00.00	0.1585	3.7704	19.5833	9.37373229070701	266.604031819973
07-09-2017 04:00:00.00	0.1592	3.7782	19.5797	9.37016164746444	267.71437607029
07-09-2017 05:00:00.00	0.1582	3.802	19.5803	9.37075675467153	265.829544450161
07-09-2017 06:00:00.00	0.1587	3.8204	19.5801	9.3705583856025	266.512327983674
07-09-2017 07:00:00.00	0.1591	3.821	19.5797	9.37016164746444	267.178924738333
07-09-2017 08:00:00.00	0.158	3.8113	19.5728	9.36331791458285	265.414256303458
07-09-2017 09:00:00.00	0.1587	3.789	19.5782	9.3686738794467	266.781022203342
07-09-2017 10:00:00.00	0.1591	3.7988	19.579	9.36946735572283	267.369308503984
07-09-2017 11:00:00.00	0.159	3.7672	19.5798	9.37026083199895	267.472551933076
07-09-2017 12:00:00.00	0.1592	3.7574	19.5825	9.37293881443088	267.893348965381
07-09-2017 13:00:00.00	0.1588	3.7507	19.5809	9.37135186187863	267.277806010071
07-09-2017 14:00:00.00	0.1589	3.7487	19.5877	9.3780964102257	267.463313467828
07-09-2017 15:00:00.00	0.1594	3.7507	19.5872	9.37760048755312	268.287671775852
07-09-2017 16:00:00.00	0.1592	3.7524	19.5961	9.38642791112503	267.936406976822
07-09-2017 17:00:00.00	0.1587	3.7524	19.5966	9.38692383379761	267.09489816094
07-09-2017 18:00:00.00	0.1602	3.7525	19.5964	9.38672546472858	269.618557902563
07-09-2017 19:00:00.00	0.1591	3.7318	19.5967	9.38702301833212	267.945538780881
07-09-2017 20:00:00.00	0.1593	3.7369	19.6012	9.39148632238533	268.238360479993
07-09-2017 21:00:00.00	0.1599	3.7308	19.5995	9.38980018529857	269.301507677501
07-09-2017 22:00:00.00	0.16	3.7401	19.5964	9.38672546472858	269.389335290402
07-09-2017 23:00:00.00	0.1602	3.745	19.6001	9.39039529250566	269.683576320705
08-09-2017 00:00:00.00	0.1603	3.7435	19.5951	9.38543606577987	269.86493369496
08-09-2017 01:00:00.00	0.1603	3.737	19.5965	9.38682464926309	269.921348993823
08-09-2017 02:00:00.00	0.1611	3.7408	19.5927	9.38305563695149	271.235281234788
08-09-2017 03:00:00.00	0.1593	3.7362	19.591	9.38136949986473	268.244399509906
08-09-2017 04:00:00.00	0.1596	3.7362	19.5854	9.37581516593184	268.749567870565
08-09-2017 05:00:00.00	0.1599	3.7375	19.5775	9.36797958770509	269.24347886485
08-09-2017 06:00:00.00	0.1599	3.7428	19.5808	9.37125267734411	269.197593188328
08-09-2017 07:00:00.00	0.1603	3.7433	19.5742	9.36470649806607	269.866669198666
08-09-2017 08:00:00.00	0.1606	3.7433	19.5726	9.36311954551382	270.371722228981
08-09-2017 09:00:00.00	0.1605	3.7468	19.5661	9.35667255077029	270.172965237341
08-09-2017 10:00:00.00	0.1608	3.7463	19.5612	9.35181250857901	270.682312845022
08-09-2017 11:00:00.00	0.1603	3.738	19.556	9.34665491278419	269.912668181859
08-09-2017 12:00:00.00	0.1615	3.7365	19.5532	9.34387774581775	271.94634355512
08-09-2017 13:00:00.00	0.1602	3.7372	19.5463	9.33703401293616	269.75122874884
08-09-2017 14:00:00.00	0.1599	3.7383	19.5397	9.33048783365811	269.23655172264
08-09-2017 15:00:00.00	0.1613	3.739	19.5352	9.3260245296049	271.587730834838
08-09-2017 16:00:00.00	0.161	3.7381	19.5367	9.32751229762264	271.090454280418
08-09-2017 17:00:00.00	0.1616	3.7411	19.5285	9.31937916579234	272.074479176462
08-09-2017 18:00:00.00	0.1616	3.7444	19.5187	9.30965908140979	272.045609927941
08-09-2017 19:00:00.00	0.1619	3.7544	19.5159	9.30688191444335	272.463037586907
08-09-2017 20:00:00.00	0.1615	3.7596	19.5095	9.30053410423434	271.744452660905
08-09-2017 21:00:00.00	0.1624	3.7336	19.502	9.29309526414565	273.487342183994
08-09-2017 22:00:00.00	0.1622	3.7244	19.5033	9.29438466309436	273.231389388016
08-09-2017 23:00:00.00	0.1606	3.7192	19.4945	9.28565642405697	270.581405645804
09-09-2017 00:00:00.00	0.1616	3.7179	19.4907	9.28188741174537	272.277611826782
09-09-2017 01:00:00.00	0.1611	3.725	19.4862	9.27742410769216	271.37316336715
09-09-2017 02:00:00.00	0.1621	3.7319	19.4846	9.27583715513991	272.997059227175
09-09-2017 03:00:00.00	0.1615	3.7423	19.4773	9.26859668412025	271.895624135395
09-09-2017 04:00:00.00	0.1623	3.7556	19.4819	9.27315917270798	273.125666280218
09-09-2017 05:00:00.00	0.1609	3.7603	19.469	9.26036436775544	270.728785232201
09-09-2017 06:00:00.00	0.1622	3.7583	19.4677	9.25907496880673	272.933695470241
09-09-2017 07:00:00.00	0.1618	3.7574	19.4588	9.25024754523483	272.268491599238
09-09-2017 08:00:00.00	0.1635	3.7574	19.4597	9.25114020604547	275.129161782914
09-09-2017 09:00:00.00	0.1621	3.7579	19.4521	9.24360218142227	272.768932288335
09-09-2017 10:00:00.00	0.1635	3.7585	19.4511	9.24261033607711	275.119435067901
09-09-2017 11:00:00.00	0.1629	3.7598	19.4485	9.2400315381797	274.098370321133
09-09-2017 12:00:00.00	0.1621	3.7603	19.4512	9.24270952061163	272.747893636667
09-09-2017 13:00:00.00	0.1627	3.7589	19.4437	9.23527068052294	273.769765415657
09-09-2017 14:00:00.00	0.1634	3.7587	19.4356	9.22723673322716	274.949398962128
09-09-2017 15:00:00.00	0.1629	3.7636	19.441	9.23259269809101	274.064900318104
09-09-2017 16:00:00.00	0.1625	3.7675	19.4354	9.22703836415813	273.357677586815
09-09-2017 17:00:00.00	0.1628	3.769	19.4365	9.2281293940378	273.849139738588
09-09-2017 18:00:00.00	0.1637	3.7703	19.432	9.22366608998459	275.351547140126
09-09-2017 19:00:00.00	0.1634	3.7705	19.4305	9.22217832196685	274.8451662111
09-09-2017 20:00:00.00	0.163	3.7637	19.4303	9.22197995289782	274.232260289417
09-09-2017 21:00:00.00	0.1631	3.7364	19.4293	9.22098810755267	274.641432120189
09-09-2017 22:00:00.00	0.1629	3.7262	19.4222	9.21394600560204	274.394671710273
09-09-2017 23:00:00.00	0.1624	3.7265	19.4254	9.21711991070655	273.549813311517
10-09-2017 00:00:00.00	0.1641	3.7277	19.42	9.2117639458427	276.402656315429
10-09-2017 01:00:00.00	0.1621	3.7286	19.4212	9.21295416025688	273.026041092423
10-09-2017 02:00:00.00	0.1636	3.7266	19.4196	9.21136720770463	275.570230774572
10-09-2017 03:00:00.00	0.1626	3.7232	19.4218	9.21354926746398	273.915778680902
10-09-2017 04:00:00.00	0.1638	3.7206	19.4196	9.21136720770463	275.960383410394
10-09-2017 05:00:00.00	0.1626	3.7162	19.4252	9.21692154163752	273.977486868879
10-09-2017 06:00:00.00	0.1642	3.7153	19.424	9.21573132722333	276.681466316736
10-09-2017 07:00:00.00	0.1624	3.7154	19.425	9.21672317256849	273.647536648128
10-09-2017 08:00:00.00	0.1631	3.7145	19.4254	9.21711991070655	274.835012632553
10-09-2017 09:00:00.00	0.1624	3.7146	19.4264	9.21811175605171	273.654582468993
10-09-2017 10:00:00.00	0.1635	3.7138	19.4316	9.22326935184653	275.515248058595
10-09-2017 11:00:00.00	0.1633	3.7118	19.4258	9.21751664884461	275.195941026706
10-09-2017 12:00:00.00	0.1641	3.7096	19.4299	9.22158321475976	276.563698906163
10-09-2017 13:00:00.00	0.1633	3.7102	19.4375	9.22912123938296	275.210114411569
10-09-2017 14:00:00.00	0.1629	3.7106	19.4376	9.22922042391748	274.532458078691
10-09-2017 15:00:00.00	0.1632	3.7127	19.4356	9.22723673322716	275.019452317972
10-09-2017 16:00:00.00	0.1628	3.716	19.4441	9.235667418661	274.316248216439
10-09-2017 17:00:00.00	0.1637	3.7184	19.444	9.23556823412649	275.811434882622
10-09-2017 18:00:00.00	0.1638	3.7191	19.4493	9.24082501445583	275.973704052842
10-09-2017 19:00:00.00	0.1639	3.7223	19.4468	9.23834540109293	276.113753003664
10-09-2017 20:00:00.00	0.1633	3.727	19.4554	9.24687527106129	275.061366645685
10-09-2017 21:00:00.00	0.1637	3.7258	19.4548	9.24628016385419	275.745769340635
10-09-2017 22:00:00.00	0.1638	3.6891	19.4564	9.24786711640645	276.240387218192
10-09-2017 23:00:00.00	0.1638	3.6837	19.4609	9.25233042045966	276.288444934102
11-09-2017 00:00:00.00	0.1635	3.6846	19.4623	9.25371900394288	275.774426032458
11-09-2017 01:00:00.00	0.1647	3.6866	19.4639	9.25530595649513	277.780560643139
11-09-2017 02:00:00.00	0.1642	3.6853	19.4657	9.25709127811642	276.948866148235
11-09-2017 03:00:00.00	0.1653	3.6827	19.4746	9.26591870168832	278.827541825523
11-09-2017 04:00:00.00	0.1641	3.6834	19.4802	9.27147303562121	276.797142981192
11-09-2017 05:00:00.00	0.1645	3.6845	19.4784	9.26968771399993	277.462013637131
11-09-2017 06:00:00.00	0.1644	3.6864	19.4874	9.27861432210635	277.27637154656
11-09-2017 07:00:00.00	0.1648	3.6881	19.4902	9.28139148907279	277.93578910853
11-09-2017 08:00:00.00	0.1636	3.6894	19.4965	9.28764011474729	275.900431244516
11-09-2017 09:00:00.00	0.1649	3.6905	19.4955	9.28664826940213	278.082941061847
11-09-2017 10:00:00.00	0.1647	3.6932	19.4961	9.28724337660922	277.72151401831
11-09-2017 11:00:00.00	0.1642	3.6942	19.5034	9.29448384762888	276.869483624249
11-09-2017 12:00:00.00	0.1643	3.6947	19.5136	9.30460067014949	277.033639791891
11-09-2017 13:00:00.00	0.164	3.6941	19.5101	9.30112921144144	276.533139773625
11-09-2017 14:00:00.00	0.1638	3.695	19.5149	9.3058900690982	276.187898822155
11-09-2017 15:00:00.00	0.1649	3.6968	19.522	9.31293217104882	278.026523561745
11-09-2017 16:00:00.00	0.1648	3.6994	19.5245	9.31541178441171	277.834657830266
11-09-2017 17:00:00.00	0.1652	3.7016	19.5303	9.32116448741363	278.489285310182
11-09-2017 18:00:00.00	0.1659	3.7045	19.537	9.32780985122619	279.643213017923
11-09-2017 19:00:00.00	0.1651	3.7056	19.5418	9.33257070888295	278.284867155468
11-09-2017 20:00:00.00	0.1658	3.7051	19.5424	9.33316581609004	279.46925316528
11-09-2017 21:00:00.00	0.1653	3.7025	19.5515	9.34219160873098	278.649787535858
11-09-2017 22:00:00.00	0.1657	3.7033	19.5619	9.35250680032063	279.316881597102
11-09-2017 23:00:00.00	0.1648	3.7056	19.5661	9.35667255077029	277.779201133986
12-09-2017 00:00:00.00	0.1662	3.7089	19.5689	9.35944971773673	280.109216976931
12-09-2017 01:00:00.00	0.1657	3.7117	19.5777	9.36817795677412	279.2413607113
12-09-2017 02:00:00.00	0.1653	3.7122	19.5756	9.36609508154929	278.562788574955
12-09-2017 03:00:00.00	0.1639	3.713	19.5808	9.37125267734411	276.196403110588
12-09-2017 04:00:00.00	0.1659	3.714	19.5912	9.38156786893376	279.557709035528
12-09-2017 05:00:00.00	0.1654	3.7127	19.5924	9.38275808334795	278.726822385983
12-09-2017 06:00:00.00	0.1659	3.7113	19.5949	9.38523769671084	279.582004848346
12-09-2017 07:00:00.00	0.165	3.7106	19.5972	9.3875189410047	278.071550540111
12-09-2017 08:00:00.00	0.1663	3.7096	19.6035	9.3937675666792	280.271438928061
12-09-2017 09:00:00.00	0.1654	3.7085	19.604	9.39426348935178	278.764506941177
12-09-2017 10:00:00.00	0.1643	3.7087	19.6003	9.39059366157469	276.908788486635
12-09-2017 11:00:00.00	0.1661	3.7093	19.6112	9.40140477583692	279.937074999356
12-09-2017 12:00:00.00	0.1664	3.7093	19.6093	9.39952026968112	280.442680794057
12-09-2017 13:00:00.00	0.1668	3.7089	19.6122	9.40239662118208	281.120441586956
12-09-2017 14:00:00.00	0.1663	3.7088	19.6182	9.40834769325302	280.278656647151
12-09-2017 15:00:00.00	0.1666	3.7083	19.625	9.4150922416001	280.788789981159
12-09-2017 16:00:00.00	0.166	3.7073	19.6178	9.40795095511496	279.78655252454
12-09-2017 17:00:00.00	0.1671	3.7049	19.6219	9.41201752103011	281.662321464899
12-09-2017 18:00:00.00	0.1657	3.7011	19.6225	9.4126126282372	279.336667627515
12-09-2017 19:00:00.00	0.166	3.6977	19.6243	9.41439794985849	279.873046214273
12-09-2017 20:00:00.00	0.1668	3.6945	19.6253	9.41538979520364	281.250814097174
12-09-2017 21:00:00.00	0.1661	3.6899	19.6265	9.41658000961784	280.112002303495
12-09-2017 22:00:00.00	0.167	3.6867	19.6282	9.4182661467046	281.658798969439
12-09-2017 23:00:00.00	0.1654	3.6847	19.6261	9.41618327147977	278.978245381
13-09-2017 00:00:00.00	0.1658	3.6799	19.63	9.42005146832589	279.696171683111
13-09-2017 01:00:00.00	0.1656	3.675	19.6288	9.4188612539117	279.402894418269
13-09-2017 02:00:00.00	0.166	3.669	19.6322	9.42223352808524	280.131945521424
13-09-2017 03:00:00.00	0.1652	3.6626	19.635	9.42501069505168	278.83943247331
13-09-2017 04:00:00.00	0.1655	3.6585	19.6362	9.42620090946587	279.382727918277
13-09-2017 05:00:00.00	0.1672	3.6477	19.6435	9.43344138048552	282.350841624195
13-09-2017 06:00:00.00	0.1663	3.64	19.6429	9.43284627327843	280.900774292934
13-09-2017 07:00:00.00	0.1659	3.6354	19.6447	9.43463159489971	280.266719311985
13-09-2017 08:00:00.00	0.1667	3.6337	19.649	9.43889652988389	281.633665153656
13-09-2017 09:00:00.00	0.1664	3.6325	19.6506	9.44048348243614	281.137712284105
13-09-2017 10:00:00.00	0.1665	3.629	19.6496	9.43949163709098	281.338441020057
13-09-2017 11:00:00.00	0.1659	3.6271	19.6524	9.44226880405743	280.341799345872
13-09-2017 12:00:00.00	0.1678	3.6233	19.6577	9.44752558438677	283.587246165543
13-09-2017 13:00:00.00	0.1655	3.6231	19.6577	9.44752558438677	279.701979990881
13-09-2017 14:00:00.00	0.1669	3.6233	19.6623	9.45208807297449	282.066218027587
13-09-2017 15:00:00.00	0.1663	3.6225	19.6624	9.45218725750901	281.059457257794
13-09-2017 16:00:00.00	0.168	3.6217	19.6575	9.44732721531773	283.939917164247
13-09-2017 17:00:00.00	0.1671	3.6201	19.6558	9.44564107823096	282.433398156672
13-09-2017 18:00:00.00	0.1658	3.619	19.6576	9.44742639985225	280.24608242852
13-09-2017 19:00:00.00	0.167	3.6215	19.6575	9.44732721531773	282.251620897538
13-09-2017 20:00:00.00	0.167	3.6308	19.6552	9.44504597102387	282.166909397794
13-09-2017 21:00:00.00	0.1661	3.6396	19.6565	9.44633536997258	280.566570829225
13-09-2017 22:00:00.00	0.1664	3.6511	19.6554	9.4452443400929	280.969068395554
13-09-2017 23:00:00.00	0.1661	3.6649	19.6596	9.44941009054257	280.337746731605
14-09-2017 00:00:00.00	0.1664	3.6707	19.6609	9.45069948949127	280.791576428202
14-09-2017 01:00:00.00	0.1675	3.6731	19.6581	9.44792232252483	282.625908872194
14-09-2017 02:00:00.00	0.167	3.6769	19.6578	9.44762476892128	281.747745035297
14-09-2017 03:00:00.00	0.1682	3.6793	19.6598	9.4496084596116	283.750335266541
14-09-2017 04:00:00.00	0.1669	3.6794	19.6597	9.44950927507708	281.556351740911
14-09-2017 05:00:00.00	0.1672	3.6774	19.6574	9.44722803078322	282.080622623467
14-09-2017 06:00:00.00	0.1675	3.6721	19.6533	9.44316146486807	282.635017574245
14-09-2017 07:00:00.00	0.1674	3.6675	19.6524	9.44226880405743	282.508162823596
14-09-2017 08:00:00.00	0.1681	3.6579	19.6502	9.44008674429808	283.777312025849
14-09-2017 09:00:00.00	0.1676	3.6483	19.6508	9.44068185150518	283.02084494117
14-09-2017 10:00:00.00	0.1674	3.6434	19.641	9.43096176712262	282.727794239832
14-09-2017 11:00:00.00	0.1669	3.6353	19.6465	9.436416916521	281.9570005269
14-09-2017 12:00:00.00	0.1677	3.6269	19.6421	9.4320527970023	283.385311809771
14-09-2017 13:00:00.00	0.1683	3.6229	19.6348	9.42481232598264	284.435934388692
14-09-2017 14:00:00.00	0.168	3.6191	19.6408	9.43076339805359	283.963750607416
14-09-2017 15:00:00.00	0.1676	3.616	19.6351	9.42510987958619	283.316000795178
14-09-2017 16:00:00.00	0.1679	3.6112	19.6325	9.42253108168878	283.867123000115
14-09-2017 17:00:00.00	0.1681	3.6062	19.6265	9.41658000961784	284.251156814278
14-09-2017 18:00:00.00	0.1677	3.6005	19.6216	9.41171996742656	283.626985357186
14-09-2017 19:00:00.00	0.1697	3.5952	19.6099	9.40011537688821	287.058684064802
14-09-2017 20:00:00.00	0.1668	3.5928	19.6087	9.39892516247402	282.175024032245
14-09-2017 21:00:00.00	0.1678	3.592	19.5958	9.38613035752148	283.874058715576
14-09-2017 22:00:00.00	0.1682	3.5907	19.5852	9.37561679686281	284.562708239801
14-09-2017 23:00:00.00	0.168	3.5901	19.5833	9.37373229070701	284.229856617373
15-09-2017 00:00:00.00	0.1674	3.5896	19.5667	9.35726765797738	283.219325993497
15-09-2017 01:00:00.00	0.1681	3.5889	19.5578	9.34844023440548	284.410069645952
15-09-2017 02:00:00.00	0.167	3.5886	19.5445	9.33524869131487	282.551707893104
15-09-2017 03:00:00.00	0.1689	3.5892	19.5431	9.33386010783165	285.760827289946
15-09-2017 04:00:00.00	0.1666	3.5907	19.5347	9.32552860693233	281.855809707199
15-09-2017 05:00:00.00	0.1695	3.5947	19.5274	9.31828813591267	286.72500282792
15-09-2017 06:00:00.00	0.1677	3.5996	19.5122	9.30321208666627	283.635231494044
15-09-2017 07:00:00.00	0.168	3.6037	19.493	9.28416865603923	284.104999999408
15-09-2017 08:00:00.00	0.1672	3.6104	19.4864	9.27762247676119	282.6909418383
15-09-2017 09:00:00.00	0.1682	3.6147	19.4783	9.26958852946541	284.342193353807
15-09-2017 10:00:00.00	0.1687	3.6161	19.4661	9.25748801625448	285.174552605162
15-09-2017 11:00:00.00	0.1689	3.6175	19.4598	9.25123939057999	285.499732291178
15-09-2017 12:00:00.00	0.1688	3.6175	19.4499	9.24142012166292	285.330697517767
15-09-2017 13:00:00.00	0.1692	3.6121	19.4477	9.23923806190357	286.056708443175
15-09-2017 14:00:00.00	0.1695	3.611	19.4456	9.23715518667874	286.574080414209
15-09-2017 15:00:00.00	0.1678	3.6103	19.4429	9.23447720424682	283.706299191151
15-09-2017 16:00:00.00	0.1684	3.6097	19.4405	9.23209677541844	284.72626047039
15-09-2017 17:00:00.00	0.1684	3.6082	19.4344	9.22604651881297	284.740053466878
15-09-2017 18:00:00.00	0.168	3.6053	19.4282	9.21989707767299	284.090318196883
15-09-2017 19:00:00.00	0.1685	3.6024	19.4249	9.21662398803397	284.962516182827
15-09-2017 20:00:00.00	0.1681	3.5989	19.4246	9.21632643443042	284.318190855444
15-09-2017 21:00:00.00	0.1691	3.5955	19.4198	9.21156557677366	286.040972197613
15-09-2017 22:00:00.00	0.1674	3.5933	19.4211	9.21285497572237	283.185467043631
15-09-2017 23:00:00.00	0.1682	3.5927	19.419	9.21077210049754	284.54431893649
16-09-2017 00:00:00.00	0.1686	3.5922	19.4303	9.22197995289782	285.22560787312
16-09-2017 01:00:00.00	0.1684	3.5916	19.4334	9.22505467346781	284.892785235706
16-09-2017 02:00:00.00	0.169	3.5909	19.4339	9.22555059614039	285.914309721904
16-09-2017 03:00:00.00	0.1689	3.5912	19.4421	9.23368372797069	285.742359665481
16-09-2017 04:00:00.00	0.1691	3.5903	19.4422	9.2337829125052	286.089036491206
16-09-2017 05:00:00.00	0.1684	3.589	19.4426	9.23417965064326	284.916721921449
16-09-2017 06:00:00.00	0.1684	3.5887	19.4406	9.23219595995295	284.919484105562
16-09-2017 07:00:00.00	0.1692	3.5878	19.4423	9.23388209703972	286.281347088419
16-09-2017 08:00:00.00	0.1693	3.5878	19.4514	9.24290788968066	286.450544102064
16-09-2017 09:00:00.00	0.1688	3.5869	19.4503	9.24181685980098	285.61286607452
16-09-2017 10:00:00.00	0.1693	3.5865	19.4575	9.24895814628612	286.462578858639
16-09-2017 11:00:00.00	0.1688	3.5865	19.4555	9.24697445559581	285.616558247715
16-09-2017 12:00:00.00	0.1692	3.591	19.4572	9.24866059268257	286.251744875256
16-09-2017 13:00:00.00	0.1704	3.5873	19.4665	9.25788475439254	288.316369958835
16-09-2017 14:00:00.00	0.1701	3.5886	19.4632	9.25461166475352	287.796679716269
16-09-2017 15:00:00.00	0.1707	3.5805	19.4628	9.25421492661546	288.887454135732
16-09-2017 16:00:00.00	0.1695	3.5776	19.4688	9.26016599868641	286.883503430145
16-09-2017 17:00:00.00	0.1698	3.5863	19.4724	9.26373664192898	287.310456528701
16-09-2017 18:00:00.00	0.1693	3.5871	19.4743	9.26562114808478	286.45702422995
16-09-2017 19:00:00.00	0.1696	3.5858	19.4733	9.26462930273962	286.976683381366
16-09-2017 20:00:00.00	0.1693	3.5848	19.479	9.27028282120702	286.478318143157
16-09-2017 21:00:00.00	0.1684	3.5849	19.4825	9.27375427991507	284.954476407233
16-09-2017 22:00:00.00	0.1696	3.5873	19.4816	9.27286161910443	286.962771977808
16-09-2017 23:00:00.00	0.1698	3.5846	19.4849	9.27613470874345	287.326242500709
17-09-2017 00:00:00.00	0.1695	3.5856	19.488	9.27920942931344	286.809329293253
17-09-2017 01:00:00.00	0.1703	3.5837	19.4913	9.28248251895246	288.180697656871
17-09-2017 02:00:00.00	0.1698	3.5822	19.493	9.28416865603923	287.348531532237
17-09-2017 03:00:00.00	0.1697	3.5809	19.4929	9.28406947150472	287.191371451171
17-09-2017 04:00:00.00	0.1683	3.5807	19.4959	9.28704500754019	284.823926265838
17-09-2017 05:00:00.00	0.169	3.579	19.499	9.29011972811018	286.024294463534
17-09-2017 06:00:00.00	0.1684	3.5789	19.4949	9.28605316219504	285.009744913063
17-09-2017 07:00:00.00	0.1711	3.5785	19.4936	9.28476376324633	289.583123007582
17-09-2017 08:00:00.00	0.1699	3.5784	19.4916	9.28278007255601	287.553077999289
17-09-2017 09:00:00.00	0.1683	3.5782	19.4969	9.28803685288535	284.846944780414
17-09-2017 10:00:00.00	0.1691	3.5782	19.4874	9.27861432210635	286.20094095287
17-09-2017 11:00:00.00	0.1694	3.5783	19.4856	9.27682900048507	286.707762687144
17-09-2017 12:00:00.00	0.1701	3.5787	19.4842	9.27544041700184	287.888782927237
17-09-2017 13:00:00.00	0.1683	3.5784	19.486	9.27722573862313	284.845103162332
17-09-2017 14:00:00.00	0.1699	3.5781	19.4995	9.29061565078276	287.55586669736
17-09-2017 15:00:00.00	0.1702	3.5775	19.4972	9.2883344064889	288.069204310375
17-09-2017 16:00:00.00	0.17	3.5772	19.4997	9.29081401985179	287.733488109126
17-09-2017 17:00:00.00	0.1708	3.5777	19.5022	9.29329363321469	289.082855360728
17-09-2017 18:00:00.00	0.1697	3.576	19.5034	9.29448384762888	287.236865980052
17-09-2017 19:00:00.00	0.169	3.5754	19.5044	9.29547569297404	286.057583831714
17-09-2017 20:00:00.00	0.1701	3.5747	19.5032	9.29428547855984	287.9260130692
17-09-2017 21:00:00.00	0.1704	3.5744	19.5058	9.29686427645726	288.436616662861
17-09-2017 22:00:00.00	0.1698	3.5738	19.5004	9.2915083115934	287.42657038249
17-09-2017 23:00:00.00	0.1703	3.573	19.5021	9.29319444868017	288.280394749471
18-09-2017 00:00:00.00	0.1698	3.5728	19.4967	9.28783848381632	287.435863545359
18-09-2017 01:00:00.00	0.1697	3.5728	19.4966	9.2877392992818	287.266584473778
18-09-2017 02:00:00.00	0.1705	3.5731	19.4999	9.29101238892082	288.6180175409
18-09-2017 03:00:00.00	0.1702	3.5723	19.4983	9.28942543636857	288.117637585017
18-09-2017 04:00:00.00	0.1703	3.5708	19.5011	9.29220260333501	288.3009017673
18-09-2017 05:00:00.00	0.1703	3.5708	19.5004	9.2915083115934	288.3009017673
18-09-2017 06:00:00.00	0.1695	3.5706	19.5008	9.29190504973147	286.948437278811
18-09-2017 07:00:00.00	0.1691	3.5705	19.5078	9.29884796714757	286.272198474835
18-09-2017 08:00:00.00	0.17	3.5701	19.5093	9.30033573516531	287.799545787985
18-09-2017 09:00:00.00	0.1702	3.57	19.5124	9.3034104557353	288.139065190194
18-09-2017 10:00:00.00	0.1698	3.57	19.5144	9.30539414642561	287.461887598678
18-09-2017 11:00:00.00	0.1714	3.57	19.5199	9.31084929582399	290.170597964743
18-09-2017 12:00:00.00	0.1697	3.5695	19.5258	9.31670118336042	287.297238111934
18-09-2017 13:00:00.00	0.1701	3.5693	19.535	9.32582616053587	287.976289037992
18-09-2017 14:00:00.00	0.1707	3.5683	19.5487	9.33941444176454	289.001423556338
18-09-2017 15:00:00.00	0.1704	3.5678	19.5504	9.34110057885131	288.498177026748
18-09-2017 16:00:00.00	0.1707	3.5672	19.5584	9.34903534161257	289.011703907357
18-09-2017 17:00:00.00	0.1695	3.5661	19.5591	9.34972963335418	286.990195991616
18-09-2017 18:00:00.00	0.1709	3.5661	19.5784	9.36887224851573	289.360616489481
18-09-2017 19:00:00.00	0.1701	3.5648	19.5795	9.3699632783954	288.018199092809
18-09-2017 20:00:00.00	0.1696	3.564	19.5899	9.38027846998505	287.179014799879
18-09-2017 21:00:00.00	0.1704	3.5635	19.5967	9.38702301833212	288.538298675577
18-09-2017 22:00:00.00	0.1712	3.5622	19.6013	9.39158550691985	289.905127530993
18-09-2017 23:00:00.00	0.1702	3.5609	19.6216	9.41171996742656	288.223875236385
19-09-2017 00:00:00.00	0.1699	3.5609	19.6234	9.41350528904784	287.71584255383
19-09-2017 01:00:00.00	0.1703	3.5603	19.6336	9.42362211156846	288.398816376033
19-09-2017 02:00:00.00	0.1703	3.5607	19.6404	9.43036665991553	288.395085077143
19-09-2017 03:00:00.00	0.1706	3.5607	19.6544	9.44425249474774	288.903121046157
19-09-2017 04:00:00.00	0.1725	3.5626	19.6617	9.4514929657674	292.102730887904
19-09-2017 05:00:00.00	0.1714	3.5616	19.6696	9.45932854399415	290.24943433535
19-09-2017 06:00:00.00	0.1702	3.5561	19.6832	9.4728176406883	288.268630321412
19-09-2017 07:00:00.00	0.1705	3.5593	19.6868	9.47638828393087	288.746851029301
19-09-2017 08:00:00.00	0.1723	3.5578	19.6923	9.48184343332924	291.809363364779
19-09-2017 09:00:00.00	0.1703	3.553	19.6979	9.48739776726212	288.46692954479
19-09-2017 10:00:00.00	0.1699	3.5526	19.7038	9.49324965479855	287.79310389453
19-09-2017 11:00:00.00	0.1704	3.5512	19.7026	9.49205944038436	288.653126892592
19-09-2017 12:00:00.00	0.1705	3.5503	19.7108	9.50019257221466	288.830934853581
19-09-2017 13:00:00.00	0.1699	3.55	19.7075	9.49691948257564	287.817314777954
19-09-2017 14:00:00.00	0.1704	3.5494	19.711	9.50039094128369	288.66993868847
19-09-2017 15:00:00.00	0.1713	3.549	19.7141	9.50346566185368	290.198359811745
19-09-2017 16:00:00.00	0.1708	3.5484	19.7123	9.5016803402324	289.356930311941
19-09-2017 17:00:00.00	0.1698	3.5476	19.7191	9.50842488857947	287.670249793328
19-09-2017 18:00:00.00	0.1696	3.5469	19.7096	9.49900235780047	287.337924087523
19-09-2017 19:00:00.00	0.1709	3.5451	19.7107	9.50009338768014	289.55726220203
19-09-2017 20:00:00.00	0.1706	3.5471	19.7028	9.4922578094534	289.03026297637
19-09-2017 21:00:00.00	0.1707	3.5445	19.7008	9.49027411876308	289.224016369368
19-09-2017 22:00:00.00	0.1714	3.5456	19.6981	9.48759613633115	290.399717421082
19-09-2017 23:00:00.00	0.1707	3.5425	19.6898	9.47936381996634	289.242737266521
20-09-2017 00:00:00.00	0.1702	3.5428	19.6931	9.48263690960536	288.392711845119
20-09-2017 01:00:00.00	0.1707	3.539	19.693	9.48253772507085	289.275504668825
20-09-2017 02:00:00.00	0.1715	3.5397	19.6997	9.4891830888834	290.624634018432
20-09-2017 03:00:00.00	0.1718	3.5377	19.6961	9.48561244564084	291.151862693188
20-09-2017 04:00:00.00	0.1712	3.5372	19.7033	9.49275373212597	290.13973007379
20-09-2017 05:00:00.00	0.1709	3.5376	19.7054	9.49483660735081	289.627557602837
20-09-2017 06:00:00.00	0.1716	3.5415	19.6961	9.48561244564084	290.777153625484
20-09-2017 07:00:00.00	0.1721	3.5373	19.6911	9.48065321891504	291.664053242637
20-09-2017 08:00:00.00	0.1706	3.5372	19.6798	9.46944536651476	289.1228852254
20-09-2017 09:00:00.00	0.171	3.5381	19.6851	9.47470214684409	289.792339385265
20-09-2017 10:00:00.00	0.1706	3.5336	19.684	9.47361111696442	289.156580763094
20-09-2017 11:00:00.00	0.1711	3.5371	19.6924	9.48194261786375	289.971194556419
20-09-2017 12:00:00.00	0.1709	3.5348	19.6975	9.48700102912406	289.65380996961
20-09-2017 13:00:00.00	0.1723	3.5325	19.6973	9.48680266005502	292.048376974621
20-09-2017 14:00:00.00	0.1708	3.5322	19.705	9.49443986921274	289.508689854188
20-09-2017 15:00:00.00	0.1719	3.5341	19.7068	9.49622519083403	291.355285295892
20-09-2017 16:00:00.00	0.1712	3.5313	19.7023	9.49176188678082	290.195151662817
20-09-2017 17:00:00.00	0.171	3.5311	19.703	9.49245617852243	289.858015508963
20-09-2017 18:00:00.00	0.1711	3.5302	19.7036	9.49305128572952	290.03597429254
20-09-2017 19:00:00.00	0.1719	3.5295	19.7003	9.4897781960905	291.398678907897
20-09-2017 20:00:00.00	0.1703	3.53	19.6958	9.48531489203729	288.681743210555
20-09-2017 21:00:00.00	0.1724	3.531	19.6951	9.48462060029568	292.232068197879
20-09-2017 22:00:00.00	0.1712	3.5305	19.6822	9.47182579534314	290.202668084682
20-09-2017 23:00:00.00	0.1716	3.5295	19.6854	9.47499970044765	290.890129730048
21-09-2017 00:00:00.00	0.1706	3.5229	19.6796	9.46924699744573	289.25677776868
21-09-2017 01:00:00.00	0.1716	3.5209	19.6826	9.4722225334812	290.971149956136
21-09-2017 02:00:00.00	0.1713	3.5266	19.6828	9.47242090255023	290.408848528746
21-09-2017 03:00:00.00	0.171	3.5234	19.6789	9.46855270570412	289.930293636315
21-09-2017 04:00:00.00	0.1709	3.5229	19.6795	9.46914781291121	289.765435642834
21-09-2017 05:00:00.00	0.1726	3.524	19.6759	9.46557716966864	292.637405638848
21-09-2017 06:00:00.00	0.1715	3.5234	19.6741	9.46379184804736	290.778043032912
21-09-2017 07:00:00.00	0.1693	3.5215	19.6679	9.45764240690738	287.065608734662
21-09-2017 08:00:00.00	0.1708	3.5218	19.6684	9.45813832957996	289.606199661636
21-09-2017 09:00:00.00	0.1718	3.5211	19.6677	9.45744403783835	291.308390270022
21-09-2017 10:00:00.00	0.1718	3.521	19.6618	9.45159215030191	291.309333717224
21-09-2017 11:00:00.00	0.171	3.5207	19.6572	9.44702966171419	289.955646451281
21-09-2017 12:00:00.00	0.171	3.5206	19.6617	9.4514929657674	289.956585529579
21-09-2017 13:00:00.00	0.1725	3.5115	19.6569	9.44673210811064	292.586295783713
21-09-2017 14:00:00.00	0.1716	3.5128	19.655	9.44484760195484	291.047500987458
21-09-2017 15:00:00.00	0.1715	3.519	19.6536	9.44345901847162	290.819481819034
21-09-2017 16:00:00.00	0.172	3.5124	19.6512	9.44107858964324	291.729713641505
21-09-2017 17:00:00.00	0.172	3.5054	19.65	9.43988837522905	291.795883893332
21-09-2017 18:00:00.00	0.1708	3.5144	19.6498	9.43969000616002	289.675621645919
21-09-2017 19:00:00.00	0.172	3.516	19.6514	9.44127695871227	291.695694910724
21-09-2017 20:00:00.00	0.1704	3.5152	19.6431	9.43304464234746	288.989735301684
21-09-2017 21:00:00.00	0.1702	3.5139	19.6449	9.43482996396874	288.662701178356
21-09-2017 22:00:00.00	0.1715	3.5172	19.6442	9.43413567222713	290.836437454089
21-09-2017 23:00:00.00	0.173	3.5111	19.6354	9.42540743318974	293.438174552665
22-09-2017 00:00:00.00	0.1714	3.5134	19.6349	9.42491151051716	290.702634373053
22-09-2017 01:00:00.00	0.1716	3.5111	19.6348	9.42481232598264	291.063530365533
22-09-2017 02:00:00.00	0.1723	3.5123	19.6282	9.4182661467046	292.239491263795
22-09-2017 03:00:00.00	0.1705	3.5109	19.633	9.42302700436136	289.199612340217
22-09-2017 04:00:00.00	0.1709	3.5096	19.6345	9.4245147723791	289.890295606003
22-09-2017 05:00:00.00	0.1714	3.5083	19.6295	9.41955554565331	290.750669884285
22-09-2017 06:00:00.00	0.1718	3.5064	19.6292	9.41925799204976	291.447142616928
22-09-2017 07:00:00.00	0.1728	3.5095	19.6214	9.41152159835753	293.114133266342
22-09-2017 08:00:00.00	0.1716	3.5052	19.6218	9.41191833649559	291.11917543649
22-09-2017 09:00:00.00	0.172	3.5027	19.6234	9.41350528904784	291.821414727484
22-09-2017 10:00:00.00	0.1711	3.5036	19.6141	9.40428112733787	290.285975967239
22-09-2017 11:00:00.00	0.1716	3.5051	19.6152	9.40537215721755	291.12011875665
22-09-2017 12:00:00.00	0.1726	3.5023	19.6177	9.40785177058044	292.843192328092
22-09-2017 13:00:00.00	0.1707	3.5025	19.6116	9.40180151397498	289.617664811242
22-09-2017 14:00:00.00	0.1707	3.5007	19.6116	9.40180151397498	289.634559406025
22-09-2017 15:00:00.00	0.1722	3.5006	19.6102	9.40041293049176	292.180625451824
22-09-2017 16:00:00.00	0.171	3.4986	19.6125	9.40269417478562	290.16333073295
22-09-2017 17:00:00.00	0.1715	3.4976	19.6065	9.39674310271467	291.021193537816
22-09-2017 18:00:00.00	0.1712	3.4972	19.6099	9.40011537688821	290.515884940233
22-09-2017 19:00:00.00	0.1722	3.4966	19.6115	9.40170232944046	292.218506269275
22-09-2017 20:00:00.00	0.172	3.4961	19.6028	9.39307327493759	291.88384224554
22-09-2017 21:00:00.00	0.1729	3.4952	19.6003	9.39059366157469	293.419700887719
22-09-2017 22:00:00.00	0.1719	3.4943	19.5974	9.38771731007374	291.731162758445
22-09-2017 23:00:00.00	0.1712	3.4936	19.6049	9.39515615016242	290.549786724237
23-09-2017 00:00:00.00	0.1719	3.4929	19.5922	9.38255971427891	291.744402237019
23-09-2017 01:00:00.00	0.1719	3.4928	19.6011	9.39138713785082	291.745347960043
23-09-2017 02:00:00.00	0.1728	3.4918	19.6104	9.40061129956079	293.282317598341
23-09-2017 03:00:00.00	0.1724	3.4908	19.6031	9.39337082854114	292.612909036016
23-09-2017 04:00:00.00	0.1713	3.4904	19.616	9.40616563349367	290.749659553026
23-09-2017 05:00:00.00	0.1717	3.49	19.6188	9.40894280046012	291.432363759189
23-09-2017 06:00:00.00	0.1722	3.4882	19.6191	9.40924035406366	292.298087966515
23-09-2017 07:00:00.00	0.1705	3.4873	19.6193	9.40943872313269	289.420895608124
23-09-2017 08:00:00.00	0.1713	3.4862	19.6194	9.40953790766721	290.789252958844
23-09-2017 09:00:00.00	0.172	3.4862	19.6282	9.4182661467046	291.977533618921
23-09-2017 10:00:00.00	0.1719	3.486	19.6318	9.42183678994717	291.809671512959
23-09-2017 11:00:00.00	0.1728	3.4859	19.6336	9.42362211156846	293.338421940125
23-09-2017 12:00:00.00	0.1731	3.4851	19.6388	9.42877970736328	293.855312264898
23-09-2017 13:00:00.00	0.1714	3.4846	19.6419	9.43185442793327	290.974102184469
23-09-2017 14:00:00.00	0.1716	3.483	19.6432	9.43314382688197	291.32874258542
23-09-2017 15:00:00.00	0.171	3.4828	19.6506	9.44048348243614	290.311993375861
23-09-2017 16:00:00.00	0.1714	3.4828	19.6496	9.43949163709098	290.991085758027
23-09-2017 17:00:00.00	0.1726	3.4817	19.6524	9.44226880405743	293.038815401964
23-09-2017 18:00:00.00	0.1716	3.4798	19.651	9.44088022057421	291.358975345496
23-09-2017 19:00:00.00	0.1718	3.479	19.6467	9.43661528559003	291.706122551549
23-09-2017 20:00:00.00	0.1715	3.4783	19.6501	9.43998755976356	291.203351239481
23-09-2017 21:00:00.00	0.1716	3.4775	19.6498	9.43969000616002	291.380709017902
23-09-2017 22:00:00.00	0.1707	3.4765	19.6491	9.43899571441841	289.861889385001
23-09-2017 23:00:00.00	0.1724	3.4772	19.6499	9.43978919069453	292.741975524733
24-09-2017 00:00:00.00	0.172	3.4769	19.651	9.44088022057421	292.065601533983
24-09-2017 01:00:00.00	0.1708	3.4769	19.6532	9.44306228033355	290.027934546536
24-09-2017 02:00:00.00	0.173	3.4745	19.6571	9.44693047717967	293.786525370632
24-09-2017 03:00:00.00	0.1709	3.4741	19.6597	9.44950927507708	290.2240959668
24-09-2017 04:00:00.00	0.1723	3.4732	19.663	9.4527823647161	292.61013196632
24-09-2017 05:00:00.00	0.1718	3.4719	19.657	9.44683129264516	291.773305592338
24-09-2017 06:00:00.00	0.1717	3.4726	19.6555	9.44534352462742	291.596851270287
24-09-2017 07:00:00.00	0.1739	3.472	19.6578	9.44762476892128	295.338843154864
24-09-2017 08:00:00.00	0.1721	3.4712	19.6562	9.44603781636903	292.289441887152
24-09-2017 09:00:00.00	0.1725	3.4705	19.6531	9.44296309579904	292.975442458731
24-09-2017 10:00:00.00	0.1741	3.4696	19.6473	9.43721039279712	295.701529033372
24-09-2017 11:00:00.00	0.1734	3.471	19.6463	9.43621854745196	294.499233265981
24-09-2017 12:00:00.00	0.1724	3.4733	19.6481	9.43800386907325	292.779008247792
24-09-2017 13:00:00.00	0.1729	3.4707	19.6502	9.44008674429808	293.652900607053
24-09-2017 14:00:00.00	0.1728	3.4665	19.6502	9.44008674429808	293.523052048619
24-09-2017 15:00:00.00	0.174	3.4635	19.6444	9.43433404129616	295.590176790956
24-09-2017 16:00:00.00	0.1728	3.4621	19.6388	9.42877970736328	293.564959257414
24-09-2017 17:00:00.00	0.1736	3.4606	19.6349	9.42491151051716	294.93841172879
24-09-2017 18:00:00.00	0.1715	3.4616	19.6295	9.41955554565331	291.361153685516
24-09-2017 19:00:00.00	0.1725	3.4612	19.6243	9.41439794985849	293.063856388721
24-09-2017 20:00:00.00	0.1722	3.4614	19.6222	9.41231507463365	292.552281488165
24-09-2017 21:00:00.00	0.1725	3.4653	19.6262	9.41628245601429	293.024871628352
24-09-2017 22:00:00.00	0.1727	3.4598	19.6149	9.405074603614	293.41697025214
24-09-2017 23:00:00.00	0.1728	3.4633	19.6144	9.40457868094142	293.553528831943
25-09-2017 00:00:00.00	0.173	3.4581	19.6119	9.40209906757853	293.942885470116
25-09-2017 01:00:00.00	0.1731	3.4596	19.6071	9.39733820992177	294.09847823831
25-09-2017 02:00:00.00	0.1723	3.4618	19.6096	9.39981782328466	292.718373087931
25-09-2017 03:00:00.00	0.1722	3.4606	19.61	9.40021456142273	292.559876150332
25-09-2017 04:00:00.00	0.1734	3.4612	19.6038	9.39406512028275	294.592885204662
25-09-2017 05:00:00.00	0.1725	3.4624	19.5981	9.38841160181534	293.052445141262
25-09-2017 06:00:00.00	0.1737	3.4633	19.6012	9.39148632238533	295.082453461276
25-09-2017 07:00:00.00	0.1722	3.4563	19.5968	9.38712220286664	292.60070421615
25-09-2017 08:00:00.00	0.1732	3.4556	19.5909	9.38127031533021	294.306581408837
25-09-2017 09:00:00.00	0.1737	3.4547	19.5958	9.38613035752148	295.164817944227
25-09-2017 10:00:00.00	0.1736	3.4526	19.5938	9.38414666683117	295.014997671999
25-09-2017 11:00:00.00	0.1725	3.4521	19.5953	9.3856344348489	293.150420613073
25-09-2017 12:00:00.00	0.1734	3.4526	19.5967	9.38702301833212	294.675118642423
25-09-2017 13:00:00.00	0.1732	3.451	19.5986	9.38890752448793	294.350526270529
25-09-2017 14:00:00.00	0.1721	3.4506	19.6005	9.39079203064373	292.484892161109
25-09-2017 15:00:00.00	0.1733	3.4501	19.6016	9.3918830605234	294.529079019127
25-09-2017 16:00:00.00	0.1725	3.4491	19.6035	9.3937675666792	293.178969478811
25-09-2017 17:00:00.00	0.1732	3.448	19.6044	9.39466022748984	294.379193033887
25-09-2017 18:00:00.00	0.1726	3.4474	19.6016	9.3918830605234	293.365117840485
25-09-2017 19:00:00.00	0.1727	3.447	19.5953	9.3856344348489	293.53889781328
25-09-2017 20:00:00.00	0.1734	3.4466	19.6012	9.39148632238533	294.732518001885
25-09-2017 21:00:00.00	0.1731	3.4455	19.6034	9.39366838214468	294.233107581806
25-09-2017 22:00:00.00	0.1726	3.4446	19.5982	9.38851078634986	293.391786858992
25-09-2017 23:00:00.00	0.1732	3.4436	19.5993	9.38960181622953	294.42124772189
26-09-2017 00:00:00.00	0.1719	3.4439	19.5991	9.3894034471605	292.208542250117
26-09-2017 01:00:00.00	0.1722	3.4423	19.5994	9.38970100076405	292.733711787137
26-09-2017 02:00:00.00	0.1732	3.4407	19.597	9.38732057193567	294.44897215463
26-09-2017 03:00:00.00	0.1732	3.4391	19.5984	9.38870915541889	294.464270628578
26-09-2017 04:00:00.00	0.1716	3.4382	19.6013	9.39158550691985	291.752573007766
26-09-2017 05:00:00.00	0.1729	3.4372	19.5926	9.38295645241698	293.972366121516
26-09-2017 06:00:00.00	0.1726	3.4369	19.5979	9.38821323274631	293.46515166784
26-09-2017 07:00:00.00	0.1733	3.4357	19.5895	9.37988173184699	294.666817950504
26-09-2017 08:00:00.00	0.1742	3.4352	19.5886	9.37898907103634	296.201922789171
26-09-2017 09:00:00.00	0.1726	3.4345	19.5885	9.37888988650183	293.488026122135
26-09-2017 10:00:00.00	0.173	3.4349	19.5861	9.37650945767345	294.164362279974
26-09-2017 11:00:00.00	0.1734	3.4334	19.5897	9.38008010091602	294.858875338871
26-09-2017 12:00:00.00	0.1742	3.4318	19.5846	9.37502168965571	296.234633338559
26-09-2017 13:00:00.00	0.1733	3.4304	19.584	9.37442658244862	294.717545969135
26-09-2017 14:00:00.00	0.1721	3.4291	19.5854	9.37581516593184	292.689160489086
26-09-2017 15:00:00.00	0.1732	3.428	19.5819	9.37234370722379	294.570447577005
26-09-2017 16:00:00.00	0.1733	3.4275	19.5782	9.3686738794467	294.745310203282
26-09-2017 17:00:00.00	0.1734	3.4266	19.5729	9.36341709911736	294.924010804628
26-09-2017 18:00:00.00	0.1737	3.4259	19.5725	9.3630203609793	295.440978316826
26-09-2017 19:00:00.00	0.1725	3.425	19.5609	9.35151495497547	293.408513949661
26-09-2017 20:00:00.00	0.1734	3.4242	19.5595	9.35012637149224	294.947006663795
26-09-2017 21:00:00.00	0.1733	3.4232	19.5574	9.34804349626741	294.786487490915
26-09-2017 22:00:00.00	0.1727	3.4219	19.5544	9.34506796023194	293.778284559022
26-09-2017 23:00:00.00	0.1722	3.4216	19.5534	9.34407611488678	292.930594705584
27-09-2017 00:00:00.00	0.1734	3.4204	19.5483	9.33901770362647	294.983424109067
27-09-2017 01:00:00.00	0.1717	3.4199	19.5415	9.3322731552794	292.096175208983
27-09-2017 02:00:00.00	0.1743	3.418	19.544	9.33475276864229	296.537604472937
27-09-2017 03:00:00.00	0.1722	3.4181	19.5406	9.33138049446876	292.963910265869
27-09-2017 04:00:00.00	0.1736	3.4174	19.5357	9.32652045227748	295.352448875018
27-09-2017 05:00:00.00	0.1737	3.4173	19.5305	9.32136285648266	295.523543094878
27-09-2017 06:00:00.00	0.1735	3.416	19.5254	9.31630444522236	295.195744553426
27-09-2017 07:00:00.00	0.1734	3.4156	19.5297	9.32056938020653	295.029437948844
27-09-2017 08:00:00.00	0.1726	3.4154	19.5181	9.3090639742027	293.670195847394
27-09-2017 09:00:00.00	0.1744	3.4143	19.5211	9.31203951023818	296.743412896016
27-09-2017 10:00:00.00	0.1742	3.4143	19.5217	9.31263461744527	296.403110817007
27-09-2017 11:00:00.00	0.174	3.4132	19.5242	9.31511423080816	296.07339298679
27-09-2017 12:00:00.00	0.1741	3.4118	19.5278	9.31868487405073	296.257029808358
27-09-2017 13:00:00.00	0.1735	3.4119	19.5297	9.32056938020653	295.235081060918
27-09-2017 14:00:00.00	0.1737	3.4104	19.5307	9.32156122555169	295.58982030181
27-09-2017 15:00:00.00	0.1743	3.4106	19.5343	9.32513186879426	296.608927816414
27-09-2017 16:00:00.00	0.174	3.4101	19.5289	9.31977590393041	296.103225396277
27-09-2017 17:00:00.00	0.1745	3.4098	19.525	9.31590770708429	296.956992356957
27-09-2017 18:00:00.00	0.1742	3.4086	19.5273	9.31818895137815	296.458027720902
27-09-2017 19:00:00.00	0.1731	3.4075	19.5261	9.31699873696397	294.596552913991
27-09-2017 20:00:00.00	0.1735	3.4068	19.5303	9.32116448741363	295.284026471881
27-09-2017 21:00:00.00	0.1735	3.406	19.5311	9.32195796368975	295.291705655951
27-09-2017 22:00:00.00	0.1739	3.4054	19.5339	9.3247351306562	295.978266378874
27-09-2017 23:00:00.00	0.1743	3.4049	19.5341	9.32493349972523	296.66388946375
28-09-2017 00:00:00.00	0.1736	3.4045	19.5341	9.32493349972523	295.476310450628
28-09-2017 01:00:00.00	0.1749	3.4039	19.5343	9.32513186879426	297.69478536606
28-09-2017 02:00:00.00	0.1728	3.4033	19.5208	9.31174195663463	294.126142634532
28-09-2017 03:00:00.00	0.1731	3.4027	19.5301	9.3209661183446	294.642525679134
28-09-2017 04:00:00.00	0.1744	3.4023	19.5253	9.31620526068784	296.859183875889
28-09-2017 05:00:00.00	0.174	3.4017	19.519	9.30995663501334	296.184091826465
28-09-2017 06:00:00.00	0.1742	3.4012	19.5109	9.30192268771756	296.529353716486
28-09-2017 07:00:00.00	0.1737	3.4005	19.5115	9.30251779492466	295.684965628112
28-09-2017 08:00:00.00	0.1745	3.3999	19.517	9.30797294432303	297.052579617369
28-09-2017 09:00:00.00	0.1738	3.3998	19.5115	9.30251779492466	295.861926652185
28-09-2017 10:00:00.00	0.1734	3.3992	19.5144	9.30539414642561	295.186760271171
28-09-2017 11:00:00.00	0.174	3.3984	19.5103	9.30132758051047	296.215872867144
28-09-2017 12:00:00.00	0.174	3.3981	19.5123	9.30331127120078	296.218762390861
28-09-2017 13:00:00.00	0.1741	3.398	19.5246	9.31551096894623	296.389966799557
28-09-2017 14:00:00.00	0.1741	3.3975	19.5188	9.30975826594431	296.394785596848
28-09-2017 15:00:00.00	0.1747	3.3973	19.5255	9.31640362975687	297.418183739165
28-09-2017 16:00:00.00	0.1728	3.3954	19.5293	9.32017264206847	294.201703257606
28-09-2017 17:00:00.00	0.1739	3.396	19.526	9.31689955242945	296.068738341974
28-09-2017 18:00:00.00	0.1734	3.395	19.5342	9.32503268425974	295.227077124243
28-09-2017 19:00:00.00	0.175	3.399	19.533	9.32384246984556	297.912450850829
28-09-2017 20:00:00.00	0.1756	3.3869	19.5446	9.33534787584939	299.051521314769
28-09-2017 21:00:00.00	0.1745	3.38	19.5484	9.33911688816099	297.244905954778
28-09-2017 22:00:00.00	0.1745	3.3963	19.5555	9.34615899011161	297.087353880054
28-09-2017 23:00:00.00	0.1744	3.4002	19.5645	9.35508559821803	296.879453085403
29-09-2017 00:00:00.00	0.1746	3.3973	19.566	9.35657336623577	297.247938642578
29-09-2017 01:00:00.00	0.1755	3.3913	19.573	9.36351628365188	298.838448156289
29-09-2017 02:00:00.00	0.1735	3.3894	19.5779	9.36837632584315	295.451138903688
29-09-2017 03:00:00.00	0.1752	3.3878	19.5841	9.37452576698313	298.361576015326
29-09-2017 04:00:00.00	0.1746	3.3863	19.5913	9.38166705346827	297.354297799103
29-09-2017 05:00:00.00	0.1752	3.385	19.6024	9.39267653679952	298.38875183406
29-09-2017 06:00:00.00	0.174	3.375	19.5966	9.38692383379761	296.441425133633
29-09-2017 07:00:00.00	0.1748	3.3922	19.6025	9.39277572133404	297.637787821104
29-09-2017 08:00:00.00	0.1751	3.3889	19.6076	9.39783413259435	298.180609544855
29-09-2017 09:00:00.00	0.1742	3.3828	19.6138	9.40398357373433	296.706853696678
29-09-2017 10:00:00.00	0.1739	3.3803	19.6132	9.40338846652723	296.219969167572
29-09-2017 11:00:00.00	0.1741	3.3769	19.6164	9.40656237163174	296.593456351077
29-09-2017 12:00:00.00	0.1743	3.3702	19.6176	9.40775258604593	296.998920477934
29-09-2017 13:00:00.00	0.1738	3.3733	19.6291	9.41915880751525	296.117068673416
29-09-2017 14:00:00.00	0.1742	3.3713	19.6281	9.41816696217009	296.817899134837
29-09-2017 15:00:00.00	0.1748	3.3708	19.63	9.42005146832589	297.845080618212
29-09-2017 16:00:00.00	0.1741	3.3694	19.6294	9.41945636111879	296.665854087362
29-09-2017 17:00:00.00	0.175	3.3686	19.6225	9.4126126282372	298.20721570807
29-09-2017 18:00:00.00	0.1747	3.3685	19.6261	9.41618327147977	297.696972258204
29-09-2017 19:00:00.00	0.1746	3.3685	19.6309	9.42094412913653	297.526567580323
29-09-2017 20:00:00.00	0.1743	3.3677	19.6273	9.41737348589396	297.023087384755
29-09-2017 21:00:00.00	0.1749	3.3664	19.6311	9.42114249820556	298.058153684987
29-09-2017 22:00:00.00	0.1738	3.3657	19.6234	9.41350528904784	296.190322698675
29-09-2017 23:00:00.00	0.1744	3.3657	19.6268	9.41687756322138	297.212843950799
30-09-2017 00:00:00.00	0.1748	3.3661	19.6246	9.41469550346203	297.890646218371
30-09-2017 01:00:00.00	0.1747	3.3657	19.6243	9.41439794985849	297.724104576861
30-09-2017 02:00:00.00	0.1745	3.364	19.6251	9.41519142613461	297.399720904422
30-09-2017 03:00:00.00	0.175	3.3627	19.6229	9.41300936637527	298.264490962986
30-09-2017 04:00:00.00	0.1749	3.3622	19.6225	9.4126126282372	298.098906183246
30-09-2017 05:00:00.00	0.1743	3.3621	19.6228	9.41291018184075	297.077235530485
30-09-2017 06:00:00.00	0.1748	3.3621	19.6221	9.41221589009914	297.929436435621
30-09-2017 07:00:00.00	0.175	3.3616	19.6221	9.41221589009914	298.27517183377
30-09-2017 08:00:00.00	0.1749	3.361	19.6158	9.40596726442464	298.110551801097
30-09-2017 09:00:00.00	0.1751	3.3602	19.6211	9.41122404475398	298.459217499589
30-09-2017 10:00:00.00	0.1759	3.3657	19.6149	9.405074603614	299.76914708111
30-09-2017 11:00:00.00	0.1746	3.3599	19.6179	9.40805013964947	297.609870584194
30-09-2017 12:00:00.00	0.1753	3.3595	19.6203	9.41043056847785	298.80692853665
30-09-2017 13:00:00.00	0.1749	3.3625	19.6216	9.41171996742656	298.095994920949
30-09-2017 14:00:00.00	0.1763	3.363	19.6207	9.41082730661592	300.477235568528
30-09-2017 15:00:00.00	0.1755	3.357	19.6237	9.41380284265139	299.17218799878
30-09-2017 16:00:00.00	0.1744	3.3558	19.6228	9.41291018184075	297.30865094188
30-09-2017 17:00:00.00	0.1762	3.3554	19.6195	9.40963709220173	300.381115785941
30-09-2017 18:00:00.00	0.175	3.3554	19.6175	9.40765340151141	298.335387415095
30-09-2017 19:00:00.00	0.1754	3.3552	19.6209	9.41102567568495	299.019244155725
30-09-2017 20:00:00.00	0.1754	3.3548	19.6216	9.41171996742656	299.023138799176
30-09-2017 21:00:00.00	0.1753	3.354	19.6268	9.41687756322138	298.860443254534
30-09-2017 22:00:00.00	0.1756	3.3533	19.6249	9.41499305706558	299.378722659762
30-09-2017 23:00:00.00	0.1749	3.3528	19.6215	9.41162078289205	298.190154548769
01-10-2017 00:00:00.00	0.1753	3.3522	19.6209	9.41102567568495	298.877961325635
01-10-2017 01:00:00.00	0.1746	3.351	19.6171	9.40725666337335	297.696128637464
01-10-2017 02:00:00.00	0.1757	3.3499	19.6192	9.40933953859818	299.582380116023
01-10-2017 03:00:00.00	0.1757	3.348	19.6171	9.40725666337335	299.600918617
01-10-2017 04:00:00.00	0.1756	3.3465	19.6136	9.4037852046653	299.445029114464
01-10-2017 05:00:00.00	0.175	3.3453	19.6094	9.39961945421563	298.433532619288
01-10-2017 06:00:00.00	0.1757	3.3439	19.6032	9.39347001307565	299.640930569103
01-10-2017 07:00:00.00	0.1758	3.3427	19.5963	9.38662628019406	299.823191296559
01-10-2017 08:00:00.00	0.1764	3.3417	19.5943	9.38464258950374	300.856278925971
01-10-2017 09:00:00.00	0.1751	3.3405	19.5925	9.38285726788246	298.650758638593
01-10-2017 10:00:00.00	0.1739	3.3394	19.5842	9.37462495151765	296.614666368881
01-10-2017 11:00:00.00	0.1751	3.3383	19.5818	9.37224452268927	298.672164281358
01-10-2017 12:00:00.00	0.1751	3.3373	19.5781	9.36857469491218	298.681895133384
01-10-2017 13:00:00.00	0.1756	3.3363	19.5726	9.36311954551382	299.544543885689
01-10-2017 14:00:00.00	0.1751	3.3352	19.5754	9.36589671248026	298.702331986676
01-10-2017 15:00:00.00	0.1749	3.3343	19.5707	9.36123503935801	298.36990235491
01-10-2017 16:00:00.00	0.1761	3.3338	19.5636	9.35419293740739	300.421931599402
01-10-2017 17:00:00.00	0.1761	3.3342	19.5633	9.35389538380385	300.418016059893
01-10-2017 18:00:00.00	0.1755	3.3316	19.5623	9.35290353845869	299.41981141636
01-10-2017 19:00:00.00	0.1754	3.3309	19.5598	9.35042392509579	299.256028017052
01-10-2017 20:00:00.00	0.1762	3.3312	19.5527	9.34338182314517	300.617996897322
01-10-2017 21:00:00.00	0.1758	3.33	19.5503	9.34100139431679	299.947278891253
01-10-2017 22:00:00.00	0.1754	3.3293	19.5473	9.33802585828132	299.271631883335
01-10-2017 23:00:00.00	0.1761	3.3368	19.5464	9.33713319747067	300.392567540736
02-10-2017 00:00:00.00	0.1764	3.3358	19.5443	9.33505032224584	300.914113619096
02-10-2017 01:00:00.00	0.1765	3.3354	19.5602	9.35082066323385	301.088623875553
02-10-2017 02:00:00.00	0.1759	3.3318	19.5559	9.34655572824968	300.100293893558
02-10-2017 03:00:00.00	0.1756	3.332	19.5605	9.3511182168374	299.586516013548
02-10-2017 04:00:00.00	0.1773	3.3319	19.5592	9.3498288178887	302.487826741661
02-10-2017 05:00:00.00	0.1757	3.3254	19.5631	9.35369701473481	299.821605291631
02-10-2017 06:00:00.00	0.1756	3.3276	19.5632	9.35379619926933	299.629476414894
02-10-2017 07:00:00.00	0.177	3.3244	19.5564	9.34705165092225	302.049822725764
02-10-2017 08:00:00.00	0.1756	3.3232	19.5616	9.35220924671708	299.672449138964
02-10-2017 09:00:00.00	0.1748	3.3215	19.5634	9.35399456833836	298.323729544963
02-10-2017 10:00:00.00	0.1767	3.3233	19.5654	9.35597825902868	301.548685444839
02-10-2017 11:00:00.00	0.1773	3.3217	19.5666	9.35716847344287	302.588400569767
02-10-2017 12:00:00.00	0.176	3.325	19.5611	9.3517133240445	300.337453018946
02-10-2017 13:00:00.00	0.1764	3.3216	19.5639	9.35449049101094	301.053400183117
02-10-2017 14:00:00.00	0.1752	3.327	19.5651	9.35568070542513	298.952794978276
02-10-2017 15:00:00.00	0.1755	3.3189	19.5684	9.35895379506415	299.543776906349
02-10-2017 16:00:00.00	0.1775	3.3181	19.5705	9.36103667028898	302.965282517003
02-10-2017 17:00:00.00	0.1755	3.3182	19.5699	9.36044156308189	299.550612634768
02-10-2017 18:00:00.00	0.1762	3.3188	19.572	9.36252443830672	300.739518818135
02-10-2017 19:00:00.00	0.1761	3.32	19.5737	9.36421057539349	300.557080244132
02-10-2017 20:00:00.00	0.1768	3.3263	19.5705	9.36103667028898	301.689840217518
02-10-2017 21:00:00.00	0.1759	3.3251	19.5724	9.36292117644478	300.165828395145
02-10-2017 22:00:00.00	0.1775	3.3315	19.5727	9.36321873004833	302.832989824044
02-10-2017 23:00:00.00	0.1778	3.3119	19.5733	9.36381383725542	303.538689206924
03-10-2017 00:00:00.00	0.1762	3.3228	19.5812	9.37164941548217	300.700307465211
03-10-2017 01:00:00.00	0.1773	3.3068	19.5815	9.37194696908572	302.735437503419
03-10-2017 02:00:00.00	0.1762	3.3237	19.5845	9.37492250512119	300.691486319894
03-10-2017 03:00:00.00	0.177	3.3252	19.5892	9.37958417824344	302.041946903005
03-10-2017 04:00:00.00	0.1761	3.3165	19.5915	9.3818654225373	300.59137640723
03-10-2017 05:00:00.00	0.1764	3.3216	19.5946	9.38494014310729	301.053400183117
03-10-2017 06:00:00.00	0.1771	3.3147	19.5914	9.38176623800279	302.316053356274
03-10-2017 07:00:00.00	0.1778	3.3142	19.594	9.3843450359002	303.515926443444
03-10-2017 08:00:00.00	0.1768	3.3081	19.5974	9.38771731007374	301.868901443577
03-10-2017 09:00:00.00	0.1766	3.3106	19.5994	9.38970100076405	301.502839709447
03-10-2017 10:00:00.00	0.1751	3.3087	19.5984	9.38870915541889	298.960466140661
03-10-2017 11:00:00.00	0.178	3.3092	19.5993	9.38960181622953	303.906883477252
03-10-2017 12:00:00.00	0.1764	3.3077	19.6052	9.39545370376597	301.189869017751
03-10-2017 13:00:00.00	0.1768	3.3071	19.6125	9.40269417478562	301.878746132968
03-10-2017 14:00:00.00	0.1769	3.3087	19.6141	9.40428112733787	302.033731926231
03-10-2017 15:00:00.00	0.1773	3.312	19.6213	9.41142241382301	302.68410636999
03-10-2017 16:00:00.00	0.1774	3.3092	19.6191	9.40924035406366	302.882478252048
03-10-2017 17:00:00.00	0.1757	3.3113	19.6254	9.41548897973816	299.959455110419
03-10-2017 18:00:00.00	0.1768	3.3083	19.6311	9.42114249820556	301.86693258275
03-10-2017 19:00:00.00	0.1777	3.3077	19.6363	9.42630009400038	303.409522247473
03-10-2017 20:00:00.00	0.1756	3.3086	19.6319	9.42193597448169	299.81512880116
03-10-2017 21:00:00.00	0.1775	3.3074	19.6353	9.42530824865523	303.071002245048
03-10-2017 22:00:00.00	0.176	3.3067	19.6431	9.43304464234746	300.516699192192
03-10-2017 23:00:00.00	0.1769	3.3068	19.6453	9.4352267021068	302.052447232684
04-10-2017 00:00:00.00	0.1763	3.3057	19.6499	9.43978919069453	301.038761310362
04-10-2017 01:00:00.00	0.1777	3.3055	19.653	9.44286391126452	303.431292235668
04-10-2017 02:00:00.00	0.1777	3.3042	19.6528	9.44266554219549	303.444157788093
04-10-2017 03:00:00.00	0.1764	3.3037	19.6586	9.44841824519741	301.229163552699
04-10-2017 04:00:00.00	0.1782	3.3023	19.6568	9.44663292357613	304.3168263997
04-10-2017 05:00:00.00	0.1772	3.3002	19.6597	9.44950927507708	302.629829306871
04-10-2017 06:00:00.00	0.178	3.298	19.6621	9.45188970390546	304.017921344073
04-10-2017 07:00:00.00	0.178	3.2959	19.6592	9.4490133524045	304.038749977816
04-10-2017 08:00:00.00	0.1769	3.2938	19.6638	9.45357584099223	302.180561580282
04-10-2017 09:00:00.00	0.1769	3.2922	19.6647	9.45446850180287	302.196337011405
04-10-2017 10:00:00.00	0.177	3.2909	19.6568	9.44663292357613	302.379991915692
04-10-2017 11:00:00.00	0.1773	3.2901	19.6579	9.4477239534558	302.900407217394
04-10-2017 12:00:00.00	0.1775	3.2881	19.6567	9.44653373904161	303.261879651984
04-10-2017 13:00:00.00	0.1775	3.2869	19.6562	9.44603781636903	303.27375561695
04-10-2017 14:00:00.00	0.1772	3.2858	19.6594	9.44921172147354	302.772048972935
04-10-2017 15:00:00.00	0.1773	3.2852	19.6524	9.44226880405743	302.948845626495
04-10-2017 16:00:00.00	0.1773	3.2842	19.6539	9.44375657207517	302.958732919612
04-10-2017 17:00:00.00	0.1775	3.2832	19.6519	9.44177288138485	303.310379031687
04-10-2017 18:00:00.00	0.1771	3.2828	19.658	9.44782313799031	302.63081357894
04-10-2017 19:00:00.00	0.1772	3.2824	19.6551	9.44494678648936	302.805648125072
04-10-2017 20:00:00.00	0.1783	3.2825	19.6464	9.43631773198648	304.684372707765
04-10-2017 21:00:00.00	0.1765	3.2832	19.6439	9.43383811862358	301.601588163903
04-10-2017 22:00:00.00	0.1771	3.2808	19.6459	9.4358218093139	302.650569598284
04-10-2017 23:00:00.00	0.1773	3.2802	19.6405	9.43046584445005	302.998288546723
05-10-2017 00:00:00.00	0.1766	3.2789	19.6394	9.42937481457037	301.814824846825
05-10-2017 01:00:00.00	0.1773	3.2794	19.6419	9.43185442793327	303.006200911671
05-10-2017 02:00:00.00	0.1776	3.2784	19.6413	9.43125932072618	303.528809532664
05-10-2017 03:00:00.00	0.1773	3.2785	19.6388	9.42877970736328	303.015102816203
05-10-2017 04:00:00.00	0.1772	3.2788	19.6395	9.42947399910489	302.841231826877
05-10-2017 05:00:00.00	0.1781	3.2777	19.633	9.42302700436136	304.390294191596
05-10-2017 06:00:00.00	0.1765	3.2756	19.6331	9.42312618889588	301.676418420988
05-10-2017 07:00:00.00	0.178	3.2748	19.6343	9.42431640331007	304.248186663715
05-10-2017 08:00:00.00	0.1762	3.2766	19.6349	9.42491151051716	301.153822501714
05-10-2017 09:00:00.00	0.177	3.275	19.6315	9.42153923634362	302.536951812017
05-10-2017 10:00:00.00	0.178	3.2721	19.6286	9.41866288484266	304.275007444054
05-10-2017 11:00:00.00	0.1782	3.2708	19.6369	9.42689520120748	304.629819382211
05-10-2017 12:00:00.00	0.1775	3.2686	19.6336	9.42362211156846	303.45497940216
05-10-2017 13:00:00.00	0.1782	3.2734	19.6388	9.42877970736328	304.603960665133
05-10-2017 14:00:00.00	0.1782	3.2667	19.6426	9.43254871967488	304.670605511628
05-10-2017 15:00:00.00	0.1777	3.2658	19.64	9.42996992177747	303.824679105914
05-10-2017 16:00:00.00	0.1775	3.2612	19.6455	9.43542507117584	303.528322663843
05-10-2017 17:00:00.00	0.1766	3.2597	19.646	9.43592099384842	302.004101612444
05-10-2017 18:00:00.00	0.1785	3.259	19.6378	9.42778786201812	305.260275856101
05-10-2017 19:00:00.00	0.1783	3.257	19.6422	9.43215198153682	304.938168356311
05-10-2017 20:00:00.00	0.1768	3.2564	19.6362	9.42620090946587	302.378714837101
05-10-2017 21:00:00.00	0.1786	3.2555	19.6325	9.42253108168878	305.46621181961
05-10-2017 22:00:00.00	0.178	3.2543	19.6349	9.42491151051716	304.451944338727
05-10-2017 23:00:00.00	0.178	3.2534	19.635	9.42501069505168	304.460896051679
06-10-2017 00:00:00.00	0.1783	3.2519	19.6324	9.42243189715427	304.988978232015
06-10-2017 01:00:00.00	0.1787	3.2505	19.6344	9.42441558784458	305.687175618993
06-10-2017 02:00:00.00	0.1771	3.2496	19.6367	9.42669683213845	302.959097818941
06-10-2017 03:00:00.00	0.1775	3.2493	19.6406	9.43056502898456	303.646340934146
06-10-2017 04:00:00.00	0.1777	3.2483	19.6337	9.42372129610297	303.998410517709
06-10-2017 05:00:00.00	0.1783	3.2475	19.6359	9.42590335586232	305.032827810851
06-10-2017 06:00:00.00	0.1776	3.2463	19.6301	9.4201506528604	303.847193056722
06-10-2017 07:00:00.00	0.1785	3.2455	19.6334	9.42342374249943	305.394942813728
06-10-2017 08:00:00.00	0.1779	3.2447	19.6245	9.41459631892752	304.376362347279
06-10-2017 09:00:00.00	0.1788	3.2442	19.6194	9.40953790766721	305.921207631837
06-10-2017 10:00:00.00	0.1791	3.2434	19.622	9.41211670556462	306.442509759706
06-10-2017 11:00:00.00	0.1777	3.2432	19.6193	9.40943872313269	304.04907820943
06-10-2017 12:00:00.00	0.1775	3.2423	19.6153	9.40547134175207	303.715806327052
06-10-2017 13:00:00.00	0.1789	3.2424	19.6127	9.40289254385465	306.110310862977
06-10-2017 14:00:00.00	0.1778	3.2412	19.618	9.40814932418399	304.240066151167
06-10-2017 15:00:00.00	0.1786	3.2403	19.6181	9.40824850871851	305.617964915297
06-10-2017 16:00:00.00	0.1784	3.2395	19.6173	9.40745503244238	305.283709785738
06-10-2017 17:00:00.00	0.1786	3.2394	19.6138	9.40398357373433	305.626955024273
06-10-2017 18:00:00.00	0.1779	3.239	19.6098	9.40001619235369	304.433069131976
06-10-2017 19:00:00.00	0.1781	3.2384	19.6103	9.40051211502627	304.781298113005
06-10-2017 20:00:00.00	0.1775	3.2382	19.6103	9.40051211502627	303.756507961792
06-10-2017 21:00:00.00	0.1788	3.2376	19.6083	9.39852842433596	305.987204395482
06-10-2017 22:00:00.00	0.1779	3.2373	19.6088	9.39902434700854	304.449985772653
06-10-2017 23:00:00.00	0.1786	3.2372	19.6065	9.39674310271467	305.648933073015
07-10-2017 00:00:00.00	0.1795	3.237	19.6036	9.39386675121371	307.191165490127
07-10-2017 01:00:00.00	0.1791	3.237	19.6051	9.39535451923145	306.506616931932
07-10-2017 02:00:00.00	0.1779	3.2364	19.6018	9.39208142959243	304.458942402392
07-10-2017 03:00:00.00	0.178	3.2354	19.6116	9.40180151397498	304.640040921715
07-10-2017 04:00:00.00	0.1779	3.2356	19.6125	9.40269417478562	304.466904293473
07-10-2017 05:00:00.00	0.1784	3.2357	19.6047	9.39495778109339	305.321631094557
07-10-2017 06:00:00.00	0.1789	3.235	19.6081	9.39833005526693	306.184359267725
07-10-2017 07:00:00.00	0.1786	3.2341	19.6046	9.39485859655887	305.679907507353
07-10-2017 08:00:00.00	0.1787	3.2337	19.6042	9.39446185842081	305.855060267567
07-10-2017 09:00:00.00	0.1787	3.2336	19.6036	9.39386675121371	305.856060133047
07-10-2017 10:00:00.00	0.1784	3.2337	19.6025	9.39277572133404	305.341593462417
07-10-2017 11:00:00.00	0.1783	3.2332	19.6022	9.39247816773049	305.175426062892
07-10-2017 12:00:00.00	0.1783	3.2326	19.6063	9.39654473364564	305.181412120779
07-10-2017 13:00:00.00	0.1783	3.2321	19.6064	9.39664391818016	305.186400681742
07-10-2017 14:00:00.00	0.1792	3.2324	19.6031	9.39337082854114	306.723873407663
07-10-2017 15:00:00.00	0.1789	3.2329	19.605	9.39525533469694	306.205379530443
07-10-2017 16:00:00.00	0.1787	3.2324	19.6073	9.3975365789908	305.868059028736
07-10-2017 17:00:00.00	0.1788	3.2315	19.6078	9.39803250166338	306.048226730386
07-10-2017 18:00:00.00	0.1791	3.2308	19.6119	9.40209906757853	306.568746338207
07-10-2017 19:00:00.00	0.1788	3.2302	19.6053	9.39555288830048	306.061234636642
07-10-2017 20:00:00.00	0.1787	3.2297	19.6048	9.39505696562791	305.895059986501
07-10-2017 21:00:00.00	0.1777	3.23	19.6059	9.39614799550758	304.180296580069
07-10-2017 22:00:00.00	0.1795	3.23	19.6056	9.39585044190403	307.261470096355
07-10-2017 23:00:00.00	0.1788	3.2306	19.6052	9.39545370376597	306.057232086177
08-10-2017 00:00:00.00	0.1797	3.2285	19.6024	9.39267653679952	307.618908959439
08-10-2017 01:00:00.00	0.1799	3.2259	19.6033	9.39356919761017	307.987460476298
08-10-2017 02:00:00.00	0.1799	3.2267	19.6011	9.39138713785082	307.979403967237
08-10-2017 03:00:00.00	0.1783	3.227	19.6036	9.39386675121371	305.237293320713
08-10-2017 04:00:00.00	0.1793	3.2305	19.5998	9.39009773890211	306.914100255126
08-10-2017 05:00:00.00	0.1795	3.224	19.6038	9.39406512028275	307.321756805251
08-10-2017 06:00:00.00	0.1786	3.2221	19.6067	9.39694147178371	305.799867752687
08-10-2017 07:00:00.00	0.1789	3.2194	19.6034	9.39366838214468	306.340578736087
08-10-2017 08:00:00.00	0.1796	3.2206	19.6003	9.39059366157469	307.527158706239
08-10-2017 09:00:00.00	0.1796	3.2205	19.597	9.38732057193567	307.528164468665
08-10-2017 10:00:00.00	0.1797	3.2203	19.5968	9.38712220286664	307.701406623505
08-10-2017 11:00:00.00	0.1793	3.2172	19.5976	9.38791567914277	307.047614402722
08-10-2017 12:00:00.00	0.1792	3.2153	19.5922	9.38255971427891	306.895438720302
08-10-2017 13:00:00.00	0.1794	3.2143	19.5971	9.38741975647019	307.248006154825
08-10-2017 14:00:00.00	0.1797	3.214	19.5984	9.38870915541889	307.764819038739
08-10-2017 15:00:00.00	0.1798	3.2128	19.5963	9.38662628019406	307.948173178817
08-10-2017 16:00:00.00	0.1812	3.2104	19.601	9.3912879533163	310.370357479508
08-10-2017 17:00:00.00	0.1792	3.207	19.5952	9.38553525031439	306.978782318639
08-10-2017 18:00:00.00	0.1794	3.2053	19.5976	9.38791567914277	307.338487585932
08-10-2017 19:00:00.00	0.1785	3.2043	19.5925	9.38285726788246	305.806662038393
08-10-2017 20:00:00.00	0.1804	3.2029	19.5953	9.3856344348489	309.075906044283
08-10-2017 21:00:00.00	0.1788	3.2012	19.589	9.37938580917441	306.35169874073
08-10-2017 22:00:00.00	0.1804	3.1988	19.5881	9.37849314836377	309.11737940841
08-10-2017 23:00:00.00	0.1806	3.1962	19.5857	9.37611271953539	309.486416716571
09-10-2017 00:00:00.00	0.1795	3.1939	19.5931	9.38345237508955	307.624552511245
09-10-2017 01:00:00.00	0.1803	3.193	19.5925	9.38285726788246	309.004684428752
09-10-2017 02:00:00.00	0.1803	3.1914	19.5974	9.38771731007374	309.020869346491
09-10-2017 03:00:00.00	0.1797	3.1957	19.5972	9.3875189410047	307.949165321524
09-10-2017 04:00:00.00	0.1791	3.1926	19.5998	9.39009773890211	306.952100013392
09-10-2017 05:00:00.00	0.1809	3.1917	19.5992	9.38950263169502	310.046180084522
09-10-2017 06:00:00.00	0.1804	3.1922	19.5978	9.3881140482118	309.184164793652
09-10-2017 07:00:00.00	0.1796	3.1923	19.6011	9.39138713785082	307.812052223228
09-10-2017 08:00:00.00	0.1798	3.1927	19.6017	9.39198224505792	308.150792407706
09-10-2017 09:00:00.00	0.1806	3.1931	19.599	9.38930426262599	309.517822133887
09-10-2017 10:00:00.00	0.1798	3.1929	19.6013	9.39158550691985	308.148774982652
09-10-2017 11:00:00.00	0.1797	3.1926	19.602	9.39227979866146	307.980415256318
09-10-2017 12:00:00.00	0.1794	3.1916	19.6054	9.395652072835	307.476322780622
09-10-2017 13:00:00.00	0.1794	3.1902	19.6066	9.39684228724919	307.490415091835
09-10-2017 14:00:00.00	0.1791	3.1895	19.6085	9.39872679340499	306.983251929637
09-10-2017 15:00:00.00	0.1797	3.1892	19.6133	9.40348765106175	308.014696671858
09-10-2017 16:00:00.00	0.1805	3.1893	19.6111	9.4013055913024	309.384923403578
09-10-2017 17:00:00.00	0.1807	3.1893	19.6125	9.40269417478562	309.727732182972
09-10-2017 18:00:00.00	0.1803	3.1898	19.6164	9.40656237163174	309.037055959772
09-10-2017 19:00:00.00	0.1803	3.1902	19.6146	9.40477705001045	309.03300914748
09-10-2017 20:00:00.00	0.1799	3.1908	19.6209	9.41102567568495	308.341355236185
09-10-2017 21:00:00.00	0.1806	3.1911	19.6191	9.40924035406366	309.538087076218
09-10-2017 22:00:00.00	0.1805	3.1914	19.6201	9.41023219940882	309.363654559299
09-10-2017 23:00:00.00	0.1803	3.1912	19.6215	9.41162078289205	309.02289258042
10-10-2017 00:00:00.00	0.1798	3.1909	19.6189	9.40904198499463	308.168950421975
10-10-2017 01:00:00.00	0.1796	3.1905	19.6273	9.41737348589396	307.830190514494
10-10-2017 02:00:00.00	0.1809	3.1904	19.6278	9.41786940856654	310.059375084842
10-10-2017 03:00:00.00	0.1802	3.1903	19.6271	9.41717511682493	308.860598682564
10-10-2017 04:00:00.00	0.1801	3.19	19.6299	9.41995228379137	308.692231616872
10-10-2017 05:00:00.00	0.1801	3.1897	19.6354	9.42540743318974	308.695263389134
10-10-2017 06:00:00.00	0.1802	3.1893	19.6242	9.41429876532397	308.870710234486
10-10-2017 07:00:00.00	0.1802	3.1888	19.6268	9.41687756322138	308.875766258727
10-10-2017 08:00:00.00	0.1805	3.1885	19.6281	9.41816696217009	309.393026589717
10-10-2017 09:00:00.00	0.181	3.1888	19.6342	9.42421721877555	310.247023822583
10-10-2017 10:00:00.00	0.1806	3.1889	19.6298	9.41985309925685	309.560381577907
10-10-2017 11:00:00.00	0.1806	3.1885	19.6344	9.42441558784458	309.564435468714
10-10-2017 12:00:00.00	0.1795	3.1882	19.6354	9.42540743318974	307.681959768501
10-10-2017 13:00:00.00	0.1802	3.1877	19.6375	9.42749030841457	308.886890094736
10-10-2017 14:00:00.00	0.1809	3.1873	19.6347	9.42471314144813	310.09084461838
10-10-2017 15:00:00.00	0.1792	3.1859	19.6397	9.42967236817392	307.19085975539
10-10-2017 16:00:00.00	0.18	3.1846	19.6408	9.43076339805359	308.575381862892
10-10-2017 17:00:00.00	0.1806	3.1831	19.6388	9.42877970736328	309.619173388469
10-10-2017 18:00:00.00	0.1812	3.1822	19.6424	9.43235035060585	310.656963699871
10-10-2017 19:00:00.00	0.1808	3.1813	19.6458	9.43572262477939	309.980322250262
10-10-2017 20:00:00.00	0.1817	3.1807	19.6407	9.43066421351908	311.529486848869
10-10-2017 21:00:00.00	0.18	3.1792	19.646	9.43592099384842	308.629951864701
10-10-2017 22:00:00.00	0.1802	3.1752	19.6485	9.43840060721131	309.013353629669
10-10-2017 23:00:00.00	0.1811	3.1697	19.6464	9.43631773198648	310.612660403954
11-10-2017 00:00:00.00	0.1808	3.1645	19.6485	9.43840060721131	310.150950707871
11-10-2017 01:00:00.00	0.1817	3.159	19.6503	9.4401859288326	311.751023313726
11-10-2017 02:00:00.00	0.1811	3.1529	19.6543	9.44415331021323	310.783701939793
11-10-2017 03:00:00.00	0.1809	3.1487	19.6545	9.44435167928226	310.483226722936
11-10-2017 04:00:00.00	0.1827	3.1457	19.6561	9.44593863183451	313.603453530997
11-10-2017 05:00:00.00	0.1808	3.1446	19.6579	9.4477239534558	310.353307372371
11-10-2017 06:00:00.00	0.1812	3.1434	19.6549	9.44474841742032	311.052167602736
11-10-2017 07:00:00.00	0.1817	3.1413	19.6616	9.45139378123288	311.931957013545
11-10-2017 08:00:00.00	0.1802	3.1375	19.6598	9.4496084596116	309.395395554373
11-10-2017 09:00:00.00	0.1821	3.1322	19.6618	9.45159215030191	312.711962814169
11-10-2017 10:00:00.00	0.1811	3.1274	19.6543	9.44415331021323	311.043678810973
11-10-2017 11:00:00.00	0.1794	3.1262	19.656	9.4458394473	308.136017215219
11-10-2017 12:00:00.00	0.1814	3.1229	19.6624	9.45218725750901	311.604935650403
11-10-2017 13:00:00.00	0.1807	3.1222	19.6637	9.45347665645771	310.409620107755
11-10-2017 14:00:00.00	0.1826	3.1215	19.6581	9.44792232252483	313.680677708307
11-10-2017 15:00:00.00	0.1812	3.1219	19.6612	9.45099704309482	311.271592727438
11-10-2017 16:00:00.00	0.1819	3.1222	19.6625	9.45228644204353	312.471001093528
11-10-2017 17:00:00.00	0.1807	3.1223	19.6616	9.45139378123288	310.408601647385
11-10-2017 18:00:00.00	0.1807	3.1226	19.6653	9.45506360900997	310.405546306375
11-10-2017 19:00:00.00	0.1817	3.1232	19.664	9.45377421006126	312.117196932656
11-10-2017 20:00:00.00	0.1812	3.1244	19.6657	9.45546034714803	311.246062273535
11-10-2017 21:00:00.00	0.1809	3.1262	19.6692	9.45893180585608	310.712405319025
11-10-2017 22:00:00.00	0.1813	3.1291	19.67	9.45972528213221	311.369819223973
11-10-2017 23:00:00.00	0.182	3.1328	19.67	9.45972528213221	312.534086822107
12-10-2017 00:00:00.00	0.1815	3.136	19.6637	9.45347665645771	311.642767758658
12-10-2017 01:00:00.00	0.1826	3.1381	19.67	9.45972528213221	313.509920228208
12-10-2017 02:00:00.00	0.182	3.1395	19.6678	9.45754322237286	312.465421709428
12-10-2017 03:00:00.00	0.1816	3.1405	19.6722	9.46190734189156	311.768461100747
12-10-2017 04:00:00.00	0.1826	3.1422	19.669	9.45873343678705	313.467773813328
12-10-2017 05:00:00.00	0.1816	3.1426	19.6693	9.4590309903906	311.746994104926
12-10-2017 06:00:00.00	0.1814	3.144	19.6657	9.45546034714803	311.389366482282
12-10-2017 07:00:00.00	0.1814	3.1441	19.666	9.45575790075158	311.388345537588
12-10-2017 08:00:00.00	0.1825	3.1459	19.663	9.4527823647161	313.258100695709
12-10-2017 09:00:00.00	0.1816	3.1477	19.6637	9.45347665645771	311.694872277791
12-10-2017 10:00:00.00	0.1815	3.1509	19.6628	9.45258399564707	311.490557142308
12-10-2017 11:00:00.00	0.1817	3.153	19.6585	9.44831906066289	311.812333250332
12-10-2017 12:00:00.00	0.1817	3.155	19.6612	9.45099704309482	311.791893925549
12-10-2017 13:00:00.00	0.1825	3.1577	19.6634	9.45317910285417	313.136960255473
12-10-2017 14:00:00.00	0.1823	3.1602	19.6566	9.44643455450709	312.768171255998
12-10-2017 15:00:00.00	0.1823	3.1621	19.6595	9.44931090600805	312.748698906225
12-10-2017 16:00:00.00	0.1813	3.163	19.6579	9.4477239534558	311.023955020412
12-10-2017 17:00:00.00	0.1819	3.1621	19.6616	9.45139378123288	312.062470274506
12-10-2017 18:00:00.00	0.1825	3.1591	19.6544	9.44425249474774	313.122593878057
12-10-2017 19:00:00.00	0.1819	3.1521	19.6514	9.44127695871227	312.164758603198
12-10-2017 20:00:00.00	0.1817	3.1419	19.6536	9.44345901847162	311.925820228858
12-10-2017 21:00:00.00	0.1824	3.1328	19.6497	9.4395908216255	313.220974925013
12-10-2017 22:00:00.00	0.1823	3.1234	19.6442	9.43413567222713	313.145798794394
12-10-2017 23:00:00.00	0.1818	3.1175	19.6442	9.43413567222713	312.347385959057
13-10-2017 00:00:00.00	0.1827	3.1127	19.6388	9.42877970736328	313.94311051844
13-10-2017 01:00:00.00	0.1821	3.1071	19.6337	9.42372129610297	312.969620927448
13-10-2017 02:00:00.00	0.1816	3.1002	19.6352	9.42520906412071	312.18099649068
13-10-2017 03:00:00.00	0.1828	3.097	19.6307	9.4207457600675	314.276887221533
13-10-2017 04:00:00.00	0.1814	3.0975	19.6242	9.41429876532397	311.864832211477
13-10-2017 05:00:00.00	0.1811	3.1002	19.6218	9.41191833649559	311.32146731532
13-10-2017 06:00:00.00	0.1826	3.1034	19.6159	9.40606644895916	313.867077189678
13-10-2017 07:00:00.00	0.1827	3.1042	19.6081	9.39833005526693	314.030717119996
13-10-2017 08:00:00.00	0.1826	3.1015	19.5978	9.3881140482118	313.886656834646
13-10-2017 09:00:00.00	0.1834	3.0941	19.5969	9.38722138740116	315.338459870112
13-10-2017 10:00:00.00	0.1826	3.086	19.5981	9.38841160181534	314.046476814736
13-10-2017 11:00:00.00	0.1823	3.0809	19.5912	9.38156786893376	313.583053813518
13-10-2017 12:00:00.00	0.1829	3.0793	19.5818	9.37224452268927	314.631682330101
13-10-2017 13:00:00.00	0.1815	3.0799	19.5863	9.37670782674248	312.217192935552
13-10-2017 14:00:00.00	0.1829	3.0818	19.5739	9.36440894446252	314.605840164615
13-10-2017 15:00:00.00	0.1833	3.0834	19.5816	9.37204615362024	315.277306256935
13-10-2017 16:00:00.00	0.1831	3.0827	19.5691	9.35964808680576	314.940547360479
13-10-2017 17:00:00.00	0.183	3.0794	19.5732	9.36371465272091	314.802671879937
13-10-2017 18:00:00.00	0.1821	3.0755	19.5694	9.35994564040931	313.294607642376
13-10-2017 19:00:00.00	0.1827	3.0711	19.5705	9.36103667028898	314.372333954409
13-10-2017 20:00:00.00	0.1817	3.0675	19.5661	9.35667255077029	312.688627435458
13-10-2017 21:00:00.00	0.1832	3.0674	19.565	9.35558152089062	315.271022769142
13-10-2017 22:00:00.00	0.1819	3.068	19.5666	9.35716847344287	313.027664142483
13-10-2017 23:00:00.00	0.1835	3.0705	19.5673	9.35786276518448	315.755122352529
14-10-2017 00:00:00.00	0.1825	3.0733	19.5655	9.35607744356319	314.005489641836
14-10-2017 01:00:00.00	0.1818	3.0749	19.5614	9.35201087764804	312.784638537349
14-10-2017 02:00:00.00	0.1824	3.0747	19.5676	9.35816031878802	313.818993574573
14-10-2017 03:00:00.00	0.1832	3.0745	19.5689	9.35944971773673	315.197464243282
14-10-2017 04:00:00.00	0.1833	3.0783	19.5617	9.35230843125159	315.330138526955
14-10-2017 05:00:00.00	0.182	3.072	19.5707	9.36123503935801	313.158579375032
14-10-2017 06:00:00.00	0.1823	3.069	19.5742	9.36470649806607	313.705704126478
14-10-2017 07:00:00.00	0.1818	3.067	19.5761	9.36659100422187	312.865859881183
14-10-2017 08:00:00.00	0.1836	3.0659	19.5705	9.36103667028898	315.974966315365
14-10-2017 09:00:00.00	0.1825	3.0627	19.576	9.36649181968735	314.114911014172
14-10-2017 10:00:00.00	0.1834	3.0592	19.5775	9.36797958770509	315.700295553315
14-10-2017 11:00:00.00	0.1823	3.0565	19.5751	9.36559915887671	313.834641852785
14-10-2017 12:00:00.00	0.1824	3.0544	19.5781	9.36857469491218	314.028478526512
14-10-2017 13:00:00.00	0.1834	3.0528	19.5824	9.37283962989636	315.766739493886
14-10-2017 14:00:00.00	0.183	3.0513	19.5798	9.37026083199895	315.093587186043
14-10-2017 15:00:00.00	0.183	3.049	19.5818	9.37224452268927	315.117422566781
14-10-2017 16:00:00.00	0.1834	3.0473	19.5847	9.37512087419023	315.82386210462
14-10-2017 17:00:00.00	0.1844	3.0458	19.5884	9.37879070196731	317.561578961635
14-10-2017 18:00:00.00	0.1837	3.044	19.5848	9.37522005872474	316.374816495717
14-10-2017 19:00:00.00	0.1832	3.043	19.5901	9.38047683905408	315.524077397781
14-10-2017 20:00:00.00	0.1835	3.0423	19.5934	9.3837499286931	316.048042953874
14-10-2017 21:00:00.00	0.1836	3.0413	19.5896	9.3799809163815	316.230679119335
14-10-2017 22:00:00.00	0.1829	3.0414	19.5937	9.38404748229665	315.023970241069
14-10-2017 23:00:00.00	0.1831	3.0408	19.5912	9.38156786893376	315.374672000007
15-10-2017 00:00:00.00	0.1837	3.0405	19.5908	9.38117113079569	316.411245396901
15-10-2017 01:00:00.00	0.1838	3.0404	19.5894	9.37978254731247	316.584530377681
15-10-2017 02:00:00.00	0.1837	3.0402	19.5906	9.38097276172666	316.414368264504
15-10-2017 03:00:00.00	0.1834	3.0401	19.5861	9.37650945767345	315.898672038804
15-10-2017 04:00:00.00	0.1833	3.0403	19.5829	9.37333555256894	315.724348908098
15-10-2017 05:00:00.00	0.183	3.0406	19.5779	9.36837632584315	315.204504165574
15-10-2017 06:00:00.00	0.1835	3.0406	19.5809	9.37135186187863	316.06571865783
15-10-2017 07:00:00.00	0.1833	3.0405	19.5806	9.37105430827508	315.722271536483
15-10-2017 08:00:00.00	0.1841	3.0395	19.5751	9.36559915887671	317.110651722676
15-10-2017 09:00:00.00	0.1836	3.0387	19.5636	9.35419293740739	316.257729861708
15-10-2017 10:00:00.00	0.1841	3.0383	19.5583	9.34893615707805	317.123171587252
15-10-2017 11:00:00.00	0.1832	3.0379	19.555	9.34566306743903	315.577021300536
15-10-2017 12:00:00.00	0.1825	3.0386	19.5543	9.34496877569742	314.363973812809
15-10-2017 13:00:00.00	0.1839	3.0398	19.5465	9.33723238200519	316.763027047429
15-10-2017 14:00:00.00	0.1842	3.0411	19.5406	9.33138049446876	317.266200172822
15-10-2017 15:00:00.00	0.1841	3.0425	19.5417	9.33247152434843	317.079356385743
15-10-2017 16:00:00.00	0.184	3.0463	19.5419	9.33266989341746	316.86751388659
15-10-2017 17:00:00.00	0.1838	3.0453	19.5419	9.33266989341746	316.533504167281
15-10-2017 18:00:00.00	0.1836	3.0462	19.5388	9.32959517284747	316.179711450538
15-10-2017 19:00:00.00	0.1833	3.0468	19.5437	9.33445521503875	315.65684832084
15-10-2017 20:00:00.00	0.1843	3.0428	19.5512	9.34189405512743	317.420688057824
15-10-2017 21:00:00.00	0.1843	3.0458	19.554	9.34467122209387	317.38936552402
15-10-2017 22:00:00.00	0.1842	3.0465	19.5552	9.34586143650806	317.209848349755
15-10-2017 23:00:00.00	0.1854	3.06	19.5616	9.35220924671708	319.134652790449
16-10-2017 00:00:00.00	0.1851	3.0542	19.5685	9.35905297959867	318.679022253506
16-10-2017 01:00:00.00	0.1848	3.0518	19.5756	9.36609508154929	318.187636282192
16-10-2017 02:00:00.00	0.1837	3.0519	19.5798	9.37026083199895	316.292622088048
16-10-2017 03:00:00.00	0.1846	3.0515	19.5842	9.37462495151765	317.846413203953
16-10-2017 04:00:00.00	0.1841	3.0508	19.5905	9.38087357719214	316.992804797105
16-10-2017 05:00:00.00	0.1832	3.0493	19.5993	9.38960181622953	315.458700627334
16-10-2017 06:00:00.00	0.1849	3.0489	19.5985	9.38880833995341	318.390180674632
16-10-2017 07:00:00.00	0.1837	3.0483	19.6051	9.39535451923145	316.330072470238
16-10-2017 08:00:00.00	0.1843	3.0463	19.605	9.39525533469694	317.384145702709
16-10-2017 09:00:00.00	0.1853	3.0454	19.6074	9.39763576352531	319.115698539442
16-10-2017 10:00:00.00	0.1843	3.0448	19.607	9.39723902538725	317.399805681742
16-10-2017 11:00:00.00	0.184	3.0451	19.6082	9.39842923980144	316.88002135358
16-10-2017 12:00:00.00	0.1841	3.0453	19.6068	9.39704065631822	317.050152977129
16-10-2017 13:00:00.00	0.185	3.0451	19.6061	9.39634636457661	318.602195382676
16-10-2017 14:00:00.00	0.1831	3.0437	19.6085	9.39872679340499	315.344586639995
16-10-2017 15:00:00.00	0.184	3.0415	19.6001	9.39039529250566	316.917549679625
16-10-2017 16:00:00.00	0.1834	3.0398	19.6019	9.39218061412695	315.901789888518
16-10-2017 17:00:00.00	0.1848	3.0369	19.5989	9.38920507809147	318.34362641521
16-10-2017 18:00:00.00	0.1834	3.0351	19.5937	9.38404748229665	315.950644236973
16-10-2017 19:00:00.00	0.1839	3.0334	19.5914	9.38176623800279	316.829737215317
16-10-2017 20:00:00.00	0.185	3.0313	19.587	9.37740211848409	318.74688435689
16-10-2017 21:00:00.00	0.184	3.0301	19.5892	9.37958417824344	317.036448043559
16-10-2017 22:00:00.00	0.1839	3.0287	19.5855	9.37591435046635	316.878745391753
16-10-2017 23:00:00.00	0.1837	3.0275	19.5865	9.37690619581151	316.546626223829
17-10-2017 00:00:00.00	0.1846	3.0273	19.5823	9.37274044536185	318.099574575421
17-10-2017 01:00:00.00	0.1847	3.028	19.5885	9.37888988650183	318.264560388245
17-10-2017 02:00:00.00	0.1846	3.0299	19.5883	9.3786915174328	318.072356085138
17-10-2017 03:00:00.00	0.1853	3.0316	19.585	9.37541842779378	319.260619283589
17-10-2017 04:00:00.00	0.1851	3.0325	19.5835	9.37393065977604	318.90658629968
17-10-2017 05:00:00.00	0.1848	3.0342	19.5936	9.38394829776213	318.371909453789
17-10-2017 06:00:00.00	0.1849	3.0342	19.5948	9.38513851217632	318.544188625571
17-10-2017 07:00:00.00	0.185	3.0337	19.5962	9.38652709565955	318.721711617598
17-10-2017 08:00:00.00	0.1846	3.0336	19.5929	9.38325400602052	318.033630109591
17-10-2017 09:00:00.00	0.1861	3.0327	19.5953	9.3856344348489	320.62736420686
17-10-2017 10:00:00.00	0.1834	3.0318	19.6023	9.39257735226501	315.984955256772
17-10-2017 11:00:00.00	0.1861	3.0308	19.6005	9.39079203064373	320.647412108322
17-10-2017 12:00:00.00	0.1842	3.0297	19.6061	9.39634636457661	317.385230907318
17-10-2017 13:00:00.00	0.1841	3.0291	19.6062	9.39644554911113	317.219190068934
17-10-2017 14:00:00.00	0.1857	3.0286	19.6061	9.39634636457661	319.981384906314
17-10-2017 15:00:00.00	0.1851	3.0285	19.6087	9.39892516247402	318.948569069381
17-10-2017 16:00:00.00	0.1851	3.0287	19.6047	9.39495778109339	318.946469668372
17-10-2017 17:00:00.00	0.186	3.0288	19.6103	9.40051211502627	320.496208081853
17-10-2017 18:00:00.00	0.1851	3.0293	19.6088	9.39902434700854	318.940171631166
17-10-2017 19:00:00.00	0.1857	3.0297	19.6072	9.39743739445628	319.96980119158
17-10-2017 20:00:00.00	0.1854	3.0303	19.6113	9.40150396037143	319.446579305206
17-10-2017 21:00:00.00	0.1857	3.0308	19.6005	9.39079203064373	319.958218315504
17-10-2017 22:00:00.00	0.185	3.0312	19.6092	9.3994210851466	318.747933307319
17-10-2017 23:00:00.00	0.1848	3.0314	19.606	9.3962471800421	318.401245321026
18-10-2017 00:00:00.00	0.1851	3.0315	19.6042	9.39446185842081	318.917080955921
18-10-2017 01:00:00.00	0.1863	3.0326	19.6024	9.39267653679952	320.972995782074
18-10-2017 02:00:00.00	0.1855	3.0323	19.6012	9.39148632238533	319.597844949147
18-10-2017 03:00:00.00	0.1861	3.032	19.6026	9.39287490586856	320.634749984149
18-10-2017 04:00:00.00	0.1862	3.0308	19.5984	9.38870915541889	320.819710556526
18-10-2017 05:00:00.00	0.1853	3.03	19.5918	9.38216297614085	319.277430204369
18-10-2017 06:00:00.00	0.1855	3.0288	19.5909	9.38127031533021	319.634659135396
18-10-2017 07:00:00.00	0.1847	3.0272	19.5832	9.37363310617249	318.272940396697
18-10-2017 08:00:00.00	0.1851	3.0279	19.5805	9.37095512374056	318.954867438239
18-10-2017 09:00:00.00	0.185	3.0276	19.5815	9.37194696908572	318.78570012129
18-10-2017 10:00:00.00	0.1853	3.0257	19.5679	9.35845787239157	319.322618327598
18-10-2017 11:00:00.00	0.1848	3.0266	19.5685	9.35905297959867	318.451547958855
18-10-2017 12:00:00.00	0.1852	3.0247	19.5607	9.35131658590644	319.160795983579
18-10-2017 13:00:00.00	0.1854	3.0226	19.5587	9.34933289521612	319.527548703564
18-10-2017 14:00:00.00	0.1859	3.0218	19.5657	9.35627581263222	320.397710936737
18-10-2017 15:00:00.00	0.1852	3.0203	19.5649	9.3554823363561	319.207026318878
18-10-2017 16:00:00.00	0.1851	3.0198	19.5625	9.35310190752772	319.039919770854
18-10-2017 17:00:00.00	0.1867	3.0187	19.5659	9.35647418170126	321.809346939554
18-10-2017 18:00:00.00	0.1858	3.0187	19.574	9.36450812899704	320.258043178196
18-10-2017 19:00:00.00	0.1866	3.0183	19.5703	9.36083830121995	321.641215498356
18-10-2017 20:00:00.00	0.1846	3.0159	19.5721	9.36262362284124	318.218972197884
18-10-2017 21:00:00.00	0.1859	3.0145	19.5744	9.3649048671351	320.47472322422
18-10-2017 22:00:00.00	0.1853	3.0191	19.5805	9.37095512374056	319.39200173137
18-10-2017 23:00:00.00	0.1861	3.0116	19.5737	9.36421057539349	320.850142191266
19-10-2017 00:00:00.00	0.1868	3.0117	19.5796	9.37006246292992	322.055933357317
19-10-2017 01:00:00.00	0.1854	3.0105	19.5797	9.37016164746444	319.654869292796
19-10-2017 02:00:00.00	0.185	3.0086	19.5817	9.37214533815476	318.985173327749
19-10-2017 03:00:00.00	0.1848	3.0083	19.5803	9.37075675467153	318.643472663468
19-10-2017 04:00:00.00	0.1852	3.0083	19.5821	9.37254207629282	319.333177149752
19-10-2017 05:00:00.00	0.1852	3.0087	19.578	9.36847551037767	319.328970515642
19-10-2017 06:00:00.00	0.186	3.0086	19.5775	9.36797958770509	320.7094175079
19-10-2017 07:00:00.00	0.1867	3.0082	19.5836	9.37402984431055	321.920629167057
19-10-2017 08:00:00.00	0.1844	3.0084	19.5786	9.36907061758476	317.952721051112
19-10-2017 09:00:00.00	0.1866	3.0085	19.5784	9.36887224851573	321.74502362093
19-10-2017 10:00:00.00	0.1858	3.0086	19.5766	9.36708692689445	320.364568671869
19-10-2017 11:00:00.00	0.1857	3.0083	19.5731	9.36361546818639	320.195307757608
19-10-2017 12:00:00.00	0.1863	3.0082	19.5763	9.3667893732909	321.230922409335
19-10-2017 13:00:00.00	0.1871	3.0081	19.5723	9.36282199191027	322.611398396954
19-10-2017 14:00:00.00	0.1854	3.0078	19.5748	9.36530160527316	319.683293520061
19-10-2017 15:00:00.00	0.1853	3.0077	19.5822	9.37264126082733	319.511916837514
19-10-2017 16:00:00.00	0.1852	3.0074	19.5808	9.37125267734411	319.342642481738
19-10-2017 17:00:00.00	0.186	3.0077	19.581	9.37145104641314	320.718923539005
19-10-2017 18:00:00.00	0.1869	3.0089	19.5766	9.36708692689445	322.258053386521
19-10-2017 19:00:00.00	0.1864	3.0074	19.5695	9.36004482494383	321.411817271036
19-10-2017 20:00:00.00	0.1862	3.0072	19.5739	9.36440894446252	321.069069647365
19-10-2017 21:00:00.00	0.1863	3.0064	19.5634	9.35399456833836	321.249966202365
19-10-2017 22:00:00.00	0.1852	2.999	19.5663	9.35687091983932	319.431012646329
19-10-2017 23:00:00.00	0.1865	2.9993	19.5698	9.36034237854737	321.670059897725
20-10-2017 00:00:00.00	0.1865	3.0052	19.5727	9.36321873004833	321.607550772779
20-10-2017 01:00:00.00	0.1876	3.0036	19.5775	9.36797958770509	323.521480964072
20-10-2017 02:00:00.00	0.1857	2.9969	19.569	9.35954890227124	320.315567238248
20-10-2017 03:00:00.00	0.1864	3.0005	19.5816	9.37204615362024	321.484873783124
20-10-2017 04:00:00.00	0.1875	3.0083	19.5842	9.37462495151765	323.298977945889
20-10-2017 05:00:00.00	0.1873	3.0081	19.5889	9.37928662463989	322.956252911542
20-10-2017 06:00:00.00	0.1865	3.0053	19.5949	9.38523769671084	321.606491505459
20-10-2017 07:00:00.00	0.1864	3.0035	19.5919	9.38226216067537	321.453106001835
20-10-2017 08:00:00.00	0.1864	3.0036	19.5928	9.38315482148601	321.452047183918
20-10-2017 09:00:00.00	0.1856	3.0044	19.5916	9.38196460707182	320.063990724766
20-10-2017 10:00:00.00	0.1869	3.0046	19.6015	9.39178387598889	322.303695062697
20-10-2017 11:00:00.00	0.1869	3.0043	19.6015	9.39178387598889	322.306879848151
20-10-2017 12:00:00.00	0.1868	3.0054	19.6043	9.39456104295532	322.122760018164
20-10-2017 13:00:00.00	0.1864	3.0063	19.6031	9.39337082854114	321.423461736546
20-10-2017 14:00:00.00	0.1864	3.0079	19.6031	9.39337082854114	321.406524611075
20-10-2017 15:00:00.00	0.1864	3.0087	19.6044	9.39466022748984	321.398056717687
20-10-2017 16:00:00.00	0.1861	3.0091	19.613	9.4031900974582	320.876558201826
20-10-2017 17:00:00.00	0.1856	3.0093	19.6089	9.39912353154305	320.012342545005
20-10-2017 18:00:00.00	0.1858	3.0091	19.6121	9.40229743664756	320.359293465338
20-10-2017 19:00:00.00	0.1855	3.0089	19.6101	9.40031374595724	319.844135383626
20-10-2017 20:00:00.00	0.1867	3.0088	19.6138	9.40398357373433	321.914268109376
20-10-2017 21:00:00.00	0.1857	3.0083	19.6195	9.40963709220173	320.195307757608
20-10-2017 22:00:00.00	0.1872	3.008	19.6214	9.41152159835753	322.784888701287
20-10-2017 23:00:00.00	0.1865	3.0074	19.6224	9.41251344370269	321.584248503478
21-10-2017 00:00:00.00	0.1861	3.0071	19.6298	9.41985309925685	320.897694142286
21-10-2017 01:00:00.00	0.186	3.0066	19.6277	9.41777022403203	320.730542786782
21-10-2017 02:00:00.00	0.1859	3.0059	19.6299	9.41995228379137	320.565497540673
21-10-2017 03:00:00.00	0.1863	3.0055	19.6381	9.42808541562167	321.259488945647
21-10-2017 04:00:00.00	0.1866	3.0049	19.6347	9.42471314144813	321.783174047501
21-10-2017 05:00:00.00	0.1866	3.0044	19.6315	9.42153923634362	321.788473433413
21-10-2017 06:00:00.00	0.1872	3.0039	19.6342	9.42421721877555	322.828479659452
21-10-2017 07:00:00.00	0.1865	3.0032	19.6361	9.42610172493135	321.628737584613
21-10-2017 08:00:00.00	0.1864	3.0027	19.6384	9.42838296922522	321.461576796283
21-10-2017 09:00:00.00	0.1865	3.0022	19.6344	9.42441558784458	321.639332037371
21-10-2017 10:00:00.00	0.1865	3.0013	19.6386	9.42858133829425	321.648867641629
21-10-2017 11:00:00.00	0.187	3.001	19.636	9.42600254039684	322.51438422777
21-10-2017 12:00:00.00	0.1867	3.0003	19.6384	9.42838296922522	322.00440654493
21-10-2017 13:00:00.00	0.1877	3	19.6413	9.43125932072618	323.732321490169
21-10-2017 14:00:00.00	0.1875	2.9995	19.6442	9.43413567222713	323.392701621767
21-10-2017 15:00:00.00	0.1863	2.999	19.6464	9.43631773198648	321.328281079973
21-10-2017 16:00:00.00	0.1871	2.9985	19.6545	9.44435167928226	322.71342831963
21-10-2017 17:00:00.00	0.1867	2.9978	19.6486	9.43849979174583	322.030927457005
21-10-2017 18:00:00.00	0.1869	2.9972	19.6467	9.43661528559003	322.382271479611
21-10-2017 19:00:00.00	0.1866	2.9963	19.6472	9.43711120826261	321.874347809865
21-10-2017 20:00:00.00	0.1861	2.9958	19.6479	9.43780550000422	321.017164534217
21-10-2017 21:00:00.00	0.1875	2.995	19.6518	9.44167369685034	323.440649503324
21-10-2017 22:00:00.00	0.1872	2.9945	19.6479	9.43780550000422	322.928464358711
21-10-2017 23:00:00.00	0.187	2.9938	19.6501	9.43998755976356	322.590895505081
22-10-2017 00:00:00.00	0.1867	2.9936	19.6519	9.44177288138485	322.075492425309
22-10-2017 01:00:00.00	0.188	2.9928	19.6546	9.44445086381677	324.326666787197
22-10-2017 02:00:00.00	0.1871	2.9939	19.6558	9.44564107823096	322.762340531727
22-10-2017 03:00:00.00	0.1884	2.9907	19.6542	9.44405412567871	325.039214756325
22-10-2017 04:00:00.00	0.1881	2.9916	19.6523	9.44216961952291	324.512012258101
22-10-2017 05:00:00.00	0.1882	2.9914	19.6536	9.44345901847162	324.686673047456
22-10-2017 06:00:00.00	0.188	2.9909	19.6508	9.44068185150518	324.346972658361
22-10-2017 07:00:00.00	0.186	2.9885	19.6497	9.4395908216255	320.921853199474
22-10-2017 08:00:00.00	0.1878	2.988	19.6475	9.43740876186616	324.032887785237
22-10-2017 09:00:00.00	0.1869	2.9874	19.6525	9.44236798859194	322.486391126058
22-10-2017 10:00:00.00	0.1876	2.9874	19.6496	9.43949163709098	323.694205325032
22-10-2017 11:00:00.00	0.1869	2.9872	19.6522	9.4420704349884	322.488516717087
22-10-2017 12:00:00.00	0.1874	2.987	19.6499	9.43978919069453	323.353378136929
22-10-2017 13:00:00.00	0.1868	2.9865	19.6465	9.436416916521	322.323406502875
22-10-2017 14:00:00.00	0.1864	2.986	19.6461	9.43602017838293	321.638506617229
22-10-2017 15:00:00.00	0.1876	2.9852	19.6445	9.43443322583068	323.717675944526
22-10-2017 16:00:00.00	0.1882	2.985	19.6431	9.43304464234746	324.755161010054
22-10-2017 17:00:00.00	0.1872	2.9847	19.6428	9.43274708874391	323.032769690042
22-10-2017 18:00:00.00	0.1878	2.9844	19.6403	9.43026747538102	324.071335452072
22-10-2017 19:00:00.00	0.188	2.9842	19.6416	9.43155687432972	324.418597869032
22-10-2017 20:00:00.00	0.1868	2.9842	19.6338	9.42382048063749	322.347840861358
22-10-2017 21:00:00.00	0.1873	2.9838	19.6325	9.42253108168878	323.214917488391
22-10-2017 22:00:00.00	0.1881	2.9834	19.6281	9.41816696217009	324.599719881313
22-10-2017 23:00:00.00	0.1881	2.983	19.6247	9.41479468799655	324.603999514733
23-10-2017 00:00:00.00	0.1875	2.9824	19.6301	9.4201506528604	323.574979242881
23-10-2017 01:00:00.00	0.1883	2.9822	19.6207	9.41082730661592	324.957708039978
23-10-2017 02:00:00.00	0.1876	2.9814	19.6187	9.4088436159256	323.758224123322
23-10-2017 03:00:00.00	0.1878	2.9814	19.6273	9.41737348589396	324.103382144775
23-10-2017 04:00:00.00	0.1882	2.9812	19.6199	9.41003383033979	324.795839410168
23-10-2017 05:00:00.00	0.1875	2.981	19.627	9.41707593229041	323.589911657365
23-10-2017 06:00:00.00	0.188	2.9807	19.6222	9.41231507463365	324.456026604152
23-10-2017 07:00:00.00	0.1882	2.9804	19.6209	9.41102567568495	324.804404582441
23-10-2017 08:00:00.00	0.1878	2.9802	19.6231	9.4132077354443	324.116202596581
23-10-2017 09:00:00.00	0.1878	2.9797	19.6236	9.41370365811688	324.121544750856
23-10-2017 10:00:00.00	0.1883	2.9795	19.6279	9.41796859310106	324.98663076108
23-10-2017 11:00:00.00	0.1882	2.9792	19.6265	9.41658000961784	324.817253187904
23-10-2017 12:00:00.00	0.1888	2.9791	19.6267	9.41677837868687	325.853876524612
23-10-2017 13:00:00.00	0.189	2.9788	19.6282	9.4182661467046	326.202286702193
23-10-2017 14:00:00.00	0.1875	2.9787	19.6353	9.42530824865523	323.614446473368
23-10-2017 15:00:00.00	0.1875	2.9783	19.6254	9.41548897973816	323.618713777681
23-10-2017 16:00:00.00	0.1878	2.978	19.6367	9.42669683213845	324.139709392699
23-10-2017 17:00:00.00	0.1872	2.978	19.6299	9.41995228379137	323.104119266844
23-10-2017 18:00:00.00	0.1873	2.9776	19.6283	9.41836533123912	323.280980570416
23-10-2017 19:00:00.00	0.1879	2.9775	19.6295	9.41955554565331	324.317653521216
23-10-2017 20:00:00.00	0.1877	2.9772	19.6275	9.41757185496299	323.975655257592
23-10-2017 21:00:00.00	0.188	2.977	19.6164	9.40656237163174	324.495603516082
23-10-2017 22:00:00.00	0.1878	2.9769	19.6174	9.4075542169769	324.151464069441
23-10-2017 23:00:00.00	0.1883	2.9768	19.616	9.40616563349367	325.01555863115
24-10-2017 00:00:00.00	0.188	2.9767	19.6148	9.40497541907948	324.498812878053
24-10-2017 01:00:00.00	0.1877	2.9766	19.6077	9.39793331712886	323.982063717761
24-10-2017 02:00:00.00	0.1872	2.9763	19.6061	9.39634636457661	323.122227904287
24-10-2017 03:00:00.00	0.1877	2.9763	19.6083	9.39852842433596	323.98526804292
24-10-2017 04:00:00.00	0.1879	2.9761	19.6092	9.3994210851466	324.3326226266
24-10-2017 05:00:00.00	0.1875	2.9761	19.6036	9.39386675121371	323.642185963212
24-10-2017 06:00:00.00	0.1885	2.9757	19.6037	9.39396593574823	325.372568420457
24-10-2017 07:00:00.00	0.1885	2.9756	19.6026	9.39287490586856	325.373641137833
24-10-2017 08:00:00.00	0.1883	2.9756	19.5987	9.38900670902244	325.028417115406
24-10-2017 09:00:00.00	0.1877	2.9755	19.5969	9.38722138740116	323.993813219897
24-10-2017 10:00:00.00	0.1881	2.9753	19.592	9.38236134520988	324.686404458488
24-10-2017 11:00:00.00	0.1897	2.9752	19.5834	9.37383147524152	327.449303528968
24-10-2017 12:00:00.00	0.1889	2.975	19.5857	9.37611271953539	326.070539293744
24-10-2017 13:00:00.00	0.1888	2.9749	19.585	9.37541842779378	325.898998342179
24-10-2017 14:00:00.00	0.1881	2.9747	19.5887	9.37908825557086	324.692827380088
24-10-2017 15:00:00.00	0.1884	2.9746	19.5882	9.37859233289828	325.211750998412
24-10-2017 16:00:00.00	0.1886	2.9744	19.5831	9.37353392163798	325.559133138564
24-10-2017 17:00:00.00	0.1888	2.9744	19.5889	9.37928662463989	325.904370819517
24-10-2017 18:00:00.00	0.1879	2.974	19.5808	9.37125267734411	324.355078875767
24-10-2017 19:00:00.00	0.1885	2.974	19.5779	9.36837632584315	325.390805577872
24-10-2017 20:00:00.00	0.1886	2.9735	19.578	9.36847551037767	325.568793799554
24-10-2017 21:00:00.00	0.1885	2.9737	19.5804	9.37085593920605	325.394024111991
24-10-2017 22:00:00.00	0.1898	2.9731	19.5699	9.36044156308189	327.64460248415
24-10-2017 23:00:00.00	0.1873	2.973	19.5691	9.35964808680576	323.330012568958
25-10-2017 00:00:00.00	0.1891	2.9728	19.5661	9.35667255077029	326.439447778389
25-10-2017 01:00:00.00	0.1889	2.9724	19.5674	9.35796194971899	326.098492724085
25-10-2017 02:00:00.00	0.1887	2.972	19.5593	9.34992800242321	325.757528675985
25-10-2017 03:00:00.00	0.1889	2.9718	19.5595	9.35012637149224	326.104944196349
25-10-2017 04:00:00.00	0.1884	2.9716	19.5553	9.34596062104258	325.243920856208
25-10-2017 05:00:00.00	0.1873	2.9714	19.5519	9.34258834686904	323.347070663713
25-10-2017 06:00:00.00	0.1883	2.9709	19.5446	9.33534787584939	325.078789309911
25-10-2017 07:00:00.00	0.1876	2.9729	19.5416	9.33237233981391	323.848960780596
25-10-2017 08:00:00.00	0.1886	2.9715	19.543	9.33376092329714	325.59026398793
25-10-2017 09:00:00.00	0.1873	2.9713	19.5414	9.33217397074488	323.348136854397
25-10-2017 10:00:00.00	0.1888	2.9706	19.5383	9.32909925017489	325.945207436675
25-10-2017 11:00:00.00	0.1884	2.9696	19.5409	9.33167804807231	325.26537096412
25-10-2017 12:00:00.00	0.1879	2.9692	19.5342	9.32503268425974	324.406419124254
25-10-2017 13:00:00.00	0.1884	2.9687	19.5378	9.32860332750231	325.275024435768
25-10-2017 14:00:00.00	0.1879	2.9688	19.5382	9.32900006564038	324.410698211933
25-10-2017 15:00:00.00	0.1889	2.9684	19.5362	9.32701637495006	326.141507361475
25-10-2017 16:00:00.00	0.1891	2.9682	19.5367	9.32751229762264	326.488966658449
25-10-2017 17:00:00.00	0.1882	2.968	19.5373	9.32810740482973	324.937222542977
25-10-2017 18:00:00.00	0.1889	2.9675	19.5304	9.32126367194815	326.15118721881
25-10-2017 19:00:00.00	0.1884	2.9672	19.5293	9.32017264206847	325.291114828592
25-10-2017 20:00:00.00	0.1885	2.9669	19.5243	9.31521341534268	325.4669946338
25-10-2017 21:00:00.00	0.1877	2.9677	19.5248	9.31570933801526	324.077152324221
25-10-2017 22:00:00.00	0.1881	2.9661	19.5217	9.31263461744527	324.784917188738
25-10-2017 23:00:00.00	0.1892	2.9661	19.5188	9.30975826594431	326.684244189842
26-10-2017 00:00:00.00	0.1887	2.9654	19.5163	9.30727865258142	325.828435632929
26-10-2017 01:00:00.00	0.1883	2.9648	19.5156	9.30658436083981	325.144189274462
26-10-2017 02:00:00.00	0.1891	2.9645	19.5117	9.30271616399369	326.528807965231
26-10-2017 03:00:00.00	0.1879	2.9642	19.5116	9.30261697945917	324.459915835202
26-10-2017 04:00:00.00	0.1885	2.9637	19.5094	9.30043491969982	325.501345028542
26-10-2017 05:00:00.00	0.1899	2.9634	19.5109	9.30192268771756	327.922106291176
26-10-2017 06:00:00.00	0.1879	2.9632	19.5189	9.30985745047882	324.470617294729
26-10-2017 07:00:00.00	0.1886	2.9628	19.5129	9.30390637840788	325.683692268076
26-10-2017 08:00:00.00	0.1885	2.9625	19.5156	9.30658436083981	325.514228295993
26-10-2017 09:00:00.00	0.1888	2.9621	19.5191	9.31005581954786	326.036589559877
26-10-2017 10:00:00.00	0.1899	2.9616	19.5201	9.31104766489302	327.941575490044
26-10-2017 11:00:00.00	0.1885	2.9613	19.5214	9.31233706384172	325.527112583319
26-10-2017 12:00:00.00	0.1896	2.961	19.5247	9.31561015348074	327.429980324843
26-10-2017 13:00:00.00	0.1904	2.9606	19.5288	9.31967671939589	328.815879789888
26-10-2017 14:00:00.00	0.1898	2.96	19.5418	9.33257070888295	327.786182551689
26-10-2017 15:00:00.00	0.1884	2.9598	19.5423	9.33306663155553	325.370517403713
26-10-2017 16:00:00.00	0.1882	2.9594	19.5465	9.33723238200519	325.029402035361
26-10-2017 17:00:00.00	0.1904	2.959	19.5561	9.34675409731871	328.833234401276
26-10-2017 18:00:00.00	0.1894	2.9585	19.5632	9.35379619926933	327.111564300522
26-10-2017 19:00:00.00	0.1906	2.9581	19.5649	9.3554823363561	329.18842049161
26-10-2017 20:00:00.00	0.1888	2.9576	19.5717	9.36222688470317	326.084989078225
26-10-2017 21:00:00.00	0.1898	2.9572	19.5731	9.36361546818639	327.816459812984
26-10-2017 22:00:00.00	0.1885	2.9569	19.5738	9.364309759928	325.574363697723
26-10-2017 23:00:00.00	0.1893	2.9566	19.577	9.36748366503251	326.959347501756
27-10-2017 00:00:00.00	0.1875	2.9559	19.58	9.37045920106798	323.857862566779
27-10-2017 01:00:00.00	0.1889	2.9557	19.5864	9.376807011277	326.278154078148
27-10-2017 02:00:00.00	0.1884	2.9552	19.5812	9.37164941548217	325.419895301849
27-10-2017 03:00:00.00	0.1886	2.9547	19.5936	9.38394829776213	325.770725430777
27-10-2017 04:00:00.00	0.1886	2.9544	19.5946	9.38494014310729	325.77394977457
27-10-2017 05:00:00.00	0.1905	2.954	19.5967	9.38702301833212	329.060214391798
27-10-2017 06:00:00.00	0.1893	2.9534	19.5984	9.38870915541889	326.99386712897
27-10-2017 07:00:00.00	0.1891	2.9529	19.6034	9.39366838214468	326.653778899682
27-10-2017 08:00:00.00	0.1918	2.9525	19.6094	9.39961945421563	331.322166325282
27-10-2017 09:00:00.00	0.189	2.9519	19.6116	9.40180151397498	326.491809745656
27-10-2017 10:00:00.00	0.189	2.9515	19.6235	9.41360447358236	326.496118798981
27-10-2017 11:00:00.00	0.1892	2.9512	19.6246	9.41469550346203	326.844852621994
27-10-2017 12:00:00.00	0.1896	2.9508	19.634	9.42401884970652	327.540179471288
27-10-2017 13:00:00.00	0.1889	2.9504	19.6406	9.43056502898456	326.335213742828
27-10-2017 14:00:00.00	0.1891	2.9499	19.6507	9.44058266697066	326.686114539261
27-10-2017 15:00:00.00	0.1897	2.9495	19.6506	9.44048348243614	327.726990459897
27-10-2017 16:00:00.00	0.1891	2.9491	19.6579	9.4477239534558	326.694738457712
27-10-2017 17:00:00.00	0.1897	2.9485	19.6635	9.45327828738868	327.737804918607
27-10-2017 18:00:00.00	0.1892	2.9483	19.6743	9.46399021711639	326.876130342237
27-10-2017 19:00:00.00	0.1891	2.9477	19.6763	9.46597390780671	326.709831410643
27-10-2017 20:00:00.00	0.1897	2.9475	19.6893	9.47886789729376	327.748620091059
27-10-2017 21:00:00.00	0.1894	2.9473	19.6903	9.47985974263892	327.232463575131
27-10-2017 22:00:00.00	0.1896	2.9469	19.7031	9.49255536305694	327.582334044518
27-10-2017 23:00:00.00	0.1899	2.9494	19.7125	9.50187870930143	328.073594353223
28-10-2017 00:00:00.00	0.1897	2.9496	19.7111	9.5004901258182	327.725909053279
28-10-2017 01:00:00.00	0.1916	2.9461	19.7214	9.51070613287333	331.046583558654
28-10-2017 02:00:00.00	0.1901	2.9444	19.7309	9.52012866365233	328.473310653642
28-10-2017 03:00:00.00	0.1899	2.9427	19.7345	9.52369930689491	328.146141741819
28-10-2017 04:00:00.00	0.1886	2.9425	19.7387	9.52786505734457	325.901900244815
28-10-2017 05:00:00.00	0.1896	2.9442	19.7405	9.52965037896585	327.611524336681
28-10-2017 06:00:00.00	0.1906	2.9427	19.7433	9.5324275459323	329.35573784092
28-10-2017 07:00:00.00	0.1895	2.9421	19.7439	9.53302265313939	327.461428629367
28-10-2017 08:00:00.00	0.1896	2.9414	19.7479	9.53699003452003	327.641801246055
28-10-2017 09:00:00.00	0.1892	2.9412	19.753	9.54204844578033	326.952732104816
28-10-2017 10:00:00.00	0.1899	2.9411	19.7502	9.53927127881389	328.163471237509
28-10-2017 11:00:00.00	0.1885	2.9405	19.7559	9.54492479728129	325.750602400998
28-10-2017 12:00:00.00	0.1905	2.9404	19.7563	9.54532153541935	329.207928833852
28-10-2017 13:00:00.00	0.1903	2.9402	19.7524	9.54145333857324	328.864474690759
28-10-2017 14:00:00.00	0.1899	2.94	19.755	9.54403213647064	328.175386327581
28-10-2017 15:00:00.00	0.1889	2.9396	19.7562	9.54522235088483	326.451548057781
28-10-2017 16:00:00.00	0.1891	2.9393	19.7561	9.54512316635032	326.800418422052
28-10-2017 17:00:00.00	0.1897	2.9412	19.7474	9.53649411184744	327.816772094522
28-10-2017 18:00:00.00	0.1903	2.9398	19.7551	9.54413132100516	328.868816734836
28-10-2017 19:00:00.00	0.1898	2.9399	19.7493	9.53837861800325	328.003654147348
28-10-2017 20:00:00.00	0.1902	2.9406	19.7512	9.54026312415905	328.687321341073
28-10-2017 21:00:00.00	0.1905	2.9393	19.742	9.53113814698359	329.219882122692
28-10-2017 22:00:00.00	0.1903	2.9392	19.7459	9.53500634382971	328.875330015938
28-10-2017 23:00:00.00	0.1891	2.937	19.742	9.53113814698359	326.82523076955
29-10-2017 00:00:00.00	0.1901	2.9374	19.7447	9.53381612941552	328.549212057414
29-10-2017 01:00:00.00	0.1905	2.936	19.7436	9.53272509953584	329.255747197956
29-10-2017 02:00:00.00	0.1896	2.9356	19.7454	9.53451042115713	327.704535506821
29-10-2017 03:00:00.00	0.1892	2.9354	19.742	9.53113814698359	327.015334841406
29-10-2017 04:00:00.00	0.1898	2.9355	19.7486	9.53768432626163	328.051298373631
29-10-2017 05:00:00.00	0.1894	2.935	19.7444	9.53351857581197	327.365339892163
29-10-2017 06:00:00.00	0.1901	2.9346	19.7388	9.52796424187909	328.579582441551
29-10-2017 07:00:00.00	0.1891	2.9341	19.7424	9.53153488512165	326.856521274168
29-10-2017 08:00:00.00	0.19	2.9338	19.7421	9.53123733151811	328.415410509411
29-10-2017 09:00:00.00	0.1899	2.9338	19.7419	9.53103896244908	328.242560293353
29-10-2017 10:00:00.00	0.1892	2.9334	19.7448	9.53391531395003	327.036927550984
29-10-2017 11:00:00.00	0.1886	2.9331	19.7487	9.53778351079615	326.003041438979
29-10-2017 12:00:00.00	0.189	2.9327	19.7442	9.53332020674294	326.698772686054
29-10-2017 13:00:00.00	0.1905	2.9319	19.7434	9.53252673046681	329.300317723813
29-10-2017 14:00:00.00	0.1891	2.9317	19.7426	9.53173325419069	326.882421395625
29-10-2017 15:00:00.00	0.1898	2.9312	19.7451	9.53421286755358	328.097873151346
29-10-2017 16:00:00.00	0.1896	2.9309	19.7457	9.53480797476067	327.755389514721
29-10-2017 17:00:00.00	0.1895	2.9304	19.7423	9.53143570058714	327.58793082394
29-10-2017 18:00:00.00	0.19	2.9301	19.747	9.53609737370938	328.455532419417
29-10-2017 19:00:00.00	0.1897	2.9297	19.7484	9.5374859571926	327.941249662227
29-10-2017 20:00:00.00	0.1905	2.9295	19.7465	9.5356014510368	329.326413387283
29-10-2017 21:00:00.00	0.19	2.9289	19.7468	9.53589900464035	328.468547036151
29-10-2017 22:00:00.00	0.1905	2.9285	19.7389	9.5280634264136	329.337287801113
29-10-2017 23:00:00.00	0.1888	2.9284	19.7404	9.52955119443134	326.399397654806
30-10-2017 00:00:00.00	0.1906	2.9281	19.7364	9.52558381305071	329.514520517215
30-10-2017 01:00:00.00	0.1899	2.9284	19.7364	9.52558381305071	328.301089060634
30-10-2017 02:00:00.00	0.1898	2.9274	19.7392	9.52836098001715	328.139043266187
30-10-2017 03:00:00.00	0.1907	2.9297	19.728	9.51725231215138	329.669985822808
30-10-2017 04:00:00.00	0.1907	2.927	19.7231	9.5123922699601	329.699378827007
30-10-2017 05:00:00.00	0.1892	2.9267	19.7212	9.5105077638043	327.109283909541
30-10-2017 06:00:00.00	0.191	2.9296	19.7164	9.50574690614754	330.189696919742
30-10-2017 07:00:00.00	0.1923	2.9301	19.7121	9.50148197116336	332.43157307502
30-10-2017 08:00:00.00	0.1904	2.9256	19.7062	9.49563008362693	329.195930640354
30-10-2017 09:00:00.00	0.1902	2.9247	19.6971	9.48660429098599	328.859910640359
30-10-2017 10:00:00.00	0.1903	2.9239	19.6925	9.48204180239827	329.041505897269
30-10-2017 11:00:00.00	0.1903	2.9234	19.6892	9.47876871275924	329.046939315341
30-10-2017 12:00:00.00	0.1897	2.9236	19.683	9.47261927161927	328.007315272055
30-10-2017 13:00:00.00	0.1909	2.924	19.6777	9.46736249128993	330.077856184957
30-10-2017 14:00:00.00	0.1898	2.9226	19.6803	9.46994128918734	328.19106239251
30-10-2017 15:00:00.00	0.1911	2.9228	19.6792	9.46885025930767	330.436763740723
30-10-2017 16:00:00.00	0.1911	2.9225	19.6757	9.46537880059961	330.440037712701
30-10-2017 17:00:00.00	0.1906	2.9222	19.6774	9.46706493768638	329.578729562877
30-10-2017 18:00:00.00	0.1903	2.922	19.6713	9.46101468108091	329.062153840621
30-10-2017 19:00:00.00	0.1916	2.9227	19.6679	9.45764240690738	331.302422967129
30-10-2017 20:00:00.00	0.1912	2.9215	19.673	9.46270081816768	330.623871856274
30-10-2017 21:00:00.00	0.1908	2.9207	19.6703	9.46002283573576	329.940907894661
30-10-2017 22:00:00.00	0.1905	2.9206	19.6752	9.46488287792703	329.423220923524
30-10-2017 23:00:00.00	0.1919	2.9201	19.6693	9.4590309903906	331.84965927306
31-10-2017 00:00:00.00	0.191	2.9196	19.6692	9.45893180585608	330.298758166594
31-10-2017 01:00:00.00	0.1902	2.9195	19.669	9.45873343678705	328.916394277374
31-10-2017 02:00:00.00	0.1902	2.9196	19.6739	9.46359347897833	328.915307870608
31-10-2017 03:00:00.00	0.1899	2.9191	19.6755	9.46518043153058	328.401937547221
31-10-2017 04:00:00.00	0.1916	2.9188	19.6763	9.46597390780671	331.345101318622
31-10-2017 05:00:00.00	0.1899	2.9193	19.6761	9.46577553873768	328.399768110681
31-10-2017 06:00:00.00	0.191	2.9177	19.681	9.47063558092895	330.31948794876
31-10-2017 07:00:00.00	0.1905	2.9177	19.6861	9.47569399218925	329.454777247324
31-10-2017 08:00:00.00	0.191	2.9174	19.6929	9.48243854053633	330.322761310122
31-10-2017 09:00:00.00	0.1905	2.9169	19.6882	9.47777686741409	329.463483504057
31-10-2017 10:00:00.00	0.192	2.9167	19.6906	9.48015729624247	332.059877936518
31-10-2017 11:00:00.00	0.191	2.9164	19.697	9.48650510645148	330.333672983223
31-10-2017 12:00:00.00	0.1911	2.9161	19.6989	9.48838961260728	330.509897906686
31-10-2017 13:00:00.00	0.1915	2.9161	19.7057	9.49513416095435	331.201703030509
31-10-2017 14:00:00.00	0.1919	2.9157	19.705	9.49443986921274	331.897893679804
31-10-2017 15:00:00.00	0.1915	2.9158	19.7127	9.50207707837046	331.204985307816
31-10-2017 16:00:00.00	0.1909	2.9148	19.7073	9.49672111350661	330.178174451273
31-10-2017 17:00:00.00	0.1907	2.9152	19.7105	9.49989501861111	329.827898673549
31-10-2017 18:00:00.00	0.1913	2.9146	19.7141	9.50346566185368	330.872195365209
31-10-2017 19:00:00.00	0.1911	2.9147	19.7121	9.50148197116336	330.525183761884
31-10-2017 20:00:00.00	0.192	2.9139	19.7144	9.50376321545723	332.090593829698
31-10-2017 21:00:00.00	0.1915	2.914	19.7058	9.49523334548887	331.224680337915
31-10-2017 22:00:00.00	0.1913	2.9138	19.7006	9.49007574969405	330.880939974461
31-10-2017 23:00:00.00	0.1905	2.913	19.7026	9.49205944038436	329.505933095939
01-11-2017 00:00:00.00	0.1916	2.9129	19.6928	9.48233935600181	331.409686907963
01-11-2017 01:00:00.00	0.1921	2.9121	19.6947	9.48422386215761	332.283316898772
01-11-2017 02:00:00.00	0.1912	2.9116	19.6852	9.47480133137861	330.732013039144
01-11-2017 03:00:00.00	0.1915	2.9124	19.6822	9.47182579534314	331.242188997833
01-11-2017 04:00:00.00	0.1911	2.9114	19.671	9.46071712747737	330.561220301254
01-11-2017 05:00:00.00	0.1906	2.9107	19.6655	9.455261978079	329.703954736663
01-11-2017 06:00:00.00	0.1908	2.9111	19.66	9.44980682868063	330.045557184622
01-11-2017 07:00:00.00	0.191	2.9158	19.6499	9.43978919069453	330.340220333122
01-11-2017 08:00:00.00	0.191	2.9074	19.6451	9.43502833303777	330.43191049122
01-11-2017 09:00:00.00	0.192	2.9034	19.6453	9.4352267021068	332.2058290565
01-11-2017 10:00:00.00	0.1918	2.9162	19.6363	9.42630009400038	331.719461081438
01-11-2017 11:00:00.00	0.1928	2.8943	19.6295	9.41955554565331	333.69037164644
01-11-2017 12:00:00.00	0.1925	2.9002	19.6291	9.41915880751525	333.106175110161
01-11-2017 13:00:00.00	0.1918	2.8962	19.6208	9.41092649115043	331.938763632291
01-11-2017 14:00:00.00	0.1927	2.8871	19.6111	9.4013055913024	333.596696412863
01-11-2017 15:00:00.00	0.1905	2.8851	19.6032	9.39347001307565	329.809930277488
01-11-2017 16:00:00.00	0.1924	2.8869	19.5999	9.39019692343663	333.079547722985
01-11-2017 17:00:00.00	0.1917	2.8873	19.6013	9.39158550691985	331.863330544031
01-11-2017 18:00:00.00	0.1913	2.892	19.5946	9.38494014310729	331.119408616928
01-11-2017 19:00:00.00	0.1902	2.8944	19.5967	9.38702301833212	329.189309537365
01-11-2017 20:00:00.00	0.1909	2.8939	19.597	9.38732057193567	330.406298149816
01-11-2017 21:00:00.00	0.1918	2.8947	19.5949	9.38523769671084	331.955223013421
01-11-2017 22:00:00.00	0.1913	2.8945	19.5926	9.38295645241698	331.092043847802
01-11-2017 23:00:00.00	0.1914	2.8944	19.595	9.38533688124535	331.266213698484
02-11-2017 00:00:00.00	0.1913	2.8939	19.5918	9.38216297614085	331.098610979884
02-11-2017 01:00:00.00	0.1919	2.8933	19.5942	9.38454340496923	332.143668215788
02-11-2017 02:00:00.00	0.1918	2.8928	19.597	9.38732057193567	331.976073906251
02-11-2017 03:00:00.00	0.1917	2.8931	19.5961	9.38642791112503	331.79969870095
02-11-2017 04:00:00.00	0.1916	2.8939	19.5976	9.38791567914277	331.617845602435
02-11-2017 05:00:00.00	0.1919	2.8922	19.5932	9.38355155962407	332.155746877727
02-11-2017 06:00:00.00	0.1915	2.8921	19.5932	9.38355155962407	331.464490953365
02-11-2017 07:00:00.00	0.1919	2.8912	19.5882	9.37859233289828	332.16672824185
02-11-2017 08:00:00.00	0.1916	2.8918	19.5869	9.37730293394958	331.640868665058
02-11-2017 09:00:00.00	0.1924	2.8917	19.5918	9.38216297614085	333.026691448884
02-11-2017 10:00:00.00	0.1928	2.8907	19.5846	9.37502168965571	333.73008786362
02-11-2017 11:00:00.00	0.1919	2.8895	19.5872	9.37760048755312	332.185398227369
02-11-2017 12:00:00.00	0.1914	2.8889	19.5872	9.37760048755312	331.326454033674
02-11-2017 13:00:00.00	0.1912	2.8887	19.587	9.37740211848409	330.982429074161
02-11-2017 14:00:00.00	0.1912	2.8884	19.5881	9.37849314836377	330.985712150035
02-11-2017 15:00:00.00	0.1919	2.8883	19.5841	9.37452576698313	332.198578304338
02-11-2017 16:00:00.00	0.1919	2.888	19.5813	9.37174860001669	332.201873487001
02-11-2017 17:00:00.00	0.1918	2.888	19.5898	9.38017928545053	332.028761515408
02-11-2017 18:00:00.00	0.1912	2.8878	19.5875	9.37789804115667	330.99227849718
02-11-2017 19:00:00.00	0.1922	2.8877	19.5821	9.37254207629282	332.724509801325
02-11-2017 20:00:00.00	0.1901	2.8875	19.5768	9.36728529596348	329.091298599285
02-11-2017 21:00:00.00	0.1911	2.8872	19.5737	9.36421057539349	330.825728554079
02-11-2017 22:00:00.00	0.1915	2.8873	19.5685	9.35905297959867	331.517098587282
02-11-2017 23:00:00.00	0.1925	2.8874	19.5691	9.35964808680576	333.247156484244
03-11-2017 00:00:00.00	0.1908	2.8875	19.5737	9.36421057539349	330.303102434211
03-11-2017 01:00:00.00	0.1909	2.8875	19.5657	9.35627581263222	330.476217267772
03-11-2017 02:00:00.00	0.1935	2.8887	19.5659	9.35647418170126	334.963912269091
03-11-2017 03:00:00.00	0.1919	2.8874	19.5653	9.35587907449416	332.208464048448
03-11-2017 04:00:00.00	0.1903	2.8878	19.5631	9.35369701473481	329.434260449861
03-11-2017 05:00:00.00	0.1922	2.8885	19.5635	9.35409375287288	332.715708881372
03-11-2017 06:00:00.00	0.1913	2.8885	19.5604	9.35101903230289	331.157726893894
03-11-2017 07:00:00.00	0.1922	2.8884	19.5661	9.35667255077029	332.716808970904
03-11-2017 08:00:00.00	0.1905	2.8888	19.575	9.36549997434219	329.769582981521
03-11-2017 09:00:00.00	0.1918	2.8886	19.5823	9.37274044536185	332.022174649688
03-11-2017 10:00:00.00	0.1921	2.8884	19.5784	9.36887224851573	332.543699288817
03-11-2017 11:00:00.00	0.193	2.8882	19.5837	9.37412902884507	334.103895786451
03-11-2017 12:00:00.00	0.191	2.8899	19.5814	9.37184778455121	330.623095227985
03-11-2017 13:00:00.00	0.1916	2.89	19.5863	9.37670782674248	331.660605263295
03-11-2017 14:00:00.00	0.1917	2.8909	19.586	9.37641027313893	331.823832044589
03-11-2017 15:00:00.00	0.1926	2.8897	19.59	9.38037765451956	333.394917340823
03-11-2017 16:00:00.00	0.1919	2.89	19.5909	9.38127031533021	332.179906837298
03-11-2017 17:00:00.00	0.1925	2.8893	19.5951	9.38543606577987	333.226222019752
03-11-2017 18:00:00.00	0.1924	2.8886	19.5967	9.38702301833212	333.060825873827
03-11-2017 19:00:00.00	0.1915	2.8889	19.6047	9.39495778109339	331.499560853963
03-11-2017 20:00:00.00	0.1923	2.8892	19.6074	9.39763576352531	332.881113561587
03-11-2017 21:00:00.00	0.1935	2.8934	19.6096	9.39981782328466	334.911867293068
03-11-2017 22:00:00.00	0.193	2.8932	19.6129	9.40309091292368	334.048670579756
03-11-2017 23:00:00.00	0.1915	2.8889	19.6158	9.40596726442464	331.499560853963
04-11-2017 00:00:00.00	0.1936	2.8904	19.6192	9.40933953859818	335.118183858853
04-11-2017 01:00:00.00	0.1931	2.8899	19.6236	9.41370365811688	334.258218264523
04-11-2017 02:00:00.00	0.1939	2.8891	19.6313	9.42134086727459	335.651904982087
04-11-2017 03:00:00.00	0.1931	2.8889	19.6301	9.4201506528604	334.269269978591
04-11-2017 04:00:00.00	0.1923	2.8889	19.6326	9.4226302662233	332.884415416277
04-11-2017 05:00:00.00	0.1933	2.8886	19.6363	9.42630009400038	334.618802710035
04-11-2017 06:00:00.00	0.192	2.8886	19.6364	9.4263992785349	332.368391724401
04-11-2017 07:00:00.00	0.1922	2.8886	19.6365	9.42649846306942	332.714608799114
04-11-2017 08:00:00.00	0.1927	2.8883	19.6349	9.42491151051716	333.583460339999
04-11-2017 09:00:00.00	0.1923	2.8883	19.64	9.42996992177747	332.891019322168
04-11-2017 10:00:00.00	0.1941	2.8882	19.6467	9.43661528559003	336.008114881607
04-11-2017 11:00:00.00	0.1928	2.888	19.646	9.43592099384842	333.759881231339
04-11-2017 12:00:00.00	0.1933	2.8876	19.6437	9.43363974955455	334.629866821814
04-11-2017 13:00:00.00	0.1927	2.8872	19.6462	9.43611936291745	333.595593366672
04-11-2017 14:00:00.00	0.1919	2.8875	19.6432	9.43314382688197	332.207365603381
04-11-2017 15:00:00.00	0.1937	2.8873	19.6503	9.4401859288326	335.325650111522
04-11-2017 16:00:00.00	0.1926	2.8868	19.6514	9.44127695871227	333.426886754726
04-11-2017 17:00:00.00	0.1929	2.8866	19.6567	9.44653373904161	333.948451723917
04-11-2017 18:00:00.00	0.1928	2.8864	19.6585	9.44831906066289	333.777539070669
04-11-2017 19:00:00.00	0.1932	2.8861	19.6513	9.44117777417775	334.47334151385
04-11-2017 20:00:00.00	0.1915	2.886	19.6469	9.43681365465906	331.531349362023
04-11-2017 21:00:00.00	0.1926	2.8857	19.6527	9.44256635766098	333.439014688058
04-11-2017 22:00:00.00	0.1929	2.8855	19.6401	9.43006910631198	333.960598708772
04-11-2017 23:00:00.00	0.1936	2.8854	19.6449	9.43482996396874	335.173591007957
05-11-2017 00:00:00.00	0.1932	2.885	19.647	9.43691283919357	334.48550779211
05-11-2017 01:00:00.00	0.1936	2.8845	19.6421	9.4320527970023	335.183566240609
05-11-2017 02:00:00.00	0.1928	2.8844	19.6461	9.43602017838293	333.79961399745
05-11-2017 03:00:00.00	0.1915	2.8841	19.638	9.42798623108715	331.552179621432
05-11-2017 04:00:00.00	0.1935	2.8838	19.6327	9.42272945075781	335.018189150335
05-11-2017 05:00:00.00	0.193	2.8837	19.6283	9.41836533123912	334.153614086891
05-11-2017 06:00:00.00	0.1926	2.8842	19.6275	9.41757185496299	333.45555420088
05-11-2017 07:00:00.00	0.193	2.8831	19.6263	9.4163816405488	334.160244311653
05-11-2017 08:00:00.00	0.1918	2.8833	19.6194	9.40953790766721	332.080367673566
05-11-2017 09:00:00.00	0.1935	2.8825	19.6168	9.4069591097698	335.032592091759
05-11-2017 10:00:00.00	0.1918	2.8822	19.6129	9.40309091292368	332.092448027272
05-11-2017 11:00:00.00	0.1929	2.8822	19.6135	9.40368602013078	333.997044965906
05-11-2017 12:00:00.00	0.1941	2.8821	19.6011	9.39138713785082	336.075898508264
05-11-2017 13:00:00.00	0.1935	2.881	19.6021	9.39237898319598	335.049212409253
05-11-2017 14:00:00.00	0.1938	2.8807	19.6036	9.39386675121371	335.571997967798
05-11-2017 15:00:00.00	0.1932	2.8805	19.598	9.38831241728083	334.535288148386
05-11-2017 16:00:00.00	0.1935	2.8805	19.5915	9.3818654225373	335.054752881536
05-11-2017 17:00:00.00	0.1931	2.8799	19.5849	9.37531924325926	334.368768301647
05-11-2017 18:00:00.00	0.1932	2.8795	19.579	9.36946735572283	334.546352462072
05-11-2017 19:00:00.00	0.1932	2.8791	19.5718	9.36232606923769	334.550778392473
05-11-2017 20:00:00.00	0.1923	2.8785	19.5672	9.35776358064996	332.99892022113
05-11-2017 21:00:00.00	0.1936	2.8786	19.5613	9.35191169311353	335.248974139871
05-11-2017 22:00:00.00	0.1938	2.8783	19.5595	9.35012637149224	335.598635668597
05-11-2017 23:00:00.00	0.1937	2.878	19.557	9.34764675812935	335.428796449615
06-11-2017 00:00:00.00	0.1929	2.8778	19.5559	9.34655572824968	334.045652351676
06-11-2017 01:00:00.00	0.1928	2.8767	19.5499	9.34060465617873	333.884629733635
06-11-2017 02:00:00.00	0.1925	2.8765	19.5516	9.3422907932655	333.367305049181
06-11-2017 03:00:00.00	0.193	2.8766	19.549	9.33971199536808	334.232088614936
06-11-2017 04:00:00.00	0.1931	2.8764	19.5512	9.34189405512743	334.407478092414
06-11-2017 05:00:00.00	0.1934	2.8758	19.546	9.33673645933261	334.933660448411
06-11-2017 06:00:00.00	0.1933	2.8752	19.5405	9.33128130993424	334.767122619603
06-11-2017 07:00:00.00	0.1932	2.8752	19.5456	9.33633972119455	334.593937351823
06-11-2017 08:00:00.00	0.1931	2.8753	19.5372	9.32800822029522	334.419645877824
06-11-2017 09:00:00.00	0.1927	2.8737	19.5403	9.33108294086521	333.744570610592
06-11-2017 10:00:00.00	0.1932	2.8733	19.5447	9.3354470603839	334.614967545725
06-11-2017 11:00:00.00	0.1932	2.8728	19.5467	9.33743075107422	334.620502246668
06-11-2017 12:00:00.00	0.1924	2.8724	19.5507	9.34139813245485	333.239319662485
06-11-2017 13:00:00.00	0.1931	2.8721	19.5645	9.35508559821803	334.455048107055
06-11-2017 14:00:00.00	0.1919	2.8718	19.5663	9.35687091983932	332.379910480165
06-11-2017 15:00:00.00	0.1926	2.8713	19.5724	9.36292117644478	333.597861772808
06-11-2017 16:00:00.00	0.1928	2.8707	19.5794	9.36986409386089	333.95090578727
06-11-2017 17:00:00.00	0.1928	2.8705	19.5918	9.38216297614085	333.953115442205
06-11-2017 18:00:00.00	0.1929	2.8699	19.5882	9.37859233289828	334.132960217617
06-11-2017 19:00:00.00	0.1927	2.8695	19.5925	9.38285726788246	333.790946228045
06-11-2017 20:00:00.00	0.1933	2.8691	19.6007	9.39099039971276	334.834684944726
06-11-2017 21:00:00.00	0.1924	2.8687	19.6167	9.40685992523529	333.280113603481
06-11-2017 22:00:00.00	0.1939	2.8681	19.6203	9.41043056847785	335.885119043732
06-11-2017 23:00:00.00	0.1932	2.8679	19.6242	9.41429876532397	334.674752006788
07-11-2017 00:00:00.00	0.1941	2.8674	19.632	9.42203515901621	336.239358353445
07-11-2017 01:00:00.00	0.1932	2.867	19.6357	9.42570498679329	334.684718160648
07-11-2017 02:00:00.00	0.1937	2.8666	19.6365	9.42649846306942	335.555320495522
07-11-2017 03:00:00.00	0.1936	2.8661	19.6395	9.42947399910489	335.387634566276
07-11-2017 04:00:00.00	0.1938	2.866	19.6455	9.43542507117584	335.735220287693
07-11-2017 05:00:00.00	0.1942	2.8656	19.6467	9.43661528559003	336.43262505315
07-11-2017 06:00:00.00	0.1934	2.8651	19.6474	9.43730957733164	335.052246061884
07-11-2017 07:00:00.00	0.1936	2.865	19.6464	9.43631773198648	335.399842174971
07-11-2017 08:00:00.00	0.1929	2.8646	19.6578	9.44762476892128	334.191559433448
07-11-2017 09:00:00.00	0.1924	2.8641	19.6502	9.44008674429808	333.33084432443
07-11-2017 10:00:00.00	0.1938	2.8637	19.6553	9.44514515555839	335.760772840217
07-11-2017 11:00:00.00	0.1937	2.8632	19.6453	9.4352267021068	335.593074218288
07-11-2017 12:00:00.00	0.193	2.8628	19.6515	9.44137614324679	334.384722062538
07-11-2017 13:00:00.00	0.1927	2.8626	19.6503	9.4401859288326	333.867162728241
07-11-2017 14:00:00.00	0.1934	2.8621	19.6561	9.44593863183451	335.085509438522
07-11-2017 15:00:00.00	0.1937	2.8619	19.6582	9.44802150705935	335.607511710441
07-11-2017 16:00:00.00	0.1928	2.8613	19.651	9.44088022057421	334.05479118864
07-11-2017 17:00:00.00	0.1926	2.8611	19.6432	9.43314382688197	333.710470058573
07-11-2017 18:00:00.00	0.1942	2.8605	19.6467	9.43661528559003	336.489408770609
07-11-2017 19:00:00.00	0.1934	2.8604	19.6475	9.43740876186616	335.104361617181
07-11-2017 20:00:00.00	0.1928	2.8599	19.6407	9.43066421351908	334.070269012683
07-11-2017 21:00:00.00	0.1937	2.8593	19.6407	9.43066421351908	335.636390421745
07-11-2017 22:00:00.00	0.1939	2.8591	19.6351	9.42510987958619	335.985167164577
07-11-2017 23:00:00.00	0.1943	2.8587	19.6355	9.42550661772426	336.682734502167
08-11-2017 00:00:00.00	0.1935	2.8584	19.637	9.426994385742	335.299824930171
08-11-2017 01:00:00.00	0.1934	2.8577	19.6311	9.42114249820556	335.134307673084
08-11-2017 02:00:00.00	0.1934	2.8574	19.6375	9.42749030841457	335.137635343012
08-11-2017 03:00:00.00	0.1927	2.857	19.6306	9.42064657553298	333.92904518994
08-11-2017 04:00:00.00	0.192	2.8564	19.6323	9.42233271261975	332.722625575238
08-11-2017 05:00:00.00	0.1925	2.8563	19.6216	9.41171996742656	333.590194895176
08-11-2017 06:00:00.00	0.1932	2.8556	19.6216	9.41171996742656	334.81100750455
08-11-2017 07:00:00.00	0.193	2.8552	19.6234	9.41350528904784	334.468840605529
08-11-2017 08:00:00.00	0.1929	2.8551	19.6223	9.41241425916817	334.296647219521
08-11-2017 09:00:00.00	0.1928	2.8544	19.6301	9.4201506528604	334.131088637907
08-11-2017 10:00:00.00	0.1932	2.8549	19.6311	9.42114249820556	334.818765219242
08-11-2017 11:00:00.00	0.1931	2.8561	19.6422	9.43215198153682	334.632171744945
08-11-2017 12:00:00.00	0.1931	2.8531	19.6433	9.43324301141649	334.665403314879
08-11-2017 13:00:00.00	0.1934	2.8578	19.6564	9.44623618543806	335.133198464459
08-11-2017 14:00:00.00	0.1924	2.8545	19.6639	9.45367502552675	333.436766897285
08-11-2017 15:00:00.00	0.1932	2.8498	19.6655	9.455261978079	334.875296564835
08-11-2017 16:00:00.00	0.1925	2.8508	19.672	9.46170897282253	333.65093435781
08-11-2017 17:00:00.00	0.1928	2.8542	19.6767	9.46637064594477	334.133300677927
08-11-2017 18:00:00.00	0.1931	2.8527	19.6847	9.47430540870603	334.669834689567
08-11-2017 19:00:00.00	0.1924	2.852	19.6933	9.48283527867439	333.464361949567
08-11-2017 20:00:00.00	0.1932	2.8533	19.6963	9.48581081470987	334.836498488565
08-11-2017 21:00:00.00	0.1912	2.8527	19.6991	9.48858798167631	331.376863763051
08-11-2017 22:00:00.00	0.1923	2.852	19.7068	9.49622519083403	333.291043674126
08-11-2017 23:00:00.00	0.194	2.8529	19.7131	9.50247381650852	336.227436994228
09-11-2017 00:00:00.00	0.1921	2.8535	19.721	9.51030939473527	332.927875361231
09-11-2017 01:00:00.00	0.1932	2.8533	19.729	9.51824415749654	334.836498488565
09-11-2017 02:00:00.00	0.1925	2.8531	19.7333	9.52250909248072	333.625531528297
09-11-2017 03:00:00.00	0.1922	2.8533	19.7311	9.52032703272137	333.103390318334
09-11-2017 04:00:00.00	0.1925	2.8536	19.7411	9.53024548617295	333.620009685899
09-11-2017 05:00:00.00	0.1934	2.8535	19.7462	9.53530389743326	335.180901066435
09-11-2017 06:00:00.00	0.1933	2.8535	19.7483	9.53738677265809	335.007591396804
09-11-2017 07:00:00.00	0.1937	2.8541	19.7518	9.54085823136614	335.694162756835
09-11-2017 08:00:00.00	0.1935	2.8549	19.7535	9.54254436845291	335.338670134178
09-11-2017 09:00:00.00	0.1936	2.8556	19.7541	9.54313947566	335.504197996277
09-11-2017 10:00:00.00	0.1948	2.8553	19.7614	9.55037994667966	337.587121695981
09-11-2017 11:00:00.00	0.1934	2.8572	19.7581	9.54710685704064	335.139853826344
09-11-2017 12:00:00.00	0.1936	2.8546	19.757	9.54601582716096	335.515303501147
09-11-2017 13:00:00.00	0.1949	2.856	19.7615	9.55047913121417	337.75259527084
09-11-2017 14:00:00.00	0.1926	2.8552	19.7616	9.55057831574869	333.77564093588
09-11-2017 15:00:00.00	0.194	2.8542	19.7698	9.55871144757898	336.21296852447
09-11-2017 16:00:00.00	0.1935	2.8542	19.7644	9.55335548271513	335.346440255077
09-11-2017 17:00:00.00	0.1935	2.8544	19.7695	9.55841389397544	335.344220183792
09-11-2017 18:00:00.00	0.193	2.8541	19.7648	9.5537522208532	334.481019164012
09-11-2017 19:00:00.00	0.1944	2.8538	19.7661	9.5550416198019	336.910652022977
09-11-2017 20:00:00.00	0.1945	2.8544	19.7686	9.5575212331648	337.077265249341
09-11-2017 21:00:00.00	0.1945	2.854	19.7659	9.55484325073287	337.081728367932
09-11-2017 22:00:00.00	0.1944	2.8527	19.7683	9.55722367956125	336.92292006034
09-11-2017 23:00:00.00	0.1941	2.8523	19.7739	9.56277801349413	336.40743172372
10-11-2017 00:00:00.00	0.1943	2.8517	19.77	9.55890981664802	336.760753600199
10-11-2017 01:00:00.00	0.1935	2.8517	19.7764	9.56525762685703	335.374193626549
10-11-2017 02:00:00.00	0.1935	2.8511	19.777	9.56585273406412	335.380855119266
10-11-2017 03:00:00.00	0.1932	2.851	19.7745	9.56337312070123	334.861993354411
10-11-2017 04:00:00.00	0.1932	2.8507	19.7768	9.56565436499509	334.865319057925
10-11-2017 05:00:00.00	0.1934	2.8504	19.7792	9.56803479382347	335.215299739329
10-11-2017 06:00:00.00	0.1937	2.8498	19.7811	9.56991929997927	335.74195105905
10-11-2017 07:00:00.00	0.1941	2.8494	19.7766	9.56545599592606	336.439729951043
10-11-2017 08:00:00.00	0.1936	2.8492	19.7757	9.56456333511542	335.575285934064
10-11-2017 09:00:00.00	0.1939	2.8485	19.78	9.5688282700996	336.10307808191
10-11-2017 10:00:00.00	0.1927	2.8477	19.777	9.56585273406412	334.031864975826
10-11-2017 11:00:00.00	0.1934	2.8475	19.7795	9.56833234742702	335.247485535518
10-11-2017 12:00:00.00	0.1939	2.8472	19.7786	9.56743968661638	336.117544552302
10-11-2017 13:00:00.00	0.1938	2.8466	19.7818	9.57061359172088	335.950872541383
10-11-2017 14:00:00.00	0.1927	2.8458	19.7836	9.57239891334217	334.052878958548
10-11-2017 15:00:00.00	0.1929	2.8458	19.7855	9.57428341949797	334.399586668936
10-11-2017 16:00:00.00	0.1936	2.8454	19.7861	9.57487852670506	335.617508652292
10-11-2017 17:00:00.00	0.1942	2.8444	19.7833	9.57210135973862	336.668793008051
10-11-2017 18:00:00.00	0.1931	2.8437	19.7834	9.57220054427314	334.769571654618
10-11-2017 19:00:00.00	0.1934	2.8437	19.7842	9.57299402054926	335.289669383755
10-11-2017 20:00:00.00	0.1943	2.8424	19.7876	9.5763662947228	336.864463493324
10-11-2017 21:00:00.00	0.1929	2.8423	19.7935	9.58221818225923	334.438343742734
10-11-2017 22:00:00.00	0.1944	2.8416	19.7921	9.58082959877601	337.046765724202
10-11-2017 23:00:00.00	0.1922	2.8407	19.79	9.57874672355118	333.24238232101
11-11-2017 00:00:00.00	0.1934	2.84	19.7956	9.58430105748406	335.330753332501
11-11-2017 01:00:00.00	0.195	2.8401	19.8021	9.59074805222759	338.103828079162
11-11-2017 02:00:00.00	0.1935	2.8401	19.7988	9.58747496258857	335.50302940163
11-11-2017 03:00:00.00	0.1934	2.8389	19.8041	9.59273174291791	335.342969421073
11-11-2017 04:00:00.00	0.1944	2.8381	19.8061	9.59471543360822	337.085835041116
11-11-2017 05:00:00.00	0.1931	2.8377	19.8082	9.59679830883305	334.836095997006
11-11-2017 06:00:00.00	0.1937	2.8371	19.8112	9.59977384486853	335.883172722971
11-11-2017 07:00:00.00	0.1928	2.8362	19.8089	9.59749260057467	334.332504288144
11-11-2017 08:00:00.00	0.1941	2.8359	19.812	9.60056732114466	336.590165438835
11-11-2017 09:00:00.00	0.1941	2.8355	19.811	9.5995754757995	336.594624838758
11-11-2017 10:00:00.00	0.1947	2.8349	19.8167	9.6052289942669	337.64181281294
11-11-2017 11:00:00.00	0.1939	2.8344	19.8159	9.60443551799077	336.260050169514
11-11-2017 12:00:00.00	0.1927	2.8336	19.8123	9.6008648747482	334.187873867264
11-11-2017 13:00:00.00	0.194	2.8329	19.8141	9.60265019636949	336.450185887861
11-11-2017 14:00:00.00	0.1942	2.8325	19.8131	9.60165835102433	336.801504333805
11-11-2017 15:00:00.00	0.1936	2.832	19.8161	9.6046338870598	335.766484122546
11-11-2017 16:00:00.00	0.1952	2.8315	19.8142	9.602749380904	338.547021050705
11-11-2017 17:00:00.00	0.1937	2.8309	19.8126	9.60116242835175	335.952158747576
11-11-2017 18:00:00.00	0.1944	2.8302	19.8134	9.60195590462788	337.174053374306
11-11-2017 19:00:00.00	0.1935	2.8297	19.8089	9.59749260057467	335.618621522568
11-11-2017 20:00:00.00	0.1937	2.8292	19.8026	9.59124397490017	335.971079220974
11-11-2017 21:00:00.00	0.1945	2.8285	19.8046	9.59322766559049	337.366496315377
11-11-2017 22:00:00.00	0.1938	2.828	19.7976	9.58628474817438	336.157892217164
11-11-2017 23:00:00.00	0.1933	2.8276	19.7954	9.58410268841503	335.295055138604
12-11-2017 00:00:00.00	0.1941	2.8273	19.7926	9.58132552144859	336.686068584427
12-11-2017 01:00:00.00	0.1932	2.8266	19.7836	9.57239891334217	335.132699886273
12-11-2017 02:00:00.00	0.1948	2.8262	19.7773	9.56615028766767	337.912604212993
12-11-2017 03:00:00.00	0.1939	2.8258	19.772	9.56089350733833	336.355864018419
12-11-2017 04:00:00.00	0.1943	2.825	19.7603	9.54928891679998	337.05867301579
12-11-2017 05:00:00.00	0.1937	2.8247	19.7536	9.54264355298742	336.021173115662
12-11-2017 06:00:00.00	0.1945	2.8241	19.746	9.53510552836422	337.415681425888
12-11-2017 07:00:00.00	0.1936	2.8237	19.7398	9.52895608722424	335.858826322248
12-11-2017 08:00:00.00	0.1945	2.8233	19.7277	9.51695475854783	337.424625714119
12-11-2017 09:00:00.00	0.1947	2.8241	19.7213	9.51060694833882	337.762638424783
12-11-2017 10:00:00.00	0.195	2.8227	19.7122	9.50158115569788	338.298766977328
12-11-2017 11:00:00.00	0.1943	2.8217	19.7038	9.49324965479855	337.095531121248
12-11-2017 12:00:00.00	0.1942	2.8218	19.6963	9.48581081470987	336.920922369429
12-11-2017 13:00:00.00	0.1928	2.8209	19.6898	9.47936381996634	334.502014203531
12-11-2017 14:00:00.00	0.1942	2.8202	19.6853	9.47490051591313	336.938786550528
12-11-2017 15:00:00.00	0.1936	2.8192	19.6797	9.46934618198024	335.908912607328
12-11-2017 16:00:00.00	0.1938	2.819	19.6723	9.46200652642607	336.258154650643
12-11-2017 17:00:00.00	0.1937	2.8189	19.6622	9.45198888843998	336.0857606189
12-11-2017 18:00:00.00	0.1949	2.8216	19.662	9.45179051937095	338.137605384775
12-11-2017 19:00:00.00	0.1951	2.8177	19.6553	9.44514515555839	338.528340782374
12-11-2017 20:00:00.00	0.1932	2.817	19.6397	9.42967236817392	335.239327390528
12-11-2017 21:00:00.00	0.1944	2.8161	19.6358	9.4258041713278	337.331621155558
12-11-2017 22:00:00.00	0.1938	2.8161	19.6234	9.41350528904784	336.290474176683
12-11-2017 23:00:00.00	0.1946	2.8158	19.6139	9.40408275826884	337.682027705266
13-11-2017 00:00:00.00	0.1944	2.8163	19.6089	9.39912353154305	337.329385121931
13-11-2017 01:00:00.00	0.1937	2.8153	19.6031	9.39337082854114	336.125861903844
13-11-2017 02:00:00.00	0.1937	2.8149	19.5953	9.3856344348489	336.130318192898
13-11-2017 03:00:00.00	0.1948	2.8165	19.5875	9.37789804115667	338.021237902141
13-11-2017 04:00:00.00	0.1953	2.8124	19.5783	9.36877306398121	338.934905130506
13-11-2017 05:00:00.00	0.1954	2.8183	19.5782	9.3686738794467	339.042144864588
13-11-2017 06:00:00.00	0.1954	2.8138	19.5816	9.37204615362024	339.092714924477
13-11-2017 07:00:00.00	0.1937	2.8131	19.5719	9.3624252537722	336.150372955975
13-11-2017 08:00:00.00	0.1957	2.8147	19.5776	9.36807877223961	339.603197351088
13-11-2017 09:00:00.00	0.1947	2.8107	19.5734	9.36391302178994	337.912671945614
13-11-2017 10:00:00.00	0.1938	2.8092	19.5636	9.35419293740739	336.367397341816
13-11-2017 11:00:00.00	0.1941	2.8086	19.5628	9.35339946113127	336.894790898377
13-11-2017 12:00:00.00	0.1928	2.8076	19.5537	9.34437366849033	334.649505673385
13-11-2017 13:00:00.00	0.1945	2.8081	19.5565	9.34715083545677	337.594657332831
13-11-2017 14:00:00.00	0.1943	2.8089	19.5501	9.34080302524776	337.238572198882
13-11-2017 15:00:00.00	0.1946	2.8094	19.5512	9.34189405512743	337.753671491754
13-11-2017 16:00:00.00	0.194	2.809	19.5496	9.34030710257518	336.716758202134
13-11-2017 17:00:00.00	0.1951	2.8067	19.5514	9.34209242419647	338.651798203729
13-11-2017 18:00:00.00	0.1923	2.8052	19.5431	9.33386010783165	333.808198495999
13-11-2017 19:00:00.00	0.1935	2.8052	19.5454	9.33614135212552	335.891244976473
13-11-2017 20:00:00.00	0.1952	2.805	19.5409	9.33167804807231	338.844474378792
13-11-2017 21:00:00.00	0.1953	2.8054	19.5389	9.32969435738199	339.013566687614
13-11-2017 22:00:00.00	0.1941	2.8058	19.5378	9.32860332750231	336.926065714851
13-11-2017 23:00:00.00	0.1946	2.8057	19.5431	9.33386010783165	337.795104425468
14-11-2017 00:00:00.00	0.1931	2.8054	19.5433	9.33405847690068	335.194673463278
14-11-2017 01:00:00.00	0.1941	2.8049	19.5492	9.33991036443711	336.936119567641
14-11-2017 02:00:00.00	0.1952	2.8046	19.5508	9.34149731698937	338.848968244818
14-11-2017 03:00:00.00	0.195	2.8044	19.5527	9.34338182314517	338.504031600376
14-11-2017 04:00:00.00	0.1941	2.8043	19.5606	9.35121740137192	336.942822469514
14-11-2017 05:00:00.00	0.1939	2.804	19.5591	9.34972963335418	336.598985793752
14-11-2017 06:00:00.00	0.1944	2.804	19.5683	9.35885461052964	337.466956360523
14-11-2017 07:00:00.00	0.1929	2.8038	19.5664	9.35697010437384	334.865265250613
14-11-2017 08:00:00.00	0.1941	2.8033	19.572	9.36252443830672	336.953994565302
14-11-2017 09:00:00.00	0.1945	2.8029	19.5805	9.37095512374056	337.652865390788
14-11-2017 10:00:00.00	0.1942	2.8024	19.5866	9.37700538034603	337.137653408048
14-11-2017 11:00:00.00	0.1954	2.802	19.5864	9.376807011277	339.225392531
14-11-2017 12:00:00.00	0.1946	2.8017	19.5931	9.38345237508955	337.83990822282
14-11-2017 13:00:00.00	0.1945	2.8018	19.5975	9.38781649460825	337.665181206066
14-11-2017 14:00:00.00	0.1953	2.8012	19.6019	9.39218061412695	339.060781150207
14-11-2017 15:00:00.00	0.1951	2.8004	19.6066	9.39684228724919	338.722546199082
14-11-2017 16:00:00.00	0.1952	2.7998	19.6081	9.39833005526693	338.902903936062
14-11-2017 17:00:00.00	0.1942	2.7997	19.6126	9.40279335932014	337.16783911198
14-11-2017 18:00:00.00	0.1944	2.7989	19.6223	9.41241425916817	337.524031007833
14-11-2017 19:00:00.00	0.1946	2.7997	19.6234	9.41350528904784	337.86231457874
14-11-2017 20:00:00.00	0.1945	2.7995	19.6301	9.4201506528604	337.690935359618
14-11-2017 21:00:00.00	0.1949	2.7983	19.628	9.41806777763557	338.398881578674
14-11-2017 22:00:00.00	0.1944	2.7985	19.6265	9.41658000961784	337.528508267235
14-11-2017 23:00:00.00	0.1951	2.7977	19.6347	9.42471314144813	338.752875818318
15-11-2017 00:00:00.00	0.1952	2.7972	19.6397	9.42967236817392	338.932126271942
15-11-2017 01:00:00.00	0.1937	2.7966	19.6406	9.43056502898456	336.334319856126
15-11-2017 02:00:00.00	0.1947	2.7962	19.6441	9.43403648769262	338.075171873979
15-11-2017 03:00:00.00	0.1942	2.7958	19.6483	9.43820223814228	337.211450228371
15-11-2017 04:00:00.00	0.1958	2.7954	19.6537	9.44355820300613	339.994221834665
15-11-2017 05:00:00.00	0.1941	2.7956	19.6555	9.44534352462742	337.040044524709
15-11-2017 06:00:00.00	0.1946	2.7949	19.6627	9.45248481111256	337.916101960992
15-11-2017 07:00:00.00	0.1952	2.7944	19.6618	9.45159215030191	338.963602116189
15-11-2017 08:00:00.00	0.195	2.7941	19.6669	9.45665056156222	338.619672646464
15-11-2017 09:00:00.00	0.1941	2.7939	19.6669	9.45665056156222	337.059048490815
15-11-2017 10:00:00.00	0.1943	2.7932	19.6636	9.4533774719232	337.414186872098
15-11-2017 11:00:00.00	0.1954	2.7935	19.6651	9.45486523994093	339.321029733396
15-11-2017 12:00:00.00	0.1946	2.7934	19.6632	9.45298073378514	337.932914030249
15-11-2017 13:00:00.00	0.1944	2.7923	19.6677	9.45744403783835	337.597920980309
15-11-2017 14:00:00.00	0.1949	2.7919	19.6704	9.46012202027027	338.470719130797
15-11-2017 15:00:00.00	0.1944	2.7913	19.6686	9.45833669864899	337.609119253006
15-11-2017 16:00:00.00	0.1945	2.7904	19.6679	9.45764240690738	337.79287076076
15-11-2017 17:00:00.00	0.1945	2.7903	19.6641	9.45387339459578	337.793991271855
15-11-2017 18:00:00.00	0.1948	2.7899	19.6592	9.4490133524045	338.31949931354
15-11-2017 19:00:00.00	0.1945	2.7894	19.6577	9.44752558438677	337.804076206238
15-11-2017 20:00:00.00	0.1954	2.7888	19.6594	9.44921172147354	339.373934636789
15-11-2017 21:00:00.00	0.1944	2.7888	19.65	9.43988837522905	337.637118185219
15-11-2017 22:00:00.00	0.1946	2.7878	19.6423	9.43225116607133	337.995693872333
15-11-2017 23:00:00.00	0.1951	2.7876	19.6388	9.42877970736328	338.866379237575
16-11-2017 00:00:00.00	0.1953	2.7872	19.6294	9.41945636111879	339.218257716668
16-11-2017 01:00:00.00	0.195	2.7871	19.6312	9.42124168274008	338.698308754287
16-11-2017 02:00:00.00	0.1948	2.7865	19.6233	9.41340610451333	338.357660895972
16-11-2017 03:00:00.00	0.1949	2.7864	19.6279	9.41796859310106	338.532478899821
16-11-2017 04:00:00.00	0.1956	2.7862	19.623	9.41310855090978	339.750601520103
16-11-2017 05:00:00.00	0.1953	2.7857	19.63	9.42005146832589	339.235138882397
16-11-2017 06:00:00.00	0.1937	2.7854	19.6267	9.41677837868687	336.459295529621
16-11-2017 07:00:00.00	0.1941	2.7859	19.6313	9.42134086727459	337.14850769924
16-11-2017 08:00:00.00	0.1958	2.7841	19.6318	9.42183678994717	340.121690955113
16-11-2017 09:00:00.00	0.1945	2.7842	19.6374	9.42739112388006	337.862356508815
16-11-2017 10:00:00.00	0.1953	2.7836	19.6479	9.43780550000422	339.258775337315
16-11-2017 11:00:00.00	0.1943	2.7831	19.6553	9.44514515555839	337.527258626709
16-11-2017 12:00:00.00	0.1941	2.7827	19.6533	9.44316146486807	337.184304680363
16-11-2017 13:00:00.00	0.1948	2.7823	19.667	9.45674974609674	338.404813561792
16-11-2017 14:00:00.00	0.1944	2.7836	19.662	9.45179051937095	337.695370842673
16-11-2017 15:00:00.00	0.1953	2.7813	19.6719	9.46160978828801	339.284666662717
16-11-2017 16:00:00.00	0.1957	2.7808	19.6812	9.47083394999798	339.985206734633
16-11-2017 17:00:00.00	0.1949	2.7805	19.6782	9.46785841396251	338.598755349891
16-11-2017 18:00:00.00	0.194	2.78	19.6818	9.47142905720507	337.040781934614
16-11-2017 19:00:00.00	0.1951	2.7805	19.6897	9.47926463543182	338.94621430869
16-11-2017 20:00:00.00	0.195	2.7799	19.6926	9.48214098693278	338.779229719924
16-11-2017 21:00:00.00	0.1953	2.7802	19.693	9.48253772507085	339.29705086756
16-11-2017 22:00:00.00	0.1956	2.7808	19.6969	9.48640592191696	339.811478984641
16-11-2017 23:00:00.00	0.1954	2.7794	19.6998	9.48928227341792	339.479793950706
17-11-2017 00:00:00.00	0.1957	2.7799	19.7001	9.48957982702147	339.995360288149
17-11-2017 01:00:00.00	0.1958	2.7793	19.7169	9.50624282882012	340.175866058133
17-11-2017 02:00:00.00	0.1943	2.7768	19.7195	9.50882162671753	337.59782691945
17-11-2017 03:00:00.00	0.1959	2.7761	19.7209	9.51021021020076	340.385747230378
17-11-2017 04:00:00.00	0.1949	2.7756	19.73	9.51923600284169	338.653818232315
17-11-2017 05:00:00.00	0.1957	2.7752	19.7342	9.52340175329136	340.048394255688
17-11-2017 06:00:00.00	0.1958	2.775	19.7372	9.52637728932683	340.224412578573
17-11-2017 07:00:00.00	0.1952	2.7745	19.7458	9.53490715929519	339.1874739734
17-11-2017 08:00:00.00	0.1956	2.7741	19.7521	9.54115578496969	339.887042468556
17-11-2017 09:00:00.00	0.1944	2.7738	19.7517	9.54075904683162	337.805209352519
17-11-2017 10:00:00.00	0.1951	2.7737	19.7569	9.54591664262645	339.022711341693
17-11-2017 11:00:00.00	0.1962	2.7735	19.7682	9.55712449502673	340.936430039349
17-11-2017 12:00:00.00	0.1959	2.7727	19.777	9.56585273406412	340.424159466423
17-11-2017 13:00:00.00	0.196	2.7722	19.7886	9.57735814006796	340.60358639589
17-11-2017 14:00:00.00	0.194	2.772	19.7956	9.58430105748406	337.130277565961
17-11-2017 15:00:00.00	0.1959	2.7716	19.8069	9.59550890988435	340.436588810782
17-11-2017 16:00:00.00	0.1955	2.7711	19.8201	9.60860126844044	339.747104073019
17-11-2017 17:00:00.00	0.195	2.7708	19.8268	9.61524663225299	338.881560164824
17-11-2017 18:00:00.00	0.1956	2.7704	19.8256	9.61405641783881	339.928785962067
17-11-2017 19:00:00.00	0.1948	2.77	19.8356	9.62397487129038	338.542979143458
17-11-2017 20:00:00.00	0.195	2.7697	19.8424	9.63071941963746	338.89393396716
17-11-2017 21:00:00.00	0.1939	2.7691	19.8442	9.63250474125875	336.98893624828
17-11-2017 22:00:00.00	0.1959	2.7686	19.8409	9.62923165161972	340.470491636262
17-11-2017 23:00:00.00	0.1951	2.7686	19.8443	9.63260392579326	339.080106780167
18-11-2017 00:00:00.00	0.1948	2.7681	19.853	9.64123298029614	338.564331854849
18-11-2017 01:00:00.00	0.1955	2.7681	19.854	9.64222482564129	339.780938796832
18-11-2017 02:00:00.00	0.1957	2.7673	19.8615	9.64966366572998	340.137573742895
18-11-2017 03:00:00.00	0.1951	2.7687	19.8678	9.65591229140447	339.078981192622
18-11-2017 04:00:00.00	0.1955	2.7669	19.8731	9.66116907173381	339.794474573371
18-11-2017 05:00:00.00	0.1945	2.7666	19.8706	9.65868945837092	338.059762222147
18-11-2017 06:00:00.00	0.1948	2.7661	19.8774	9.66543400671799	338.586811303258
18-11-2017 07:00:00.00	0.1956	2.7658	19.8847	9.67267447773765	339.980697578514
18-11-2017 08:00:00.00	0.1944	2.7656	19.8829	9.67088915611636	337.897169965197
18-11-2017 09:00:00.00	0.1951	2.7652	19.8915	9.67941902608472	339.118381203546
18-11-2017 10:00:00.00	0.197	2.7652	19.8934	9.68130353224052	342.420917975902
18-11-2017 11:00:00.00	0.1956	2.7647	19.8959	9.68378314560342	339.993113575065
18-11-2017 12:00:00.00	0.1949	2.7643	19.8999	9.68775052698405	338.780868277809
18-11-2017 13:00:00.00	0.1955	2.7639	19.9069	9.69469344440016	339.828318733376
18-11-2017 14:00:00.00	0.1946	2.7634	19.9165	9.70421515971367	338.269507069016
18-11-2017 15:00:00.00	0.1956	2.7627	19.9167	9.7044135287827	340.015690437756
18-11-2017 16:00:00.00	0.1948	2.7627	19.9177	9.70540537412786	338.625033217151
18-11-2017 17:00:00.00	0.1949	2.7625	19.9187	9.70639721947302	338.801115140664
18-11-2017 18:00:00.00	0.1956	2.7624	19.9204	9.70808335655979	340.019077225772
18-11-2017 19:00:00.00	0.195	2.7618	19.923	9.7106621544572	338.982826921383
18-11-2017 20:00:00.00	0.1948	2.7609	19.9212	9.70887683283591	338.645271841842
18-11-2017 21:00:00.00	0.1958	2.7605	19.9214	9.70907520190495	340.388218151993
18-11-2017 22:00:00.00	0.1943	2.76	19.9264	9.71403442863074	337.786153375428
18-11-2017 23:00:00.00	0.1954	2.7595	19.9227	9.71036460085365	339.704118408269
19-11-2017 00:00:00.00	0.1956	2.7595	19.9283	9.71591893478654	340.05181965536
19-11-2017 01:00:00.00	0.1951	2.7589	19.9255	9.7131417678201	339.189324302008
19-11-2017 02:00:00.00	0.1945	2.7589	19.9214	9.70907520190495	338.14619977827
19-11-2017 03:00:00.00	0.1961	2.7586	19.9262	9.71383605956171	340.931261477309
19-11-2017 04:00:00.00	0.1959	2.7579	19.922	9.70967030911204	340.591466725074
19-11-2017 05:00:00.00	0.1945	2.7578	19.926	9.71363769049267	338.158551609028
19-11-2017 06:00:00.00	0.1954	2.7577	19.9232	9.71086052352623	339.724423684203
19-11-2017 07:00:00.00	0.1959	2.7571	19.9203	9.70798417202528	340.600515045702
19-11-2017 08:00:00.00	0.1956	2.7568	19.9244	9.71205073794042	340.082309655444
19-11-2017 09:00:00.00	0.1954	2.7563	19.913	9.70074370100562	339.740218354898
19-11-2017 10:00:00.00	0.1955	2.7567	19.9173	9.7050086359898	339.909572230845
19-11-2017 11:00:00.00	0.1946	2.7553	19.9199	9.70758743388721	338.360502180539
19-11-2017 12:00:00.00	0.1955	2.7549	19.919	9.70669477307657	339.929891676776
19-11-2017 13:00:00.00	0.1953	2.7546	19.9217	9.7093727555085	339.585520657632
19-11-2017 14:00:00.00	0.1955	2.7543	19.9227	9.71036460085365	339.936665365286
19-11-2017 15:00:00.00	0.1938	2.754	19.9224	9.7100670472501	336.984051855899
19-11-2017 16:00:00.00	0.1956	2.7538	19.9179	9.70560374319689	340.116193846616
19-11-2017 17:00:00.00	0.1949	2.7533	19.9179	9.70560374319689	338.904636912717
19-11-2017 18:00:00.00	0.1958	2.7529	19.9243	9.71195155340591	340.474137885314
19-11-2017 19:00:00.00	0.1962	2.7526	19.9225	9.71016623178462	341.173092203367
19-11-2017 20:00:00.00	0.1955	2.7521	19.9215	9.70917438643946	339.961504532939
19-11-2017 21:00:00.00	0.1965	2.752	19.922	9.70967030911204	341.701572974936
19-11-2017 22:00:00.00	0.1957	2.7518	19.9257	9.71334013688913	340.312682144234
19-11-2017 23:00:00.00	0.1954	2.7512	19.9298	9.71740670280428	339.797768505971
20-11-2017 00:00:00.00	0.1958	2.7511	19.9181	9.70580211226592	340.494493649299
20-11-2017 01:00:00.00	0.1959	2.7512	19.9273	9.71492708944138	340.667261260592
20-11-2017 02:00:00.00	0.1967	2.7507	19.9347	9.72226674499555	342.064130433592
20-11-2017 03:00:00.00	0.1957	2.7501	19.932	9.71958876256362	340.331898554104
20-11-2017 04:00:00.00	0.1954	2.7495	19.9305	9.71810099454588	339.816956222654
20-11-2017 05:00:00.00	0.1954	2.7492	19.9317	9.71929120896007	339.820342515253
20-11-2017 06:00:00.00	0.1961	2.7488	19.9273	9.71492708944138	341.04224457762
20-11-2017 07:00:00.00	0.1963	2.7486	19.9242	9.71185236887139	341.392337430725
20-11-2017 08:00:00.00	0.1952	2.7484	19.9231	9.71076133899172	339.48154350849
20-11-2017 09:00:00.00	0.1958	2.7486	19.922	9.70967030911204	340.522769581946
20-11-2017 10:00:00.00	0.1958	2.7476	19.9147	9.70242983809239	340.534081270006
20-11-2017 11:00:00.00	0.1953	2.747	19.9155	9.70322331436852	339.671254576561
20-11-2017 12:00:00.00	0.1952	2.7467	19.9188	9.70649640400754	339.500715151647
20-11-2017 13:00:00.00	0.1962	2.7459	19.9163	9.70401679064464	341.249029540461
20-11-2017 14:00:00.00	0.1955	2.7459	19.9187	9.70639721947302	340.031525357594
20-11-2017 15:00:00.00	0.1951	2.7459	19.9221	9.70976949364656	339.335808681671
20-11-2017 16:00:00.00	0.1964	2.7462	19.9138	9.70153717728174	341.59348350947
20-11-2017 17:00:00.00	0.1965	2.7454	19.9117	9.69945430205691	341.776494035504
20-11-2017 18:00:00.00	0.1961	2.7446	19.9064	9.69419752172758	341.089830885888
20-11-2017 19:00:00.00	0.196	2.7438	19.906	9.69380078358951	340.924955146626
20-11-2017 20:00:00.00	0.1955	2.7449	19.8964	9.684279068276	340.042821740386
20-11-2017 21:00:00.00	0.1955	2.7426	19.8919	9.67981576422278	340.068806269428
20-11-2017 22:00:00.00	0.1942	2.7429	19.8951	9.68298966932729	337.804112196261
20-11-2017 23:00:00.00	0.1954	2.7425	19.8874	9.67535246016957	339.895987305215
21-11-2017 00:00:00.00	0.1948	2.7424	19.8817	9.66969894170217	338.853420220824
21-11-2017 01:00:00.00	0.1961	2.7419	19.874	9.66206173254445	341.120429097145
21-11-2017 02:00:00.00	0.1955	2.7415	19.8792	9.66721932833928	340.081235056757
21-11-2017 03:00:00.00	0.1949	2.7409	19.8774	9.66543400671799	339.044266395273
21-11-2017 04:00:00.00	0.1963	2.7408	19.8712	9.65928456557801	341.480813892643
21-11-2017 05:00:00.00	0.1966	2.7403	19.8668	9.65492044605932	342.008371620382
21-11-2017 06:00:00.00	0.1962	2.7399	19.8579	9.64609302248741	341.317061822349
21-11-2017 07:00:00.00	0.1951	2.7394	19.8562	9.64440688540064	339.409098327981
21-11-2017 08:00:00.00	0.1943	2.7393	19.8457	9.63399250927648	338.018487610648
21-11-2017 09:00:00.00	0.1966	2.7391	19.8465	9.63478598555261	342.022008716133
21-11-2017 10:00:00.00	0.1954	2.7384	19.8437	9.63200881858616	339.942294012715
21-11-2017 11:00:00.00	0.196	2.7381	19.8436	9.63190963405165	340.989528298573
21-11-2017 12:00:00.00	0.1958	2.7377	19.8399	9.62823980627457	340.646107543229
21-11-2017 13:00:00.00	0.1953	2.7373	19.8322	9.62060259711685	339.780741036221
21-11-2017 14:00:00.00	0.1962	2.7371	19.8309	9.61931319816814	341.348819504609
21-11-2017 15:00:00.00	0.1945	2.7368	19.8282	9.61663521573622	338.394532462979
21-11-2017 16:00:00.00	0.1963	2.7365	19.8176	9.60612165507754	341.529608990354
21-11-2017 17:00:00.00	0.196	2.7361	19.8114	9.59997221393756	341.012191342428
21-11-2017 18:00:00.00	0.1966	2.7361	19.8028	9.5914423439692	342.056106213884
21-11-2017 19:00:00.00	0.1956	2.7355	19.7994	9.58807006979566	340.323033718862
21-11-2017 20:00:00.00	0.1953	2.7354	19.7879	9.57666384832635	339.802195104781
21-11-2017 21:00:00.00	0.1961	2.735	19.785	9.57378749682539	341.19864947276
21-11-2017 22:00:00.00	0.1969	2.734	19.7714	9.56029840013124	342.601972371213
21-11-2017 23:00:00.00	0.1964	2.7333	19.769	9.55791797130286	341.739932674797
22-11-2017 00:00:00.00	0.1952	2.733	19.7648	9.5537522208532	339.655295116428
22-11-2017 01:00:00.00	0.1963	2.7325	19.7584	9.54740441064419	341.575012300094
22-11-2017 02:00:00.00	0.1956	2.7327	19.7535	9.54254436845291	340.354703542788
22-11-2017 03:00:00.00	0.1969	2.7325	19.7452	9.5343120520881	342.619052072789
22-11-2017 04:00:00.00	0.1962	2.7317	19.7469	9.53599818917487	341.410083155281
22-11-2017 05:00:00.00	0.195	2.7314	19.7425	9.53163406965617	339.325331450374
22-11-2017 06:00:00.00	0.1973	2.732	19.7419	9.53103896244908	343.320783766721
22-11-2017 07:00:00.00	0.1955	2.7309	19.7416	9.53074140884553	340.201049945708
22-11-2017 08:00:00.00	0.1951	2.7304	19.732	9.52121969353201	339.510628579479
22-11-2017 09:00:00.00	0.1973	2.7301	19.7391	9.52826179548263	343.342465175581
22-11-2017 10:00:00.00	0.1961	2.7296	19.7325	9.52171561620459	341.259890446004
22-11-2017 11:00:00.00	0.1963	2.7293	19.7313	9.5205254017904	341.611343640599
22-11-2017 12:00:00.00	0.1963	2.73	19.7371	9.52627810479232	341.603395499467
22-11-2017 13:00:00.00	0.1956	2.7288	19.7381	9.52726995013747	340.398824907059
22-11-2017 14:00:00.00	0.1953	2.7287	19.7311	9.52032703272137	339.877870551848
22-11-2017 15:00:00.00	0.1966	2.7282	19.7329	9.52211235434265	342.145928823692
22-11-2017 16:00:00.00	0.1962	2.7279	19.7354	9.52459196770555	341.453207797128
22-11-2017 17:00:00.00	0.1944	2.7276	19.7367	9.52588136665425	338.323983362535
22-11-2017 18:00:00.00	0.1966	2.7272	19.7379	9.52707158106844	342.157302138055
22-11-2017 19:00:00.00	0.1964	2.7266	19.7323	9.52151724713556	341.816044977422
22-11-2017 20:00:00.00	0.197	2.7264	19.7317	9.52092213992846	342.862568986734
22-11-2017 21:00:00.00	0.1961	2.726	19.7304	9.51963274097976	341.300729976299
22-11-2017 22:00:00.00	0.1957	2.7257	19.7292	9.51844252656557	340.607949859168
22-11-2017 23:00:00.00	0.1971	2.7254	19.7239	9.51318574623623	343.048014503882
23-11-2017 00:00:00.00	0.1959	2.7251	19.7236	9.51288819263268	340.962842516886
23-11-2017 01:00:00.00	0.1958	2.7245	19.7276	9.51685557401331	340.795590613292
23-11-2017 02:00:00.00	0.1963	2.7239	19.7339	9.52310419968781	341.67267030629
23-11-2017 03:00:00.00	0.1954	2.7239	19.728	9.51725231215138	340.10616290295
23-11-2017 04:00:00.00	0.1969	2.7235	19.7363	9.52548462851619	342.721566054795
23-11-2017 05:00:00.00	0.1968	2.7239	19.7315	9.52072377085943	342.542952197034
23-11-2017 06:00:00.00	0.1957	2.7231	19.7279	9.51715312761686	340.637391566302
23-11-2017 07:00:00.00	0.1953	2.7227	19.7331	9.52231072341169	339.945668222741
23-11-2017 08:00:00.00	0.1956	2.7222	19.7342	9.52340175329136	340.47351789667
23-11-2017 09:00:00.00	0.1958	2.7217	19.736	9.52518707491264	340.827316010823
23-11-2017 10:00:00.00	0.1964	2.7212	19.7372	9.52637728932683	341.877413899984
23-11-2017 11:00:00.00	0.1967	2.7209	19.7362	9.52538544398167	342.403045148514
23-11-2017 12:00:00.00	0.1954	2.7202	19.7318	9.52102132446298	340.148003026586
23-11-2017 13:00:00.00	0.1969	2.7202	19.7312	9.52042621725588	342.759169887077
23-11-2017 14:00:00.00	0.1969	2.7198	19.7249	9.51417759158139	342.763728488094
23-11-2017 15:00:00.00	0.1971	2.7198	19.725	9.5142767761159	343.111888699865
23-11-2017 16:00:00.00	0.1973	2.719	19.7168	9.50614364428561	343.469184999675
23-11-2017 17:00:00.00	0.1972	2.7192	19.7168	9.50614364428561	343.29281735332
23-11-2017 18:00:00.00	0.1953	2.7183	19.7176	9.50693712056174	339.995403707809
23-11-2017 19:00:00.00	0.1968	2.7182	19.7159	9.50525098347497	342.607874737547
23-11-2017 20:00:00.00	0.1958	2.7178	19.7088	9.49820888152434	340.871514802024
23-11-2017 21:00:00.00	0.1962	2.7175	19.7127	9.50207707837046	341.571288861459
23-11-2017 22:00:00.00	0.196	2.717	19.7076	9.49701866711015	341.22877526551
23-11-2017 23:00:00.00	0.1964	2.7167	19.7023	9.49176188678082	341.928571504428
24-11-2017 00:00:00.00	0.1957	2.7166	19.7006	9.49007574969405	340.711018106849
24-11-2017 01:00:00.00	0.1956	2.7162	19.7023	9.49176188678082	340.541449065149
24-11-2017 02:00:00.00	0.1963	2.716	19.6895	9.47906626636279	341.762428626843
24-11-2017 03:00:00.00	0.1957	2.7159	19.691	9.48055403438053	340.71894901732
24-11-2017 04:00:00.00	0.1965	2.7162	19.6876	9.47718176020699	342.108357573118
24-11-2017 05:00:00.00	0.1973	2.7157	19.6793	9.46894944384218	343.506876501025
24-11-2017 06:00:00.00	0.1955	2.7158	19.6783	9.46795759849702	340.371875512408
24-11-2017 07:00:00.00	0.197	2.7153	19.6755	9.46518043153058	342.989127262076
24-11-2017 08:00:00.00	0.1959	2.7144	19.671	9.46071712747737	341.084167802685
24-11-2017 09:00:00.00	0.1967	2.7147	19.661	9.45079867402579	342.47364202193
24-11-2017 10:00:00.00	0.1966	2.7133	19.6639	9.45367502552675	342.315469544257
24-11-2017 11:00:00.00	0.1964	2.7129	19.6594	9.44921172147354	341.97178318383
24-11-2017 12:00:00.00	0.197	2.7139	19.665	9.45476605540642	343.00509620257
24-11-2017 13:00:00.00	0.1972	2.7137	19.6695	9.45922935945963	343.355608441373
24-11-2017 14:00:00.00	0.1972	2.7161	19.6567	9.44653373904161	343.328205869342
24-11-2017 15:00:00.00	0.1972	2.7132	19.6574	9.44722803078322	343.361317861133
24-11-2017 16:00:00.00	0.197	2.7125	19.6513	9.44117777417775	343.021066630101
24-11-2017 17:00:00.00	0.1967	2.7133	19.6479	9.43780550000422	342.489587280546
24-11-2017 18:00:00.00	0.197	2.7125	19.6499	9.43978919069453	343.021066630101
24-11-2017 19:00:00.00	0.1963	2.7112	19.6439	9.43383811862358	341.816988363526
24-11-2017 20:00:00.00	0.1962	2.71	19.6415	9.43145768979521	341.65649417251
24-11-2017 21:00:00.00	0.197	2.7094	19.642	9.43195361246778	343.056435012556
24-11-2017 22:00:00.00	0.196	2.7114	19.6416	9.43155687432972	341.292328476314
24-11-2017 23:00:00.00	0.1976	2.7101	19.6363	9.42630009400038	344.093265574125
25-11-2017 00:00:00.00	0.1969	2.7096	19.6341	9.42411803424104	342.880013797394
25-11-2017 01:00:00.00	0.1964	2.7096	19.6328	9.42282863529233	342.009317977695
25-11-2017 02:00:00.00	0.1961	2.7091	19.6346	9.42461395691361	341.492579606561
25-11-2017 03:00:00.00	0.1972	2.7083	19.6335	9.42352292703394	343.417280224652
25-11-2017 04:00:00.00	0.1966	2.7082	19.6325	9.42253108168878	342.373538865196
25-11-2017 05:00:00.00	0.1972	2.7076	19.6327	9.42272945075781	343.425276337183
25-11-2017 06:00:00.00	0.1968	2.7084	19.6255	9.41558816427268	342.719553494935
25-11-2017 07:00:00.00	0.1975	2.7095	19.6207	9.41082730661592	343.925992698843
25-11-2017 08:00:00.00	0.1964	2.7067	19.6261	9.41618327147977	342.04230990228
25-11-2017 09:00:00.00	0.1973	2.7066	19.6282	9.4182661467046	343.610856542624
25-11-2017 10:00:00.00	0.1979	2.7066	19.6253	9.41538979520364	344.65579579212
25-11-2017 11:00:00.00	0.1969	2.7058	19.6197	9.40983546127076	342.923355950716
25-11-2017 12:00:00.00	0.1971	2.7055	19.6272	9.41727430135944	343.275103994853
25-11-2017 13:00:00.00	0.197	2.7043	19.6281	9.41816696217009	343.11463757872
25-11-2017 14:00:00.00	0.1965	2.7041	19.6343	9.42431640331007	342.246065306715
25-11-2017 15:00:00.00	0.1963	2.7047	19.6397	9.42967236817392	341.890899113325
25-11-2017 16:00:00.00	0.1967	2.7038	19.6344	9.42441558784458	342.597826484146
25-11-2017 17:00:00.00	0.1963	2.7034	19.6373	9.42729193934554	341.905685099047
25-11-2017 18:00:00.00	0.1976	2.7036	19.6397	9.42967236817392	344.167671243795
25-11-2017 19:00:00.00	0.1971	2.7027	19.6421	9.4320527970023	343.307080415042
25-11-2017 20:00:00.00	0.1964	2.7024	19.6395	9.42947399910489	342.091240680626
25-11-2017 21:00:00.00	0.1968	2.7029	19.642	9.43195361246778	342.782262251109
25-11-2017 22:00:00.00	0.1957	2.7019	19.6392	9.42917644550134	340.877644799885
25-11-2017 23:00:00.00	0.1961	2.7015	19.6457	9.43562344024487	341.578925503483
26-11-2017 00:00:00.00	0.1961	2.7017	19.6514	9.44127695871227	341.576652683623
26-11-2017 01:00:00.00	0.1963	2.7011	19.6522	9.4420704349884	341.931848053151
26-11-2017 02:00:00.00	0.1973	2.7017	19.6539	9.44375657207517	343.666871873936
26-11-2017 03:00:00.00	0.1965	2.7003	19.6573	9.4471288462487	342.289335241537
26-11-2017 04:00:00.00	0.1976	2.6999	19.6586	9.44841824519741	344.210039613942
26-11-2017 05:00:00.00	0.1957	2.6995	19.6594	9.44921172147354	340.904864635771
26-11-2017 06:00:00.00	0.1969	2.6997	19.6593	9.44911253693902	342.992954429998
26-11-2017 07:00:00.00	0.1967	2.6996	19.6673	9.45704729970029	342.645701418222
26-11-2017 08:00:00.00	0.1959	2.6987	19.6717	9.46141141921898	341.262343519065
26-11-2017 09:00:00.00	0.197	2.6986	19.677	9.46666819954832	343.179710881023
26-11-2017 10:00:00.00	0.1962	2.698	19.6822	9.47182579534314	341.792911124436
26-11-2017 11:00:00.00	0.1962	2.6978	19.6854	9.47499970044765	341.795185663249
26-11-2017 12:00:00.00	0.1965	2.6976	19.6955	9.48501733843374	342.320086318318
26-11-2017 13:00:00.00	0.1973	2.6974	19.7002	9.48967901155598	343.716043232893
26-11-2017 14:00:00.00	0.1973	2.6969	19.7097	9.49910154233499	343.721761745977
26-11-2017 15:00:00.00	0.197	2.6964	19.7064	9.49582845269596	343.204833494785
26-11-2017 16:00:00.00	0.1962	2.6962	19.7161	9.505449352544	341.813383063638
26-11-2017 17:00:00.00	0.1983	2.6959	19.7214	9.51070613287333	345.475384843986
26-11-2017 18:00:00.00	0.1962	2.6955	19.7229	9.51219390089107	341.821345035633
26-11-2017 19:00:00.00	0.1959	2.6955	19.7243	9.51358248437429	341.298682428545
26-11-2017 20:00:00.00	0.1956	2.6951	19.7311	9.52032703272137	340.780555772318
26-11-2017 21:00:00.00	0.196	2.6946	19.731	9.52022784818685	341.483130228111
26-11-2017 22:00:00.00	0.1972	2.6944	19.7365	9.52568299758522	343.576129919446
26-11-2017 23:00:00.00	0.1962	2.6939	19.7382	9.52736913467199	341.839545221687
27-11-2017 00:00:00.00	0.1971	2.6936	19.7498	9.53887454067582	343.411044935518
27-11-2017 01:00:00.00	0.1958	2.6935	19.7455	9.53460960569164	341.147165712584
27-11-2017 02:00:00.00	0.197	2.693	19.7528	9.5418500767113	343.243666588086
27-11-2017 03:00:00.00	0.1968	2.6925	19.7542	9.54323866019452	342.900901552332
27-11-2017 04:00:00.00	0.1963	2.6929	19.7576	9.54661093436806	342.025157265798
27-11-2017 05:00:00.00	0.1966	2.6919	19.7645	9.55345466724965	342.559265148695
27-11-2017 06:00:00.00	0.1968	2.6915	19.7728	9.56168698361446	342.912313505492
27-11-2017 07:00:00.00	0.1973	2.6917	19.7681	9.55702531049222	343.781245563885
27-11-2017 08:00:00.00	0.1969	2.691	19.7726	9.56148861454543	343.092266728187
27-11-2017 09:00:00.00	0.1968	2.6905	19.7703	9.55920737025156	342.92372621827
27-11-2017 10:00:00.00	0.1963	2.6914	19.7733	9.56218290628704	342.042231534398
27-11-2017 11:00:00.00	0.198	2.69	19.7755	9.56436496604639	345.020465986732
27-11-2017 12:00:00.00	0.1974	2.69	19.7763	9.56515844232251	343.974949423136
27-11-2017 13:00:00.00	0.1959	2.6892	19.7836	9.57239891334217	341.370247277524
27-11-2017 14:00:00.00	0.1971	2.6891	19.7819	9.5707127762554	343.462479233459
27-11-2017 15:00:00.00	0.1972	2.6876	19.774	9.56287719802865	343.653894103994
27-11-2017 16:00:00.00	0.1974	2.6881	19.7786	9.56743968661638	343.996702511042
27-11-2017 17:00:00.00	0.1967	2.6873	19.7768	9.56565436499509	342.78598358395
27-11-2017 18:00:00.00	0.1971	2.6877	19.774	9.56287719802865	343.478484157478
27-11-2017 19:00:00.00	0.1966	2.688	19.7749	9.56376985883929	342.603732603189
27-11-2017 20:00:00.00	0.1971	2.688	19.7659	9.55484325073287	343.475054405333
27-11-2017 21:00:00.00	0.1975	2.6873	19.7687	9.55762041769931	344.180130949822
27-11-2017 22:00:00.00	0.1973	2.6861	19.7602	9.54918973226547	343.845328089178
27-11-2017 23:00:00.00	0.1969	2.6862	19.7621	9.55107423842127	343.147084342486
28-11-2017 00:00:00.00	0.1971	2.685	19.7533	9.54234599938388	343.509355009337
28-11-2017 01:00:00.00	0.1978	2.6852	19.7491	9.53818024893421	344.727032308766
28-11-2017 02:00:00.00	0.1969	2.6844	19.7417	9.53084059338005	343.167645464216
28-11-2017 03:00:00.00	0.1976	2.685	19.7407	9.52984874803489	344.380763824683
28-11-2017 04:00:00.00	0.1969	2.6858	19.7322	9.52141806260104	343.151653267719
28-11-2017 05:00:00.00	0.1975	2.6884	19.7208	9.51011102566624	344.167529670378
28-11-2017 06:00:00.00	0.1964	2.6837	19.7147	9.50406076906078	342.304195594988
28-11-2017 07:00:00.00	0.1979	2.6864	19.7133	9.50267218557756	344.88753633954
28-11-2017 08:00:00.00	0.1969	2.6826	19.7008	9.49027411876308	343.188209050108
28-11-2017 09:00:00.00	0.1966	2.6838	19.6953	9.48481896936471	342.651633543733
28-11-2017 10:00:00.00	0.1955	2.6816	19.6839	9.47351193242991	340.759413465724
28-11-2017 11:00:00.00	0.1986	2.6819	19.6669	9.45665056156222	346.159302406388
28-11-2017 12:00:00.00	0.1975	2.6818	19.6679	9.45764240690738	344.243151190999
28-11-2017 13:00:00.00	0.1969	2.6827	19.6644	9.45417094819933	343.187066564016
28-11-2017 14:00:00.00	0.1967	2.6812	19.661	9.45079867402579	342.855597031341
28-11-2017 15:00:00.00	0.1973	2.682	19.6538	9.44365738754065	343.89226080315
28-11-2017 16:00:00.00	0.1982	2.6819	19.6405	9.43046584445005	345.46210340859
28-11-2017 17:00:00.00	0.1971	2.6821	19.6351	9.42510987958619	343.542518772524
28-11-2017 18:00:00.00	0.198	2.6793	19.6327	9.42272945075781	345.143378573321
28-11-2017 19:00:00.00	0.1974	2.6831	19.6197	9.40983546127076	344.05396062841
28-11-2017 20:00:00.00	0.1981	2.6803	19.6269	9.4169767477559	345.306196740201
28-11-2017 21:00:00.00	0.1967	2.6811	19.62	9.41013301487431	342.856738470954
28-11-2017 22:00:00.00	0.1978	2.6799	19.6197	9.40983546127076	344.787861250044
28-11-2017 23:00:00.00	0.1961	2.6782	19.6152	9.40537215721755	341.843916194584
29-11-2017 00:00:00.00	0.1978	2.6773	19.6173	9.40745503244238	344.817709712056
29-11-2017 01:00:00.00	0.1978	2.6764	19.6239	9.41400121172042	344.8280430761
29-11-2017 02:00:00.00	0.1971	2.678	19.616	9.40616563349367	343.589416400041
29-11-2017 03:00:00.00	0.1968	2.6774	19.6112	9.40140477583692	343.073302945546
29-11-2017 04:00:00.00	0.1981	2.6769	19.6116	9.40180151397498	345.345288544531
29-11-2017 05:00:00.00	0.198	2.6766	19.606	9.3962471800421	345.174407737374
29-11-2017 06:00:00.00	0.1961	2.6763	19.6021	9.39237898319598	341.865543009309
29-11-2017 07:00:00.00	0.1971	2.6764	19.6006	9.39089121517824	343.607721386751
29-11-2017 08:00:00.00	0.1974	2.6763	19.6038	9.39406512028275	344.131862264343
29-11-2017 09:00:00.00	0.1972	2.6758	19.6001	9.39039529250566	343.788921412468
29-11-2017 10:00:00.00	0.197	2.6765	19.6083	9.39852842433596	343.43224617851
29-11-2017 11:00:00.00	0.1977	2.6755	19.6059	9.39614799550758	344.664040165128
29-11-2017 12:00:00.00	0.197	2.6755	19.6043	9.39456104295532	343.443681904554
29-11-2017 13:00:00.00	0.1972	2.6743	19.6069	9.39713984085274	343.80609350274
29-11-2017 14:00:00.00	0.1968	2.6744	19.6071	9.39733820992177	343.107575522371
29-11-2017 15:00:00.00	0.1972	2.6746	19.6094	9.39961945421563	343.802658947448
29-11-2017 16:00:00.00	0.1974	2.674	19.6067	9.39694147178371	344.15821933165
29-11-2017 17:00:00.00	0.1967	2.6743	19.6111	9.4013055913024	342.934374198727
29-11-2017 18:00:00.00	0.198	2.6758	19.6127	9.40289254385465	345.183602635236
29-11-2017 19:00:00.00	0.1966	2.6746	19.6181	9.40824850871851	342.756606232598
29-11-2017 20:00:00.00	0.1986	2.6746	19.6194	9.40953790766721	346.243448615432
29-11-2017 21:00:00.00	0.1978	2.6741	19.6159	9.40606644895916	344.854453375966
29-11-2017 22:00:00.00	0.1974	2.6736	19.6177	9.40785177058044	344.162803581581
29-11-2017 23:00:00.00	0.1986	2.673	19.6113	9.40150396037143	346.261897086292
30-11-2017 00:00:00.00	0.1975	2.673	19.6192	9.40933953859818	344.34403159387
30-11-2017 01:00:00.00	0.1974	2.6726	19.6164	9.40656237163174	344.174264740727
30-11-2017 02:00:00.00	0.197	2.6733	19.6146	9.40477705001045	343.468843182814
30-11-2017 03:00:00.00	0.1976	2.6727	19.623	9.41310855090978	344.521824890959
30-11-2017 04:00:00.00	0.1982	2.6731	19.6196	9.40973627673624	345.563340688091
30-11-2017 05:00:00.00	0.1976	2.6721	19.6199	9.41003383033979	344.528708874653
30-11-2017 06:00:00.00	0.1967	2.672	19.6188	9.40894280046012	342.960641299784
30-11-2017 07:00:00.00	0.1972	2.671	19.6169	9.40705829430432	343.843878140474
30-11-2017 08:00:00.00	0.1974	2.6714	19.6167	9.40685992523529	344.188019139365
30-11-2017 09:00:00.00	0.1968	2.6716	19.6164	9.40656237163174	343.139569439348
30-11-2017 10:00:00.00	0.1974	2.6704	19.6258	9.41588571787623	344.199481978036
30-11-2017 11:00:00.00	0.1972	2.6702	19.6247	9.41479468799655	343.853039303414
30-11-2017 12:00:00.00	0.1968	2.6702	19.6292	9.41925799204976	343.155568635455
30-11-2017 13:00:00.00	0.1978	2.6701	19.6334	9.42342374249943	344.900393969362
30-11-2017 14:00:00.00	0.1976	2.6697	19.6375	9.42749030841457	344.556247560665
30-11-2017 15:00:00.00	0.1976	2.6697	19.6349	9.42491151051716	344.556247560665
30-11-2017 16:00:00.00	0.1976	2.6696	19.6448	9.43473077943423	344.557395101454
30-11-2017 17:00:00.00	0.1978	2.6691	19.6393	9.42927563003586	344.911881030302
30-11-2017 18:00:00.00	0.1971	2.6688	19.6438	9.43373893408907	343.694696715848
30-11-2017 19:00:00.00	0.198	2.6686	19.642	9.43195361246778	345.266378765657
30-11-2017 20:00:00.00	0.1971	2.6692	19.6407	9.43066421351908	343.690117969235
30-11-2017 21:00:00.00	0.1978	2.669	19.6366	9.42659764760393	344.91302977848
30-11-2017 22:00:00.00	0.1971	2.668	19.6348	9.42481232598264	343.70385457508
30-11-2017 23:00:00.00	0.197	2.6679	19.632	9.42203515901621	343.530618317272
01-12-2017 00:00:00.00	0.1972	2.6684	19.6332	9.42322537343039	343.873653705001
01-12-2017 01:00:00.00	0.1989	2.6677	19.6308	9.42084494460202	346.846168248781
01-12-2017 02:00:00.00	0.1978	2.6673	19.6272	9.41727430135944	344.932559668319
01-12-2017 03:00:00.00	0.1969	2.6675	19.6242	9.41429876532397	343.360811789361
01-12-2017 04:00:00.00	0.1971	2.6682	19.625	9.4150922416001	343.70156506452
01-12-2017 05:00:00.00	0.1976	2.6671	19.6132	9.40338846652723	344.586086105611
01-12-2017 06:00:00.00	0.1968	2.6664	19.6119	9.40209906757853	343.199002546509
01-12-2017 07:00:00.00	0.1984	2.6663	19.6097	9.39991700781918	345.990390779579
01-12-2017 08:00:00.00	0.1972	2.6664	19.6077	9.39793331712886	343.896561494774
01-12-2017 09:00:00.00	0.1964	2.6659	19.6009	9.39118876878179	342.507147787597
01-12-2017 10:00:00.00	0.1965	2.6659	19.6056	9.39585044190403	342.681540429036
01-12-2017 11:00:00.00	0.1971	2.6656	19.6082	9.39842923980144	343.731331081181
01-12-2017 12:00:00.00	0.197	2.6655	19.6085	9.39872679340499	343.55808106593
01-12-2017 13:00:00.00	0.1961	2.6654	19.6152	9.40537215721755	341.989665529224
01-12-2017 14:00:00.00	0.1977	2.6651	19.6122	9.40239662118208	344.783439638073
01-12-2017 15:00:00.00	0.1969	2.6653	19.6139	9.40408275826884	343.385973699704
01-12-2017 16:00:00.00	0.1982	2.6654	19.6234	9.41350528904784	345.651971993331
01-12-2017 17:00:00.00	0.1977	2.6647	19.6226	9.41271181277172	344.788033577576
01-12-2017 18:00:00.00	0.1976	2.6651	19.6248	9.41489387253107	344.609042349434
01-12-2017 19:00:00.00	0.1982	2.6644	19.6173	9.40745503244238	345.663485888245
01-12-2017 20:00:00.00	0.1979	2.6643	19.6184	9.40854606232206	345.141431511671
01-12-2017 21:00:00.00	0.1961	2.6647	19.6225	9.4126126282372	341.997639780286
01-12-2017 22:00:00.00	0.1965	2.6642	19.6229	9.41300936637527	342.700945969716
01-12-2017 23:00:00.00	0.1974	2.6644	19.6278	9.41786940856654	344.268275047122
02-12-2017 00:00:00.00	0.1974	2.6638	19.6218	9.41191833649559	344.275155866478
02-12-2017 01:00:00.00	0.198	2.6638	19.6304	9.42044820646395	345.321584911665
02-12-2017 02:00:00.00	0.1976	2.6638	19.6286	9.41866288484266	344.623965548207
02-12-2017 03:00:00.00	0.1985	2.6636	19.6297	9.41975391472234	346.195915564892
02-12-2017 04:00:00.00	0.1976	2.6634	19.6308	9.42084494460202	344.628557561707
02-12-2017 05:00:00.00	0.1973	2.6631	19.6287	9.41876206937718	344.108774928985
02-12-2017 06:00:00.00	0.1972	2.663	19.629	9.41905962298073	343.935511742729
02-12-2017 07:00:00.00	0.198	2.6626	19.629	9.41905962298073	345.335389206762
02-12-2017 08:00:00.00	0.1974	2.6626	19.6276	9.41767103949751	344.288918330378
02-12-2017 09:00:00.00	0.1972	2.6625	19.6345	9.4245147723791	343.941240464547
02-12-2017 10:00:00.00	0.1976	2.6622	19.6328	9.42282863529233	344.642334336482
02-12-2017 11:00:00.00	0.198	2.6622	19.6303	9.42034902192943	345.339990883722
02-12-2017 12:00:00.00	0.1979	2.662	19.6377	9.4276886774836	345.167876469318
02-12-2017 13:00:00.00	0.1979	2.662	19.6385	9.42848215375973	345.167876469318
02-12-2017 14:00:00.00	0.1991	2.6616	19.6387	9.42868052282876	347.265487482605
02-12-2017 15:00:00.00	0.1976	2.6616	19.636	9.42600254039684	344.64922313693
02-12-2017 16:00:00.00	0.1964	2.6613	19.6375	9.42749030841457	342.559635245849
02-12-2017 17:00:00.00	0.1981	2.6608	19.6454	9.43532588664132	345.530519990467
02-12-2017 18:00:00.00	0.198	2.661	19.6449	9.43482996396874	345.353796650452
02-12-2017 19:00:00.00	0.198	2.661	19.6481	9.43800386907325	345.353796650452
02-12-2017 20:00:00.00	0.1994	2.6607	19.6517	9.44157451231582	347.799168201835
02-12-2017 21:00:00.00	0.1977	2.6606	19.6493	9.43919408348744	344.835128516756
02-12-2017 22:00:00.00	0.1973	2.66	19.6477	9.43760713093519	344.144313856823
02-12-2017 23:00:00.00	0.197	2.6596	19.6487	9.43859897628034	343.625612325142
03-12-2017 00:00:00.00	0.198	2.6596	19.6495	9.43939245255647	345.369904773493
03-12-2017 01:00:00.00	0.1976	2.6593	19.6587	9.44851742973192	344.675632756695
03-12-2017 02:00:00.00	0.1975	2.6591	19.6548	9.44464923288581	344.503497286124
03-12-2017 03:00:00.00	0.1979	2.6587	19.658	9.44782313799031	345.205826313814
03-12-2017 04:00:00.00	0.198	2.6586	19.6578	9.44762476892128	345.381411495682
03-12-2017 05:00:00.00	0.1978	2.6585	19.6589	9.44871579880095	345.033690935112
03-12-2017 06:00:00.00	0.1971	2.6585	19.6579	9.4477239534558	343.812641472753
03-12-2017 07:00:00.00	0.1971	2.6582	19.6542	9.44405412567871	343.81607797016
03-12-2017 08:00:00.00	0.1976	2.658	19.6539	9.44375657207517	344.690561723509
03-12-2017 09:00:00.00	0.197	2.6578	19.6578	9.44762476892128	343.646220367796
03-12-2017 10:00:00.00	0.1974	2.6573	19.6527	9.44256635766098	344.349715710003
03-12-2017 11:00:00.00	0.1973	2.6572	19.657	9.44683129264516	344.176419843737
03-12-2017 12:00:00.00	0.1973	2.6569	19.6591	9.44891416786999	344.179860126212
03-12-2017 13:00:00.00	0.1978	2.6567	19.6546	9.44445086381677	345.054384181981
03-12-2017 14:00:00.00	0.1983	2.6565	19.6586	9.44841824519741	345.928919893207
03-12-2017 15:00:00.00	0.199	2.6562	19.6583	9.44812069159386	347.153520811819
03-12-2017 16:00:00.00	0.1982	2.656	19.6579	9.4477239534558	345.760232897952
03-12-2017 17:00:00.00	0.197	2.6558	19.6579	9.4477239534558	343.669121092216
03-12-2017 18:00:00.00	0.1982	2.6556	19.6658	9.45555953168255	345.764841249278
03-12-2017 19:00:00.00	0.1976	2.6551	19.6613	9.45109622762934	344.723869464026
03-12-2017 20:00:00.00	0.1988	2.6551	19.6614	9.45119541216385	346.817334258342
03-12-2017 21:00:00.00	0.1975	2.6551	19.6658	9.45555953168255	344.5494140645
03-12-2017 22:00:00.00	0.1982	2.6547	19.6651	9.45486523994093	345.775210488915
03-12-2017 23:00:00.00	0.1987	2.6546	19.6655	9.455261978079	346.64865419548
04-12-2017 00:00:00.00	0.1976	2.6542	19.6747	9.46438695525445	344.734207657908
04-12-2017 01:00:00.00	0.1985	2.6537	19.6705	9.46022120480479	346.310123210163
04-12-2017 02:00:00.00	0.198	2.6535	19.6782	9.46785841396251	345.440107707528
04-12-2017 03:00:00.00	0.1978	2.6534	19.6772	9.46686656861735	345.092328248612
04-12-2017 04:00:00.00	0.1981	2.6531	19.6748	9.46448613978897	345.619179202079
04-12-2017 05:00:00.00	0.1964	2.6528	19.6719	9.46160978828801	342.656665279291
04-12-2017 06:00:00.00	0.1974	2.6525	19.6818	9.47142905720507	344.404796019979
04-12-2017 07:00:00.00	0.1983	2.6522	19.6816	9.47123068813604	345.978489454775
04-12-2017 08:00:00.00	0.1989	2.6519	19.6815	9.47113150360153	347.02879234556
04-12-2017 09:00:00.00	0.1989	2.6519	19.6861	9.47569399218925	347.02879234556
04-12-2017 10:00:00.00	0.1981	2.6517	19.6862	9.47579317672377	345.635303947167
04-12-2017 11:00:00.00	0.1982	2.6515	19.6881	9.47767768287957	345.812083933932
04-12-2017 12:00:00.00	0.1986	2.6515	19.6939	9.48343038588149	346.509989249641
04-12-2017 13:00:00.00	0.1976	2.6512	19.6925	9.48204180239827	344.768672782984
04-12-2017 14:00:00.00	0.1973	2.6509	19.698	9.48749695179664	344.248680221573
04-12-2017 15:00:00.00	0.1974	2.6502	19.7024	9.49186107131533	344.431194913474
04-12-2017 16:00:00.00	0.1985	2.65	19.7032	9.49265454759146	346.352826221613
04-12-2017 17:00:00.00	0.1981	2.6502	19.7015	9.49096841050469	345.652582129479
04-12-2017 18:00:00.00	0.198	2.6494	19.7072	9.49662192897209	345.487309326339
04-12-2017 19:00:00.00	0.1978	2.6494	19.7069	9.49632437536854	345.138332246212
04-12-2017 20:00:00.00	0.1978	2.6489	19.7137	9.50306892371562	345.144083608345
04-12-2017 21:00:00.00	0.197	2.6486	19.7249	9.51417759158139	343.751588978633
04-12-2017 22:00:00.00	0.1982	2.6485	19.7224	9.51169797821849	345.846659931789
04-12-2017 23:00:00.00	0.1989	2.6483	19.7299	9.51913681830718	347.07042980354
05-12-2017 00:00:00.00	0.1977	2.6477	19.7267	9.51596291320267	344.983389233032
05-12-2017 01:00:00.00	0.1979	2.6475	19.7371	9.52627810479232	345.334688031815
05-12-2017 02:00:00.00	0.1989	2.6479	19.7424	9.53153488512165	347.07505680453
05-12-2017 03:00:00.00	0.1989	2.6472	19.7433	9.5324275459323	347.083154353131
05-12-2017 04:00:00.00	0.1995	2.6469	19.7458	9.53490715929519	348.13364332293
05-12-2017 05:00:00.00	0.199	2.6479	19.7537	9.54274273752194	347.249554067881
05-12-2017 06:00:00.00	0.1988	2.6454	19.7515	9.54056067776259	346.929466551968
05-12-2017 07:00:00.00	0.1986	2.6453	19.7585	9.5475035951787	346.581598161044
05-12-2017 08:00:00.00	0.1994	2.6449	19.7575	9.54651174983354	347.982336807497
05-12-2017 09:00:00.00	0.1974	2.6449	19.758	9.54700767250612	344.492042556669
05-12-2017 10:00:00.00	0.198	2.6445	19.7529	9.54194926124581	345.543737940327
05-12-2017 11:00:00.00	0.1992	2.644	19.7616	9.55057831574869	347.643736374355
05-12-2017 12:00:00.00	0.1987	2.6438	19.7638	9.55276037550804	346.773448455835
05-12-2017 13:00:00.00	0.1986	2.6435	19.7707	9.55960410838963	346.602393389004
05-12-2017 14:00:00.00	0.1976	2.6434	19.773	9.56188535268349	344.858314368162
05-12-2017 15:00:00.00	0.1989	2.6427	19.7748	9.56367067430477	347.135219046075
05-12-2017 16:00:00.00	0.1982	2.6422	19.7805	9.56932419277218	345.919292037598
05-12-2017 17:00:00.00	0.1985	2.6418	19.7803	9.56912582370314	346.447502870976
05-12-2017 18:00:00.00	0.1982	2.6414	19.7797	9.56853071649605	345.928517345139
05-12-2017 19:00:00.00	0.1986	2.6414	19.7835	9.57229972880765	346.626657642505
05-12-2017 20:00:00.00	0.1987	2.6408	19.7804	9.56922500823766	346.80812947578
05-12-2017 21:00:00.00	0.1989	2.6402	19.7745	9.56337312070123	347.164150625466
05-12-2017 22:00:00.00	0.1975	2.6399	19.7713	9.56019921559672	344.724009507122
05-12-2017 23:00:00.00	0.1991	2.6394	19.7719	9.56079432280382	347.522503172997
06-12-2017 00:00:00.00	0.1977	2.639	19.7757	9.56456333511542	345.083451023023
06-12-2017 01:00:00.00	0.1994	2.6388	19.7691	9.55801715583738	348.05310543314
06-12-2017 02:00:00.00	0.1985	2.6384	19.7753	9.56416659697736	346.48677422454
06-12-2017 03:00:00.00	0.1988	2.6379	19.7785	9.56734050208186	347.016216497203
06-12-2017 04:00:00.00	0.1983	2.6374	19.7663	9.55523998887093	346.149209615498
06-12-2017 05:00:00.00	0.1979	2.6372	19.7649	9.55385140538771	345.453279739373
06-12-2017 06:00:00.00	0.1986	2.6369	19.7644	9.55335548271513	346.678663912998
06-12-2017 07:00:00.00	0.198	2.6364	19.7648	9.5537522208532	345.63705832559
06-12-2017 08:00:00.00	0.1973	2.636	19.756	9.5450239818158	344.419702552651
06-12-2017 09:00:00.00	0.1984	2.6356	19.7624	9.55137179202482	346.34455319772
06-12-2017 10:00:00.00	0.1973	2.6352	19.7624	9.55137179202482	344.428889766555
06-12-2017 11:00:00.00	0.1977	2.6347	19.7649	9.55385140538771	345.13292828775
06-12-2017 12:00:00.00	0.1992	2.6341	19.7612	9.55018157761062	347.758496598121
06-12-2017 13:00:00.00	0.1991	2.6339	19.758	9.54700767250612	347.586237044491
06-12-2017 14:00:00.00	0.1975	2.6338	19.7608	9.54978483947256	344.794127180116
06-12-2017 15:00:00.00	0.1985	2.633	19.7637	9.55266119097352	346.549164676846
06-12-2017 16:00:00.00	0.1987	2.6323	19.7621	9.55107423842127	346.906430047732
06-12-2017 17:00:00.00	0.1978	2.632	19.7643	9.55325629818061	345.338592443195
06-12-2017 18:00:00.00	0.1989	2.6318	19.7656	9.55454569712932	347.261396066236
06-12-2017 19:00:00.00	0.198	2.6313	19.765	9.55395058992223	345.695841469334
06-12-2017 20:00:00.00	0.1984	2.6308	19.7643	9.55325629818061	346.399992680903
06-12-2017 21:00:00.00	0.1993	2.6305	19.7652	9.55414895899126	347.974844893225
06-12-2017 22:00:00.00	0.1983	2.63	19.764	9.55295874457707	346.234632891766
06-12-2017 23:00:00.00	0.198	2.6296	19.769	9.55791797130286	345.715440294105
07-12-2017 00:00:00.00	0.1977	2.6292	19.7701	9.55900900118253	345.196233844484
07-12-2017 01:00:00.00	0.199	2.6287	19.7722	9.56109187640737	347.471907027274
07-12-2017 02:00:00.00	0.1983	2.6287	19.7737	9.5625796444251	346.24964403773
07-12-2017 03:00:00.00	0.1995	2.6279	19.7766	9.56545599592606	348.354246199914
07-12-2017 04:00:00.00	0.1979	2.6275	19.7729	9.56178616814898	345.565037688678
07-12-2017 05:00:00.00	0.1991	2.627	19.7737	9.5625796444251	347.666227150899
07-12-2017 06:00:00.00	0.199	2.6267	19.7745	9.56337312070123	347.495085170958
07-12-2017 07:00:00.00	0.1983	2.6259	19.772	9.56089350733833	346.28198015806
07-12-2017 08:00:00.00	0.1995	2.6255	19.7698	9.55871144757898	348.382131716212
07-12-2017 09:00:00.00	0.1989	2.6253	19.7656	9.55454569712932	347.336682911627
07-12-2017 10:00:00.00	0.1991	2.6248	19.7622	9.55117342295578	347.691738983987
07-12-2017 11:00:00.00	0.1988	2.6247	19.7642	9.5531571136461	347.169001817695
07-12-2017 12:00:00.00	0.1984	2.6238	19.7612	9.55018157761062	346.48087374932
07-12-2017 13:00:00.00	0.199	2.6235	19.755	9.54403213647064	347.532176633316
07-12-2017 14:00:00.00	0.1983	2.6229	19.749	9.5380810643997	346.316632704176
07-12-2017 15:00:00.00	0.1981	2.6226	19.7541	9.54313947566	345.970809284927
07-12-2017 16:00:00.00	0.1999	2.6223	19.7487	9.53778351079615	349.117904451477
07-12-2017 17:00:00.00	0.198	2.6214	19.7479	9.53699003452003	345.810007022039
07-12-2017 18:00:00.00	0.1976	2.6212	19.7351	9.524294414102	345.113703438206
07-12-2017 19:00:00.00	0.1974	2.621	19.7384	9.52756750374102	344.766698261548
07-12-2017 20:00:00.00	0.1972	2.6208	19.7294	9.5186408956346	344.419688454577
07-12-2017 21:00:00.00	0.1977	2.6199	19.7216	9.51090450194237	345.303330636637
07-12-2017 22:00:00.00	0.1979	2.6196	19.7141	9.50346566185368	345.656110490906
07-12-2017 23:00:00.00	0.1992	2.6191	19.7169	9.50624282882012	347.932520164497
08-12-2017 00:00:00.00	0.1994	2.6182	19.7049	9.49434068467822	348.29230744562
08-12-2017 01:00:00.00	0.1991	2.6181	19.7041	9.4935472084021	347.769457181484
08-12-2017 02:00:00.00	0.1978	2.6177	19.696	9.48551326110632	345.503348159759
08-12-2017 03:00:00.00	0.1979	2.617	19.6925	9.48204180239827	345.686094318328
08-12-2017 04:00:00.00	0.1984	2.6165	19.6843	9.47390867056797	346.565261391695
08-12-2017 05:00:00.00	0.1988	2.6163	19.6793	9.46894944384218	347.26629890793
08-12-2017 06:00:00.00	0.1983	2.616	19.6742	9.46389103258187	346.396359886079
08-12-2017 07:00:00.00	0.1991	2.6156	19.6723	9.46200652642607	347.798465410456
08-12-2017 08:00:00.00	0.1986	2.6169	19.6637	9.45347665645771	346.909991827003
08-12-2017 09:00:00.00	0.1984	2.6149	19.6578	9.44762476892128	346.583762805759
08-12-2017 10:00:00.00	0.1973	2.6144	19.6535	9.4433598339371	344.667929482444
08-12-2017 11:00:00.00	0.1987	2.6136	19.6464	9.43631773198648	347.122887581659
08-12-2017 12:00:00.00	0.1989	2.6124	19.6338	9.42382048063749	347.486195067045
08-12-2017 13:00:00.00	0.1992	2.6118	19.633	9.42302700436136	348.017274655058
08-12-2017 14:00:00.00	0.1985	2.6119	19.6307	9.4207457600675	346.793165166194
08-12-2017 15:00:00.00	0.1985	2.6117	19.6265	9.41658000961784	346.795479610898
08-12-2017 16:00:00.00	0.1988	2.6104	19.6199	9.41003383033979	347.334671142555
08-12-2017 17:00:00.00	0.2003	2.6093	19.6127	9.40289254385465	349.968252131176
08-12-2017 18:00:00.00	0.1985	2.6091	19.6061	9.39634636457661	346.825570203515
08-12-2017 19:00:00.00	0.1985	2.6089	19.6042	9.39446185842081	346.827885080773
08-12-2017 20:00:00.00	0.1987	2.6085	19.5904	9.38077439265763	347.181968343539
08-12-2017 21:00:00.00	0.1982	2.6077	19.5912	9.38156786893376	346.317580874896
08-12-2017 22:00:00.00	0.1978	2.608	19.5844	9.37482332058668	345.615195047184
08-12-2017 23:00:00.00	0.199	2.6073	19.585	9.37541842779378	347.720073738323
09-12-2017 00:00:00.00	0.1978	2.6067	19.574	9.36450812899704	345.630190339315
09-12-2017 01:00:00.00	0.1977	2.6061	19.5763	9.3667893732909	345.462370978672
09-12-2017 02:00:00.00	0.1975	2.6057	19.572	9.36252443830672	345.117496955583
09-12-2017 03:00:00.00	0.198	2.6047	19.5676	9.35816031878802	346.002760298182
09-12-2017 04:00:00.00	0.1981	2.6047	19.5651	9.35568070542513	346.17750916702
09-12-2017 05:00:00.00	0.198	2.6046	19.5615	9.35211006218256	346.003915156625
09-12-2017 06:00:00.00	0.199	2.6051	19.5522	9.34288590047259	347.745606299794
09-12-2017 07:00:00.00	0.1996	2.6043	19.5533	9.34397693035226	348.803399008738
09-12-2017 08:00:00.00	0.1984	2.6034	19.5511	9.34179487059292	346.716799865451
09-12-2017 09:00:00.00	0.1995	2.603	19.5471	9.33782748921228	348.643775712478
09-12-2017 10:00:00.00	0.1985	2.603	19.5478	9.33852178095389	346.896187864296
09-12-2017 11:00:00.00	0.1996	2.6021	19.5393	9.33009109552005	348.829013681944
09-12-2017 12:00:00.00	0.1989	2.6014	19.5448	9.33554624491842	347.613787764463
09-12-2017 13:00:00.00	0.1988	2.6006	19.5432	9.33395929236617	347.44829810281
09-12-2017 14:00:00.00	0.1991	2.6006	19.5456	9.33633972119455	347.972616460108
09-12-2017 15:00:00.00	0.1969	2.5994	19.5415	9.3322731552794	344.141400762816
09-12-2017 16:00:00.00	0.1975	2.5991	19.5446	9.33534787584939	345.19353655777
09-12-2017 17:00:00.00	0.1988	2.5986	19.5417	9.33247152434843	347.471496413266
09-12-2017 18:00:00.00	0.1981	2.5982	19.5404	9.33118212539973	346.252628924396
09-12-2017 19:00:00.00	0.1994	2.598	19.5452	9.33594298305649	348.527184246431
09-12-2017 20:00:00.00	0.1993	2.5976	19.5431	9.33386010783165	348.357048180734
09-12-2017 21:00:00.00	0.1993	2.597	19.5415	9.3322731552794	348.364026249133
09-12-2017 22:00:00.00	0.198	2.5963	19.54	9.33078538726166	346.099795288963
09-12-2017 23:00:00.00	0.1989	2.5961	19.5406	9.33138049446876	347.675297701562
10-12-2017 00:00:00.00	0.1994	2.5955	19.5524	9.34308426954162	348.5562751885
10-12-2017 01:00:00.00	0.1984	2.5949	19.5467	9.33743075107422	346.815197267138
10-12-2017 02:00:00.00	0.1993	2.5944	19.5476	9.33832341188486	348.394267776289
10-12-2017 03:00:00.00	0.1988	2.594	19.552	9.34268753140356	347.524864285247
10-12-2017 04:00:00.00	0.1986	2.5933	19.5541	9.34477040662839	347.183356148781
10-12-2017 05:00:00.00	0.1996	2.5931	19.5522	9.34288590047259	348.933840168477
10-12-2017 06:00:00.00	0.1991	2.5922	19.5513	9.34199323966195	348.070217248612
10-12-2017 07:00:00.00	0.1999	2.5922	19.5552	9.34586143650806	349.468791702649
10-12-2017 08:00:00.00	0.1993	2.5916	19.5574	9.34804349626741	348.426841447221
10-12-2017 09:00:00.00	0.1989	2.5914	19.5546	9.34526632930097	347.729862463661
10-12-2017 10:00:00.00	0.198	2.5904	19.5584	9.34903534161257	346.167983363796
10-12-2017 11:00:00.00	0.199	2.5902	19.5545	9.34516714476645	347.918630119522
10-12-2017 12:00:00.00	0.2	2.5896	19.5544	9.34506796023194	349.673970982935
10-12-2017 13:00:00.00	0.1993	2.5894	19.5475	9.33822422735035	348.452439319184
10-12-2017 14:00:00.00	0.1986	2.5896	19.5531	9.34377856128323	347.226253186054
10-12-2017 15:00:00.00	0.2004	2.5875	19.5527	9.34338182314517	350.397891318079
10-12-2017 16:00:00.00	0.1985	2.5866	19.5484	9.33911688816099	347.086187847661
10-12-2017 17:00:00.00	0.1996	2.5863	19.5483	9.33901770362647	349.013084196277
10-12-2017 18:00:00.00	0.1989	2.5857	19.5488	9.33951362629905	347.796059734681
10-12-2017 19:00:00.00	0.1991	2.5849	19.5489	9.33961281083357	348.155081458059
10-12-2017 20:00:00.00	0.1987	2.5849	19.5509	9.34159650152388	347.455623735391
10-12-2017 21:00:00.00	0.1991	2.5843	19.5461	9.33683564386713	348.16205843901
10-12-2017 22:00:00.00	0.1991	2.584	19.5408	9.33157886353779	348.16554703435
10-12-2017 23:00:00.00	0.2005	2.583	19.5476	9.33832341188486	350.625433582012
11-12-2017 00:00:00.00	0.2001	2.5835	19.5426	9.33336418515907	349.920087590192
11-12-2017 01:00:00.00	0.1994	2.5825	19.5382	9.32900006564038	348.707626405422
11-12-2017 02:00:00.00	0.1989	2.5813	19.5421	9.3328682624865	347.847176622053
11-12-2017 03:00:00.00	0.1977	2.5807	19.538	9.32880169657135	345.755480709686
11-12-2017 04:00:00.00	0.1996	2.5805	19.5389	9.32969435738199	349.080703138779
11-12-2017 05:00:00.00	0.1988	2.5798	19.5312	9.32205714822427	347.689712046808
11-12-2017 06:00:00.00	0.1994	2.579	19.5317	9.32255307089685	348.748397270248
11-12-2017 07:00:00.00	0.1993	2.5787	19.5294	9.32027182660299	348.576991711301
11-12-2017 08:00:00.00	0.2	2.5782	19.5274	9.31828813591267	349.807139080975
11-12-2017 09:00:00.00	0.1983	2.5777	19.5206	9.3115435875656	346.839571761046
11-12-2017 10:00:00.00	0.1979	2.5774	19.5196	9.31055174222044	346.143414895263
11-12-2017 11:00:00.00	0.1981	2.5767	19.5227	9.31362646279043	346.501334397453
11-12-2017 12:00:00.00	0.1986	2.5763	19.5234	9.31432075453204	347.380538220491
11-12-2017 13:00:00.00	0.1989	2.5759	19.5183	9.30926234327173	347.909931523664
11-12-2017 14:00:00.00	0.2001	2.5754	19.516	9.30698109897787	350.014782483392
11-12-2017 15:00:00.00	0.1994	2.5747	19.5068	9.29785612180241	348.798500243415
11-12-2017 16:00:00.00	0.1999	2.5744	19.5083	9.29934388982015	349.676625214389
11-12-2017 17:00:00.00	0.198	2.574	19.5037	9.29478140123242	346.357664317849
11-12-2017 18:00:00.00	0.1992	2.5734	19.4988	9.28992135904115	348.463787247884
11-12-2017 19:00:00.00	0.201	2.5745	19.4946	9.28575560859148	351.599634021515
11-12-2017 20:00:00.00	0.2002	2.5745	19.4896	9.2807963818657	350.200232493071
11-12-2017 21:00:00.00	0.2	2.5705	19.4923	9.28347436429762	349.897143360995
11-12-2017 22:00:00.00	0.1985	2.5688	19.4812	9.27246488096637	347.292643022634
11-12-2017 23:00:00.00	0.1997	2.5682	19.4807	9.27196895829379	349.399150685373
12-12-2017 00:00:00.00	0.1997	2.567	19.4727	9.26403419553252	349.413162605548
12-12-2017 01:00:00.00	0.1995	2.5686	19.4679	9.25927333787577	349.04456093571
12-12-2017 02:00:00.00	0.2004	2.5669	19.4691	9.26046355228996	350.639117653404
12-12-2017 03:00:00.00	0.2002	2.5673	19.4716	9.26294316565285	350.284495923551
12-12-2017 04:00:00.00	0.1995	2.5635	19.4625	9.25391737301191	349.104058120313
12-12-2017 05:00:00.00	0.1985	2.563	19.4706	9.26195132030769	347.359967997385
12-12-2017 06:00:00.00	0.1983	2.5613	19.4648	9.25619861730578	347.02970138488
12-12-2017 07:00:00.00	0.2002	2.5643	19.4622	9.25361981940836	350.31961765536
12-12-2017 08:00:00.00	0.2	2.5577	19.4617	9.25312389673579	350.046863398955
12-12-2017 09:00:00.00	0.1995	2.5549	19.4622	9.25361981940836	349.204432659286
12-12-2017 10:00:00.00	0.1997	2.5496	19.4592	9.25064428337289	349.616461812779
12-12-2017 11:00:00.00	0.198	2.5532	19.4616	9.25302471220127	346.598534497372
12-12-2017 12:00:00.00	0.2	2.5557	19.4545	9.24598261025065	350.070268729867
12-12-2017 13:00:00.00	0.1999	2.5489	19.4567	9.24816467001	349.974795336963
12-12-2017 14:00:00.00	0.1985	2.559	19.4541	9.24558587211258	347.406414225006
12-12-2017 15:00:00.00	0.2008	2.549	19.4649	9.25629780184029	351.549294196513
12-12-2017 16:00:00.00	0.1994	2.5412	19.464	9.25540514102965	349.189330875489
12-12-2017 17:00:00.00	0.1994	2.5359	19.4608	9.25223123592514	349.251244041163
12-12-2017 18:00:00.00	0.2003	2.5395	19.4669	9.25828149253061	350.785357276988
12-12-2017 19:00:00.00	0.1989	2.538	19.4637	9.2551075874261	348.35101592747
12-12-2017 20:00:00.00	0.199	2.5374	19.471	9.26234805844576	348.533150073786
12-12-2017 21:00:00.00	0.1998	2.5386	19.4745	9.26581951715381	349.920241653027
12-12-2017 22:00:00.00	0.2005	2.5374	19.4819	9.27315917270798	351.160284370824
12-12-2017 23:00:00.00	0.1988	2.5353	19.4876	9.27881269117538	348.207326916218
13-12-2017 00:00:00.00	0.2007	2.5333	19.4918	9.28297844162504	351.558786611051
13-12-2017 01:00:00.00	0.1994	2.532	19.4892	9.28039964372763	349.29681680941
13-12-2017 02:00:00.00	0.2002	2.531	19.5011	9.29220260333501	350.709942381615
13-12-2017 03:00:00.00	0.1994	2.5308	19.5011	9.29220260333501	349.310841592473
13-12-2017 04:00:00.00	0.2001	2.5305	19.5088	9.29983981249273	350.540627019255
13-12-2017 05:00:00.00	0.1991	2.5303	19.513	9.3040055629424	348.791133901056
13-12-2017 06:00:00.00	0.2001	2.5301	19.5227	9.31362646279043	350.545318703769
13-12-2017 07:00:00.00	0.1989	2.5303	19.5242	9.31511423080816	348.440766112105
13-12-2017 08:00:00.00	0.1988	2.5309	19.5395	9.33028946458908	348.258590552288
13-12-2017 09:00:00.00	0.2	2.5308	19.549	9.33971199536808	350.361927374597
13-12-2017 10:00:00.00	0.1993	2.5311	19.5558	9.34645654371516	349.132156085863
13-12-2017 11:00:00.00	0.2001	2.5313	19.5644	9.35498641368352	350.531244026976
13-12-2017 12:00:00.00	0.1992	2.5323	19.5771	9.36758284956703	348.942966445788
13-12-2017 13:00:00.00	0.1992	2.5325	19.5862	9.37660864220797	348.940631482695
13-12-2017 14:00:00.00	0.2	2.5324	19.5903	9.38067520812311	350.343171646923
13-12-2017 15:00:00.00	0.1991	2.5325	19.6059	9.39614799550758	348.765460482955
13-12-2017 16:00:00.00	0.1994	2.5329	19.6114	9.40160314490595	349.28629896115
13-12-2017 17:00:00.00	0.2006	2.5336	19.6219	9.41201752103011	351.380093487424
13-12-2017 18:00:00.00	0.2002	2.5345	19.6321	9.42213434355072	350.668876359356
13-12-2017 19:00:00.00	0.2007	2.5356	19.6417	9.43165605886424	351.531736046922
13-12-2017 20:00:00.00	0.1995	2.5362	19.6536	9.44345901847162	349.422888253579
13-12-2017 21:00:00.00	0.1987	2.5367	19.661	9.45079867402579	348.015872536306
13-12-2017 22:00:00.00	0.2002	2.5366	19.6642	9.45397257913029	350.644241361918
13-12-2017 23:00:00.00	0.2005	2.537	19.6745	9.46418858618542	351.164983264055
14-12-2017 00:00:00.00	0.1996	2.537	19.6826	9.4722225334812	349.588681593543
14-12-2017 01:00:00.00	0.1989	2.5373	19.6816	9.47123068813604	348.359173124578
14-12-2017 02:00:00.00	0.2002	2.5381	19.7028	9.4922578094534	350.626647054226
14-12-2017 03:00:00.00	0.1996	2.5387	19.6983	9.48779450540018	349.568801804069
14-12-2017 04:00:00.00	0.1985	2.5392	19.7038	9.49324965479855	347.636506085338
14-12-2017 05:00:00.00	0.1992	2.5398	19.7093	9.49870480419692	348.855426710606
14-12-2017 06:00:00.00	0.1993	2.5398	19.7145	9.50386239999174	349.030554936866
14-12-2017 07:00:00.00	0.1982	2.5399	19.7124	9.50177952476691	347.102983406183
14-12-2017 08:00:00.00	0.2003	2.54	19.7237	9.5129873771672	350.779490520373
14-12-2017 09:00:00.00	0.1989	2.5401	19.7258	9.51507025239203	348.326546628097
14-12-2017 10:00:00.00	0.1995	2.5403	19.7224	9.51169797821849	349.374968181923
14-12-2017 11:00:00.00	0.1995	2.5406	19.7222	9.51149960914946	349.371462351258
14-12-2017 12:00:00.00	0.1997	2.5407	19.7196	9.50892081125205	349.7205396652
14-12-2017 13:00:00.00	0.1989	2.5407	19.7224	9.51169797821849	348.319556031088
14-12-2017 14:00:00.00	0.1993	2.5408	19.723	9.51229308542559	349.018880432891
14-12-2017 15:00:00.00	0.1994	2.5409	19.7251	9.51437596065042	349.1928348082
14-12-2017 16:00:00.00	0.2	2.5409	19.7291	9.51834334203105	350.243565504714
14-12-2017 17:00:00.00	0.1985	2.5409	19.7247	9.51397922251235	347.616738763429
14-12-2017 18:00:00.00	0.1996	2.5406	19.7216	9.51090450194237	349.546585891284
14-12-2017 19:00:00.00	0.1995	2.5406	19.7264	9.51566535959913	349.371462351258
14-12-2017 20:00:00.00	0.1995	2.5406	19.7164	9.50574690614754	349.371462351258
14-12-2017 21:00:00.00	0.2002	2.5406	19.7091	9.49850643512789	350.597327131438
14-12-2017 22:00:00.00	0.1994	2.5405	19.7116	9.50098604849079	349.197506827871
14-12-2017 23:00:00.00	0.1995	2.5403	19.7111	9.5004901258182	349.374968181923
15-12-2017 00:00:00.00	0.1994	2.54	19.7071	9.49652274443758	349.203347028269
15-12-2017 01:00:00.00	0.1991	2.5402	19.7062	9.49563008362693	348.675633275333
15-12-2017 02:00:00.00	0.2008	2.5399	19.7011	9.49057167236663	351.656302058333
15-12-2017 03:00:00.00	0.1999	2.5395	19.6963	9.48581081470987	350.084837342336
15-12-2017 04:00:00.00	0.1989	2.5394	19.6961	9.48561244564084	348.334702679256
15-12-2017 05:00:00.00	0.199	2.5393	19.693	9.48253772507085	348.510999015885
15-12-2017 06:00:00.00	0.1998	2.5388	19.6923	9.48184343332924	349.917900643912
15-12-2017 07:00:00.00	0.1989	2.5385	19.6846	9.47420622417152	348.345189591992
15-12-2017 08:00:00.00	0.1998	2.5387	19.685	9.47460296230958	349.919071144554
15-12-2017 09:00:00.00	0.2006	2.5384	19.6763	9.46597390780671	351.323674115663
15-12-2017 10:00:00.00	0.2002	2.5375	19.6812	9.47083394999798	350.633684565419
15-12-2017 11:00:00.00	0.2005	2.538	19.6741	9.46379184804736	351.153236266756
15-12-2017 12:00:00.00	0.2007	2.5371	19.6733	9.46299837177123	351.514096617266
15-12-2017 13:00:00.00	0.1996	2.5368	19.6788	9.4684535211696	349.59102054096
15-12-2017 14:00:00.00	0.2001	2.5363	19.6785	9.46815596756605	350.472611703862
15-12-2017 15:00:00.00	0.2006	2.5353	19.6715	9.46121305014995	351.360109554292
15-12-2017 16:00:00.00	0.2007	2.5352	19.6751	9.46478369339252	351.536440193825
15-12-2017 17:00:00.00	0.1995	2.5351	19.6746	9.46428777071994	349.435747094766
15-12-2017 18:00:00.00	0.1991	2.5345	19.6705	9.46022120480479	348.742124291448
15-12-2017 19:00:00.00	0.1998	2.5338	19.666	9.45575790075158	349.976435270352
15-12-2017 20:00:00.00	0.1994	2.5336	19.6687	9.45843588318351	349.27811885041
15-12-2017 21:00:00.00	0.1993	2.5328	19.6662	9.45595626982061	349.112298338162
15-12-2017 22:00:00.00	0.2002	2.5327	19.6669	9.45665056156222	350.689994826709
15-12-2017 23:00:00.00	0.2001	2.5323	19.6639	9.45367502552675	350.519515992983
16-12-2017 00:00:00.00	0.1991	2.5318	19.6632	9.45298073378514	348.773628887832
16-12-2017 01:00:00.00	0.2004	2.5312	19.6633	9.45307991831965	351.057952730923
16-12-2017 02:00:00.00	0.2008	2.5306	19.6576	9.44742639985225	351.765729069685
16-12-2017 03:00:00.00	0.1996	2.5305	19.6551	9.44494678648936	349.664713408512
16-12-2017 04:00:00.00	0.1997	2.5298	19.6539	9.44375657207517	349.848090248124
16-12-2017 05:00:00.00	0.2001	2.5294	19.648	9.43790468453873	350.553529453872
16-12-2017 06:00:00.00	0.2005	2.5292	19.6466	9.43651610105551	351.256636823342
16-12-2017 07:00:00.00	0.2007	2.5285	19.6396	9.42957318363941	351.61525337453
16-12-2017 08:00:00.00	0.2002	2.5276	19.6338	9.42382048063749	350.749844300007
16-12-2017 09:00:00.00	0.1994	2.5266	19.6329	9.42292781982685	349.359937203515
16-12-2017 10:00:00.00	0.1991	2.5261	19.624	9.41410039625494	348.840157287489
16-12-2017 11:00:00.00	0.2001	2.5256	19.6183	9.40844687778754	350.598108809674
16-12-2017 12:00:00.00	0.2004	2.5254	19.6106	9.40080966862982	351.126093269813
16-12-2017 13:00:00.00	0.2009	2.5252	19.6086	9.3988259779395	352.004512385968
16-12-2017 14:00:00.00	0.2013	2.5245	19.5994	9.38970100076405	352.713630261673
16-12-2017 15:00:00.00	0.2	2.5238	19.5969	9.38722138740116	350.44400730059
16-12-2017 16:00:00.00	0.2001	2.5232	19.5895	9.37988173184699	350.626270034585
16-12-2017 17:00:00.00	0.2001	2.5227	19.585	9.37541842779378	350.63213752588
16-12-2017 18:00:00.00	0.2009	2.522	19.5737	9.36421057539349	352.042212822748
16-12-2017 19:00:00.00	0.2011	2.5213	19.567	9.35756521158093	352.400934200682
16-12-2017 20:00:00.00	0.1996	2.5208	19.5704	9.36093748575447	349.778237793405
16-12-2017 21:00:00.00	0.2006	2.5202	19.5636	9.35419293740739	351.537693515279
16-12-2017 22:00:00.00	0.2006	2.5197	19.5556	9.34625817464613	351.543576849345
16-12-2017 23:00:00.00	0.1994	2.5192	19.5509	9.34159650152388	349.446472581455
17-12-2017 00:00:00.00	0.2005	2.5186	19.5501	9.34080302524776	351.381268374568
17-12-2017 01:00:00.00	0.1997	2.5182	19.552	9.34268753140356	349.983934387949
17-12-2017 02:00:00.00	0.2002	2.5176	19.5467	9.33743075107422	350.867255525441
17-12-2017 03:00:00.00	0.1999	2.517	19.5472	9.3379266737468	350.348517030285
17-12-2017 04:00:00.00	0.2005	2.5165	19.5451	9.33584379852197	351.405970028138
17-12-2017 05:00:00.00	0.1992	2.5156	19.5394	9.33019028005457	349.138046168809
17-12-2017 06:00:00.00	0.2009	2.5151	19.537	9.32780985122619	352.123531875794
17-12-2017 07:00:00.00	0.1998	2.5144	19.5325	9.32334654717298	350.203735141932
17-12-2017 08:00:00.00	0.1999	2.5139	19.5278	9.31868487405073	350.384877367659
17-12-2017 09:00:00.00	0.2003	2.5136	19.5308	9.32166041008621	351.089523867217
17-12-2017 10:00:00.00	0.199	2.5131	19.5298	9.32066856474105	348.81669894565
17-12-2017 11:00:00.00	0.1998	2.5125	19.5297	9.32056938020653	350.226012344678
17-12-2017 12:00:00.00	0.2017	2.5119	19.523	9.31392401639397	353.563592338619
17-12-2017 13:00:00.00	0.2008	2.5117	19.5257	9.3166019988259	351.988322962679
17-12-2017 14:00:00.00	0.2002	2.5109	19.5249	9.31580852254977	350.945965032074
17-12-2017 15:00:00.00	0.2009	2.5101	19.5124	9.3034104557353	352.182482204924
17-12-2017 16:00:00.00	0.2004	2.5099	19.5224	9.31332890918688	351.308322857047
17-12-2017 17:00:00.00	0.1997	2.5095	19.5148	9.30579088456368	350.085886744148
17-12-2017 18:00:00.00	0.2009	2.5086	19.5121	9.30311290213175	352.200171152804
17-12-2017 19:00:00.00	0.2011	2.5081	19.5106	9.30162513411402	352.55669610442
17-12-2017 20:00:00.00	0.2004	2.5072	19.5069	9.29795530633693	351.340085421224
17-12-2017 21:00:00.00	0.2017	2.5069	19.4998	9.29091320438631	353.622790096437
17-12-2017 22:00:00.00	0.2013	2.5062	19.5017	9.29279771054211	352.929778265073
17-12-2017 23:00:00.00	0.2005	2.5057	19.501	9.2921034188005	351.533061982538
18-12-2017 00:00:00.00	0.2005	2.5055	19.4945	9.28565642405697	351.53541640422
18-12-2017 01:00:00.00	0.1995	2.5047	19.4862	9.27742410769216	349.791493586358
18-12-2017 02:00:00.00	0.2013	2.5045	19.4877	9.27891187570989	352.949871036536
18-12-2017 03:00:00.00	0.1995	2.5041	19.4849	9.27613470874345	349.798522188036
18-12-2017 04:00:00.00	0.2011	2.5031	19.4771	9.26839831505122	352.615732788183
18-12-2017 05:00:00.00	0.1995	2.5026	19.4804	9.27167140469024	349.816094928059
18-12-2017 06:00:00.00	0.2005	2.5023	19.4743	9.26562114808478	351.573091440759
18-12-2017 07:00:00.00	0.1998	2.5016	19.4598	9.25123939057999	350.353867927744
18-12-2017 08:00:00.00	0.2009	2.5015	19.4624	9.25381818847739	352.283922955909
18-12-2017 09:00:00.00	0.2002	2.5007	19.4628	9.25421492661546	351.065859271305
18-12-2017 10:00:00.00	0.2001	2.5	19.4553	9.24677608652678	350.898728627795
18-12-2017 11:00:00.00	0.2009	2.4994	19.4483	9.23983316911067	352.308702249413
18-12-2017 12:00:00.00	0.2014	2.4989	19.4478	9.23933724643809	353.191443318236
18-12-2017 13:00:00.00	0.1998	2.4979	19.443	9.23457638878133	350.397289671703
18-12-2017 14:00:00.00	0.201	2.498	19.4476	9.23913887736906	352.500597146534
18-12-2017 15:00:00.00	0.2007	2.4967	19.4413	9.23289025169456	351.989804326816
18-12-2017 16:00:00.00	0.2003	2.4965	19.4429	9.23447720424682	351.290633544678
18-12-2017 17:00:00.00	0.1997	2.4962	19.4427	9.23427883517778	350.241859805672
18-12-2017 18:00:00.00	0.2014	2.4955	19.4371	9.2287245012449	353.231670779664
18-12-2017 19:00:00.00	0.2011	2.4952	19.4399	9.23150166821134	352.709051057959
18-12-2017 20:00:00.00	0.2002	2.4952	19.4398	9.23140248367683	351.130542127316
18-12-2017 21:00:00.00	0.201	2.4945	19.4385	9.23011308472812	352.541928153534
18-12-2017 22:00:00.00	0.2016	2.4943	19.4381	9.22971634659005	353.596661233684
18-12-2017 23:00:00.00	0.2008	2.4936	19.4406	9.23219595995295	352.201759128515
19-12-2017 00:00:00.00	0.1999	2.4929	19.4472	9.23874213923099	350.631388202638
19-12-2017 01:00:00.00	0.1998	2.4922	19.4387	9.23031145379715	350.464203694987
19-12-2017 02:00:00.00	0.2007	2.4919	19.4484	9.23993235364518	352.046409644956
19-12-2017 03:00:00.00	0.2007	2.4921	19.4497	9.24122175259389	352.044050726548
19-12-2017 04:00:00.00	0.2014	2.492	19.4476	9.23913887736906	353.273090974662
19-12-2017 05:00:00.00	0.2014	2.4891	19.461	9.25242960499417	353.30741792431
19-12-2017 06:00:00.00	0.2007	2.4884	19.459	9.25044591430386	352.087695834966
19-12-2017 07:00:00.00	0.201	2.4882	19.4601	9.25153694418353	352.616348395618
19-12-2017 08:00:00.00	0.2006	2.4879	19.4663	9.25768638532351	351.918161870039
19-12-2017 09:00:00.00	0.2016	2.4876	19.4672	9.25857904613415	353.676044953067
19-12-2017 10:00:00.00	0.2002	2.487	19.4712	9.26254642751479	351.227022656248
19-12-2017 11:00:00.00	0.2004	2.4866	19.4693	9.26066192135899	351.582611229317
19-12-2017 12:00:00.00	0.1999	2.4864	19.4805	9.27177058922476	350.70775948725
19-12-2017 13:00:00.00	0.2016	2.4855	19.4896	9.2807963818657	353.700933754675
19-12-2017 14:00:00.00	0.2006	2.4849	19.494	9.28516050138439	351.953541290388
19-12-2017 15:00:00.00	0.2018	2.4844	19.4942	9.28535887045342	354.064878862439
19-12-2017 16:00:00.00	0.2005	2.4838	19.4963	9.28744174567826	351.791058639832
19-12-2017 17:00:00.00	0.2017	2.4833	19.5029	9.2939879249563	353.902471321837
19-12-2017 18:00:00.00	0.2006	2.4829	19.5099	9.3009308423724	351.977131522888
19-12-2017 19:00:00.00	0.2006	2.4823	19.5142	9.30519577735658	351.984209209307
19-12-2017 20:00:00.00	0.1998	2.4814	19.521	9.31194032570366	350.591058271568
19-12-2017 21:00:00.00	0.1998	2.4809	19.5208	9.31174195663463	350.596933392847
19-12-2017 22:00:00.00	0.2008	2.4804	19.5266	9.31749465963654	352.357577523405
19-12-2017 23:00:00.00	0.2005	2.4794	19.5302	9.32106530287911	351.842939277314
20-12-2017 00:00:00.00	0.2019	2.4787	19.5356	9.32642126774297	354.308010746185
20-12-2017 01:00:00.00	0.2003	2.4779	19.5427	9.33346336969359	351.50964618457
20-12-2017 02:00:00.00	0.2004	2.4774	19.5478	9.33852178095389	351.691031917295
20-12-2017 03:00:00.00	0.2009	2.4764	19.5543	9.34496877569742	352.580322851957
20-12-2017 04:00:00.00	0.2006	2.4759	19.5609	9.35151495497547	352.05972224594
20-12-2017 05:00:00.00	0.2014	2.4753	19.5645	9.35508559821803	353.470858302185
20-12-2017 06:00:00.00	0.2011	2.4734	19.5661	9.35667255077029	352.966818626693
20-12-2017 07:00:00.00	0.2014	2.4722	19.5767	9.36718611142896	353.507593971498
20-12-2017 08:00:00.00	0.2002	2.4706	19.5743	9.36480568260058	351.420142861942
20-12-2017 09:00:00.00	0.2005	2.4699	19.5826	9.37303799896539	351.955006493263
20-12-2017 10:00:00.00	0.2011	2.4694	19.5876	9.37799722569118	353.014156341632
20-12-2017 11:00:00.00	0.2011	2.4689	19.593	9.38335319055504	353.020074448791
20-12-2017 12:00:00.00	0.2004	2.4683	19.5999	9.39019692343663	351.798339922618
20-12-2017 13:00:00.00	0.2015	2.4677	19.6068	9.39704065631822	353.736485137705
20-12-2017 14:00:00.00	0.2021	2.467	19.6185	9.40864524685657	354.798122326176
20-12-2017 15:00:00.00	0.2013	2.4662	19.6244	9.414497134393	353.403156527472
20-12-2017 16:00:00.00	0.2005	2.4657	19.6308	9.42084494460202	352.004574760303
20-12-2017 17:00:00.00	0.2006	2.4653	19.6393	9.42927563003586	352.184862009635
20-12-2017 18:00:00.00	0.2019	2.4644	19.6389	9.42887889189779	354.477914603795
20-12-2017 19:00:00.00	0.2007	2.4637	19.6449	9.43482996396874	352.379333912462
20-12-2017 20:00:00.00	0.2009	2.463	19.6523	9.44216961952291	352.738764550474
20-12-2017 21:00:00.00	0.2009	2.4628	19.6655	9.455261978079	352.741130430501
20-12-2017 22:00:00.00	0.2007	2.4619	19.6636	9.4533774719232	352.40060577787
20-12-2017 23:00:00.00	0.2002	2.4608	19.6732	9.46289918723672	351.535645363255
21-12-2017 00:00:00.00	0.2006	2.4601	19.685	9.47460296230958	352.246283858774
21-12-2017 01:00:00.00	0.1993	2.4589	19.6914	9.48095077251859	349.977616710028
21-12-2017 02:00:00.00	0.2012	2.4584	19.6994	9.48888553527986	353.320006917486
21-12-2017 03:00:00.00	0.2011	2.4577	19.7058	9.49523334548887	353.152692072786
21-12-2017 04:00:00.00	0.2016	2.4569	19.715	9.50435832266432	354.04024457648
21-12-2017 05:00:00.00	0.2002	2.456	19.717	9.50634201335464	351.592245722587
21-12-2017 06:00:00.00	0.2017	2.4554	19.725	9.5142767761159	354.233682603881
21-12-2017 07:00:00.00	0.2011	2.455	19.7288	9.5180457884275	353.184677299674
21-12-2017 08:00:00.00	0.2023	2.4542	19.7341	9.52330256875684	355.301728796698
21-12-2017 09:00:00.00	0.2	2.4536	19.7418	9.53093977791456	351.269283454219
21-12-2017 10:00:00.00	0.2018	2.4528	19.7479	9.53699003452003	354.440219107988
21-12-2017 11:00:00.00	0.2009	2.452	19.7513	9.54036230869356	352.868935098111
21-12-2017 12:00:00.00	0.2004	2.4515	19.7574	9.54641256529903	351.996619146245
21-12-2017 13:00:00.00	0.2007	2.451	19.7591	9.54809870238579	352.529473624489
21-12-2017 14:00:00.00	0.2008	2.4506	19.765	9.55395058992223	352.709856831767
21-12-2017 15:00:00.00	0.2008	2.4492	19.7695	9.55841389397544	352.726424190906
21-12-2017 16:00:00.00	0.2011	2.4487	19.7662	9.55514080433642	353.2593320321
21-12-2017 17:00:00.00	0.2019	2.4479	19.7654	9.55434732806029	354.674160111299
21-12-2017 18:00:00.00	0.1997	2.4474	19.7639	9.55285956004255	350.815344399657
21-12-2017 19:00:00.00	0.2029	2.4467	19.7628	9.55176853016288	356.44519403926
21-12-2017 20:00:00.00	0.2025	2.4458	19.7654	9.55434732806029	355.753236063196
21-12-2017 21:00:00.00	0.201	2.4451	19.7681	9.55702531049222	353.126321313926
21-12-2017 22:00:00.00	0.1997	2.4445	19.7629	9.55186771469739	350.849483551141
21-12-2017 23:00:00.00	0.2015	2.4438	19.7632	9.55216526830094	354.020188251597
22-12-2017 00:00:00.00	0.2011	2.443	19.758	9.54700767250612	353.326903990134
22-12-2017 01:00:00.00	0.1999	2.4425	19.7519	9.54095741590065	351.224431796968
22-12-2017 02:00:00.00	0.2006	2.4419	19.7518	9.54085823136614	352.461429149569
22-12-2017 03:00:00.00	0.2012	2.4408	19.7525	9.54155252310775	353.528701399819
22-12-2017 04:00:00.00	0.2012	2.4403	19.7547	9.5437345828671	353.534633821847
22-12-2017 05:00:00.00	0.2012	2.4394	19.7566	9.5456190890229	353.545312683241
22-12-2017 06:00:00.00	0.201	2.439	19.749	9.5380810643997	353.198617640356
22-12-2017 07:00:00.00	0.2019	2.4382	19.7453	9.53441123662261	354.78963013348
22-12-2017 08:00:00.00	0.2007	2.4373	19.7413	9.53044385524198	352.691578876133
22-12-2017 09:00:00.00	0.2012	2.4362	19.741	9.53014630163843	353.583287193526
22-12-2017 10:00:00.00	0.2012	2.4357	19.7389	9.5280634264136	353.589221447675
22-12-2017 11:00:00.00	0.2014	2.4349	19.7432	9.53232836139778	353.950206446642
22-12-2017 12:00:00.00	0.2018	2.4346	19.7423	9.53143570058714	354.656757460788
22-12-2017 13:00:00.00	0.2008	2.4338	19.7385	9.52766668827554	352.908767916403
22-12-2017 14:00:00.00	0.2013	2.4333	19.7417	9.53084059338005	353.793462968906
22-12-2017 15:00:00.00	0.2015	2.4328	19.7444	9.53351857581197	354.150915885238
22-12-2017 16:00:00.00	0.2014	2.4316	19.7475	9.53659329638196	353.989418563768
22-12-2017 17:00:00.00	0.2019	2.431	19.7506	9.53966801695195	354.875388469028
22-12-2017 18:00:00.00	0.2012	2.4305	19.7565	9.54551990448838	353.650949500947
22-12-2017 19:00:00.00	0.202	2.4299	19.7647	9.55365303631868	355.064268478226
22-12-2017 20:00:00.00	0.2009	2.4292	19.7627	9.55166934562836	353.139049318039
22-12-2017 21:00:00.00	0.2012	2.4287	19.7613	9.55028076214514	353.672321925766
22-12-2017 22:00:00.00	0.2012	2.4281	19.768	9.5569261259577	353.679446641435
22-12-2017 23:00:00.00	0.2016	2.4274	19.7732	9.56208372175252	354.3909157514
23-12-2017 00:00:00.00	0.2013	2.4268	19.7776	9.56644784127122	353.87067719632
23-12-2017 01:00:00.00	0.2009	2.4259	19.7892	9.57795324727505	353.178179059368
23-12-2017 02:00:00.00	0.2012	2.4257	19.7914	9.5801353070344	353.707948374883
23-12-2017 03:00:00.00	0.2016	2.4254	19.7999	9.58856599246824	354.414715214591
23-12-2017 04:00:00.00	0.2022	2.4244	19.8004	9.58906191514082	355.481457264413
23-12-2017 05:00:00.00	0.2009	2.4238	19.8053	9.5939219573321	353.203084319123
23-12-2017 06:00:00.00	0.2016	2.4236	19.8055	9.59412032640113	354.43613746468
23-12-2017 07:00:00.00	0.2018	2.4232	19.8147	9.60324530357658	354.792526191706
23-12-2017 08:00:00.00	0.2017	2.4223	19.8144	9.60294774997303	354.62742995172
23-12-2017 09:00:00.00	0.2015	2.4219	19.8217	9.61018822099269	354.280550354703
23-12-2017 10:00:00.00	0.2009	2.421	19.8227	9.61118006633785	353.236296796556
23-12-2017 11:00:00.00	0.2031	2.4209	19.8284	9.61683358480525	357.105688461525
23-12-2017 12:00:00.00	0.2016	2.4202	19.8307	9.61911482909911	354.476608781363
23-12-2017 13:00:00.00	0.2027	2.4196	19.8349	9.62328057954878	356.417938875326
23-12-2017 14:00:00.00	0.2004	2.4192	19.841	9.62933083615424	352.37846319101
23-12-2017 15:00:00.00	0.2009	2.4182	19.8424	9.63071941963746	353.269515520665
23-12-2017 16:00:00.00	0.2006	2.4179	19.8432	9.63151289591359	352.745539338346
23-12-2017 17:00:00.00	0.2011	2.4177	19.8505	9.63875336693324	353.627140923511
23-12-2017 18:00:00.00	0.2017	2.417	19.844	9.63230637218972	354.69055842573
23-12-2017 19:00:00.00	0.2009	2.4164	19.8545	9.64272074831388	353.290873714181
23-12-2017 20:00:00.00	0.2011	2.4161	19.8534	9.6416297184342	353.646145395062
23-12-2017 21:00:00.00	0.2022	2.4157	19.8515	9.6397452122784	355.585337341893
23-12-2017 22:00:00.00	0.2014	2.415	19.854	9.64222482564129	354.18679924344
23-12-2017 23:00:00.00	0.2019	2.4146	19.8548	9.64301830191742	355.070881750211
24-12-2017 00:00:00.00	0.2004	2.4143	19.8553	9.64351422459	352.436462379966
24-12-2017 01:00:00.00	0.2012	2.4139	19.8636	9.65174654095481	353.848148740175
24-12-2017 02:00:00.00	0.2018	2.4135	19.8639	9.65204409455836	354.908130588253
24-12-2017 03:00:00.00	0.2013	2.4129	19.8719	9.65997885731962	354.03591000481
24-12-2017 04:00:00.00	0.2011	2.4126	19.8682	9.65630902954254	353.6877247988
24-12-2017 05:00:00.00	0.2018	2.412	19.8647	9.65283757083448	354.92601428287
24-12-2017 06:00:00.00	0.2014	2.4114	19.8705	9.6585902738364	354.229633739574
24-12-2017 07:00:00.00	0.202	2.4115	19.8707	9.65878864290543	355.283741996112
24-12-2017 08:00:00.00	0.2023	2.4111	19.8673	9.6554163687319	355.816172385003
24-12-2017 09:00:00.00	0.2021	2.4106	19.8792	9.66721932833928	355.470372432694
24-12-2017 10:00:00.00	0.2021	2.4102	19.8813	9.66930220356411	355.475149261746
24-12-2017 11:00:00.00	0.2013	2.4099	19.8849	9.67287284680668	354.071592009478
24-12-2017 12:00:00.00	0.2025	2.409	19.8854	9.67336876947926	356.193071772112
24-12-2017 13:00:00.00	0.2015	2.4085	19.8905	9.67842718073956	354.440047609302
24-12-2017 14:00:00.00	0.2021	2.4082	19.8958	9.6836839610689	355.499035332875
24-12-2017 15:00:00.00	0.2014	2.4074	19.9092	9.69697468869402	354.277239777123
24-12-2017 16:00:00.00	0.2014	2.407	19.9004	9.68824644965663	354.282001084659
24-12-2017 17:00:00.00	0.2015	2.407	19.9017	9.68953584860533	354.457910717769
24-12-2017 18:00:00.00	0.2023	2.4064	19.9062	9.69399915265854	355.872361900414
24-12-2017 19:00:00.00	0.2025	2.4055	19.9084	9.69618121241789	356.234960617565
24-12-2017 20:00:00.00	0.202	2.405	19.9061	9.69389996812403	355.361338269689
24-12-2017 21:00:00.00	0.2025	2.4047	19.91	9.69776816497015	356.244536594204
24-12-2017 22:00:00.00	0.2016	2.4043	19.9132	9.70094207007465	354.665994443249
24-12-2017 23:00:00.00	0.2025	2.4038	19.9186	9.70629803493851	356.255310183318
25-12-2017 00:00:00.00	0.2007	2.4037	19.918	9.70570292773141	353.089782779764
25-12-2017 01:00:00.00	0.2018	2.4034	19.9156	9.70332249890303	355.028582263905
25-12-2017 02:00:00.00	0.2026	2.4028	19.9205	9.70818254109431	356.443216062225
25-12-2017 03:00:00.00	0.2022	2.403	19.9183	9.70600048133496	355.73708742107
25-12-2017 04:00:00.00	0.2024	2.4027	19.9165	9.70421515971367	356.092543737058
25-12-2017 05:00:00.00	0.202	2.4026	19.9204	9.70808335655979	355.389997770192
25-12-2017 06:00:00.00	0.202	2.4021	19.9166	9.70431434424819	355.395969081325
25-12-2017 07:00:00.00	0.2029	2.4019	19.9264	9.71403442863074	356.981815691151
25-12-2017 08:00:00.00	0.2028	2.4018	19.9223	9.70996786271559	356.8070749424
25-12-2017 09:00:00.00	0.202	2.4011	19.9238	9.71145563073333	355.407912305596
25-12-2017 10:00:00.00	0.2005	2.4005	19.9236	9.7112572616643	352.775857744587
25-12-2017 11:00:00.00	0.2018	2.4005	19.9141	9.7018347308853	355.063182508018
25-12-2017 12:00:00.00	0.202	2.4001	19.9162	9.70391760611013	355.419856332608
25-12-2017 13:00:00.00	0.2023	2.3997	19.9095	9.69727224229757	355.952492535775
25-12-2017 14:00:00.00	0.2015	2.3991	19.9106	9.69836327217724	354.552019476396
25-12-2017 15:00:00.00	0.2018	2.399	19.9112	9.69895837938434	355.081081832465
25-12-2017 16:00:00.00	0.2009	2.3991	19.9146	9.70233065355787	353.496281453141
25-12-2017 17:00:00.00	0.2015	2.3991	19.9071	9.69489181346919	354.552019476396
25-12-2017 18:00:00.00	0.2015	2.3985	19.9092	9.69697468869402	354.559169018884
25-12-2017 19:00:00.00	0.2013	2.398	19.9018	9.68963503313985	354.213201506664
25-12-2017 20:00:00.00	0.2026	2.3978	19.8969	9.68477499094857	356.503114791997
25-12-2017 21:00:00.00	0.2022	2.3974	19.9016	9.68943666407082	355.804041997265
25-12-2017 22:00:00.00	0.2022	2.3969	19.8887	9.67664185911828	355.810021310064
25-12-2017 23:00:00.00	0.2028	2.3974	19.8885	9.67644349004925	356.85984034147
26-12-2017 00:00:00.00	0.2034	2.399	19.8871	9.67505490656603	357.896392689412
26-12-2017 01:00:00.00	0.2027	2.3981	19.8813	9.66930220356411	356.675482551398
26-12-2017 02:00:00.00	0.2014	2.3956	19.8847	9.67267447773765	354.417752169286
26-12-2017 03:00:00.00	0.2033	2.3949	19.8826	9.67059160251281	357.769733521734
26-12-2017 04:00:00.00	0.2026	2.3936	19.8746	9.66265683975155	356.55344528478
26-12-2017 05:00:00.00	0.2033	2.3941	19.871	9.65908619650898	357.77935418134
26-12-2017 06:00:00.00	0.203	2.3953	19.8717	9.65978048825059	357.236986952033
26-12-2017 07:00:00.00	0.2036	2.392	19.8718	9.65987967278511	358.332605873557
26-12-2017 08:00:00.00	0.2027	2.3912	19.8668	9.65492044605932	356.758215013512
26-12-2017 09:00:00.00	0.2012	2.3914	19.8679	9.65601147593899	354.115788189056
26-12-2017 10:00:00.00	0.2031	2.3915	19.8609	9.64906855852289	357.458622316453
26-12-2017 11:00:00.00	0.2025	2.3915	19.8628	9.65095306467868	356.402614569581
26-12-2017 12:00:00.00	0.2024	2.3908	19.8612	9.64936611212643	356.234995976868
26-12-2017 13:00:00.00	0.2023	2.3911	19.8597	9.6478783441087	356.055399685738
26-12-2017 14:00:00.00	0.2006	2.3907	19.8575	9.64569628434935	353.068085096871
26-12-2017 15:00:00.00	0.2026	2.3901	19.8482	9.63647212263938	356.595398219111
26-12-2017 16:00:00.00	0.2023	2.3897	19.8474	9.63567864636325	356.072157644321
26-12-2017 17:00:00.00	0.202	2.3891	19.8403	9.62863654441263	355.551293633778
26-12-2017 18:00:00.00	0.2018	2.3894	19.8316	9.62000748990975	355.195680257284
26-12-2017 19:00:00.00	0.2023	2.3891	19.822	9.61048577459623	356.079340109472
26-12-2017 20:00:00.00	0.2033	2.3888	19.8204	9.60889882204398	357.84310412224
26-12-2017 21:00:00.00	0.2017	2.3879	19.8162	9.60473307159432	355.03757035029
26-12-2017 22:00:00.00	0.2028	2.3897	19.8084	9.59699667790209	356.952217351796
26-12-2017 23:00:00.00	0.2043	2.3876	19.8057	9.59431869547016	359.617784910755
27-12-2017 00:00:00.00	0.2038	2.387	19.8023	9.59094642129662	358.744899811069
27-12-2017 01:00:00.00	0.2042	2.3854	19.7896	9.57834998541311	359.468348776683
27-12-2017 02:00:00.00	0.2019	2.3828	19.7863	9.57507689577409	355.450562372437
27-12-2017 03:00:00.00	0.202	2.3841	19.7791	9.56793560928896	355.611070003606
27-12-2017 04:00:00.00	0.2014	2.3838	19.7678	9.55672775688867	354.558376064894
27-12-2017 05:00:00.00	0.202	2.3825	19.7655	9.5544465125948	355.630202687209
27-12-2017 06:00:00.00	0.2021	2.385	19.7531	9.54214763031485	355.776348530552
27-12-2017 07:00:00.00	0.2031	2.3845	19.7439	9.53302265313939	357.542757034909
27-12-2017 08:00:00.00	0.2033	2.3857	19.7248	9.51407840704687	357.880402354744
27-12-2017 09:00:00.00	0.2025	2.3836	19.7172	9.50654038242367	356.497288965752
27-12-2017 10:00:00.00	0.2036	2.3807	19.7085	9.4979113279208	358.468772818602
27-12-2017 11:00:00.00	0.2032	2.3814	19.7015	9.49096841050469	357.756090418908
27-12-2017 12:00:00.00	0.2021	2.3822	19.6964	9.48590999924438	355.809846626414
27-12-2017 13:00:00.00	0.202	2.3812	19.693	9.48253772507085	355.645749508628
27-12-2017 14:00:00.00	0.2028	2.381	19.7049	9.49434068467822	357.056648938839
27-12-2017 15:00:00.00	0.2027	2.3818	19.7074	9.49682029804112	356.870984783282
27-12-2017 16:00:00.00	0.2031	2.3813	19.7157	9.50505261440593	357.58123181294
27-12-2017 17:00:00.00	0.2029	2.3799	19.7222	9.51149960914946	357.245927233565
27-12-2017 18:00:00.00	0.2033	2.3785	19.7274	9.51665720494428	357.967060515538
27-12-2017 19:00:00.00	0.2035	2.3709	19.72	9.50931754939011	358.410825070702
27-12-2017 20:00:00.00	0.2011	2.3808	19.7263	9.51556617506461	354.065951834917
27-12-2017 21:00:00.00	0.2022	2.3845	19.7205	9.50981347206269	355.958372587191
27-12-2017 22:00:00.00	0.2032	2.3796	19.7179	9.50723467416528	357.777746632646
27-12-2017 23:00:00.00	0.2027	2.379	19.7205	9.50981347206269	356.904589560602
28-12-2017 00:00:00.00	0.2033	2.3789	19.7223	9.51159879368398	357.962245072292
28-12-2017 01:00:00.00	0.2035	2.378	19.7211	9.51040857926979	358.325242402184
28-12-2017 02:00:00.00	0.2016	2.378	19.7254	9.51467351425397	354.979699598429
28-12-2017 03:00:00.00	0.202	2.3779	19.7204	9.50971428752818	355.685220622298
28-12-2017 04:00:00.00	0.2016	2.3779	19.7117	9.5010852330253	354.980893452749
28-12-2017 05:00:00.00	0.2022	2.3787	19.708	9.49741540524822	356.027805172922
28-12-2017 06:00:00.00	0.2028	2.3786	19.7024	9.49186107131533	357.085468406863
28-12-2017 07:00:00.00	0.2038	2.3799	19.7024	9.49186107131533	358.830556777726
28-12-2017 08:00:00.00	0.2028	2.3787	19.6912	9.48075240344956	357.084267502812
28-12-2017 09:00:00.00	0.202	2.378	19.6931	9.48263690960536	355.68402439922
28-12-2017 10:00:00.00	0.2036	2.3775	19.686	9.47559480765474	358.507352174045
28-12-2017 11:00:00.00	0.2036	2.3778	19.6856	9.47519806951668	358.503735006717
28-12-2017 12:00:00.00	0.2032	2.3783	19.6871	9.47668583753441	357.793388862093
28-12-2017 13:00:00.00	0.2039	2.3783	19.6779	9.46756086035896	359.025944827661
28-12-2017 14:00:00.00	0.2028	2.3779	19.6654	9.45516279354448	357.093874961396
28-12-2017 15:00:00.00	0.2029	2.3781	19.6668	9.4565513770277	357.267553656295
28-12-2017 16:00:00.00	0.2027	2.3777	19.6588	9.44861661426644	356.920193930043
28-12-2017 17:00:00.00	0.2037	2.3778	19.6533	9.44316146486807	358.679817391298
28-12-2017 18:00:00.00	0.2027	2.3786	19.6493	9.43919408348744	356.90939075972
28-12-2017 19:00:00.00	0.202	2.3783	19.6447	9.43463159489971	355.680435778261
28-12-2017 20:00:00.00	0.2022	2.3781	19.6466	9.43651610105551	356.034989400211
28-12-2017 21:00:00.00	0.2034	2.3787	19.6374	9.42739112388006	358.140729832702
28-12-2017 22:00:00.00	0.2039	2.3789	19.642	9.43195361246778	359.018700296313
28-12-2017 23:00:00.00	0.2036	2.3785	19.6391	9.42907726096682	358.495295233465
29-12-2017 00:00:00.00	0.2037	2.3783	19.6464	9.43631773198648	358.673785980356
29-12-2017 01:00:00.00	0.2013	2.378	19.6444	9.43433404129616	354.451455997836
29-12-2017 02:00:00.00	0.2038	2.378	19.6508	9.44068185150518	358.853486002777
29-12-2017 03:00:00.00	0.2025	2.3777	19.6499	9.43978919069453	356.568027976486
29-12-2017 04:00:00.00	0.2041	2.3774	19.6464	9.43631773198648	359.388981679684
29-12-2017 05:00:00.00	0.2025	2.3777	19.6551	9.44494678648936	356.568027976486
29-12-2017 06:00:00.00	0.2026	2.3775	19.6575	9.44732721531773	356.746510562188
29-12-2017 07:00:00.00	0.2027	2.3776	19.6558	9.44564107823096	356.921394322671
29-12-2017 08:00:00.00	0.2038	2.3778	19.6625	9.45228644204353	358.855899775879
29-12-2017 09:00:00.00	0.2032	2.3771	19.6612	9.45099704309482	357.807829057169
29-12-2017 10:00:00.00	0.203	2.3769	19.6641	9.45387339459578	357.458060440664
29-12-2017 11:00:00.00	0.2031	2.3773	19.6684	9.45813832957996	357.629336931438
29-12-2017 12:00:00.00	0.2034	2.3774	19.6733	9.46299837177123	358.156388405918
29-12-2017 13:00:00.00	0.2028	2.3768	19.6701	9.45982446666673	357.107086061117
29-12-2017 14:00:00.00	0.2016	2.3768	19.6732	9.46289918723672	354.994026380282
29-12-2017 15:00:00.00	0.2035	2.3761	19.683	9.47261927161927	358.348140800919
29-12-2017 16:00:00.00	0.2044	2.3761	19.676	9.46567635420316	359.932972873257
29-12-2017 17:00:00.00	0.202	2.3758	19.6712	9.4609154965464	355.710343165742
29-12-2017 18:00:00.00	0.2047	2.3756	19.6667	9.45645219249319	360.467312147928
29-12-2017 19:00:00.00	0.2034	2.3756	19.6616	9.45139378123288	358.178071767897
29-12-2017 20:00:00.00	0.2029	2.3756	19.6596	9.44941009054257	357.297594698655
29-12-2017 21:00:00.00	0.2032	2.3753	19.6543	9.44415331021323	357.829491535387
29-12-2017 22:00:00.00	0.2022	2.3753	19.6495	9.43939245255647	356.068519628224
29-12-2017 23:00:00.00	0.2032	2.375	19.6412	9.43116013619166	357.833102203438
30-12-2017 00:00:00.00	0.202	2.3748	19.642	9.43195361246778	355.722307529049
30-12-2017 01:00:00.00	0.2038	2.3772	19.633	9.42302700436136	358.863141290018
30-12-2017 02:00:00.00	0.2038	2.3757	19.6317	9.42173760541266	358.881246354067
30-12-2017 03:00:00.00	0.2028	2.3753	19.6309	9.42094412913653	357.125102772522
30-12-2017 04:00:00.00	0.2031	2.3751	19.6312	9.42124168274008	357.65580026401
30-12-2017 05:00:00.00	0.2032	2.375	19.6292	9.41925799204976	357.833102203438
30-12-2017 06:00:00.00	0.2029	2.3749	19.6273	9.41737348589396	357.306007095861
30-12-2017 07:00:00.00	0.2024	2.3746	19.6288	9.4188612539117	356.429105845814
30-12-2017 08:00:00.00	0.2035	2.3746	19.6351	9.42510987958619	358.366220551498
30-12-2017 09:00:00.00	0.2025	2.3748	19.6346	9.42461395691361	356.60280829026
30-12-2017 10:00:00.00	0.2028	2.3746	19.6352	9.42520906412071	357.133511193336
30-12-2017 11:00:00.00	0.2036	2.374	19.6382	9.42818460015619	358.54955785345
30-12-2017 12:00:00.00	0.2033	2.3737	19.644	9.4339373031581	358.024855941664
30-12-2017 13:00:00.00	0.2029	2.3737	19.6401	9.43006910631198	357.320429269865
30-12-2017 14:00:00.00	0.2036	2.3736	19.6468	9.43671447012454	358.554381992427
30-12-2017 15:00:00.00	0.2034	2.3733	19.6452	9.43512751757229	358.205782107015
30-12-2017 16:00:00.00	0.2031	2.373	19.652	9.44187206591937	357.681064371497
30-12-2017 17:00:00.00	0.202	2.3728	19.6497	9.4395908216255	355.746238670363
30-12-2017 18:00:00.00	0.2038	2.3728	19.655	9.44484760195484	358.916254658515
30-12-2017 19:00:00.00	0.2035	2.3729	19.6545	9.44435167928226	358.386713141058
30-12-2017 20:00:00.00	0.2043	2.3727	19.6516	9.4414753277813	359.798024921939
30-12-2017 21:00:00.00	0.2033	2.3721	19.6599	9.44970764414611	358.04412523119
30-12-2017 22:00:00.00	0.2033	2.372	19.6567	9.44653373904161	358.045329630655
30-12-2017 23:00:00.00	0.2031	2.3716	19.6539	9.44375657207517	357.697909092811
31-12-2017 00:00:00.00	0.2024	2.3722	19.657	9.44683129264516	356.457880855785
31-12-2017 01:00:00.00	0.2035	2.3716	19.6589	9.44871579880095	358.402385526278
31-12-2017 02:00:00.00	0.2033	2.3714	19.6637	9.45347665645771	358.052556197608
31-12-2017 03:00:00.00	0.2039	2.3712	19.6665	9.45625382342416	359.1116939871
31-12-2017 04:00:00.00	0.2024	2.3709	19.6665	9.45625382342416	356.473469259509
31-12-2017 05:00:00.00	0.2034	2.3708	19.6687	9.45843588318351	358.235906904315
31-12-2017 06:00:00.00	0.2027	2.3705	19.666	9.45575790075158	357.006642842153
31-12-2017 07:00:00.00	0.2028	2.3704	19.6739	9.46359347897833	357.183970034308
31-12-2017 08:00:00.00	0.2026	2.3702	19.67	9.45972528213221	356.834118386007
31-12-2017 09:00:00.00	0.2029	2.37	19.6677	9.45744403783835	357.36490496982
31-12-2017 10:00:00.00	0.2032	2.3698	19.6682	9.45793996051092	357.895698696065
31-12-2017 11:00:00.00	0.2038	2.3697	19.6718	9.4615106037535	358.95368488238
31-12-2017 12:00:00.00	0.203	2.3695	19.6606	9.45040193588772	357.547047599287
31-12-2017 13:00:00.00	0.204	2.3694	19.6656	9.45536116261352	359.309571862566
31-12-2017 14:00:00.00	0.2024	2.3691	19.6638	9.45357584099223	356.495055454092
31-12-2017 15:00:00.00	0.2029	2.3688	19.6672	9.45694811516577	357.379331898978
31-12-2017 16:00:00.00	0.2036	2.3687	19.6672	9.45694811516577	358.613488231815
31-12-2017 17:00:00.00	0.2033	2.3685	19.67	9.45972528213221	358.087488717294
31-12-2017 18:00:00.00	0.2035	2.368	19.664	9.45377421006126	358.445793132214
31-12-2017 19:00:00.00	0.2038	2.3679	19.6694	9.45913017492511	358.975422143559
31-12-2017 20:00:00.00	0.2036	2.3677	19.6601	9.44990601321514	358.625553123991
31-12-2017 21:00:00.00	0.203	2.3678	19.6561	9.44593863183451	357.567496853846
31-12-2017 22:00:00.00	0.2037	2.3675	19.6487	9.43859897628034	358.804109601709
31-12-2017 23:00:00.00	0.203	2.3693	19.6512	9.44107858964324	357.54945327254
01-01-2018 00:00:00.00	0.2046	2.3704	19.6569	9.44673210811064	360.354241957689
01-01-2018 01:00:00.00	0.2032	2.3659	19.651	9.44088022057421	357.942660439474
01-01-2018 02:00:00.00	0.204	2.3618	19.6442	9.43413567222713	359.401461262918
01-01-2018 03:00:00.00	0.2045	2.3649	19.6537	9.44355820300613	360.244768440036
01-01-2018 04:00:00.00	0.2042	2.3642	19.6554	9.4452443400929	359.724764400538
01-01-2018 05:00:00.00	0.2043	2.3623	19.6515	9.44137614324679	359.923937131665
01-01-2018 06:00:00.00	0.2033	2.3613	19.6482	9.43810305360776	358.174247208201
01-01-2018 07:00:00.00	0.2043	2.3621	19.6536	9.44345901847162	359.926359383986
01-01-2018 08:00:00.00	0.2063	2.3618	19.6515	9.44137614324679	363.45353656147
01-01-2018 09:00:00.00	0.2037	2.3611	19.6576	9.44742639985225	358.881383113699
01-01-2018 10:00:00.00	0.2029	2.3609	19.6607	9.45050112042224	357.474338266814
01-01-2018 11:00:00.00	0.2029	2.36	19.6592	9.4490133524045	357.485164982311
01-01-2018 12:00:00.00	0.204	2.3608	19.6611	9.4508978585603	359.413555472522
01-01-2018 13:00:00.00	0.2018	2.3605	19.663	9.4527823647161	355.541116224682
01-01-2018 14:00:00.00	0.2026	2.3614	19.6643	9.45407176366481	356.939785033455
01-01-2018 15:00:00.00	0.2038	2.3612	19.6656	9.45536116261352	359.056356203074
01-01-2018 16:00:00.00	0.2028	2.3591	19.6653	9.45506360900997	357.319799158787
01-01-2018 17:00:00.00	0.2029	2.3589	19.6673	9.45704729970029	357.498398525225
01-01-2018 18:00:00.00	0.2024	2.359	19.6614	9.45119541216385	356.616226496409
01-01-2018 19:00:00.00	0.2024	2.359	19.666	9.45575790075158	356.616226496409
01-01-2018 20:00:00.00	0.2022	2.3585	19.6662	9.45595626982061	356.269833697576
01-01-2018 21:00:00.00	0.202	2.3583	19.6656	9.45536116261352	355.91983578775
01-01-2018 22:00:00.00	0.2024	2.3584	19.6613	9.45109622762934	356.623427368212
01-01-2018 23:00:00.00	0.2034	2.358	19.6692	9.45893180585608	358.390225285435
02-01-2018 00:00:00.00	0.2027	2.3583	19.6621	9.45188970390546	357.153221357312
02-01-2018 01:00:00.00	0.2033	2.3585	19.6706	9.46032038933931	358.207997975852
02-01-2018 02:00:00.00	0.2032	2.3585	19.6664	9.45615463888964	358.031801223281
02-01-2018 03:00:00.00	0.2022	2.3562	19.6714	9.46111386561543	356.297412269339
02-01-2018 04:00:00.00	0.2038	2.3567	19.6685	9.45823751411447	359.110735389889
02-01-2018 05:00:00.00	0.2026	2.3566	19.6672	9.45694811516577	356.997447767802
02-01-2018 06:00:00.00	0.2026	2.356	19.6712	9.4609154965464	357.004656919582
02-01-2018 07:00:00.00	0.2035	2.3591	19.6641	9.45387339459578	358.553151522747
02-01-2018 08:00:00.00	0.2031	2.3582	19.6662	9.45595626982061	357.859217443824
02-01-2018 09:00:00.00	0.2033	2.3557	19.6697	9.45942772852866	358.241755104773
02-01-2018 10:00:00.00	0.2036	2.3551	19.6666	9.45635300795867	358.777640350121
02-01-2018 11:00:00.00	0.2024	2.3544	19.6718	9.4615106037535	356.671440612866
02-01-2018 12:00:00.00	0.2036	2.3548	19.6775	9.4671641222209	358.781263046792
02-01-2018 13:00:00.00	0.2047	2.3574	19.6803	9.46994128918734	360.688104802325
02-01-2018 14:00:00.00	0.2041	2.3529	19.6788	9.4684535211696	359.685358315787
02-01-2018 15:00:00.00	0.2029	2.3522	19.687	9.4765866529999	357.579023995015
02-01-2018 16:00:00.00	0.2031	2.3519	19.6912	9.48075240344956	357.935106735244
02-01-2018 17:00:00.00	0.2025	2.3518	19.6933	9.48283527867439	356.878892645507
02-01-2018 18:00:00.00	0.2037	2.352	19.6948	9.48432304669213	358.991313714349
02-01-2018 19:00:00.00	0.2033	2.3521	19.7038	9.49324965479855	358.28516647774
02-01-2018 20:00:00.00	0.2043	2.3524	19.7017	9.49116677957372	360.043877770197
02-01-2018 21:00:00.00	0.2053	2.3539	19.7078	9.49721703617918	361.787940140009
02-01-2018 22:00:00.00	0.2048	2.3535	19.7116	9.50098604849079	360.911679114272
02-01-2018 23:00:00.00	0.2034	2.3529	19.7155	9.5048542453369	358.451748561642
03-01-2018 00:00:00.00	0.2043	2.3515	19.7038	9.49324965479855	360.054785428585
03-01-2018 01:00:00.00	0.2039	2.3521	19.7106	9.49999420314563	359.342574740832
03-01-2018 02:00:00.00	0.204	2.3527	19.7166	9.50594527521658	359.511548577139
03-01-2018 03:00:00.00	0.2042	2.3518	19.7215	9.51080531740785	359.874912978827
03-01-2018 04:00:00.00	0.2053	2.3534	19.7184	9.50773059683786	361.794028914692
03-01-2018 05:00:00.00	0.2033	2.3506	19.7158	9.50515179894045	358.30325765515
03-01-2018 06:00:00.00	0.2027	2.3491	19.7153	9.50465587626787	357.263835606042
03-01-2018 07:00:00.00	0.2043	2.3492	19.7115	9.50088686395627	360.082663558429
03-01-2018 08:00:00.00	0.2028	2.349	19.7154	9.50475506080238	357.441291413531
03-01-2018 09:00:00.00	0.2016	2.3489	19.7189	9.50822651951044	355.327450372732
03-01-2018 10:00:00.00	0.203	2.3485	19.7178	9.50713548963077	357.799820165933
03-01-2018 11:00:00.00	0.2021	2.3488	19.7207	9.51001184113172	356.209918012145
03-01-2018 12:00:00.00	0.2032	2.3482	19.7313	9.5205254017904	358.155949490282
03-01-2018 13:00:00.00	0.2037	2.3482	19.7298	9.51903763377266	359.037238736075
03-01-2018 14:00:00.00	0.2029	2.3481	19.7329	9.52211235434265	357.628379907659
03-01-2018 15:00:00.00	0.2026	2.3482	19.7482	9.53728758812357	357.09840239533
03-01-2018 16:00:00.00	0.2034	2.3479	19.7438	9.53292346860488	358.512086008213
03-01-2018 17:00:00.00	0.2036	2.3478	19.7382	9.52736913467199	358.86581340973
03-01-2018 18:00:00.00	0.2034	2.3477	19.7499	9.53897372521034	358.514499928588
03-01-2018 19:00:00.00	0.2027	2.3476	19.7513	9.54036230869356	357.281877034541
03-01-2018 20:00:00.00	0.2039	2.3473	19.7482	9.53728758812357	359.400643815401
03-01-2018 21:00:00.00	0.2036	2.3472	19.754	9.54304029112549	358.87306243799
03-01-2018 22:00:00.00	0.2032	2.3472	19.756	9.5450239818158	358.168007305499
03-01-2018 23:00:00.00	0.2044	2.3466	19.7614	9.55037994667966	360.29045050866
04-01-2018 00:00:00.00	0.2039	2.3474	19.759	9.54799951785128	359.399433851591
04-01-2018 01:00:00.00	0.2046	2.3468	19.7677	9.55662857235416	360.640556854402
04-01-2018 02:00:00.00	0.2042	2.3476	19.776	9.56486088871896	359.925798176879
04-01-2018 03:00:00.00	0.2048	2.3485	19.779	9.56783642475444	360.972429408783
04-01-2018 04:00:00.00	0.2041	2.3454	19.785	9.57378749682539	359.776183606355
04-01-2018 05:00:00.00	0.2026	2.3454	19.7855	9.57428341949797	357.132066627376
04-01-2018 06:00:00.00	0.2026	2.3462	19.7903	9.57904427715472	357.122447627711
04-01-2018 07:00:00.00	0.2041	2.3461	19.7912	9.57993693796537	359.767704638506
04-01-2018 08:00:00.00	0.2021	2.346	19.795	9.58370595027697	356.243497807014
04-01-2018 09:00:00.00	0.2029	2.3458	19.7968	9.58549127189825	357.656073336805
04-01-2018 10:00:00.00	0.2041	2.3457	19.7998	9.58846680793373	359.772549714053
04-01-2018 11:00:00.00	0.2027	2.3453	19.8064	9.59501298721177	357.309544097524
04-01-2018 12:00:00.00	0.2031	2.3453	19.7998	9.58846680793373	358.014644332546
04-01-2018 13:00:00.00	0.2041	2.3451	19.7997	9.58836762339921	359.779817572066
04-01-2018 14:00:00.00	0.2027	2.3447	19.8106	9.59917873766143	357.316762296936
04-01-2018 15:00:00.00	0.2034	2.3446	19.8176	9.60612165507754	358.551919851624
04-01-2018 16:00:00.00	0.203	2.3442	19.8161	9.6046338870598	357.851622448134
04-01-2018 17:00:00.00	0.2039	2.344	19.8127	9.60126161288627	359.440577192112
04-01-2018 18:00:00.00	0.2036	2.3436	19.8089	9.59749260057467	358.916562758324
04-01-2018 19:00:00.00	0.2029	2.3432	19.8101	9.59868281498885	357.687384117397
04-01-2018 20:00:00.00	0.2035	2.343	19.819	9.60751023856076	358.747525126871
04-01-2018 21:00:00.00	0.2031	2.3429	19.8196	9.60810534576786	358.043575859993
04-01-2018 22:00:00.00	0.2027	2.3428	19.8154	9.60393959531819	357.339621852529
04-01-2018 23:00:00.00	0.2024	2.3425	19.82	9.60850208390592	356.814356489098
05-01-2018 00:00:00.00	0.2036	2.3424	19.8187	9.60721268495722	358.931065208678
05-01-2018 01:00:00.00	0.2035	2.3422	19.8233	9.61177517354494	358.757188938742
05-01-2018 02:00:00.00	0.2044	2.342	19.8232	9.61167598901043	360.346256788666
05-01-2018 03:00:00.00	0.2028	2.3418	19.8198	9.60830371483689	357.527950205876
05-01-2018 04:00:00.00	0.2041	2.3413	19.8174	9.60592328600851	359.82585415932
05-01-2018 05:00:00.00	0.2049	2.3413	19.8244	9.61286620342462	361.236244572487
05-01-2018 06:00:00.00	0.204	2.341	19.8261	9.61455234051138	359.653188545892
05-01-2018 07:00:00.00	0.2034	2.3406	19.8222	9.61068414366527	358.600215167181
05-01-2018 08:00:00.00	0.2032	2.3404	19.8252	9.61365967970074	358.250021985127
05-01-2018 09:00:00.00	0.2045	2.3403	19.8198	9.60830371483689	360.543189962379
05-01-2018 10:00:00.00	0.2042	2.34	19.8186	9.6071135004227	360.017912742377
05-01-2018 11:00:00.00	0.203	2.3398	19.818	9.60651839321561	357.904644964058
05-01-2018 12:00:00.00	0.2038	2.3396	19.8183	9.60681594681915	359.317526606246
05-01-2018 13:00:00.00	0.2039	2.3394	19.8178	9.60632002414657	359.496256707761
05-01-2018 14:00:00.00	0.2037	2.3391	19.8146	9.60314611904207	359.147264853794
05-01-2018 15:00:00.00	0.2029	2.3389	19.8155	9.60403877985271	357.739179363954
05-01-2018 16:00:00.00	0.2047	2.3387	19.8164	9.60493144066335	360.915245093452
05-01-2018 17:00:00.00	0.2031	2.3385	19.8214	9.60989066738914	358.096629139985
05-01-2018 18:00:00.00	0.2039	2.3384	19.8166	9.60512980973238	359.508363233004
05-01-2018 19:00:00.00	0.2044	2.3379	19.818	9.60651839321561	360.396011742069
05-01-2018 20:00:00.00	0.203	2.3379	19.8124	9.60096405928272	357.927545908219
05-01-2018 21:00:00.00	0.2042	2.3374	19.7999	9.58856599246824	360.04943644505
05-01-2018 22:00:00.00	0.2048	2.3373	19.8035	9.59213663571081	361.108584310999
05-01-2018 23:00:00.00	0.2041	2.3371	19.8	9.58866517700276	359.876750412038
06-01-2018 00:00:00.00	0.2027	2.3368	19.8026	9.59124397490017	357.411829129004
06-01-2018 01:00:00.00	0.2038	2.3365	19.7953	9.58400350388052	359.355040575998
06-01-2018 02:00:00.00	0.2041	2.3362	19.7883	9.57706058646441	359.887658625202
06-01-2018 03:00:00.00	0.2036	2.3361	19.7917	9.58043286063794	359.007222304872
06-01-2018 04:00:00.00	0.2038	2.3359	19.7907	9.57944101529279	359.362302249123
06-01-2018 05:00:00.00	0.2041	2.3356	19.7831	9.57190299066959	359.894931134696
06-01-2018 06:00:00.00	0.2032	2.3353	19.7833	9.57210135973862	358.311557647877
06-01-2018 07:00:00.00	0.2045	2.3348	19.7738	9.56267882895962	360.609977861192
06-01-2018 08:00:00.00	0.204	2.3349	19.7757	9.56456333511542	359.727079297021
06-01-2018 09:00:00.00	0.2035	2.3346	19.77	9.55890981664802	358.849021125116
06-01-2018 10:00:00.00	0.2043	2.3341	19.7688	9.55771960223383	360.265796804342
06-01-2018 11:00:00.00	0.2032	2.334	19.7649	9.55385140538771	358.32724659016
06-01-2018 12:00:00.00	0.2032	2.3336	19.7641	9.55305792911158	358.332074233427
06-01-2018 13:00:00.00	0.2044	2.3331	19.7577	9.54671011890257	360.454278905307
06-01-2018 14:00:00.00	0.204	2.3328	19.7577	9.54671011890257	359.752524122465
06-01-2018 15:00:00.00	0.2039	2.3324	19.7537	9.54274273752194	359.581019511476
06-01-2018 16:00:00.00	0.2039	2.3321	19.7513	9.54036230869356	359.584653096305
06-01-2018 17:00:00.00	0.2047	2.3322	19.7535	9.54254436845291	360.994264617649
06-01-2018 18:00:00.00	0.2037	2.332	19.7433	9.5324275459323	359.233156250375
06-01-2018 19:00:00.00	0.2037	2.3318	19.744	9.53312183767391	359.235576321265
06-01-2018 20:00:00.00	0.2044	2.3313	19.7382	9.52736913467199	360.476133949193
06-01-2018 21:00:00.00	0.2033	2.3313	19.7356	9.52479033677458	358.536193893693
06-01-2018 22:00:00.00	0.2048	2.3308	19.7312	9.52042621725588	361.187649893756
06-01-2018 23:00:00.00	0.2025	2.3309	19.73	9.51923600284169	357.130140286539
07-01-2018 00:00:00.00	0.2035	2.3312	19.7273	9.51655802040977	358.890119167745
07-01-2018 01:00:00.00	0.2045	2.3313	19.7282	9.51745068122041	360.652492136056
07-01-2018 02:00:00.00	0.2041	2.3301	19.7259	9.51516943692654	359.961609503523
07-01-2018 03:00:00.00	0.2044	2.3314	19.7323	9.52151724713556	360.474919710561
07-01-2018 04:00:00.00	0.2033	2.3297	19.7259	9.51516943692654	358.555518265546
07-01-2018 05:00:00.00	0.2039	2.3296	19.7271	9.51635965134074	359.61493582593
07-01-2018 06:00:00.00	0.2036	2.3296	19.722	9.51130124008043	359.085830966941
07-01-2018 07:00:00.00	0.2042	2.3295	19.7243	9.51358248437429	360.145253882562
07-01-2018 08:00:00.00	0.2036	2.3286	19.7173	9.50663956695819	359.097927662791
07-01-2018 09:00:00.00	0.2037	2.3286	19.7194	9.50872244218302	359.274301890524
07-01-2018 10:00:00.00	0.2051	2.3285	19.7191	9.50842488857947	361.74475970562
07-01-2018 11:00:00.00	0.203	2.328	19.7117	9.5010852330253	358.04691931492
07-01-2018 12:00:00.00	0.2039	2.3278	19.7128	9.50217626290498	359.636742549725
07-01-2018 13:00:00.00	0.2039	2.3273	19.7196	9.50892081125205	359.642800442359
07-01-2018 14:00:00.00	0.2044	2.3273	19.7153	9.50465587626787	360.52471020313
07-01-2018 15:00:00.00	0.2042	2.3272	19.718	9.5073338586998	360.173159684481
07-01-2018 16:00:00.00	0.2041	2.3271	19.7213	9.51060694833882	359.99798993773
07-01-2018 17:00:00.00	0.2053	2.3269	19.7224	9.51169797821849	362.117027509905
07-01-2018 18:00:00.00	0.2038	2.3267	19.7219	9.51120205554592	359.473684665415
07-01-2018 19:00:00.00	0.2036	2.3263	19.7194	9.50872244218302	359.125753156466
07-01-2018 20:00:00.00	0.2037	2.3263	19.7232	9.51249145449462	359.302141050943
07-01-2018 21:00:00.00	0.2048	2.3261	19.7172	9.50654038242367	361.244841964289
07-01-2018 22:00:00.00	0.2044	2.3258	19.7175	9.50683793602722	360.542929673773
07-01-2018 23:00:00.00	0.2052	2.3255	19.7217	9.51100368647688	361.957714977879
08-01-2018 00:00:00.00	0.2045	2.3253	19.7211	9.51040857926979	360.72539707708
08-01-2018 01:00:00.00	0.2043	2.3252	19.7289	9.51814497296202	360.373823546159
08-01-2018 02:00:00.00	0.2038	2.325	19.7269	9.5161612822717	359.494273757183
08-01-2018 03:00:00.00	0.2045	2.3247	19.7267	9.51596291320267	360.732689192344
08-01-2018 04:00:00.00	0.2036	2.3246	19.7305	9.51973192551427	359.146322597434
08-01-2018 05:00:00.00	0.2049	2.3244	19.7322	9.52141806260104	361.441932104518
08-01-2018 06:00:00.00	0.2043	2.3243	19.7294	9.5186408956346	360.384751205662
08-01-2018 07:00:00.00	0.2039	2.3239	19.7251	9.51437596065042	359.683999525196
08-01-2018 08:00:00.00	0.2026	2.3238	19.7301	9.51933518737621	357.391975629325
08-01-2018 09:00:00.00	0.2036	2.3236	19.7241	9.51338411530526	359.158423369317
08-01-2018 10:00:00.00	0.2036	2.3234	19.72	9.50931754939011	359.160843621545
08-01-2018 11:00:00.00	0.2039	2.3231	19.722	9.51130124008043	359.693694798859
08-01-2018 12:00:00.00	0.2042	2.3228	19.7258	9.51507025239203	360.226556748525
08-01-2018 13:00:00.00	0.2039	2.3227	19.7177	9.50703630509625	359.698542631695
08-01-2018 14:00:00.00	0.2049	2.3225	19.724	9.51328493077075	361.465071386705
08-01-2018 15:00:00.00	0.2033	2.3224	19.7236	9.51288819263268	358.643712151886
08-01-2018 16:00:00.00	0.2034	2.3221	19.7247	9.51397922251235	358.823750342925
08-01-2018 17:00:00.00	0.2041	2.3217	19.7243	9.51358248437429	360.063493254155
08-01-2018 18:00:00.00	0.2046	2.3218	19.7192	9.50852407311399	360.944353212593
08-01-2018 19:00:00.00	0.2037	2.3214	19.7155	9.5048542453369	359.361464955624
08-01-2018 20:00:00.00	0.2053	2.3228	19.7195	9.50882162671753	362.167052401921
08-01-2018 21:00:00.00	0.205	2.3231	19.7161	9.505449352544	361.634170837499
08-01-2018 22:00:00.00	0.2034	2.3204	19.7136	9.5029697391811	358.844305394922
08-01-2018 23:00:00.00	0.2046	2.3175	19.7033	9.49275373212597	360.996657781432
09-01-2018 00:00:00.00	0.2049	2.3212	19.7106	9.49999420314563	361.480905234279
09-01-2018 01:00:00.00	0.2038	2.319	19.719	9.50832570404496	359.566959995441
09-01-2018 02:00:00.00	0.2037	2.3193	19.719	9.50832570404496	359.386895483498
09-01-2018 03:00:00.00	0.2047	2.3191	19.7136	9.5029697391811	361.153624536541
09-01-2018 04:00:00.00	0.2045	2.3197	19.7222	9.51149960914946	360.793468286792
09-01-2018 05:00:00.00	0.2044	2.3177	19.7233	9.51259063902913	360.641346644669
09-01-2018 06:00:00.00	0.205	2.3176	19.7217	9.51100368647688	361.701199662309
09-01-2018 07:00:00.00	0.2051	2.3166	19.7249	9.51417759158139	361.889834946828
09-01-2018 08:00:00.00	0.2056	2.3107	19.7214	9.51070613287333	362.844209397323
09-01-2018 09:00:00.00	0.2037	2.3155	19.7256	9.514871883323	359.432921779403
09-01-2018 10:00:00.00	0.2054	2.315	19.7242	9.51348329983978	362.438714948303
09-01-2018 11:00:00.00	0.2036	2.3169	19.7201	9.50941673392463	359.239519579604
09-01-2018 12:00:00.00	0.2043	2.3138	19.7206	9.50991265659721	360.512289551613
09-01-2018 13:00:00.00	0.2042	2.3122	19.7232	9.51249145449462	360.355260168557
09-01-2018 14:00:00.00	0.204	2.3109	19.725	9.5142767761159	360.018091967998
09-01-2018 15:00:00.00	0.2042	2.3111	19.7266	9.51586372866816	360.368621451135
09-01-2018 16:00:00.00	0.2041	2.3114	19.729	9.51824415749654	360.188500884165
09-01-2018 17:00:00.00	0.2026	2.3115	19.7195	9.50882162671753	357.540148485047
09-01-2018 18:00:00.00	0.2037	2.3113	19.7188	9.50812733497593	359.483806666326
09-01-2018 19:00:00.00	0.2044	2.3112	19.7165	9.50584609068206	360.720362092653
09-01-2018 20:00:00.00	0.2038	2.311	19.7132	9.50257300104304	359.6639207144
09-01-2018 21:00:00.00	0.2032	2.311	19.706	9.4954317145579	358.605047542523
09-01-2018 22:00:00.00	0.2036	2.3108	19.7072	9.49662192897209	359.313385298943
09-01-2018 23:00:00.00	0.204	2.3105	19.7071	9.49652274443758	360.022946168363
10-01-2018 00:00:00.00	0.2037	2.3104	19.6986	9.48809205900373	359.494712445174
10-01-2018 01:00:00.00	0.2037	2.31	19.7018	9.49126596410824	359.499559670397
10-01-2018 02:00:00.00	0.2054	2.3099	19.6926	9.48214098693278	362.501023394747
10-01-2018 03:00:00.00	0.2051	2.3095	19.69	9.47956218903537	361.976447881524
10-01-2018 04:00:00.00	0.204	2.3091	19.6903	9.47985974263892	360.03993690053
10-01-2018 05:00:00.00	0.2043	2.3091	19.6906	9.48015729624247	360.569407395972
10-01-2018 06:00:00.00	0.2052	2.3089	19.683	9.47261927161927	362.160260539362
10-01-2018 07:00:00.00	0.2053	2.3091	19.6792	9.46885025930767	362.334309047445
10-01-2018 08:00:00.00	0.2048	2.3087	19.6766	9.46627146141025	361.456732049565
10-01-2018 09:00:00.00	0.2045	2.3084	19.6767	9.46637064594477	360.930904517203
10-01-2018 10:00:00.00	0.2042	2.3082	19.6736	9.46329592537478	360.403851400515
10-01-2018 11:00:00.00	0.204	2.3077	19.6769	9.4665690150138	360.056929236476
10-01-2018 12:00:00.00	0.204	2.3074	19.6769	9.4665690150138	360.060570659998
10-01-2018 13:00:00.00	0.2035	2.3077	19.6716	9.46131223468447	359.174436762857
10-01-2018 14:00:00.00	0.204	2.3064	19.6803	9.46994128918734	360.072709270375
10-01-2018 15:00:00.00	0.2046	2.3063	19.6809	9.47053639639443	361.132964126947
10-01-2018 16:00:00.00	0.2046	2.306	19.67	9.45972528213221	361.136616605295
10-01-2018 17:00:00.00	0.2036	2.306	19.6741	9.46379184804736	359.371530502629
10-01-2018 18:00:00.00	0.2042	2.3061	19.6679	9.45764240690738	360.429367043493
10-01-2018 19:00:00.00	0.2047	2.306	19.6683	9.45803914504544	361.313125215561
10-01-2018 20:00:00.00	0.2029	2.306	19.6672	9.45694811516577	358.135970230764
10-01-2018 21:00:00.00	0.2048	2.3057	19.6615	9.45129459669837	361.49328994849
10-01-2018 22:00:00.00	0.2035	2.3055	19.6635	9.45327828738868	359.201076791277
10-01-2018 23:00:00.00	0.204	2.3054	19.6588	9.44861661426644	360.084848699231
11-01-2018 00:00:00.00	0.2046	2.3055	19.6548	9.44464923288581	361.142704233392
11-01-2018 01:00:00.00	0.2033	2.3054	19.6556	9.44544270916193	358.849263434086
11-01-2018 02:00:00.00	0.2034	2.305	19.6552	9.44504597102387	359.0306173332
11-01-2018 03:00:00.00	0.2022	2.3049	19.6545	9.44435167928226	356.913645908372
11-01-2018 04:00:00.00	0.2039	2.305	19.6491	9.43899571441841	359.913190138837
11-01-2018 05:00:00.00	0.2047	2.3047	19.6419	9.43185442793327	361.328961211716
11-01-2018 06:00:00.00	0.2033	2.3046	19.6419	9.43185442793327	358.858942240585
11-01-2018 07:00:00.00	0.2041	2.3046	19.6378	9.42778786201812	360.271077773259
11-01-2018 08:00:00.00	0.2043	2.3043	19.6342	9.42421721877555	360.627759197319
11-01-2018 09:00:00.00	0.2048	2.3046	19.63	9.42005146832589	361.506696364348
11-01-2018 10:00:00.00	0.2046	2.3045	19.618	9.40814932418399	361.154880105317
11-01-2018 11:00:00.00	0.2033	2.3042	19.6204	9.41052975301237	358.863781839629
11-01-2018 12:00:00.00	0.2053	2.3042	19.618	9.40814932418399	362.39416828173
11-01-2018 13:00:00.00	0.2039	2.305	19.6161	9.40626481802819	359.913190138837
11-01-2018 14:00:00.00	0.2047	2.3035	19.6176	9.40775258604593	361.343580286457
11-01-2018 15:00:00.00	0.2044	2.3033	19.6099	9.40011537688821	360.816442878388
11-01-2018 16:00:00.00	0.2048	2.303	19.6029	9.39317245947211	361.526198380793
11-01-2018 17:00:00.00	0.2041	2.3025	19.602	9.39227979866146	360.296587112203
11-01-2018 18:00:00.00	0.2043	2.3021	19.6055	9.39575125736951	360.654510085272
11-01-2018 19:00:00.00	0.204	2.3023	19.6015	9.39178387598889	360.122486131003
11-01-2018 20:00:00.00	0.2029	2.3019	19.6001	9.39039529250566	358.185480022121
11-01-2018 21:00:00.00	0.2039	2.3021	19.5913	9.38166705346827	359.948382801698
11-01-2018 22:00:00.00	0.2042	2.3018	19.5879	9.37829477929473	360.481624634545
11-01-2018 23:00:00.00	0.2041	2.3018	19.5921	9.3824605297444	360.305091027965
12-01-2018 00:00:00.00	0.2054	2.3017	19.582	9.3724428917583	362.601250529448
12-01-2018 01:00:00.00	0.2045	2.3017	19.5853	9.37571598139732	361.012442713107
12-01-2018 02:00:00.00	0.2046	2.3015	19.584	9.37442658244862	361.191412647684
12-01-2018 03:00:00.00	0.204	2.3016	19.5852	9.37561679686281	360.130985994859
12-01-2018 04:00:00.00	0.2054	2.3014	19.5895	9.37988173184699	362.604918426781
12-01-2018 05:00:00.00	0.2047	2.3013	19.5878	9.37819559476022	361.370384996099
12-01-2018 06:00:00.00	0.2041	2.301	19.5955	9.38583280391794	360.314810280394
12-01-2018 07:00:00.00	0.2044	2.3009	19.5928	9.38315482148601	360.845642115375
12-01-2018 08:00:00.00	0.2039	2.3007	19.5882	9.37859233289828	359.965374826437
12-01-2018 09:00:00.00	0.2046	2.3006	19.5893	9.37968336277796	361.20237385166
12-01-2018 10:00:00.00	0.2051	2.3004	19.5917	9.38206379160633	362.087519466397
12-01-2018 11:00:00.00	0.205	2.3002	19.5919	9.38226216067537	361.913418234808
12-01-2018 12:00:00.00	0.2039	2.3003	19.5937	9.38404748229665	359.970229985315
12-01-2018 13:00:00.00	0.2044	2.3	19.5964	9.38672546472858	360.856593047685
12-01-2018 14:00:00.00	0.2045	2.2998	19.5989	9.38920507809147	361.035572190537
12-01-2018 15:00:00.00	0.2037	2.2996	19.5964	9.38672546472858	359.625633423087
12-01-2018 16:00:00.00	0.2048	2.2997	19.6047	9.39495778109339	361.566427935724
12-01-2018 17:00:00.00	0.205	2.2992	19.6032	9.39347001307565	361.925622271964
12-01-2018 18:00:00.00	0.2045	2.2993	19.6029	9.39317245947211	361.04165938772
12-01-2018 19:00:00.00	0.2061	2.2992	19.6017	9.39198224505792	363.86766219635
12-01-2018 20:00:00.00	0.2046	2.2989	19.6043	9.39456104295532	361.223080163329
12-01-2018 21:00:00.00	0.2047	2.2986	19.6033	9.39356919761017	361.403287120911
12-01-2018 22:00:00.00	0.2039	2.2986	19.6049	9.39515615016242	359.990865871782
12-01-2018 23:00:00.00	0.2034	2.2983	19.6027	9.39297409040307	359.111735533169
13-01-2018 00:00:00.00	0.2043	2.2981	19.6033	9.39356919761017	360.70315823246
13-01-2018 01:00:00.00	0.2035	2.2981	19.6068	9.39704065631822	359.290713168407
13-01-2018 02:00:00.00	0.2055	2.2979	19.6076	9.39783413259435	362.824272869701
13-01-2018 03:00:00.00	0.2047	2.2976	19.6107	9.40090885316434	361.415474613556
13-01-2018 04:00:00.00	0.2049	2.2969	19.611	9.40120640676789	361.777131903289
13-01-2018 05:00:00.00	0.2051	2.297	19.6119	9.40209906757853	362.129036233561
13-01-2018 06:00:00.00	0.2044	2.297	19.6136	9.4037852046653	360.893100956314
13-01-2018 07:00:00.00	0.2041	2.2971	19.6034	9.39366838214468	360.362199145897
13-01-2018 08:00:00.00	0.2051	2.2961	19.6138	9.40398357373433	362.140027559721
13-01-2018 09:00:00.00	0.2047	2.2959	19.6059	9.39614799550758	361.436195237627
13-01-2018 10:00:00.00	0.2043	2.2961	19.6075	9.39773494805983	360.727487227943
13-01-2018 11:00:00.00	0.2044	2.2967	19.6053	9.39555288830048	360.896752153467
13-01-2018 12:00:00.00	0.2044	2.2962	19.6097	9.39991700781918	360.902837646234
13-01-2018 13:00:00.00	0.205	2.2955	19.6139	9.40408275826884	361.970784366853
13-01-2018 14:00:00.00	0.2049	2.2954	19.6179	9.40805013964947	361.795433410623
13-01-2018 15:00:00.00	0.2047	2.2949	19.6216	9.41171996742656	361.448384949911
13-01-2018 16:00:00.00	0.2048	2.2941	19.6241	9.41419958078945	361.634716763293
13-01-2018 17:00:00.00	0.2057	2.2961	19.6285	9.41856370030815	363.199432808555
13-01-2018 18:00:00.00	0.2051	2.2923	19.6334	9.42342374249943	362.186442738085
13-01-2018 19:00:00.00	0.2059	2.2951	19.6339	9.423919665172	363.564828897368
13-01-2018 20:00:00.00	0.2052	2.2949	19.6374	9.42739112388006	362.331258386525
13-01-2018 21:00:00.00	0.2051	2.2936	19.6402	9.4301682908465	362.170562522399
13-01-2018 22:00:00.00	0.2045	2.2916	19.6408	9.43076339805359	361.135428151921
13-01-2018 23:00:00.00	0.2035	2.2902	19.6432	9.43314382688197	359.386455443267
14-01-2018 00:00:00.00	0.2037	2.2899	19.6517	9.44157451231582	359.743301167361
14-01-2018 01:00:00.00	0.2046	2.2893	19.6678	9.45754322237286	361.340054493824
14-01-2018 02:00:00.00	0.2051	2.2891	19.6676	9.45734485330383	362.225538433428
14-01-2018 03:00:00.00	0.2054	2.2888	19.6791	9.46875107477315	362.759037150623
14-01-2018 04:00:00.00	0.2043	2.2886	19.684	9.47361111696442	360.818750198026
14-01-2018 05:00:00.00	0.2049	2.2882	19.6957	9.48521570750277	361.883306427277
14-01-2018 06:00:00.00	0.2042	2.288	19.6938	9.48333120134697	360.649437443395
14-01-2018 07:00:00.00	0.2048	2.288	19.7051	9.49453905374726	361.709132166539
14-01-2018 08:00:00.00	0.2048	2.2877	19.7124	9.50177952476691	361.712792730604
14-01-2018 09:00:00.00	0.2046	2.2878	19.7171	9.50644119788915	361.358338576797
14-01-2018 10:00:00.00	0.2044	2.2875	19.7228	9.51209471635656	361.008758083068
14-01-2018 11:00:00.00	0.2042	2.2874	19.7219	9.51120205554592	360.656737196783
14-01-2018 12:00:00.00	0.2041	2.2871	19.7252	9.51447514518494	360.483766034838
14-01-2018 13:00:00.00	0.2036	2.2871	19.7326	9.52181480073911	359.60066028757
14-01-2018 14:00:00.00	0.2049	2.2868	19.7445	9.53361776034648	361.900397804308
14-01-2018 15:00:00.00	0.2048	2.2865	19.7406	9.52974956350037	361.727435727808
14-01-2018 16:00:00.00	0.2052	2.2868	19.752	9.54105660043517	362.430266615149
14-01-2018 17:00:00.00	0.2054	2.2867	19.7533	9.54234599938388	362.78473634266
14-01-2018 18:00:00.00	0.2053	2.2863	19.7551	9.54413132100516	362.613005923521
14-01-2018 19:00:00.00	0.2045	2.2862	19.7565	9.54551990448838	361.201217126229
14-01-2018 20:00:00.00	0.204	2.2859	19.7589	9.54790033331676	360.321731273854
14-01-2018 21:00:00.00	0.204	2.2858	19.7594	9.54839625598934	360.322946859536
14-01-2018 22:00:00.00	0.2046	2.2857	19.7639	9.55285956004255	361.383939401813
14-01-2018 23:00:00.00	0.2058	2.2855	19.758	9.54700767250612	363.505945962845
15-01-2018 00:00:00.00	0.2044	2.2853	19.763	9.55196689923191	361.035552410802
15-01-2018 01:00:00.00	0.2056	2.2849	19.7617	9.55067750028321	363.160035637022
15-01-2018 02:00:00.00	0.2061	2.2851	19.7699	9.5588106321135	364.040750590913
15-01-2018 03:00:00.00	0.205	2.2851	19.7734	9.56228209082155	362.09778685656
15-01-2018 04:00:00.00	0.2041	2.2847	19.7738	9.56267882895962	360.512954293793
15-01-2018 05:00:00.00	0.2055	2.2849	19.775	9.56386904337381	362.983401378443
15-01-2018 06:00:00.00	0.2038	2.2845	19.7708	9.55970329292414	359.985476935273
15-01-2018 07:00:00.00	0.2043	2.2843	19.7649	9.55385140538771	360.871095131432
15-01-2018 08:00:00.00	0.2049	2.2841	19.7685	9.55742204863028	361.93336430522
15-01-2018 09:00:00.00	0.2045	2.2839	19.7625	9.55147097655933	361.229245635516
15-01-2018 10:00:00.00	0.2047	2.2838	19.7652	9.55414895899126	361.583745992771
15-01-2018 11:00:00.00	0.2054	2.2838	19.763	9.55196689923191	362.820231689864
15-01-2018 12:00:00.00	0.205	2.2836	19.7617	9.55067750028321	362.116111877698
15-01-2018 13:00:00.00	0.2041	2.2834	19.7649	9.55385140538771	360.528766574387
15-01-2018 14:00:00.00	0.2041	2.2834	19.7619	9.55087586935224	360.528766574387
15-01-2018 15:00:00.00	0.2056	2.2829	19.7626	9.55157016109385	363.184541254911
15-01-2018 16:00:00.00	0.2038	2.2828	19.7599	9.54889217866192	360.006124696936
15-01-2018 17:00:00.00	0.2046	2.2828	19.7581	9.54710685704064	361.419298886129
15-01-2018 18:00:00.00	0.2041	2.2829	19.7622	9.55117342295578	360.534848590113
15-01-2018 19:00:00.00	0.2054	2.2828	19.7539	9.54294110659097	362.832473075322
15-01-2018 20:00:00.00	0.2054	2.2822	19.7518	9.54085823136614	362.839818303103
15-01-2018 21:00:00.00	0.2052	2.282	19.7475	9.53659329638196	362.488963694928
15-01-2018 22:00:00.00	0.2052	2.2818	19.7449	9.53401449848455	362.491409819186
15-01-2018 23:00:00.00	0.2044	2.2819	19.7413	9.53044385524198	361.07696965058
16-01-2018 00:00:00.00	0.2059	2.2812	19.7433	9.5324275459323	363.735342560964
16-01-2018 01:00:00.00	0.206	2.281	19.7393	9.52846016455166	363.914454664474
16-01-2018 02:00:00.00	0.2045	2.2805	19.7314	9.52062458632492	361.270687052933
16-01-2018 03:00:00.00	0.205	2.2803	19.7398	9.52895608722424	362.156433453764
16-01-2018 04:00:00.00	0.2047	2.2802	19.7382	9.52736913467199	361.627668647015
16-01-2018 05:00:00.00	0.2053	2.2796	19.7293	9.51854171110008	362.694985212715
16-01-2018 06:00:00.00	0.205	2.28	19.7343	9.52350093782587	362.160099496862
16-01-2018 07:00:00.00	0.2048	2.2798	19.7367	9.52588136665425	361.809214256032
16-01-2018 08:00:00.00	0.2051	2.279	19.7306	9.51983111004879	362.348989601061
16-01-2018 09:00:00.00	0.2058	2.2797	19.7367	9.52588136665425	363.577087626336
16-01-2018 10:00:00.00	0.2056	2.2788	19.7335	9.52270746154975	363.234788112216
16-01-2018 11:00:00.00	0.2059	2.2796	19.7367	9.52588136665425	363.754980298578
16-01-2018 12:00:00.00	0.2046	2.279	19.7352	9.52439359863651	361.465642478679
16-01-2018 13:00:00.00	0.2045	2.2783	19.7357	9.5248895213091	361.297507154971
16-01-2018 14:00:00.00	0.2064	2.2786	19.7339	9.52310419968781	364.650614006972
16-01-2018 15:00:00.00	0.2045	2.2781	19.7319	9.52112050899749	361.29994554353
16-01-2018 16:00:00.00	0.2048	2.2778	19.7322	9.52141806260104	361.833632923808
16-01-2018 17:00:00.00	0.2053	2.2777	19.7305	9.51973192551427	362.718239817604
16-01-2018 18:00:00.00	0.2057	2.2775	19.7305	9.51973192551427	363.427401312985
16-01-2018 19:00:00.00	0.2048	2.279	19.73	9.51923600284169	361.818981327632
16-01-2018 20:00:00.00	0.205	2.2766	19.7348	9.52399686049845	362.201653173153
16-01-2018 21:00:00.00	0.2038	2.2766	19.7345	9.52369930689491	360.081448374091
16-01-2018 22:00:00.00	0.2058	2.2763	19.7465	9.5356014510368	363.618804307939
16-01-2018 23:00:00.00	0.2061	2.2774	19.7475	9.53659329638196	364.135343577156
17-01-2018 00:00:00.00	0.2054	2.2761	19.7546	9.54363539833258	362.914511670343
17-01-2018 01:00:00.00	0.2063	2.2768	19.7567	9.54571827355741	364.496081605284
17-01-2018 02:00:00.00	0.2044	2.2756	19.7625	9.55147097655933	361.153738481864
17-01-2018 03:00:00.00	0.2046	2.2755	19.7673	9.55623183421609	361.508337882372
17-01-2018 04:00:00.00	0.2052	2.275	19.7725	9.56138943001091	362.574597691502
17-01-2018 05:00:00.00	0.2053	2.2752	19.7809	9.56972093091024	362.748842525515
17-01-2018 06:00:00.00	0.2056	2.2743	19.7786	9.56743968661638	363.289953108561
17-01-2018 07:00:00.00	0.2059	2.2745	19.7779	9.56674539487476	363.817589741157
17-01-2018 08:00:00.00	0.2063	2.2744	19.778	9.56684457940928	364.525604999418
17-01-2018 09:00:00.00	0.2056	2.2735	19.7795	9.56833234742702	363.299761973276
17-01-2018 10:00:00.00	0.2061	2.2738	19.7743	9.5631747516322	364.179585735738
17-01-2018 11:00:00.00	0.2055	2.2734	19.7752	9.56406741244284	363.124285303376
17-01-2018 12:00:00.00	0.206	2.2738	19.7779	9.56674539487476	364.002885305977
17-01-2018 13:00:00.00	0.2065	2.2741	19.7691	9.55801715583738	364.882693041365
17-01-2018 14:00:00.00	0.2061	2.273	19.7702	9.55910818571705	364.189418786555
17-01-2018 15:00:00.00	0.2062	2.2723	19.7756	9.5644641505809	364.374732517227
17-01-2018 16:00:00.00	0.2043	2.2723	19.7709	9.55980247745866	361.01725438055
17-01-2018 17:00:00.00	0.206	2.2717	19.7754	9.56426578151187	364.028685672487
17-01-2018 18:00:00.00	0.207	2.2718	19.7721	9.56099269187285	365.794580578343
17-01-2018 19:00:00.00	0.206	2.2717	19.7637	9.55266119097352	364.028685672487
17-01-2018 20:00:00.00	0.2039	2.2717	19.7615	9.55047913121417	360.317713634078
17-01-2018 21:00:00.00	0.2055	2.271	19.7599	9.54889217866192	363.153700960334
17-01-2018 22:00:00.00	0.2058	2.2707	19.7556	9.54462724367774	363.687535009122
17-01-2018 23:00:00.00	0.2059	2.2706	19.7532	9.54224681484936	363.865482094549
18-01-2018 00:00:00.00	0.2059	2.2707	19.7552	9.54423050553968	363.86425392798
18-01-2018 01:00:00.00	0.2054	2.2694	19.7592	9.54819788692031	362.996587372589
18-01-2018 02:00:00.00	0.2054	2.2695	19.7518	9.54085823136614	362.995362089199
18-01-2018 03:00:00.00	0.2067	2.2697	19.7512	9.54026312415905	365.290335038039
18-01-2018 04:00:00.00	0.2048	2.2709	19.7556	9.54462724367774	361.91790263486
18-01-2018 05:00:00.00	0.2061	2.2685	19.7478	9.53689084998551	364.244739592846
18-01-2018 06:00:00.00	0.2057	2.2702	19.7454	9.53451042115713	363.516951041071
18-01-2018 07:00:00.00	0.2058	2.2694	19.7439	9.53302265313939	363.703494066596
18-01-2018 08:00:00.00	0.2063	2.2677	19.7407	9.52984874803489	364.608049792841
18-01-2018 09:00:00.00	0.2053	2.2679	19.7424	9.53153488512165	362.8382319941
18-01-2018 10:00:00.00	0.2062	2.2694	19.7372	9.52637728932683	364.410400760603
18-01-2018 11:00:00.00	0.2063	2.2686	19.7341	9.52330256875684	364.596972950863
18-01-2018 12:00:00.00	0.2054	2.2673	19.7334	9.52260827701523	363.022320234714
18-01-2018 13:00:00.00	0.2068	2.2677	19.7311	9.52032703272137	365.491733868926
18-01-2018 14:00:00.00	0.2066	2.2661	19.7307	9.5199302945833	365.157982702576
18-01-2018 15:00:00.00	0.205	2.2657	19.7349	9.52409604503297	362.334933681307
18-01-2018 16:00:00.00	0.2056	2.2659	19.7311	9.52032703272137	363.392972612666
18-01-2018 17:00:00.00	0.2062	2.2661	19.7379	9.52707158106844	364.450997256879
18-01-2018 18:00:00.00	0.2059	2.2659	19.7337	9.52290583061878	363.923215276984
18-01-2018 19:00:00.00	0.2043	2.2659	19.7359	9.52508789037813	361.095254400621
18-01-2018 20:00:00.00	0.2063	2.2665	19.7269	9.5161612822717	364.62281996249
18-01-2018 21:00:00.00	0.2065	2.2659	19.7299	9.51913681830718	364.98370060562
18-01-2018 22:00:00.00	0.2062	2.2644	19.7363	9.52548462851619	364.471914133669
18-01-2018 23:00:00.00	0.2051	2.2647	19.7325	9.52171561620459	362.523920878438
19-01-2018 00:00:00.00	0.2055	2.2649	19.7336	9.52280664608426	363.228487209558
19-01-2018 01:00:00.00	0.2051	2.2643	19.7395	9.5286585336207	362.528816489416
19-01-2018 02:00:00.00	0.2055	2.2643	19.7432	9.53232836139778	363.235844897976
19-01-2018 03:00:00.00	0.2057	2.264	19.7428	9.53193162325972	363.593041638739
19-01-2018 04:00:00.00	0.2061	2.2643	19.7495	9.53857698707228	364.296387510817
19-01-2018 05:00:00.00	0.206	2.2639	19.7484	9.5374859571926	364.124547634906
19-01-2018 06:00:00.00	0.2057	2.2631	19.7566	9.5456190890229	363.604089695773
19-01-2018 07:00:00.00	0.2064	2.2629	19.7479	9.53699003452003	364.843903109267
19-01-2018 08:00:00.00	0.2051	2.2629	19.7563	9.54532153541935	362.545952169141
19-01-2018 09:00:00.00	0.2049	2.2633	19.761	9.54998320854159	362.187529955817
19-01-2018 10:00:00.00	0.2034	2.2634	19.7603	9.54928891679998	359.53487005678
19-01-2018 11:00:00.00	0.2053	2.2622	19.7635	9.55246282190449	362.908059885734
19-01-2018 12:00:00.00	0.2049	2.2624	19.7646	9.55355385178416	362.198535565386
19-01-2018 13:00:00.00	0.2053	2.2624	19.7621	9.55107423842127	362.905609329301
19-01-2018 14:00:00.00	0.205	2.2619	19.7666	9.55553754247448	362.381421507062
19-01-2018 15:00:00.00	0.2056	2.2619	19.7689	9.55781878676834	363.442050057814
19-01-2018 16:00:00.00	0.2053	2.2618	19.7652	9.55414895899126	362.912961097887
19-01-2018 17:00:00.00	0.2035	2.2616	19.7688	9.55771960223383	359.733493871697
19-01-2018 18:00:00.00	0.2046	2.2616	19.7671	9.55603346514706	361.677999243976
19-01-2018 19:00:00.00	0.2063	2.2613	19.7607	9.54968565493805	364.686837861593
19-01-2018 20:00:00.00	0.2057	2.2612	19.7618	9.55077668481772	363.627415576745
19-01-2018 21:00:00.00	0.2055	2.2609	19.7627	9.55166934562836	363.277544096723
19-01-2018 22:00:00.00	0.2048	2.2609	19.7633	9.55226445283546	362.040102340676
19-01-2018 23:00:00.00	0.2059	2.2607	19.7606	9.54958647040353	363.987111638878
20-01-2018 00:00:00.00	0.2063	2.2604	19.7648	9.5537522208532	364.697920164708
20-01-2018 01:00:00.00	0.2062	2.2603	19.7633	9.55226445283546	364.522370598227
20-01-2018 02:00:00.00	0.2065	2.26	19.7644	9.55335548271513	365.056411380567
20-01-2018 03:00:00.00	0.2043	2.2598	19.7585	9.5475035951787	361.169629548152
20-01-2018 04:00:00.00	0.2056	2.2598	19.7573	9.54631338076451	363.467821023495
20-01-2018 05:00:00.00	0.2064	2.2596	19.756	9.5450239818158	364.884556819774
20-01-2018 06:00:00.00	0.2057	2.2602	19.7512	9.54026312415905	363.639693558338
20-01-2018 07:00:00.00	0.2059	2.2608	19.7526	9.54165170764227	363.985882651093
20-01-2018 08:00:00.00	0.2057	2.261	19.7498	9.53887454067582	363.629871106734
20-01-2018 09:00:00.00	0.2052	2.2587	19.7509	9.5399655705555	362.77415945519
20-01-2018 10:00:00.00	0.2057	2.2579	19.7475	9.53659329638196	363.667936062828
20-01-2018 11:00:00.00	0.2054	2.258	19.7504	9.53946964788292	363.136323921844
20-01-2018 12:00:00.00	0.2057	2.2575	19.7481	9.53718840358906	363.672848250565
20-01-2018 13:00:00.00	0.206	2.2572	19.7505	9.53956883241743	364.206930921543
20-01-2018 14:00:00.00	0.205	2.2571	19.7474	9.53649411184744	362.440160024579
20-01-2018 15:00:00.00	0.2049	2.257	19.7504	9.53946964788292	362.264583271085
20-01-2018 16:00:00.00	0.2056	2.2566	19.7484	9.5374859571926	363.507098094901
20-01-2018 17:00:00.00	0.2046	2.2566	19.7437	9.53282428407036	361.739067462144
20-01-2018 18:00:00.00	0.206	2.2564	19.7427	9.5318324387252	364.216770223278
20-01-2018 19:00:00.00	0.2052	2.2563	19.7451	9.53421286755358	362.80356133775
20-01-2018 20:00:00.00	0.2052	2.256	19.7337	9.52290583061878	362.807236908175
20-01-2018 21:00:00.00	0.2051	2.2559	19.7427	9.5318324387252	362.631654872121
20-01-2018 22:00:00.00	0.2051	2.2557	19.7384	9.52756750374102	362.634104116159
20-01-2018 23:00:00.00	0.2061	2.2556	19.7464	9.53550226650229	364.403419090665
21-01-2018 00:00:00.00	0.206	2.255	19.7427	9.5318324387252	364.23399028061
21-01-2018 01:00:00.00	0.2067	2.2552	19.741	9.53014630163843	365.469210129625
21-01-2018 02:00:00.00	0.2064	2.2548	19.742	9.53113814698359	364.943705665263
21-01-2018 03:00:00.00	0.205	2.2546	19.7473	9.53639492731293	362.470760544637
21-01-2018 04:00:00.00	0.2042	2.2546	19.7429	9.53203080779423	361.056240503487
21-01-2018 05:00:00.00	0.2054	2.2541	19.7479	9.53699003452003	363.184153232168
21-01-2018 06:00:00.00	0.2051	2.2542	19.7391	9.52826179548263	362.652474501075
21-01-2018 07:00:00.00	0.2056	2.2539	19.7441	9.53322102220842	363.540244727301
21-01-2018 08:00:00.00	0.2057	2.2537	19.7485	9.53758514172712	363.719520653389
21-01-2018 09:00:00.00	0.206	2.2533	19.7447	9.53381612941552	364.254902539445
21-01-2018 10:00:00.00	0.2041	2.2533	19.745	9.53411368301907	360.895269943208
21-01-2018 11:00:00.00	0.2056	2.2529	19.7478	9.53689084998551	363.552522791923
21-01-2018 12:00:00.00	0.2052	2.2529	19.7505	9.53956883241743	362.845222163923
21-01-2018 13:00:00.00	0.2055	2.2525	19.751	9.54006475509001	363.380606704151
21-01-2018 14:00:00.00	0.2044	2.2524	19.7577	9.54671011890257	361.436724418502
21-01-2018 15:00:00.00	0.205	2.2523	19.7509	9.5399655705555	362.498917587074
21-01-2018 16:00:00.00	0.2045	2.2519	19.7525	9.54155252310775	361.619659264451
21-01-2018 17:00:00.00	0.2059	2.2518	19.759	9.54799951785128	364.096524800349
21-01-2018 18:00:00.00	0.205	2.2516	19.7636	9.55256200643901	362.507487990038
21-01-2018 19:00:00.00	0.2052	2.2513	19.7581	9.54710685704064	362.864830569445
21-01-2018 20:00:00.00	0.2058	2.2512	19.7584	9.54740441064419	363.92706802529
21-01-2018 21:00:00.00	0.2059	2.2509	19.7615	9.55047913121417	364.107592714941
21-01-2018 22:00:00.00	0.2041	2.2508	19.7629	9.55186771469739	360.925743940285
21-01-2018 23:00:00.00	0.2055	2.2506	19.7612	9.55018157761062	363.403926594458
22-01-2018 00:00:00.00	0.2056	2.2503	19.7572	9.54621419622999	363.584449641635
22-01-2018 01:00:00.00	0.206	2.2501	19.7611	9.55008239307611	364.294273306402
22-01-2018 02:00:00.00	0.2046	2.2497	19.7673	9.55623183421609	361.82337547715
22-01-2018 03:00:00.00	0.2065	2.2496	19.7657	9.55464488166384	365.184650091917
22-01-2018 04:00:00.00	0.2059	2.2492	19.7715	9.56039758466575	364.128500611856
22-01-2018 05:00:00.00	0.2042	2.249	19.7692	9.55811634037189	361.124536856013
22-01-2018 06:00:00.00	0.2061	2.2488	19.7672	9.55613264968157	364.487119757345
22-01-2018 07:00:00.00	0.206	2.2487	19.7629	9.55186771469739	364.311500693332
22-01-2018 08:00:00.00	0.2046	2.2486	19.7597	9.54869380959289	361.836819517315
22-01-2018 09:00:00.00	0.2043	2.2484	19.7557	9.54472642821226	361.308707890027
22-01-2018 10:00:00.00	0.2061	2.2482	19.762	9.55097505388675	364.494506956363
22-01-2018 11:00:00.00	0.2061	2.2478	19.7624	9.55137179202482	364.499431922064
22-01-2018 12:00:00.00	0.2051	2.2477	19.762	9.55097505388675	362.732101014541
22-01-2018 13:00:00.00	0.2057	2.2476	19.7557	9.54472642821226	363.79446719727
22-01-2018 14:00:00.00	0.2056	2.2473	19.7605	9.54948728586901	363.621295283077
22-01-2018 15:00:00.00	0.205	2.247	19.7539	9.54294110659097	362.563817864209
22-01-2018 16:00:00.00	0.2057	2.2467	19.751	9.54006475509001	363.805527498825
22-01-2018 17:00:00.00	0.2058	2.2467	19.7489	9.53798187986518	363.982389690123
22-01-2018 18:00:00.00	0.2047	2.2463	19.7533	9.54234599938388	362.041797592884
22-01-2018 19:00:00.00	0.2066	2.2461	19.7414	9.53054303977649	365.404693391593
22-01-2018 20:00:00.00	0.206	2.246	19.7324	9.52161643167007	364.344729541248
22-01-2018 21:00:00.00	0.2048	2.2457	19.7339	9.52310419968781	362.226004017348
22-01-2018 22:00:00.00	0.2062	2.2455	19.7357	9.5248895213091	364.704622418846
22-01-2018 23:00:00.00	0.2051	2.2453	19.7392	9.52836098001715	362.761510412998
23-01-2018 00:00:00.00	0.2063	2.245	19.7302	9.51943437191072	364.887655105995
23-01-2018 01:00:00.00	0.2055	2.2449	19.7365	9.52568299758522	363.473904227439
23-01-2018 02:00:00.00	0.2049	2.2447	19.7326	9.52181480073911	362.415115225455
23-01-2018 03:00:00.00	0.2058	2.2446	19.7368	9.52598055118877	364.008212223368
23-01-2018 04:00:00.00	0.2053	2.2444	19.7286	9.51784741935847	363.126292034477
23-01-2018 05:00:00.00	0.2058	2.2442	19.7299	9.51913681830718	364.013131216546
23-01-2018 06:00:00.00	0.2049	2.244	19.7274	9.51665720494428	362.423685847116
23-01-2018 07:00:00.00	0.204	2.2436	19.7247	9.51397922251235	360.836657098835
23-01-2018 08:00:00.00	0.2061	2.2432	19.7228	9.51209471635656	364.556078594965
23-01-2018 09:00:00.00	0.2066	2.2429	19.7174	9.5067387514927	365.444198041817
23-01-2018 10:00:00.00	0.2053	2.2427	19.7217	9.51100368647688	363.147148161932
23-01-2018 11:00:00.00	0.2055	2.2428	19.7167	9.50604445975109	363.499692254616
23-01-2018 12:00:00.00	0.2058	2.2426	19.7146	9.50396158452626	364.032808518778
23-01-2018 13:00:00.00	0.2055	2.242	19.7148	9.50415995359529	363.509517227521
23-01-2018 14:00:00.00	0.2052	2.2419	19.7146	9.50396158452626	362.980072765476
23-01-2018 15:00:00.00	0.2052	2.2415	19.7167	9.50604445975109	362.984978312444
23-01-2018 16:00:00.00	0.2056	2.2416	19.7174	9.5067387514927	363.691322579769
23-01-2018 17:00:00.00	0.2044	2.2412	19.717	9.50634201335464	361.573497101362
23-01-2018 18:00:00.00	0.2058	2.2409	19.7114	9.50078767942176	364.053717983505
23-01-2018 19:00:00.00	0.2063	2.2408	19.7117	9.5010852330253	364.939435266926
23-01-2018 20:00:00.00	0.2059	2.2407	19.7134	9.50277137011207	364.233076124164
23-01-2018 21:00:00.00	0.2059	2.2404	19.7081	9.49751458978273	364.236768122026
23-01-2018 22:00:00.00	0.2067	2.2402	19.7138	9.50316810825013	365.654437769418
23-01-2018 23:00:00.00	0.2062	2.2399	19.715	9.50435832266432	364.773630100327
24-01-2018 00:00:00.00	0.2052	2.2396	19.7109	9.50029175674917	363.008281471385
24-01-2018 01:00:00.00	0.206	2.2396	19.7099	9.49929991140402	364.423518436186
24-01-2018 02:00:00.00	0.2055	2.2393	19.7161	9.505449352544	363.542680432557
24-01-2018 03:00:00.00	0.206	2.2391	19.7175	9.50683793602722	364.429675253709
24-01-2018 04:00:00.00	0.2057	2.239	19.7146	9.50396158452626	363.900182020854
24-01-2018 05:00:00.00	0.2065	2.2387	19.7106	9.49999420314563	365.319150859596
24-01-2018 06:00:00.00	0.2072	2.2385	19.7109	9.50029175674917	366.559998061053
24-01-2018 07:00:00.00	0.2071	2.2383	19.71	9.49939909593853	366.385562901528
24-01-2018 08:00:00.00	0.2061	2.2379	19.7052	9.49463823828177	364.621367247331
24-01-2018 09:00:00.00	0.2075	2.2398	19.7003	9.4897781960905	367.074607144372
24-01-2018 10:00:00.00	0.208	2.2394	19.6978	9.48729858272761	367.964097459962
24-01-2018 11:00:00.00	0.2065	2.2363	19.7067	9.49612600629951	365.34877901765
24-01-2018 12:00:00.00	0.2087	2.2401	19.6932	9.48273609413988	369.193705889467
24-01-2018 13:00:00.00	0.2065	2.2381	19.6983	9.48779450540018	365.326557448592
24-01-2018 14:00:00.00	0.2077	2.2367	19.6981	9.48759613633115	367.466904138394
24-01-2018 15:00:00.00	0.2073	2.2363	19.7047	9.49414231560919	366.76417380319
24-01-2018 16:00:00.00	0.207	2.2361	19.6982	9.48769532086567	366.23587596748
24-01-2018 17:00:00.00	0.2065	2.2373	19.6913	9.48085158798408	365.336433367774
24-01-2018 18:00:00.00	0.2076	2.2359	19.6861	9.47569399218925	367.299911648094
24-01-2018 19:00:00.00	0.2062	2.2348	19.6841	9.47371030149894	364.836499106805
24-01-2018 20:00:00.00	0.2079	2.2356	19.6809	9.47053639639443	367.834420936619
24-01-2018 21:00:00.00	0.2077	2.2341	19.6727	9.46240326456414	367.499192413005
24-01-2018 22:00:00.00	0.2069	2.2333	19.6759	9.46557716966864	366.093590118821
24-01-2018 23:00:00.00	0.2084	2.2332	19.6705	9.46022120480479	368.748970634771
25-01-2018 00:00:00.00	0.2066	2.2352	19.6729	9.46260163363317	365.539291121295
25-01-2018 01:00:00.00	0.2084	2.2325	19.6761	9.46577553873768	368.757694432759
25-01-2018 02:00:00.00	0.2072	2.2315	19.663	9.4527823647161	366.646721108632
25-01-2018 03:00:00.00	0.2065	2.2311	19.6763	9.46597390780671	365.412989849606
25-01-2018 04:00:00.00	0.2063	2.2314	19.6713	9.46101468108091	365.055377467437
25-01-2018 05:00:00.00	0.2069	2.2323	19.672	9.46170897282253	366.105963027403
25-01-2018 06:00:00.00	0.2071	2.232	19.6732	9.46289918723672	366.463575183957
25-01-2018 07:00:00.00	0.2069	2.2314	19.6715	9.46121305014995	366.117099360217
25-01-2018 08:00:00.00	0.2069	2.231	19.667	9.45674974609674	366.122049058939
25-01-2018 09:00:00.00	0.2075	2.2307	19.6698	9.45952691306318	367.187508433147
25-01-2018 10:00:00.00	0.2078	2.2305	19.6633	9.45307991831965	367.720867654906
25-01-2018 11:00:00.00	0.2064	2.23	19.665	9.45476605540642	365.249613780387
25-01-2018 12:00:00.00	0.2066	2.229	19.6717	9.46141141921898	365.615895549237
25-01-2018 13:00:00.00	0.2072	2.2282	19.6684	9.45813832957996	366.68761906508
25-01-2018 14:00:00.00	0.2072	2.2281	19.6672	9.45694811516577	366.688858539526
25-01-2018 15:00:00.00	0.2054	2.2283	19.6691	9.45883262132157	363.500880162343
25-01-2018 16:00:00.00	0.2073	2.2282	19.6642	9.45397257913029	366.864591854204
25-01-2018 17:00:00.00	0.2066	2.2291	19.6641	9.45387339459578	365.614659739195
25-01-2018 18:00:00.00	0.2077	2.229	19.6637	9.45347665645771	367.562543589431
25-01-2018 19:00:00.00	0.2069	2.2258	19.6584	9.44821987612838	366.186407323388
25-01-2018 20:00:00.00	0.207	2.2252	19.6552	9.44504597102387	366.37082546993
25-01-2018 21:00:00.00	0.2071	2.2251	19.6629	9.45268318018159	366.549055334412
25-01-2018 22:00:00.00	0.2073	2.2252	19.6581	9.44792232252483	366.901797680756
25-01-2018 23:00:00.00	0.2068	2.225	19.6511	9.44097940510872	366.019318669552
26-01-2018 00:00:00.00	0.2072	2.2248	19.6521	9.44197125045388	366.729765897558
26-01-2018 01:00:00.00	0.2068	2.2241	19.6526	9.44246717312646	366.030455114445
26-01-2018 02:00:00.00	0.2068	2.2239	19.6481	9.43800386907325	366.032929972006
26-01-2018 03:00:00.00	0.2063	2.2237	19.6502	9.44008674429808	365.150406301954
26-01-2018 04:00:00.00	0.2063	2.2232	19.6488	9.43869816081486	365.156578716147
26-01-2018 05:00:00.00	0.207	2.223	19.649	9.43889652988389	366.398075047176
26-01-2018 06:00:00.00	0.2068	2.2227	19.637	9.426994385742	366.047779820207
26-01-2018 07:00:00.00	0.2078	2.2231	19.6474	9.43730957733164	367.812862762737
26-01-2018 08:00:00.00	0.2063	2.2226	19.6474	9.43730957733164	365.163985888633
26-01-2018 09:00:00.00	0.2074	2.2243	19.652	9.44187206591937	367.089957022333
26-01-2018 10:00:00.00	0.2082	2.2226	19.6493	9.43919408348744	368.52710548722
26-01-2018 11:00:00.00	0.2071	2.2215	19.6388	9.42877970736328	366.59366950616
26-01-2018 12:00:00.00	0.2071	2.2181	19.6557	9.44554189369645	366.635815086032
26-01-2018 13:00:00.00	0.2072	2.2195	19.6571	9.44693047717967	366.795484698016
26-01-2018 14:00:00.00	0.2076	2.2179	19.6587	9.44851742973192	367.523466665453
26-01-2018 15:00:00.00	0.2065	2.2177	19.6577	9.44752558438677	365.578560292146
26-01-2018 16:00:00.00	0.2075	2.2186	19.6583	9.44812069159386	367.337737538727
26-01-2018 17:00:00.00	0.2075	2.2177	19.6584	9.44821987612838	367.348916516321
26-01-2018 18:00:00.00	0.2077	2.2168	19.6625	9.45228644204353	367.714178194751
26-01-2018 19:00:00.00	0.2073	2.2166	19.663	9.4527823647161	367.008496220131
26-01-2018 20:00:00.00	0.2071	2.2168	19.6726	9.46230408002962	366.651932133524
26-01-2018 21:00:00.00	0.2074	2.2166	19.672	9.46170897282253	367.185538427666
26-01-2018 22:00:00.00	0.2072	2.2164	19.6657	9.45546034714803	366.83393491502
26-01-2018 23:00:00.00	0.2074	2.2159	19.6727	9.46240326456414	367.194230114534
27-01-2018 00:00:00.00	0.2074	2.2156	19.6739	9.46359347897833	367.197955249157
27-01-2018 01:00:00.00	0.2079	2.2163	19.6696	9.45932854399415	368.074483403745
27-01-2018 02:00:00.00	0.207	2.2163	19.6776	9.46726330675541	366.481087371694
27-01-2018 03:00:00.00	0.2062	2.2158	19.6774	9.46706493768638	365.070907853447
27-01-2018 04:00:00.00	0.2068	2.2149	19.6749	9.46458532432348	366.14433321089
27-01-2018 05:00:00.00	0.2063	2.2149	19.669	9.45873343678705	365.259071283397
27-01-2018 06:00:00.00	0.2074	2.2151	19.6693	9.4590309903906	367.204163974825
27-01-2018 07:00:00.00	0.2075	2.2148	19.6684	9.45813832957996	367.384942295245
27-01-2018 08:00:00.00	0.2063	2.214	19.6707	9.46041957387382	365.270188393013
27-01-2018 09:00:00.00	0.2066	2.2137	19.6749	9.46458532432348	365.805072958547
27-01-2018 10:00:00.00	0.2073	2.2133	19.6719	9.46160978828801	367.049455159969
27-01-2018 11:00:00.00	0.2083	2.2129	19.6731	9.4628000027022	368.825064111906
27-01-2018 12:00:00.00	0.2075	2.2123	19.675	9.464684508858	367.416004673036
27-01-2018 13:00:00.00	0.2064	2.212	19.6738	9.46349429444381	365.471965254665
27-01-2018 14:00:00.00	0.2078	2.2117	19.6862	9.47579317672377	367.954675066894
27-01-2018 15:00:00.00	0.2073	2.2115	19.6853	9.47490051591313	367.071800253444
27-01-2018 16:00:00.00	0.2071	2.211	19.6884	9.47797523648312	366.723856227957
27-01-2018 17:00:00.00	0.2072	2.2109	19.6927	9.4822401714673	366.902172884268
27-01-2018 18:00:00.00	0.2079	2.2103	19.7019	9.49136514864275	368.149178084382
27-01-2018 19:00:00.00	0.2072	2.2102	19.7061	9.49553089909242	366.910859537917
27-01-2018 20:00:00.00	0.2059	2.2101	19.7058	9.49523334548887	364.610045837273
27-01-2018 21:00:00.00	0.2065	2.2098	19.7059	9.49533253002338	365.6762430398
27-01-2018 22:00:00.00	0.2064	2.2093	19.7063	9.49572926816145	365.505341327535
27-01-2018 23:00:00.00	0.2085	2.2088	19.7103	9.49969664954208	369.230389988044
28-01-2018 00:00:00.00	0.2082	2.2082	19.7119	9.50128360209433	368.706605915435
28-01-2018 01:00:00.00	0.2082	2.208	19.717	9.50634201335464	368.709100208121
28-01-2018 02:00:00.00	0.2067	2.2074	19.719	9.50832570404496	366.060123754886
28-01-2018 03:00:00.00	0.2075	2.2073	19.7202	9.50951591845914	367.478145189216
28-01-2018 04:00:00.00	0.2076	2.2069	19.7236	9.51288819263268	367.660217636076
28-01-2018 05:00:00.00	0.207	2.2067	19.7281	9.5173514966859	366.600095985469
28-01-2018 06:00:00.00	0.2071	2.2062	19.7298	9.51903763377266	366.783400959503
28-01-2018 07:00:00.00	0.207	2.2059	19.7381	9.52726995013747	366.610016858925
28-01-2018 08:00:00.00	0.2071	2.2057	19.7356	9.52479033677458	366.78960464774
28-01-2018 09:00:00.00	0.2064	2.2052	19.7324	9.52161643167007	365.556035170741
28-01-2018 10:00:00.00	0.2063	2.2048	19.7348	9.52399686049845	365.383868785711
28-01-2018 11:00:00.00	0.2066	2.2044	19.7396	9.52875771815521	365.920158842647
28-01-2018 12:00:00.00	0.2075	2.2041	19.7391	9.52826179548263	367.51792615178
28-01-2018 13:00:00.00	0.2072	2.2039	19.74	9.52915445629327	366.989057934306
28-01-2018 14:00:00.00	0.2065	2.2037	19.7492	9.53827943346873	365.751704681907
28-01-2018 15:00:00.00	0.2068	2.2034	19.7484	9.5374859571926	366.286780515258
28-01-2018 16:00:00.00	0.2075	2.2029	19.7528	9.5418500767113	367.532846233344
28-01-2018 17:00:00.00	0.2066	2.2026	19.7582	9.54720604157515	365.942441894593
28-01-2018 18:00:00.00	0.2069	2.2024	19.7572	9.54621419622999	366.476299735032
28-01-2018 19:00:00.00	0.2073	2.2023	19.7649	9.55385140538771	367.186051011087
28-01-2018 20:00:00.00	0.2074	2.2018	19.7609	9.54988402400708	367.369393184054
28-01-2018 21:00:00.00	0.2079	2.2016	19.7692	9.55811634037189	368.257539236167
28-01-2018 22:00:00.00	0.2067	2.201	19.7676	9.55652938781964	366.139386979573
28-01-2018 23:00:00.00	0.2079	2.2008	19.7688	9.55771960223383	368.267506682665
29-01-2018 00:00:00.00	0.2076	2.2003	19.7736	9.56248045989058	367.742317077381
29-01-2018 01:00:00.00	0.2083	2.2001	19.7713	9.56019921559672	368.984792813445
29-01-2018 02:00:00.00	0.2064	2.1998	19.7763	9.56515844232251	365.622824132339
29-01-2018 03:00:00.00	0.2071	2.1996	19.773	9.56188535268349	366.865306545281
29-01-2018 04:00:00.00	0.2075	2.1994	19.7744	9.56327393616671	367.576370058104
29-01-2018 05:00:00.00	0.208	2.1989	19.7779	9.56674539487476	368.468329766188
29-01-2018 06:00:00.00	0.2063	2.1987	19.777	9.56585273406412	365.459282849134
29-01-2018 07:00:00.00	0.2071	2.1982	19.7762	9.565059257788	366.882685160341
29-01-2018 08:00:00.00	0.2078	2.198	19.7794	9.5682331628925	368.125243364799
29-01-2018 09:00:00.00	0.2073	2.1977	19.7767	9.56555518046058	367.243203064392
29-01-2018 10:00:00.00	0.2076	2.1974	19.7764	9.56525762685703	367.778402670369
29-01-2018 11:00:00.00	0.2083	2.1971	19.7687	9.55762041769931	369.022249242517
29-01-2018 12:00:00.00	0.207	2.1969	19.776	9.56486088871896	366.721663696074
29-01-2018 13:00:00.00	0.2074	2.1964	19.773	9.56188535268349	367.436521177631
29-01-2018 14:00:00.00	0.2073	2.1961	19.7731	9.56198453721801	367.26308621004
29-01-2018 15:00:00.00	0.2071	2.1961	19.7725	9.56138943001091	366.908756170281
29-01-2018 16:00:00.00	0.2069	2.1957	19.7713	9.56019921559672	366.559387661214
29-01-2018 17:00:00.00	0.2075	2.1953	19.7705	9.55940573932059	367.627368222287
29-01-2018 18:00:00.00	0.208	2.1949	19.7646	9.55355385178416	368.518205481464
29-01-2018 19:00:00.00	0.2077	2.1947	19.7633	9.55226445283546	367.989179381827
29-01-2018 20:00:00.00	0.2078	2.1942	19.7661	9.5550416198019	368.172582297646
29-01-2018 21:00:00.00	0.2071	2.1939	19.7696	9.55851307850995	366.936072631301
29-01-2018 22:00:00.00	0.2075	2.1937	19.7579	9.5469084879716	367.647273783842
29-01-2018 23:00:00.00	0.2076	2.1933	19.7668	9.55573591154351	367.829432318525
30-01-2018 00:00:00.00	0.2075	2.193	19.7592	9.54819788692031	367.655983144878
30-01-2018 01:00:00.00	0.2084	2.1928	19.766	9.55494243526738	369.253134859891
30-01-2018 02:00:00.00	0.207	2.1924	19.7665	9.55543835793996	366.777512619096
30-01-2018 03:00:00.00	0.2067	2.192	19.7675	9.55643020328512	366.250908982662
30-01-2018 04:00:00.00	0.2086	2.1916	19.7706	9.55950492385511	369.622515121388
30-01-2018 05:00:00.00	0.2068	2.1913	19.7691	9.55801715583738	366.436779564338
30-01-2018 06:00:00.00	0.2071	2.1912	19.7676	9.55652938781964	366.969602938535
30-01-2018 07:00:00.00	0.2074	2.1908	19.7622	9.55117342295578	367.506161309901
30-01-2018 08:00:00.00	0.2075	2.1905	19.7731	9.56198453721801	367.687091374495
30-01-2018 09:00:00.00	0.2074	2.1903	19.7653	9.55424814352577	367.512380462567
30-01-2018 10:00:00.00	0.2077	2.1896	19.7688	9.55771960223383	368.052699617821
30-01-2018 11:00:00.00	0.2081	2.1901	19.764	9.55295874457707	368.755275162936
30-01-2018 12:00:00.00	0.2073	2.1892	19.7688	9.55771960223383	367.348856944325
30-01-2018 13:00:00.00	0.2083	2.1891	19.773	9.56188535268349	369.122170241307
30-01-2018 14:00:00.00	0.2079	2.1879	19.771	9.55990166199317	368.428306288291
30-01-2018 15:00:00.00	0.2084	2.1867	19.7713	9.56019921559672	369.329378484405
30-01-2018 16:00:00.00	0.2085	2.186	19.7903	9.57904427715472	369.515355356803
30-01-2018 17:00:00.00	0.2074	2.1847	19.7949	9.58360676574245	367.582049355706
30-01-2018 18:00:00.00	0.208	2.1846	19.7983	9.58697903991599	368.646697618574
30-01-2018 19:00:00.00	0.2078	2.1856	19.8018	9.59045049862404	368.279762747017
30-01-2018 20:00:00.00	0.2087	2.1849	19.8058	9.59441788000468	369.883579187759
30-01-2018 21:00:00.00	0.208	2.1828	19.81	9.59858363045434	368.669161753382
30-01-2018 22:00:00.00	0.2082	2.1825	19.8123	9.6008648747482	369.027399220913
30-01-2018 23:00:00.00	0.2067	2.1825	19.8131	9.60165835102433	366.368700379263
31-01-2018 00:00:00.00	0.2084	2.1821	19.8143	9.60284856543852	369.386894503936
31-01-2018 01:00:00.00	0.2077	2.182	19.823	9.61147761994139	368.147397922848
31-01-2018 02:00:00.00	0.2089	2.1822	19.8287	9.6171311384088	370.271885913294
31-01-2018 03:00:00.00	0.2086	2.1822	19.839	9.62734714546392	369.740140744438
31-01-2018 04:00:00.00	0.2074	2.1818	19.8396	9.62794225267102	367.618138271852
31-01-2018 05:00:00.00	0.2083	2.1816	19.8384	9.62675203825683	369.215895334543
31-01-2018 06:00:00.00	0.2083	2.1813	19.8408	9.62913246708521	369.219645328282
31-01-2018 07:00:00.00	0.2083	2.1813	19.8438	9.63210800312068	369.219645328282
31-01-2018 08:00:00.00	0.2072	2.1812	19.8503	9.63855499786421	367.271097047984
31-01-2018 09:00:00.00	0.2089	2.1806	19.8559	9.64410933179709	370.291943556943
31-01-2018 10:00:00.00	0.2091	2.1811	19.8569	9.64510117714225	370.640185291023
31-01-2018 11:00:00.00	0.208	2.1795	19.8634	9.65154817188578	368.710353111955
31-01-2018 12:00:00.00	0.2079	2.1809	19.8575	9.64569628434935	368.515620675226
31-01-2018 13:00:00.00	0.2077	2.1782	19.865	9.65313512443803	368.194765351798
31-01-2018 14:00:00.00	0.2075	2.1771	19.8778	9.66583074485606	367.853921254548
31-01-2018 15:00:00.00	0.2078	2.1764	19.878	9.66602911392509	368.394490009773
31-01-2018 16:00:00.00	0.2083	2.1763	19.8803	9.66831035821895	369.282156440438
31-01-2018 17:00:00.00	0.2084	2.1761	19.8771	9.66513645311444	369.461942326317
31-01-2018 18:00:00.00	0.2073	2.1761	19.8821	9.67009567984024	367.511807314038
31-01-2018 19:00:00.00	0.2076	2.1754	19.881	9.66900464996056	368.05238626481
31-01-2018 20:00:00.00	0.2075	2.1753	19.8763	9.66434297683832	367.876342773028
31-01-2018 21:00:00.00	0.2082	2.175	19.8768	9.6648388995109	369.121121192109
31-01-2018 22:00:00.00	0.2084	2.1751	19.8733	9.66136744080285	369.474453261579
31-01-2018 23:00:00.00	0.2077	2.1747	19.865	9.65313512443803	368.238404031709
01-02-2018 00:00:00.00	0.2083	2.1744	19.8626	9.65075469560965	369.305916213406
01-02-2018 01:00:00.00	0.2064	2.1738	19.8554	9.64361340912451	365.944742556632
01-02-2018 02:00:00.00	0.2078	2.1737	19.8522	9.64043950402001	368.428173535769
01-02-2018 03:00:00.00	0.2084	2.1735	19.8419	9.63022349696488	369.494472520489
01-02-2018 04:00:00.00	0.2086	2.1733	19.8395	9.6278430681365	369.851578703308
01-02-2018 05:00:00.00	0.2073	2.173	19.8285	9.61693276933976	367.550389243486
01-02-2018 06:00:00.00	0.2075	2.1729	19.8131	9.60165835102433	367.906242383122
01-02-2018 07:00:00.00	0.2086	2.1724	19.7994	9.58807006979566	369.862851450384
01-02-2018 08:00:00.00	0.2084	2.1724	19.7855	9.57428341949797	369.508237019463
01-02-2018 09:00:00.00	0.2082	2.172	19.7687	9.55762041769931	369.158623311392
01-02-2018 10:00:00.00	0.2079	2.1714	19.7594	9.54839625598934	368.634184988826
01-02-2018 11:00:00.00	0.2074	2.1713	19.7486	9.53768432626163	367.748864336008
01-02-2018 12:00:00.00	0.2078	2.171	19.7333	9.52250909248072	368.461863221921
01-02-2018 13:00:00.00	0.2075	2.1708	19.7217	9.51100368647688	367.932408529166
01-02-2018 14:00:00.00	0.2075	2.1707	19.7036	9.49305128572952	367.933654628959
01-02-2018 15:00:00.00	0.2067	2.1706	19.699	9.4884887971418	366.516356541579
01-02-2018 16:00:00.00	0.207	2.1703	19.6887	9.47827279008667	367.052039982145
01-02-2018 17:00:00.00	0.2085	2.17	19.6712	9.4609154965464	369.715593841265
01-02-2018 18:00:00.00	0.2075	2.1697	19.6601	9.44990601321514	367.946116091131
01-02-2018 19:00:00.00	0.2079	2.1696	19.6566	9.44643455450709	368.65665840384
01-02-2018 20:00:00.00	0.2071	2.1694	19.6375	9.42749030841457	367.240553769674
01-02-2018 21:00:00.00	0.208	2.1692	19.6234	9.41350528904784	368.838979300544
01-02-2018 22:00:00.00	0.2084	2.169	19.6152	9.40537215721755	369.550788318861
01-02-2018 23:00:00.00	0.2082	2.1687	19.6072	9.39743739445628	369.199884445047
02-02-2018 00:00:00.00	0.2081	2.1688	19.601	9.3912879533163	369.021305137387
02-02-2018 01:00:00.00	0.2093	2.1682	19.5993	9.38960181622953	371.156793759998
02-02-2018 02:00:00.00	0.2091	2.1667	19.5982	9.38851078634986	370.820968718086
02-02-2018 03:00:00.00	0.2095	2.167	19.5922	9.38255971427891	371.526559183471
02-02-2018 04:00:00.00	0.2073	2.1669	19.5856	9.37601353500087	367.626332182153
02-02-2018 05:00:00.00	0.2091	2.1661	19.5868	9.37720374941506	370.828505188167
02-02-2018 06:00:00.00	0.2081	2.1652	19.5836	9.37402984431055	369.066305874351
02-02-2018 07:00:00.00	0.2073	2.1644	19.5785	9.36897143305025	367.65746540455
02-02-2018 08:00:00.00	0.208	2.1637	19.5843	9.37472413605216	368.907699949703
02-02-2018 09:00:00.00	0.2074	2.1634	19.5769	9.36738448049799	367.847281443644
02-02-2018 10:00:00.00	0.2086	2.1633	19.571	9.36153259296156	369.976870060594
02-02-2018 11:00:00.00	0.2075	2.1629	19.5719	9.3624252537722	368.030876424827
02-02-2018 12:00:00.00	0.2079	2.163	19.5692	9.35974727134028	368.739084374207
02-02-2018 13:00:00.00	0.2084	2.1627	19.5662	9.3567717353048	369.62965928251
02-02-2018 14:00:00.00	0.2081	2.1622	19.5699	9.36044156308189	369.103814873277
02-02-2018 15:00:00.00	0.2079	2.1622	19.5685	9.35905297959867	368.749077905595
02-02-2018 16:00:00.00	0.208	2.1619	19.5666	9.35716847344287	368.930195906013
02-02-2018 17:00:00.00	0.2095	2.1613	19.5658	9.35637499716674	371.598303546433
02-02-2018 18:00:00.00	0.2087	2.162	19.5643	9.354887229149	370.170533857922
02-02-2018 19:00:00.00	0.2087	2.162	19.5598	9.35042392509579	370.170533857922
02-02-2018 20:00:00.00	0.208	2.1606	19.5649	9.3554823363561	368.94644469193
02-02-2018 21:00:00.00	0.2078	2.1603	19.5647	9.35528396728706	368.595434812505
02-02-2018 22:00:00.00	0.2077	2.1602	19.573	9.36351628365188	368.419303099678
02-02-2018 23:00:00.00	0.2071	2.1601	19.5658	9.35637499716674	367.35626467751
03-02-2018 00:00:00.00	0.2082	2.16	19.571	9.36153259296156	369.30870802262
03-02-2018 01:00:00.00	0.208	2.1593	19.5753	9.36579752794574	368.9626949092
03-02-2018 02:00:00.00	0.2077	2.159	19.5784	9.36887224851573	368.434282020567
03-02-2018 03:00:00.00	0.2071	2.1593	19.5859	9.37631108860442	367.366221710074
03-02-2018 04:00:00.00	0.2091	2.1588	19.5838	9.37422821337958	370.920223450432
03-02-2018 05:00:00.00	0.2104	2.1596	19.5911	9.38146868439924	373.216163325069
03-02-2018 06:00:00.00	0.2084	2.1592	19.5871	9.37750130301861	369.673491033254
03-02-2018 07:00:00.00	0.2075	2.1576	19.5877	9.3780964102257	368.096966710694
03-02-2018 08:00:00.00	0.2087	2.1572	19.5896	9.3799809163815	370.230738014086
03-02-2018 09:00:00.00	0.2078	2.157	19.5834	9.37383147524152	368.636649330573
03-02-2018 10:00:00.00	0.2093	2.1566	19.5825	9.37293881443088	371.30267774692
03-02-2018 11:00:00.00	0.2073	2.1566	19.5814	9.37184778455121	367.754634959086
03-02-2018 12:00:00.00	0.2079	2.1563	19.5804	9.37085593920605	368.822796931756
03-02-2018 13:00:00.00	0.2079	2.1561	19.5744	9.3649048671351	368.825296398315
03-02-2018 14:00:00.00	0.2087	2.1559	19.5707	9.36123503935801	370.247046676621
03-02-2018 15:00:00.00	0.2072	2.1555	19.5622	9.35280435392417	367.590933738629
03-02-2018 16:00:00.00	0.2075	2.1551	19.5537	9.34437366849033	368.128149613525
03-02-2018 17:00:00.00	0.2091	2.1549	19.5439	9.33465358410778	370.969242214511
03-02-2018 18:00:00.00	0.2089	2.1546	19.536	9.32681800588103	370.618185100666
03-02-2018 19:00:00.00	0.2067	2.1545	19.5276	9.3184865049817	366.716316188237
03-02-2018 20:00:00.00	0.2077	2.1542	19.5187	9.30965908140979	368.494209886141
03-02-2018 21:00:00.00	0.2091	2.1541	19.5116	9.30261697945917	370.979298947059
03-02-2018 22:00:00.00	0.208	2.1537	19.4925	9.28367273336665	369.032712212838
03-02-2018 23:00:00.00	0.2079	2.1537	19.4828	9.27405183351862	368.855292639659
04-02-2018 00:00:00.00	0.2081	2.1533	19.4697	9.26105865949705	369.2151364438
04-02-2018 01:00:00.00	0.2088	2.1532	19.4587	9.25014836070031	370.458345684902
04-02-2018 02:00:00.00	0.2083	2.1532	19.4472	9.23874213923099	369.571232788147
04-02-2018 03:00:00.00	0.2074	2.1527	19.4339	9.22555059614039	367.9806645855
04-02-2018 04:00:00.00	0.2074	2.1525	19.426	9.21771501791364	367.983158649268
04-02-2018 05:00:00.00	0.207	2.1524	19.4098	9.20164712332208	367.274696136079
04-02-2018 06:00:00.00	0.2078	2.1522	19.3958	9.18776128848987	368.69661417631
04-02-2018 07:00:00.00	0.2075	2.1521	19.3883	9.18032244840118	368.165576071516
04-02-2018 08:00:00.00	0.2082	2.1519	19.3688	9.1609814641706	369.410084210418
04-02-2018 09:00:00.00	0.2075	2.1517	19.3623	9.15453446942707	368.170566840905
04-02-2018 10:00:00.00	0.2071	2.1516	19.3545	9.14679807573484	367.462085755253
04-02-2018 11:00:00.00	0.209	2.1514	19.3437	9.13608614600713	370.835811042937
04-02-2018 12:00:00.00	0.2074	2.1507	19.3316	9.12408481733072	368.005606744631
04-02-2018 13:00:00.00	0.2074	2.1506	19.3357	9.12815138324587	368.006853941345
04-02-2018 14:00:00.00	0.2063	2.1504	19.3336	9.12606850802104	366.057514786381
04-02-2018 15:00:00.00	0.2078	2.1497	19.3293	9.12180357303686	368.72785359382
04-02-2018 16:00:00.00	0.2083	2.15	19.3318	9.12428318639975	369.611313690524
04-02-2018 17:00:00.00	0.2094	2.1494	19.3314	9.12388644826169	371.570729553043
04-02-2018 18:00:00.00	0.2086	2.1492	19.3342	9.12666361522813	370.153675171731
04-02-2018 19:00:00.00	0.2088	2.1509	19.3391	9.13152365741941	370.48722210331
04-02-2018 20:00:00.00	0.2085	2.1498	19.3426	9.13499511612746	369.968705083625
04-02-2018 21:00:00.00	0.2078	2.1457	19.3568	9.1490793200287	368.777847674411
04-02-2018 22:00:00.00	0.2078	2.1474	19.3619	9.15413773128901	368.756598533768
04-02-2018 23:00:00.00	0.2083	2.1475	19.3792	9.17129665576025	369.642632945132
05-02-2018 00:00:00.00	0.2086	2.1491	19.3827	9.1747681144683	370.154929712175
05-02-2018 01:00:00.00	0.2083	2.1472	19.3918	9.18379390710924	369.646391612367
05-02-2018 02:00:00.00	0.208	2.147	19.413	9.20482102842659	369.116517839951
05-02-2018 03:00:00.00	0.2085	2.1485	19.4164	9.20819330260012	369.985006291076
05-02-2018 04:00:00.00	0.2074	2.1475	19.4263	9.21801257151719	368.045521232935
05-02-2018 05:00:00.00	0.208	2.1475	19.4423	9.23388209703972	369.110262374399
05-02-2018 06:00:00.00	0.2072	2.1466	19.4502	9.24171767526647	367.701824202113
05-02-2018 07:00:00.00	0.208	2.1463	19.4608	9.25223123592514	369.12527584794
05-02-2018 08:00:00.00	0.2083	2.1462	19.4748	9.26611707075736	369.658921055229
05-02-2018 09:00:00.00	0.2077	2.1473	19.4897	9.28089556640021	368.580390355559
05-02-2018 10:00:00.00	0.208	2.1453	19.491	9.28218496534892	369.137788008889
05-02-2018 11:00:00.00	0.2083	2.1449	19.5027	9.29378955588727	369.675210600844
05-02-2018 12:00:00.00	0.2086	2.1451	19.5162	9.3071794680469	370.20511830405
05-02-2018 13:00:00.00	0.2091	2.1396	19.5261	9.31699873696397	371.161671776071
05-02-2018 14:00:00.00	0.2087	2.1458	19.532	9.3228506245004	370.373801400634
05-02-2018 15:00:00.00	0.2093	2.1442	19.5494	9.34010873350615	371.458749567977
05-02-2018 16:00:00.00	0.2089	2.1436	19.5623	9.35290353845869	370.756383487828
05-02-2018 17:00:00.00	0.2078	2.1437	19.5735	9.36401220632446	368.802849798899
05-02-2018 18:00:00.00	0.2085	2.1433	19.5803	9.37075675467153	370.050225488374
05-02-2018 19:00:00.00	0.2089	2.1428	19.5874	9.37779885662215	370.766438300098
05-02-2018 20:00:00.00	0.2073	2.1426	19.6026	9.39287490586856	367.929170741605
05-02-2018 21:00:00.00	0.2086	2.1421	19.6114	9.40160314490595	370.242768680394
05-02-2018 22:00:00.00	0.2079	2.1419	19.6181	9.40824850871851	369.002845155704
05-02-2018 23:00:00.00	0.2083	2.1419	19.6302	9.42024983739492	369.712807339745
06-02-2018 00:00:00.00	0.2088	2.1426	19.6399	9.42987073724295	370.591465754207
06-02-2018 01:00:00.00	0.2084	2.1431	19.6483	9.43820223814228	369.875251052383
06-02-2018 02:00:00.00	0.2077	2.1416	19.663	9.4527823647161	368.651613327375
06-02-2018 03:00:00.00	0.2091	2.1425	19.6708	9.46051875840834	371.125182867009
06-02-2018 04:00:00.00	0.2089	2.1415	19.6791	9.46875107477315	370.782778533257
06-02-2018 05:00:00.00	0.2076	2.1415	19.6881	9.47767768287957	368.475370146023
06-02-2018 06:00:00.00	0.2091	2.1412	19.6848	9.47440459324055	371.141539076927
06-02-2018 07:00:00.00	0.2087	2.1404	19.6877	9.47728094474151	370.441606865286
06-02-2018 08:00:00.00	0.2077	2.1402	19.6935	9.48303364774343	368.66911089968
06-02-2018 09:00:00.00	0.208	2.1398	19.692	9.48154587972569	369.206620059301
06-02-2018 10:00:00.00	0.2081	2.1399	19.6929	9.48243854053633	369.382870919289
06-02-2018 11:00:00.00	0.2087	2.1397	19.6909	9.48045484984601	370.450398280329
06-02-2018 12:00:00.00	0.2084	2.1402	19.689	9.47857034369021	369.911616328808
06-02-2018 13:00:00.00	0.2087	2.1399	19.6919	9.48144669519117	370.44788640488
06-02-2018 14:00:00.00	0.2083	2.1395	19.687	9.4765866529999	369.742890237394
06-02-2018 15:00:00.00	0.209	2.1388	19.679	9.46865189023863	370.99422974391
06-02-2018 16:00:00.00	0.208	2.139	19.677	9.46666819954832	369.216634132409
06-02-2018 17:00:00.00	0.2078	2.1394	19.6671	9.45684893063125	368.856615848118
06-02-2018 18:00:00.00	0.2078	2.1386	19.6524	9.44226880405743	368.866620563664
06-02-2018 19:00:00.00	0.2085	2.1385	19.6522	9.4420704349884	370.110448235705
06-02-2018 20:00:00.00	0.2087	2.1388	19.6423	9.43225116607133	370.461702141407
06-02-2018 21:00:00.00	0.2068	2.1393	19.6292	9.41925799204976	367.082804490616
06-02-2018 22:00:00.00	0.2073	2.1382	19.6249	9.41499305706558	367.984059065471
06-02-2018 23:00:00.00	0.208	2.1382	19.613	9.4031900974582	369.22664874876
07-02-2018 00:00:00.00	0.2072	2.1377	19.6026	9.39287490586856	367.812781590019
07-02-2018 01:00:00.00	0.2074	2.1379	19.5976	9.38791567914277	368.165316665042
07-02-2018 02:00:00.00	0.2085	2.1379	19.5877	9.3780964102257	370.117977457383
07-02-2018 03:00:00.00	0.2075	2.1381	19.5852	9.37561679686281	368.340333545219
07-02-2018 04:00:00.00	0.207	2.1377	19.5792	9.36966572479186	367.457749947557
07-02-2018 05:00:00.00	0.2082	2.1389	19.5749	9.36540078980768	369.572903127753
07-02-2018 06:00:00.00	0.2085	2.1369	19.5719	9.3624252537722	370.130526840952
07-02-2018 07:00:00.00	0.208	2.1374	19.5615	9.35211006218256	369.236663908398
07-02-2018 08:00:00.00	0.2076	2.1382	19.5618	9.35240761578611	368.516597501166
07-02-2018 09:00:00.00	0.2087	2.1378	19.5516	9.3422907932655	370.474262796158
07-02-2018 10:00:00.00	0.2091	2.1375	19.5483	9.33901770362647	371.188099258645
07-02-2018 11:00:00.00	0.2076	2.1369	19.5452	9.33594298305649	368.532841113581
07-02-2018 12:00:00.00	0.2079	2.1381	19.5452	9.33594298305649	369.050387200246
07-02-2018 13:00:00.00	0.2095	2.1363	19.5468	9.33752993560874	371.913299358624
07-02-2018 14:00:00.00	0.2078	2.1357	19.5406	9.33138049446876	368.902892207551
07-02-2018 15:00:00.00	0.2082	2.1344	19.533	9.32384246984556	369.629296967208
07-02-2018 16:00:00.00	0.2082	2.1344	19.5462	9.33693482840164	369.629296967208
07-02-2018 17:00:00.00	0.207	2.1346	19.5433	9.33405847690068	367.496376432468
07-02-2018 18:00:00.00	0.2089	2.1342	19.5441	9.33485195317681	370.874561985425
07-02-2018 19:00:00.00	0.2085	2.1342	19.5514	9.34209242419647	370.16441442777
07-02-2018 20:00:00.00	0.2072	2.134	19.5511	9.34179487059292	367.858929651241
07-02-2018 21:00:00.00	0.2083	2.1338	19.5533	9.34397693035226	369.814356743701
07-02-2018 22:00:00.00	0.2074	2.1337	19.5547	9.34536551383549	368.21775169259
07-02-2018 23:00:00.00	0.208	2.1335	19.5546	9.34526632930097	369.285495593119
08-02-2018 00:00:00.00	0.2076	2.1334	19.5583	9.34893615707805	368.576581034633
08-02-2018 01:00:00.00	0.2079	2.1332	19.5656	9.35617662809771	369.111709501734
08-02-2018 02:00:00.00	0.2083	2.1332	19.5693	9.35984645587479	369.821881140987
08-02-2018 03:00:00.00	0.2095	2.133	19.577	9.36748366503251	371.954918708764
08-02-2018 04:00:00.00	0.2087	2.1327	19.5811	9.37155023094766	370.538335386622
08-02-2018 05:00:00.00	0.2088	2.1328	19.5852	9.37561679686281	370.714624166389
08-02-2018 06:00:00.00	0.2078	2.1327	19.5929	9.38325400602052	368.940422105127
08-02-2018 07:00:00.00	0.2077	2.1326	19.5953	9.3856344348489	368.764126710976
08-02-2018 08:00:00.00	0.2077	2.1323	19.5972	9.3875189410047	368.767878339908
08-02-2018 09:00:00.00	0.2089	2.1321	19.6053	9.39555288830048	370.900973860962
08-02-2018 10:00:00.00	0.2077	2.1319	19.6132	9.40338846652723	368.772880630562
08-02-2018 11:00:00.00	0.2087	2.1319	19.6154	9.40557052628658	370.548387999992
08-02-2018 12:00:00.00	0.2078	2.1317	19.6242	9.41429876532397	368.952933767959
08-02-2018 13:00:00.00	0.2083	2.1316	19.6326	9.4226302662233	369.841947697424
08-02-2018 14:00:00.00	0.2076	2.1316	19.6362	9.42620090946587	368.599079894312
08-02-2018 15:00:00.00	0.2085	2.1313	19.6411	9.43106095165714	370.200819118584
08-02-2018 16:00:00.00	0.2086	2.1312	19.6463	9.43621854745196	370.379629532303
08-02-2018 17:00:00.00	0.2083	2.131	19.6458	9.43572262477939	369.849473217518
08-02-2018 18:00:00.00	0.2087	2.1309	19.6575	9.44732721531773	370.560954533769
08-02-2018 19:00:00.00	0.2082	2.1307	19.6586	9.44841824519741	369.675678129815
08-02-2018 20:00:00.00	0.2086	2.1306	19.6588	9.44861661426644	370.387166095348
08-02-2018 21:00:00.00	0.2082	2.1304	19.6709	9.46061794294285	369.679439274772
08-02-2018 22:00:00.00	0.2073	2.1303	19.6643	9.45407176366481	368.082649665237
08-02-2018 23:00:00.00	0.2081	2.1301	19.6648	9.45456768633739	369.505638920617
09-02-2018 00:00:00.00	0.2083	2.13	19.6705	9.46022120480479	369.862016431604
09-02-2018 01:00:00.00	0.208	2.1297	19.6705	9.46022120480479	369.333087608454
09-02-2018 02:00:00.00	0.2086	2.1296	19.6724	9.46210571096059	370.39972771536
09-02-2018 03:00:00.00	0.2087	2.1295	19.6818	9.47142905720507	370.578549113066
09-02-2018 04:00:00.00	0.2087	2.1293	19.6768	9.46646983047929	370.581062760788
09-02-2018 05:00:00.00	0.2072	2.129	19.6844	9.47400785510249	367.921310297056
09-02-2018 06:00:00.00	0.2094	2.129	19.6785	9.46815596756605	371.827810695963
09-02-2018 07:00:00.00	0.2082	2.1288	19.6768	9.46646983047929	369.699500007174
09-02-2018 08:00:00.00	0.208	2.1285	19.6721	9.46180815735704	369.348119214563
09-02-2018 09:00:00.00	0.2093	2.1286	19.6756	9.46527961606509	371.655284449826
09-02-2018 10:00:00.00	0.2074	2.1283	19.6653	9.45506360900997	368.285190107164
09-02-2018 11:00:00.00	0.2084	2.1282	19.6693	9.4590309903906	370.062169379018
09-02-2018 12:00:00.00	0.2081	2.1279	19.6678	9.45754322237286	369.533210301208
09-02-2018 13:00:00.00	0.2075	2.1279	19.6599	9.44970764414611	368.467761352718
09-02-2018 14:00:00.00	0.2085	2.1277	19.6707	9.46041957387382	370.246021111623
09-02-2018 15:00:00.00	0.2076	2.1274	19.6658	9.45555953168255	368.651587916993
09-02-2018 16:00:00.00	0.21	2.1272	19.6678	9.45754322237286	372.915985651045
09-02-2018 17:00:00.00	0.2087	2.1269	19.6643	9.45407176366481	370.611229193496
09-02-2018 18:00:00.00	0.2074	2.1268	19.6647	9.45446850180287	368.303927384246
09-02-2018 19:00:00.00	0.2079	2.1266	19.6587	9.44851742973192	369.194339105373
09-02-2018 20:00:00.00	0.2084	2.1266	19.6575	9.44732721531773	370.082252378835
09-02-2018 21:00:00.00	0.2075	2.1262	19.6577	9.44752558438677	368.489007892981
09-02-2018 22:00:00.00	0.2074	2.1262	19.6576	9.44742639985225	368.311422828936
09-02-2018 23:00:00.00	0.208	2.126	19.6479	9.43780550000422	369.37943899077
10-02-2018 00:00:00.00	0.2084	2.1258	19.6447	9.43463159489971	370.092294696183
10-02-2018 01:00:00.00	0.2073	2.1257	19.6451	9.43502833303777	368.140081190072
10-02-2018 02:00:00.00	0.2074	2.1253	19.6503	9.4401859288326	368.322666568021
10-02-2018 03:00:00.00	0.2078	2.1254	19.6525	9.44236798859194	369.031776761561
10-02-2018 04:00:00.00	0.2077	2.125	19.6458	9.43572262477939	368.859191511088
10-02-2018 05:00:00.00	0.2086	2.1249	19.6451	9.43502833303777	370.458778744453
10-02-2018 06:00:00.00	0.208	2.1248	19.6399	9.42987073724295	369.394474370133
10-02-2018 07:00:00.00	0.2086	2.1244	19.6374	9.42739112388006	370.4650618769
10-02-2018 08:00:00.00	0.2082	2.1241	19.6433	9.43324301141649	369.758441001799
10-02-2018 09:00:00.00	0.2087	2.1241	19.6378	9.42778786201812	370.646429572889
10-02-2018 10:00:00.00	0.2085	2.124	19.6296	9.41965473018782	370.292490219661
10-02-2018 11:00:00.00	0.2068	2.1238	19.6361	9.42610172493135	367.275810529584
10-02-2018 12:00:00.00	0.2071	2.1236	19.6293	9.41935717658428	367.811104435692
10-02-2018 13:00:00.00	0.2083	2.1233	19.6341	9.42411803424104	369.946077917109
10-02-2018 14:00:00.00	0.2086	2.1231	19.6403	9.43026747538102	370.48139901875
10-02-2018 15:00:00.00	0.2086	2.123	19.6321	9.42213434355072	370.482655781652
10-02-2018 16:00:00.00	0.2075	2.1226	19.6403	9.43026747538102	368.534008655772
10-02-2018 17:00:00.00	0.2077	2.1226	19.6363	9.42630009400038	368.88922215809
10-02-2018 18:00:00.00	0.209	2.1224	19.6414	9.43135850526069	371.20062836274
10-02-2018 19:00:00.00	0.2077	2.122	19.6399	9.42987073724295	368.896730583901
10-02-2018 20:00:00.00	0.2085	2.1219	19.647	9.43691283919357	370.318869767627
10-02-2018 21:00:00.00	0.2081	2.1217	19.6467	9.43661528559003	369.610933606491
10-02-2018 22:00:00.00	0.2084	2.1217	19.654	9.44385575660968	370.143770127789
10-02-2018 23:00:00.00	0.2077	2.1215	19.6649	9.4546668708719	368.902987838901
11-02-2018 00:00:00.00	0.2065	2.1211	19.6592	9.4490133524045	366.776604327491
11-02-2018 01:00:00.00	0.2083	2.121	19.6686	9.45833669864899	369.97494365564
11-02-2018 02:00:00.00	0.2075	2.1208	19.6773	9.46696575315186	368.556513159119
11-02-2018 03:00:00.00	0.2076	2.1204	19.6869	9.47648746846538	368.739134540122
11-02-2018 04:00:00.00	0.2091	2.1206	19.6931	9.48263690960536	371.400914658677
11-02-2018 05:00:00.00	0.2073	2.12	19.6965	9.4860091837789	368.211271208117
11-02-2018 06:00:00.00	0.2088	2.1199	19.7029	9.49235699398791	370.876865701135
11-02-2018 07:00:00.00	0.2087	2.1198	19.7054	9.49483660735081	370.700500319563
11-02-2018 08:00:00.00	0.2075	2.1196	19.7111	9.5004901258182	368.571517688342
11-02-2018 09:00:00.00	0.2081	2.1193	19.715	9.50435832266432	369.641028825552
11-02-2018 10:00:00.00	0.2082	2.1189	19.7186	9.50792896590689	369.823674218098
11-02-2018 11:00:00.00	0.2081	2.1188	19.7272	9.51645883587525	369.64729927974
11-02-2018 12:00:00.00	0.2077	2.1187	19.7232	9.51249145449462	368.938032390059
11-02-2018 13:00:00.00	0.208	2.1182	19.7286	9.51784741935847	369.47719084076
11-02-2018 14:00:00.00	0.2086	2.1182	19.7225	9.51179716275301	370.542990429724
11-02-2018 15:00:00.00	0.2086	2.1179	19.7239	9.51318574623623	370.546761997726
11-02-2018 16:00:00.00	0.2073	2.1179	19.7239	9.51318574623623	368.237506050473
11-02-2018 17:00:00.00	0.2089	2.1175	19.7268	9.51606209773719	371.084703325418
11-02-2018 18:00:00.00	0.2081	2.1175	19.7185	9.50782978137238	369.663603456292
11-02-2018 19:00:00.00	0.2076	2.1173	19.7147	9.50406076906078	368.777918473541
11-02-2018 20:00:00.00	0.2085	2.1171	19.7087	9.49810969698983	370.379179993286
11-02-2018 21:00:00.00	0.2072	2.117	19.702	9.49146433317727	368.071110201592
11-02-2018 22:00:00.00	0.2083	2.1169	19.7011	9.49057167236663	370.026411145814
11-02-2018 23:00:00.00	0.2079	2.116	19.6936	9.48313283227794	369.327124705729
12-02-2018 00:00:00.00	0.2087	2.1163	19.6892	9.47876871275924	370.744523040191
12-02-2018 01:00:00.00	0.2074	2.1159	19.6904	9.47995892717343	368.440142217895
12-02-2018 02:00:00.00	0.2085	2.1154	19.6927	9.4822401714673	370.400544575849
12-02-2018 03:00:00.00	0.2084	2.1157	19.6932	9.48273609413988	370.219125843361
12-02-2018 04:00:00.00	0.2079	2.1159	19.6843	9.47390867056797	369.328377854872
12-02-2018 05:00:00.00	0.2099	2.1149	19.6882	9.47777686741409	372.893972919512
12-02-2018 06:00:00.00	0.2087	2.115	19.6875	9.47708257567248	370.76087699959
12-02-2018 07:00:00.00	0.209	2.115	19.6917	9.48124832612214	371.293834656993
12-02-2018 08:00:00.00	0.2095	2.115	19.6947	9.48422386215761	372.18209741933
12-02-2018 09:00:00.00	0.2083	2.1144	19.6971	9.48660429098599	370.057800790016
12-02-2018 10:00:00.00	0.2087	2.1136	19.7064	9.49582845269596	370.77849056947
12-02-2018 11:00:00.00	0.2085	2.1137	19.7044	9.49384476200565	370.421911623301
12-02-2018 12:00:00.00	0.2096	2.1136	19.7155	9.5048542453369	372.377439498615
12-02-2018 13:00:00.00	0.2093	2.1134	19.7211	9.51040857926979	371.846980117504
12-02-2018 14:00:00.00	0.208	2.113	19.7153	9.50465587626787	369.542387489
12-02-2018 15:00:00.00	0.2089	2.1127	19.7181	9.50743304323431	371.145147298519
12-02-2018 16:00:00.00	0.2087	2.1132	19.7126	9.50197789383594	370.783523325393
12-02-2018 17:00:00.00	0.2092	2.1123	19.7141	9.50346566185368	371.683191674126
12-02-2018 18:00:00.00	0.208	2.1121	19.7035	9.492952101195	369.553673860106
12-02-2018 19:00:00.00	0.2092	2.1119	19.7022	9.4916627022463	371.68823693256
12-02-2018 20:00:00.00	0.2099	2.1118	19.706	9.4954317145579	372.933201178647
12-02-2018 21:00:00.00	0.2096	2.1133	19.6948	9.48432304669213	372.381230330174
12-02-2018 22:00:00.00	0.2098	2.1116	19.6885	9.47807442101764	372.758059267323
12-02-2018 23:00:00.00	0.2099	2.1109	19.6971	9.48660429098599	372.944591574057
13-02-2018 00:00:00.00	0.2095	2.1116	19.6999	9.48938145795244	372.225040116798
13-02-2018 01:00:00.00	0.2094	2.1108	19.6946	9.4841246776231	372.057467847234
13-02-2018 02:00:00.00	0.2101	2.1103	19.6927	9.4822401714673	373.307547335122
13-02-2018 03:00:00.00	0.209	2.1099	19.6936	9.48313283227794	371.358098677807
13-02-2018 04:00:00.00	0.2089	2.1096	19.6933	9.48283527867439	371.184194497248
13-02-2018 05:00:00.00	0.2095	2.1091	19.6918	9.48134751065666	372.25662195222
13-02-2018 06:00:00.00	0.2094	2.109	19.694	9.483529570416	372.080196609024
13-02-2018 07:00:00.00	0.209	2.1097	19.6938	9.48333120134697	371.360619288787
13-02-2018 08:00:00.00	0.2091	2.11	19.6903	9.47985974263892	371.534521082941
13-02-2018 09:00:00.00	0.21	2.1095	19.6893	9.47886789729376	373.139997062855
13-02-2018 10:00:00.00	0.2103	2.1081	19.6856	9.47519806951668	373.690809432596
13-02-2018 11:00:00.00	0.2081	2.1074	19.6794	9.4690486283767	369.790323377995
13-02-2018 12:00:00.00	0.2096	2.1072	19.6722	9.46190734189156	372.458327315241
13-02-2018 13:00:00.00	0.2093	2.1066	19.6737	9.4633951099093	371.932802742373
13-02-2018 14:00:00.00	0.209	2.1069	19.6623	9.45208807297449	371.395911435687
13-02-2018 15:00:00.00	0.2084	2.1069	19.6567	9.44653373904161	370.329703077498
13-02-2018 16:00:00.00	0.2089	2.1067	19.6606	9.45040193588772	371.220729960696
13-02-2018 17:00:00.00	0.2089	2.1063	19.6521	9.44197125045388	371.225769899412
13-02-2018 18:00:00.00	0.2089	2.1059	19.6516	9.4414753277813	371.230809974981
13-02-2018 19:00:00.00	0.2091	2.1053	19.6448	9.43473077943423	371.593792432399
13-02-2018 20:00:00.00	0.2099	2.1054	19.6391	9.42907726096682	373.014214667175
13-02-2018 21:00:00.00	0.2086	2.1054	19.6337	9.42372129610297	370.703978940318
13-02-2018 22:00:00.00	0.2105	2.105	19.6323	9.42233271261975	374.085556298988
13-02-2018 23:00:00.00	0.2103	2.1044	19.6266	9.41667919415235	373.737742095153
14-02-2018 00:00:00.00	0.2091	2.1046	19.6282	9.4182661467046	371.602621698259
14-02-2018 01:00:00.00	0.2098	2.1042	19.6289	9.41896043844621	372.851690935734
14-02-2018 02:00:00.00	0.2093	2.1045	19.6305	9.42054739099847	371.959314795139
14-02-2018 03:00:00.00	0.2093	2.1039	19.6289	9.41896043844621	371.966890361595
14-02-2018 04:00:00.00	0.2089	2.104	19.6358	9.4258041713278	371.254752203003
14-02-2018 05:00:00.00	0.2087	2.1036	19.637	9.426994385742	370.904350468107
14-02-2018 06:00:00.00	0.2102	2.1039	19.634	9.42401884970652	373.566365762099
14-02-2018 07:00:00.00	0.209	2.1039	19.6399	9.42987073724295	371.43373189476
14-02-2018 08:00:00.00	0.2101	2.1031	19.6401	9.43006910631198	373.398786118046
14-02-2018 09:00:00.00	0.2091	2.1031	19.6393	9.42927563003586	371.621542966604
14-02-2018 10:00:00.00	0.2093	2.1026	19.6427	9.4326479042094	371.983305147556
14-02-2018 11:00:00.00	0.2088	2.1027	19.6396	9.42957318363941	371.093408778567
14-02-2018 12:00:00.00	0.209	2.1023	19.6408	9.43076339805359	371.453905956011
14-02-2018 13:00:00.00	0.2086	2.102	19.6476	9.43750794640067	370.746765030085
14-02-2018 14:00:00.00	0.2093	2.1018	19.6426	9.43254871967488	371.993407274414
14-02-2018 15:00:00.00	0.2096	2.1016	19.6403	9.43026747538102	372.529132986786
14-02-2018 16:00:00.00	0.2083	2.1015	19.6336	9.42362211156846	370.219856030154
14-02-2018 17:00:00.00	0.2097	2.101	19.6231	9.4132077354443	372.714457890642
14-02-2018 18:00:00.00	0.2089	2.101	19.6167	9.40685992523529	371.292562009324
14-02-2018 19:00:00.00	0.2084	2.1007	19.6071	9.39733820992177	370.407649436958
14-02-2018 20:00:00.00	0.2098	2.1007	19.5988	9.38910589355696	372.895992571371
14-02-2018 21:00:00.00	0.2079	2.1004	19.5943	9.38464258950374	369.522718839743
14-02-2018 22:00:00.00	0.2084	2.1001	19.5899	9.38027846998505	370.415194374396
14-02-2018 23:00:00.00	0.2096	2.1002	19.5836	9.37402984431055	372.546838611252
15-02-2018 00:00:00.00	0.2093	2.0999	19.576	9.36649181968735	372.017402024916
15-02-2018 01:00:00.00	0.2095	2.0996	19.5765	9.36698774235993	372.376681818398
15-02-2018 02:00:00.00	0.2087	2.0995	19.5745	9.36500405166962	370.955977728066
15-02-2018 03:00:00.00	0.2091	2.0991	19.5733	9.36381383725542	371.672009103707
15-02-2018 04:00:00.00	0.2096	2.0993	19.5687	9.3592513486677	372.558221687179
15-02-2018 05:00:00.00	0.2095	2.0988	19.5675	9.35806113425351	372.386795658372
15-02-2018 06:00:00.00	0.2091	2.0994	19.5696	9.36014400947834	371.668223667982
15-02-2018 07:00:00.00	0.2094	2.0984	19.5708	9.36133422389253	372.214100110022
15-02-2018 08:00:00.00	0.2105	2.0987	19.5681	9.3586562414606	374.165568566267
15-02-2018 09:00:00.00	0.2104	2.0986	19.5694	9.35994564040931	373.989087410813
15-02-2018 10:00:00.00	0.2083	2.0976	19.574	9.36450812899704	370.268877420133
15-02-2018 11:00:00.00	0.2088	2.0976	19.5755	9.36599589701478	371.157664931943
15-02-2018 12:00:00.00	0.2094	2.0972	19.5737	9.36421057539349	372.229265070112
15-02-2018 13:00:00.00	0.2091	2.0967	19.5728	9.36331791458285	371.702295365665
15-02-2018 14:00:00.00	0.2092	2.0967	19.5804	9.37085593920605	371.880058299843
15-02-2018 15:00:00.00	0.2089	2.0977	19.5815	9.37194696908572	371.334161692332
15-02-2018 16:00:00.00	0.2093	2.0962	19.5805	9.37095512374056	372.064137528842
15-02-2018 17:00:00.00	0.2102	2.0959	19.5824	9.37283962989636	373.66783727331
15-02-2018 18:00:00.00	0.211	2.0965	19.5875	9.37789804115667	375.082338128195
15-02-2018 19:00:00.00	0.2102	2.0958	19.5796	9.37006246292992	373.669106016041
15-02-2018 20:00:00.00	0.2102	2.0951	19.5829	9.37333555256894	373.677987456402
15-02-2018 21:00:00.00	0.2092	2.0949	19.5739	9.36440894446252	371.902787100285
15-02-2018 22:00:00.00	0.21	2.0944	19.5819	9.37234370722379	373.331315684978
15-02-2018 23:00:00.00	0.2092	2.0942	19.5829	9.37333555256894	371.911626828567
16-02-2018 00:00:00.00	0.2098	2.0938	19.5791	9.36956654025734	372.983360924265
16-02-2018 01:00:00.00	0.2095	2.0937	19.5874	9.37779885662215	372.451284305363
16-02-2018 02:00:00.00	0.2099	2.0933	19.5921	9.3824605297444	373.167477012555
16-02-2018 03:00:00.00	0.2095	2.0933	19.5882	9.37859233289828	372.456343183088
16-02-2018 04:00:00.00	0.2095	2.0933	19.5858	9.3762119040699	372.456343183088
16-02-2018 05:00:00.00	0.2091	2.0929	19.5931	9.38345237508955	371.750258709557
16-02-2018 06:00:00.00	0.2098	2.0928	19.5922	9.38255971427891	372.996026401149
16-02-2018 07:00:00.00	0.2091	2.0923	19.5946	9.38494014310729	371.757833000657
16-02-2018 08:00:00.00	0.2105	2.0923	19.5993	9.38960181622953	374.246885923664
16-02-2018 09:00:00.00	0.2088	2.0919	19.6083	9.39852842433596	371.229506971123
16-02-2018 10:00:00.00	0.2089	2.092	19.6077	9.39793331712886	371.406037650509
16-02-2018 11:00:00.00	0.2075	2.0915	19.6108	9.40100803769885	368.923223343541
16-02-2018 12:00:00.00	0.209	2.0913	19.6167	9.40685992523529	371.592661973019
16-02-2018 13:00:00.00	0.2094	2.0911	19.6106	9.40080966862982	372.306372727644
16-02-2018 14:00:00.00	0.21	2.0909	19.6128	9.40299172838917	373.375689071502
16-02-2018 15:00:00.00	0.2103	2.0909	19.6073	9.3975365789908	373.909082913032
16-02-2018 16:00:00.00	0.2101	2.0903	19.6051	9.39535451923145	373.561098566914
16-02-2018 17:00:00.00	0.2097	2.0905	19.6042	9.39446185842081	372.847359900204
16-02-2018 18:00:00.00	0.2097	2.0905	19.6021	9.39237898319598	372.847359900204
16-02-2018 19:00:00.00	0.2091	2.0908	19.6012	9.39148632238533	371.776770078808
16-02-2018 20:00:00.00	0.2084	2.0904	19.5961	9.38642791112503	370.537213528861
16-02-2018 21:00:00.00	0.2101	2.0895	19.5983	9.38860997088438	373.57124778042
16-02-2018 22:00:00.00	0.2103	2.0891	19.5909	9.38127031533021	373.931940226152
16-02-2018 23:00:00.00	0.2096	2.0877	19.5883	9.3786915174328	372.704999174306
17-02-2018 00:00:00.00	0.2097	2.0871	19.5984	9.38870915541889	372.890415153285
17-02-2018 01:00:00.00	0.2086	2.0867	19.6078	9.39803250166338	370.939424720609
17-02-2018 02:00:00.00	0.209	2.0867	19.6072	9.39743739445628	371.650717960725
17-02-2018 03:00:00.00	0.2094	2.0865	19.6098	9.40001619235369	372.364540617476
17-02-2018 04:00:00.00	0.2085	2.0867	19.6308	9.42084494460202	370.76160141058
17-02-2018 05:00:00.00	0.2103	2.0881	19.6338	9.42382048063749	373.944639941011
17-02-2018 06:00:00.00	0.2087	2.0871	19.651	9.44088022057421	371.112206211209
17-02-2018 07:00:00.00	0.2102	2.0864	19.6584	9.44821987612838	373.788406314186
17-02-2018 08:00:00.00	0.2096	2.0864	19.665	9.45476605540642	372.721455582557
17-02-2018 09:00:00.00	0.2116	2.0849	19.6613	9.45109622762934	376.297129192568
17-02-2018 10:00:00.00	0.2106	2.0842	19.6717	9.46141141921898	374.527692303698
17-02-2018 11:00:00.00	0.2095	2.0861	19.6741	9.46379184804736	372.547426487724
17-02-2018 12:00:00.00	0.2091	2.0857	19.6718	9.4615106037535	371.841170578056
17-02-2018 13:00:00.00	0.2088	2.0827	19.6747	9.46438695525445	371.345521232436
17-02-2018 14:00:00.00	0.2102	2.0828	19.671	9.46071712747737	373.83411596626
17-02-2018 15:00:00.00	0.2097	2.0826	19.6766	9.46627146141025	372.947415339247
17-02-2018 16:00:00.00	0.2088	2.0821	19.6745	9.46418858618542	371.353089898696
17-02-2018 17:00:00.00	0.209	2.0819	19.681	9.47063558092895	371.711317466026
17-02-2018 18:00:00.00	0.2094	2.0812	19.68	9.46964373558379	372.431582681981
17-02-2018 19:00:00.00	0.2093	2.0811	19.6757	9.46537880059961	372.254990720215
17-02-2018 20:00:00.00	0.2092	2.0811	19.6761	9.46577553873768	372.077133581791
17-02-2018 21:00:00.00	0.2088	2.0809	19.6721	9.46180815735704	371.36822815683
17-02-2018 22:00:00.00	0.2093	2.0809	19.6732	9.46289918723672	372.257519890922
17-02-2018 23:00:00.00	0.2094	2.0806	19.6742	9.46389103258187	372.439173870863
18-02-2018 00:00:00.00	0.2098	2.0805	19.6726	9.46230408002962	373.151882153727
18-02-2018 01:00:00.00	0.2105	2.0802	19.6804	9.47004047372185	374.400723175006
18-02-2018 02:00:00.00	0.2089	2.0801	19.6865	9.47609073032732	371.556184195181
18-02-2018 03:00:00.00	0.2091	2.08	19.6939	9.48343038588149	371.913174014813
18-02-2018 04:00:00.00	0.2096	2.0798	19.6977	9.48719939819309	372.805025924001
18-02-2018 05:00:00.00	0.2098	2.0797	19.7104	9.4997958340766	373.162023624571
18-02-2018 06:00:00.00	0.2095	2.0793	19.7183	9.50763141230334	372.633490523005
18-02-2018 07:00:00.00	0.2089	2.0794	19.7213	9.51060694833882	371.56502012552
18-02-2018 08:00:00.00	0.2097	2.0791	19.7238	9.51308656170171	372.991760866355
18-02-2018 09:00:00.00	0.2086	2.0791	19.7332	9.5224099079462	371.035199412121
18-02-2018 10:00:00.00	0.2097	2.0788	19.7271	9.51635965134074	372.995562402246
18-02-2018 11:00:00.00	0.2095	2.0789	19.7348	9.52399686049845	372.638554351663
18-02-2018 12:00:00.00	0.2093	2.0791	19.7309	9.52012866365233	372.280283973906
18-02-2018 13:00:00.00	0.209	2.0785	19.7379	9.52707158106844	371.754254073755
18-02-2018 14:00:00.00	0.2093	2.0781	19.7331	9.52231072341169	372.292931889728
18-02-2018 15:00:00.00	0.2094	2.0781	19.7407	9.52984874803489	372.470807155801
18-02-2018 16:00:00.00	0.2095	2.078	19.7438	9.53292346860488	372.64994846936
18-02-2018 17:00:00.00	0.2086	2.0778	19.7469	9.53599818917487	371.051586878776
18-02-2018 18:00:00.00	0.2096	2.0777	19.7509	9.5399655705555	372.831624346809
18-02-2018 19:00:00.00	0.2086	2.0774	19.747	9.53609737370938	371.056629467439
18-02-2018 20:00:00.00	0.209	2.0773	19.7464	9.53550226650229	371.769410538965
18-02-2018 21:00:00.00	0.2084	2.0771	19.7507	9.53976720148646	370.704648879994
18-02-2018 22:00:00.00	0.2085	2.0769	19.7425	9.53163406965617	370.885050377841
18-02-2018 23:00:00.00	0.2081	2.0766	19.736	9.52518707491264	370.177293399534
19-02-2018 00:00:00.00	0.209	2.0766	19.74	9.52915445629327	371.77825238108
19-02-2018 01:00:00.00	0.2089	2.0762	19.7361	9.52528625944716	371.605418302291
19-02-2018 02:00:00.00	0.2088	2.0762	19.7336	9.52280664608426	371.427531553463
19-02-2018 03:00:00.00	0.2086	2.076	19.7284	9.51764905028944	371.074279607138
19-02-2018 04:00:00.00	0.2095	2.0757	19.7299	9.51913681830718	372.679069936065
19-02-2018 05:00:00.00	0.2104	2.0755	19.7221	9.51140042461495	374.282621269837
19-02-2018 06:00:00.00	0.2101	2.0753	19.7159	9.50525098347497	373.751488134867
19-02-2018 07:00:00.00	0.209	2.0752	19.7151	9.50445750719884	371.795937327088
19-02-2018 08:00:00.00	0.2093	2.075	19.703	9.49245617852243	372.332145890871
19-02-2018 09:00:00.00	0.2101	2.0747	19.6998	9.48928227341792	373.759107754288
19-02-2018 10:00:00.00	0.2096	2.0746	19.6947	9.48422386215761	372.870895622727
19-02-2018 11:00:00.00	0.2098	2.0744	19.685	9.47460296230958	373.229224794717
19-02-2018 12:00:00.00	0.2094	2.0742	19.6799	9.46954455104927	372.520165811679
19-02-2018 13:00:00.00	0.2091	2.0741	19.6775	9.4671641222209	371.987733264195
19-02-2018 14:00:00.00	0.2086	2.074	19.6729	9.46260163363317	371.099497005409
19-02-2018 15:00:00.00	0.2082	2.0737	19.6697	9.45942772852866	370.391672470863
19-02-2018 16:00:00.00	0.209	2.0733	19.6665	9.45625382342416	371.819941016548
19-02-2018 17:00:00.00	0.209	2.0734	19.6607	9.45050112042224	371.818677587201
19-02-2018 18:00:00.00	0.208	2.0731	19.6637	9.45347665645771	370.043413030662
19-02-2018 19:00:00.00	0.2089	2.0729	19.6607	9.45050112042224	371.647088123716
19-02-2018 20:00:00.00	0.2093	2.0725	19.6573	9.4471288462487	372.363776103159
19-02-2018 21:00:00.00	0.2091	2.0724	19.6512	9.44107858964324	372.009221985855
19-02-2018 22:00:00.00	0.2093	2.0727	19.6479	9.43780550000422	372.361245488411
19-02-2018 23:00:00.00	0.2103	2.0729	19.6459	9.4358218093139	374.13778186892
20-02-2018 00:00:00.00	0.2084	2.0715	19.6442	9.43413567222713	370.775193253671
20-02-2018 01:00:00.00	0.2088	2.0717	19.6459	9.4358218093139	371.484329152409
20-02-2018 02:00:00.00	0.209	2.073	19.6454	9.43532588664132	371.823731356109
20-02-2018 03:00:00.00	0.2096	2.0717	19.6472	9.43711120826261	372.907640758357
20-02-2018 04:00:00.00	0.2088	2.0722	19.6395	9.42947399910489	371.478017450287
20-02-2018 05:00:00.00	0.2094	2.0698	19.6447	9.43463159489971	372.575868207639
20-02-2018 06:00:00.00	0.2094	2.0696	19.6381	9.42808541562167	372.578400530535
20-02-2018 07:00:00.00	0.209	2.069	19.6334	9.42342374249943	371.874276602222
20-02-2018 08:00:00.00	0.2084	2.0688	19.6313	9.42134086727459	370.809215313609
20-02-2018 09:00:00.00	0.209	2.0688	19.6341	9.42411803424104	371.876804225261
20-02-2018 10:00:00.00	0.2091	2.0697	19.6314	9.42144005180911	372.043356235321
20-02-2018 11:00:00.00	0.209	2.0686	19.6283	9.41836533123912	371.87933188266
20-02-2018 12:00:00.00	0.2081	2.0673	19.6306	9.42064657553298	370.294297487392
20-02-2018 13:00:00.00	0.2094	2.067	19.635	9.42501069505168	372.611323860986
20-02-2018 14:00:00.00	0.2079	2.067	19.6388	9.42877970736328	369.942188303243
20-02-2018 15:00:00.00	0.2086	2.0671	19.6462	9.43611936291745	371.186523345488
20-02-2018 16:00:00.00	0.2087	2.0668	19.6444	9.43433404129616	371.368251605389
20-02-2018 17:00:00.00	0.2094	2.0666	19.6429	9.43284627327843	372.616389505201
20-02-2018 18:00:00.00	0.2087	2.0666	19.6578	9.44762476892128	371.370775977724
20-02-2018 19:00:00.00	0.2078	2.0663	19.6548	9.44464923288581	369.773043164348
20-02-2018 20:00:00.00	0.2078	2.0663	19.6606	9.45040193588772	369.773043164348
20-02-2018 21:00:00.00	0.2083	2.0661	19.6602	9.45000519774966	370.665295804163
20-02-2018 22:00:00.00	0.2097	2.066	19.6591	9.44891416786999	373.157833485123
20-02-2018 23:00:00.00	0.209	2.0658	19.6693	9.4590309903906	371.91472269451
21-02-2018 00:00:00.00	0.2095	2.0658	19.6683	9.45803914504544	372.804470834928
21-02-2018 01:00:00.00	0.2079	2.0653	19.6737	9.4633951099093	369.9635640165
21-02-2018 02:00:00.00	0.2083	2.0652	19.6803	9.46994128918734	370.676634516682
21-02-2018 03:00:00.00	0.2085	2.0652	19.6879	9.47747931381054	371.03254103086
21-02-2018 04:00:00.00	0.2082	2.0653	19.6941	9.48362875495052	370.497421973234
21-02-2018 05:00:00.00	0.2091	2.0652	19.6884	9.47797523648312	372.100260573395
21-02-2018 06:00:00.00	0.2082	2.065	19.6936	9.48313283227794	370.501199857992
21-02-2018 07:00:00.00	0.2094	2.065	19.705	9.49443986921274	372.636653459479
21-02-2018 08:00:00.00	0.209	2.0644	19.7033	9.49275373212597	371.932420626596
21-02-2018 09:00:00.00	0.2088	2.0634	19.709	9.49840725059337	371.589134747937
21-02-2018 10:00:00.00	0.2093	2.063	19.7102	9.49959746500756	372.484019937238
21-02-2018 11:00:00.00	0.2082	2.0626	19.7118	9.50118441755982	370.531425709891
21-02-2018 12:00:00.00	0.2101	2.0624	19.7119	9.50128360209433	373.915378447211
21-02-2018 13:00:00.00	0.209	2.0623	19.7114	9.50078767942176	371.958970683102
21-02-2018 14:00:00.00	0.2085	2.062	19.7153	9.50465587626787	371.072900786319
21-02-2018 15:00:00.00	0.2086	2.0618	19.7147	9.50406076906078	371.253397386825
21-02-2018 16:00:00.00	0.2089	2.0619	19.7138	9.50316810825013	371.786055047223
21-02-2018 17:00:00.00	0.2096	2.0617	19.7156	9.50495342987142	373.034403685195
21-02-2018 18:00:00.00	0.2093	2.0614	19.7067	9.49612600629951	372.504279171828
21-02-2018 19:00:00.00	0.2088	2.0611	19.6977	9.48719939819309	371.618187727377
21-02-2018 20:00:00.00	0.2088	2.0611	19.6932	9.48273609413988	371.618187727377
21-02-2018 21:00:00.00	0.2098	2.0609	19.677	9.46666819954832	373.400506981068
21-02-2018 22:00:00.00	0.2094	2.0609	19.6765	9.46617227687574	372.688589903887
21-02-2018 23:00:00.00	0.208	2.0605	19.6609	9.45069948949127	370.20191399729
22-02-2018 00:00:00.00	0.2093	2.0603	19.6504	9.44028511336711	372.518208674022
22-02-2018 01:00:00.00	0.2084	2.0602	19.6412	9.43116013619166	370.917623503021
22-02-2018 02:00:00.00	0.2091	2.0601	19.6256	9.41568734880719	372.164773203481
22-02-2018 03:00:00.00	0.2101	2.0599	19.6237	9.41380284265139	373.947156763721
22-02-2018 04:00:00.00	0.2092	2.0597	19.6122	9.40239662118208	372.347820493536
22-02-2018 05:00:00.00	0.2099	2.0594	19.6098	9.40001619235369	373.597536385
22-02-2018 06:00:00.00	0.2088	2.0593	19.5975	9.38781649460825	371.640928010892
22-02-2018 07:00:00.00	0.2089	2.0592	19.5913	9.38166705346827	371.820180996867
22-02-2018 08:00:00.00	0.2084	2.059	19.5899	9.38027846998505	370.932755266791
22-02-2018 09:00:00.00	0.2088	2.0588	19.5762	9.36669018875638	371.647245250231
22-02-2018 10:00:00.00	0.2088	2.0586	19.5718	9.36232606923769	371.649772206101
22-02-2018 11:00:00.00	0.2077	2.0589	19.5732	9.36371465272091	369.688076708727
22-02-2018 12:00:00.00	0.2081	2.058	19.5661	9.35667255077029	370.411375562959
22-02-2018 13:00:00.00	0.2092	2.0579	19.5577	9.34834104987096	372.370606509661
22-02-2018 14:00:00.00	0.2089	2.0579	19.5501	9.34080302524776	371.836614244112
22-02-2018 15:00:00.00	0.2077	2.0573	19.5369	9.32771066669167	369.708186676041
22-02-2018 16:00:00.00	0.2096	2.0573	19.5254	9.31630444522236	373.090206679336
22-02-2018 17:00:00.00	0.2078	2.0571	19.5135	9.30450148561497	369.888702838946
22-02-2018 18:00:00.00	0.2103	2.0586	19.4995	9.29061565078276	374.319669994937
22-02-2018 19:00:00.00	0.2099	2.057	19.4891	9.28030045919312	373.628020641925
22-02-2018 20:00:00.00	0.2091	2.0566	19.469	9.26036436775544	372.209059522227
22-02-2018 21:00:00.00	0.2095	2.0569	19.4594	9.25084265244192	372.917277033161
22-02-2018 22:00:00.00	0.2099	2.0565	19.4408	9.23239432902198	373.634372154965
22-02-2018 23:00:00.00	0.2085	2.0562	19.428	9.21969870860396	371.146075227269
23-02-2018 00:00:00.00	0.2092	2.0555	19.4177	9.20948270154883	372.400992202988
23-02-2018 01:00:00.00	0.2087	2.0543	19.4264	9.21811175605171	371.526090860328
23-02-2018 02:00:00.00	0.2086	2.0546	19.4341	9.22574896520942	371.34428375289
23-02-2018 03:00:00.00	0.2087	2.0546	19.4377	9.22931960845199	371.522301146827
23-02-2018 04:00:00.00	0.2083	2.054	19.4376	9.22922042391748	370.817796548315
23-02-2018 05:00:00.00	0.2091	2.054	19.44	9.23160085274586	372.241964753973
23-02-2018 06:00:00.00	0.209	2.0443	19.4456	9.23715518667874	372.186698179186
23-02-2018 07:00:00.00	0.2069	2.0519	19.4582	9.24965243802773	368.351804066607
23-02-2018 08:00:00.00	0.2094	2.0535	19.4517	9.2432054432842	372.782365507057
23-02-2018 09:00:00.00	0.2096	2.0489	19.4397	9.23130329914231	373.196786042098
23-02-2018 10:00:00.00	0.2104	2.0513	19.4438	9.23536986505746	374.590627546658
23-02-2018 11:00:00.00	0.2098	2.0453	19.4458	9.23735355574777	373.5986289607
23-02-2018 12:00:00.00	0.2099	2.0459	19.4541	9.24558587211258	373.769075066132
23-02-2018 13:00:00.00	0.209	2.0435	19.4518	9.24330462781872	372.196825873414
23-02-2018 14:00:00.00	0.2094	2.0439	19.4577	9.24915651535515	372.904090688423
23-02-2018 15:00:00.00	0.2101	2.042	19.4538	9.24528831850904	374.17484740042
23-02-2018 16:00:00.00	0.2095	2.0423	19.4534	9.24489158037097	373.10247782253
23-02-2018 17:00:00.00	0.2097	2.0434	19.4635	9.25490921835707	373.444688353908
23-02-2018 18:00:00.00	0.2106	2.0428	19.4726	9.26393501099801	375.055109593383
23-02-2018 19:00:00.00	0.2098	2.0376	19.4815	9.27276243456992	373.696497455658
23-02-2018 20:00:00.00	0.2095	2.0354	19.5094	9.30043491969982	373.190068249071
23-02-2018 21:00:00.00	0.2103	2.0376	19.5232	9.31412238546301	374.587099213178
23-02-2018 22:00:00.00	0.2086	2.0374	19.5317	9.32255307089685	371.561581415965
23-02-2018 23:00:00.00	0.2079	2.037	19.5557	9.34635735918065	370.319769963558
24-02-2018 00:00:00.00	0.2082	2.0372	19.5708	9.36133422389253	370.851618526849
24-02-2018 01:00:00.00	0.2076	2.036	19.5832	9.37363310617249	369.797979150234
24-02-2018 02:00:00.00	0.2081	2.0347	19.5847	9.37512087419023	370.705025557715
24-02-2018 03:00:00.00	0.2092	2.0333	19.5877	9.3780964102257	372.682295130779
24-02-2018 04:00:00.00	0.2086	2.031	19.5909	9.38127031533021	371.642501292999
24-02-2018 05:00:00.00	0.2089	2.0301	19.5875	9.37789804115667	372.188380913018
24-02-2018 06:00:00.00	0.2087	2.03	19.5787	9.36916980211928	371.833314625859
24-02-2018 07:00:00.00	0.209	2.0302	19.5665	9.35706928890835	372.365279578088
24-02-2018 08:00:00.00	0.2089	2.0303	19.5512	9.34189405512743	372.185847840698
24-02-2018 09:00:00.00	0.2085	2.0308	19.5418	9.33257070888295	371.466869039204
24-02-2018 10:00:00.00	0.2083	2.031	19.5256	9.31650281429139	371.108020226902
24-02-2018 11:00:00.00	0.2082	2.0313	19.5111	9.30212105678659	370.926073239941
24-02-2018 12:00:00.00	0.2077	2.0311	19.4981	9.28922706729954	370.037798906851
24-02-2018 13:00:00.00	0.2081	2.031	19.4871	9.2783167685028	370.75169951617
24-02-2018 14:00:00.00	0.2091	2.031	19.4775	9.26879505318928	372.533303069828
24-02-2018 15:00:00.00	0.2074	2.031	19.464	9.25540514102965	369.50457702861
24-02-2018 16:00:00.00	0.2082	2.0313	19.4548	9.24628016385419	370.926073239941
24-02-2018 17:00:00.00	0.2082	2.032	19.4578	9.24925569988967	370.917238066869
24-02-2018 18:00:00.00	0.21	2.0334	19.4466	9.2381470320239	374.106193499053
24-02-2018 19:00:00.00	0.2102	2.0317	19.4488	9.24032909178325	374.484146751679
24-02-2018 20:00:00.00	0.2102	2.0311	19.4464	9.23794866295487	374.491792634666
24-02-2018 21:00:00.00	0.2089	2.0292	19.4542	9.2456850566471	372.199780165162
24-02-2018 22:00:00.00	0.2092	2.0295	19.4558	9.24727200919935	372.730488685839
24-02-2018 23:00:00.00	0.2081	2.0292	19.4639	9.25530595649513	370.774410016133
25-02-2018 00:00:00.00	0.2088	2.029	19.4817	9.27296080363895	372.024140945836
25-02-2018 01:00:00.00	0.2086	2.0293	19.4898	9.28099475093473	371.664001560205
25-02-2018 02:00:00.00	0.2084	2.0297	19.5136	9.30460067014949	371.302605975937
25-02-2018 03:00:00.00	0.2091	2.0313	19.5229	9.31382483185946	372.529500069509
25-02-2018 04:00:00.00	0.2105	2.0311	19.5443	9.33505032224584	375.026271882003
25-02-2018 05:00:00.00	0.209	2.0316	19.5571	9.34774594266386	372.347540428926
25-02-2018 06:00:00.00	0.2097	2.03	19.5653	9.35587907449416	373.614978807105
25-02-2018 07:00:00.00	0.2095	2.0312	19.5782	9.3686738794467	373.243404299108
25-02-2018 08:00:00.00	0.2095	2.0309	19.5937	9.38404748229665	373.247214600348
25-02-2018 09:00:00.00	0.2091	2.03	19.5967	9.38702301833212	372.545980298358
25-02-2018 10:00:00.00	0.2091	2.0299	19.6133	9.40348765106175	372.547248068665
25-02-2018 11:00:00.00	0.2091	2.0301	19.6173	9.40745503244238	372.544712536678
25-02-2018 12:00:00.00	0.2083	2.0298	19.6196	9.40973627673624	371.123174801795
25-02-2018 13:00:00.00	0.2092	2.0291	19.6297	9.41975391472234	372.735562416717
25-02-2018 14:00:00.00	0.2092	2.0288	19.6293	9.41935717658428	372.739367805524
25-02-2018 15:00:00.00	0.2109	2.0288	19.629	9.41905962298073	375.768320603179
25-02-2018 16:00:00.00	0.21	2.0289	19.6282	9.4182661467046	374.163484035041
25-02-2018 17:00:00.00	0.21	2.0285	19.6331	9.42312618889588	374.168577376325
25-02-2018 18:00:00.00	0.2105	2.0283	19.6365	9.42649846306942	375.062007727774
25-02-2018 19:00:00.00	0.2109	2.028	19.6379	9.42788704655264	375.778551151853
25-02-2018 20:00:00.00	0.21	2.0278	19.6318	9.42183678994717	374.177491057247
25-02-2018 21:00:00.00	0.2087	2.0277	19.6389	9.42887889189779	371.862419742441
25-02-2018 22:00:00.00	0.2084	2.0273	19.6442	9.43413567222713	371.332933598063
25-02-2018 23:00:00.00	0.2091	2.0273	19.6466	9.43651610105551	372.580213125504
26-02-2018 00:00:00.00	0.2084	2.0268	19.656	9.4458394473	371.339252476266
26-02-2018 01:00:00.00	0.2086	2.0264	19.6571	9.44693047717967	371.700684228615
26-02-2018 02:00:00.00	0.2099	2.0266	19.6646	9.45436931726836	374.014585606629
26-02-2018 03:00:00.00	0.2092	2.0266	19.6742	9.46389103258187	372.767276364491
26-02-2018 04:00:00.00	0.2098	2.0262	19.6764	9.46607309234122	373.841487859186
26-02-2018 05:00:00.00	0.2081	2.026	19.6794	9.4690486283767	370.814791108856
26-02-2018 06:00:00.00	0.211	2.0266	19.6826	9.4722225334812	375.97464298713
26-02-2018 07:00:00.00	0.2099	2.0229	19.6895	9.47906626636279	374.06168924156
26-02-2018 08:00:00.00	0.2091	2.022	19.6914	9.48095077251859	372.647429196097
26-02-2018 09:00:00.00	0.2094	2.0225	19.704	9.49344802386758	373.17572272723
26-02-2018 10:00:00.00	0.2094	2.0221	19.7029	9.49235699398791	373.180803729156
26-02-2018 11:00:00.00	0.209	2.0218	19.6989	9.48838961260728	372.471749978142
26-02-2018 12:00:00.00	0.2081	2.0214	19.7053	9.49473742281629	370.872854341923
26-02-2018 13:00:00.00	0.2088	2.021	19.7143	9.50366403092271	372.125451188743
26-02-2018 14:00:00.00	0.2094	2.0208	19.7126	9.50197789383594	373.197317941017
26-02-2018 15:00:00.00	0.2094	2.0203	19.7174	9.5067387514927	373.203669950152
26-02-2018 16:00:00.00	0.2096	2.0204	19.7162	9.50554853707851	373.558848814247
26-02-2018 17:00:00.00	0.2079	2.0202	19.7122	9.50158115569788	370.53155255287
26-02-2018 18:00:00.00	0.2087	2.0203	19.7114	9.50078767942176	371.956093212019
26-02-2018 19:00:00.00	0.2098	2.0199	19.7169	9.50624282882012	373.921662413649
26-02-2018 20:00:00.00	0.2091	2.0198	19.7155	9.5048542453369	372.675337329996
26-02-2018 21:00:00.00	0.2095	2.0193	19.7182	9.50753222776883	373.394605932611
26-02-2018 22:00:00.00	0.2097	2.0194	19.7214	9.51070613287333	373.749796237742
26-02-2018 23:00:00.00	0.2099	2.0194	19.7237	9.5129873771672	374.106257655232
27-02-2018 00:00:00.00	0.2086	2.0194	19.7292	9.51844252656557	371.78925844155
27-02-2018 01:00:00.00	0.2079	2.019	19.7385	9.52766668827554	370.546689150183
27-02-2018 02:00:00.00	0.2092	2.0189	19.7401	9.52925364082779	372.864989241188
27-02-2018 03:00:00.00	0.2096	2.019	19.7474	9.53649411184744	373.576652457327
27-02-2018 04:00:00.00	0.2084	2.0189	19.7504	9.53946964788292	371.439119301451
27-02-2018 05:00:00.00	0.2105	2.0189	19.7568	9.54581745809193	375.18202789326
27-02-2018 06:00:00.00	0.2088	2.0189	19.7595	9.54849544052386	372.152054271319
27-02-2018 07:00:00.00	0.2096	2.0186	19.7653	9.55424814352577	373.581739524196
27-02-2018 08:00:00.00	0.2089	2.0185	19.7633	9.55226445283546	372.335358125925
27-02-2018 09:00:00.00	0.2092	2.0188	19.7726	9.56148861454543	372.866258576548
27-02-2018 10:00:00.00	0.2082	2.0181	19.7751	9.56396822790832	371.092758199684
27-02-2018 11:00:00.00	0.2094	2.0184	19.7841	9.57289483601474	373.227809556999
27-02-2018 12:00:00.00	0.2093	2.0181	19.7859	9.57468015763603	373.053382762699
27-02-2018 13:00:00.00	0.209	2.0178	19.7968	9.58549127189825	372.522471571455
27-02-2018 14:00:00.00	0.2094	2.0184	19.7987	9.58737577805405	373.227809556999
27-02-2018 15:00:00.00	0.209	2.0179	19.8026	9.59124397490017	372.521203363264
27-02-2018 16:00:00.00	0.2093	2.0176	19.8063	9.59491380267725	373.05973290563
27-02-2018 17:00:00.00	0.2096	2.0175	19.8083	9.59689749336757	373.595729672475
27-02-2018 18:00:00.00	0.2098	2.0174	19.814	9.60255101183497	373.953487244603
27-02-2018 19:00:00.00	0.2083	2.0173	19.8109	9.59947629126498	371.281108584431
27-02-2018 20:00:00.00	0.2088	2.017	19.8212	9.60969229832011	372.176127004747
27-02-2018 21:00:00.00	0.2107	2.0168	19.8279	9.61633766213267	375.5653443772
27-02-2018 22:00:00.00	0.2098	2.017	19.835	9.62337976408329	373.958579720287
27-02-2018 23:00:00.00	0.2094	2.0168	19.8387	9.62704959186038	373.248140069225
28-02-2018 00:00:00.00	0.2087	2.0165	19.8573	9.64549791528031	372.004214146445
28-02-2018 01:00:00.00	0.2096	2.0167	19.8607	9.64887018945385	373.605904983926
28-02-2018 02:00:00.00	0.2094	2.0164	19.8708	9.65888782743995	373.253223043363
28-02-2018 03:00:00.00	0.2096	2.0164	19.8807	9.66870709635702	373.60972086862
28-02-2018 04:00:00.00	0.2091	2.0163	19.8804	9.66840954275347	372.719745250065
28-02-2018 05:00:00.00	0.209	2.0161	19.8873	9.67525327563506	372.544032431937
28-02-2018 06:00:00.00	0.2094	2.0158	19.8949	9.68279130025826	373.260847764155
28-02-2018 07:00:00.00	0.2092	2.0159	19.9001	9.68794889605308	372.903073061783
28-02-2018 08:00:00.00	0.2097	2.016	19.8954	9.68328722293084	373.793060176226
28-02-2018 09:00:00.00	0.2087	2.0158	19.9046	9.69241220010629	372.013079887198
28-02-2018 10:00:00.00	0.2103	2.0156	19.9079	9.69568528974531	374.867673315603
28-02-2018 11:00:00.00	0.2092	2.0156	19.9104	9.69816490310821	372.906881871727
28-02-2018 12:00:00.00	0.2099	2.0153	19.9114	9.69915674845337	374.158479877698
28-02-2018 13:00:00.00	0.2091	2.0153	19.9126	9.70034696286756	372.732435171161
28-02-2018 14:00:00.00	0.2104	2.0151	19.9218	9.70947194004301	375.052311686796
28-02-2018 15:00:00.00	0.2087	2.0151	19.9168	9.70451271331722	372.021946050543
28-02-2018 16:00:00.00	0.2095	2.0147	19.92	9.70768661842173	373.453086457848
28-02-2018 17:00:00.00	0.2113	2.0146	19.922	9.70967030911204	376.663035038433
28-02-2018 18:00:00.00	0.2097	2.0145	19.927	9.71462953583783	373.812150392275
28-02-2018 19:00:00.00	0.21	2.0143	19.9213	9.70897601737043	374.349480874423
28-02-2018 20:00:00.00	0.2096	2.0143	19.929	9.71661322652815	373.636434244186
28-02-2018 21:00:00.00	0.2102	2.0141	19.9372	9.72474635835844	374.708555803169
28-02-2018 22:00:00.00	0.2099	2.0141	19.9425	9.73000313868778	374.173767188797
28-02-2018 23:00:00.00	0.2099	2.014	19.9496	9.73704524063841	374.175041187777
01-03-2018 00:00:00.00	0.2098	2.0137	19.9459	9.73337541286132	374.000597937467
01-03-2018 01:00:00.00	0.2098	2.0136	19.9508	9.7382354550526	374.001871364178
01-03-2018 02:00:00.00	0.2081	2.0135	19.9585	9.74587266421031	370.972614074302
01-03-2018 03:00:00.00	0.2109	2.0134	19.9619	9.74924493838385	375.96535656615
01-03-2018 04:00:00.00	0.2099	2.0131	19.9671	9.75440253417867	374.186507569005
01-03-2018 05:00:00.00	0.2084	2.0129	19.9716	9.75886583823188	371.515003421272
01-03-2018 06:00:00.00	0.2099	2.013	19.9759	9.76313077321606	374.187781654744
01-03-2018 07:00:00.00	0.2096	2.0128	19.9822	9.76937939889056	373.65551756566
01-03-2018 08:00:00.00	0.2102	2.0127	19.9877	9.77483454828893	374.72641807164
01-03-2018 09:00:00.00	0.2102	2.0125	19.9954	9.78247175744665	374.728969963298
01-03-2018 10:00:00.00	0.2078	2.0123	19.9994	9.78643913882728	370.452950754912
01-03-2018 11:00:00.00	0.2095	2.0123	20.0108	9.79774617576208	373.48360530873
01-03-2018 12:00:00.00	0.2085	2.0121	20.0099	9.79685351495143	371.703398657992
01-03-2018 13:00:00.00	0.2104	2.0119	20.0068	9.79377879438144	375.093178297672
01-03-2018 14:00:00.00	0.2087	2.0118	20.0087	9.79566330053725	372.063749370727
01-03-2018 15:00:00.00	0.2096	2.0115	20.0053	9.79229102636371	373.672058021144
01-03-2018 16:00:00.00	0.2103	2.0115	20.0054	9.79239021089823	374.920008596597
01-03-2018 17:00:00.00	0.2095	2.0113	20.0078	9.7947706397266	373.496322968813
01-03-2018 18:00:00.00	0.2098	2.0111	20.0083	9.79526656239918	374.033709850499
01-03-2018 19:00:00.00	0.2089	2.0109	20.0042	9.79119999648404	372.431716498916
01-03-2018 20:00:00.00	0.2097	2.011	20.0146	9.80151518807368	373.856701813713
01-03-2018 21:00:00.00	0.2087	2.0107	20.0018	9.78881956765566	372.077685898578
01-03-2018 22:00:00.00	0.2102	2.0107	20.0048	9.79179510369113	374.751938552377
01-03-2018 23:00:00.00	0.2092	2.0103	20.0015	9.78852201405211	372.974183679053
02-03-2018 00:00:00.00	0.2099	2.0102	20.0047	9.79169591915661	374.223459578393
02-03-2018 01:00:00.00	0.21	2.0101	20.0039	9.79090244288049	374.403021068674
02-03-2018 02:00:00.00	0.2105	2.0098	20.0066	9.79358042531241	375.298290825617
02-03-2018 03:00:00.00	0.2099	2.0097	20.0017	9.78872038312114	374.229831352141
02-03-2018 04:00:00.00	0.2087	2.0095	19.9994	9.78643913882728	372.092890574292
02-03-2018 05:00:00.00	0.209	2.0095	19.9987	9.78574484708566	372.627762961317
02-03-2018 06:00:00.00	0.2087	2.0091	20.0006	9.78762935324147	372.097959075679
02-03-2018 07:00:00.00	0.2106	2.0088	19.998	9.78505055534406	375.489366412152
02-03-2018 08:00:00.00	0.2093	2.0089	19.9999	9.78693506149986	373.170260009811
02-03-2018 09:00:00.00	0.2091	2.0085	19.9945	9.781579096636	372.818749555929
02-03-2018 10:00:00.00	0.2103	2.0086	19.9996	9.78663750789631	374.957035058715
02-03-2018 11:00:00.00	0.2091	2.0083	19.9967	9.78376115639535	372.821288819482
02-03-2018 12:00:00.00	0.21	2.0081	19.9938	9.78088480489439	374.428521782406
02-03-2018 13:00:00.00	0.2081	2.0079	19.9992	9.78624076975824	371.043362345382
02-03-2018 14:00:00.00	0.2103	2.008	20.0015	9.78852201405211	374.964696619149
02-03-2018 15:00:00.00	0.2098	2.0076	19.9973	9.78435626360244	374.078292839328
02-03-2018 16:00:00.00	0.2107	2.0072	20.0034	9.79040652020791	375.688131564379
02-03-2018 17:00:00.00	0.2097	2.0073	20.0021	9.7891171212592	373.903810579081
02-03-2018 18:00:00.00	0.2099	2.0071	20.0011	9.78812527591405	374.262968073657
02-03-2018 19:00:00.00	0.209	2.0069	20.0052	9.79219184182919	372.66075805011
02-03-2018 20:00:00.00	0.209	2.0066	20.0105	9.79744862215853	372.664565551751
02-03-2018 21:00:00.00	0.211	2.0066	20.0107	9.79764699122756	376.230733643155
02-03-2018 22:00:00.00	0.2097	2.0063	20.0061	9.79308450263984	373.916544715845
02-03-2018 23:00:00.00	0.2089	2.0062	20.0093	9.79625840774434	372.491331507977
03-03-2018 00:00:00.00	0.2104	2.0058	20.0131	9.80002742005594	375.171104949159
03-03-2018 01:00:00.00	0.2098	2.0057	20.0176	9.80449072410915	374.102499484361
03-03-2018 02:00:00.00	0.2097	2.0056	20.011	9.79794454483111	373.925459127683
03-03-2018 03:00:00.00	0.2094	2.0053	20.014	9.80092008086658	373.394330821992
03-03-2018 04:00:00.00	0.21	2.005	20.0153	9.80220947981529	374.468054754362
03-03-2018 05:00:00.00	0.2091	2.005	20.0101	9.79705188402047	372.863191662558
03-03-2018 06:00:00.00	0.2101	2.0048	20.0112	9.79814291390014	374.648924891325
03-03-2018 07:00:00.00	0.21	2.0047	20.0145	9.80141600353917	374.47188096887
03-03-2018 08:00:00.00	0.2095	2.0044	20.0104	9.79734943762402	373.584098434756
03-03-2018 09:00:00.00	0.2093	2.0043	20.0113	9.79824209843466	373.228726100812
03-03-2018 10:00:00.00	0.2091	2.004	20.0078	9.7947706397266	372.875891353488
03-03-2018 11:00:00.00	0.209	2.004	20.0069	9.79387797891596	372.697567158675
03-03-2018 12:00:00.00	0.2096	2.0038	19.9996	9.78663750789631	373.7700584433
03-03-2018 13:00:00.00	0.2098	2.0035	20.0034	9.79040652020791	374.1305321454
03-03-2018 14:00:00.00	0.2105	2.0033	20.0061	9.79308450263984	375.381379903022
03-03-2018 15:00:00.00	0.21	2.003	20.005	9.79199347276016	374.493564328097
03-03-2018 16:00:00.00	0.2092	2.003	20.0056	9.79258857996726	373.066922178276
03-03-2018 17:00:00.00	0.2101	2.003	20.0013	9.78832364498308	374.671894596825
03-03-2018 18:00:00.00	0.2102	2.0024	20.0015	9.78852201405211	374.857885704511
03-03-2018 19:00:00.00	0.2098	2.0021	19.997	9.7840587099989	374.148373298996
03-03-2018 20:00:00.00	0.2109	2.0027	20.0016	9.78862119858662	376.10237988277
03-03-2018 21:00:00.00	0.2101	2.0022	19.9948	9.78187665023955	374.682104258925
03-03-2018 22:00:00.00	0.2099	2.0017	19.9962	9.78326523372277	374.331809249427
03-03-2018 23:00:00.00	0.2108	2.002	19.9939	9.78098398942891	375.933011162785
04-03-2018 00:00:00.00	0.2102	2.002	20.0004	9.78743098417243	374.862993104447
04-03-2018 01:00:00.00	0.2116	2.0016	20.0003	9.78733179963792	377.364843464212
04-03-2018 02:00:00.00	0.2104	2.0003	19.9961	9.78316604918825	375.241394447672
04-03-2018 03:00:00.00	0.2105	1.9994	19.9847	9.77185901225345	375.431251011479
04-03-2018 04:00:00.00	0.2097	1.9993	19.9826	9.76977613702862	374.005707965606
04-03-2018 05:00:00.00	0.2095	1.9994	19.9818	9.76898266075249	373.647729629002
04-03-2018 06:00:00.00	0.2099	1.9993	19.9653	9.75261721255739	374.362413457228
04-03-2018 07:00:00.00	0.2101	1.999	19.958	9.74537674153773	374.722948472117
04-03-2018 08:00:00.00	0.2094	1.9986	19.9535	9.74091343748452	373.479555632812
04-03-2018 09:00:00.00	0.2097	1.9984	19.9421	9.72960640054972	374.017174897209
04-03-2018 10:00:00.00	0.2098	1.9984	19.9252	9.71284421421655	374.195533111275
04-03-2018 11:00:00.00	0.21	1.9982	19.9234	9.71105889259526	374.55480148756
04-03-2018 12:00:00.00	0.21	1.9985	19.9111	9.69885919484982	374.550973578372
04-03-2018 13:00:00.00	0.2096	1.9978	19.8982	9.68606438989728	373.846458049166
04-03-2018 14:00:00.00	0.2102	1.9977	19.8917	9.67961739515375	374.917906444855
04-03-2018 15:00:00.00	0.2095	1.9975	19.8784	9.66642585206315	373.671915166665
04-03-2018 16:00:00.00	0.2106	1.9973	19.8708	9.65888782743995	375.636475072266
04-03-2018 17:00:00.00	0.2101	1.9973	19.865	9.65313512443803	374.744650582541
04-03-2018 18:00:00.00	0.2082	1.9969	19.847	9.63528190822519	371.360778083949
04-03-2018 19:00:00.00	0.2093	1.9968	19.8352	9.62357813315232	373.324090544702
04-03-2018 20:00:00.00	0.211	1.9967	19.8286	9.61703195387428	376.357627646282
04-03-2018 21:00:00.00	0.2112	1.9965	19.8271	9.61554418585654	376.71693156211
04-03-2018 22:00:00.00	0.2103	1.9962	19.8112	9.59977384486853	375.115437628791
04-03-2018 23:00:00.00	0.2097	1.9961	19.811	9.5995754757995	374.046482472765
05-03-2018 00:00:00.00	0.2094	1.996	19.8088	9.59739341604015	373.51263842621
05-03-2018 01:00:00.00	0.2086	1.9956	19.8108	9.59937710673047	372.090726778453
05-03-2018 02:00:00.00	0.2103	1.9959	19.8099	9.59848444591982	375.119271607204
05-03-2018 03:00:00.00	0.2109	1.9959	19.8168	9.60532817880141	376.18951203975
05-03-2018 04:00:00.00	0.2107	1.9964	19.8184	9.60691513135367	375.826363154504
05-03-2018 05:00:00.00	0.2102	1.9961	19.8175	9.60602247054302	374.938343422867
05-03-2018 06:00:00.00	0.2096	1.9947	19.8236	9.61207272714849	373.88594341725
05-03-2018 07:00:00.00	0.2106	1.996	19.8275	9.61594092399461	375.653111998853
05-03-2018 08:00:00.00	0.2103	1.9952	19.8266	9.61504826318396	375.128217861626
05-03-2018 09:00:00.00	0.2106	1.9947	19.8322	9.62060259711685	375.669750399203
05-03-2018 10:00:00.00	0.2101	1.9935	19.8298	9.61822216828847	374.793170273033
05-03-2018 11:00:00.00	0.2093	1.9932	19.8342	9.62258628780716	373.369882790042
05-03-2018 12:00:00.00	0.2104	1.993	19.8302	9.61861890642653	375.33472847012
05-03-2018 13:00:00.00	0.211	1.9933	19.8346	9.62298302594523	376.401227153627
05-03-2018 14:00:00.00	0.2109	1.9936	19.8427	9.63101697324101	376.21899234818
05-03-2018 15:00:00.00	0.21	1.9922	19.8455	9.63379414020745	374.631376105604
05-03-2018 16:00:00.00	0.2109	1.993	19.8442	9.63250474125875	376.226683623329
05-03-2018 17:00:00.00	0.2093	1.9918	19.8504	9.63865418239873	373.387693919425
05-03-2018 18:00:00.00	0.2088	1.9916	19.861	9.6491677430574	372.49824080213
05-03-2018 19:00:00.00	0.2103	1.9913	19.8594	9.64758079050515	375.178069091744
05-03-2018 20:00:00.00	0.2092	1.9918	19.8645	9.65263920176545	373.209295594571
05-03-2018 21:00:00.00	0.2096	1.9913	19.87	9.65809435116382	373.929259541748
05-03-2018 22:00:00.00	0.2094	1.9913	19.8784	9.66642585206315	373.572456813177
05-03-2018 23:00:00.00	0.2101	1.9907	19.8753	9.66335113149316	374.828929664306
06-03-2018 00:00:00.00	0.2093	1.9909	19.8698	9.65789598209479	373.39914482854
06-03-2018 01:00:00.00	0.2107	1.991	19.879	9.66702095927025	375.895517102532
06-03-2018 02:00:00.00	0.2091	1.9905	19.8749	9.6629543933551	373.047421891746
06-03-2018 03:00:00.00	0.2092	1.9901	19.8756	9.66364868509671	373.230915344716
06-03-2018 04:00:00.00	0.2094	1.9901	19.8813	9.66930220356411	373.587732663402
06-03-2018 05:00:00.00	0.2095	1.9897	19.8793	9.66731851287379	373.771235982263
06-03-2018 06:00:00.00	0.2099	1.9895	19.8811	9.66910383449508	374.487432592485
06-03-2018 07:00:00.00	0.2097	1.9894	19.8791	9.66712014380476	374.131882898184
06-03-2018 08:00:00.00	0.2094	1.9893	19.8854	9.67336876947926	373.597917257624
06-03-2018 09:00:00.00	0.2091	1.9889	19.8805	9.66850872728798	373.067761897985
06-03-2018 10:00:00.00	0.2099	1.9888	19.8821	9.67009567984024	374.496365725978
06-03-2018 11:00:00.00	0.2113	1.9886	19.8803	9.66831035821895	376.996767034161
06-03-2018 12:00:00.00	0.2092	1.9885	19.8802	9.66821117368443	373.251265633131
06-03-2018 13:00:00.00	0.2099	1.9882	19.8819	9.6698973107712	374.504023036761
06-03-2018 14:00:00.00	0.2091	1.9881	19.8855	9.67346795401377	373.077932732889
06-03-2018 15:00:00.00	0.2097	1.9879	19.8889	9.67684022818731	374.151007739252
06-03-2018 16:00:00.00	0.2096	1.9876	19.8821	9.67009567984024	373.976409082802
06-03-2018 17:00:00.00	0.2102	1.9875	19.8859	9.67386469215184	375.04823036383
06-03-2018 18:00:00.00	0.209	1.9873	19.883	9.67098834065088	372.909678438914
06-03-2018 19:00:00.00	0.2095	1.9873	19.8862	9.67416224575538	373.801806856232
06-03-2018 20:00:00.00	0.2103	1.9869	19.888	9.67594756737667	375.234327414058
06-03-2018 21:00:00.00	0.2091	1.9868	19.8862	9.67416224575538	373.094461522452
06-03-2018 22:00:00.00	0.2096	1.9866	19.8907	9.67862554980859	373.989154243155
06-03-2018 23:00:00.00	0.2101	1.9866	19.895	9.68289048479277	374.881303943162
07-03-2018 00:00:00.00	0.2089	1.9862	19.8958	9.6836839610689	372.745225943739
07-03-2018 01:00:00.00	0.2092	1.9859	19.8989	9.68675868163889	373.284339585329
07-03-2018 02:00:00.00	0.2097	1.9856	19.8984	9.68626275896631	374.180336293373
07-03-2018 03:00:00.00	0.2099	1.9854	19.9038	9.69161872383017	374.539761294515
07-03-2018 04:00:00.00	0.2104	1.9852	19.9038	9.69161872383017	375.43450655665
07-03-2018 05:00:00.00	0.2097	1.9852	19.9012	9.68903992593275	374.185437380843
07-03-2018 06:00:00.00	0.2096	1.9847	19.9025	9.69032932488146	374.013372441285
07-03-2018 07:00:00.00	0.2087	1.9846	19.9015	9.6893374795363	372.40866824626
07-03-2018 08:00:00.00	0.2099	1.9845	19.905	9.69280893824436	374.551250040261
07-03-2018 09:00:00.00	0.2101	1.9848	19.9069	9.69469344440016	374.904302152668
07-03-2018 10:00:00.00	0.2095	1.985	19.8969	9.68477499094857	373.831108636748
07-03-2018 11:00:00.00	0.2111	1.9842	19.9019	9.68973421767437	376.696414203457
07-03-2018 12:00:00.00	0.2093	1.9834	19.9022	9.69003177127791	373.494596391532
07-03-2018 13:00:00.00	0.2102	1.9832	19.9069	9.69469344440016	375.103197992102
07-03-2018 14:00:00.00	0.2095	1.9833	19.908	9.69578447427983	373.852769427259
07-03-2018 15:00:00.00	0.2104	1.983	19.913	9.70074370100562	375.462658686063
07-03-2018 16:00:00.00	0.2099	1.9835	19.9132	9.70094207007465	374.56401613998
07-03-2018 17:00:00.00	0.2107	1.9834	19.9079	9.69568528974531	375.992888006191
07-03-2018 18:00:00.00	0.2106	1.9824	19.9064	9.69419752172758	375.827248239287
07-03-2018 19:00:00.00	0.21	1.9812	19.9087	9.69647876602144	374.771844255101
07-03-2018 20:00:00.00	0.2097	1.9786	19.9078	9.6955861052108	374.269625408756
07-03-2018 21:00:00.00	0.211	1.9797	19.9109	9.69866082578079	376.575726246366
07-03-2018 22:00:00.00	0.2089	1.9787	19.907	9.69479262893467	372.840525612689
07-03-2018 23:00:00.00	0.2099	1.9786	19.9154	9.703124129834	374.626582609909
08-03-2018 00:00:00.00	0.21	1.9779	19.9145	9.70223146902336	374.814005243005
08-03-2018 01:00:00.00	0.21	1.9775	19.9058	9.69360241452048	374.819116310388
08-03-2018 02:00:00.00	0.2082	1.9771	19.9177	9.70540537412786	371.611448424159
08-03-2018 03:00:00.00	0.2105	1.9766	19.9206	9.70828172562882	375.723070571002
08-03-2018 04:00:00.00	0.2092	1.976	19.9166	9.70431434424819	373.410328686767
08-03-2018 05:00:00.00	0.21	1.9756	19.9071	9.69489181346919	374.843395784147
08-03-2018 06:00:00.00	0.2097	1.975	19.9085	9.69628039695241	374.315562120407
08-03-2018 07:00:00.00	0.2089	1.9746	19.914	9.70173554635078	372.89264336901
08-03-2018 08:00:00.00	0.2104	1.9743	19.9159	9.70362005250658	375.574028934516
08-03-2018 09:00:00.00	0.2096	1.9739	19.9112	9.69895837938434	374.15109338606
08-03-2018 10:00:00.00	0.2106	1.9736	19.9046	9.69241220010629	375.940010684836
08-03-2018 11:00:00.00	0.2096	1.9732	19.9121	9.69985104019498	374.16002324362
08-03-2018 12:00:00.00	0.2099	1.9729	19.9131	9.70084288554014	374.699390318214
08-03-2018 13:00:00.00	0.2103	1.9724	19.9121	9.69985104019498	375.419843632547
08-03-2018 14:00:00.00	0.2091	1.9722	19.916	9.70371923704109	373.280193181694
08-03-2018 15:00:00.00	0.209	1.9721	19.9176	9.70530618959335	373.102947797131
08-03-2018 16:00:00.00	0.2093	1.9718	19.9113	9.69905756391885	373.642324288761
08-03-2018 17:00:00.00	0.2108	1.9716	19.9083	9.69608202788338	376.322690351622
08-03-2018 18:00:00.00	0.2098	1.9714	19.9104	9.69816490310821	374.540032527499
08-03-2018 19:00:00.00	0.2096	1.9712	19.9086	9.69637958148692	374.18553947129
08-03-2018 20:00:00.00	0.2093	1.9708	19.9099	9.69766898043563	373.655064923862
08-03-2018 21:00:00.00	0.2089	1.9708	19.9106	9.69836327217724	372.940960643071
08-03-2018 22:00:00.00	0.2102	1.9705	19.9058	9.69360241452048	375.265638351934
08-03-2018 23:00:00.00	0.2099	1.9704	19.9007	9.68854400326018	374.731332452497
09-03-2018 00:00:00.00	0.2095	1.9702	19.9001	9.68794889605308	374.019769167496
09-03-2018 01:00:00.00	0.2101	1.9698	19.8977	9.6855684672247	375.096063690847
09-03-2018 02:00:00.00	0.209	1.9697	19.9012	9.68903992593275	373.133482326068
09-03-2018 03:00:00.00	0.2095	1.9694	19.8902	9.67812962713602	374.029972458897
09-03-2018 04:00:00.00	0.2089	1.9694	19.8894	9.67733615085989	372.958764900542
09-03-2018 05:00:00.00	0.2103	1.9693	19.8869	9.67485653749699	375.459529524393
09-03-2018 06:00:00.00	0.2112	1.9696	19.8717	9.65978048825059	377.062488966637
09-03-2018 07:00:00.00	0.2094	1.9688	19.8769	9.66493808404541	373.859087046822
09-03-2018 08:00:00.00	0.2091	1.9687	19.8742	9.66226010161349	373.324745376366
09-03-2018 09:00:00.00	0.2105	1.9686	19.8723	9.66037559545769	375.825570943316
09-03-2018 10:00:00.00	0.209	1.97	19.874	9.66206173254445	373.129665236634
09-03-2018 11:00:00.00	0.2112	1.9691	19.8719	9.65997885731962	377.068917968068
09-03-2018 12:00:00.00	0.2109	1.9676	19.8747	9.66275602428607	376.552569631158
09-03-2018 13:00:00.00	0.2108	1.9671	19.8799	9.66791362008089	376.380441779579
09-03-2018 14:00:00.00	0.2099	1.9655	19.8709	9.65898701197446	374.793954835989
09-03-2018 15:00:00.00	0.2115	1.9665	19.8755	9.66354950056219	377.638009060277
09-03-2018 16:00:00.00	0.211	1.966	19.8732	9.66126825626833	376.751672081058
09-03-2018 17:00:00.00	0.2097	1.965	19.8636	9.65174654095481	374.443223282976
09-03-2018 18:00:00.00	0.2108	1.9644	19.8725	9.66057396452672	376.415101145309
09-03-2018 19:00:00.00	0.2107	1.965	19.8638	9.65194491002385	376.228837127912
09-03-2018 20:00:00.00	0.2105	1.9644	19.8609	9.64906855852289	375.879406029827
09-03-2018 21:00:00.00	0.2101	1.963	19.8613	9.64946529666095	375.183060225899
09-03-2018 22:00:00.00	0.211	1.9629	19.8565	9.64470443900419	376.791507455141
09-03-2018 23:00:00.00	0.2095	1.9624	19.8548	9.64301830191742	374.119275010775
10-03-2018 00:00:00.00	0.2096	1.9623	19.8546	9.64281993284839	374.299128899138
10-03-2018 01:00:00.00	0.2104	1.9623	19.8535	9.64172890296872	375.727751528524
10-03-2018 02:00:00.00	0.2097	1.962	19.8546	9.64281993284839	374.481538613743
10-03-2018 03:00:00.00	0.209	1.962	19.8485	9.63676967624293	373.231481021804
10-03-2018 04:00:00.00	0.2097	1.9616	19.8457	9.63399250927648	374.486647916976
10-03-2018 05:00:00.00	0.2102	1.9615	19.8377	9.62605774651522	375.38083877259
10-03-2018 06:00:00.00	0.2108	1.9612	19.8338	9.6221895496691	376.456187178874
10-03-2018 07:00:00.00	0.2095	1.961	19.84	9.62833899080908	374.137140638598
10-03-2018 08:00:00.00	0.2092	1.9609	19.8352	9.62357813315232	373.602657750731
10-03-2018 09:00:00.00	0.2095	1.9607	19.8277	9.61613929306364	374.140969209413
10-03-2018 10:00:00.00	0.2092	1.9604	19.8186	9.6071135004227	373.609029651627
10-03-2018 11:00:00.00	0.2093	1.9599	19.8115	9.60007139847207	373.793994218141
10-03-2018 12:00:00.00	0.2099	1.9598	19.8146	9.60314611904207	374.866827621874
10-03-2018 13:00:00.00	0.2095	1.9596	19.816	9.60453470252529	374.155007972806
10-03-2018 14:00:00.00	0.2108	1.9595	19.8191	9.60760942309528	376.478017782514
10-03-2018 15:00:00.00	0.2087	1.9593	19.8163	9.60483225612883	372.730068081013
10-03-2018 16:00:00.00	0.2099	1.9592	19.8115	9.60007139847207	374.874500089941
10-03-2018 17:00:00.00	0.2106	1.9589	19.8077	9.59630238616048	376.128526225026
10-03-2018 18:00:00.00	0.2112	1.9588	19.8068	9.59540972534983	377.201404189379
10-03-2018 19:00:00.00	0.2097	1.9585	19.8019	9.59054968315856	374.526249744712
10-03-2018 20:00:00.00	0.2104	1.9585	19.8041	9.59273174291791	375.776456586969
10-03-2018 21:00:00.00	0.2112	1.9582	19.7991	9.58777251619212	377.209124703015
10-03-2018 22:00:00.00	0.2086	1.9583	19.8021	9.59074805222759	372.56418083308
10-03-2018 23:00:00.00	0.2113	1.958	19.7976	9.58628474817438	377.390302301599
11-03-2018 00:00:00.00	0.2093	1.958	19.801	9.58965702234791	373.818221825483
11-03-2018 01:00:00.00	0.2103	1.9577	19.7996	9.5882684388647	375.608106040866
11-03-2018 02:00:00.00	0.2096	1.9576	19.7976	9.58628474817438	374.359142157455
11-03-2018 03:00:00.00	0.21	1.9574	19.801	9.58965702234791	375.076127058217
11-03-2018 04:00:00.00	0.2103	1.9574	19.7965	9.58519371829471	375.611950096871
11-03-2018 05:00:00.00	0.2105	1.9572	19.7944	9.58311084306987	375.971730640921
11-03-2018 06:00:00.00	0.2103	1.9572	19.7978	9.58648311724341	375.614512844587
11-03-2018 07:00:00.00	0.2103	1.957	19.7912	9.57993693796537	375.617075627274
11-03-2018 08:00:00.00	0.21	1.9566	19.7949	9.58360676574245	375.086363635227
11-03-2018 09:00:00.00	0.2096	1.9565	19.803	9.59164071303823	374.373190592838
11-03-2018 10:00:00.00	0.2103	1.9566	19.7962	9.58489616469116	375.622201297563
11-03-2018 11:00:00.00	0.2102	1.9565	19.8027	9.59134315943469	375.444869573542
11-03-2018 12:00:00.00	0.21	1.9563	19.7952	9.583904319346	375.090202495661
11-03-2018 13:00:00.00	0.2097	1.9567	19.8038	9.59243418931436	374.549248198212
11-03-2018 14:00:00.00	0.2098	1.956	19.8054	9.59402114186661	374.73680901426
11-03-2018 15:00:00.00	0.2093	1.9561	19.8083	9.59689749336757	373.842452573673
11-03-2018 16:00:00.00	0.2103	1.9558	19.8033	9.59193826664178	375.632453057821
11-03-2018 17:00:00.00	0.2094	1.9559	19.8021	9.59074805222759	374.02362018105
11-03-2018 18:00:00.00	0.2093	1.9556	19.809	9.59759178510918	373.848829608456
11-03-2018 19:00:00.00	0.2101	1.9555	19.8126	9.60116242835175	375.279059098057
11-03-2018 20:00:00.00	0.2099	1.9553	19.809	9.59759178510918	374.924378788797
11-03-2018 21:00:00.00	0.2103	1.9553	19.8087	9.59729423150564	375.638860692158
11-03-2018 22:00:00.00	0.2109	1.9552	19.8103	9.59888118405789	376.711868756657
11-03-2018 23:00:00.00	0.2104	1.9552	19.8104	9.5989803685924	375.818763330492
12-03-2018 00:00:00.00	0.2103	1.955	19.8157	9.60423714892174	375.642705377692
12-03-2018 01:00:00.00	0.2098	1.9546	19.8142	9.602749380904	374.75470803911
12-03-2018 02:00:00.00	0.2104	1.9547	19.8247	9.61316375702816	375.825174274188
12-03-2018 03:00:00.00	0.2108	1.9547	19.8249	9.61336212609719	376.539670803226
12-03-2018 04:00:00.00	0.2098	1.9543	19.8186	9.6071135004227	374.758543766895
12-03-2018 05:00:00.00	0.2096	1.9544	19.8246	9.61306457249365	374.400013261191
12-03-2018 06:00:00.00	0.2091	1.9543	19.8257	9.61415560237332	373.508157777205
12-03-2018 07:00:00.00	0.2101	1.9542	19.8295	9.61792461468492	375.295703898442
12-03-2018 08:00:00.00	0.2098	1.9539	19.8259	9.61435397144235	374.763658192751
12-03-2018 09:00:00.00	0.2097	1.9538	19.8284	9.61683358480525	374.586307203857
12-03-2018 10:00:00.00	0.21	1.9539	19.8309	9.61931319816814	375.120916208187
12-03-2018 11:00:00.00	0.2096	1.9538	19.8365	9.62486753210103	374.407677586688
12-03-2018 12:00:00.00	0.2096	1.9536	19.8336	9.62199118060007	374.410232431586
12-03-2018 13:00:00.00	0.2101	1.9536	19.8324	9.62080096618588	375.303386612005
12-03-2018 14:00:00.00	0.2094	1.9534	19.8348	9.62318139501426	374.055523201321
12-03-2018 15:00:00.00	0.2099	1.9534	19.8315	9.61990830537524	374.948683476396
12-03-2018 16:00:00.00	0.2096	1.9531	19.8326	9.62099933525491	374.416619696376
12-03-2018 17:00:00.00	0.2103	1.9531	19.8237	9.612171911683	375.667056880476
12-03-2018 18:00:00.00	0.2097	1.9531	19.8242	9.61266783435559	374.595253579819
12-03-2018 19:00:00.00	0.2106	1.9529	19.8252	9.61365967970074	376.205525687469
12-03-2018 20:00:00.00	0.2095	1.9527	19.8249	9.61336212609719	374.243093343712
12-03-2018 21:00:00.00	0.2095	1.9527	19.8233	9.61177517354494	374.243093343712
12-03-2018 22:00:00.00	0.2104	1.9527	19.8262	9.6146515250459	375.850820236358
12-03-2018 23:00:00.00	0.211	1.9524	19.8222	9.61068414366527	376.926496332094
13-03-2018 00:00:00.00	0.2109	1.9523	19.8168	9.60532817880141	376.749143645981
13-03-2018 01:00:00.00	0.2105	1.9522	19.8147	9.60324530357658	376.035871642754
13-03-2018 02:00:00.00	0.2099	1.9521	19.8173	9.60582410147399	374.96531481518
13-03-2018 03:00:00.00	0.2096	1.9519	19.8114	9.59997221393756	374.431950021052
13-03-2018 04:00:00.00	0.2118	1.9518	19.8095	9.59808770778176	378.363347360169
13-03-2018 05:00:00.00	0.2103	1.9516	19.81	9.59858363045434	375.686283981387
13-03-2018 06:00:00.00	0.2101	1.9516	19.807	9.59560809441886	375.328997929099
13-03-2018 07:00:00.00	0.2106	1.9515	19.8045	9.59312848105597	376.223496765166
13-03-2018 08:00:00.00	0.2101	1.9514	19.7988	9.58747496258857	375.331559253063
13-03-2018 09:00:00.00	0.2096	1.9512	19.8026	9.59124397490017	374.440893290205
13-03-2018 10:00:00.00	0.2099	1.9509	19.8039	9.59253337384887	374.9806681298
13-03-2018 11:00:00.00	0.2092	1.951	19.7994	9.58807006979566	373.728861854485
13-03-2018 12:00:00.00	0.2099	1.9508	19.7994	9.58807006979566	374.981947629439
13-03-2018 13:00:00.00	0.2101	1.9507	19.799	9.5876733316576	375.340524162238
13-03-2018 14:00:00.00	0.2111	1.9506	19.807	9.59560809441886	377.128296116493
13-03-2018 15:00:00.00	0.2093	1.9504	19.7996	9.5882684388647	373.915163669438
13-03-2018 16:00:00.00	0.2102	1.9503	19.8007	9.58935946874437	375.524298110339
13-03-2018 17:00:00.00	0.2103	1.9501	19.8038	9.59243418931436	375.705513050532
13-03-2018 18:00:00.00	0.2106	1.9502	19.8055	9.59412032640113	376.240185731879
13-03-2018 19:00:00.00	0.2101	1.95	19.803	9.59164071303823	375.349489499683
13-03-2018 20:00:00.00	0.2098	1.9499	19.8096	9.59818689231628	374.814810130126
13-03-2018 21:00:00.00	0.2105	1.9497	19.8062	9.59481461814274	376.067950351241
13-03-2018 22:00:00.00	0.21	1.9496	19.805	9.59362440372855	375.175957524079
13-03-2018 23:00:00.00	0.2097	1.9494	19.8031	9.59173989757275	374.642548666996
14-03-2018 00:00:00.00	0.2093	1.9494	19.8073	9.59590564802241	373.927922918466
14-03-2018 01:00:00.00	0.2109	1.9493	19.8112	9.59977384486853	376.787711639594
14-03-2018 02:00:00.00	0.2096	1.9492	19.808	9.59659993976402	374.466447842005
14-03-2018 03:00:00.00	0.2098	1.9492	19.8109	9.59947629126498	374.823763154831
14-03-2018 04:00:00.00	0.2094	1.949	19.8135	9.60205508916239	374.111685737608
14-03-2018 05:00:00.00	0.2098	1.9489	19.8151	9.60364204171465	374.827600296353
14-03-2018 06:00:00.00	0.2087	1.9486	19.8157	9.60423714892174	372.866163058536
14-03-2018 07:00:00.00	0.2101	1.9485	19.8136	9.60215427369691	375.368702379339
14-03-2018 08:00:00.00	0.2103	1.9484	19.8166	9.60512980973238	375.727308375321
14-03-2018 09:00:00.00	0.2092	1.9484	19.826	9.61445315597687	373.762020504599
14-03-2018 10:00:00.00	0.2105	1.9484	19.8182	9.60671676228464	376.084633442725
14-03-2018 11:00:00.00	0.2104	1.9481	19.8235	9.61197354261397	375.909819234366
14-03-2018 12:00:00.00	0.2099	1.9479	19.8264	9.61484989411493	375.019056917655
14-03-2018 13:00:00.00	0.2096	1.9479	19.8295	9.61792461468492	374.483060171227
14-03-2018 14:00:00.00	0.2093	1.9478	19.8351	9.62347894861781	373.948339528226
14-03-2018 15:00:00.00	0.2098	1.9475	19.8371	9.62546263930812	374.845507995617
14-03-2018 16:00:00.00	0.2096	1.9474	19.8392	9.62754551453296	374.489449921095
14-03-2018 17:00:00.00	0.209	1.9473	19.838	9.62635530011877	373.418712454781
14-03-2018 18:00:00.00	0.2107	1.9472	19.8458	9.634091693811	376.457374233578
14-03-2018 19:00:00.00	0.2096	1.947	19.8444	9.63270311032778	374.49456187799
14-03-2018 20:00:00.00	0.2091	1.9471	19.8478	9.63607538450131	373.599931576361
14-03-2018 21:00:00.00	0.21	1.9469	19.8491	9.63736478345002	375.210526606366
14-03-2018 22:00:00.00	0.2102	1.9467	19.8532	9.64143134936517	375.5704333302
14-03-2018 23:00:00.00	0.2108	1.9466	19.8557	9.64391096272806	376.643756077356
15-03-2018 00:00:00.00	0.2109	1.9464	19.8546	9.64281993284839	376.825001540176
15-03-2018 01:00:00.00	0.2109	1.9464	19.8567	9.64490280807322	376.825001540176
15-03-2018 02:00:00.00	0.2101	1.9462	19.8582	9.64639057609096	375.398165948574
15-03-2018 03:00:00.00	0.2097	1.9461	19.8613	9.64946529666095	374.684740848682
15-03-2018 04:00:00.00	0.2107	1.946	19.8666	9.65472207699028	376.472791219661
15-03-2018 05:00:00.00	0.2111	1.9461	19.8668	9.65492044605932	377.186212652155
15-03-2018 06:00:00.00	0.2109	1.9456	19.864	9.65214327909288	376.835289708255
15-03-2018 07:00:00.00	0.2103	1.9458	19.8667	9.6548212615248	375.760647293189
15-03-2018 08:00:00.00	0.2103	1.9455	19.8662	9.65432533885222	375.764494472125
15-03-2018 09:00:00.00	0.2103	1.9454	19.8638	9.65194491002385	375.765776882611
15-03-2018 10:00:00.00	0.2094	1.9453	19.8664	9.65452370792125	374.158926380443
15-03-2018 11:00:00.00	0.2101	1.9453	19.8646	9.65273838629997	375.409696430426
15-03-2018 12:00:00.00	0.21	1.945	19.867	9.65511881512835	375.234856816633
15-03-2018 13:00:00.00	0.2095	1.945	19.8741	9.66216091707897	374.341440490879
15-03-2018 14:00:00.00	0.2103	1.9451	19.8728	9.66087151813027	375.769624166586
15-03-2018 15:00:00.00	0.2093	1.9446	19.8788	9.66682259020121	373.989179437006
15-03-2018 16:00:00.00	0.2105	1.9447	19.8807	9.66870709635702	376.132124190358
15-03-2018 17:00:00.00	0.2096	1.9446	19.8788	9.66682259020121	374.52523655039
15-03-2018 18:00:00.00	0.2101	1.9446	19.8824	9.67039323344378	375.418665072695
15-03-2018 19:00:00.00	0.2106	1.9444	19.8841	9.67207937053055	376.31466224133
15-03-2018 20:00:00.00	0.211	1.9441	19.8857	9.6736663230828	377.033270291345
15-03-2018 21:00:00.00	0.2098	1.9442	19.8806	9.6686079118225	374.887725772023
15-03-2018 22:00:00.00	0.2113	1.944	19.8827	9.67069078704733	377.57062518405
15-03-2018 23:00:00.00	0.2097	1.944	19.8937	9.68160108584407	374.711595367228
16-03-2018 00:00:00.00	0.2099	1.9439	19.8908	9.67872473434311	375.070254196673
16-03-2018 01:00:00.00	0.2103	1.9439	19.897	9.68487417548309	375.78501409033
16-03-2018 02:00:00.00	0.209	1.9434	19.8994	9.68725460431147	373.468417634328
16-03-2018 03:00:00.00	0.2091	1.9436	19.8945	9.6823945621202	373.6445601319
16-03-2018 04:00:00.00	0.2099	1.9434	19.8989	9.68675868163889	375.076654839452
16-03-2018 05:00:00.00	0.2112	1.9432	19.8941	9.68199782398213	377.402240311162
16-03-2018 06:00:00.00	0.2096	1.9432	19.892	9.6799149487573	374.543132430017
16-03-2018 07:00:00.00	0.2095	1.943	19.8892	9.67713778179086	374.366993661493
16-03-2018 08:00:00.00	0.2096	1.9431	19.8972	9.68507254455212	374.544410772576
16-03-2018 09:00:00.00	0.2103	1.9429	19.8946	9.68249374665471	375.797839989783
16-03-2018 10:00:00.00	0.2103	1.9427	19.897	9.68487417548309	375.800405274737
16-03-2018 11:00:00.00	0.2108	1.9426	19.893	9.68090679410246	376.695177440405
16-03-2018 12:00:00.00	0.21	1.9427	19.8917	9.67961739515375	375.264313398453
16-03-2018 13:00:00.00	0.21	1.9426	19.8952	9.68308885386181	375.265594224312
16-03-2018 14:00:00.00	0.2098	1.9425	19.896	9.68388233013793	374.909478035049
16-03-2018 15:00:00.00	0.2103	1.9422	19.8932	9.68110516317149	375.806818640347
16-03-2018 16:00:00.00	0.2095	1.9423	19.8995	9.68735378884599	374.375938095411
16-03-2018 17:00:00.00	0.2113	1.9422	19.9042	9.69201546196823	377.593822057562
16-03-2018 18:00:00.00	0.2095	1.9419	19.9004	9.68824644965663	374.381049392405
16-03-2018 19:00:00.00	0.2096	1.9418	19.9054	9.69320567638242	374.561030019959
16-03-2018 20:00:00.00	0.2093	1.9419	19.898	9.68586602082825	374.023645049309
16-03-2018 21:00:00.00	0.2115	1.9416	19.9044	9.69221383103726	377.958962984969
16-03-2018 22:00:00.00	0.2105	1.9416	19.9092	9.69697468869402	376.171922970855
16-03-2018 23:00:00.00	0.2098	1.9414	19.9084	9.69618121241789	374.923554373941
17-03-2018 00:00:00.00	0.2095	1.9413	19.9042	9.69201546196823	374.38871659959
17-03-2018 01:00:00.00	0.2097	1.9411	19.913	9.70074370100562	374.748686507641
17-03-2018 02:00:00.00	0.2095	1.9411	19.9194	9.70709151121463	374.391272405106
17-03-2018 03:00:00.00	0.2116	1.941	19.9139	9.70163636181626	378.145411207222
17-03-2018 04:00:00.00	0.2101	1.941	19.9185	9.70619885040399	375.464796288456
17-03-2018 05:00:00.00	0.2105	1.9407	19.9184	9.70609966586947	376.183479033097
17-03-2018 06:00:00.00	0.2101	1.9408	19.9226	9.71026541631914	375.467359466195
17-03-2018 07:00:00.00	0.2109	1.9407	19.9193	9.70699232668012	376.898316998005
17-03-2018 08:00:00.00	0.2101	1.9405	19.9266	9.71423279769977	375.471204298422
17-03-2018 09:00:00.00	0.2092	1.9404	19.9249	9.712546660613	373.864084035496
17-03-2018 10:00:00.00	0.2104	1.9405	19.9322	9.71978713163266	376.007336432117
17-03-2018 11:00:00.00	0.2103	1.9402	19.9369	9.7244488047549	375.832474291933
17-03-2018 12:00:00.00	0.2104	1.9402	19.9381	9.72563901916909	376.011186833203
17-03-2018 13:00:00.00	0.2094	1.9401	19.9393	9.72682923358328	374.225338804839
17-03-2018 14:00:00.00	0.2089	1.94	19.941	9.72851537067004	373.333047391315
17-03-2018 15:00:00.00	0.2106	1.9398	19.9366	9.72415125115135	376.373750786748
17-03-2018 16:00:00.00	0.2103	1.9399	19.9452	9.73268112111971	375.836322941801
17-03-2018 17:00:00.00	0.2103	1.9397	19.9487	9.73615257982776	375.838888752171
17-03-2018 18:00:00.00	0.2094	1.9394	19.9464	9.7338713355339	374.234280739405
17-03-2018 19:00:00.00	0.2103	1.9395	19.9449	9.73238356751616	375.841454597575
17-03-2018 20:00:00.00	0.2098	1.9393	19.937	9.72454798928941	374.950430319957
17-03-2018 21:00:00.00	0.2101	1.9393	19.944	9.73149090670552	375.48658441479
17-03-2018 22:00:00.00	0.2103	1.9394	19.9359	9.72345695940974	375.842737533414
17-03-2018 23:00:00.00	0.2096	1.939	19.9383	9.72583738823812	374.596830331763
18-03-2018 00:00:00.00	0.2101	1.939	19.9304	9.71800181001137	375.490429640761
18-03-2018 01:00:00.00	0.2109	1.9398	19.9283	9.71591893478654	376.909895730889
18-03-2018 02:00:00.00	0.2121	1.9382	19.9217	9.7093727555085	379.075178811424
18-03-2018 03:00:00.00	0.2098	1.9383	19.9257	9.71334013688913	374.963229743813
18-03-2018 04:00:00.00	0.2112	1.9381	19.9183	9.70600048133496	377.467944669705
18-03-2018 05:00:00.00	0.2112	1.9381	19.9148	9.7025290226269	377.467944669705
18-03-2018 06:00:00.00	0.21	1.938	19.9021	9.6899325867434	375.32452166677
18-03-2018 07:00:00.00	0.2103	1.9381	19.9017	9.68953584860533	375.859416496397
18-03-2018 08:00:00.00	0.2115	1.9377	19.8955	9.68338640746535	378.009282299423
18-03-2018 09:00:00.00	0.2094	1.9377	19.8896	9.67753451992892	374.255998645386
18-03-2018 10:00:00.00	0.2099	1.9375	19.8887	9.67664185911828	375.152198925392
18-03-2018 11:00:00.00	0.2112	1.9375	19.8827	9.67069078704733	377.475676098346
18-03-2018 12:00:00.00	0.2093	1.9375	19.8802	9.66821117368443	374.079824845567
18-03-2018 13:00:00.00	0.2093	1.9389	19.8765	9.66454134590735	374.061947625287
18-03-2018 14:00:00.00	0.2105	1.9371	19.8734	9.66146662533736	376.229710383016
18-03-2018 15:00:00.00	0.2098	1.9375	19.8776	9.66563237578703	374.973469912088
18-03-2018 16:00:00.00	0.2103	1.937	19.8713	9.65938375011253	375.87353062136
18-03-2018 17:00:00.00	0.2104	1.9368	19.8792	9.66721932833928	376.054830224113
18-03-2018 18:00:00.00	0.2107	1.9377	19.8739	9.66196254800994	376.579459955028
18-03-2018 19:00:00.00	0.2103	1.9367	19.8708	9.65888782743995	375.87738011214
18-03-2018 20:00:00.00	0.2104	1.9365	19.8691	9.65720169035318	376.05868159796
18-03-2018 21:00:00.00	0.2116	1.9364	19.8704	9.65849108930189	378.204794106812
18-03-2018 22:00:00.00	0.2091	1.9365	19.8715	9.65958211918156	373.735125105197
18-03-2018 23:00:00.00	0.2102	1.9364	19.8768	9.6648388995109	375.702493956766
19-03-2018 00:00:00.00	0.2095	1.9362	19.8671	9.65521799966286	374.453900542399
19-03-2018 01:00:00.00	0.2091	1.9359	19.8758	9.66384705416574	373.742780495074
19-03-2018 02:00:00.00	0.2101	1.9361	19.8754	9.66345031602768	375.527604219143
19-03-2018 03:00:00.00	0.211	1.9361	19.8793	9.66731851287379	377.13624221913
19-03-2018 04:00:00.00	0.2105	1.9358	19.8734	9.66146662533736	376.246407829872
19-03-2018 05:00:00.00	0.211	1.9355	19.8794	9.66741769740831	377.143967381158
19-03-2018 06:00:00.00	0.21	1.9356	19.8852	9.67317040041023	375.35527376662
19-03-2018 07:00:00.00	0.2097	1.9356	19.8815	9.66950057263314	374.819051946953
19-03-2018 08:00:00.00	0.2088	1.9353	19.8796	9.66761606647734	373.214208886956
19-03-2018 09:00:00.00	0.21	1.9353	19.8786	9.66662422113218	375.359118133433
19-03-2018 10:00:00.00	0.2102	1.9352	19.8792	9.66721932833928	375.7178857014
19-03-2018 11:00:00.00	0.2105	1.9351	19.8729	9.66097070266478	376.255399376696
19-03-2018 12:00:00.00	0.2103	1.9349	19.8731	9.66116907173381	375.900478712745
19-03-2018 13:00:00.00	0.2091	1.9349	19.8759	9.66394623870026	373.755540175155
19-03-2018 14:00:00.00	0.2103	1.9347	19.876	9.66404542323477	375.903045399167
19-03-2018 15:00:00.00	0.2104	1.9346	19.8669	9.65501963059383	376.083075464394
19-03-2018 16:00:00.00	0.2087	1.9344	19.8698	9.65789598209479	373.046928624379
19-03-2018 17:00:00.00	0.2105	1.9344	19.8677	9.65581310686996	376.264391353291
19-03-2018 18:00:00.00	0.2111	1.9343	19.8677	9.65581310686996	377.338167194341
19-03-2018 19:00:00.00	0.2093	1.9341	19.8625	9.65065551107514	374.123248066897
19-03-2018 20:00:00.00	0.2103	1.9339	19.8616	9.64976285026449	375.913312495378
19-03-2018 21:00:00.00	0.2093	1.9337	19.866	9.65412696978319	374.128357343955
19-03-2018 22:00:00.00	0.2113	1.9336	19.8534	9.6416297184342	377.704690917083
19-03-2018 23:00:00.00	0.2098	1.9334	19.8486	9.63686886077744	375.025959554326
20-03-2018 00:00:00.00	0.2094	1.9334	19.8544	9.64262156377936	374.310943425529
20-03-2018 01:00:00.00	0.2099	1.9335	19.8491	9.63736478345002	375.20343256621
20-03-2018 02:00:00.00	0.2096	1.9332	19.8401	9.6284381753436	374.671009894961
20-03-2018 03:00:00.00	0.2104	1.933	19.842	9.6303226814994	376.103620122473
20-03-2018 04:00:00.00	0.2101	1.9328	19.8394	9.62774388360199	375.569915280293
20-03-2018 05:00:00.00	0.2115	1.9327	19.8314	9.61980912084072	378.073813844355
20-03-2018 06:00:00.00	0.2095	1.9328	19.8228	9.61127925087236	374.497369115761
20-03-2018 07:00:00.00	0.21	1.9325	19.8197	9.60820453030237	375.395002688096
20-03-2018 08:00:00.00	0.2096	1.9323	19.8102	9.59878199952337	374.682523150008
20-03-2018 09:00:00.00	0.2104	1.9325	19.8129	9.6014599819553	376.110040788455
20-03-2018 10:00:00.00	0.2097	1.9325	19.8109	9.59947629126498	374.858724112828
20-03-2018 11:00:00.00	0.2096	1.932	19.7997	9.58836762339921	374.686361058932
20-03-2018 12:00:00.00	0.2113	1.9318	19.7968	9.58549127189825	377.727904267267
20-03-2018 13:00:00.00	0.2094	1.9315	19.7945	9.58321002760439	374.335226491135
20-03-2018 14:00:00.00	0.2102	1.9317	19.7937	9.58241655132826	375.762785494133
20-03-2018 15:00:00.00	0.2116	1.9314	19.7999	9.58856599246824	378.269361894267
20-03-2018 16:00:00.00	0.2101	1.9311	19.7967	9.58539208736374	375.591715608746
20-03-2018 17:00:00.00	0.21	1.9311	19.799	9.5876733316576	375.41294753849
20-03-2018 18:00:00.00	0.2103	1.9309	19.8015	9.5901529450205	375.951819101781
20-03-2018 19:00:00.00	0.2099	1.9308	19.7989	9.58757414712309	375.238023185312
20-03-2018 20:00:00.00	0.2091	1.9308	19.8026	9.59124397490017	373.807863973553
20-03-2018 21:00:00.00	0.211	1.9308	19.8068	9.59540972534983	377.204492101481
20-03-2018 22:00:00.00	0.21	1.9303	19.8157	9.60423714892174	375.423202509014
20-03-2018 23:00:00.00	0.2109	1.9307	19.8143	9.60284856543852	377.027009560665
21-03-2018 00:00:00.00	0.2095	1.9299	19.8167	9.6052289942669	374.534453227699
21-03-2018 01:00:00.00	0.2103	1.9294	19.8163	9.60483225612883	375.971075363447
21-03-2018 02:00:00.00	0.2097	1.929	19.8158	9.60433633345625	374.903525362483
21-03-2018 03:00:00.00	0.2095	1.9289	19.8269	9.61534581678751	374.547242555489
21-03-2018 04:00:00.00	0.2111	1.9289	19.8254	9.61385804876977	377.407746555913
21-03-2018 05:00:00.00	0.2103	1.9286	19.8265	9.61494907864945	375.98134617627
21-03-2018 06:00:00.00	0.2108	1.9286	19.8383	9.62665285372231	376.875262833845
21-03-2018 07:00:00.00	0.2107	1.9285	19.8359	9.62427242489393	376.697765835408
21-03-2018 08:00:00.00	0.2109	1.9279	19.8406	9.62893409801617	377.063059228633
21-03-2018 09:00:00.00	0.2109	1.9279	19.8415	9.62982675882682	377.063059228633
21-03-2018 10:00:00.00	0.2107	1.9276	19.8503	9.63855499786421	376.709343228447
21-03-2018 11:00:00.00	0.2109	1.9277	19.8486	9.63686886077744	377.065634468712
21-03-2018 12:00:00.00	0.2106	1.9276	19.853	9.64123298029614	376.530553791698
21-03-2018 13:00:00.00	0.2096	1.9274	19.851	9.63924928960582	374.745218842805
21-03-2018 14:00:00.00	0.2106	1.9269	19.8534	9.6416297184342	376.539554648825
21-03-2018 15:00:00.00	0.2106	1.9269	19.8574	9.64559709981483	376.539554648825
21-03-2018 16:00:00.00	0.2102	1.9267	19.8612	9.64936611212643	375.826946674072
21-03-2018 17:00:00.00	0.2112	1.9265	19.8681	9.65620984500802	377.617475106882
21-03-2018 18:00:00.00	0.2095	1.9263	19.857	9.64520036167677	374.58049889581
21-03-2018 19:00:00.00	0.2111	1.9263	19.8611	9.64926692759192	377.441256882604
21-03-2018 20:00:00.00	0.2108	1.9262	19.8543	9.64252237924484	376.906151905838
21-03-2018 21:00:00.00	0.2101	1.9259	19.8505	9.63875336693324	375.658414679651
21-03-2018 22:00:00.00	0.2112	1.9259	19.8523	9.64053868855452	377.625212662267
21-03-2018 23:00:00.00	0.2101	1.9256	19.8537	9.64192727203775	375.662263425751
22-03-2018 00:00:00.00	0.2096	1.9255	19.8529	9.64113379576162	374.769535063168
22-03-2018 01:00:00.00	0.2107	1.9251	19.8534	9.6416297184342	376.741506387771
22-03-2018 02:00:00.00	0.2099	1.9251	19.8508	9.63905092053679	375.311068774529
22-03-2018 03:00:00.00	0.2106	1.925	19.8535	9.64172890296872	376.563987716075
22-03-2018 04:00:00.00	0.2109	1.9248	19.8484	9.63667049170841	377.102979403204
22-03-2018 05:00:00.00	0.211	1.9247	19.848	9.63627375357034	377.283074435787
22-03-2018 06:00:00.00	0.2101	1.9243	19.8474	9.63567864636325	375.678942236868
22-03-2018 07:00:00.00	0.2112	1.9242	19.8449	9.63319903300036	377.647137457943
22-03-2018 08:00:00.00	0.2104	1.924	19.8417	9.63002512789585	376.219225660726
22-03-2018 09:00:00.00	0.2095	1.9239	19.8392	9.62754551453296	374.611202298292
22-03-2018 10:00:00.00	0.2107	1.9237	19.8357	9.6240740558249	376.759520156071
22-03-2018 11:00:00.00	0.2106	1.9236	19.841	9.62933083615424	376.581993057874
22-03-2018 12:00:00.00	0.2112	1.9233	19.8369	9.62526427023909	377.658745733435
22-03-2018 13:00:00.00	0.2098	1.9231	19.8333	9.62169362699652	375.157888630715
22-03-2018 14:00:00.00	0.2104	1.923	19.8365	9.62486753210103	376.232075107653
22-03-2018 15:00:00.00	0.2104	1.9229	19.8361	9.62447079396296	376.23336010062
22-03-2018 16:00:00.00	0.2116	1.9227	19.8432	9.63151289591359	378.381762413913
22-03-2018 17:00:00.00	0.2109	1.9223	19.8444	9.63270311032778	377.13517924999
22-03-2018 18:00:00.00	0.2105	1.9223	19.8404	9.62873572894714	376.419892044205
22-03-2018 19:00:00.00	0.2116	1.9221	19.8469	9.63518272369067	378.389516636183
22-03-2018 20:00:00.00	0.2102	1.9217	19.8397	9.62804143720553	375.891129768687
22-03-2018 21:00:00.00	0.2119	1.9216	19.8443	9.63260392579326	378.93245696157
22-03-2018 22:00:00.00	0.2098	1.9215	19.8461	9.63438924741454	375.17839079765
22-03-2018 23:00:00.00	0.2107	1.9212	19.8446	9.63290147939681	376.791691884469
23-03-2018 00:00:00.00	0.2109	1.9211	19.8551	9.64331585552097	377.150637129745
23-03-2018 01:00:00.00	0.2097	1.921	19.8531	9.64133216483065	375.005968442631
23-03-2018 02:00:00.00	0.2108	1.9207	19.8538	9.64202645657226	376.976958463702
23-03-2018 03:00:00.00	0.2106	1.9205	19.8599	9.64807671317773	376.621868157131
23-03-2018 04:00:00.00	0.212	1.9202	19.8615	9.64966366572998	379.129412283957
23-03-2018 05:00:00.00	0.211	1.9201	19.8699	9.65799516662931	377.342354903504
23-03-2018 06:00:00.00	0.2106	1.9198	19.8664	9.65452370792125	376.630873380527
23-03-2018 07:00:00.00	0.2107	1.9198	19.8672	9.65531718419738	376.809710452408
23-03-2018 08:00:00.00	0.2103	1.9195	19.8708	9.65888782743995	376.098216180289
23-03-2018 09:00:00.00	0.2109	1.9194	19.8695	9.65759842849124	377.172537961996
23-03-2018 10:00:00.00	0.2105	1.919	19.8707	9.65878864290543	376.462323632767
23-03-2018 11:00:00.00	0.211	1.9188	19.8688	9.65690413674963	377.359111455571
23-03-2018 12:00:00.00	0.2108	1.9186	19.8771	9.66513645311444	377.004000713518
23-03-2018 13:00:00.00	0.2104	1.9183	19.8869	9.67485653749699	376.292479267205
23-03-2018 14:00:00.00	0.2107	1.918	19.8862	9.67416224575538	376.832879715016
23-03-2018 15:00:00.00	0.2106	1.9179	19.893	9.68090679410246	376.655318300661
23-03-2018 16:00:00.00	0.2104	1.918	19.8918	9.67971657968827	376.296335510391
23-03-2018 17:00:00.00	0.2117	1.9175	19.8984	9.68626275896631	378.6278273568
23-03-2018 18:00:00.00	0.2112	1.9171	19.8987	9.68656031256986	377.738733249223
23-03-2018 19:00:00.00	0.2099	1.9168	19.8986	9.68646112803534	375.417484274318
23-03-2018 20:00:00.00	0.2112	1.9165	19.8893	9.67723696632537	377.746475774727
23-03-2018 21:00:00.00	0.2107	1.9164	19.8894	9.67733615085989	376.853477007216
23-03-2018 22:00:00.00	0.2093	1.9163	19.8909	9.67882391887763	374.35074604455
23-03-2018 23:00:00.00	0.2108	1.9161	19.8836	9.67158344785797	377.036198927089
24-03-2018 00:00:00.00	0.2114	1.9159	19.8867	9.67465816842796	378.111940415568
24-03-2018 01:00:00.00	0.2103	1.9156	19.8864	9.67436061482441	376.148325569379
24-03-2018 02:00:00.00	0.2109	1.9153	19.8872	9.67515409110054	377.225368082259
24-03-2018 03:00:00.00	0.2111	1.915	19.8815	9.66950057263314	377.586967078745
24-03-2018 04:00:00.00	0.2115	1.9148	19.8759	9.66394623870026	378.305017515791
24-03-2018 05:00:00.00	0.2106	1.9146	19.8804	9.66840954275347	376.697782809796
24-03-2018 06:00:00.00	0.2105	1.9144	19.873	9.6610698871993	376.521486659227
24-03-2018 07:00:00.00	0.21	1.9142	19.8725	9.66057396452672	375.629702950958
24-03-2018 08:00:00.00	0.2103	1.9139	19.8678	9.65591229140447	376.170172302574
24-03-2018 09:00:00.00	0.2113	1.9137	19.8649	9.65303593990352	377.961486100202
24-03-2018 10:00:00.00	0.2096	1.9137	19.8638	9.65194491002385	374.920622274503
24-03-2018 11:00:00.00	0.2116	1.9136	19.854	9.64222482564129	378.499402271454
24-03-2018 12:00:00.00	0.21	1.9131	19.8536	9.64182808750323	375.643819967798
24-03-2018 13:00:00.00	0.2115	1.9129	19.8527	9.64093542669259	378.329575289365
24-03-2018 14:00:00.00	0.2096	1.9126	19.8536	9.64182808750323	374.93471288319
24-03-2018 15:00:00.00	0.2094	1.9123	19.8489	9.63716641438099	374.580790162614
24-03-2018 16:00:00.00	0.2098	1.9121	19.8434	9.63171126498262	375.298886297872
24-03-2018 17:00:00.00	0.2108	1.912	19.8387	9.62704959186038	377.089015904999
24-03-2018 18:00:00.00	0.2098	1.912	19.8436	9.63190963405165	375.300168580972
24-03-2018 19:00:00.00	0.212	1.9119	19.8333	9.62169362699652	379.236928432035
24-03-2018 20:00:00.00	0.2109	1.9115	19.8315	9.61990830537524	377.274345800649
24-03-2018 21:00:00.00	0.2116	1.9112	19.8298	9.61822216828847	378.530440358987
24-03-2018 22:00:00.00	0.2099	1.9111	19.829	9.61742869201234	375.49059975652
24-03-2018 23:00:00.00	0.2113	1.9106	19.8287	9.6171311384088	378.001520807633
25-03-2018 00:00:00.00	0.211	1.9106	19.8177	9.60622083961205	377.464840938999
25-03-2018 01:00:00.00	0.2114	1.9103	19.8214	9.60989066738914	378.184290707581
25-03-2018 02:00:00.00	0.2109	1.9101	19.8285	9.61693276933976	377.292393429345
25-03-2018 03:00:00.00	0.2099	1.9097	19.8283	9.61673440027073	375.508562301871
25-03-2018 04:00:00.00	0.2104	1.9095	19.8374	9.62576019291167	376.405628588007
25-03-2018 05:00:00.00	0.21	1.9092	19.8351	9.62347894861781	375.693879760641
25-03-2018 06:00:00.00	0.2102	1.909	19.845	9.63329821753487	376.054253429438
25-03-2018 07:00:00.00	0.2115	1.9089	19.8463	9.63458761648358	378.381286288487
25-03-2018 08:00:00.00	0.2119	1.9078	19.8454	9.63369495567294	379.111150916689
25-03-2018 09:00:00.00	0.2103	1.9078	19.8417	9.63002512789585	376.248584416138
25-03-2018 10:00:00.00	0.2111	1.9084	19.8434	9.63171126498262	377.672124204786
25-03-2018 11:00:00.00	0.2108	1.9072	19.8342	9.62258628780716	377.150869221827
25-03-2018 12:00:00.00	0.2114	1.9069	19.8348	9.62318139501426	378.228231180609
25-03-2018 13:00:00.00	0.2114	1.9065	19.8249	9.61336212609719	378.233401319326
25-03-2018 14:00:00.00	0.2104	1.9063	19.8221	9.61058495913075	376.44679066855
25-03-2018 15:00:00.00	0.2112	1.9063	19.824	9.61246946528655	377.878147287061
25-03-2018 16:00:00.00	0.211	1.9061	19.825	9.61346131063171	377.522888398634
25-03-2018 17:00:00.00	0.2096	1.9057	19.8197	9.60820453030237	375.023123593004
25-03-2018 18:00:00.00	0.2107	1.9056	19.8154	9.60393959531819	376.992567646101
25-03-2018 19:00:00.00	0.2108	1.9053	19.8186	9.6071135004227	377.175358432445
25-03-2018 20:00:00.00	0.2106	1.9052	19.814	9.60255101183497	376.818794819697
25-03-2018 21:00:00.00	0.2114	1.9049	19.8112	9.59977384486853	378.25408328772
25-03-2018 22:00:00.00	0.2111	1.9047	19.812	9.60056732114466	377.719880610458
25-03-2018 23:00:00.00	0.2111	1.9044	19.81	9.59858363045434	377.723753280793
26-03-2018 00:00:00.00	0.2099	1.9042	19.8041	9.59273174291791	375.579146085114
26-03-2018 01:00:00.00	0.2105	1.9039	19.8079	9.59650075522951	376.656602390322
26-03-2018 02:00:00.00	0.21	1.9037	19.8069	9.59550890988435	375.764499584485
26-03-2018 03:00:00.00	0.2109	1.9033	19.8123	9.6008648747482	377.380077907066
26-03-2018 04:00:00.00	0.2107	1.9032	19.8093	9.59788933871273	377.023490621259
26-03-2018 05:00:00.00	0.2103	1.903	19.8063	9.59491380267725	376.310308737288
26-03-2018 06:00:00.00	0.209	1.9028	19.8156	9.60413796438722	373.986648282986
26-03-2018 07:00:00.00	0.2121	1.9025	19.8132	9.60175753555884	379.537710185112
26-03-2018 08:00:00.00	0.2101	1.9022	19.8147	9.60324530357658	375.962708793959
26-03-2018 09:00:00.00	0.2106	1.902	19.8106	9.59917873766143	376.860008138458
26-03-2018 10:00:00.00	0.2113	1.9017	19.8082	9.59679830883305	378.116506302977
26-03-2018 11:00:00.00	0.2103	1.9015	19.8051	9.59372358826306	376.329601741102
26-03-2018 12:00:00.00	0.2107	1.9012	19.8124	9.60096405928272	377.049263642652
26-03-2018 13:00:00.00	0.2113	1.9011	19.805	9.59362440372855	378.124260651199
26-03-2018 14:00:00.00	0.2111	1.9008	19.8097	9.59828607685079	377.770231519645
26-03-2018 15:00:00.00	0.2118	1.9003	19.8113	9.59987302940304	379.029381631102
26-03-2018 16:00:00.00	0.2104	1.9003	19.8088	9.59739341604015	376.523993839395
26-03-2018 17:00:00.00	0.2112	1.9001	19.8123	9.6008648747482	377.958227777492
26-03-2018 18:00:00.00	0.2118	1.8998	19.8089	9.59749260057467	379.035859476696
26-03-2018 19:00:00.00	0.21	1.8996	19.811	9.5995754757995	375.817160727837
26-03-2018 20:00:00.00	0.211	1.8991	19.8065	9.59511217174629	377.613219941751
26-03-2018 21:00:00.00	0.2109	1.8987	19.8078	9.59640157069499	377.439416991578
26-03-2018 22:00:00.00	0.2108	1.899	19.7944	9.58311084306987	377.256582259384
26-03-2018 23:00:00.00	0.2104	1.8989	19.7969	9.58559045643277	376.542012469232
27-03-2018 00:00:00.00	0.2106	1.8981	19.7963	9.58499534922567	376.910249061255
27-03-2018 01:00:00.00	0.2117	1.898	19.795	9.58370595027697	378.880211213637
27-03-2018 02:00:00.00	0.2118	1.898	19.7942	9.58291247400084	379.059181554314
27-03-2018 03:00:00.00	0.2107	1.8974	19.7998	9.58846680793373	377.098242092203
27-03-2018 04:00:00.00	0.2105	1.8971	19.792	9.5807304142415	376.74415766011
27-03-2018 05:00:00.00	0.2107	1.8967	19.7941	9.58281328946633	377.107265826098
27-03-2018 06:00:00.00	0.2111	1.8967	19.7924	9.58112715237956	377.823179002796
27-03-2018 07:00:00.00	0.2106	1.8966	19.7985	9.58717740898502	376.929576060182
27-03-2018 08:00:00.00	0.2109	1.8961	19.7911	9.57983775343085	377.472964729402
27-03-2018 09:00:00.00	0.2111	1.8957	19.7944	9.58311084306987	377.83609527462
27-03-2018 10:00:00.00	0.2106	1.8955	19.7944	9.58311084306987	376.943750452498
27-03-2018 11:00:00.00	0.2104	1.8953	19.7914	9.5801353070344	376.588354008732
27-03-2018 12:00:00.00	0.2113	1.895	19.7924	9.58112715237956	378.203114582298
27-03-2018 13:00:00.00	0.2109	1.895	19.7963	9.58499534922567	377.487159798423
27-03-2018 14:00:00.00	0.2093	1.8946	19.7982	9.58687985538148	374.628463608398
27-03-2018 15:00:00.00	0.2116	1.8943	19.7941	9.58281328946633	378.749144435933
27-03-2018 16:00:00.00	0.2122	1.8942	19.7974	9.58608637910535	379.824400843117
27-03-2018 17:00:00.00	0.2125	1.8939	19.7983	9.58697903991599	380.365282770085
27-03-2018 18:00:00.00	0.2112	1.8936	19.7989	9.58757414712309	378.042219583246
27-03-2018 19:00:00.00	0.2105	1.8934	19.8016	9.59025212955501	376.791815129503
27-03-2018 20:00:00.00	0.2122	1.8928	19.7955	9.58420187294955	379.842581205403
27-03-2018 21:00:00.00	0.2117	1.8928	19.7961	9.58479698015664	378.947570410857
27-03-2018 22:00:00.00	0.212	1.8926	19.8025	9.59114479036565	379.487171776265
27-03-2018 23:00:00.00	0.2126	1.892	19.7957	9.58440024201858	380.568998985388
28-03-2018 00:00:00.00	0.2105	1.8918	19.8033	9.59193826664178	376.812427499409
28-03-2018 01:00:00.00	0.2122	1.8916	19.8019	9.59054968315856	379.85816575836
28-03-2018 02:00:00.00	0.2116	1.8915	19.8088	9.59739341604015	378.785403837422
28-03-2018 03:00:00.00	0.212	1.8911	19.8079	9.59650075522951	379.506634572578
28-03-2018 04:00:00.00	0.2108	1.8908	19.8107	9.59927792219595	377.362354574967
28-03-2018 05:00:00.00	0.2113	1.8906	19.8109	9.59947629126498	378.260013247872
28-03-2018 06:00:00.00	0.2111	1.8905	19.8042	9.59283092745242	377.903274126399
28-03-2018 07:00:00.00	0.2101	1.8902	19.8019	9.59054968315856	376.116969835562
28-03-2018 08:00:00.00	0.2121	1.8899	19.8104	9.5989803685924	379.701226155689
28-03-2018 09:00:00.00	0.2107	1.8896	19.8148	9.6033444881111	377.198816680587
28-03-2018 10:00:00.00	0.2103	1.8896	19.811	9.5995754757995	376.482729700653
28-03-2018 11:00:00.00	0.2113	1.8891	19.8132	9.60175753555884	378.279414433492
28-03-2018 12:00:00.00	0.2106	1.8889	19.8146	9.60314611904207	377.028819198551
28-03-2018 13:00:00.00	0.2115	1.8887	19.8203	9.60879963750947	378.642642927796
28-03-2018 14:00:00.00	0.2106	1.8884	19.8144	9.60294774997303	377.035265365154
28-03-2018 15:00:00.00	0.2102	1.8882	19.8175	9.60602247054302	376.321722632558
28-03-2018 16:00:00.00	0.2118	1.888	19.8111	9.59967466033401	379.188800932683
28-03-2018 17:00:00.00	0.2112	1.8868	19.8231	9.61157680447591	378.130127897503
28-03-2018 18:00:00.00	0.2119	1.8858	19.8253	9.61375886423526	379.396374102228
28-03-2018 19:00:00.00	0.212	1.8827	19.8309	9.61931319816814	379.61566313565
28-03-2018 20:00:00.00	0.213	1.8762	19.8193	9.60780779216431	381.491111561577
28-03-2018 21:00:00.00	0.2117	1.8786	19.8357	9.6240740558249	379.131634897633
28-03-2018 22:00:00.00	0.2131	1.8761	19.8368	9.62516508570457	381.67152102334
28-03-2018 23:00:00.00	0.2136	1.877	19.838	9.62635530011877	382.555264997429
29-03-2018 00:00:00.00	0.2134	1.8763	19.8429	9.63121534231004	382.206219311899
29-03-2018 01:00:00.00	0.2116	1.8792	19.8487	9.63696804531196	378.944768477641
29-03-2018 02:00:00.00	0.2134	1.8791	19.8514	9.63964602774388	382.169613428989
29-03-2018 03:00:00.00	0.2121	1.8795	19.8523	9.64053868855452	379.836297898033
29-03-2018 04:00:00.00	0.2128	1.8791	19.8551	9.64331585552097	381.095097177548
29-03-2018 05:00:00.00	0.2128	1.8782	19.8491	9.63736478345002	381.106829509603
29-03-2018 06:00:00.00	0.2128	1.8771	19.8446	9.63290147939681	381.121170007605
29-03-2018 07:00:00.00	0.2126	1.8773	19.8471	9.6353810927597	380.760368426312
29-03-2018 08:00:00.00	0.2135	1.8771	19.8486	9.63686886077744	382.374858066841
29-03-2018 09:00:00.00	0.2132	1.8763	19.8494	9.63766233705357	381.848012920791
29-03-2018 10:00:00.00	0.2145	1.8755	19.8424	9.63071941963746	384.186868492835
29-03-2018 11:00:00.00	0.2141	1.8744	19.8376	9.6259585619807	383.484866873972
29-03-2018 12:00:00.00	0.2134	1.8742	19.8363	9.624669163032	382.233678326394
29-03-2018 13:00:00.00	0.2135	1.8741	19.8347	9.62308221047975	382.414102672652
29-03-2018 14:00:00.00	0.2124	1.8734	19.8311	9.61951156723717	380.452930288234
29-03-2018 15:00:00.00	0.2124	1.873	19.8346	9.62298302594523	380.458136797628
29-03-2018 16:00:00.00	0.2132	1.8722	19.8414	9.6297275742923	381.901576798526
29-03-2018 17:00:00.00	0.2138	1.872	19.8295	9.61792461468492	382.978967325338
29-03-2018 18:00:00.00	0.2134	1.8718	19.8291	9.61752787654686	382.265064888868
29-03-2018 19:00:00.00	0.2131	1.8713	19.8383	9.62665285372231	381.734202899127
29-03-2018 20:00:00.00	0.2132	1.8709	19.8308	9.61921401363363	381.918563604999
29-03-2018 21:00:00.00	0.214	1.8703	19.8389	9.62724796092941	383.359523894701
29-03-2018 22:00:00.00	0.2131	1.8698	19.8385	9.62685122279134	381.753795207773
29-03-2018 23:00:00.00	0.2125	1.8694	19.8354	9.62377650222135	380.684147276647
30-03-2018 00:00:00.00	0.2131	1.8691	19.8322	9.62060259711685	381.762938973412
30-03-2018 01:00:00.00	0.2128	1.8685	19.8389	9.62724796092941	381.233323841316
30-03-2018 02:00:00.00	0.2134	1.8681	19.8388	9.62714877639489	382.313462606044
30-03-2018 03:00:00.00	0.2126	1.8678	19.8443	9.63260392579326	380.884144968304
30-03-2018 04:00:00.00	0.2137	1.8675	19.8518	9.64004276588195	382.858783424562
30-03-2018 05:00:00.00	0.2134	1.8673	19.8493	9.63756315251905	382.323928588698
30-03-2018 06:00:00.00	0.2147	1.8672	19.8475	9.63577783089777	384.654303455733
30-03-2018 07:00:00.00	0.2133	1.867	19.8542	9.64242319471033	382.148693286169
30-03-2018 08:00:00.00	0.213	1.8666	19.8553	9.64351422459	381.616436209158
30-03-2018 09:00:00.00	0.2123	1.8661	19.8587	9.64688649876354	380.368805809111
30-03-2018 10:00:00.00	0.2126	1.8657	19.859	9.64718405236709	380.911516960049
30-03-2018 11:00:00.00	0.2131	1.8655	19.8606	9.64877100491934	381.809970973663
30-03-2018 12:00:00.00	0.2131	1.8651	19.8674	9.65551555326641	381.815197466811
30-03-2018 13:00:00.00	0.2132	1.865	19.868	9.65611066047351	381.995676568632
30-03-2018 14:00:00.00	0.2147	1.8647	19.8707	9.65878864290543	384.687212833997
30-03-2018 15:00:00.00	0.2138	1.8646	19.8735	9.66156580987188	383.0759551465
30-03-2018 16:00:00.00	0.2131	1.8644	19.8777	9.66573156032154	381.824344174135
30-03-2018 17:00:00.00	0.214	1.8641	19.8782	9.66622748299412	383.440866099027
30-03-2018 18:00:00.00	0.2138	1.8638	19.8714	9.65948293464704	383.086443258824
30-03-2018 19:00:00.00	0.2137	1.8635	19.8718	9.65987967278511	382.911194794916
30-03-2018 20:00:00.00	0.2139	1.8636	19.8766	9.66464053044187	383.268246417508
30-03-2018 21:00:00.00	0.2129	1.8634	19.8752	9.66325194695864	381.47904712447
30-03-2018 22:00:00.00	0.2132	1.863	19.8737	9.66176417894091	382.021823623821
30-03-2018 23:00:00.00	0.2141	1.8628	19.8744	9.66245847068252	383.637112047194
31-03-2018 00:00:00.00	0.2134	1.8623	19.8731	9.66116907173381	382.389353965013
31-03-2018 01:00:00.00	0.2135	1.862	19.8765	9.66454134590735	382.572471052614
31-03-2018 02:00:00.00	0.2132	1.8617	19.8813	9.66930220356411	382.038821129263
31-03-2018 03:00:00.00	0.2136	1.8619	19.8752	9.66325194695864	382.752971894947
31-03-2018 04:00:00.00	0.2136	1.8617	19.8783	9.66632666752863	382.755591900612
31-03-2018 05:00:00.00	0.2137	1.8617	19.8759	9.66394623870026	382.93478459345
31-03-2018 06:00:00.00	0.2132	1.8613	19.8802	9.66821117368443	382.044051435243
31-03-2018 07:00:00.00	0.2133	1.8607	19.882	9.66999649530572	382.231095988801
31-03-2018 08:00:00.00	0.2132	1.8608	19.8793	9.66731851287379	382.050589519112
31-03-2018 09:00:00.00	0.2131	1.8606	19.8714	9.65948293464704	381.874005375912
31-03-2018 10:00:00.00	0.2139	1.8606	19.874	9.66206173254445	383.307600891166
31-03-2018 11:00:00.00	0.2134	1.8602	19.8688	9.65690413674963	382.41683930081
31-03-2018 12:00:00.00	0.2137	1.86	19.8759	9.66394623870026	382.957066516614
31-03-2018 13:00:00.00	0.2133	1.8599	19.873	9.6610698871993	382.241562366958
31-03-2018 14:00:00.00	0.2128	1.8594	19.8834	9.67138507878894	381.352070144982
31-03-2018 15:00:00.00	0.2143	1.8596	19.8828	9.67078997158185	384.037543137469
31-03-2018 16:00:00.00	0.2137	1.8592	19.8866	9.67455898389345	382.967553024788
31-03-2018 17:00:00.00	0.214	1.8592	19.8825	9.6704924179783	383.505177104841
31-03-2018 18:00:00.00	0.2128	1.859	19.8792	9.66721932833928	381.357291460016
31-03-2018 19:00:00.00	0.2143	1.8587	19.8779	9.66592992939057	384.049373946653
31-03-2018 20:00:00.00	0.2142	1.8584	19.8817	9.66969894170217	383.87410477763
31-03-2018 21:00:00.00	0.2133	1.8584	19.8825	9.6704924179783	382.261188371002
31-03-2018 22:00:00.00	0.2133	1.8581	19.8811	9.66910383449508	382.265113813658
31-03-2018 23:00:00.00	0.2136	1.858	19.8785	9.66652503659767	382.804068476049
01-04-2018 00:00:00.00	0.2137	1.8578	19.8771	9.66513645311444	382.985905796077
01-04-2018 01:00:00.00	0.2137	1.8575	19.8836	9.67158344785797	382.989838761636
01-04-2018 02:00:00.00	0.213	1.8573	19.8861	9.67406306122087	381.737923008407
01-04-2018 03:00:00.00	0.213	1.857	19.8863	9.6742614302899	381.741843225256
01-04-2018 04:00:00.00	0.2134	1.8569	19.8886	9.67654267458376	382.460038526666
01-04-2018 05:00:00.00	0.215	1.8568	19.8868	9.67475735296248	385.328911740825
01-04-2018 06:00:00.00	0.2134	1.8567	19.8891	9.67703859725634	382.462656975247
01-04-2018 07:00:00.00	0.2136	1.8565	19.8891	9.67703859725634	382.823724640056
01-04-2018 08:00:00.00	0.2138	1.8561	19.8892	9.67713778179086	383.187420713316
01-04-2018 09:00:00.00	0.2134	1.856	19.8931	9.68100597863697	382.471821827635
01-04-2018 10:00:00.00	0.213	1.8557	19.8923	9.68021250236085	381.758831762055
01-04-2018 11:00:00.00	0.2142	1.8556	19.8912	9.67912147248117	383.910899979632
01-04-2018 12:00:00.00	0.2144	1.8552	19.8957	9.68358477653439	384.274622145488
01-04-2018 13:00:00.00	0.2141	1.8551	19.8952	9.68308885386181	383.738238113825
01-04-2018 14:00:00.00	0.2126	1.8551	19.9007	9.68854400326018	381.049740415689
01-04-2018 15:00:00.00	0.2132	1.8549	19.8996	9.6874529733805	382.127755811904
01-04-2018 16:00:00.00	0.2141	1.8546	19.8903	9.67822881167053	383.74480658491
01-04-2018 17:00:00.00	0.2134	1.8544	19.8879	9.67584838284215	382.492771711107
01-04-2018 18:00:00.00	0.2136	1.8543	19.8919	9.67981576422278	382.852557332305
01-04-2018 19:00:00.00	0.2135	1.8541	19.8888	9.67674104365279	382.675939385637
01-04-2018 20:00:00.00	0.2136	1.8537	19.8909	9.67882391887763	382.860421547607
01-04-2018 21:00:00.00	0.2128	1.8535	19.8873	9.67525327563506	381.429099043138
01-04-2018 22:00:00.00	0.2145	1.8535	19.8893	9.67723696632537	384.476230003539
01-04-2018 23:00:00.00	0.2142	1.8531	19.891	9.67892310341214	383.943758799719
02-04-2018 00:00:00.00	0.2146	1.853	19.8879	9.67584838284215	384.662057533327
02-04-2018 01:00:00.00	0.2136	1.8528	19.8929	9.68080760956794	382.872218476352
02-04-2018 02:00:00.00	0.2137	1.8526	19.898	9.68586602082825	383.054088635454
02-04-2018 03:00:00.00	0.2136	1.8524	19.8929	9.68080760956794	382.877461789152
02-04-2018 04:00:00.00	0.2138	1.8522	19.8965	9.68437825281051	383.238585450248
02-04-2018 05:00:00.00	0.2136	1.8519	19.9003	9.68814726512211	382.884016132108
02-04-2018 06:00:00.00	0.2147	1.852	19.8998	9.68765134244953	384.854479476698
02-04-2018 07:00:00.00	0.2145	1.8517	19.898	9.68586602082825	384.499924327905
02-04-2018 08:00:00.00	0.2125	1.8514	19.895	9.68289048479277	380.918755962723
02-04-2018 09:00:00.00	0.2139	1.8512	19.9011	9.68894074139824	383.430963927159
02-04-2018 10:00:00.00	0.2132	1.851	19.9039	9.69171790836468	382.178781154427
02-04-2018 11:00:00.00	0.2142	1.8508	19.8997	9.68755215791502	383.973993882373
02-04-2018 12:00:00.00	0.2142	1.8508	19.9058	9.69360241452048	383.973993882373
02-04-2018 13:00:00.00	0.2142	1.8504	19.913	9.70074370100562	383.97925264372
02-04-2018 14:00:00.00	0.213	1.8505	19.9125	9.70024777833304	381.826801032653
02-04-2018 15:00:00.00	0.2132	1.8502	19.917	9.70471108238625	382.189249575711
02-04-2018 16:00:00.00	0.2137	1.8501	19.9213	9.70897601737043	383.086877488978
02-04-2018 17:00:00.00	0.2145	1.85	19.9219	9.70957112457753	384.522304982656
02-04-2018 18:00:00.00	0.2119	1.8496	19.9156	9.70332249890303	379.866631138351
02-04-2018 19:00:00.00	0.2136	1.8496	19.9261	9.71373687502719	382.914169000244
02-04-2018 20:00:00.00	0.2145	1.8496	19.923	9.7106621544572	384.527571397717
02-04-2018 21:00:00.00	0.2139	1.8491	19.9314	9.71899365535653	383.458534606487
02-04-2018 22:00:00.00	0.2137	1.8485	19.9249	9.712546660613	383.107865301282
02-04-2018 23:00:00.00	0.2129	1.8486	19.9325	9.7200846852362	381.672368924763
03-04-2018 00:00:00.00	0.214	1.8484	19.9409	9.72841618613553	383.647000013123
03-04-2018 01:00:00.00	0.2137	1.8475	19.9451	9.73258193658519	383.120983851818
03-04-2018 02:00:00.00	0.2132	1.8474	19.9459	9.73337541286132	382.225893566869
03-04-2018 03:00:00.00	0.2146	1.8469	19.9464	9.7338713355339	384.742406980411
03-04-2018 04:00:00.00	0.2143	1.8456	19.9531	9.74051669934646	384.221660505972
03-04-2018 05:00:00.00	0.2122	1.8458	19.9461	9.73357378193035	380.453933536885
03-04-2018 06:00:00.00	0.2125	1.8457	19.9468	9.73426807367196	380.993109009013
03-04-2018 07:00:00.00	0.2134	1.8451	19.9525	9.73992159213936	382.614588362732
03-04-2018 08:00:00.00	0.2127	1.8453	19.9544	9.74180609829516	381.356914518121
03-04-2018 09:00:00.00	0.2132	1.8453	19.9525	9.73992159213936	382.253381171902
03-04-2018 10:00:00.00	0.2124	1.8449	19.9497	9.73714442517292	380.824251060431
03-04-2018 11:00:00.00	0.2127	1.8451	19.9466	9.73406970460293	381.359526451515
03-04-2018 12:00:00.00	0.2133	1.8448	19.9523	9.73972322307033	382.439222823256
03-04-2018 13:00:00.00	0.2143	1.8446	19.9563	9.74369060445096	384.23481850221
03-04-2018 14:00:00.00	0.2137	1.8445	19.9523	9.73972322307033	383.160344894514
03-04-2018 15:00:00.00	0.2127	1.8442	19.9528	9.74021914574291	381.371280594556
03-04-2018 16:00:00.00	0.213	1.8442	19.9586	9.74597184874483	381.909180849273
03-04-2018 17:00:00.00	0.2146	1.8445	19.9644	9.75172455174675	384.774029079844
03-04-2018 18:00:00.00	0.2138	1.8439	19.9617	9.74904656931482	383.347520000637
03-04-2018 19:00:00.00	0.2133	1.843	19.9592	9.74656695595192	382.462798634323
03-04-2018 20:00:00.00	0.214	1.8433	19.9686	9.75589030219641	383.714008410473
03-04-2018 21:00:00.00	0.2138	1.843	19.9729	9.76015523718059	383.35933590257
03-04-2018 22:00:00.00	0.2134	1.843	19.9779	9.76511446390638	382.642106087972
03-04-2018 23:00:00.00	0.2139	1.8431	19.9707	9.75797317742124	383.537329828171
04-04-2018 00:00:00.00	0.2122	1.8429	19.977	9.76422180309574	380.491719741705
04-04-2018 01:00:00.00	0.2134	1.8428	19.9804	9.76759407726927	382.644727030145
04-04-2018 02:00:00.00	0.2128	1.8428	19.9813	9.76848673807992	381.568874939152
04-04-2018 03:00:00.00	0.213	1.8426	19.9797	9.76689978552766	381.930108368096
04-04-2018 04:00:00.00	0.212	1.8424	19.9895	9.77661986991021	380.139613086729
04-04-2018 05:00:00.00	0.2137	1.8424	19.9825	9.76967695249411	383.187902436953
04-04-2018 06:00:00.00	0.2128	1.8419	19.9958	9.78286849558471	381.580636461081
04-04-2018 07:00:00.00	0.214	1.8417	19.9894	9.7765206853757	383.735035476752
04-04-2018 08:00:00.00	0.2124	1.8418	19.992	9.77909948327311	380.864684049613
04-04-2018 09:00:00.00	0.2132	1.8418	19.9946	9.78167828117052	382.299202633604
04-04-2018 10:00:00.00	0.2132	1.8415	19.9911	9.77820682246246	382.303130698628
04-04-2018 11:00:00.00	0.2132	1.8416	19.9863	9.77344596480571	382.301821334651
04-04-2018 12:00:00.00	0.2129	1.8413	19.9832	9.77037124423572	381.767795772269
04-04-2018 13:00:00.00	0.2134	1.8411	19.9917	9.77880192966956	382.667006488358
04-04-2018 14:00:00.00	0.2131	1.8412	19.9873	9.77443781015086	382.127740336472
04-04-2018 15:00:00.00	0.2134	1.841	19.9952	9.78227338837761	382.668317125519
04-04-2018 16:00:00.00	0.2136	1.8409	19.9918	9.77890111420408	383.028268472475
04-04-2018 17:00:00.00	0.2129	1.8408	19.984	9.77116472051184	381.774333603845
04-04-2018 18:00:00.00	0.2139	1.8406	19.987	9.77414025654731	383.570170728715
04-04-2018 19:00:00.00	0.2141	1.8403	19.98	9.76719733913121	383.932760085798
04-04-2018 20:00:00.00	0.2145	1.8404	19.9822	9.76937939889056	384.648738771754
04-04-2018 21:00:00.00	0.2141	1.8402	19.9843	9.77146227411539	383.934075094206
04-04-2018 22:00:00.00	0.2136	1.8401	19.9719	9.75916339183543	383.038763791884
04-04-2018 23:00:00.00	0.2123	1.8399	19.973	9.7602544217151	380.710143310739
05-04-2018 00:00:00.00	0.2127	1.8397	19.9667	9.75400579604061	381.430062179915
05-04-2018 01:00:00.00	0.2133	1.8397	19.9627	9.75003841465998	382.506028504823
05-04-2018 02:00:00.00	0.2143	1.8393	19.9546	9.7420044673642	384.304570930761
05-04-2018 03:00:00.00	0.213	1.8395	19.9534	9.74081425295	381.970661963227
05-04-2018 04:00:00.00	0.2124	1.8393	19.9496	9.73704524063841	380.8972975534
05-04-2018 05:00:00.00	0.214	1.8392	19.9429	9.73039987682585	383.767894881741
05-04-2018 06:00:00.00	0.2136	1.8389	19.9264	9.71403442863074	383.05450784947
05-04-2018 07:00:00.00	0.2151	1.8387	19.9244	9.71205073794042	385.747139934232
05-04-2018 08:00:00.00	0.2134	1.8387	19.9118	9.69955348659143	382.698464258322
05-04-2018 09:00:00.00	0.2134	1.8385	19.9062	9.69399915265854	382.701085972615
05-04-2018 10:00:00.00	0.2134	1.8384	19.8865	9.67445979935893	382.702396843232
05-04-2018 11:00:00.00	0.2141	1.8383	19.8813	9.66930220356411	383.959061965595
05-04-2018 12:00:00.00	0.2129	1.8382	19.8796	9.66761606647734	381.808333937998
05-04-2018 13:00:00.00	0.2138	1.8382	19.8648	9.652936755369	383.422366350136
05-04-2018 14:00:00.00	0.2142	1.8379	19.8557	9.64391096272806	384.143661551572
05-04-2018 15:00:00.00	0.2127	1.8379	19.8486	9.63686886077744	381.453579888046
05-04-2018 16:00:00.00	0.2137	1.8376	19.8439	9.6322071876552	383.250905992947
05-04-2018 17:00:00.00	0.2136	1.8375	19.8367	9.62506590117006	383.07287755253
05-04-2018 18:00:00.00	0.2141	1.8374	19.8253	9.61375886423526	383.970898987246
05-04-2018 19:00:00.00	0.212	1.8373	19.8206	9.60909719111301	380.206022524373
05-04-2018 20:00:00.00	0.2124	1.8373	19.8234	9.61187435807946	380.923392378193
05-04-2018 21:00:00.00	0.2131	1.837	19.8052	9.59382277279758	382.182717055482
05-04-2018 22:00:00.00	0.2145	1.837	19.8081	9.59669912429854	384.693537345851
05-04-2018 23:00:00.00	0.2129	1.8367	19.8082	9.59679830883305	381.827952270322
06-04-2018 00:00:00.00	0.2135	1.8366	19.7998	9.58846680793373	382.905340813911
06-04-2018 01:00:00.00	0.2133	1.8364	19.7954	9.58410268841503	382.549268148995
06-04-2018 02:00:00.00	0.213	1.8376	19.7971	9.5857888255018	381.995521649498
06-04-2018 03:00:00.00	0.2138	1.837	19.7951	9.58380513481149	383.438127200667
06-04-2018 04:00:00.00	0.2124	1.8356	19.7879	9.57666384832635	380.945575790629
06-04-2018 05:00:00.00	0.2124	1.8355	19.7947	9.58340839667342	380.946880777706
06-04-2018 06:00:00.00	0.2123	1.8353	19.7956	9.58430105748406	380.770136027844
06-04-2018 07:00:00.00	0.2135	1.8352	19.7928	9.58152389051762	382.923704810339
06-04-2018 08:00:00.00	0.2133	1.835	19.7957	9.58440024201858	382.567615194014
06-04-2018 09:00:00.00	0.2123	1.8348	19.7919	9.58063122970698	380.776658114646
06-04-2018 10:00:00.00	0.2127	1.8348	19.7973	9.58598719457083	381.494089406431
06-04-2018 11:00:00.00	0.2128	1.8345	19.795	9.58370595027697	381.677369805284
06-04-2018 12:00:00.00	0.2129	1.8345	19.7982	9.58687985538148	381.856729471546
06-04-2018 13:00:00.00	0.2126	1.8344	19.7988	9.58747496258857	381.319956787086
06-04-2018 14:00:00.00	0.2128	1.8342	19.8031	9.59173989757275	381.68129246182
06-04-2018 15:00:00.00	0.213	1.8341	19.7981	9.58678067084696	382.041324280066
06-04-2018 16:00:00.00	0.2128	1.834	19.8037	9.59233500477984	381.683907610971
06-04-2018 17:00:00.00	0.2122	1.834	19.7966	9.58529290282922	380.607731179737
06-04-2018 18:00:00.00	0.2128	1.8336	19.7976	9.58628474817438	381.689138016783
06-04-2018 19:00:00.00	0.2137	1.8334	19.795	9.58370595027697	383.30605110214
06-04-2018 20:00:00.00	0.2133	1.8335	19.8034	9.5920374511763	382.587274695242
06-04-2018 21:00:00.00	0.2132	1.8331	19.7954	9.58410268841503	382.41314930125
06-04-2018 22:00:00.00	0.2131	1.8331	19.7995	9.58816925433018	382.233781032347
06-04-2018 23:00:00.00	0.2126	1.8328	19.7968	9.58549127189825	381.340859033603
07-04-2018 00:00:00.00	0.2124	1.8328	19.7993	9.58797088526115	380.982118808736
07-04-2018 01:00:00.00	0.2128	1.8325	19.7921	9.58082959877601	381.703522371943
07-04-2018 02:00:00.00	0.2131	1.8325	19.7953	9.58400350388052	382.241638239949
07-04-2018 03:00:00.00	0.2123	1.8323	19.7968	9.58549127189825	380.809271900385
07-04-2018 04:00:00.00	0.2135	1.8322	19.7986	9.58727659351954	382.963062163318
07-04-2018 05:00:00.00	0.214	1.8322	19.8	9.58866517700276	383.859931161358
07-04-2018 06:00:00.00	0.2129	1.832	19.7944	9.58311084306987	381.88943610231
07-04-2018 07:00:00.00	0.2136	1.8319	19.7989	9.58757414712309	383.146373986844
07-04-2018 08:00:00.00	0.2136	1.8314	19.7924	9.58112715237956	383.152937539936
07-04-2018 09:00:00.00	0.2138	1.8311	19.7964	9.58509453376019	383.515636899378
07-04-2018 10:00:00.00	0.2123	1.8312	19.7957	9.58440024201858	380.823623736071
07-04-2018 11:00:00.00	0.2133	1.8309	19.7967	9.58539208736374	382.621355950889
07-04-2018 12:00:00.00	0.2138	1.8307	19.8013	9.58995457595146	383.520892928483
07-04-2018 13:00:00.00	0.2133	1.8306	19.8004	9.58906191514082	382.625288794195
07-04-2018 14:00:00.00	0.214	1.8307	19.8058	9.59441788000468	383.879658964899
07-04-2018 15:00:00.00	0.2133	1.8302	19.8041	9.59273174291791	382.630532711036
07-04-2018 16:00:00.00	0.2124	1.8303	19.8056	9.59421951093564	381.0147524284
07-04-2018 17:00:00.00	0.2133	1.83	19.7986	9.58727659351954	382.633154723358
07-04-2018 18:00:00.00	0.2132	1.8297	19.8048	9.59342603465952	382.457698644753
07-04-2018 19:00:00.00	0.2126	1.8297	19.8049	9.59352521919403	381.381363657948
07-04-2018 20:00:00.00	0.2128	1.8298	19.804	9.59263255838339	381.738834022502
07-04-2018 21:00:00.00	0.212	1.8294	19.8054	9.59402114186661	380.308937866381
07-04-2018 22:00:00.00	0.2116	1.829	19.8054	9.59402114186661	379.596576383316
07-04-2018 23:00:00.00	0.2126	1.8289	19.7971	9.5857888255018	381.391817861045
08-04-2018 00:00:00.00	0.2128	1.8286	19.8011	9.58975620688243	381.754530186647
08-04-2018 01:00:00.00	0.2133	1.8285	19.8023	9.59094642129662	382.652820961266
08-04-2018 02:00:00.00	0.2123	1.8285	19.7982	9.58687985538148	380.858855555915
08-04-2018 03:00:00.00	0.2123	1.8281	19.7953	9.58400350388052	380.864075639211
08-04-2018 04:00:00.00	0.2118	1.828	19.7964	9.58509453376019	379.968382612015
08-04-2018 05:00:00.00	0.2137	1.8278	19.7907	9.57944101529279	383.379602604886
08-04-2018 06:00:00.00	0.2127	1.8277	19.7911	9.57983775343085	381.586901698603
08-04-2018 07:00:00.00	0.213	1.8275	19.7895	9.5782508008786	382.12772484651
08-04-2018 08:00:00.00	0.2136	1.8273	19.7813	9.5701176690483	383.206767158814
08-04-2018 09:00:00.00	0.2132	1.827	19.774	9.56287719802865	382.493083459381
08-04-2018 10:00:00.00	0.2132	1.8268	19.7713	9.56019921559672	382.495704817228
08-04-2018 11:00:00.00	0.2131	1.8268	19.7728	9.56168698361446	382.316297826226
08-04-2018 12:00:00.00	0.2119	1.8265	19.7658	9.55474406619835	380.167322062093
08-04-2018 13:00:00.00	0.2134	1.8263	19.7598	9.5487929941274	382.861078498847
08-04-2018 14:00:00.00	0.2134	1.8261	19.7545	9.54353621379807	382.863702441632
08-04-2018 15:00:00.00	0.213	1.8267	19.7475	9.53659329638196	382.138200298079
08-04-2018 16:00:00.00	0.2126	1.8255	19.7367	9.52588136665425	381.436254618927
08-04-2018 17:00:00.00	0.2134	1.8255	19.7378	9.52697239653393	382.87157448579
08-04-2018 18:00:00.00	0.2128	1.8252	19.7379	9.52707158106844	381.79900966217
08-04-2018 19:00:00.00	0.2129	1.8255	19.7298	9.51903763377266	381.974499569
08-04-2018 20:00:00.00	0.2142	1.8258	19.7254	9.51467351425397	384.302943534487
08-04-2018 21:00:00.00	0.2134	1.8244	19.7181	9.50743304323431	382.886007407534
08-04-2018 22:00:00.00	0.2131	1.8247	19.7068	9.49622519083403	382.343811341982
08-04-2018 23:00:00.00	0.2134	1.8241	19.7064	9.49582845269596	382.889943847772
09-04-2018 00:00:00.00	0.2132	1.8235	19.6997	9.4891830888834	382.538962409716
09-04-2018 01:00:00.00	0.2141	1.823	19.6925	9.48204180239827	384.160390641415
09-04-2018 02:00:00.00	0.2139	1.8231	19.7008	9.49027411876308	383.800214601558
09-04-2018 03:00:00.00	0.2137	1.8226	19.6923	9.48184343332924	383.447925708211
09-04-2018 04:00:00.00	0.2139	1.8226	19.6958	9.48531489203729	383.806791338261
09-04-2018 05:00:00.00	0.2133	1.8223	19.6937	9.48323201681246	382.73412952918
09-04-2018 06:00:00.00	0.2129	1.8223	19.689	9.47857034369021	382.01639088965
09-04-2018 07:00:00.00	0.2138	1.8219	19.6923	9.48184343332924	383.636562028568
09-04-2018 08:00:00.00	0.2129	1.8218	19.6929	9.48243854053633	382.02293723853
09-04-2018 09:00:00.00	0.2129	1.8217	19.6979	9.48739776726212	382.024246535229
09-04-2018 10:00:00.00	0.2137	1.8216	19.707	9.49642355990306	383.461067558483
09-04-2018 11:00:00.00	0.2127	1.8211	19.708	9.49741540524822	381.673218424513
09-04-2018 12:00:00.00	0.2134	1.821	19.7162	9.50554853707851	382.930625136937
09-04-2018 13:00:00.00	0.2143	1.8208	19.728	9.51725231215138	384.548244995741
09-04-2018 14:00:00.00	0.2128	1.8206	19.7419	9.53103896244908	381.859204276479
09-04-2018 15:00:00.00	0.2122	1.8205	19.7475	9.53659329638196	380.783838686902
09-04-2018 16:00:00.00	0.213	1.8203	19.7626	9.55157016109385	382.222024591304
09-04-2018 17:00:00.00	0.2131	1.82	19.7714	9.56029840013124	382.405403562418
09-04-2018 18:00:00.00	0.2127	1.8199	19.7785	9.56734050208186	381.688916570358
09-04-2018 19:00:00.00	0.213	1.8197	19.7844	9.57319238961829	382.229885004255
09-04-2018 20:00:00.00	0.2133	1.8197	19.7909	9.57963938436182	382.768236954965
09-04-2018 21:00:00.00	0.2145	1.8193	19.7913	9.58003612249988	384.926922117332
09-04-2018 22:00:00.00	0.2127	1.8189	19.7957	9.58440024201858	381.701999345023
09-04-2018 23:00:00.00	0.213	1.8189	19.7975	9.58618556363986	382.240366057781
10-04-2018 00:00:00.00	0.2149	1.8186	19.7994	9.58807006979566	385.653987509692
10-04-2018 01:00:00.00	0.2139	1.8183	19.7999	9.58856599246824	383.863360579616
10-04-2018 02:00:00.00	0.2132	1.8183	19.8046	9.59322766559049	382.60714574836
10-04-2018 03:00:00.00	0.2134	1.8179	19.7962	9.58489616469116	382.971315071631
10-04-2018 04:00:00.00	0.2131	1.8176	19.806	9.59461624907371	382.436862563354
10-04-2018 05:00:00.00	0.2126	1.8174	19.7973	9.58598719457083	381.542160390777
10-04-2018 06:00:00.00	0.2134	1.8171	19.7952	9.583904319346	382.981817103713
10-04-2018 07:00:00.00	0.2132	1.817	19.7891	9.57785406274054	382.624195380979
10-04-2018 08:00:00.00	0.2137	1.817	19.784	9.57279565148023	383.521531674087
10-04-2018 09:00:00.00	0.2139	1.8168	19.7733	9.56218290628704	383.883097959214
10-04-2018 10:00:00.00	0.2137	1.8165	19.7697	9.55861226304447	383.528105009528
10-04-2018 11:00:00.00	0.2129	1.8163	19.7596	9.54859462505837	382.09496188679
10-04-2018 12:00:00.00	0.213	1.816	19.7529	9.54194926124581	382.278364695714
10-04-2018 13:00:00.00	0.2136	1.8159	19.7544	9.54343702926355	383.356519283614
10-04-2018 14:00:00.00	0.2136	1.8155	19.7381	9.52726995013747	383.361775869584
10-04-2018 15:00:00.00	0.2125	1.8154	19.7341	9.52330256875684	381.388841915743
10-04-2018 16:00:00.00	0.2125	1.8153	19.725	9.5142767761159	381.390149325999
10-04-2018 17:00:00.00	0.2145	1.815	19.7186	9.50792896590689	384.983662872768
10-04-2018 18:00:00.00	0.2141	1.8147	19.7125	9.50187870930143	384.269696518655
10-04-2018 19:00:00.00	0.2144	1.8146	19.7027	9.49215862491888	384.809459908795
10-04-2018 20:00:00.00	0.214	1.8144	19.7002	9.48967901155598	384.094165243484
10-04-2018 21:00:00.00	0.2131	1.8141	19.6847	9.47430540870603	382.48274955236
10-04-2018 22:00:00.00	0.2145	1.8138	19.6836	9.47321437882636	384.999500487828
10-04-2018 23:00:00.00	0.2143	1.8137	19.677	9.46666819954832	384.641845224034
11-04-2018 00:00:00.00	0.2131	1.8135	19.6707	9.46041957387382	382.490616999007
11-04-2018 01:00:00.00	0.2132	1.8144	19.6649	9.4546668708719	382.658299205191
11-04-2018 02:00:00.00	0.2138	1.813	19.6623	9.45208807297449	383.753616536801
11-04-2018 03:00:00.00	0.2141	1.8124	19.6603	9.45010438228418	384.299997106532
11-04-2018 04:00:00.00	0.2147	1.8119	19.6552	9.44504597102387	385.38357665361
11-04-2018 05:00:00.00	0.215	1.8112	19.6544	9.44425249474774	385.931334522552
11-04-2018 06:00:00.00	0.2139	1.8108	19.6517	9.44157451231582	383.962067778801
11-04-2018 07:00:00.00	0.2144	1.8108	19.6455	9.43542507117584	384.859594818957
11-04-2018 08:00:00.00	0.2148	1.8098	19.6431	9.43304464234746	385.590836638411
11-04-2018 09:00:00.00	0.2142	1.8095	19.6428	9.43274708874391	384.517722416441
11-04-2018 10:00:00.00	0.2146	1.8098	19.6352	9.42520906412071	385.231813513049
11-04-2018 11:00:00.00	0.2129	1.8088	19.6305	9.42054739099847	382.193221095026
11-04-2018 12:00:00.00	0.2141	1.8084	19.6331	9.42312618889588	384.352705164458
11-04-2018 13:00:00.00	0.2136	1.8082	19.6278	9.41786940856654	383.457733891894
11-04-2018 14:00:00.00	0.2143	1.8081	19.6309	9.42094412913653	384.715702904761
11-04-2018 15:00:00.00	0.2127	1.808	19.6274	9.41747267042848	381.84465977587
11-04-2018 16:00:00.00	0.2136	1.8076	19.6331	9.42312618889588	383.465622989094
11-04-2018 17:00:00.00	0.2118	1.8076	19.6261	9.41618327147977	380.234171109973
11-04-2018 18:00:00.00	0.2139	1.8075	19.6337	9.42372129610297	384.005515030118
11-04-2018 19:00:00.00	0.2125	1.8071	19.6352	9.42520906412071	381.497387478961
11-04-2018 20:00:00.00	0.2122	1.8071	19.6361	9.42610172493135	380.958802931932
11-04-2018 21:00:00.00	0.2133	1.8069	19.6354	9.42540743318974	382.936239105459
11-04-2018 22:00:00.00	0.2134	1.8067	19.6334	9.42342374249943	383.118395954011
11-04-2018 23:00:00.00	0.2125	1.8065	19.6353	9.42530824865523	381.505236540877
12-04-2018 00:00:00.00	0.2134	1.8064	19.6352	9.42520906412071	383.122337174084
12-04-2018 01:00:00.00	0.2128	1.8062	19.6397	9.42967236817392	382.047762361696
12-04-2018 02:00:00.00	0.2134	1.806	19.6406	9.43056502898456	383.12759226032
12-04-2018 03:00:00.00	0.2141	1.8059	19.6451	9.43502833303777	384.385655043336
12-04-2018 04:00:00.00	0.2146	1.8057	19.6409	9.43086258258811	385.285975283492
12-04-2018 05:00:00.00	0.2129	1.8056	19.6425	9.43244953514036	382.235160406628
12-04-2018 06:00:00.00	0.2147	1.8056	19.6396	9.42957318363941	385.466833909361
12-04-2018 07:00:00.00	0.2128	1.805	19.6421	9.4320527970023	382.063483941394
12-04-2018 08:00:00.00	0.2129	1.8049	19.6515	9.44137614324679	382.244335858007
12-04-2018 09:00:00.00	0.2133	1.8046	19.648	9.43790468453873	382.966442623817
12-04-2018 10:00:00.00	0.2126	1.8044	19.6524	9.44226880405743	381.712255606304
12-04-2018 11:00:00.00	0.213	1.8045	19.6574	9.44722803078322	382.429123360234
12-04-2018 12:00:00.00	0.2138	1.8042	19.6538	9.44365738754065	383.869426078581
12-04-2018 13:00:00.00	0.2137	1.8039	19.6528	9.44266554219549	383.693827479513
12-04-2018 14:00:00.00	0.2138	1.8039	19.6655	9.455261978079	383.873375363219
12-04-2018 15:00:00.00	0.2141	1.8036	19.6707	9.46041957387382	384.41597392191
12-04-2018 16:00:00.00	0.2143	1.8033	19.678	9.46766004489348	384.779032067247
12-04-2018 17:00:00.00	0.2125	1.8032	19.6729	9.46260163363317	381.54841215531
12-04-2018 18:00:00.00	0.2137	1.8031	19.6821	9.47172661080862	383.704354376486
12-04-2018 19:00:00.00	0.2137	1.803	19.6865	9.47609073032732	383.705670279222
12-04-2018 20:00:00.00	0.2145	1.8027	19.6859	9.47549562312022	385.146060224239
12-04-2018 21:00:00.00	0.2139	1.8026	19.6919	9.48144669519117	384.070045757664
12-04-2018 22:00:00.00	0.2129	1.8024	19.6971	9.48660429098599	382.277108923515
12-04-2018 23:00:00.00	0.215	1.8023	19.6979	9.48739776726212	386.049132419216
13-04-2018 00:00:00.00	0.2126	1.802	19.696	9.48551326110632	381.743674385215
13-04-2018 01:00:00.00	0.2137	1.8018	19.7019	9.49136514864275	383.721461816087
13-04-2018 02:00:00.00	0.215	1.8015	19.6957	9.48521570750277	386.059724516759
13-04-2018 03:00:00.00	0.2141	1.8015	19.7033	9.49275373212597	384.443660553665
13-04-2018 04:00:00.00	0.2149	1.8012	19.7107	9.50009338768014	385.884132193094
13-04-2018 05:00:00.00	0.2142	1.8009	19.7065	9.49592763723048	384.63113811007
13-04-2018 06:00:00.00	0.2135	1.8008	19.7105	9.49989501861111	383.375488476038
13-04-2018 07:00:00.00	0.2132	1.8007	19.7138	9.50316810825013	382.838100586473
13-04-2018 08:00:00.00	0.2137	1.8005	19.7133	9.50267218557756	383.738570781226
13-04-2018 09:00:00.00	0.2133	1.8003	19.7179	9.50723467416528	383.022922853491
13-04-2018 10:00:00.00	0.2129	1.8001	19.7092	9.49860561966241	382.307265107606
13-04-2018 11:00:00.00	0.2143	1.8001	19.7133	9.50267218557756	384.821263093283
13-04-2018 12:00:00.00	0.2131	1.7997	19.7169	9.50624282882012	382.671657643654
13-04-2018 13:00:00.00	0.2141	1.7994	19.713	9.50237463197401	384.471351173834
13-04-2018 14:00:00.00	0.214	1.7991	19.7192	9.50852407311399	384.295729858491
13-04-2018 15:00:00.00	0.2135	1.7993	19.7241	9.51338411530526	383.395212602342
13-04-2018 16:00:00.00	0.2135	1.799	19.7147	9.50406076906078	383.399157671153
13-04-2018 17:00:00.00	0.2142	1.7988	19.7134	9.50277137011207	384.658842803974
13-04-2018 18:00:00.00	0.2128	1.7985	19.7121	9.50148197116336	382.148664989319
13-04-2018 19:00:00.00	0.2127	1.7982	19.7106	9.49999420314563	381.973014351805
13-04-2018 20:00:00.00	0.2139	1.7984	19.711	9.50039094128369	384.125375074455
13-04-2018 21:00:00.00	0.2137	1.7978	19.7062	9.49563008362693	383.774109661126
13-04-2018 22:00:00.00	0.2146	1.7978	19.7043	9.49374557747113	385.390378723808
13-04-2018 23:00:00.00	0.2129	1.7976	19.6999	9.48938145795244	382.340048965387
14-04-2018 00:00:00.00	0.2137	1.7973	19.6959	9.48541407657181	383.780691657572
14-04-2018 01:00:00.00	0.2131	1.7974	19.6936	9.48313283227794	382.701847747736
14-04-2018 02:00:00.00	0.2135	1.797	19.6892	9.47876871275924	383.425460204837
14-04-2018 03:00:00.00	0.2142	1.7967	19.6889	9.4784711591557	384.686551489262
14-04-2018 04:00:00.00	0.2141	1.7964	19.6861	9.47569399218925	384.510916123029
14-04-2018 05:00:00.00	0.2143	1.7963	19.686	9.47559480765474	384.871424478466
14-04-2018 06:00:00.00	0.2137	1.7961	19.6817	9.47132987267056	383.796489370229
14-04-2018 07:00:00.00	0.2125	1.7959	19.6864	9.4759915457928	381.643956576353
14-04-2018 08:00:00.00	0.214	1.7955	19.6882	9.47777686741409	384.34318757537
14-04-2018 09:00:00.00	0.2135	1.7955	19.6809	9.47053639639443	383.445189473558
14-04-2018 10:00:00.00	0.2134	1.7952	19.6846	9.47420622417152	383.269534102296
14-04-2018 11:00:00.00	0.2136	1.7951	19.6744	9.4640894016509	383.630053039549
14-04-2018 12:00:00.00	0.2145	1.7949	19.6789	9.46855270570412	385.249114919344
14-04-2018 13:00:00.00	0.2145	1.7947	19.6838	9.47341274789539	385.2517580726
14-04-2018 14:00:00.00	0.2141	1.7946	19.6779	9.46756086035896	384.534659001453
14-04-2018 15:00:00.00	0.2134	1.7944	19.6819	9.47152824173959	383.280052496795
14-04-2018 16:00:00.00	0.2144	1.7942	19.6782	9.46785841396251	385.07875848453
14-04-2018 17:00:00.00	0.2125	1.794	19.6866	9.47618991486183	381.668832150848
14-04-2018 18:00:00.00	0.2136	1.7938	19.6814	9.47103231906701	383.647161860558
14-04-2018 19:00:00.00	0.2132	1.7935	19.6907	9.48025648077698	382.9326624947
14-04-2018 20:00:00.00	0.2143	1.7935	19.6949	9.48442223122665	384.908393867797
14-04-2018 21:00:00.00	0.2134	1.7931	19.6973	9.48680266005502	383.297146119248
14-04-2018 22:00:00.00	0.2147	1.7932	19.6938	9.48333120134697	385.630810461253
14-04-2018 23:00:00.00	0.2142	1.793	19.7036	9.49305128572952	384.735381267913
15-04-2018 00:00:00.00	0.2135	1.7927	19.7019	9.49136514864275	383.482022874676
15-04-2018 01:00:00.00	0.2135	1.7926	19.7058	9.49523334548887	383.483338484164
15-04-2018 02:00:00.00	0.2141	1.7923	19.713	9.50237463197401	384.565001391242
15-04-2018 03:00:00.00	0.2139	1.7921	19.7097	9.49910154233499	384.208398946482
15-04-2018 04:00:00.00	0.2141	1.7922	19.7132	9.50257300104304	384.566320734203
15-04-2018 05:00:00.00	0.2143	1.7926	19.7203	9.50961510299366	384.920278394175
15-04-2018 06:00:00.00	0.2143	1.7917	19.7306	9.51983111004879	384.932163654475
15-04-2018 07:00:00.00	0.2142	1.7901	19.7344	9.52360012236039	384.773661923095
15-04-2018 08:00:00.00	0.2143	1.7899	19.7369	9.52607973572328	384.955936377113
15-04-2018 09:00:00.00	0.2149	1.7898	19.7406	9.52974956350037	386.0350656362
15-04-2018 10:00:00.00	0.2138	1.7896	19.7408	9.5299479325694	384.061718897863
15-04-2018 11:00:00.00	0.2136	1.7893	19.7444	9.53351857581197	383.706396488023
15-04-2018 12:00:00.00	0.2141	1.7893	19.7471	9.5361965582439	384.604585618379
15-04-2018 13:00:00.00	0.2139	1.7889	19.7576	9.54661093436806	384.250583548014
15-04-2018 14:00:00.00	0.2137	1.7888	19.7602	9.54918973226547	383.892620150306
15-04-2018 15:00:00.00	0.2144	1.7886	19.7658	9.55474406619835	385.152749532544
15-04-2018 16:00:00.00	0.2138	1.7883	19.7682	9.55712449502673	384.078850202296
15-04-2018 17:00:00.00	0.2138	1.7882	19.7738	9.56267882895962	384.080168058248
15-04-2018 18:00:00.00	0.2153	1.7878	19.7804	9.56922500823766	386.780145649941
15-04-2018 19:00:00.00	0.2137	1.7882	19.7795	9.56833234742702	383.900523452046
15-04-2018 20:00:00.00	0.2148	1.788	19.7839	9.57269646694571	385.879262187353
15-04-2018 21:00:00.00	0.2136	1.7876	19.7849	9.57368831229087	383.728778774538
15-04-2018 22:00:00.00	0.2134	1.787	19.7968	9.58549127189825	383.37737502194
15-04-2018 23:00:00.00	0.214	1.787	19.7968	9.58549127189825	384.455287041683
16-04-2018 00:00:00.00	0.2138	1.7868	19.8091	9.5976909696437	384.098618991201
16-04-2018 01:00:00.00	0.2139	1.7869	19.8103	9.59888118405789	384.276953628371
16-04-2018 02:00:00.00	0.2138	1.7868	19.8191	9.60760942309528	384.098618991201
16-04-2018 03:00:00.00	0.2141	1.7863	19.8249	9.61336212609719	384.64417799536
16-04-2018 04:00:00.00	0.2151	1.7865	19.8249	9.61336212609719	386.438089105868
16-04-2018 05:00:00.00	0.2153	1.786	19.8315	9.61990830537524	386.804035697359
16-04-2018 06:00:00.00	0.2132	1.7859	19.8351	9.62347894861781	383.032528534441
16-04-2018 07:00:00.00	0.2143	1.7857	19.8321	9.62050341258233	385.011417483942
16-04-2018 08:00:00.00	0.2124	1.7856	19.8398	9.62814062174005	381.599186611632
16-04-2018 09:00:00.00	0.2145	1.7853	19.8348	9.62318139501426	385.376027200038
16-04-2018 10:00:00.00	0.2151	1.7863	19.8333	9.62169362699652	386.440741180766
16-04-2018 11:00:00.00	0.2147	1.7847	19.8353	9.62367731768684	385.743294359486
16-04-2018 12:00:00.00	0.2147	1.7852	19.8426	9.63091778870649	385.736675843139
16-04-2018 13:00:00.00	0.2146	1.7848	19.8492	9.63746396798454	385.562305071844
16-04-2018 14:00:00.00	0.213	1.7843	19.8513	9.63954684320937	382.694222303624
16-04-2018 15:00:00.00	0.2139	1.784	19.853	9.64123298029614	384.315196674515
16-04-2018 16:00:00.00	0.2139	1.7839	19.8625	9.65065551107514	384.316515536009
16-04-2018 17:00:00.00	0.2135	1.7838	19.8606	9.64877100491934	383.599147479193
16-04-2018 18:00:00.00	0.2141	1.7834	19.8566	9.6448036235387	384.682458375687
16-04-2018 19:00:00.00	0.2131	1.7833	19.8591	9.6472832369016	382.887030376525
16-04-2018 20:00:00.00	0.2137	1.7832	19.8673	9.6554163687319	383.966396957074
16-04-2018 21:00:00.00	0.2135	1.7829	19.8631	9.65125061828223	383.610995523718
16-04-2018 22:00:00.00	0.2133	1.783	19.8624	9.65055632654062	383.250325708874
16-04-2018 23:00:00.00	0.2127	1.7826	19.8668	9.65492044605932	382.177511985227
17-04-2018 00:00:00.00	0.2138	1.7825	19.8664	9.65452370792125	384.15530079962
17-04-2018 01:00:00.00	0.2139	1.7822	19.8674	9.65551555326641	384.338937566431
17-04-2018 02:00:00.00	0.2141	1.782	19.8703	9.65839190476737	384.700941286479
17-04-2018 03:00:00.00	0.2141	1.782	19.8718	9.65987967278511	384.700941286479
17-04-2018 04:00:00.00	0.2129	1.7818	19.8701	9.65819353569834	382.547373074681
17-04-2018 05:00:00.00	0.2125	1.7817	19.8764	9.66444216137283	381.829947244398
17-04-2018 06:00:00.00	0.2139	1.7818	19.88	9.6680128046154	384.344213718526
17-04-2018 07:00:00.00	0.2129	1.7813	19.8814	9.66940138809862	382.553937634508
17-04-2018 08:00:00.00	0.2135	1.7813	19.8796	9.66761606647734	383.632060521219
17-04-2018 09:00:00.00	0.2143	1.7812	19.8811	9.66910383449508	385.0708792762
17-04-2018 10:00:00.00	0.2128	1.7811	19.8851	9.67307121587571	382.376875140348
17-04-2018 11:00:00.00	0.2123	1.7809	19.8857	9.6736663230828	381.481051757096
17-04-2018 12:00:00.00	0.2124	1.7809	19.8855	9.67346795401377	381.660741371678
17-04-2018 13:00:00.00	0.2128	1.7806	19.8886	9.67654267458376	382.383436932051
17-04-2018 14:00:00.00	0.2136	1.7807	19.8913	9.67922065701569	383.819651339738
17-04-2018 15:00:00.00	0.2128	1.7804	19.8912	9.67912147248117	382.386061711791
17-04-2018 16:00:00.00	0.2127	1.7802	19.8911	9.67902228794666	382.208992595927
17-04-2018 17:00:00.00	0.2133	1.7802	19.8926	9.6805100559644	383.28715618576
17-04-2018 18:00:00.00	0.2137	1.7799	19.8944	9.68229537758568	384.009885855622
17-04-2018 19:00:00.00	0.2132	1.7797	19.8956	9.68348559199987	383.114036786171
17-04-2018 20:00:00.00	0.213	1.7796	19.8975	9.68537009815567	382.755956455382
17-04-2018 21:00:00.00	0.214	1.7797	19.8939	9.6817994549131	384.551612909196
17-04-2018 22:00:00.00	0.2142	1.7794	19.892	9.6799149487573	384.91497027044
17-04-2018 23:00:00.00	0.2131	1.7792	19.8928	9.68070842503343	382.940911444654
18-04-2018 00:00:00.00	0.2131	1.7792	19.892	9.6799149487573	382.940911444654
18-04-2018 01:00:00.00	0.2133	1.7788	19.8901	9.6780304426015	383.305574078897
18-04-2018 02:00:00.00	0.2134	1.7787	19.8911	9.67902228794666	383.486592893598
18-04-2018 03:00:00.00	0.2123	1.7786	19.8892	9.67713778179086	381.511167351212
18-04-2018 04:00:00.00	0.2127	1.7785	19.8925	9.68041087142988	382.231294499868
18-04-2018 05:00:00.00	0.2132	1.7783	19.8933	9.68120434770601	383.132446676436
18-04-2018 06:00:00.00	0.2138	1.7781	19.8918	9.67971657968827	384.213318109525
18-04-2018 07:00:00.00	0.2137	1.778	19.8915	9.67941902608472	384.034929387532
18-04-2018 08:00:00.00	0.2133	1.7779	19.8851	9.67307121587571	383.31741508778
18-04-2018 09:00:00.00	0.2143	1.7777	19.8854	9.67336876947926	385.117140036373
18-04-2018 10:00:00.00	0.2141	1.7775	19.8836	9.67158344785797	384.760362673932
18-04-2018 11:00:00.00	0.2134	1.7775	19.8834	9.67138507878894	383.502388578314
18-04-2018 12:00:00.00	0.2128	1.7774	19.8883	9.67624512098022	382.425437732459
18-04-2018 13:00:00.00	0.2144	1.777	19.8913	9.67922065701569	385.306107191656
18-04-2018 14:00:00.00	0.214	1.777	19.8902	9.67812962713602	384.587252514059
18-04-2018 15:00:00.00	0.2132	1.7768	19.8875	9.67545164470409	383.152173522359
18-04-2018 16:00:00.00	0.2133	1.7767	19.8902	9.67812962713602	383.333204237685
18-04-2018 17:00:00.00	0.2137	1.7767	19.888	9.67594756737667	384.05206631783
18-04-2018 18:00:00.00	0.2146	1.7765	19.8837	9.67168263239249	385.672153688736
18-04-2018 19:00:00.00	0.2133	1.7761	19.8838	9.67178181692701	383.341099300423
18-04-2018 20:00:00.00	0.2142	1.7761	19.8826	9.67059160251281	384.958572293252
18-04-2018 21:00:00.00	0.2144	1.7758	19.8885	9.67644349004925	385.321978747696
18-04-2018 22:00:00.00	0.214	1.7757	19.8799	9.66791362008089	384.604414679977
18-04-2018 23:00:00.00	0.2127	1.7757	19.8764	9.66444216137283	382.26803272164
19-04-2018 00:00:00.00	0.2122	1.7756	19.8784	9.66642585206315	381.370733401441
19-04-2018 01:00:00.00	0.2141	1.7754	19.8786	9.66662422113218	384.788098937234
19-04-2018 02:00:00.00	0.2145	1.7752	19.8753	9.66335113149316	385.509639789857
19-04-2018 03:00:00.00	0.2142	1.7749	19.875	9.66305357788961	384.97443002352
19-04-2018 04:00:00.00	0.2122	1.7749	19.8694	9.65749924395673	381.379897530303
19-04-2018 05:00:00.00	0.2133	1.7746	19.8681	9.65620984500802	383.360838380139
19-04-2018 06:00:00.00	0.2146	1.7744	19.8614	9.64956448119546	385.699956634816
19-04-2018 07:00:00.00	0.2144	1.7744	19.8669	9.65501963059383	385.340497215771
19-04-2018 08:00:00.00	0.2141	1.7743	19.8613	9.64946529666095	384.802629052081
19-04-2018 09:00:00.00	0.2151	1.7739	19.858	9.64619220702193	386.605240947178
19-04-2018 10:00:00.00	0.213	1.7739	19.856	9.64420851633161	382.830852262896
19-04-2018 11:00:00.00	0.2139	1.7736	19.8522	9.64043950402001	384.452406769123
19-04-2018 12:00:00.00	0.2146	1.7736	19.8381	9.62645448465328	385.710549287769
19-04-2018 13:00:00.00	0.2136	1.7736	19.8384	9.62675203825683	383.91320283256
19-04-2018 14:00:00.00	0.2136	1.7734	19.8367	9.62506590117006	383.915838746289
19-04-2018 15:00:00.00	0.2144	1.7731	19.8274	9.61584173946009	385.357694530011
19-04-2018 16:00:00.00	0.2144	1.7732	19.8235	9.61197354261397	385.356371605188
19-04-2018 17:00:00.00	0.2137	1.7729	19.8219	9.61038659006172	384.102167653712
19-04-2018 18:00:00.00	0.2138	1.7727	19.8077	9.59630238616048	384.284545127075
19-04-2018 19:00:00.00	0.2143	1.7725	19.8024	9.59104560583114	385.185890836737
19-04-2018 20:00:00.00	0.2137	1.7727	19.794	9.58271410493181	384.104804928232
19-04-2018 21:00:00.00	0.2147	1.7721	19.7967	9.58539208736374	385.910155981578
19-04-2018 22:00:00.00	0.2148	1.7721	19.7879	9.57666384832635	386.089899882827
19-04-2018 23:00:00.00	0.2135	1.7718	19.7817	9.57051440718637	383.757181606732
20-04-2018 00:00:00.00	0.213	1.7717	19.7861	9.57487852670506	382.859767256851
20-04-2018 01:00:00.00	0.2134	1.7716	19.7758	9.56466251964993	383.580069625355
20-04-2018 02:00:00.00	0.2137	1.7714	19.7748	9.56367067430477	384.1219480954
20-04-2018 03:00:00.00	0.2154	1.7712	19.7706	9.55950492385511	387.180326378995
20-04-2018 04:00:00.00	0.2139	1.7711	19.7688	9.55771960223383	384.485404572745
20-04-2018 05:00:00.00	0.2147	1.7709	19.7655	9.5544465125948	385.926055093883
20-04-2018 06:00:00.00	0.2135	1.7707	19.7656	9.55454569712932	383.771674583837
20-04-2018 07:00:00.00	0.2133	1.7705	19.7558	9.54482561274677	383.414802238042
20-04-2018 08:00:00.00	0.214	1.7705	19.7573	9.54631338076451	384.673078663577
20-04-2018 09:00:00.00	0.2136	1.7702	19.7535	9.54254436845291	383.958018289128
20-04-2018 10:00:00.00	0.2141	1.77	19.7533	9.54234599938388	384.859439122643
20-04-2018 11:00:00.00	0.2149	1.7697	19.7505	9.53956883241743	386.301472941092
20-04-2018 12:00:00.00	0.2139	1.7697	19.7453	9.53441123662261	384.503885817122
20-04-2018 13:00:00.00	0.213	1.7696	19.7411	9.53024548617295	382.887372007762
20-04-2018 14:00:00.00	0.2134	1.7696	19.7451	9.53421286755358	383.606409326087
20-04-2018 15:00:00.00	0.2135	1.7694	19.7333	9.52250909248072	383.78880405908
20-04-2018 16:00:00.00	0.2149	1.7692	19.7411	9.53024548617295	386.308104675727
20-04-2018 17:00:00.00	0.2128	1.7689	19.7305	9.51973192551427	382.53704717604
20-04-2018 18:00:00.00	0.214	1.769	19.7253	9.51457432971945	384.692890138362
20-04-2018 19:00:00.00	0.2147	1.7689	19.723	9.51229308542559	385.952556525826
20-04-2018 20:00:00.00	0.2142	1.7684	19.7178	9.50713548963077	385.060348771916
20-04-2018 21:00:00.00	0.2149	1.7685	19.7137	9.50306892371562	386.317389486756
20-04-2018 22:00:00.00	0.2145	1.768	19.7152	9.50455669173335	385.604944947479
20-04-2018 23:00:00.00	0.2145	1.7681	19.7149	9.50425913812981	385.603620942041
21-04-2018 00:00:00.00	0.2143	1.7679	19.7209	9.51021021020076	385.246729317289
21-04-2018 01:00:00.00	0.213	1.7677	19.7218	9.5111028710114	382.91235116507
21-04-2018 02:00:00.00	0.2145	1.7676	19.7232	9.51249145449462	385.610241060152
21-04-2018 03:00:00.00	0.2136	1.7673	19.7305	9.51973192551427	383.996251506255
21-04-2018 04:00:00.00	0.2149	1.7673	19.7273	9.51655802040977	386.333307344074
21-04-2018 05:00:00.00	0.2133	1.7673	19.7275	9.5167563894788	383.456930928297
21-04-2018 06:00:00.00	0.2143	1.7674	19.7367	9.52588136665425	385.253343353636
21-04-2018 07:00:00.00	0.2133	1.7666	19.7337	9.52290583061878	383.466147813418
21-04-2018 08:00:00.00	0.2147	1.7664	19.7328	9.52201316980814	385.98568843451
21-04-2018 09:00:00.00	0.214	1.7663	19.734	9.52320338422233	384.728555935927
21-04-2018 10:00:00.00	0.2144	1.7671	19.739	9.52816261094812	385.437086645017
21-04-2018 11:00:00.00	0.2147	1.7657	19.7396	9.52875771815521	385.994966388324
21-04-2018 12:00:00.00	0.2132	1.765	19.7462	9.53530389743326	383.307428918676
21-04-2018 13:00:00.00	0.2147	1.7648	19.749	9.5380810643997	386.006895841496
21-04-2018 14:00:00.00	0.2146	1.764	19.7538	9.54284192205645	385.837706520262
21-04-2018 15:00:00.00	0.2125	1.764	19.7525	9.54155252310775	382.062034648442
21-04-2018 16:00:00.00	0.214	1.7643	19.7583	9.54730522610967	384.754979309262
21-04-2018 17:00:00.00	0.2137	1.7638	19.7619	9.55087586935224	384.222200319179
21-04-2018 18:00:00.00	0.2143	1.7649	19.7606	9.54958647040353	385.286416942218
21-04-2018 19:00:00.00	0.2142	1.7644	19.7628	9.55176853016288	385.113240912388
21-04-2018 20:00:00.00	0.2129	1.7627	19.763	9.55196689923191	382.798299440581
21-04-2018 21:00:00.00	0.2146	1.7625	19.7642	9.5531571136461	385.857582411655
21-04-2018 22:00:00.00	0.215	1.7625	19.775	9.56386904337381	386.576795053615
21-04-2018 23:00:00.00	0.2135	1.7623	19.7692	9.55811634037189	383.882384335024
22-04-2018 00:00:00.00	0.2138	1.7623	19.7745	9.56337312070123	384.421797521443
22-04-2018 01:00:00.00	0.2129	1.7621	19.7767	9.56555518046058	382.806187277166
22-04-2018 02:00:00.00	0.214	1.7619	19.7747	9.56357148977026	384.786692148656
22-04-2018 03:00:00.00	0.2124	1.7618	19.7763	9.56515844232251	381.911093902336
22-04-2018 04:00:00.00	0.2136	1.7617	19.7766	9.56545599592606	384.070102719153
22-04-2018 05:00:00.00	0.2133	1.7614	19.7736	9.56248045989058	383.53462997647
22-04-2018 06:00:00.00	0.2123	1.7614	19.7734	9.56228209082155	381.736530445403
22-04-2018 07:00:00.00	0.2144	1.7614	19.7631	9.55206608376643	385.512539460643
22-04-2018 08:00:00.00	0.2152	1.7611	19.7706	9.55950492385511	386.955005925608
22-04-2018 09:00:00.00	0.2129	1.7612	19.7688	9.55771960223383	382.818019641567
22-04-2018 10:00:00.00	0.214	1.761	19.767	9.55593428061254	384.798585811253
22-04-2018 11:00:00.00	0.2127	1.7607	19.7621	9.55107423842127	382.464964941521
22-04-2018 12:00:00.00	0.2128	1.7608	19.7592	9.54819788692031	382.643465046598
22-04-2018 13:00:00.00	0.2134	1.7605	19.7603	9.54928891679998	383.726300652793
22-04-2018 14:00:00.00	0.2151	1.7606	19.7587	9.54770196424773	386.781835948184
22-04-2018 15:00:00.00	0.2139	1.7604	19.7567	9.54571827355741	384.62669919948
22-04-2018 16:00:00.00	0.2141	1.7601	19.7564	9.54542071995387	384.99029819054
22-04-2018 17:00:00.00	0.2138	1.7601	19.7565	9.54551990448838	384.450844246322
22-04-2018 18:00:00.00	0.2139	1.76	19.7535	9.54254436845291	384.631983255292
22-04-2018 19:00:00.00	0.2131	1.7598	19.7462	9.53530389743326	383.196066664104
22-04-2018 20:00:00.00	0.2149	1.7598	19.7466	9.53570063557132	386.432823679568
22-04-2018 21:00:00.00	0.2132	1.7596	19.7412	9.53034467070746	383.37851997046
22-04-2018 22:00:00.00	0.2132	1.7594	19.7367	9.52588136665425	383.381153478805
22-04-2018 23:00:00.00	0.2136	1.7594	19.746	9.53510552836422	384.100442697339
23-04-2018 00:00:00.00	0.2141	1.7591	19.7354	9.52459196770555	385.00352122674
23-04-2018 01:00:00.00	0.2144	1.759	19.7352	9.52439359863651	385.544317905746
23-04-2018 02:00:00.00	0.2143	1.759	19.7371	9.52627810479232	385.364493130604
23-04-2018 03:00:00.00	0.2145	1.759	19.7371	9.52627810479232	385.724142680889
23-04-2018 04:00:00.00	0.2143	1.7588	19.7372	9.52637728932683	385.367140335571
23-04-2018 05:00:00.00	0.2142	1.7584	19.7324	9.52161643167007	385.192606373582
23-04-2018 06:00:00.00	0.213	1.7583	19.7295	9.51874008016912	383.03598022405
23-04-2018 07:00:00.00	0.2135	1.7581	19.7272	9.51645883587525	383.937763167083
23-04-2018 08:00:00.00	0.2139	1.758	19.7245	9.51378085344332	384.658405712294
23-04-2018 09:00:00.00	0.2148	1.758	19.7237	9.5129873771672	386.276884277704
23-04-2018 10:00:00.00	0.2136	1.7578	19.7211	9.51040857926979	384.121551596426
23-04-2018 11:00:00.00	0.2143	1.7577	19.7219	9.51120205554592	385.381700613016
23-04-2018 12:00:00.00	0.2144	1.7577	19.7185	9.50782978137238	385.561533417782
23-04-2018 13:00:00.00	0.2129	1.7575	19.7153	9.50465587626787	382.866671492213
23-04-2018 14:00:00.00	0.2142	1.7572	19.7176	9.50693712056174	385.2084833914
23-04-2018 15:00:00.00	0.2121	1.7573	19.7234	9.51268982356365	381.430619469762
23-04-2018 16:00:00.00	0.2122	1.7571	19.7201	9.50941673392463	381.613076315548
23-04-2018 17:00:00.00	0.2146	1.757	19.7189	9.50822651951044	385.930478203111
23-04-2018 18:00:00.00	0.214	1.7568	19.7212	9.5105077638043	384.854099293221
23-04-2018 19:00:00.00	0.2139	1.7569	19.7154	9.50475506080238	384.672939611078
23-04-2018 20:00:00.00	0.2145	1.7565	19.7183	9.50763141230334	385.757266241662
23-04-2018 21:00:00.00	0.2145	1.7565	19.7162	9.50554853707851	385.757266241662
23-04-2018 22:00:00.00	0.2129	1.7563	19.7163	9.50564772161303	382.882453126618
23-04-2018 23:00:00.00	0.2145	1.7562	19.7174	9.5067387514927	385.761241451252
24-04-2018 00:00:00.00	0.2138	1.7562	19.7169	9.50624282882012	384.502346957006
24-04-2018 01:00:00.00	0.214	1.7559	19.7153	9.50465587626787	384.865997123324
24-04-2018 02:00:00.00	0.2133	1.7558	19.712	9.50138278662885	383.608407358246
24-04-2018 03:00:00.00	0.2144	1.7555	19.7122	9.50158115569788	385.590670863922
24-04-2018 04:00:00.00	0.2139	1.7555	19.7126	9.50197789383594	384.691438888959
24-04-2018 05:00:00.00	0.214	1.7554	19.7091	9.49850643512789	384.872607346815
24-04-2018 06:00:00.00	0.2137	1.7552	19.7107	9.50009338768014	384.335706754697
24-04-2018 07:00:00.00	0.2147	1.7551	19.7104	9.4997958340766	386.135515653047
24-04-2018 08:00:00.00	0.2143	1.7549	19.7116	9.50098604849079	385.418768102699
24-04-2018 09:00:00.00	0.2136	1.7547	19.7097	9.49910154233499	384.162456691573
24-04-2018 10:00:00.00	0.2135	1.7547	19.7098	9.4992007268695	383.982605354171
24-04-2018 11:00:00.00	0.2143	1.7546	19.708	9.49741540524822	385.42274004238
24-04-2018 12:00:00.00	0.2133	1.7542	19.7051	9.49453905374726	383.629491823836
24-04-2018 13:00:00.00	0.2141	1.7543	19.7021	9.49156351771179	385.067004446508
24-04-2018 14:00:00.00	0.2137	1.7541	19.7083	9.49771295885177	384.350229857445
24-04-2018 15:00:00.00	0.2146	1.754	19.7023	9.49176188678082	385.970251154044
24-04-2018 16:00:00.00	0.2147	1.7538	19.7049	9.49434068467822	386.152759873523
24-04-2018 17:00:00.00	0.2146	1.7536	19.7069	9.49632437536854	385.975554833565
24-04-2018 18:00:00.00	0.2143	1.7537	19.7054	9.49483660735081	385.43465635263
24-04-2018 19:00:00.00	0.2143	1.7533	19.7019	9.49136514864275	385.43995272704
24-04-2018 20:00:00.00	0.2133	1.7533	19.6969	9.48640592191696	383.641352854305
24-04-2018 21:00:00.00	0.2137	1.7532	19.7024	9.49186107131533	384.362113212467
24-04-2018 22:00:00.00	0.2133	1.7529	19.7028	9.4922578094534	383.64662465883
24-04-2018 23:00:00.00	0.2143	1.7528	19.698	9.48749695179664	385.446573399747
25-04-2018 00:00:00.00	0.2146	1.7527	19.6983	9.48779450540018	385.98748864543
25-04-2018 01:00:00.00	0.2145	1.7525	19.6973	9.48680266005502	385.810275773408
25-04-2018 02:00:00.00	0.2147	1.7523	19.6985	9.48799287446921	386.172658964953
25-04-2018 03:00:00.00	0.2145	1.7522	19.6942	9.48372793948503	385.8142520756
25-04-2018 04:00:00.00	0.2144	1.7521	19.6892	9.47876871275924	385.635710125767
25-04-2018 05:00:00.00	0.2133	1.7519	19.6939	9.48343038588149	383.659804804036
25-04-2018 06:00:00.00	0.214	1.7518	19.6958	9.48531489203729	384.920207659775
25-04-2018 07:00:00.00	0.2148	1.7514	19.6858	9.47539643858571	386.364471131973
25-04-2018 08:00:00.00	0.2142	1.7514	19.6855	9.47509888498216	385.285240765682
25-04-2018 09:00:00.00	0.2152	1.7512	19.6898	9.47936381996634	387.086617753692
25-04-2018 10:00:00.00	0.2145	1.7513	19.6885	9.47807442101764	385.826181473965
25-04-2018 11:00:00.00	0.2131	1.751	19.6864	9.4759915457928	383.311919309873
25-04-2018 12:00:00.00	0.215	1.751	19.684	9.47361111696442	386.729529101937
25-04-2018 13:00:00.00	0.2137	1.7507	19.6894	9.47896708182828	384.39512638784
25-04-2018 14:00:00.00	0.214	1.7509	19.6924	9.48194261786375	384.932109577796
25-04-2018 15:00:00.00	0.2147	1.7505	19.6893	9.47886789729376	386.19654058198
25-04-2018 16:00:00.00	0.2151	1.7507	19.6922	9.48174424879472	386.913391137223
25-04-2018 17:00:00.00	0.2131	1.7502	19.6893	9.47886789729376	383.32245484233
25-04-2018 18:00:00.00	0.2149	1.7499	19.6924	9.48194261786375	386.56426377253
25-04-2018 19:00:00.00	0.2138	1.7496	19.6889	9.4784711591557	384.589536833316
25-04-2018 20:00:00.00	0.2131	1.7496	19.696	9.48551326110632	383.330356871748
25-04-2018 21:00:00.00	0.2133	1.7495	19.6913	9.48085158798408	383.691440847704
25-04-2018 22:00:00.00	0.2138	1.7494	19.6877	9.47728094474151	384.592179568067
25-04-2018 23:00:00.00	0.2141	1.7489	19.6892	9.47876871275924	385.138448097845
26-04-2018 00:00:00.00	0.2142	1.7487	19.6954	9.48491815389922	385.320983082268
26-04-2018 01:00:00.00	0.2148	1.7488	19.6921	9.4816450642602	386.398985950907
26-04-2018 02:00:00.00	0.2136	1.7484	19.7005	9.48997656515953	384.245613249882
26-04-2018 03:00:00.00	0.2144	1.7485	19.6947	9.48422386215761	385.683410225665
26-04-2018 04:00:00.00	0.2149	1.7482	19.6999	9.48938145795244	386.586843289423
26-04-2018 05:00:00.00	0.2142	1.7481	19.7026	9.49205944038436	385.328926719882
26-04-2018 06:00:00.00	0.2138	1.748	19.7054	9.49483660735081	384.610679728319
26-04-2018 07:00:00.00	0.2151	1.7477	19.7071	9.49652274443758	386.953274015969
26-04-2018 08:00:00.00	0.2151	1.7476	19.7076	9.49701866711015	386.954603586866
26-04-2018 09:00:00.00	0.2138	1.7474	19.7106	9.49999420314563	384.618608913286
26-04-2018 10:00:00.00	0.2143	1.7474	19.7103	9.49969664954208	385.518091160511
26-04-2018 11:00:00.00	0.2144	1.7471	19.7218	9.5111028710114	385.701963451465
26-04-2018 12:00:00.00	0.2137	1.747	19.7187	9.50802815044141	384.443996296241
26-04-2018 13:00:00.00	0.2142	1.7467	19.7203	9.50961510299366	385.34746314809
26-04-2018 14:00:00.00	0.2132	1.7466	19.7232	9.51249145449462	383.549773300856
26-04-2018 15:00:00.00	0.2151	1.7465	19.7243	9.51358248437429	386.969229469785
26-04-2018 16:00:00.00	0.2128	1.7464	19.7257	9.51497106785751	382.832798638727
26-04-2018 17:00:00.00	0.2141	1.7461	19.7382	9.52736913467199	385.17550339209
26-04-2018 18:00:00.00	0.2143	1.7461	19.7347	9.52389767596394	385.535312363031
26-04-2018 19:00:00.00	0.215	1.7457	19.7364	9.52558381305071	386.799960211777
26-04-2018 20:00:00.00	0.2145	1.7458	19.7415	9.53064222431101	385.899099385264
26-04-2018 21:00:00.00	0.2145	1.7454	19.7457	9.53480797476067	385.904403581236
26-04-2018 22:00:00.00	0.2145	1.7453	19.7485	9.53758514172712	385.905729653012
26-04-2018 23:00:00.00	0.2126	1.7452	19.7539	9.54294110659097	382.488764797332
27-04-2018 00:00:00.00	0.2142	1.7448	19.7592	9.54819788692031	385.372622581958
27-04-2018 01:00:00.00	0.2145	1.7448	19.7624	9.55137179202482	385.912360148599
27-04-2018 02:00:00.00	0.2134	1.7448	19.7663	9.55523998887093	383.933322404247
27-04-2018 03:00:00.00	0.2137	1.7444	19.7663	9.55523998887093	384.478344747501
27-04-2018 04:00:00.00	0.213	1.7442	19.7788	9.56763805568541	383.221573568233
27-04-2018 05:00:00.00	0.2134	1.7439	19.7807	9.56952256184121	383.945196662973
27-04-2018 06:00:00.00	0.2141	1.7438	19.7819	9.5707127762554	385.205947004082
27-04-2018 07:00:00.00	0.2143	1.7436	19.7819	9.5707127762554	385.568434384889
27-04-2018 08:00:00.00	0.2139	1.7435	19.7764	9.56525762685703	384.850077145438
27-04-2018 09:00:00.00	0.2143	1.7434	19.7789	9.56773724021992	385.571084392496
27-04-2018 10:00:00.00	0.2146	1.743	19.7751	9.56396822790832	386.116155470588
27-04-2018 11:00:00.00	0.2143	1.743	19.7802	9.56902663916863	385.576384516994
27-04-2018 12:00:00.00	0.2134	1.7426	19.7802	9.56902663916863	383.962349666775
27-04-2018 13:00:00.00	0.215	1.7427	19.7754	9.56426578151187	386.839838249129
27-04-2018 14:00:00.00	0.2141	1.7425	19.7771	9.56595191859864	385.223156391875
27-04-2018 15:00:00.00	0.214	1.7423	19.7809	9.56972093091024	385.045876146971
27-04-2018 16:00:00.00	0.2148	1.7421	19.7746	9.56347230523574	386.487956410924
27-04-2018 17:00:00.00	0.2134	1.742	19.7694	9.55831470944092	383.970266954698
27-04-2018 18:00:00.00	0.2148	1.7416	19.7644	9.55335548271513	386.494597640411
27-04-2018 19:00:00.00	0.214	1.7416	19.7703	9.55920737025156	385.055139176201
27-04-2018 20:00:00.00	0.2132	1.7415	19.7713	9.56019921559672	383.616999091249
27-04-2018 21:00:00.00	0.2139	1.7411	19.7713	9.56019921559672	384.881820498568
27-04-2018 22:00:00.00	0.2139	1.741	19.7649	9.55385140538771	384.883143251922
27-04-2018 23:00:00.00	0.2129	1.7408	19.7645	9.55345466724965	383.086416234313
28-04-2018 00:00:00.00	0.2141	1.7407	19.7555	9.54452805914323	385.246987313678
28-04-2018 01:00:00.00	0.2137	1.7407	19.7542	9.54323866019452	384.527235819398
28-04-2018 02:00:00.00	0.214	1.7402	19.7521	9.54115578496969	385.073666571766
28-04-2018 03:00:00.00	0.215	1.74	19.7457	9.53480797476067	386.875735513753
28-04-2018 04:00:00.00	0.2142	1.74	19.7353	9.52449278317103	385.436197893237
28-04-2018 05:00:00.00	0.2144	1.7398	19.7319	9.52112050899749	385.798734198672
28-04-2018 06:00:00.00	0.2141	1.7396	19.7291	9.51834334203105	385.261552106328
28-04-2018 07:00:00.00	0.2133	1.7394	19.7205	9.50981347206269	383.824633062391
28-04-2018 08:00:00.00	0.214	1.7392	19.7145	9.50386239999174	385.086901517372
28-04-2018 09:00:00.00	0.2135	1.7391	19.7081	9.49751458978273	384.188486218367
28-04-2018 10:00:00.00	0.2134	1.739	19.7003	9.4897781960905	384.009858292445
28-04-2018 11:00:00.00	0.2135	1.7387	19.6933	9.48283527867439	384.193768117953
28-04-2018 12:00:00.00	0.2137	1.7384	19.6934	9.48293446320891	384.557633834334
28-04-2018 13:00:00.00	0.2139	1.7382	19.6916	9.48114914158763	384.920184037556
28-04-2018 14:00:00.00	0.2136	1.7381	19.6866	9.47618991486183	384.381645193391
28-04-2018 15:00:00.00	0.214	1.7379	19.6876	9.47718176020699	385.104108306823
28-04-2018 16:00:00.00	0.2137	1.7378	19.6873	9.47688420660345	384.565564541709
28-04-2018 17:00:00.00	0.2141	1.7376	19.6903	9.47985974263892	385.288036369175
28-04-2018 18:00:00.00	0.214	1.7375	19.6906	9.48015729624247	385.109403012941
28-04-2018 19:00:00.00	0.2147	1.7373	19.6994	9.48888553527986	386.371762735057
28-04-2018 20:00:00.00	0.214	1.7371	19.6961	9.48561244564084	385.114697864652
28-04-2018 21:00:00.00	0.2151	1.7371	19.704	9.49344802386758	387.094259395732
28-04-2018 22:00:00.00	0.2157	1.7367	19.7027	9.49215862491888	388.17935729124
28-04-2018 23:00:00.00	0.2139	1.7366	19.7082	9.49761377431725	384.941353401969
29-04-2018 00:00:00.00	0.2146	1.7364	19.7134	9.50277137011207	386.203751021028
29-04-2018 01:00:00.00	0.2132	1.7362	19.7161	9.505449352544	383.686886161721
29-04-2018 02:00:00.00	0.2144	1.736	19.715	9.50435832266432	385.84912723231
29-04-2018 03:00:00.00	0.2142	1.7359	19.718	9.5073338586998	385.490518417979
29-04-2018 04:00:00.00	0.2141	1.7355	19.723	9.51229308542559	385.315848764339
29-04-2018 05:00:00.00	0.2144	1.7354	19.7279	9.51715312761686	385.857085230539
29-04-2018 06:00:00.00	0.2141	1.7352	19.7331	9.52231072341169	385.319822291434
29-04-2018 07:00:00.00	0.2149	1.735	19.7353	9.52449278317103	386.76225639512
29-04-2018 08:00:00.00	0.2133	1.7349	19.7422	9.53133651605262	383.88400591113
29-04-2018 09:00:00.00	0.2132	1.7347	19.7481	9.53718840358906	383.706670144743
29-04-2018 10:00:00.00	0.2149	1.7347	19.742	9.53113814698359	386.766244906685
29-04-2018 11:00:00.00	0.2138	1.7343	19.7463	9.53540308196777	384.791810982343
29-04-2018 12:00:00.00	0.2148	1.7342	19.7526	9.54165170764227	386.592914529382
29-04-2018 13:00:00.00	0.2139	1.7341	19.7573	9.54631338076451	384.974435195799
29-04-2018 14:00:00.00	0.214	1.7339	19.7622	9.55117342295578	385.157061920423
29-04-2018 15:00:00.00	0.2143	1.7336	19.7594	9.54839625598934	385.700979403316
29-04-2018 16:00:00.00	0.2155	1.7337	19.7578	9.54680930343709	387.859427576719
29-04-2018 17:00:00.00	0.2139	1.7332	19.7573	9.54631338076451	384.986346033575
29-04-2018 18:00:00.00	0.2141	1.7333	19.7532	9.54224681484936	385.344989866291
29-04-2018 19:00:00.00	0.2139	1.7331	19.7497	9.53877535614131	384.98766950549
29-04-2018 20:00:00.00	0.2134	1.7328	19.7544	9.54343702926355	384.091706268549
29-04-2018 21:00:00.00	0.2154	1.7326	19.7567	9.54571827355741	387.694106686003
29-04-2018 22:00:00.00	0.215	1.7326	19.7556	9.54462724367774	386.974154770151
29-04-2018 23:00:00.00	0.2158	1.7323	19.7496	9.53867617160679	388.418064478227
30-04-2018 00:00:00.00	0.2142	1.7322	19.7531	9.54214763031485	385.539552524292
30-04-2018 01:00:00.00	0.2155	1.7319	19.7463	9.53540308196777	387.883428844153
30-04-2018 02:00:00.00	0.214	1.7319	19.7452	9.5343120520881	385.183544188625
30-04-2018 03:00:00.00	0.215	1.7316	19.7419	9.53103896244908	386.987458510445
30-04-2018 04:00:00.00	0.2143	1.7314	19.7423	9.53143570058714	385.730151537771
30-04-2018 05:00:00.00	0.2142	1.7313	19.7419	9.53103896244908	385.551481625565
30-04-2018 06:00:00.00	0.2143	1.7312	19.7392	9.52836098001715	385.732803768813
30-04-2018 07:00:00.00	0.214	1.7307	19.7316	9.52082295539395	385.199435297628
30-04-2018 08:00:00.00	0.2148	1.7307	19.7311	9.52032703272137	386.639433186591
30-04-2018 09:00:00.00	0.2127	1.7304	19.7299	9.51913681830718	382.863387575253
30-04-2018 10:00:00.00	0.2142	1.7302	19.7178	9.50713548963077	385.566062640769
30-04-2018 11:00:00.00	0.2135	1.7302	19.717	9.50634201335464	384.306042828217
30-04-2018 12:00:00.00	0.2141	1.7301	19.7158	9.50515179894045	385.387384793067
30-04-2018 13:00:00.00	0.2144	1.7299	19.7121	9.50148197116336	385.930048846612
30-04-2018 14:00:00.00	0.2147	1.7297	19.7182	9.50753222776883	386.472720363118
30-04-2018 15:00:00.00	0.214	1.7297	19.7133	9.50267218557756	385.212678890113
30-04-2018 16:00:00.00	0.2143	1.7295	19.7103	9.49969664954208	385.755349205345
30-04-2018 17:00:00.00	0.2143	1.7291	19.7101	9.49949828047305	385.760654396958
30-04-2018 18:00:00.00	0.2142	1.729	19.7044	9.49384476200565	385.581970460677
30-04-2018 19:00:00.00	0.2146	1.7288	19.6944	9.48392630855407	386.304667870872
30-04-2018 20:00:00.00	0.2146	1.7286	19.6987	9.48819124353825	386.307324289662
30-04-2018 21:00:00.00	0.2153	1.7286	19.6977	9.48719939819309	387.567413418286
30-04-2018 22:00:00.00	0.2153	1.7284	19.6893	9.47886789729376	387.570078538655
30-04-2018 23:00:00.00	0.2146	1.7283	19.6868	9.47638828393087	386.311308986348
01-05-2018 00:00:00.00	0.2146	1.7282	19.6759	9.46557716966864	386.312637236844
01-05-2018 01:00:00.00	0.2146	1.7279	19.671	9.46071712747737	386.316622043136
01-05-2018 02:00:00.00	0.2141	1.7277	19.6719	9.46160978828801	385.41918711043
01-05-2018 03:00:00.00	0.2147	1.7276	19.664	9.45377421006126	386.500625853785
01-05-2018 04:00:00.00	0.2141	1.7275	19.6617	9.4514929657674	385.421837540465
01-05-2018 05:00:00.00	0.2139	1.7271	19.6513	9.44117777417775	385.067094475789
01-05-2018 06:00:00.00	0.2149	1.7271	19.6449	9.43482996396874	386.867314646316
01-05-2018 07:00:00.00	0.214	1.7269	19.643	9.43294545781294	385.249765794246
01-05-2018 08:00:00.00	0.2143	1.7268	19.6429	9.43284627327843	385.79116208075
01-05-2018 09:00:00.00	0.2143	1.7268	19.6304	9.42044820646395	385.79116208075
01-05-2018 10:00:00.00	0.2147	1.7264	19.6264	9.41648082508332	386.516573657853
01-05-2018 11:00:00.00	0.214	1.7262	19.6132	9.40338846652723	385.259038636117
01-05-2018 12:00:00.00	0.2145	1.726	19.6167	9.40685992523529	386.161832232577
01-05-2018 13:00:00.00	0.2145	1.7261	19.6121	9.40229743664756	386.16050440015
01-05-2018 14:00:00.00	0.2145	1.7258	19.6035	9.3937675666792	386.164487924825
01-05-2018 15:00:00.00	0.2147	1.7259	19.6042	9.39446185842081	386.523218964647
01-05-2018 16:00:00.00	0.2145	1.7263	19.6095	9.39971863875015	386.157848762692
01-05-2018 17:00:00.00	0.2145	1.726	19.6086	9.3988259779395	386.161832232577
01-05-2018 18:00:00.00	0.2154	1.7252	19.6061	9.39634636457661	387.792759228658
01-05-2018 19:00:00.00	0.2138	1.7246	19.6065	9.39674310271467	384.920160393242
01-05-2018 20:00:00.00	0.2149	1.7243	19.6087	9.39892516247402	386.904564182975
01-05-2018 21:00:00.00	0.214	1.7243	19.6099	9.40011537688821	385.284210028649
01-05-2018 22:00:00.00	0.215	1.7241	19.609	9.39922271607757	387.08726572736
01-05-2018 23:00:00.00	0.214	1.7239	19.6121	9.40229743664756	385.289509688312
02-05-2018 00:00:00.00	0.2137	1.7238	19.6144	9.40457868094142	384.750707287747
02-05-2018 01:00:00.00	0.2145	1.7239	19.6171	9.40725666337335	386.189718823097
02-05-2018 02:00:00.00	0.2151	1.7237	19.6176	9.40775258604593	387.272633290247
02-05-2018 03:00:00.00	0.2154	1.7235	19.6247	9.41479468799655	387.815429742797
02-05-2018 04:00:00.00	0.2146	1.7234	19.6212	9.4113232292885	386.37640400381
02-05-2018 05:00:00.00	0.2136	1.7231	19.6314	9.42144005180911	384.579922324578
02-05-2018 06:00:00.00	0.2133	1.7231	19.6269	9.4169767477559	384.039781984235
02-05-2018 07:00:00.00	0.2147	1.723	19.6377	9.4276886774836	386.561766250583
02-05-2018 08:00:00.00	0.2135	1.7229	19.6335	9.42352292703394	384.402519383114
02-05-2018 09:00:00.00	0.2144	1.7229	19.6367	9.42669683213845	386.022951549132
02-05-2018 10:00:00.00	0.2148	1.7227	19.6371	9.42709357027651	386.745803596473
02-05-2018 11:00:00.00	0.2139	1.7226	19.6373	9.42729193934554	385.126684713186
02-05-2018 12:00:00.00	0.2145	1.7224	19.6388	9.42877970736328	386.20964028236
02-05-2018 13:00:00.00	0.2143	1.7223	19.6383	9.4282837846907	385.850864985633
02-05-2018 14:00:00.00	0.2136	1.722	19.6421	9.4320527970023	384.594470698259
02-05-2018 15:00:00.00	0.2137	1.7221	19.6431	9.43304464234746	384.773201045294
02-05-2018 16:00:00.00	0.2141	1.7219	19.6431	9.43304464234746	385.496064384073
02-05-2018 17:00:00.00	0.2138	1.7218	19.6396	9.42957318363941	384.957225634521
02-05-2018 18:00:00.00	0.2132	1.7218	19.6432	9.43314382688197	383.876896657062
02-05-2018 19:00:00.00	0.2142	1.7215	19.6367	9.42669683213845	385.681424082744
02-05-2018 20:00:00.00	0.2137	1.7213	19.6378	9.42778786201812	384.783787253062
02-05-2018 21:00:00.00	0.2136	1.7212	19.6349	9.42491151051716	384.605052025036
02-05-2018 22:00:00.00	0.2142	1.7211	19.6381	9.42808541562167	385.686729717024
02-05-2018 23:00:00.00	0.2149	1.7211	19.6377	9.4276886774836	386.947143866426
03-05-2018 00:00:00.00	0.2145	1.7209	19.6379	9.42788704655264	386.229563797012
03-05-2018 01:00:00.00	0.2148	1.7206	19.6439	9.43383811862358	386.773735528081
03-05-2018 02:00:00.00	0.2129	1.7206	19.6423	9.43225116607133	383.35255257881
03-05-2018 03:00:00.00	0.2142	1.7204	19.6433	9.43324301141649	385.696014928272
03-05-2018 04:00:00.00	0.2138	1.7205	19.6457	9.43562344024487	384.974436923118
03-05-2018 05:00:00.00	0.2136	1.7203	19.6434	9.43334219595101	384.616956713648
03-05-2018 06:00:00.00	0.2135	1.7201	19.6458	9.43572262477939	384.439536943208
03-05-2018 07:00:00.00	0.2133	1.7199	19.6493	9.43919408348744	384.082048136519
03-05-2018 08:00:00.00	0.214	1.7198	19.6466	9.43651610105551	385.343839607073
03-05-2018 09:00:00.00	0.2139	1.7198	19.6492	9.43909489895292	385.163772392304
03-05-2018 10:00:00.00	0.2136	1.7196	19.6551	9.44494678648936	384.626216425426
03-05-2018 11:00:00.00	0.2147	1.7195	19.6502	9.44008674429808	386.608299077443
03-05-2018 12:00:00.00	0.2136	1.7193	19.6573	9.4471288462487	384.63018500982
03-05-2018 13:00:00.00	0.2139	1.7192	19.6603	9.45010438228418	385.171720681463
03-05-2018 14:00:00.00	0.2144	1.719	19.6598	9.4496084596116	386.074731030702
03-05-2018 15:00:00.00	0.2127	1.7189	19.6713	9.46101468108091	383.014821485111
03-05-2018 16:00:00.00	0.2135	1.7189	19.6732	9.46289918723672	384.455403794411
03-05-2018 17:00:00.00	0.2147	1.7188	19.675	9.464684508858	386.617606987194
03-05-2018 18:00:00.00	0.2136	1.7184	19.6782	9.46785841396251	384.642091254391
03-05-2018 19:00:00.00	0.2139	1.7189	19.6807	9.4703380273254	385.175694949061
03-05-2018 20:00:00.00	0.2151	1.7187	19.677	9.46666819954832	387.339232834583
03-05-2018 21:00:00.00	0.2137	1.7182	19.6785	9.46815596756605	384.824814310772
03-05-2018 22:00:00.00	0.214	1.7179	19.6776	9.46726330675541	385.369022082347
03-05-2018 23:00:00.00	0.214	1.7179	19.6738	9.46349429444381	385.369022082347
04-05-2018 00:00:00.00	0.2141	1.7178	19.6795	9.46914781291121	385.550427168624
04-05-2018 01:00:00.00	0.2143	1.7176	19.6758	9.46547798513413	385.913241084882
04-05-2018 02:00:00.00	0.2149	1.7175	19.6758	9.46547798513413	386.995057214131
04-05-2018 03:00:00.00	0.2141	1.7174	19.6749	9.46458532432348	385.555731675829
04-05-2018 04:00:00.00	0.214	1.7172	19.677	9.46666819954832	385.378300666099
04-05-2018 05:00:00.00	0.2141	1.7173	19.6725	9.46220489549511	385.557057825437
04-05-2018 06:00:00.00	0.2142	1.7169	19.6653	9.45506360900997	385.742447691424
04-05-2018 07:00:00.00	0.2139	1.7169	19.6599	9.44970764414611	385.202192162445
04-05-2018 08:00:00.00	0.214	1.7167	19.6544	9.44425249474774	385.38492849948
04-05-2018 09:00:00.00	0.2144	1.7164	19.6502	9.44008674429808	386.109258402973
04-05-2018 10:00:00.00	0.2136	1.7164	19.6433	9.43324301141649	384.668552214902
04-05-2018 11:00:00.00	0.2146	1.7164	19.6437	9.43363974955455	386.469434949991
04-05-2018 12:00:00.00	0.2146	1.7162	19.6371	9.42709357027651	386.472093635309
04-05-2018 13:00:00.00	0.2134	1.7162	19.6249	9.41499305706558	384.31101948637
04-05-2018 14:00:00.00	0.214	1.7161	19.6243	9.41439794985849	385.392882200469
04-05-2018 15:00:00.00	0.2158	1.7181	19.6124	9.40259499025111	388.607770523906
04-05-2018 16:00:00.00	0.2146	1.7162	19.6131	9.40328928199272	386.472093635309
04-05-2018 17:00:00.00	0.2137	1.7121	19.6017	9.39198224505792	384.905570523805
04-05-2018 18:00:00.00	0.2148	1.7147	19.5936	9.38394829776213	386.852232550709
04-05-2018 19:00:00.00	0.2141	1.7151	19.5887	9.37908825557086	385.586235425052
04-05-2018 20:00:00.00	0.2151	1.7143	19.5847	9.37512087419023	387.397859384591
04-05-2018 21:00:00.00	0.2144	1.7132	19.572	9.36252443830672	386.15176210919
04-05-2018 22:00:00.00	0.2145	1.7143	19.5741	9.36460731353155	386.317251687562
04-05-2018 23:00:00.00	0.2134	1.7121	19.5661	9.35667255077029	384.36522578278
05-05-2018 00:00:00.00	0.2145	1.7123	19.5688	9.35935053320221	386.343831637086
05-05-2018 01:00:00.00	0.2154	1.7123	19.5671	9.35766439611545	387.964854706892
05-05-2018 02:00:00.00	0.2138	1.7113	19.5636	9.35419293740739	385.096283887505
05-05-2018 03:00:00.00	0.213	1.7109	19.5637	9.35429212194191	383.660604534915
05-05-2018 04:00:00.00	0.2138	1.7107	19.5682	9.35875542599512	385.104233107879
05-05-2018 05:00:00.00	0.2141	1.7106	19.5787	9.36916980211928	385.64593063568
05-05-2018 06:00:00.00	0.2143	1.7105	19.584	9.37442658244862	386.007507062469
05-05-2018 07:00:00.00	0.2137	1.7105	19.59	9.38037765451956	384.926758092626
05-05-2018 08:00:00.00	0.2141	1.7103	19.5926	9.38295645241698	385.649910973592
05-05-2018 09:00:00.00	0.2152	1.7101	19.5996	9.38989936983308	387.63396495634
05-05-2018 10:00:00.00	0.2142	1.7102	19.6042	9.39446185842081	385.831364458576
05-05-2018 11:00:00.00	0.2151	1.7099	19.6112	9.40140477583692	387.456503684376
05-05-2018 12:00:00.00	0.2145	1.7098	19.6197	9.40983546127076	386.377061717908
05-05-2018 13:00:00.00	0.2141	1.7098	19.6257	9.41578653334171	385.6565450527
05-05-2018 14:00:00.00	0.2149	1.7098	19.6327	9.42272945075781	387.097578383117
05-05-2018 15:00:00.00	0.2133	1.7095	19.6378	9.42778786201812	384.21947740567
05-05-2018 16:00:00.00	0.2142	1.7094	19.6428	9.43274708874391	385.841984125575
05-05-2018 17:00:00.00	0.214	1.7093	19.6485	9.43840060721131	385.483047095058
05-05-2018 18:00:00.00	0.2129	1.7091	19.655	9.44484760195484	383.504231092841
05-05-2018 19:00:00.00	0.2143	1.709	19.661	9.45079867402579	386.027428302566
05-05-2018 20:00:00.00	0.2147	1.7091	19.6642	9.45397257913029	386.746634173945
05-05-2018 21:00:00.00	0.2132	1.7089	19.66	9.44980682868063	384.047274274008
05-05-2018 22:00:00.00	0.2138	1.7089	19.6653	9.45506360900997	385.128082738194
05-05-2018 23:00:00.00	0.212	1.7088	19.6683	9.45803914504544	381.886971255872
06-05-2018 00:00:00.00	0.2136	1.7087	19.6728	9.46250244909865	384.77046091232
06-05-2018 01:00:00.00	0.2129	1.7084	19.6808	9.47043721185992	383.513467573495
06-05-2018 02:00:00.00	0.2141	1.7083	19.6847	9.47430540870603	385.676448659556
06-05-2018 03:00:00.00	0.2138	1.7084	19.6844	9.47400785510249	385.134708159761
06-05-2018 04:00:00.00	0.2151	1.7083	19.6847	9.47430540870603	387.477833286644
06-05-2018 05:00:00.00	0.2147	1.7082	19.6851	9.47470214684409	386.758610134747
06-05-2018 06:00:00.00	0.2144	1.7079	19.6874	9.47698339113796	386.222179460766
06-05-2018 07:00:00.00	0.2136	1.7081	19.6843	9.47390867056797	384.778404117518
06-05-2018 08:00:00.00	0.2139	1.7077	19.68	9.46964373558379	385.324126314473
06-05-2018 09:00:00.00	0.2144	1.7077	19.6787	9.46835433663508	386.224837222174
06-05-2018 10:00:00.00	0.2149	1.7075	19.6778	9.46746167582444	387.128212126084
06-05-2018 11:00:00.00	0.2137	1.7076	19.6748	9.46448613978897	384.965166507072
06-05-2018 12:00:00.00	0.2136	1.7075	19.671	9.46071712747737	384.786347650682
06-05-2018 13:00:00.00	0.2129	1.7074	19.6685	9.45823751411447	383.526663317669
06-05-2018 14:00:00.00	0.2143	1.7074	19.6649	9.4546668708719	386.048679891857
06-05-2018 15:00:00.00	0.2138	1.7072	19.6623	9.45208807297449	385.150610101625
06-05-2018 16:00:00.00	0.2154	1.7069	19.6625	9.45228644204353	388.036940035809
06-05-2018 17:00:00.00	0.2146	1.707	19.6639	9.45367502552675	386.594432715905
06-05-2018 18:00:00.00	0.215	1.7067	19.6622	9.45198888843998	387.319016857511
06-05-2018 19:00:00.00	0.2155	1.7069	19.6638	9.45357584099223	388.217087176029
06-05-2018 20:00:00.00	0.2138	1.7069	19.6536	9.44345901847162	385.154585792274
06-05-2018 21:00:00.00	0.2151	1.7072	19.659	9.44881498333547	387.492498750512
06-05-2018 22:00:00.00	0.2148	1.7063	19.6595	9.44931090600805	386.964046013916
06-05-2018 23:00:00.00	0.2122	1.7059	19.6704	9.46012202027027	382.28538526395
07-05-2018 00:00:00.00	0.214	1.7059	19.6702	9.45992365120124	385.528145365153
07-05-2018 01:00:00.00	0.2145	1.7057	19.6787	9.46835433663508	386.431571426958
07-05-2018 02:00:00.00	0.2138	1.7058	19.6854	9.47499970044765	385.169164026901
07-05-2018 03:00:00.00	0.2144	1.7056	19.6851	9.47470214684409	386.252745925538
07-05-2018 04:00:00.00	0.2133	1.7055	19.6935	9.48303364774343	384.272361007759
07-05-2018 05:00:00.00	0.2138	1.7055	19.6986	9.48809205900373	385.173140100604
07-05-2018 06:00:00.00	0.2134	1.7055	19.6979	9.48739776726212	384.452516826328
07-05-2018 07:00:00.00	0.2144	1.7054	19.7009	9.49037330329759	386.255404107646
07-05-2018 08:00:00.00	0.213	1.7053	19.7029	9.49235699398791	383.734534394802
07-05-2018 09:00:00.00	0.2131	1.7053	19.7044	9.49384476200565	383.914691453203
07-05-2018 10:00:00.00	0.2127	1.7049	19.7021	9.49156351771179	383.199337574997
07-05-2018 11:00:00.00	0.2149	1.7051	19.7076	9.49701866711015	387.160182940663
07-05-2018 12:00:00.00	0.2136	1.705	19.7056	9.49503497641984	384.819449236171
07-05-2018 13:00:00.00	0.2136	1.705	19.7044	9.49384476200565	384.819449236171
07-05-2018 14:00:00.00	0.2139	1.7048	19.7033	9.49275373212597	385.362578083214
07-05-2018 15:00:00.00	0.213	1.7048	19.7021	9.49156351771179	383.741136660704
07-05-2018 16:00:00.00	0.2139	1.7047	19.7037	9.49315047026404	385.363904143152
07-05-2018 17:00:00.00	0.2139	1.7045	19.7038	9.49324965479855	385.366556290406
07-05-2018 18:00:00.00	0.2138	1.7043	19.7021	9.49156351771179	385.189045216347
07-05-2018 19:00:00.00	0.2146	1.7044	19.6985	9.48799287446921	386.629020842727
07-05-2018 20:00:00.00	0.2137	1.7043	19.6913	9.48085158798408	385.008881958529
07-05-2018 21:00:00.00	0.2141	1.704	19.6806	9.47023884279088	385.733517053709
07-05-2018 22:00:00.00	0.2136	1.7039	19.6835	9.47311519429184	384.83401573809
07-05-2018 23:00:00.00	0.2132	1.7047	19.6771	9.46676738408283	384.102778697148
08-05-2018 00:00:00.00	0.2136	1.7037	19.6705	9.46022120480479	384.836664311464
08-05-2018 01:00:00.00	0.2132	1.7036	19.6709	9.46061794294285	384.117318221163
08-05-2018 02:00:00.00	0.2138	1.7036	19.6563	9.44613700090355	385.198323807152
08-05-2018 03:00:00.00	0.2137	1.7036	19.6496	9.43949163709098	385.018156209487
08-05-2018 04:00:00.00	0.213	1.7035	19.653	9.44286391126452	383.758303615337
08-05-2018 05:00:00.00	0.2144	1.7035	19.6437	9.43363974955455	386.280658662574
08-05-2018 06:00:00.00	0.2131	1.7032	19.6388	9.42877970736328	383.942435516048
08-05-2018 07:00:00.00	0.2135	1.7032	19.6369	9.42689520120748	384.663115826731
08-05-2018 08:00:00.00	0.214	1.7031	19.6326	9.4226302662233	385.565293041064
08-05-2018 09:00:00.00	0.2138	1.7028	19.6299	9.41995228379137	385.208928458306
08-05-2018 10:00:00.00	0.2137	1.7029	19.634	9.42401884970652	385.02743090726
08-05-2018 11:00:00.00	0.2133	1.7028	19.6326	9.4226302662233	384.308065669582
08-05-2018 12:00:00.00	0.2135	1.7027	19.6359	9.42590335586232	384.669734547434
08-05-2018 13:00:00.00	0.2141	1.7025	19.6397	9.42967236817392	385.753428606563
08-05-2018 14:00:00.00	0.214	1.7024	19.6364	9.4263992785349	385.574581078623
08-05-2018 15:00:00.00	0.2132	1.7025	19.6472	9.43711120826261	384.131858845956
08-05-2018 16:00:00.00	0.2137	1.7023	19.653	9.44286391126452	385.03538100386
08-05-2018 17:00:00.00	0.2141	1.7022	19.6596	9.44941009054257	385.757411163816
08-05-2018 18:00:00.00	0.2134	1.7021	19.6646	9.45436931726836	384.497500414902
08-05-2018 19:00:00.00	0.2143	1.702	19.6627	9.45248481111256	386.120421283866
08-05-2018 20:00:00.00	0.214	1.702	19.6703	9.46002283573576	385.579888729572
08-05-2018 21:00:00.00	0.2138	1.7018	19.6787	9.46835433663508	385.222185093386
08-05-2018 22:00:00.00	0.2147	1.7016	19.6812	9.47083394999798	386.846456515287
08-05-2018 23:00:00.00	0.2134	1.7017	19.6832	9.4728176406883	384.502793293875
09-05-2018 00:00:00.00	0.2146	1.7014	19.6905	9.48005811170795	386.668937911239
09-05-2018 01:00:00.00	0.2131	1.7014	19.6937	9.48323201681246	383.966219333108
09-05-2018 02:00:00.00	0.2133	1.7013	19.7022	9.4916627022463	384.327904459939
09-05-2018 03:00:00.00	0.2133	1.7015	19.7039	9.49334883933307	384.325259169549
09-05-2018 04:00:00.00	0.2148	1.7011	19.7082	9.49761377431725	387.033296269069
09-05-2018 05:00:00.00	0.2137	1.7012	19.7161	9.505449352544	385.049957033686
09-05-2018 06:00:00.00	0.2148	1.7011	19.719	9.50832570404496	387.033296269069
09-05-2018 07:00:00.00	0.213	1.7009	19.7194	9.50872244218302	383.792642132875
09-05-2018 08:00:00.00	0.2134	1.7009	19.7277	9.51695475854783	384.513379488993
09-05-2018 09:00:00.00	0.215	1.7007	19.7315	9.52072377085943	387.398995396925
09-05-2018 10:00:00.00	0.2127	1.7011	19.7332	9.5224099079462	383.249451193813
09-05-2018 11:00:00.00	0.2139	1.701	19.742	9.53113814698359	385.412974777342
09-05-2018 12:00:00.00	0.2134	1.7003	19.7447	9.53381612941552	384.521319517882
09-05-2018 13:00:00.00	0.2147	1.7005	19.7458	9.53490715929519	386.861101458603
09-05-2018 14:00:00.00	0.2135	1.7002	19.7513	9.54036230869356	384.702831567803
09-05-2018 15:00:00.00	0.2132	1.7002	19.7488	9.53788269533067	384.162265528129
09-05-2018 16:00:00.00	0.2129	1.6999	19.7474	9.53649411184744	383.62566035103
09-05-2018 17:00:00.00	0.2126	1.7001	19.7583	9.54730522610967	383.082451866798
09-05-2018 18:00:00.00	0.2135	1.7001	19.7649	9.55385140538771	384.704155567081
09-05-2018 19:00:00.00	0.2138	1.6999	19.762	9.55097505388675	385.247375213951
09-05-2018 20:00:00.00	0.2138	1.6999	19.7591	9.54809870238579	385.247375213951
09-05-2018 21:00:00.00	0.2137	1.6998	19.7556	9.54462724367774	385.068509940552
09-05-2018 22:00:00.00	0.2134	1.6996	19.7529	9.54194926124581	384.530583299379
09-05-2018 23:00:00.00	0.2143	1.6996	19.7495	9.53857698707228	386.152314906546
10-05-2018 00:00:00.00	0.2133	1.6997	19.7564	9.54542071995387	384.349068094059
10-05-2018 01:00:00.00	0.2137	1.6994	19.7489	9.53798187986518	385.073811099474
10-05-2018 02:00:00.00	0.2133	1.6995	19.7492	9.53827943346873	384.351713712211
10-05-2018 03:00:00.00	0.2138	1.6991	19.7476	9.53669248091648	385.257982566121
10-05-2018 04:00:00.00	0.2136	1.699	19.7448	9.53391531395003	384.898916282503
10-05-2018 05:00:00.00	0.2136	1.699	19.7442	9.53332020674294	384.898916282503
10-05-2018 06:00:00.00	0.2149	1.6991	19.7386	9.52776587281006	387.240133084469
10-05-2018 07:00:00.00	0.214	1.6989	19.7383	9.52746831920651	385.621027979526
10-05-2018 08:00:00.00	0.2133	1.6989	19.7399	9.52905527175876	384.359650785201
10-05-2018 09:00:00.00	0.214	1.6989	19.734	9.52320338422233	385.621027979526
10-05-2018 10:00:00.00	0.2135	1.6988	19.7373	9.52647647386135	384.721368387054
10-05-2018 11:00:00.00	0.2135	1.6988	19.7372	9.52637728932683	384.721368387054
10-05-2018 12:00:00.00	0.2143	1.6988	19.7361	9.52528625944716	386.162947284992
10-05-2018 13:00:00.00	0.2132	1.6986	19.7379	9.52707158106844	384.18342084198
10-05-2018 14:00:00.00	0.2134	1.6985	19.735	9.52419522956748	384.545141572168
10-05-2018 15:00:00.00	0.2139	1.6986	19.735	9.52419522956748	385.444811060504
10-05-2018 16:00:00.00	0.2148	1.6983	19.7365	9.52568299758522	387.070595135276
10-05-2018 17:00:00.00	0.2142	1.6983	19.7406	9.52974956350037	385.989392355568
10-05-2018 18:00:00.00	0.2137	1.6982	19.7447	9.53381612941552	385.089715452038
10-05-2018 19:00:00.00	0.2139	1.6982	19.7445	9.53361776034648	385.450117619049
10-05-2018 20:00:00.00	0.2148	1.6982	19.7414	9.53054303977649	387.071927370602
10-05-2018 21:00:00.00	0.2128	1.6981	19.7372	9.52637728932683	383.46922554047
10-05-2018 22:00:00.00	0.2133	1.698	19.7413	9.53044385524198	384.371557009348
10-05-2018 23:00:00.00	0.2135	1.698	19.7404	9.52955119443134	384.73196165727
11-05-2018 00:00:00.00	0.2143	1.6978	19.7366	9.52578218211974	386.176238581446
11-05-2018 01:00:00.00	0.2137	1.6978	19.7403	9.52945200989682	385.095017194844
11-05-2018 02:00:00.00	0.2141	1.6977	19.7373	9.52647647386135	385.817159392061
11-05-2018 03:00:00.00	0.2143	1.6976	19.7353	9.52449278317103	386.178896950531
11-05-2018 04:00:00.00	0.2138	1.6978	19.7392	9.52836098001715	385.275220759278
11-05-2018 05:00:00.00	0.2132	1.6975	19.7387	9.52786505734457	384.19796647188
11-05-2018 06:00:00.00	0.2143	1.6974	19.7317	9.52092213992846	386.181555356216
11-05-2018 07:00:00.00	0.2148	1.6975	19.7373	9.52647647386135	387.08125327467
11-05-2018 08:00:00.00	0.214	1.6973	19.7337	9.52290583061878	385.642264575714
11-05-2018 09:00:00.00	0.2131	1.6972	19.7332	9.5224099079462	384.021726367058
11-05-2018 10:00:00.00	0.2146	1.6971	19.7354	9.52459196770555	386.726166752034
11-05-2018 11:00:00.00	0.2133	1.6971	19.7344	9.52360012236039	384.38346397115
11-05-2018 12:00:00.00	0.2136	1.697	19.7319	9.52112050899749	384.925412591927
11-05-2018 13:00:00.00	0.2139	1.6969	19.7261	9.51536780599558	385.467364943471
11-05-2018 14:00:00.00	0.2144	1.6969	19.7301	9.51933518737621	386.368410677327
11-05-2018 15:00:00.00	0.214	1.6968	19.7275	9.5167563894788	385.648901491719
11-05-2018 16:00:00.00	0.2142	1.6968	19.7316	9.52082295539395	386.009321025823
11-05-2018 17:00:00.00	0.2129	1.6965	19.7318	9.52102132446298	383.670555843844
11-05-2018 18:00:00.00	0.214	1.6966	19.739	9.52816261094812	385.651556322085
11-05-2018 19:00:00.00	0.2142	1.6967	19.7395	9.5286585336207	386.010649677008
11-05-2018 20:00:00.00	0.2144	1.6963	19.7463	9.53540308196777	386.376390110257
11-05-2018 21:00:00.00	0.2142	1.6965	19.7398	9.52895608722424	386.013307006817
11-05-2018 22:00:00.00	0.213	1.6961	19.7455	9.53460960569164	383.856052466526
11-05-2018 23:00:00.00	0.2141	1.6961	19.7409	9.53004711710392	385.838407667058
12-05-2018 00:00:00.00	0.2139	1.6961	19.7399	9.52905527175876	385.477979448779
12-05-2018 01:00:00.00	0.2139	1.6959	19.7394	9.52855934908618	385.480633166447
12-05-2018 02:00:00.00	0.2137	1.6959	19.7431	9.53222917686326	385.120202466899
12-05-2018 03:00:00.00	0.215	1.6958	19.7466	9.53570063557132	387.464335710058
12-05-2018 04:00:00.00	0.2137	1.6957	19.7429	9.53203080779423	385.122853739802
12-05-2018 05:00:00.00	0.2141	1.6957	19.7437	9.53282428407036	385.843720101505
12-05-2018 06:00:00.00	0.2149	1.6957	19.7429	9.53203080779423	387.28545282491
12-05-2018 07:00:00.00	0.2133	1.6954	19.7531	9.54214763031485	384.405956911859
12-05-2018 08:00:00.00	0.214	1.6956	19.7481	9.53718840358906	385.664831022216
12-05-2018 09:00:00.00	0.2146	1.6956	19.7497	9.53877535614131	386.746134286764
12-05-2018 10:00:00.00	0.215	1.6952	19.7516	9.54065986229711	387.472338079455
12-05-2018 11:00:00.00	0.2134	1.6952	19.7542	9.54323866019452	384.588823005375
12-05-2018 12:00:00.00	0.2126	1.6951	19.7554	9.54442887460871	383.148384340217
12-05-2018 13:00:00.00	0.214	1.695	19.7598	9.5487929941274	385.672796280961
12-05-2018 14:00:00.00	0.2138	1.695	19.7677	9.55662857235416	385.312354415278
12-05-2018 15:00:00.00	0.2145	1.6949	19.771	9.55990166199317	386.575231622092
12-05-2018 16:00:00.00	0.2138	1.6948	19.7731	9.56198453721801	385.315007093184
12-05-2018 17:00:00.00	0.2127	1.6947	19.7769	9.56575354952961	383.333882712483
12-05-2018 18:00:00.00	0.2147	1.6948	19.7871	9.57587037205022	386.937006655317
12-05-2018 19:00:00.00	0.2143	1.6945	19.7917	9.58043286063794	386.220106352005
12-05-2018 20:00:00.00	0.2139	1.6946	19.7879	9.57666384832635	385.497883221932
12-05-2018 21:00:00.00	0.2137	1.6944	19.7944	9.58311084306987	385.140087903494
12-05-2018 22:00:00.00	0.2143	1.6943	19.7904	9.57914346168924	386.222765325082
12-05-2018 23:00:00.00	0.2152	1.6942	19.799	9.5876733316576	387.846127888079
13-05-2018 00:00:00.00	0.2138	1.694	19.7995	9.58816925433018	385.325618170067
13-05-2018 01:00:00.00	0.2145	1.694	19.8012	9.58985539141695	386.587208126658
13-05-2018 02:00:00.00	0.214	1.694	19.8048	9.59342603465952	385.686072443379
13-05-2018 03:00:00.00	0.2156	1.6938	19.8113	9.59987302940304	388.572381825064
13-05-2018 04:00:00.00	0.2144	1.6937	19.8095	9.59808770778176	386.410971461874
13-05-2018 05:00:00.00	0.2122	1.6938	19.8127	9.60126161288627	382.444616991088
13-05-2018 06:00:00.00	0.213	1.6934	19.8135	9.60205508916239	383.891729988076
13-05-2018 07:00:00.00	0.214	1.6934	19.8192	9.60770860762979	385.694038579569
13-05-2018 08:00:00.00	0.2139	1.6933	19.8187	9.60721268495722	385.515134821347
13-05-2018 09:00:00.00	0.2133	1.6934	19.8141	9.60265019636949	384.432422565523
13-05-2018 10:00:00.00	0.2134	1.6933	19.8132	9.60175753555884	384.613977423448
13-05-2018 11:00:00.00	0.2138	1.6931	19.8133	9.60185672009336	385.33755633016
13-05-2018 12:00:00.00	0.2146	1.6933	19.814	9.60255101183497	386.776755178406
13-05-2018 13:00:00.00	0.2142	1.6929	19.817	9.60552654787045	386.061145200462
13-05-2018 14:00:00.00	0.2144	1.6927	19.8201	9.60860126844044	386.424273630056
13-05-2018 15:00:00.00	0.2135	1.6926	19.8194	9.60790697669883	384.803481492827
13-05-2018 16:00:00.00	0.2138	1.6928	19.8174	9.60592328600851	385.341535881245
13-05-2018 17:00:00.00	0.2145	1.6924	19.8157	9.60423714892174	386.608501522751
13-05-2018 18:00:00.00	0.2132	1.6924	19.8204	9.60889882204398	384.26541969534
13-05-2018 19:00:00.00	0.2145	1.6921	19.8158	9.60433633345625	386.612494295663
13-05-2018 20:00:00.00	0.2154	1.692	19.8192	9.60770860762979	388.235981148385
13-05-2018 21:00:00.00	0.2138	1.6922	19.811	9.5995754757995	385.349495230011
13-05-2018 22:00:00.00	0.2132	1.6919	19.8112	9.59977384486853	384.272034031362
13-05-2018 23:00:00.00	0.2129	1.6919	19.8124	9.60096405928272	383.731313533194
14-05-2018 00:00:00.00	0.2138	1.6915	19.8097	9.59828607685079	385.358781552489
14-05-2018 01:00:00.00	0.2143	1.6915	19.8094	9.59798852324724	386.25999479279
14-05-2018 02:00:00.00	0.214	1.6921	19.8089	9.59749260057467	385.711299670266
14-05-2018 03:00:00.00	0.2145	1.6914	19.8109	9.59947629126498	386.621811086525
14-05-2018 04:00:00.00	0.2137	1.6911	19.8068	9.59540972534983	385.183843093298
14-05-2018 05:00:00.00	0.2137	1.6911	19.8097	9.59828607685079	385.183843093298
14-05-2018 06:00:00.00	0.214	1.6909	19.8083	9.59689749336757	385.727234356097
14-05-2018 07:00:00.00	0.2146	1.6915	19.8122	9.60076569021369	386.80072273697
14-05-2018 08:00:00.00	0.2143	1.6906	19.8097	9.59828607685079	386.271962931735
14-05-2018 09:00:00.00	0.2146	1.6904	19.8087	9.59729423150564	386.815371040658
14-05-2018 10:00:00.00	0.2143	1.6904	19.806	9.59461624907371	386.274622618886
14-05-2018 11:00:00.00	0.2141	1.6904	19.8028	9.5914423439692	385.914123671039
14-05-2018 12:00:00.00	0.2147	1.6901	19.8065	9.59511217174629	386.999617560741
14-05-2018 13:00:00.00	0.2149	1.6899	19.8079	9.59650075522951	387.362787457572
14-05-2018 14:00:00.00	0.2148	1.6899	19.81	9.59858363045434	387.182534880811
14-05-2018 15:00:00.00	0.2144	1.6895	19.8064	9.59501298721177	386.466846723445
14-05-2018 16:00:00.00	0.2133	1.6895	19.811	9.5995754757995	384.484041073278
14-05-2018 17:00:00.00	0.2144	1.6893	19.8101	9.59868281498885	386.469507853253
14-05-2018 18:00:00.00	0.214	1.6891	19.8117	9.60026976754111	385.751138853628
14-05-2018 19:00:00.00	0.2142	1.689	19.8137	9.60225345823143	386.112983292412
14-05-2018 20:00:00.00	0.2132	1.6888	19.8129	9.6014599819553	384.313047997599
14-05-2018 21:00:00.00	0.2148	1.6889	19.8143	9.60284856543852	387.195865353828
14-05-2018 22:00:00.00	0.2134	1.6887	19.8089	9.59749260057467	384.674891222539
14-05-2018 23:00:00.00	0.2148	1.6884	19.8131	9.60165835102433	387.202530934562
15-05-2018 00:00:00.00	0.2148	1.6883	19.8095	9.59808770778176	387.203864078248
15-05-2018 01:00:00.00	0.2135	1.6882	19.8073	9.59590564802241	384.861776577482
15-05-2018 02:00:00.00	0.2146	1.688	19.8079	9.59650075522951	386.847334827364
15-05-2018 03:00:00.00	0.2135	1.6877	19.8131	9.60165835102433	384.868402136537
15-05-2018 04:00:00.00	0.2138	1.6875	19.8142	9.602749380904	385.411854839618
15-05-2018 05:00:00.00	0.2144	1.6874	19.8129	9.6014599819553	386.494790414367
15-05-2018 06:00:00.00	0.2137	1.6871	19.809	9.59759178510918	385.236893017768
15-05-2018 07:00:00.00	0.2147	1.6872	19.8125	9.60106324381723	387.038259930785
15-05-2018 08:00:00.00	0.2144	1.687	19.8166	9.60512980973238	386.500113480327
15-05-2018 09:00:00.00	0.2132	1.6871	19.808	9.59659993976402	384.33554324468
15-05-2018 10:00:00.00	0.215	1.6865	19.8169	9.60542736333593	387.588409592254
15-05-2018 11:00:00.00	0.2135	1.6863	19.8147	9.60324530357658	384.886954915568
15-05-2018 12:00:00.00	0.2137	1.6861	19.8168	9.60532817880141	385.250157782204
15-05-2018 13:00:00.00	0.2137	1.6858	19.815	9.60354285718013	385.254137389666
15-05-2018 14:00:00.00	0.2134	1.6858	19.8185	9.60701431588818	384.713303317523
15-05-2018 15:00:00.00	0.2133	1.6856	19.8178	9.60632002414657	384.535673444734
15-05-2018 16:00:00.00	0.2139	1.6854	19.8231	9.61157680447591	385.620004675034
15-05-2018 17:00:00.00	0.2137	1.685	19.8209	9.60939474471656	385.264750078198
15-05-2018 18:00:00.00	0.2132	1.6849	19.8258	9.61425478690784	384.36465865038
15-05-2018 19:00:00.00	0.2145	1.6847	19.8258	9.61425478690784	386.711008807871
15-05-2018 20:00:00.00	0.2144	1.6847	19.8234	9.61187435807946	386.530723955279
15-05-2018 21:00:00.00	0.2137	1.6846	19.824	9.61246946528655	385.270056641729
15-05-2018 22:00:00.00	0.2148	1.6843	19.8151	9.60364204171465	387.257197354399
15-05-2018 23:00:00.00	0.2139	1.6841	19.8169	9.60542736333593	385.637267206656
16-05-2018 00:00:00.00	0.2139	1.6839	19.8185	9.60701431588818	385.639923117931
16-05-2018 01:00:00.00	0.2141	1.6837	19.8216	9.61008903645817	386.003161187402
16-05-2018 02:00:00.00	0.2133	1.6834	19.8212	9.60969229832011	384.56480551604
16-05-2018 03:00:00.00	0.2135	1.6831	19.8218	9.6102874055272	384.929367985102
16-05-2018 04:00:00.00	0.215	1.6831	19.8169	9.60542736333593	387.633789774224
16-05-2018 05:00:00.00	0.2142	1.6828	19.8117	9.60026976754111	386.195421229584
16-05-2018 06:00:00.00	0.2145	1.6827	19.8179	9.60641920868109	386.737642970551
16-05-2018 07:00:00.00	0.2139	1.6824	19.8079	9.59650075522951	385.65984361863
16-05-2018 08:00:00.00	0.2146	1.6823	19.8101	9.59868281498885	386.923269996374
16-05-2018 09:00:00.00	0.2147	1.6821	19.8038	9.59243418931436	387.106235924465
16-05-2018 10:00:00.00	0.2148	1.6818	19.8037	9.59233500477984	387.290538113518
16-05-2018 11:00:00.00	0.2149	1.6816	19.8012	9.58985539141695	387.473509721709
16-05-2018 12:00:00.00	0.2141	1.6816	19.8017	9.59035131408953	386.031076926095
16-05-2018 13:00:00.00	0.2148	1.6814	19.795	9.58370595027697	387.295873167742
16-05-2018 14:00:00.00	0.2153	1.681	19.7945	9.58321002760439	388.202747494578
16-05-2018 15:00:00.00	0.2143	1.6808	19.7927	9.58142470598311	386.402330689425
16-05-2018 16:00:00.00	0.215	1.6806	19.7917	9.58043286063794	387.66716433514
16-05-2018 17:00:00.00	0.2131	1.6804	19.7811	9.56991929997927	384.243915080183
16-05-2018 18:00:00.00	0.2142	1.6804	19.7724	9.5612902454764	386.227342140663
16-05-2018 19:00:00.00	0.2136	1.6801	19.7731	9.56198453721801	385.149452142034
16-05-2018 20:00:00.00	0.2135	1.6799	19.7707	9.55960410838963	384.971790403182
16-05-2018 21:00:00.00	0.2146	1.6796	19.7689	9.55781878676834	386.959249692867
16-05-2018 22:00:00.00	0.2142	1.6795	19.7627	9.55166934562836	386.239313842794
16-05-2018 23:00:00.00	0.215	1.6794	19.7618	9.55077668481772	387.683186165791
17-05-2018 00:00:00.00	0.2136	1.6791	19.755	9.54403213647064	385.162717092881
17-05-2018 01:00:00.00	0.2143	1.6788	19.7556	9.54462724367774	386.42894716703
17-05-2018 02:00:00.00	0.2128	1.6787	19.7496	9.53867617160679	383.725446462664
17-05-2018 03:00:00.00	0.2142	1.6784	19.7464	9.53550226650229	386.253946931088
17-05-2018 04:00:00.00	0.2138	1.6781	19.7396	9.52875771815521	385.536634626913
17-05-2018 05:00:00.00	0.215	1.678	19.7368	9.52598055118877	387.701879975432
17-05-2018 06:00:00.00	0.2149	1.6779	19.7356	9.52479033677458	387.522888239643
17-05-2018 07:00:00.00	0.2139	1.6778	19.7365	9.52568299758522	385.720945989005
17-05-2018 08:00:00.00	0.2131	1.6774	19.7291	9.51834334203105	384.283618694426
17-05-2018 09:00:00.00	0.2133	1.6771	19.7343	9.52350093782587	384.648253598648
17-05-2018 10:00:00.00	0.2141	1.6771	19.7196	9.50892081125205	386.0909099647
17-05-2018 11:00:00.00	0.2144	1.6769	19.7252	9.51447514518494	386.634569505399
17-05-2018 12:00:00.00	0.2148	1.6767	19.7144	9.50376321545723	387.358571066692
17-05-2018 13:00:00.00	0.2144	1.6764	19.7161	9.505449352544	386.641228174517
17-05-2018 14:00:00.00	0.2138	1.6763	19.7118	9.50118441755982	385.560537846491
17-05-2018 15:00:00.00	0.2149	1.6761	19.7104	9.4997958340766	387.546914772194
17-05-2018 16:00:00.00	0.215	1.676	19.7061	9.49553089909242	387.728588545307
17-05-2018 17:00:00.00	0.2132	1.6757	19.7095	9.49890317326595	384.486461793452
17-05-2018 18:00:00.00	0.2135	1.6757	19.7063	9.49572926816145	385.02748401924
17-05-2018 19:00:00.00	0.2139	1.6755	19.7006	9.49007574969405	385.751504435376
17-05-2018 20:00:00.00	0.2142	1.675	19.701	9.49047248783211	386.299183487603
17-05-2018 21:00:00.00	0.2143	1.675	19.7023	9.49176188678082	386.479528577934
17-05-2018 22:00:00.00	0.2135	1.6748	19.6999	9.48938145795244	385.039420462109
17-05-2018 23:00:00.00	0.2142	1.6747	19.6994	9.48888553527986	386.303175457189
18-05-2018 00:00:00.00	0.2136	1.6745	19.6968	9.48630673738245	385.223747637326
18-05-2018 01:00:00.00	0.2142	1.6744	19.7007	9.49017493422856	386.30716750928
18-05-2018 02:00:00.00	0.215	1.6742	19.7018	9.49126596410824	387.752629404685
18-05-2018 03:00:00.00	0.2142	1.6738	19.7019	9.49136514864275	386.315151860991
18-05-2018 04:00:00.00	0.2153	1.6738	19.6993	9.48878635074534	388.29902985841
18-05-2018 05:00:00.00	0.2135	1.6735	19.6993	9.48878635074534	385.056663297346
18-05-2018 06:00:00.00	0.2158	1.6732	19.7042	9.49364639293662	389.208836909089
18-05-2018 07:00:00.00	0.2134	1.6733	19.7011	9.49057167236663	384.878960526695
18-05-2018 08:00:00.00	0.2127	1.6731	19.6988	9.48829042807276	383.619113942289
18-05-2018 09:00:00.00	0.2141	1.6729	19.7029	9.49235699398791	386.146770870624
18-05-2018 10:00:00.00	0.2139	1.6729	19.6975	9.48700102912406	385.786054597041
18-05-2018 11:00:00.00	0.2144	1.6724	19.6975	9.48700102912406	386.694505785303
18-05-2018 12:00:00.00	0.2141	1.6722	19.6998	9.48928227341792	386.156082593177
18-05-2018 13:00:00.00	0.2148	1.6722	19.7029	9.49235699398791	387.418619995396
18-05-2018 14:00:00.00	0.2127	1.672	19.7034	9.49285291666049	383.633650965884
18-05-2018 15:00:00.00	0.2133	1.6718	19.706	9.4954317145579	384.718484007886
18-05-2018 16:00:00.00	0.2143	1.6718	19.7041	9.4935472084021	386.52213372194
18-05-2018 17:00:00.00	0.2159	1.6713	19.7064	9.49582845269596	389.414680875751
18-05-2018 18:00:00.00	0.2138	1.6714	19.7098	9.4992007268695	385.625622741191
18-05-2018 19:00:00.00	0.214	1.6713	19.7048	9.49424150014371	385.987687389582
18-05-2018 20:00:00.00	0.2139	1.6708	19.7071	9.49652274443758	385.813965015349
18-05-2018 21:00:00.00	0.2141	1.6708	19.7085	9.4979113279208	386.17470738563
18-05-2018 22:00:00.00	0.2137	1.6705	19.7106	9.49999420314563	385.45720644895
18-05-2018 23:00:00.00	0.2139	1.6704	19.7162	9.50554853707851	385.819281743385
19-05-2018 00:00:00.00	0.2132	1.6703	19.7206	9.50991265659721	384.557990903111
19-05-2018 01:00:00.00	0.2137	1.67	19.7193	9.5086232576485	385.463846305085
19-05-2018 02:00:00.00	0.2146	1.6696	19.7268	9.51606209773719	387.092566134386
19-05-2018 03:00:00.00	0.2139	1.6695	19.7267	9.51596291320267	385.831244917251
19-05-2018 04:00:00.00	0.2143	1.6695	19.7278	9.51705394308235	386.552761971794
19-05-2018 05:00:00.00	0.2136	1.6694	19.7322	9.52141806260104	385.291434549321
19-05-2018 06:00:00.00	0.2152	1.6691	19.7401	9.52925364082779	388.181524864695
19-05-2018 07:00:00.00	0.2136	1.6689	19.7379	9.52707158106844	385.298071801414
19-05-2018 08:00:00.00	0.2144	1.669	19.7343	9.52350093782587	386.73980330024
19-05-2018 09:00:00.00	0.2145	1.6687	19.7369	9.52607973572328	386.924184884678
19-05-2018 10:00:00.00	0.2134	1.6685	19.7358	9.52498870584361	384.942610811025
19-05-2018 11:00:00.00	0.214	1.6683	19.74	9.52915445629327	386.027583691186
19-05-2018 12:00:00.00	0.2142	1.6683	19.7461	9.53520471289874	386.388357133888
19-05-2018 13:00:00.00	0.215	1.668	19.7501	9.53917209427937	387.835459633725
19-05-2018 14:00:00.00	0.2151	1.6678	19.7538	9.54284192205645	388.018521994697
19-05-2018 15:00:00.00	0.214	1.6677	19.752	9.54105660043517	386.035563941226
19-05-2018 16:00:00.00	0.2147	1.6675	19.7564	9.54542071995387	387.300965952421
19-05-2018 17:00:00.00	0.2142	1.6673	19.7601	9.54909054773095	386.401670164395
19-05-2018 18:00:00.00	0.2138	1.6673	19.7577	9.54671011890257	385.680098418057
19-05-2018 19:00:00.00	0.2147	1.667	19.7659	9.55484325073287	387.307638258634
19-05-2018 20:00:00.00	0.2129	1.6669	19.7727	9.56158779907994	384.0618551371
19-05-2018 21:00:00.00	0.2149	1.6667	19.7677	9.55662857235416	387.672435084575
19-05-2018 22:00:00.00	0.2144	1.6666	19.7666	9.55553754247448	386.771784406624
19-05-2018 23:00:00.00	0.2138	1.6664	19.7724	9.5612902454764	385.692058553611
20-05-2018 00:00:00.00	0.2136	1.6664	19.7726	9.56148861454543	385.331261492288
20-05-2018 01:00:00.00	0.2151	1.6662	19.7784	9.56724131754735	388.039913522121
20-05-2018 02:00:00.00	0.2154	1.666	19.7728	9.56168698361446	388.583790679978
20-05-2018 03:00:00.00	0.2138	1.6658	19.7778	9.56664621034025	385.700032389422
20-05-2018 04:00:00.00	0.2147	1.6654	19.78	9.5688282700996	387.328991183512
20-05-2018 05:00:00.00	0.2147	1.6655	19.7758	9.56466251964993	387.327656556729
20-05-2018 06:00:00.00	0.2151	1.6652	19.7829	9.57170462160056	388.053284424548
20-05-2018 07:00:00.00	0.2146	1.665	19.7811	9.56991929997927	387.153922549371
20-05-2018 08:00:00.00	0.2144	1.6649	19.786	9.57477934217055	386.79444089071
20-05-2018 09:00:00.00	0.2144	1.6648	19.7883	9.57706058646441	386.795773707731
20-05-2018 10:00:00.00	0.2143	1.6645	19.7834	9.57220054427314	386.619361872385
20-05-2018 11:00:00.00	0.2145	1.6645	19.7858	9.57458097310151	386.98018255542
20-05-2018 12:00:00.00	0.2146	1.6644	19.7868	9.57557281844667	387.161926994034
20-05-2018 13:00:00.00	0.2146	1.6641	19.7878	9.57656466379183	387.165929340486
20-05-2018 14:00:00.00	0.213	1.6641	19.7892	9.57795324727505	384.279324089112
20-05-2018 15:00:00.00	0.2141	1.6639	19.794	9.58271410493181	386.266527259511
20-05-2018 16:00:00.00	0.2147	1.6637	19.7977	9.58638393270889	387.351681246119
20-05-2018 17:00:00.00	0.2147	1.6634	19.7892	9.57795324727505	387.355685650776
20-05-2018 18:00:00.00	0.2147	1.6635	19.7937	9.58241655132826	387.354350840024
20-05-2018 19:00:00.00	0.2134	1.6632	19.795	9.58370595027697	385.012915794103
20-05-2018 20:00:00.00	0.2135	1.6632	19.7988	9.58747496258857	385.193334217624
20-05-2018 21:00:00.00	0.2153	1.663	19.7908	9.5795401998273	388.443542987602
20-05-2018 22:00:00.00	0.2154	1.6627	19.7918	9.58053204517246	388.627980308866
20-05-2018 23:00:00.00	0.2143	1.6627	19.7937	9.58241655132826	386.643343454921
21-05-2018 00:00:00.00	0.2144	1.6625	19.7955	9.58420187294955	386.826431034522
21-05-2018 01:00:00.00	0.2154	1.6624	19.7903	9.57904427715472	388.631998046231
21-05-2018 02:00:00.00	0.2145	1.6621	19.7954	9.58410268841503	387.012188502324
21-05-2018 03:00:00.00	0.2132	1.662	19.7926	9.58132552144859	384.667985700166
21-05-2018 04:00:00.00	0.2139	1.6618	19.7924	9.58112715237956	385.93362684978
21-05-2018 05:00:00.00	0.2141	1.6617	19.7929	9.58162307505214	386.295812342294
21-05-2018 06:00:00.00	0.2149	1.6616	19.7932	9.58192062865568	387.740570560701
21-05-2018 07:00:00.00	0.2139	1.6615	19.7964	9.58509453376019	385.937616855965
21-05-2018 08:00:00.00	0.214	1.6614	19.79	9.57874672355118	386.119376491544
21-05-2018 09:00:00.00	0.2141	1.6611	19.7922	9.58092878331053	386.303799953741
21-05-2018 10:00:00.00	0.2144	1.661	19.7798	9.56862990103057	386.846427561653
21-05-2018 11:00:00.00	0.215	1.6607	19.7822	9.57101032985894	387.933030922394
21-05-2018 12:00:00.00	0.2148	1.6606	19.7827	9.57150625253152	387.573498676855
21-05-2018 13:00:00.00	0.2147	1.6606	19.7784	9.56724131754735	387.393064087155
21-05-2018 14:00:00.00	0.2135	1.6604	19.78	9.5688282700996	385.230504251032
21-05-2018 15:00:00.00	0.2149	1.6606	19.7841	9.57289483601474	387.753933266556
21-05-2018 16:00:00.00	0.214	1.6611	19.7768	9.56565436499509	386.123368473146
21-05-2018 17:00:00.00	0.215	1.6601	19.7637	9.55266119097352	387.941052663792
21-05-2018 18:00:00.00	0.2141	1.6588	19.7719	9.56079432280382	386.334422191309
21-05-2018 19:00:00.00	0.2143	1.6585	19.7817	9.57051440718637	386.69931205236
21-05-2018 20:00:00.00	0.2149	1.6584	19.7764	9.56525762685703	387.783334461736
21-05-2018 21:00:00.00	0.2146	1.6582	19.7797	9.56853071649605	387.244658974056
21-05-2018 22:00:00.00	0.2128	1.6579	19.7841	9.57289483601474	384.000538178198
21-05-2018 23:00:00.00	0.2143	1.6579	19.7847	9.57348994322184	386.70730888904
22-05-2018 00:00:00.00	0.2134	1.6577	19.7843	9.57309320508378	385.085900953127
22-05-2018 01:00:00.00	0.2131	1.6581	19.7871	9.57587037205022	384.53924159803
22-05-2018 02:00:00.00	0.2148	1.6579	19.7903	9.57904427715472	387.609565792655
22-05-2018 03:00:00.00	0.2142	1.6577	19.7933	9.5820198131902	386.52952195014
22-05-2018 04:00:00.00	0.2143	1.6575	19.8015	9.5901529450205	386.712640297244
22-05-2018 05:00:00.00	0.2149	1.6573	19.803	9.59164071303823	387.798036731385
22-05-2018 06:00:00.00	0.2144	1.6575	19.7977	9.58638393270889	386.893094165791
22-05-2018 07:00:00.00	0.2145	1.6574	19.7995	9.58816925433018	387.074882153293
22-05-2018 08:00:00.00	0.2142	1.6574	19.802	9.59064886769307	386.53351868175
22-05-2018 09:00:00.00	0.2142	1.6572	19.7998	9.58846680793373	386.536183215408
22-05-2018 10:00:00.00	0.2142	1.6571	19.7944	9.58311084306987	386.537515496013
22-05-2018 11:00:00.00	0.2123	1.6569	19.7945	9.58321002760439	383.111485676927
22-05-2018 12:00:00.00	0.2134	1.6569	19.7902	9.57894509262021	385.09651928147
22-05-2018 13:00:00.00	0.2148	1.6567	19.7921	9.58082959877601	387.625597776689
22-05-2018 14:00:00.00	0.2147	1.6566	19.7931	9.58182144412117	387.446474368819
22-05-2018 15:00:00.00	0.2146	1.6565	19.797	9.58568964096728	387.267349726147
22-05-2018 16:00:00.00	0.2146	1.6565	19.7911	9.57983775343085	387.267349726147
22-05-2018 17:00:00.00	0.2143	1.656	19.798	9.58668148631244	386.732634387335
22-05-2018 18:00:00.00	0.2139	1.6562	19.7983	9.58697903991599	386.008120571396
22-05-2018 19:00:00.00	0.2148	1.6559	19.7971	9.5857888255018	387.636286502846
22-05-2018 20:00:00.00	0.2152	1.6558	19.7918	9.58053204517246	388.359480405333
22-05-2018 21:00:00.00	0.2147	1.6556	19.7932	9.58192062865568	387.45982924048
22-05-2018 22:00:00.00	0.2136	1.6554	19.7979	9.58658230177793	385.477364087016
22-05-2018 23:00:00.00	0.2141	1.6553	19.7958	9.58449942655309	386.381030564653
23-05-2018 00:00:00.00	0.2154	1.6552	19.7932	9.58192062865568	388.728448671025
23-05-2018 01:00:00.00	0.2142	1.6551	19.7912	9.57993693796537	386.564163036883
23-05-2018 02:00:00.00	0.2138	1.6549	19.7998	9.58846680793373	385.844947828728
23-05-2018 03:00:00.00	0.2143	1.6549	19.7917	9.58043286063794	386.747298034127
23-05-2018 04:00:00.00	0.2147	1.6547	19.7957	9.58440024201858	387.471849412161
23-05-2018 05:00:00.00	0.2151	1.6542	19.7909	9.57963938436182	388.200425190457
23-05-2018 06:00:00.00	0.2135	1.6542	19.7905	9.57924264622376	385.312834858962
23-05-2018 07:00:00.00	0.2154	1.6542	19.7875	9.57626711018828	388.741848377613
23-05-2018 08:00:00.00	0.2146	1.6539	19.786	9.57477934217055	387.302058373278
23-05-2018 09:00:00.00	0.2144	1.6538	19.7793	9.56813397835799	386.942439677135
23-05-2018 10:00:00.00	0.2152	1.6535	19.7749	9.56376985883929	388.390271220759
23-05-2018 11:00:00.00	0.2139	1.6535	19.7745	9.56337312070123	386.044047463385
23-05-2018 12:00:00.00	0.2143	1.6532	19.7681	9.55702531049222	386.769962221075
23-05-2018 13:00:00.00	0.2145	1.6531	19.7695	9.55841389397544	387.13225796956
23-05-2018 14:00:00.00	0.2151	1.653	19.7665	9.55543835793996	388.216483661067
23-05-2018 15:00:00.00	0.2133	1.6526	19.7642	9.5531571136461	384.973118480431
23-05-2018 16:00:00.00	0.2138	1.6525	19.765	9.55395058992223	385.876870444728
23-05-2018 17:00:00.00	0.2157	1.6521	19.7605	9.54948728586901	389.311453151294
23-05-2018 18:00:00.00	0.2146	1.6522	19.7583	9.54730522610967	387.324755852746
23-05-2018 19:00:00.00	0.2137	1.6521	19.7576	9.54661093436806	385.701703933387
23-05-2018 20:00:00.00	0.2149	1.6519	19.7516	9.54065986229711	387.87022768235
23-05-2018 21:00:00.00	0.2145	1.6518	19.7489	9.53798187986518	387.149607495274
23-05-2018 22:00:00.00	0.2137	1.6516	19.7536	9.54264355298742	385.708352215655
23-05-2018 23:00:00.00	0.2144	1.6515	19.7537	9.54274273752194	386.973120258666
24-05-2018 00:00:00.00	0.214	1.651	19.7521	9.54115578496969	386.257813372859
24-05-2018 01:00:00.00	0.2137	1.6509	19.7472	9.53629574277841	385.717660195881
24-05-2018 02:00:00.00	0.2144	1.6507	19.7531	9.54214763031485	386.983792905768
24-05-2018 03:00:00.00	0.2151	1.6504	19.7456	9.53470879022616	388.251281572175
24-05-2018 04:00:00.00	0.214	1.6504	19.7484	9.5374859571926	386.265803144796
24-05-2018 05:00:00.00	0.2142	1.6502	19.7518	9.54085823136614	386.629465042361
24-05-2018 06:00:00.00	0.2145	1.6501	19.7499	9.53897372521034	387.172297683116
24-05-2018 07:00:00.00	0.2151	1.6499	19.7568	9.54581745809193	388.257974193354
24-05-2018 08:00:00.00	0.2147	1.6498	19.7542	9.54323866019452	387.537305655095
24-05-2018 09:00:00.00	0.2141	1.6495	19.751	9.54006475509001	386.458292061928
24-05-2018 10:00:00.00	0.2144	1.6493	19.752	9.54105660043517	387.002471454822
24-05-2018 11:00:00.00	0.2145	1.6491	19.752	9.54105660043517	387.185646094883
24-05-2018 12:00:00.00	0.215	1.6489	19.7561	9.54512316635032	388.090852754558
24-05-2018 13:00:00.00	0.2143	1.6488	19.7548	9.54383376740161	386.828634806476
24-05-2018 14:00:00.00	0.2141	1.6484	19.7624	9.55137179202482	386.472948590397
24-05-2018 15:00:00.00	0.2137	1.6482	19.7678	9.55672775688867	385.753566613937
24-05-2018 16:00:00.00	0.2161	1.6483	19.7731	9.56198453721801	390.084503206265
24-05-2018 17:00:00.00	0.2154	1.648	19.7698	9.55871144757898	388.824947181904
24-05-2018 18:00:00.00	0.2147	1.6478	19.7743	9.5631747516322	387.564028844873
24-05-2018 19:00:00.00	0.2163	1.6475	19.7714	9.56029840013124	390.456295024661
24-05-2018 20:00:00.00	0.2141	1.6476	19.778	9.56684457940928	386.48360858211
24-05-2018 21:00:00.00	0.2144	1.6474	19.7826	9.57140706799701	387.027823798507
24-05-2018 22:00:00.00	0.2138	1.6471	19.7732	9.56208372175252	385.948715647338
24-05-2018 23:00:00.00	0.2134	1.6469	19.7813	9.5701176690483	385.229297810932
25-05-2018 00:00:00.00	0.2144	1.6469	19.7828	9.57160543706604	387.03449601998
25-05-2018 01:00:00.00	0.214	1.6464	19.7844	9.57319238961829	386.319076739288
25-05-2018 02:00:00.00	0.2139	1.6461	19.7859	9.57468015763603	386.142548050873
25-05-2018 03:00:00.00	0.2143	1.6461	19.7872	9.57596955658473	386.864647252464
25-05-2018 04:00:00.00	0.2138	1.6458	19.7934	9.58211899772471	385.966015710369
25-05-2018 05:00:00.00	0.2143	1.6458	19.7908	9.5795401998273	386.868649049262
25-05-2018 06:00:00.00	0.2145	1.6454	19.7919	9.58063122970698	387.235043222471
25-05-2018 07:00:00.00	0.2145	1.6453	19.7866	9.57537444937764	387.236378454904
25-05-2018 08:00:00.00	0.2144	1.6451	19.7874	9.57616792565377	387.058517922245
25-05-2018 09:00:00.00	0.2138	1.6447	19.7866	9.57537444937764	385.980655436676
25-05-2018 10:00:00.00	0.2138	1.6445	19.7867	9.57547363391216	385.983317324413
25-05-2018 11:00:00.00	0.2133	1.6444	19.7849	9.57368831229087	385.081971368388
25-05-2018 12:00:00.00	0.2137	1.6444	19.786	9.57477934217055	385.804112899318
25-05-2018 13:00:00.00	0.2142	1.6442	19.7873	9.57606874111925	386.70945673604
25-05-2018 14:00:00.00	0.2138	1.6439	19.7862	9.57497771123958	385.991303207922
25-05-2018 15:00:00.00	0.2146	1.6436	19.7857	9.574481788567	387.439619178268
25-05-2018 16:00:00.00	0.2151	1.6436	19.7884	9.57715977099893	388.342320993688
25-05-2018 17:00:00.00	0.2137	1.6433	19.7917	9.58043286063794	385.818747191101
25-05-2018 18:00:00.00	0.214	1.6432	19.7868	9.57557281844667	386.361706196404
25-05-2018 19:00:00.00	0.2153	1.6429	19.7838	9.5725972824112	388.712784564885
25-05-2018 20:00:00.00	0.216	1.6426	19.7844	9.57319238961829	389.980632045221
25-05-2018 21:00:00.00	0.2144	1.6425	19.7831	9.57190299066959	387.093221490354
25-05-2018 22:00:00.00	0.2139	1.6423	19.778	9.56684457940928	386.193148969647
25-05-2018 23:00:00.00	0.2137	1.6422	19.7755	9.56436496604639	385.83338259314
26-05-2018 00:00:00.00	0.2151	1.6419	19.7735	9.56238127535607	388.365087520537
26-05-2018 01:00:00.00	0.2141	1.6416	19.7683	9.55722367956125	386.563577268372
26-05-2018 02:00:00.00	0.2149	1.6416	19.7697	9.55861226304447	388.007999789692
26-05-2018 03:00:00.00	0.2145	1.641	19.7672	9.55613264968157	387.293802161659
26-05-2018 04:00:00.00	0.2145	1.6411	19.761	9.54998320854159	387.292466533191
26-05-2018 05:00:00.00	0.2145	1.6408	19.7587	9.54770196424773	387.296473446232
26-05-2018 06:00:00.00	0.2149	1.6407	19.7526	9.54165170764227	388.020042778984
26-05-2018 07:00:00.00	0.2151	1.6405	19.7475	9.53659329638196	388.383838429434
26-05-2018 08:00:00.00	0.2158	1.6401	19.7388	9.52796424187909	389.653131252021
26-05-2018 09:00:00.00	0.2136	1.64	19.7383	9.52746831920651	385.682093950425
26-05-2018 10:00:00.00	0.215	1.6397	19.7313	9.5205254017904	388.213989401252
26-05-2018 11:00:00.00	0.2144	1.6395	19.7271	9.51635965134074	387.133271802496
26-05-2018 12:00:00.00	0.2149	1.6393	19.7228	9.51209471635656	388.038777803886
26-05-2018 13:00:00.00	0.2127	1.6391	19.7148	9.50415995359529	384.0689499647
26-05-2018 14:00:00.00	0.2142	1.6389	19.7144	9.50376321545723	386.780143603053
26-05-2018 15:00:00.00	0.2145	1.6386	19.7059	9.49533253002338	387.325860008769
26-05-2018 16:00:00.00	0.2151	1.6384	19.7069	9.49632437536854	388.411968187994
26-05-2018 17:00:00.00	0.2138	1.6381	19.7011	9.49057167236663	386.068517121841
26-05-2018 18:00:00.00	0.2137	1.6379	19.6942	9.48372793948503	385.89060436554
26-05-2018 19:00:00.00	0.2148	1.6377	19.689	9.47857034369021	387.87961437471
26-05-2018 20:00:00.00	0.2142	1.6375	19.6841	9.47371030149894	386.7988199205
26-05-2018 21:00:00.00	0.2158	1.6373	19.6813	9.4709331345325	389.690761600392
26-05-2018 22:00:00.00	0.2139	1.637	19.6734	9.46309755630575	386.263746086574
26-05-2018 23:00:00.00	0.213	1.6368	19.6755	9.46518043153058	384.641166269577
27-05-2018 00:00:00.00	0.2132	1.6367	19.6733	9.46299837177123	385.003659611475
27-05-2018 01:00:00.00	0.2137	1.6362	19.6809	9.47053639639443	385.913231608508
27-05-2018 02:00:00.00	0.2141	1.6361	19.6776	9.46726330675541	386.636910974422
27-05-2018 03:00:00.00	0.2141	1.6359	19.6847	9.47430540870603	386.639578178929
27-05-2018 04:00:00.00	0.2161	1.6356	19.6804	9.47004047372185	390.255382689015
27-05-2018 05:00:00.00	0.2151	1.6352	19.6816	9.47123068813604	388.454840418201
27-05-2018 06:00:00.00	0.215	1.6351	19.6841	9.47371030149894	388.275587031603
27-05-2018 07:00:00.00	0.215	1.6348	19.6856	9.47519806951668	388.279604947354
27-05-2018 08:00:00.00	0.2144	1.6345	19.6942	9.48372793948503	387.200040742691
27-05-2018 09:00:00.00	0.2137	1.6343	19.6896	9.47916545089731	385.938524020465
27-05-2018 10:00:00.00	0.2148	1.6341	19.6927	9.4822401714673	387.927781355956
27-05-2018 11:00:00.00	0.2139	1.6336	19.6889	9.4784711591557	386.309048394573
27-05-2018 12:00:00.00	0.2145	1.6335	19.698	9.48749695179664	387.394000558245
27-05-2018 13:00:00.00	0.2128	1.6333	19.7028	9.4922578094534	384.326396560943
27-05-2018 14:00:00.00	0.2138	1.6331	19.703	9.49245617852243	386.135105639286
27-05-2018 15:00:00.00	0.2144	1.6326	19.708	9.49741540524822	387.225418979168
27-05-2018 16:00:00.00	0.2139	1.6326	19.7117	9.5010852330253	386.322374625205
27-05-2018 17:00:00.00	0.2146	1.6322	19.714	9.50336647731916	387.591984915628
27-05-2018 18:00:00.00	0.2147	1.6321	19.7161	9.505449352544	387.773933973423
27-05-2018 19:00:00.00	0.2144	1.6318	19.7243	9.51358248437429	387.236105547703
27-05-2018 20:00:00.00	0.2148	1.6315	19.722	9.51130124008043	387.962576060668
27-05-2018 21:00:00.00	0.214	1.6312	19.726	9.51526862146106	386.521650486461
27-05-2018 22:00:00.00	0.2136	1.631	19.7327	9.52191398527362	385.801841987053
27-05-2018 23:00:00.00	0.2133	1.6308	19.7333	9.52250909248072	385.262643640833
28-05-2018 00:00:00.00	0.2138	1.6305	19.7386	9.52776587281006	386.169740746985
28-05-2018 01:00:00.00	0.2153	1.6302	19.7383	9.52746831920651	388.883094877974
28-05-2018 02:00:00.00	0.215	1.6301	19.7424	9.53153488512165	388.342563152313
28-05-2018 03:00:00.00	0.2153	1.6295	19.7455	9.53460960569164	388.892486400278
28-05-2018 04:00:00.00	0.214	1.6294	19.7425	9.53163406965617	386.545653552425
28-05-2018 05:00:00.00	0.2145	1.6291	19.7496	9.53867617160679	387.452807751282
28-05-2018 06:00:00.00	0.2155	1.6289	19.7472	9.53629574277841	389.261800489545
28-05-2018 07:00:00.00	0.2138	1.6287	19.75	9.53907290974485	386.193722538452
28-05-2018 08:00:00.00	0.2139	1.6285	19.7464	9.53550226650229	386.377021784601
28-05-2018 09:00:00.00	0.2145	1.6283	19.7496	9.53867617160679	387.46350188646
28-05-2018 10:00:00.00	0.2142	1.6278	19.7508	9.53986638602098	386.928269676648
28-05-2018 11:00:00.00	0.2134	1.6276	19.7538	9.54284192205645	385.485819432662
28-05-2018 12:00:00.00	0.2143	1.6274	19.762	9.55097505388675	387.114250945485
28-05-2018 13:00:00.00	0.2151	1.627	19.7631	9.55206608376643	388.564743719784
28-05-2018 14:00:00.00	0.2142	1.627	19.7628	9.55176853016288	386.938949813007
28-05-2018 15:00:00.00	0.2143	1.6266	19.7611	9.55008239307611	387.124936362839
28-05-2018 16:00:00.00	0.2143	1.6265	19.7694	9.55831470944092	387.126272081485
28-05-2018 17:00:00.00	0.2133	1.6263	19.7709	9.55980247745866	385.322462241966
28-05-2018 18:00:00.00	0.2157	1.626	19.7721	9.56099269187285	389.66205081829
28-05-2018 19:00:00.00	0.2137	1.6258	19.7715	9.56039758466575	386.051714887964
28-05-2018 20:00:00.00	0.2159	1.6255	19.7737	9.5625796444251	390.03007964725
28-05-2018 21:00:00.00	0.2152	1.6253	19.7814	9.57021685358282	388.76819069759
28-05-2018 22:00:00.00	0.2149	1.6252	19.7764	9.56525762685703	388.227567185048
28-05-2018 23:00:00.00	0.214	1.6247	19.7786	9.56743968661638	386.608342281781
29-05-2018 00:00:00.00	0.2144	1.6245	19.7816	9.57041522265185	387.333647740823
29-05-2018 01:00:00.00	0.2143	1.6244	19.785	9.57378749682539	387.15432430243
29-05-2018 02:00:00.00	0.2142	1.6242	19.7883	9.57706058646441	386.976334933763
29-05-2018 03:00:00.00	0.2142	1.6238	19.7843	9.57309320508378	386.981676255032
29-05-2018 04:00:00.00	0.2141	1.6237	19.7926	9.58132552144859	386.802347270569
29-05-2018 05:00:00.00	0.2148	1.6233	19.786	9.57477934217055	388.072354103087
29-05-2018 06:00:00.00	0.2139	1.6232	19.7879	9.57666384832635	386.447686148544
29-05-2018 07:00:00.00	0.2141	1.623	19.7879	9.57666384832635	386.811690638091
29-05-2018 08:00:00.00	0.2153	1.6229	19.7877	9.57646547925732	388.981057345185
29-05-2018 09:00:00.00	0.2141	1.6225	19.7894	9.57815161634408	386.818364748399
29-05-2018 10:00:00.00	0.2147	1.6222	19.7844	9.57319238961829	387.90641146243
29-05-2018 11:00:00.00	0.2141	1.622	19.7888	9.57755650913699	386.825039089022
29-05-2018 12:00:00.00	0.2143	1.6218	19.7902	9.57894509262021	387.189061256778
29-05-2018 13:00:00.00	0.2141	1.6217	19.7891	9.57785406274054	386.829043803954
29-05-2018 14:00:00.00	0.2141	1.6215	19.7823	9.57110951439346	386.831713659975
29-05-2018 15:00:00.00	0.2143	1.6213	19.7928	9.58152389051762	387.195742154954
29-05-2018 16:00:00.00	0.2146	1.6209	19.7905	9.57924264622376	387.743132424994
29-05-2018 17:00:00.00	0.2147	1.6207	19.8015	9.5901529450205	387.926491706097
29-05-2018 18:00:00.00	0.2143	1.6204	19.7919	9.58063122970698	387.207768352691
29-05-2018 19:00:00.00	0.2143	1.6203	19.7945	9.58321002760439	387.209104642999
29-05-2018 20:00:00.00	0.2143	1.6201	19.7949	9.58360676574245	387.211777251285
29-05-2018 21:00:00.00	0.2153	1.6198	19.7937	9.58241655132826	389.022672776208
29-05-2018 22:00:00.00	0.2152	1.6195	19.7952	9.583904319346	388.846010023445
29-05-2018 23:00:00.00	0.2158	1.6194	19.7984	9.58707822445051	389.93149890138
30-05-2018 00:00:00.00	0.2132	1.6191	19.8019	9.59054968315856	385.237517631347
30-05-2018 01:00:00.00	0.2144	1.6189	19.7991	9.58777251619212	387.40850794257
30-05-2018 02:00:00.00	0.2151	1.6187	19.7979	9.58658230177793	388.676050654518
30-05-2018 03:00:00.00	0.2144	1.6186	19.7979	9.58658230177793	387.412519127138
30-05-2018 04:00:00.00	0.2129	1.6182	19.7974	9.58608637910535	384.70738801898
30-05-2018 05:00:00.00	0.2139	1.6182	19.7954	9.58410268841503	386.514374341286
30-05-2018 06:00:00.00	0.2158	1.6178	19.7994	9.58807006979566	389.9530318017
30-05-2018 07:00:00.00	0.2142	1.6177	19.7874	9.57616792565377	387.063149678133
30-05-2018 08:00:00.00	0.2151	1.6173	19.7912	9.57993693796537	388.694831603792
30-05-2018 09:00:00.00	0.2144	1.6173	19.7917	9.58043286063794	387.429901886811
30-05-2018 10:00:00.00	0.2143	1.617	19.7911	9.57983775343085	387.253207398036
30-05-2018 11:00:00.00	0.214	1.6167	19.7883	9.57706058646441	386.715093275048
30-05-2018 12:00:00.00	0.2146	1.6168	19.7841	9.57289483601474	387.798002706563
30-05-2018 13:00:00.00	0.2155	1.6162	19.7877	9.57646547925732	389.43243376188
30-05-2018 14:00:00.00	0.2144	1.6163	19.7865	9.57527526484312	387.443274301905
30-05-2018 15:00:00.00	0.2151	1.616	19.7827	9.57150625253152	388.71227268193
30-05-2018 16:00:00.00	0.2146	1.6159	19.7933	9.5820198131902	387.810049481201
30-05-2018 17:00:00.00	0.2142	1.6155	19.7801	9.56892745463411	387.092541953775
30-05-2018 18:00:00.00	0.2152	1.6154	19.7881	9.57686221739538	388.901039034424
30-05-2018 19:00:00.00	0.2143	1.6152	19.7859	9.57468015763603	387.277267680987
30-05-2018 20:00:00.00	0.215	1.615	19.7874	9.57616792565377	388.544971369657
30-05-2018 21:00:00.00	0.2149	1.6147	19.7913	9.58003612249988	388.368274399878
30-05-2018 22:00:00.00	0.2146	1.6145	19.7875	9.57626711018828	387.828790396159
30-05-2018 23:00:00.00	0.2154	1.6142	19.7938	9.58251573586278	389.278595196562
31-05-2018 00:00:00.00	0.2145	1.6142	19.7906	9.57934183075827	387.652082960365
31-05-2018 01:00:00.00	0.2154	1.6138	19.7906	9.57934183075827	389.28397014998
31-05-2018 02:00:00.00	0.2146	1.6138	19.7902	9.57894509262021	387.838161532895
31-05-2018 03:00:00.00	0.2149	1.6135	19.7899	9.57864753901666	388.384361719037
31-05-2018 04:00:00.00	0.2151	1.6133	19.7909	9.57963938436182	388.748501461277
31-05-2018 05:00:00.00	0.2145	1.613	19.7879	9.57666384832635	387.668140889988
31-05-2018 06:00:00.00	0.2146	1.6129	19.7929	9.58162307505214	387.850210802734
31-05-2018 07:00:00.00	0.2154	1.6127	19.7862	9.57497771123958	389.298752037244
31-05-2018 08:00:00.00	0.2144	1.6124	19.789	9.57775487820602	387.495435542339
31-05-2018 09:00:00.00	0.2153	1.612	19.7946	9.5833092121389	389.127421970282
31-05-2018 10:00:00.00	0.215	1.6119	19.7888	9.57755650913699	388.586551482142
31-05-2018 11:00:00.00	0.2138	1.6118	19.7894	9.57815161634408	386.419030266081
31-05-2018 12:00:00.00	0.2149	1.6115	19.7921	9.58082959877601	388.41117687954
31-05-2018 13:00:00.00	0.2145	1.6112	19.8019	9.59054968315856	387.692230278991
31-05-2018 14:00:00.00	0.2156	1.6111	19.8008	9.58945865327888	389.681740813167
31-05-2018 15:00:00.00	0.2149	1.611	19.8023	9.59094642129662	388.417881248237
31-05-2018 16:00:00.00	0.2149	1.6108	19.8059	9.59451706453919	388.420563060521
31-05-2018 17:00:00.00	0.2149	1.6105	19.8142	9.602749380904	388.424585848386
31-05-2018 18:00:00.00	0.2152	1.6103	19.8102	9.59878199952337	388.969511496046
31-05-2018 19:00:00.00	0.2153	1.6101	19.8109	9.59947629126498	389.152946344195
31-05-2018 20:00:00.00	0.2157	1.6099	19.8089	9.59749260057467	389.878634956273
31-05-2018 21:00:00.00	0.2142	1.6098	19.8191	9.60760942309528	387.168715437465
31-05-2018 22:00:00.00	0.2156	1.6094	19.8139	9.60245182730046	389.704611496134
31-05-2018 23:00:00.00	0.2153	1.6094	19.8179	9.60641920868109	389.162350904999
01-06-2018 00:00:00.00	0.2159	1.6091	19.8202	9.60870045297495	390.250913985174
01-06-2018 01:00:00.00	0.2159	1.6089	19.82	9.60850208390592	390.253608630291
01-06-2018 02:00:00.00	0.2139	1.6085	19.8209	9.60939474471656	386.643815095323
01-06-2018 03:00:00.00	0.2155	1.6083	19.8123	9.6008648747482	389.538651208953
01-06-2018 04:00:00.00	0.2163	1.6083	19.8239	9.61237028075204	390.984734368894
01-06-2018 05:00:00.00	0.215	1.6079	19.8146	9.60314611904207	388.64021639198
01-06-2018 06:00:00.00	0.2149	1.6078	19.8155	9.60403877985271	388.460794689197
01-06-2018 07:00:00.00	0.2151	1.6075	19.8098	9.59838526138531	388.826349085982
01-06-2018 08:00:00.00	0.2156	1.6072	19.8129	9.6014599819553	389.734212835951
01-06-2018 09:00:00.00	0.2141	1.6071	19.804	9.59263255838339	387.02404019439
01-06-2018 10:00:00.00	0.2163	1.6067	19.8072	9.5958064634879	391.006333706064
01-06-2018 11:00:00.00	0.216	1.6065	19.8025	9.59114479036565	390.466718903642
01-06-2018 12:00:00.00	0.2152	1.6064	19.8021	9.59074805222759	389.02188906137
01-06-2018 13:00:00.00	0.2155	1.6063	19.7992	9.58787170072663	389.565550893684
01-06-2018 14:00:00.00	0.2151	1.6061	19.7928	9.58152389051762	388.845144563351
01-06-2018 15:00:00.00	0.215	1.606	19.7969	9.58559045643277	388.66571241702
01-06-2018 16:00:00.00	0.2159	1.6056	19.7872	9.57596955658473	390.298075647902
01-06-2018 17:00:00.00	0.216	1.6053	19.7957	9.58440024201858	390.482897725858
01-06-2018 18:00:00.00	0.2157	1.6052	19.7923	9.58102796784504	389.941906790977
01-06-2018 19:00:00.00	0.216	1.6049	19.7894	9.57815161634408	390.48829096454
01-06-2018 20:00:00.00	0.2163	1.6048	19.7918	9.58053204517246	391.031986018735
01-06-2018 21:00:00.00	0.2163	1.6046	19.7934	9.58211899772471	391.034686457975
01-06-2018 22:00:00.00	0.2154	1.6046	19.7937	9.58241655132826	389.407635058011
01-06-2018 23:00:00.00	0.2159	1.6041	19.7879	9.57666384832635	390.318291278722
02-06-2018 00:00:00.00	0.2163	1.604	19.7928	9.58152389051762	391.042787999488
02-06-2018 01:00:00.00	0.2158	1.6038	19.794	9.58271410493181	390.141546173252
02-06-2018 02:00:00.00	0.2153	1.6034	19.7834	9.57220054427314	389.242980076075
02-06-2018 03:00:00.00	0.2166	1.6034	19.7908	9.5795401998273	391.593262816896
02-06-2018 04:00:00.00	0.2157	1.6031	19.7965	9.58519371829471	389.970183823484
02-06-2018 05:00:00.00	0.2165	1.6029	19.7945	9.58321002760439	391.419229900654
02-06-2018 06:00:00.00	0.2159	1.6027	19.8011	9.58975620688243	390.337161090302
02-06-2018 07:00:00.00	0.215	1.6023	19.8	9.58866517700276	388.715372172459
02-06-2018 08:00:00.00	0.2171	1.6022	19.8036	9.59223582024533	392.513482413244
02-06-2018 09:00:00.00	0.2159	1.6021	19.8032	9.59183908210727	390.345248710943
02-06-2018 10:00:00.00	0.2167	1.6018	19.8123	9.6008648747482	391.795700401078
02-06-2018 11:00:00.00	0.2161	1.6015	19.8124	9.60096405928272	390.714942351466
02-06-2018 12:00:00.00	0.2157	1.6013	19.8163	9.60483225612883	389.994424544242
02-06-2018 13:00:00.00	0.2169	1.6011	19.8257	9.61415560237332	392.166782222373
02-06-2018 14:00:00.00	0.2163	1.6012	19.8209	9.60939474471656	391.08059963233
02-06-2018 15:00:00.00	0.2164	1.6006	19.8242	9.61266783435559	391.269511538346
02-06-2018 16:00:00.00	0.2161	1.6006	19.8305	9.61891646003008	390.727086152665
02-06-2018 17:00:00.00	0.2152	1.6005	19.8313	9.6197099363062	389.101153733739
02-06-2018 18:00:00.00	0.2167	1.6001	19.8384	9.62675203825683	391.818702539106
02-06-2018 19:00:00.00	0.2159	1.5999	19.8443	9.63260392579326	390.374906187522
02-06-2018 20:00:00.00	0.2165	1.5997	19.845	9.63329821753487	391.462487035856
02-06-2018 21:00:00.00	0.2163	1.5995	19.8495	9.63776152158808	391.103560262902
02-06-2018 22:00:00.00	0.2176	1.5992	19.8569	9.64510117714225	393.458236071759
02-06-2018 23:00:00.00	0.2158	1.5992	19.8589	9.64708486783257	390.203526398372
03-06-2018 00:00:00.00	0.2171	1.5989	19.8643	9.65244083269642	392.558217278677
03-06-2018 01:00:00.00	0.2174	1.5988	19.8695	9.65759842849124	393.102032145837
03-06-2018 02:00:00.00	0.217	1.5984	19.8662	9.65432533885222	392.384173978152
03-06-2018 03:00:00.00	0.2154	1.5984	19.8743	9.66235928614801	389.491018778313
03-06-2018 04:00:00.00	0.2173	1.5981	19.8698	9.65789598209479	392.930711777258
03-06-2018 05:00:00.00	0.2169	1.5979	19.8747	9.66275602428607	392.210124666583
03-06-2018 06:00:00.00	0.216	1.5977	19.8852	9.67317040041023	390.585394742688
03-06-2018 07:00:00.00	0.2159	1.5974	19.8877	9.67565001377312	390.408613336235
03-06-2018 08:00:00.00	0.2153	1.5973	19.8868	9.67475735296248	389.324987324334
03-06-2018 09:00:00.00	0.2162	1.5975	19.8895	9.67743533539441	390.949748400691
03-06-2018 10:00:00.00	0.2181	1.5971	19.8845	9.67247610866861	394.390925601868
03-06-2018 11:00:00.00	0.2148	1.5958	19.8888	9.67674104365279	388.440966141655
03-06-2018 12:00:00.00	0.2165	1.5958	19.8916	9.67951821061924	391.515219598084
03-06-2018 13:00:00.00	0.2169	1.5956	19.8861	9.67406306122087	392.241282966442
03-06-2018 14:00:00.00	0.2168	1.5957	19.8958	9.6836839610689	392.059089091576
03-06-2018 15:00:00.00	0.2173	1.5953	19.8907	9.67862554980859	392.968713704533
03-06-2018 16:00:00.00	0.2172	1.5954	19.8895	9.67743533539441	392.78651542915
03-06-2018 17:00:00.00	0.2168	1.5951	19.8927	9.68060924049891	392.067214353942
03-06-2018 18:00:00.00	0.2161	1.5948	19.8899	9.67783207353247	390.80536431632
03-06-2018 19:00:00.00	0.2164	1.5951	19.8833	9.67128589425442	391.343843109747
03-06-2018 20:00:00.00	0.2162	1.5951	19.884	9.67198018599604	390.982157487649
03-06-2018 21:00:00.00	0.2166	1.5942	19.8835	9.67148426332346	391.717706012859
03-06-2018 22:00:00.00	0.216	1.5939	19.8828	9.67078997158185	390.636663431918
03-06-2018 23:00:00.00	0.2153	1.5939	19.8784	9.66642585206315	389.370711281907
04-06-2018 00:00:00.00	0.2171	1.5936	19.8784	9.66642585206315	392.630085527167
04-06-2018 01:00:00.00	0.2169	1.5936	19.8805	9.66850872728798	392.268381164636
04-06-2018 02:00:00.00	0.218	1.5933	19.8709	9.65898701197446	394.261840826982
04-06-2018 03:00:00.00	0.2172	1.5932	19.8736	9.66166499440639	392.816365294045
04-06-2018 04:00:00.00	0.2173	1.5932	19.8725	9.66057396452672	392.997219974198
04-06-2018 05:00:00.00	0.2162	1.5928	19.8651	9.65323430897255	391.013221238536
04-06-2018 06:00:00.00	0.2167	1.5926	19.8648	9.652936755369	391.92021481062
04-06-2018 07:00:00.00	0.2178	1.5927	19.8675	9.65561473780093	393.908296810155
04-06-2018 08:00:00.00	0.2172	1.5923	19.8613	9.64946529666095	392.828577910088
04-06-2018 09:00:00.00	0.2169	1.5922	19.8587	9.64688649876354	392.287352131271
04-06-2018 10:00:00.00	0.2173	1.5921	19.8495	9.63776152158808	393.012153480343
04-06-2018 11:00:00.00	0.2164	1.592	19.8521	9.64034031948549	391.385751532988
04-06-2018 12:00:00.00	0.2176	1.5917	19.8433	9.6316120804481	393.560176282403
04-06-2018 13:00:00.00	0.2179	1.5916	19.8407	9.62903328255069	394.104129871256
04-06-2018 14:00:00.00	0.2158	1.5912	19.8464	9.63468680101809	390.311365013256
04-06-2018 15:00:00.00	0.217	1.5911	19.8345	9.62288384141071	392.483126978547
04-06-2018 16:00:00.00	0.2168	1.591	19.83	9.6184205373575	392.122745995076
04-06-2018 17:00:00.00	0.2155	1.5907	19.8309	9.61931319816814	389.775496006501
04-06-2018 18:00:00.00	0.2165	1.5906	19.8287	9.6171311384088	391.585551784558
04-06-2018 19:00:00.00	0.2156	1.5904	19.8291	9.61752787654686	389.960407804533
04-06-2018 20:00:00.00	0.2176	1.5902	19.8203	9.60879963750947	393.580570663611
04-06-2018 21:00:00.00	0.2171	1.5901	19.8147	9.60324530357658	392.677560119775
04-06-2018 22:00:00.00	0.2168	1.59	19.813	9.60155916648981	392.136292684162
04-06-2018 23:00:00.00	0.218	1.5896	19.8113	9.59987302940304	394.312237700967
05-06-2018 00:00:00.00	0.2174	1.5892	19.8115	9.60007139847207	393.232408746386
05-06-2018 01:00:00.00	0.2168	1.5892	19.8092	9.59779015417821	392.147130709367
05-06-2018 02:00:00.00	0.2177	1.5889	19.8047	9.593326850125	393.779129051369
05-06-2018 03:00:00.00	0.2165	1.5888	19.8057	9.59431869547016	391.609903429179
05-06-2018 04:00:00.00	0.2167	1.5886	19.805	9.59362440372855	391.974376199099
05-06-2018 05:00:00.00	0.2165	1.5884	19.805	9.59362440372855	391.615315317075
05-06-2018 06:00:00.00	0.2162	1.5883	19.8039	9.59253337384887	391.074012420995
05-06-2018 07:00:00.00	0.2168	1.588	19.8054	9.59402114186661	392.163388870519
05-06-2018 08:00:00.00	0.217	1.5879	19.8048	9.59342603465952	392.526519372025
05-06-2018 09:00:00.00	0.2168	1.5877	19.8055	9.59412032640113	392.16745362145
05-06-2018 10:00:00.00	0.2172	1.5875	19.8045	9.59312848105597	392.89372468949
05-06-2018 11:00:00.00	0.2167	1.5874	19.8016	9.59025212955501	391.990627534847
05-06-2018 12:00:00.00	0.2173	1.5871	19.8054	9.59402114186661	393.080047359905
05-06-2018 13:00:00.00	0.2164	1.5869	19.8069	9.59550890988435	391.454717182198
05-06-2018 14:00:00.00	0.2168	1.5867	19.8085	9.5970958624366	392.1810033998
05-06-2018 15:00:00.00	0.2167	1.5867	19.8109	9.59947629126498	392.000108103029
05-06-2018 16:00:00.00	0.2174	1.5863	19.8105	9.59907955312692	393.27181035442
05-06-2018 17:00:00.00	0.2172	1.5861	19.8118	9.60036895207563	392.91272990392
05-06-2018 18:00:00.00	0.217	1.5861	19.8113	9.59987302940304	392.550931810086
05-06-2018 19:00:00.00	0.2161	1.5857	19.8124	9.60096405928272	390.928243284794
05-06-2018 20:00:00.00	0.2173	1.5855	19.8074	9.59600483255693	393.101778355903
05-06-2018 21:00:00.00	0.2182	1.5854	19.8144	9.60294774997303	394.731267423487
05-06-2018 22:00:00.00	0.218	1.5852	19.811	9.5995754757995	394.372185892142
05-06-2018 23:00:00.00	0.2176	1.5851	19.8102	9.59878199952337	393.649927372855
06-06-2018 00:00:00.00	0.2176	1.5848	19.8142	9.602749380904	393.654007940522
06-06-2018 01:00:00.00	0.2178	1.5846	19.8128	9.60136079742078	394.018545211891
06-06-2018 02:00:00.00	0.2164	1.5845	19.812	9.60056732114466	391.487180015991
06-06-2018 03:00:00.00	0.2164	1.5842	19.8147	9.60324530357658	391.491238248795
06-06-2018 04:00:00.00	0.2181	1.5839	19.8181	9.60661757775012	394.570814145043
06-06-2018 05:00:00.00	0.2169	1.5837	19.8191	9.60760942309528	392.40257240239
06-06-2018 06:00:00.00	0.2164	1.5836	19.8204	9.60889882204398	391.499354966821
06-06-2018 07:00:00.00	0.2171	1.5835	19.8181	9.60661757775012	392.767114881305
06-06-2018 08:00:00.00	0.2174	1.5831	19.8222	9.61068414366527	393.315297155406
06-06-2018 09:00:00.00	0.2176	1.583	19.8226	9.61108088180333	393.6784931232
06-06-2018 10:00:00.00	0.2173	1.5828	19.8256	9.61405641783881	393.138454860577
06-06-2018 11:00:00.00	0.2181	1.5826	19.8222	9.61068414366527	394.588539317898
06-06-2018 12:00:00.00	0.2175	1.5823	19.8312	9.61961075177169	393.507093159846
06-06-2018 13:00:00.00	0.2173	1.5821	19.8247	9.61316375702816	393.147964701211
06-06-2018 14:00:00.00	0.2176	1.5819	19.8249	9.61336212609719	393.693457789919
06-06-2018 15:00:00.00	0.2163	1.5818	19.8233	9.61177517354494	391.342781212898
06-06-2018 16:00:00.00	0.2167	1.5817	19.8243	9.6127670188901	392.067839785991
06-06-2018 17:00:00.00	0.2165	1.5815	19.8295	9.61792461468492	391.708693933753
06-06-2018 18:00:00.00	0.2178	1.5813	19.8235	9.61197354261397	394.063478922299
06-06-2018 19:00:00.00	0.2172	1.581	19.8185	9.60701431588818	392.981978736635
06-06-2018 20:00:00.00	0.2172	1.5809	19.8217	9.61018822099269	392.983336800887
06-06-2018 21:00:00.00	0.2175	1.5806	19.8156	9.60413796438722	393.530211341465
06-06-2018 22:00:00.00	0.2168	1.5805	19.8174	9.60592328600851	392.265032928641
06-06-2018 23:00:00.00	0.2178	1.5802	19.8019	9.59054968315856	394.078459103286
07-06-2018 00:00:00.00	0.2167	1.5801	19.8115	9.60007139847207	392.089518868164
07-06-2018 01:00:00.00	0.2176	1.58	19.8085	9.5970958624366	393.719308530464
07-06-2018 02:00:00.00	0.2182	1.5798	19.8039	9.59253337384887	394.807660455569
07-06-2018 03:00:00.00	0.2158	1.5796	19.8064	9.59501298721177	390.467836921814
07-06-2018 04:00:00.00	0.2184	1.5792	19.7993	9.58797088526115	395.177731546647
07-06-2018 05:00:00.00	0.2176	1.5791	19.8024	9.59104560583114	393.731554803026
07-06-2018 06:00:00.00	0.2172	1.579	19.7945	9.58321002760439	393.009141805189
07-06-2018 07:00:00.00	0.2177	1.5789	19.7913	9.58003612249988	393.915220361186
07-06-2018 08:00:00.00	0.2175	1.5786	19.7874	9.57616792565377	393.557412680105
07-06-2018 09:00:00.00	0.2172	1.5781	19.7814	9.57021685358282	393.02136641116
07-06-2018 10:00:00.00	0.217	1.5781	19.7825	9.57130788346249	392.659468283709
07-06-2018 11:00:00.00	0.2176	1.5777	19.784	9.57279565148023	393.750606074649
07-06-2018 12:00:00.00	0.2178	1.5775	19.784	9.57279565148023	394.115233467585
07-06-2018 13:00:00.00	0.2181	1.5773	19.7764	9.56525762685703	394.660819968383
07-06-2018 14:00:00.00	0.2177	1.5772	19.7728	9.56168698361446	393.938365239385
07-06-2018 15:00:00.00	0.2171	1.5772	19.7756	9.5644641505809	392.852637085303
07-06-2018 16:00:00.00	0.2169	1.5769	19.7736	9.56248045989058	392.494797362934
07-06-2018 17:00:00.00	0.2163	1.5769	19.7717	9.56059595373478	391.409057951142
07-06-2018 18:00:00.00	0.2177	1.5765	19.7743	9.5631747516322	393.947896273899
07-06-2018 19:00:00.00	0.2175	1.5765	19.7688	9.55771960223383	393.585978133087
07-06-2018 20:00:00.00	0.2177	1.5763	19.7677	9.55662857235416	393.950619511326
07-06-2018 21:00:00.00	0.2174	1.576	19.7663	9.55523998887093	393.411817844899
07-06-2018 22:00:00.00	0.2168	1.5757	19.7643	9.55325629818061	392.330112782059
07-06-2018 23:00:00.00	0.2173	1.5756	19.7543	9.54333784472904	393.23629234022
08-06-2018 00:00:00.00	0.2175	1.5754	19.755	9.54403213647064	393.600942644398
08-06-2018 01:00:00.00	0.2165	1.5754	19.7558	9.54482561274677	391.791283137987
08-06-2018 02:00:00.00	0.2178	1.575	19.7618	9.55077668481772	394.149289925034
08-06-2018 03:00:00.00	0.217	1.5749	19.7539	9.54294110659097	392.702899680208
08-06-2018 04:00:00.00	0.2166	1.5746	19.7569	9.54591664262645	391.983088047111
08-06-2018 05:00:00.00	0.2184	1.5745	19.7552	9.54423050553968	395.241931404713
08-06-2018 06:00:00.00	0.2175	1.5743	19.7548	9.54383376740161	393.615908293683
08-06-2018 07:00:00.00	0.2181	1.5741	19.7468	9.53589900464035	394.704473938112
08-06-2018 08:00:00.00	0.218	1.5738	19.7553	9.54432969007419	394.527591033713
08-06-2018 09:00:00.00	0.2169	1.5736	19.7507	9.53976720148646	392.539569219222
08-06-2018 10:00:00.00	0.2182	1.5735	19.7546	9.54363539833258	394.893637968498
08-06-2018 11:00:00.00	0.2172	1.5733	19.7468	9.53589900464035	393.086577155737
08-06-2018 12:00:00.00	0.218	1.5731	19.7486	9.53768432626163	394.537137445934
08-06-2018 13:00:00.00	0.2179	1.5731	19.7471	9.5361965582439	394.356157107656
08-06-2018 14:00:00.00	0.2165	1.5727	19.7386	9.52776587281006	391.827850135421
08-06-2018 15:00:00.00	0.2172	1.5725	19.7446	9.533716944881	393.097447717089
08-06-2018 16:00:00.00	0.2166	1.5724	19.7467	9.53579982010583	392.012898274065
08-06-2018 17:00:00.00	0.2175	1.5729	19.739	9.52816261094812	393.634957129714
08-06-2018 18:00:00.00	0.2173	1.5719	19.7438	9.53292346860488	393.286588878453
08-06-2018 19:00:00.00	0.2176	1.5716	19.7417	9.53084059338005	393.833636708307
08-06-2018 20:00:00.00	0.2176	1.5708	19.7439	9.53302265313939	393.844528569185
08-06-2018 21:00:00.00	0.2173	1.5707	19.7415	9.53064222431101	393.302904032444
08-06-2018 22:00:00.00	0.2167	1.5705	19.745	9.53411368301907	392.219643724472
08-06-2018 23:00:00.00	0.217	1.5704	19.7458	9.53490715929519	392.763991339355
09-06-2018 00:00:00.00	0.2172	1.5703	19.7442	9.53332020674294	393.127344861171
09-06-2018 01:00:00.00	0.2169	1.5701	19.743	9.53212999232875	392.587065684269
09-06-2018 02:00:00.00	0.2173	1.57	19.7447	9.53381612941552	393.31242183074
09-06-2018 03:00:00.00	0.2182	1.5696	19.7483	9.53738677265809	394.946880911533
09-06-2018 04:00:00.00	0.2177	1.5696	19.7471	9.5361965582439	394.041869727043
09-06-2018 05:00:00.00	0.2171	1.5694	19.7535	9.54254436845291	392.9585733334
09-06-2018 06:00:00.00	0.2175	1.5693	19.7533	9.54234599938388	393.68394831804
09-06-2018 07:00:00.00	0.2172	1.5691	19.7559	9.54492479728129	393.143654311174
09-06-2018 08:00:00.00	0.2183	1.569	19.7597	9.54869380959289	395.136079399364
09-06-2018 09:00:00.00	0.2164	1.5689	19.7624	9.55137179202482	391.698319746343
09-06-2018 10:00:00.00	0.2169	1.5687	19.7576	9.54661093436806	392.606067488748
09-06-2018 11:00:00.00	0.2186	1.5686	19.7565	9.54551990448838	395.684569239424
09-06-2018 12:00:00.00	0.2172	1.5683	19.7536	9.54264355298742	393.154528029664
09-06-2018 13:00:00.00	0.2173	1.5682	19.7612	9.55018157761062	393.336898284599
09-06-2018 14:00:00.00	0.2187	1.5681	19.7606	9.54958647040353	395.872420907921
09-06-2018 15:00:00.00	0.2179	1.5679	19.7615	9.55047913121417	394.427055241455
09-06-2018 16:00:00.00	0.2169	1.5679	19.7556	9.54462724367774	392.616926488626
09-06-2018 17:00:00.00	0.2179	1.5677	19.7608	9.54978483947256	394.429782601853
09-06-2018 18:00:00.00	0.2163	1.5675	19.7619	9.55087586935224	391.536263942144
09-06-2018 19:00:00.00	0.2166	1.5675	19.7609	9.54988402400708	392.079310077986
09-06-2018 20:00:00.00	0.2166	1.5674	19.7582	9.54720604157515	392.080665655222
09-06-2018 21:00:00.00	0.2177	1.567	19.7622	9.55117342295578	394.07729164453
09-06-2018 22:00:00.00	0.2174	1.5669	19.7638	9.55276037550804	393.53559675193
09-06-2018 23:00:00.00	0.218	1.5667	19.763	9.55196689923191	394.624440355114
10-06-2018 00:00:00.00	0.2184	1.5666	19.7657	9.55464488166384	395.349888815085
10-06-2018 01:00:00.00	0.2173	1.5663	19.7675	9.55643020328512	393.362737846653
10-06-2018 02:00:00.00	0.2171	1.5663	19.7691	9.55801715583738	393.000692068607
10-06-2018 03:00:00.00	0.2174	1.566	19.7676	9.55652938781964	393.547842854572
10-06-2018 04:00:00.00	0.2187	1.5659	19.7752	9.56406741244284	395.902533683893
10-06-2018 05:00:00.00	0.2186	1.5656	19.7772	9.56605110313316	395.725613056092
10-06-2018 06:00:00.00	0.2162	1.5656	19.7726	9.56148861454543	391.380958566913
10-06-2018 07:00:00.00	0.216	1.5653	19.7702	9.55910818571705	391.022960053583
10-06-2018 08:00:00.00	0.2179	1.5654	19.7797	9.56853071649605	394.461149957619
10-06-2018 09:00:00.00	0.2172	1.5651	19.7818	9.57061359172088	393.198028919281
10-06-2018 10:00:00.00	0.2165	1.5651	19.784	9.57279565148023	391.930816118896
10-06-2018 11:00:00.00	0.2172	1.5647	19.7793	9.56813397835799	393.203467207347
10-06-2018 12:00:00.00	0.2177	1.5647	19.7838	9.5725972824112	394.108631726701
10-06-2018 13:00:00.00	0.2178	1.5645	19.7863	9.57507689577409	394.292391342621
10-06-2018 14:00:00.00	0.2177	1.5642	19.7958	9.58449942655309	394.11544544767
10-06-2018 15:00:00.00	0.2175	1.5642	19.7953	9.58400350388052	393.753373380194
10-06-2018 16:00:00.00	0.2163	1.5641	19.7932	9.58192062865568	391.582294983994
10-06-2018 17:00:00.00	0.2177	1.564	19.7894	9.57815161634408	394.118171002027
10-06-2018 18:00:00.00	0.2188	1.5638	19.7953	9.58400350388052	396.112320508889
10-06-2018 19:00:00.00	0.2165	1.5635	19.7896	9.57834998541311	391.952500064043
10-06-2018 20:00:00.00	0.2181	1.5634	19.7955	9.58420187294955	394.850512058293
10-06-2018 21:00:00.00	0.2163	1.5632	19.7944	9.58311084306987	391.594481483284
10-06-2018 22:00:00.00	0.2178	1.5632	19.7934	9.58211899772471	394.310115890241
10-06-2018 23:00:00.00	0.2167	1.5629	19.7969	9.58559045643277	392.322720505872
11-06-2018 00:00:00.00	0.2176	1.5628	19.7944	9.58311084306987	393.953480321915
11-06-2018 01:00:00.00	0.2177	1.5626	19.7982	9.58687985538148	394.137250938117
11-06-2018 02:00:00.00	0.2175	1.5625	19.7974	9.58608637910535	393.776520509194
11-06-2018 03:00:00.00	0.2171	1.5623	19.7911	9.57983775343085	393.055052166878
11-06-2018 04:00:00.00	0.218	1.562	19.7901	9.57884590808569	394.688578038441
11-06-2018 05:00:00.00	0.2167	1.562	19.7856	9.57438260403248	392.334930554726
11-06-2018 06:00:00.00	0.2179	1.5618	19.7872	9.57596955658473	394.510256705416
11-06-2018 07:00:00.00	0.2168	1.5616	19.7907	9.57944101529279	392.521409797856
11-06-2018 08:00:00.00	0.2175	1.5612	19.7897	9.57844916994763	393.794223091253
11-06-2018 09:00:00.00	0.217	1.5612	19.7933	9.5820198131902	392.888949015181
11-06-2018 10:00:00.00	0.2168	1.561	19.7983	9.58697903991599	392.52955423453
11-06-2018 11:00:00.00	0.2184	1.561	19.7938	9.58251573586278	395.426451313752
11-06-2018 12:00:00.00	0.2179	1.561	19.7994	9.58807006979566	394.521170976495
11-06-2018 13:00:00.00	0.2167	1.5607	19.801	9.58965702234791	392.352568633771
11-06-2018 14:00:00.00	0.2182	1.5606	19.7997	9.58836762339921	395.06980405443
11-06-2018 15:00:00.00	0.2173	1.5602	19.8002	9.58886354607179	393.44571939205
11-06-2018 16:00:00.00	0.2176	1.5603	19.7963	9.58499534922567	393.987540107832
11-06-2018 17:00:00.00	0.2154	1.5602	19.7879	9.57666384832635	390.005558937173
11-06-2018 18:00:00.00	0.2174	1.56	19.7916	9.58033367610343	393.62950302012
11-06-2018 19:00:00.00	0.2174	1.56	19.7845	9.57329157415281	393.62950302012
11-06-2018 20:00:00.00	0.2188	1.5598	19.7814	9.57021685358282	396.167115746596
11-06-2018 21:00:00.00	0.2172	1.5595	19.7681	9.55702531049222	393.274178644071
11-06-2018 22:00:00.00	0.2176	1.5591	19.7686	9.5575212331648	394.003890897063
11-06-2018 23:00:00.00	0.218	1.5591	19.7587	9.54770196424773	394.72816275533
12-06-2018 00:00:00.00	0.2182	1.559	19.7537	9.54274273752194	395.091665068736
12-06-2018 01:00:00.00	0.2177	1.5589	19.7495	9.53857698707228	394.187685377533
12-06-2018 02:00:00.00	0.2184	1.5588	19.7409	9.53004711710392	395.456537552039
12-06-2018 03:00:00.00	0.2166	1.5586	19.7371	9.52627810479232	392.199993169998
12-06-2018 04:00:00.00	0.218	1.5583	19.7298	9.51903763377266	394.73908407459
12-06-2018 05:00:00.00	0.218	1.5583	19.7289	9.51814497296202	394.73908407459
12-06-2018 06:00:00.00	0.2171	1.5581	19.7221	9.51140042461495	393.112146457325
12-06-2018 07:00:00.00	0.2166	1.5577	19.7229	9.51219390089107	392.212201214565
12-06-2018 08:00:00.00	0.2177	1.5578	19.7182	9.50753222776883	394.202681889228
12-06-2018 09:00:00.00	0.2169	1.5576	19.7237	9.5129873771672	392.756789785267
12-06-2018 10:00:00.00	0.218	1.5571	19.7183	9.50763141230334	394.755467186667
12-06-2018 11:00:00.00	0.2179	1.5572	19.7195	9.50882162671753	394.573022012141
12-06-2018 12:00:00.00	0.2178	1.5567	19.7227	9.51199553182204	394.398762536761
12-06-2018 13:00:00.00	0.2187	1.5566	19.7351	9.524294414102	396.029879232074
12-06-2018 14:00:00.00	0.2168	1.5566	19.7437	9.53282428407036	392.589290432161
12-06-2018 15:00:00.00	0.2183	1.5564	19.7531	9.54214763031485	395.308279251129
12-06-2018 16:00:00.00	0.2189	1.5563	19.7565	9.54551990448838	396.396159516986
12-06-2018 17:00:00.00	0.2176	1.5562	19.7694	9.55831470944092	394.043410907853
12-06-2018 18:00:00.00	0.2178	1.5563	19.7787	9.56753887115089	394.4042190169
12-06-2018 19:00:00.00	0.2186	1.5558	19.7911	9.57983775343085	395.859748882946
12-06-2018 20:00:00.00	0.218	1.5557	19.7968	9.58549127189825	394.774582536292
12-06-2018 21:00:00.00	0.2177	1.5556	19.8087	9.59729423150564	394.232678336051
12-06-2018 22:00:00.00	0.2175	1.5553	19.8152	9.60374122624916	393.874585587345
12-06-2018 23:00:00.00	0.2178	1.5558	19.8158	9.60433633345625	394.411039829394
13-06-2018 00:00:00.00	0.2166	1.5555	19.8304	9.61881727549556	392.242046301041
13-06-2018 01:00:00.00	0.2175	1.5551	19.8246	9.61306457249365	393.877310314528
13-06-2018 02:00:00.00	0.2176	1.5548	19.8379	9.62625611558425	394.062492371378
13-06-2018 03:00:00.00	0.2174	1.5548	19.8397	9.62804143720553	393.700302580595
13-06-2018 04:00:00.00	0.2181	1.5546	19.8365	9.62486753210103	394.970699186512
13-06-2018 05:00:00.00	0.2175	1.5541	19.8528	9.6410346112271	393.890934515931
13-06-2018 06:00:00.00	0.2182	1.5542	19.8577	9.64589465341838	395.157262630101
13-06-2018 07:00:00.00	0.2176	1.554	19.8633	9.65144898735126	394.073396894571
13-06-2018 08:00:00.00	0.2167	1.5541	19.8615	9.64966366572998	392.442140274033
13-06-2018 09:00:00.00	0.2191	1.554	19.8702	9.65829272023286	396.789895494488
13-06-2018 10:00:00.00	0.2173	1.5538	19.8737	9.66176417894091	393.532819641102
13-06-2018 11:00:00.00	0.2182	1.5536	19.8752	9.66325194695864	395.165463856884
13-06-2018 12:00:00.00	0.2184	1.5535	19.8782	9.66622748299412	395.529036838803
13-06-2018 13:00:00.00	0.2183	1.5532	19.8865	9.67445979935893	395.352036448741
13-06-2018 14:00:00.00	0.217	1.5532	19.8839	9.67188100146152	392.997672512033
13-06-2018 15:00:00.00	0.2184	1.5531	19.8886	9.67654267458376	395.534509561929
13-06-2018 16:00:00.00	0.2185	1.553	19.8893	9.67723696632537	395.716983937513
13-06-2018 17:00:00.00	0.2176	1.5529	19.8858	9.67376550761732	394.088391599405
13-06-2018 18:00:00.00	0.2171	1.5528	19.888	9.67594756737667	393.184217690544
13-06-2018 19:00:00.00	0.2173	1.5525	19.8909	9.67882391887763	393.55051659165
13-06-2018 20:00:00.00	0.219	1.5522	19.893	9.68090679410246	396.6334908409
13-06-2018 21:00:00.00	0.2187	1.5523	19.8949	9.68279130025826	396.088787132124
13-06-2018 22:00:00.00	0.2178	1.552	19.8954	9.68328722293084	394.462885715155
13-06-2018 23:00:00.00	0.2188	1.5521	19.8806	9.6686079118225	396.272639270499
14-06-2018 00:00:00.00	0.2178	1.5518	19.8882	9.6761459364457	394.465614823561
14-06-2018 01:00:00.00	0.2193	1.5516	19.8787	9.6667234056667	397.185068101754
14-06-2018 02:00:00.00	0.2184	1.5515	19.8846	9.67257529320313	395.55640196898
14-06-2018 03:00:00.00	0.218	1.5512	19.8871	9.67505490656603	394.836037271942
14-06-2018 04:00:00.00	0.2182	1.5512	19.892	9.6799149487573	395.198272168522
14-06-2018 05:00:00.00	0.2172	1.5508	19.8828	9.67078997158185	393.392541204971
14-06-2018 06:00:00.00	0.2187	1.5508	19.8744	9.66245847068252	396.109340522685
14-06-2018 07:00:00.00	0.2174	1.5507	19.8789	9.66692177473573	393.756143270509
14-06-2018 08:00:00.00	0.2186	1.5506	19.877	9.66503726857993	395.930959928273
14-06-2018 09:00:00.00	0.2177	1.5505	19.8773	9.66533482218348	394.302233114487
14-06-2018 10:00:00.00	0.2181	1.5504	19.8713	9.65938375011253	395.028087022242
14-06-2018 11:00:00.00	0.218	1.5501	19.8647	9.65283757083448	394.85106245093
14-06-2018 12:00:00.00	0.2184	1.55	19.8661	9.65422615431771	395.576928301682
14-06-2018 13:00:00.00	0.2178	1.55	19.8654	9.6535318625761	394.490178498655
14-06-2018 14:00:00.00	0.2175	1.5498	19.8611	9.64926692759192	393.949529323593
14-06-2018 15:00:00.00	0.2186	1.5497	19.8618	9.64996121933352	395.943287517841
14-06-2018 16:00:00.00	0.2181	1.5498	19.8594	9.64758079050515	395.036286645864
14-06-2018 17:00:00.00	0.2183	1.5493	19.8557	9.64391096272806	395.405378632529
14-06-2018 18:00:00.00	0.2175	1.5492	19.8568	9.64500199260774	393.957706729261
14-06-2018 19:00:00.00	0.2189	1.549	19.8476	9.63587701543228	396.496269873945
14-06-2018 20:00:00.00	0.2178	1.5489	19.8512	9.63944765867485	394.505191139486
14-06-2018 21:00:00.00	0.2169	1.5489	19.8461	9.63438924741454	392.87500439924
14-06-2018 22:00:00.00	0.2173	1.5486	19.8412	9.62952920522327	393.603616994446
14-06-2018 23:00:00.00	0.2174	1.5487	19.8481	9.63637293810486	393.783388379988
15-06-2018 00:00:00.00	0.218	1.5485	19.8457	9.63399250927648	394.872919298209
15-06-2018 01:00:00.00	0.2175	1.5481	19.837	9.62536345477361	393.972699521406
15-06-2018 02:00:00.00	0.2188	1.5483	19.8325	9.6209001507204	396.324736534165
15-06-2018 03:00:00.00	0.2176	1.548	19.8375	9.62585937744618	394.155200059123
15-06-2018 04:00:00.00	0.2179	1.5479	19.8349	9.62328057954878	394.69997811308
15-06-2018 05:00:00.00	0.2163	1.5477	19.8288	9.61723032294331	391.804479167495
15-06-2018 06:00:00.00	0.2181	1.5479	19.827	9.61544500132203	395.062254366511
15-06-2018 07:00:00.00	0.2167	1.5476	19.8238	9.61227109621752	392.530394749722
15-06-2018 08:00:00.00	0.2181	1.5475	19.8201	9.60860126844044	395.067721690096
15-06-2018 09:00:00.00	0.2184	1.5473	19.8152	9.60374122624916	395.613881069447
15-06-2018 10:00:00.00	0.2185	1.5472	19.8144	9.60294774997303	395.796392336715
15-06-2018 11:00:00.00	0.2189	1.547	19.8105	9.59907955312692	396.523706194229
15-06-2018 12:00:00.00	0.2179	1.547	19.8082	9.59679830883305	394.712268523173
15-06-2018 13:00:00.00	0.2189	1.5469	19.8084	9.59699667790209	396.525078109916
15-06-2018 14:00:00.00	0.2178	1.5469	19.8011	9.58975620688243	394.532489777705
15-06-2018 15:00:00.00	0.2173	1.5466	19.803	9.59164071303823	393.630853528999
15-06-2018 16:00:00.00	0.2176	1.5464	19.7947	9.58340839667342	394.177019972457
15-06-2018 17:00:00.00	0.2179	1.5463	19.7851	9.5738866813599	394.72182826021
15-06-2018 18:00:00.00	0.2177	1.5464	19.7868	9.57557281844667	394.358167500018
15-06-2018 19:00:00.00	0.2184	1.5464	19.7813	9.5701176690483	395.626200192944
15-06-2018 20:00:00.00	0.218	1.5462	19.775	9.56386904337381	394.904342755811
15-06-2018 21:00:00.00	0.2174	1.546	19.7673	9.55623183421609	393.820175259035
15-06-2018 22:00:00.00	0.2179	1.5459	19.7716	9.56049676920027	394.727291174997
15-06-2018 23:00:00.00	0.2191	1.5458	19.7651	9.55404977445674	396.902472385388
16-06-2018 00:00:00.00	0.2184	1.5458	19.7622	9.55117342295578	395.634413368182
16-06-2018 01:00:00.00	0.2172	1.5457	19.759	9.54799951785128	393.461959284404
16-06-2018 02:00:00.00	0.2168	1.5454	19.7532	9.54224681484936	392.741428282462
16-06-2018 03:00:00.00	0.2178	1.5454	19.7525	9.54155252310775	394.552966235795
16-06-2018 04:00:00.00	0.2178	1.5451	19.7513	9.54036230869356	394.557061782473
16-06-2018 05:00:00.00	0.2187	1.5451	19.7436	9.53272509953584	396.187462864219
16-06-2018 06:00:00.00	0.2171	1.5451	19.7432	9.53232836139778	393.288972052226
16-06-2018 07:00:00.00	0.2177	1.5449	19.7326	9.52181480073911	394.37863526478
16-06-2018 08:00:00.00	0.2175	1.5447	19.7282	9.51745068122041	394.019048094545
16-06-2018 09:00:00.00	0.219	1.5446	19.7232	9.51249145449462	396.737793600913
16-06-2018 10:00:00.00	0.2178	1.5444	19.7216	9.51090450194237	394.566618388717
16-06-2018 11:00:00.00	0.2165	1.5443	19.7162	9.50554853707851	392.212894680983
16-06-2018 12:00:00.00	0.2181	1.5442	19.7178	9.50713548963077	395.112832884373
16-06-2018 13:00:00.00	0.2171	1.5442	19.7095	9.49890317326595	393.301219712047
16-06-2018 14:00:00.00	0.2165	1.5441	19.7147	9.50406076906078	392.215608945712
16-06-2018 15:00:00.00	0.2185	1.544	19.7116	9.50098604849079	395.840217511029
16-06-2018 16:00:00.00	0.2168	1.544	19.7038	9.49324965479855	392.760453804994
16-06-2018 17:00:00.00	0.2181	1.5438	19.6976	9.48710021365857	395.118301607985
16-06-2018 18:00:00.00	0.217	1.5439	19.6919	9.48144669519117	393.124139237034
16-06-2018 19:00:00.00	0.2177	1.5438	19.6927	9.4822401714673	394.3936463093
16-06-2018 20:00:00.00	0.2195	1.5437	19.6867	9.47628909939635	397.655971134126
16-06-2018 21:00:00.00	0.218	1.5435	19.6809	9.47053639639443	394.941237544744
16-06-2018 22:00:00.00	0.2182	1.5434	19.6808	9.47043721185992	395.304936815162
16-06-2018 23:00:00.00	0.2174	1.5435	19.675	9.464684508858	393.85424331297
17-06-2018 00:00:00.00	0.2176	1.5431	19.6685	9.45823751411447	394.222031174303
17-06-2018 01:00:00.00	0.2175	1.543	19.6733	9.46299837177123	394.042226470833
17-06-2018 02:00:00.00	0.2175	1.5429	19.6601	9.44990601321514	394.043589989655
17-06-2018 03:00:00.00	0.2186	1.5427	19.6579	9.4477239534558	396.039194980948
17-06-2018 04:00:00.00	0.2172	1.5427	19.6561	9.44593863183451	393.502804894153
17-06-2018 05:00:00.00	0.2175	1.5428	19.655	9.44484760195484	394.044953517914
17-06-2018 06:00:00.00	0.2183	1.5426	19.6514	9.44127695871227	395.49705138197
17-06-2018 07:00:00.00	0.2173	1.5423	19.6454	9.43532588664132	393.68942484439
17-06-2018 08:00:00.00	0.218	1.5424	19.6451	9.43502833303777	394.956270731581
17-06-2018 09:00:00.00	0.2185	1.542	19.6361	9.42610172493135	395.867613173749
17-06-2018 10:00:00.00	0.2181	1.542	19.6373	9.42729193934554	395.142912737733
17-06-2018 11:00:00.00	0.2183	1.5419	19.6311	9.42114249820556	395.506631584522
17-06-2018 12:00:00.00	0.2184	1.5417	19.63	9.42005146832589	395.690545860362
17-06-2018 13:00:00.00	0.2183	1.5417	19.6274	9.41747267042848	395.509368870499
17-06-2018 14:00:00.00	0.2171	1.5417	19.6292	9.41925799204976	393.335244992146
17-06-2018 15:00:00.00	0.2171	1.5416	19.6234	9.41350528904784	393.336606125804
17-06-2018 16:00:00.00	0.2178	1.5415	19.6182	9.40834769325302	394.606214975415
17-06-2018 17:00:00.00	0.2172	1.5415	19.6172	9.40735584790787	393.519145512672
17-06-2018 18:00:00.00	0.2178	1.5414	19.6181	9.40824850871851	394.607580516705
17-06-2018 19:00:00.00	0.2187	1.5413	19.6193	9.40943872313269	396.239561547065
17-06-2018 20:00:00.00	0.2187	1.5411	19.6199	9.41003383033979	396.242303962563
17-06-2018 21:00:00.00	0.2177	1.541	19.6108	9.40100803769885	394.431861397695
17-06-2018 22:00:00.00	0.2187	1.541	19.6192	9.40933953859818	396.243675184547
17-06-2018 23:00:00.00	0.2181	1.5409	19.6175	9.40765340151141	395.157954381958
18-06-2018 00:00:00.00	0.2181	1.5409	19.6237	9.41380284265139	395.157954381958
18-06-2018 01:00:00.00	0.2169	1.5407	19.6227	9.41281099730623	392.986490233307
18-06-2018 02:00:00.00	0.2181	1.5407	19.6241	9.41419958078945	395.160689349398
18-06-2018 03:00:00.00	0.2173	1.5404	19.6282	9.4182661467046	393.715310745924
18-06-2018 04:00:00.00	0.2185	1.5404	19.6323	9.42233271261975	395.889532434351
18-06-2018 05:00:00.00	0.2184	1.5404	19.6281	9.41816696217009	395.708347293648
18-06-2018 06:00:00.00	0.2179	1.5401	19.6292	9.41925799204976	394.806520435332
18-06-2018 07:00:00.00	0.2175	1.54	19.635	9.42501069505168	394.083136140776
18-06-2018 08:00:00.00	0.2188	1.5397	19.6367	9.42669683213845	396.442691463928
18-06-2018 09:00:00.00	0.2177	1.5396	19.6332	9.42322537343039	394.450971719188
18-06-2018 10:00:00.00	0.2178	1.5397	19.6343	9.42431640331007	394.630796164732
18-06-2018 11:00:00.00	0.2182	1.5397	19.6352	9.42520906412071	395.35555428441
18-06-2018 12:00:00.00	0.218	1.5394	19.6399	9.42987073724295	394.997276149517
18-06-2018 13:00:00.00	0.2188	1.5393	19.6429	9.43284627327843	396.448179448536
18-06-2018 14:00:00.00	0.2181	1.5393	19.6412	9.43116013619166	395.179835181562
18-06-2018 15:00:00.00	0.2177	1.5393	19.6476	9.43750794640067	394.455067029005
18-06-2018 16:00:00.00	0.2195	1.5392	19.6387	9.42868052282876	397.717900124863
18-06-2018 17:00:00.00	0.2178	1.5392	19.6436	9.43354056502004	394.637624816379
18-06-2018 18:00:00.00	0.2182	1.539	19.6514	9.44127695871227	395.365132020608
18-06-2018 19:00:00.00	0.2188	1.5388	19.6474	9.43730957733164	396.455039642967
18-06-2018 20:00:00.00	0.2182	1.5387	19.6468	9.43671447012454	395.369236906751
18-06-2018 21:00:00.00	0.2173	1.5386	19.6478	9.4377063154697	393.739837371857
18-06-2018 22:00:00.00	0.2182	1.5389	19.6447	9.43463159489971	395.366500306518
18-06-2018 23:00:00.00	0.2184	1.5388	19.6497	9.4395908216255	395.730258948922
19-06-2018 00:00:00.00	0.218	1.5388	19.6497	9.4395908216255	395.005478254876
19-06-2018 01:00:00.00	0.2189	1.5383	19.6525	9.44236798859194	396.643098383814
19-06-2018 02:00:00.00	0.2184	1.5383	19.6501	9.43998755976356	395.737106838854
19-06-2018 03:00:00.00	0.2181	1.5382	19.6523	9.44216961952291	395.194879636976
19-06-2018 04:00:00.00	0.2177	1.5381	19.6485	9.43840060721131	394.471449118682
19-06-2018 05:00:00.00	0.2179	1.5381	19.6485	9.43840060721131	394.833848245112
19-06-2018 06:00:00.00	0.2172	1.5378	19.6493	9.43919408348744	393.569537630811
19-06-2018 07:00:00.00	0.2182	1.5376	19.6439	9.43383811862358	395.384288885229
19-06-2018 08:00:00.00	0.2169	1.5376	19.6461	9.43602017838293	393.028653800212
19-06-2018 09:00:00.00	0.2184	1.5375	19.6419	9.43185442793327	395.748063955714
19-06-2018 10:00:00.00	0.2177	1.5375	19.6444	9.43433404129616	394.479640673805
19-06-2018 11:00:00.00	0.2175	1.5374	19.6439	9.43383811862358	394.118598059806
19-06-2018 12:00:00.00	0.2176	1.5375	19.6388	9.42877970736328	394.298437347818
19-06-2018 13:00:00.00	0.2175	1.5375	19.6436	9.43354056502004	394.11723402183
19-06-2018 14:00:00.00	0.2173	1.5373	19.6485	9.43840060721131	393.757552946665
19-06-2018 15:00:00.00	0.2174	1.5372	19.6438	9.43373893408907	393.940120956651
19-06-2018 16:00:00.00	0.2189	1.5372	19.6449	9.43482996396874	396.658199068127
19-06-2018 17:00:00.00	0.2181	1.5371	19.6438	9.43373893408907	395.209925237916
19-06-2018 18:00:00.00	0.219	1.537	19.6404	9.43036665991553	396.842151232376
19-06-2018 19:00:00.00	0.2178	1.537	19.6434	9.43334219595101	394.667673691377
19-06-2018 20:00:00.00	0.217	1.5368	19.6458	9.43572262477939	393.220743905513
19-06-2018 21:00:00.00	0.2181	1.5367	19.6437	9.43363974955455	395.21539664957
19-06-2018 22:00:00.00	0.2186	1.5366	19.6341	9.42411803424104	396.122809378347
19-06-2018 23:00:00.00	0.2161	1.5366	19.6396	9.42957318363941	391.592585117387
20-06-2018 00:00:00.00	0.2178	1.5365	19.644	9.4339373031581	394.674503619345
20-06-2018 01:00:00.00	0.219	1.5365	19.6429	9.43284627327843	396.849018790801
20-06-2018 02:00:00.00	0.2187	1.5362	19.6435	9.43344138048552	396.309505002361
20-06-2018 03:00:00.00	0.2197	1.5361	19.6353	9.42530824865523	398.122997753459
20-06-2018 04:00:00.00	0.2197	1.5362	19.6399	9.42987073724295	398.121619794324
20-06-2018 05:00:00.00	0.2182	1.5359	19.6417	9.43165605886424	395.40755328819
20-06-2018 06:00:00.00	0.2181	1.5358	19.637	9.426994385742	395.227707879717
20-06-2018 07:00:00.00	0.2186	1.536	19.6382	9.42818460015619	396.131035652518
20-06-2018 08:00:00.00	0.2189	1.5359	19.6373	9.42729193934554	396.676046813862
20-06-2018 09:00:00.00	0.218	1.5357	19.6402	9.4301682908465	395.047861226283
20-06-2018 10:00:00.00	0.219	1.5357	19.6377	9.4276886774836	396.860007378697
20-06-2018 11:00:00.00	0.2193	1.5356	19.6403	9.43026747538102	397.405026722362
20-06-2018 12:00:00.00	0.2181	1.5354	19.642	9.43195361246778	395.233179783763
20-06-2018 13:00:00.00	0.2188	1.5353	19.6422	9.43215198153682	396.503067652539
20-06-2018 14:00:00.00	0.2182	1.5354	19.6454	9.43532588664132	395.414396280684
20-06-2018 15:00:00.00	0.2169	1.5353	19.6497	9.4395908216255	393.059942293581
20-06-2018 16:00:00.00	0.2174	1.5352	19.652	9.44187206591937	393.96739153284
20-06-2018 17:00:00.00	0.2189	1.5353	19.6507	9.44058266697066	396.684284776694
20-06-2018 18:00:00.00	0.2189	1.535	19.6522	9.4420704349884	396.688403886423
20-06-2018 19:00:00.00	0.2183	1.5351	19.646	9.43592099384842	395.599720568509
20-06-2018 20:00:00.00	0.2179	1.5354	19.6494	9.43929326802195	394.870746789922
20-06-2018 21:00:00.00	0.2176	1.5348	19.6495	9.43939245255647	394.335286621951
20-06-2018 22:00:00.00	0.2177	1.5347	19.6485	9.43840060721131	394.51787242981
20-06-2018 23:00:00.00	0.2177	1.5347	19.6459	9.4358218093139	394.51787242981
21-06-2018 00:00:00.00	0.2178	1.5345	19.6533	9.44316146486807	394.701825695288
21-06-2018 01:00:00.00	0.2181	1.5344	19.6541	9.4439549411442	395.246860206785
21-06-2018 02:00:00.00	0.2183	1.5344	19.6572	9.44702966171419	395.609305745719
21-06-2018 03:00:00.00	0.2185	1.5343	19.6519	9.44177288138485	395.973121888156
21-06-2018 04:00:00.00	0.2195	1.5342	19.657	9.44683129264516	397.786732741429
21-06-2018 05:00:00.00	0.2186	1.5343	19.6552	9.44504597102387	396.154345284902
21-06-2018 06:00:00.00	0.2182	1.5341	19.6545	9.44435167928226	395.432189169685
21-06-2018 07:00:00.00	0.2186	1.5339	19.6567	9.44653373904161	396.159830302961
21-06-2018 08:00:00.00	0.2196	1.5337	19.6598	9.4496084596116	397.974844474022
21-06-2018 09:00:00.00	0.2185	1.5336	19.6579	9.4477239534558	395.982716378367
21-06-2018 10:00:00.00	0.2164	1.5339	19.6642	9.45397257913029	392.172860373105
21-06-2018 11:00:00.00	0.2185	1.5335	19.663	9.4527823647161	395.984087057781
21-06-2018 12:00:00.00	0.2178	1.5335	19.6606	9.45040193588772	394.715488151875
21-06-2018 13:00:00.00	0.2189	1.5334	19.6656	9.45536116261352	396.710373916472
21-06-2018 14:00:00.00	0.2181	1.5334	19.6689	9.45863425225254	395.260541576896
21-06-2018 15:00:00.00	0.2178	1.5338	19.6686	9.45833669864899	394.711389315587
21-06-2018 16:00:00.00	0.2179	1.5333	19.6679	9.45764240690738	394.899450426463
21-06-2018 17:00:00.00	0.2186	1.5338	19.6697	9.45942772852866	396.161201581209
21-06-2018 18:00:00.00	0.2184	1.5336	19.6689	9.45863425225254	395.801488590551
21-06-2018 19:00:00.00	0.2184	1.5335	19.6709	9.46061794294285	395.802858642652
21-06-2018 20:00:00.00	0.2186	1.5331	19.6761	9.46577553873768	396.170800794756
21-06-2018 21:00:00.00	0.2186	1.5332	19.6748	9.46448613978897	396.169429450054
21-06-2018 22:00:00.00	0.2184	1.5328	19.6822	9.47182579534314	395.812449272937
21-06-2018 23:00:00.00	0.2175	1.5329	19.6877	9.47728094474151	394.179989542541
22-06-2018 00:00:00.00	0.2182	1.5328	19.6942	9.48372793948503	395.44998366005
22-06-2018 01:00:00.00	0.2193	1.5327	19.6978	9.48729858272761	397.444920305044
22-06-2018 02:00:00.00	0.2174	1.5326	19.6955	9.48501733843374	394.002848926948
22-06-2018 03:00:00.00	0.2182	1.5324	19.7054	9.49483660735081	395.455459210056
22-06-2018 04:00:00.00	0.218	1.5325	19.707	9.49642355990306	395.091620931338
22-06-2018 05:00:00.00	0.2193	1.5326	19.7147	9.50406076906078	397.446296088683
22-06-2018 06:00:00.00	0.2185	1.5325	19.7115	9.50088686395627	395.997794373841
22-06-2018 07:00:00.00	0.2191	1.532	19.7203	9.50961510299366	397.092075339839
22-06-2018 08:00:00.00	0.2192	1.5322	19.7156	9.50495342987142	397.270562747889
22-06-2018 09:00:00.00	0.22	1.5322	19.7237	9.5129873771672	398.720455312662
22-06-2018 10:00:00.00	0.2186	1.5321	19.719	9.50832570404496	396.184514763954
22-06-2018 11:00:00.00	0.2176	1.5323	19.7266	9.51586372866816	394.369412461889
22-06-2018 12:00:00.00	0.219	1.5322	19.7311	9.52032703272137	396.908089606695
22-06-2018 13:00:00.00	0.2181	1.5319	19.7363	9.52548462851619	395.28106540807
22-06-2018 14:00:00.00	0.2184	1.5319	19.7362	9.52538544398167	395.824780766265
22-06-2018 15:00:00.00	0.2186	1.5319	19.7409	9.53004711710392	396.187257671729
22-06-2018 16:00:00.00	0.2191	1.532	19.7433	9.5324275459323	397.092075339839
22-06-2018 17:00:00.00	0.2196	1.5321	19.7461	9.53520471289874	397.996886743661
22-06-2018 18:00:00.00	0.2182	1.532	19.742	9.53113814698359	395.460934911697
22-06-2018 19:00:00.00	0.2181	1.5318	19.7415	9.53064222431101	395.282433739264
22-06-2018 20:00:00.00	0.2192	1.5316	19.7378	9.52697239653393	397.27881411404
22-06-2018 21:00:00.00	0.2177	1.5318	19.7457	9.53480797476067	394.557477418789
22-06-2018 22:00:00.00	0.2185	1.5318	19.7434	9.53252673046681	396.00739005974
22-06-2018 23:00:00.00	0.2181	1.5315	19.7402	9.52935282536231	395.286538789689
23-06-2018 00:00:00.00	0.2201	1.5316	19.7428	9.53193162325972	398.909977128195
23-06-2018 01:00:00.00	0.2182	1.5315	19.7374	9.52657565839587	395.467779751995
23-06-2018 02:00:00.00	0.2188	1.5315	19.733	9.52221153887717	396.555225525832
23-06-2018 03:00:00.00	0.2185	1.5313	19.7361	9.52528625944716	396.014244405818
23-06-2018 04:00:00.00	0.2179	1.5313	19.7285	9.51774823482396	394.926791103102
23-06-2018 05:00:00.00	0.2171	1.5313	19.7321	9.52131887806653	393.476853366147
23-06-2018 06:00:00.00	0.2169	1.5315	19.7276	9.51685557401331	393.111647242015
23-06-2018 07:00:00.00	0.2177	1.5315	19.7251	9.51437596065042	394.561574940465
23-06-2018 08:00:00.00	0.2172	1.5314	19.7237	9.5129873771672	393.656732851383
23-06-2018 09:00:00.00	0.2168	1.5312	19.7181	9.50743304323431	392.934486946455
23-06-2018 10:00:00.00	0.2181	1.5309	19.7193	9.5086232576485	395.294749146333
23-06-2018 11:00:00.00	0.2181	1.531	19.7192	9.50852407311399	395.293380729874
23-06-2018 12:00:00.00	0.219	1.531	19.7142	9.5035648463882	396.92457762422
23-06-2018 13:00:00.00	0.2187	1.5311	19.7111	9.5004901258182	396.379473154589
23-06-2018 14:00:00.00	0.2192	1.531	19.7091	9.49850643512789	397.287065822963
23-06-2018 15:00:00.00	0.2182	1.5311	19.702	9.49146433317727	395.473255794839
23-06-2018 16:00:00.00	0.2193	1.5311	19.6996	9.48908390434889	397.466933986288
23-06-2018 17:00:00.00	0.2171	1.5312	19.7018	9.49126596410824	393.478215480053
23-06-2018 18:00:00.00	0.2182	1.5307	19.6931	9.48263690960536	395.478731989338
23-06-2018 19:00:00.00	0.2187	1.5307	19.6871	9.47668583753441	396.384961897654
23-06-2018 20:00:00.00	0.2189	1.5307	19.6863	9.47589236125829	396.747453860981
23-06-2018 21:00:00.00	0.2187	1.5308	19.6864	9.4759915457928	396.383589697637
23-06-2018 22:00:00.00	0.2178	1.5308	19.6806	9.47023884279088	394.752381509581
23-06-2018 23:00:00.00	0.2182	1.5306	19.6801	9.46974292011831	395.480101061659
24-06-2018 00:00:00.00	0.2181	1.5304	19.6713	9.46101468108091	395.301591370746
24-06-2018 01:00:00.00	0.2177	1.5303	19.6751	9.46478369339252	394.577965878268
24-06-2018 02:00:00.00	0.2187	1.5303	19.6733	9.46299837177123	396.390450792729
24-06-2018 03:00:00.00	0.2186	1.5302	19.6709	9.46061794294285	396.210573921347
24-06-2018 04:00:00.00	0.2185	1.5302	19.6664	9.45615463888964	396.029324802445
24-06-2018 05:00:00.00	0.2186	1.53	19.6675	9.45724566876932	396.213317189967
24-06-2018 06:00:00.00	0.2175	1.5302	19.6604	9.45020356681869	394.216833613418
24-06-2018 07:00:00.00	0.2184	1.5306	19.6647	9.45446850180287	395.842594279864
24-06-2018 08:00:00.00	0.2174	1.5304	19.6617	9.4514929657674	394.032856322788
24-06-2018 09:00:00.00	0.2181	1.5304	19.6659	9.45565871621706	395.301591370746
24-06-2018 10:00:00.00	0.2186	1.5303	19.6583	9.44812069159386	396.209202301283
24-06-2018 11:00:00.00	0.2187	1.5302	19.6621	9.45188970390546	396.39182304025
24-06-2018 12:00:00.00	0.2171	1.5301	19.664	9.45377421006126	393.493199355454
24-06-2018 13:00:00.00	0.2189	1.5301	19.6579	9.4477239534558	396.75569479
24-06-2018 14:00:00.00	0.2185	1.5295	19.669	9.45873343678705	396.038922016492
24-06-2018 15:00:00.00	0.2184	1.5298	19.6627	9.45248481111256	395.853557239029
24-06-2018 16:00:00.00	0.2186	1.5299	19.6635	9.45327828738868	396.214688838522
24-06-2018 17:00:00.00	0.2187	1.5298	19.6617	9.4514929657674	396.397312125346
24-06-2018 18:00:00.00	0.2178	1.5299	19.6643	9.45407176366481	394.764680828134
24-06-2018 19:00:00.00	0.2183	1.5297	19.6606	9.45040193588772	395.673675395371
24-06-2018 20:00:00.00	0.2186	1.5299	19.6655	9.455261978079	396.214688838522
24-06-2018 21:00:00.00	0.2181	1.53	19.6609	9.45069948949127	395.307065320822
24-06-2018 22:00:00.00	0.2191	1.5298	19.6681	9.45784077597641	397.122318640436
24-06-2018 23:00:00.00	0.2189	1.5298	19.663	9.4527823647161	396.759815382891
25-06-2018 00:00:00.00	0.2174	1.5297	19.6691	9.45883262132157	394.042405089114
25-06-2018 01:00:00.00	0.217	1.5299	19.6706	9.46032038933931	393.314672817746
25-06-2018 02:00:00.00	0.2182	1.5299	19.6679	9.45764240690738	395.489684833328
25-06-2018 03:00:00.00	0.2187	1.5298	19.6756	9.46527961606509	396.397312125346
25-06-2018 04:00:00.00	0.217	1.5296	19.6649	9.4546668708719	393.318757701435
25-06-2018 05:00:00.00	0.2172	1.5292	19.6781	9.46775922942799	393.686715132426
25-06-2018 06:00:00.00	0.2188	1.5293	19.6763	9.46597390780671	396.585428461707
25-06-2018 07:00:00.00	0.2193	1.5293	19.6735	9.46319674084026	397.491702292744
25-06-2018 08:00:00.00	0.2183	1.5294	19.6822	9.47182579534314	395.677784807619
25-06-2018 09:00:00.00	0.2184	1.5292	19.677	9.46666819954832	395.861779856914
25-06-2018 10:00:00.00	0.2181	1.5295	19.683	9.47261927161927	395.313907971611
25-06-2018 11:00:00.00	0.2178	1.5297	19.6823	9.47192497987766	394.767414114117
25-06-2018 12:00:00.00	0.2185	1.5295	19.6794	9.4690486283767	396.038922016492
25-06-2018 13:00:00.00	0.2178	1.5295	19.6907	9.48025648077698	394.77014743795
25-06-2018 14:00:00.00	0.2181	1.5296	19.6884	9.47797523648312	395.312539422502
25-06-2018 15:00:00.00	0.2188	1.5293	19.6931	9.48263690960536	396.585428461707
25-06-2018 16:00:00.00	0.2179	1.5292	19.7019	9.49136514864275	394.955502888377
25-06-2018 17:00:00.00	0.2197	1.5294	19.6975	9.48700102912406	398.215342749583
25-06-2018 18:00:00.00	0.219	1.5294	19.7057	9.49513416095435	396.946563778601
25-06-2018 19:00:00.00	0.2186	1.5291	19.7036	9.49305128572952	396.225662368863
25-06-2018 20:00:00.00	0.2193	1.5289	19.7127	9.50207707837046	397.497206780059
25-06-2018 21:00:00.00	0.2174	1.5287	19.7156	9.50495342987142	394.056046986706
25-06-2018 22:00:00.00	0.2181	1.5289	19.7168	9.50614364428561	395.322119465257
25-06-2018 23:00:00.00	0.2193	1.529	19.7251	9.51437596065042	397.495830643938
26-06-2018 00:00:00.00	0.2175	1.5288	19.725	9.5142767761159	394.235940658192
26-06-2018 01:00:00.00	0.2186	1.5289	19.7287	9.51794660389299	396.228405846424
26-06-2018 02:00:00.00	0.2189	1.5287	19.7329	9.52211235434265	396.774924955796
26-06-2018 03:00:00.00	0.2186	1.5287	19.7394	9.52855934908618	396.231149361978
26-06-2018 04:00:00.00	0.2191	1.5284	19.7451	9.53421286755358	397.141566775865
26-06-2018 05:00:00.00	0.2188	1.5284	19.7473	9.53639492731293	396.597785534273
26-06-2018 06:00:00.00	0.2175	1.5286	19.7523	9.54135415403872	394.238670387216
26-06-2018 07:00:00.00	0.2185	1.5286	19.7601	9.54909054773095	396.051261975204
26-06-2018 08:00:00.00	0.218	1.5284	19.7605	9.54948728586901	395.147702223362
26-06-2018 09:00:00.00	0.2176	1.5279	19.7627	9.55166934562836	394.4294882881
26-06-2018 10:00:00.00	0.2179	1.528	19.7591	9.54809870238579	394.97191149729
26-06-2018 11:00:00.00	0.2186	1.528	19.7656	9.55454569712932	396.240751965615
26-06-2018 12:00:00.00	0.2183	1.5279	19.7665	9.55543835793996	395.698333149321
26-06-2018 13:00:00.00	0.218	1.5279	19.7808	9.56962174637572	395.154542494512
26-06-2018 14:00:00.00	0.2184	1.5277	19.7811	9.56991929997927	395.882337896197
26-06-2018 15:00:00.00	0.2198	1.5278	19.7846	9.57339075868733	398.418665802109
26-06-2018 16:00:00.00	0.2178	1.5274	19.787	9.5757711875157	394.798849623583
26-06-2018 17:00:00.00	0.2186	1.5273	19.79	9.57874672355118	396.250355034699
26-06-2018 18:00:00.00	0.2187	1.5272	19.7945	9.58321002760439	396.432994884329
26-06-2018 19:00:00.00	0.2181	1.5274	19.804	9.59263255838339	395.342649691935
26-06-2018 20:00:00.00	0.218	1.5271	19.7981	9.58678067084696	395.165487420949
26-06-2018 21:00:00.00	0.2187	1.5271	19.7989	9.58757414712309	396.434367426429
26-06-2018 22:00:00.00	0.2183	1.5268	19.8115	9.60007139847207	395.713403289711
26-06-2018 23:00:00.00	0.2184	1.5267	19.8041	9.59273174291791	395.896044442014
27-06-2018 00:00:00.00	0.2187	1.5265	19.8079	9.59650075522951	396.442602878623
27-06-2018 01:00:00.00	0.2178	1.5263	19.8101	9.59868281498885	394.813885767509
27-06-2018 02:00:00.00	0.2165	1.526	19.8174	9.60592328600851	392.461405544782
27-06-2018 03:00:00.00	0.2192	1.5259	19.8176	9.60612165507754	397.357219191215
27-06-2018 04:00:00.00	0.2174	1.5256	19.8215	9.60998985192366	394.098342872664
27-06-2018 05:00:00.00	0.2191	1.5258	19.8259	9.61435397144235	397.177318263823
27-06-2018 06:00:00.00	0.2178	1.5255	19.826	9.61445315597687	394.824821864304
27-06-2018 07:00:00.00	0.2183	1.5252	19.829	9.61742869201234	395.735325543154
27-06-2018 08:00:00.00	0.2179	1.5251	19.8275	9.61594092399461	395.011571264846
27-06-2018 09:00:00.00	0.218	1.5247	19.8243	9.6127670188901	395.198325838373
27-06-2018 10:00:00.00	0.2182	1.5246	19.8289	9.61732950747783	395.562262751018
27-06-2018 11:00:00.00	0.217	1.5244	19.8321	9.62050341258233	393.38957583612
27-06-2018 12:00:00.00	0.2191	1.5242	19.8339	9.62228873420362	397.199322379044
27-06-2018 13:00:00.00	0.2178	1.5241	19.8358	9.62417324035942	394.843961491583
27-06-2018 14:00:00.00	0.2182	1.5237	19.8382	9.6265536691878	395.574589948957
27-06-2018 15:00:00.00	0.2194	1.5236	19.8441	9.63240555672423	397.751446172772
27-06-2018 16:00:00.00	0.2179	1.5232	19.8463	9.63458761648358	395.037559569271
27-06-2018 17:00:00.00	0.218	1.523	19.8503	9.63855499786421	395.221589686384
27-06-2018 18:00:00.00	0.2179	1.5225	19.8513	9.63954684320937	395.04713506977
27-06-2018 19:00:00.00	0.2189	1.5223	19.8558	9.64401014726258	396.862858029356
27-06-2018 20:00:00.00	0.219	1.5217	19.8563	9.64450606993516	397.052406221887
27-06-2018 21:00:00.00	0.2192	1.5217	19.8592	9.64738242143612	397.415011159076
27-06-2018 22:00:00.00	0.2186	1.5212	19.8644	9.65254001723094	396.334058628287
27-06-2018 23:00:00.00	0.2183	1.5211	19.8666	9.65472207699028	395.791512406033
28-06-2018 00:00:00.00	0.2189	1.5206	19.8645	9.65263920176545	396.886221803809
28-06-2018 01:00:00.00	0.2192	1.5203	19.8711	9.6591853810435	397.434278884239
28-06-2018 02:00:00.00	0.2192	1.5199	19.8662	9.65432533885222	397.439784291733
28-06-2018 03:00:00.00	0.2185	1.5194	19.8788	9.66682259020121	396.177447897045
28-06-2018 04:00:00.00	0.2185	1.5192	19.8727	9.66077233359575	396.180191962267
28-06-2018 05:00:00.00	0.2193	1.5185	19.8782	9.66622748299412	397.640376980484
28-06-2018 06:00:00.00	0.2184	1.5183	19.8782	9.66622748299412	396.011216908925
28-06-2018 07:00:00.00	0.2183	1.5179	19.8812	9.66920301902959	395.835376654405
28-06-2018 08:00:00.00	0.2171	1.5169	19.8801	9.66811198914992	393.673094913713
28-06-2018 09:00:00.00	0.2182	1.5163	19.8762	9.6642437923038	395.675976047133
28-06-2018 10:00:00.00	0.2186	1.5157	19.8723	9.66037559545769	396.409559403831
28-06-2018 11:00:00.00	0.2183	1.515	19.8773	9.66533482218348	395.87513702847
28-06-2018 12:00:00.00	0.2189	1.5147	19.8795	9.66751688194283	396.967329189845
28-06-2018 13:00:00.00	0.2185	1.5142	19.8783	9.66632666752863	396.248805949107
28-06-2018 14:00:00.00	0.2174	1.5142	19.8736	9.66166499440639	394.253960701766
28-06-2018 15:00:00.00	0.2182	1.5139	19.8743	9.66235928614801	395.708869186827
28-06-2018 16:00:00.00	0.2169	1.5135	19.8676	9.65571392233544	393.356750361824
28-06-2018 17:00:00.00	0.2169	1.513	19.8691	9.65720169035318	393.363563144827
28-06-2018 18:00:00.00	0.2167	1.5126	19.8662	9.65432533885222	393.006294303208
28-06-2018 19:00:00.00	0.218	1.5119	19.868	9.65611066047351	395.373556281217
28-06-2018 20:00:00.00	0.2185	1.5117	19.8622	9.65035795747159	396.283121855682
28-06-2018 21:00:00.00	0.2185	1.5112	19.8629	9.6510522492132	396.289985750246
28-06-2018 22:00:00.00	0.2179	1.5108	19.8676	9.65571392233544	395.207251470864
28-06-2018 23:00:00.00	0.219	1.5101	19.8567	9.64490280807322	397.211963784934
29-06-2018 00:00:00.00	0.2196	1.5099	19.8558	9.64401014726258	398.302975397591
29-06-2018 01:00:00.00	0.2187	1.5097	19.8567	9.64490280807322	396.673334539254
29-06-2018 02:00:00.00	0.2188	1.5092	19.8565	9.64470443900419	396.861586649721
29-06-2018 03:00:00.00	0.2178	1.5087	19.8479	9.63617456903583	395.054619928888
29-06-2018 04:00:00.00	0.2201	1.5083	19.8501	9.63835662879518	399.231987214128
29-06-2018 05:00:00.00	0.2171	1.5076	19.8466	9.63488517008712	393.799938312537
29-06-2018 06:00:00.00	0.2165	1.507	19.8401	9.6284381753436	392.719755726498
29-06-2018 07:00:00.00	0.219	1.5062	19.8409	9.62923165161972	397.26563694688
29-06-2018 08:00:00.00	0.2195	1.5056	19.8351	9.62347894861781	398.18091367046
29-06-2018 09:00:00.00	0.2175	1.5046	19.834	9.62238791873813	394.566512539614
29-06-2018 10:00:00.00	0.2188	1.5039	19.837	9.62536345477361	396.934468568332
29-06-2018 11:00:00.00	0.2178	1.5036	19.8338	9.6221895496691	395.12443299281
29-06-2018 12:00:00.00	0.2175	1.503	19.8325	9.6209001507204	394.588388071058
29-06-2018 13:00:00.00	0.2174	1.5026	19.8367	9.62506590117006	394.412434869789
29-06-2018 14:00:00.00	0.2173	1.5023	19.827	9.61544500132203	394.235110680555
29-06-2018 15:00:00.00	0.2176	1.5017	19.8253	9.61375886423526	394.78759184776
29-06-2018 16:00:00.00	0.2183	1.5008	19.8252	9.61365967970074	396.069941125464
29-06-2018 17:00:00.00	0.2192	1.5008	19.8297	9.61812298375395	397.702845142931
29-06-2018 18:00:00.00	0.2173	1.5006	19.8262	9.6146515250459	394.258335842277
29-06-2018 19:00:00.00	0.2179	1.5	19.8249	9.61336212609719	395.355166470108
29-06-2018 20:00:00.00	0.2179	1.4994	19.8223	9.61078332819978	395.363387216579
29-06-2018 21:00:00.00	0.2179	1.4988	19.8254	9.61385804876977	395.37160830493
29-06-2018 22:00:00.00	0.2181	1.4983	19.8254	9.61385804876977	395.741358472121
29-06-2018 23:00:00.00	0.2177	1.4978	19.821	9.60949392925108	395.022405591006
30-06-2018 00:00:00.00	0.2183	1.497	19.8195	9.60800616123334	396.122104321106
30-06-2018 01:00:00.00	0.2183	1.4965	19.8237	9.612171911683	396.128968922385
30-06-2018 02:00:00.00	0.218	1.4963	19.8246	9.61306457249365	395.5873285975
30-06-2018 03:00:00.00	0.2183	1.4964	19.8187	9.60721268495722	396.130341871191
30-06-2018 04:00:00.00	0.2175	1.496	19.8186	9.6071135004227	394.684122048307
30-06-2018 05:00:00.00	0.2185	1.4956	19.8186	9.6071135004227	396.504258764232
30-06-2018 06:00:00.00	0.2161	1.4947	19.8221	9.61058495913075	392.161296358578
30-06-2018 07:00:00.00	0.2179	1.4936	19.8188	9.60731186949173	395.442872061473
30-06-2018 08:00:00.00	0.2177	1.4929	19.8202	9.60870045297495	395.089500294176
30-06-2018 09:00:00.00	0.2187	1.4926	19.8105	9.59907955312692	396.908462382424
30-06-2018 10:00:00.00	0.2189	1.4927	19.8196	9.60810534576786	397.270055999107
30-06-2018 11:00:00.00	0.2181	1.4924	19.8187	9.60721268495722	395.822294410336
30-06-2018 12:00:00.00	0.2177	1.4914	19.8148	9.6033444881111	395.110044045786
30-06-2018 13:00:00.00	0.2186	1.4918	19.8109	9.59947629126498	396.737978957206
30-06-2018 14:00:00.00	0.2186	1.4924	19.817	9.60552654787045	396.729727455752
30-06-2018 15:00:00.00	0.218	1.4929	19.8141	9.60265019636949	395.633950685027
30-06-2018 16:00:00.00	0.2176	1.4935	19.8174	9.60592328600851	394.899803702494
30-06-2018 17:00:00.00	0.2176	1.493	19.813	9.60155916648981	394.906647952157
30-06-2018 18:00:00.00	0.2186	1.4923	19.8108	9.59937710673047	396.731102682158
30-06-2018 19:00:00.00	0.218	1.4918	19.8102	9.59878199952337	395.649036654488
30-06-2018 20:00:00.00	0.2181	1.4916	19.8116	9.60017058300659	395.833271323689
30-06-2018 21:00:00.00	0.2188	1.4913	19.8132	9.60175753555884	397.107842529607
30-06-2018 22:00:00.00	0.2176	1.491	19.8119	9.60046813661014	394.934027323409
30-06-2018 23:00:00.00	0.2186	1.4912	19.8116	9.60017058300659	396.746230801911
01-07-2018 00:00:00.00	0.2185	1.4914	19.8087	9.59729423150564	396.561987248527
01-07-2018 01:00:00.00	0.2196	1.4914	19.8107	9.59927792219595	398.558409152295
01-07-2018 02:00:00.00	0.2179	1.4918	19.8087	9.59729423150564	395.467546270701
01-07-2018 03:00:00.00	0.2187	1.492	19.8037	9.59233500477984	396.916717544118
01-07-2018 04:00:00.00	0.2184	1.4924	19.8114	9.59997221393756	396.366754237585
01-07-2018 05:00:00.00	0.2184	1.4932	19.8071	9.59570727895338	396.35576283494
01-07-2018 06:00:00.00	0.2171	1.4934	19.8065	9.59511217174629	393.993770942148
01-07-2018 07:00:00.00	0.2176	1.4925	19.8045	9.59312848105597	394.913492439067
01-07-2018 08:00:00.00	0.2178	1.4918	19.8133	9.60185672009336	395.286055886915
01-07-2018 09:00:00.00	0.2178	1.491	19.8135	9.60205508916239	395.297018157346
01-07-2018 10:00:00.00	0.2186	1.4904	19.8147	9.60324530357658	396.757233795498
01-07-2018 11:00:00.00	0.2181	1.4901	19.8096	9.59818689231628	395.853854677277
01-07-2018 12:00:00.00	0.2191	1.4895	19.8143	9.60284856543852	397.677137167484
01-07-2018 13:00:00.00	0.2168	1.4893	19.8152	9.60374122624916	393.505253866883
01-07-2018 14:00:00.00	0.2175	1.4888	19.8146	9.60314611904207	394.782639757411
01-07-2018 15:00:00.00	0.2176	1.489	19.8224	9.6108825127343	394.961410491417
01-07-2018 16:00:00.00	0.218	1.489	19.8211	9.60959311378559	395.687442495996
01-07-2018 17:00:00.00	0.2183	1.4891	19.8294	9.61782543015041	396.230592846094
01-07-2018 18:00:00.00	0.2185	1.4891	19.8314	9.61980912084072	396.593607589883
01-07-2018 19:00:00.00	0.2163	1.4889	19.833	9.62139607339297	392.603167554301
01-07-2018 20:00:00.00	0.2191	1.4889	19.8363	9.624669163032	397.68540920549
01-07-2018 21:00:00.00	0.218	1.4886	19.8385	9.62685122279134	395.692929653457
01-07-2018 22:00:00.00	0.2175	1.4879	19.8416	9.62992594336133	394.794957929288
01-07-2018 23:00:00.00	0.2176	1.4873	19.8444	9.63270311032778	394.984689170012
02-07-2018 00:00:00.00	0.2181	1.4868	19.8417	9.63002512789585	395.899145591194
02-07-2018 01:00:00.00	0.2182	1.4873	19.8454	9.63369495567294	396.073801364414
02-07-2018 02:00:00.00	0.2175	1.4873	19.8442	9.63250474125875	394.803170470945
02-07-2018 03:00:00.00	0.2175	1.486	19.8468	9.63508353915616	394.82096548339
02-07-2018 04:00:00.00	0.2188	1.4844	19.8473	9.63557946182874	397.20284960731
02-07-2018 05:00:00.00	0.2184	1.4841	19.849	9.6372655989155	396.480826022053
02-07-2018 06:00:00.00	0.2161	1.4831	19.8433	9.6316120804481	392.319035945955
02-07-2018 07:00:00.00	0.2175	1.4826	19.851	9.63924928960582	394.867513870198
02-07-2018 08:00:00.00	0.2185	1.4841	19.848	9.63627375357034	396.662364861807
02-07-2018 09:00:00.00	0.2169	1.4849	19.8522	9.64043950402001	393.74682122963
02-07-2018 10:00:00.00	0.2183	1.4854	19.8459	9.63419087834551	396.2814243636
02-07-2018 11:00:00.00	0.219	1.4856	19.8515	9.6397452122784	397.549382168324
02-07-2018 12:00:00.00	0.2195	1.4858	19.848	9.63627375357034	398.454266109143
02-07-2018 13:00:00.00	0.2173	1.4857	19.8474	9.63567864636325	394.462014714831
02-07-2018 14:00:00.00	0.2177	1.4869	19.846	9.63429006288003	395.171688121355
02-07-2018 15:00:00.00	0.2178	1.4883	19.8509	9.6391501050713	395.334020309387
02-07-2018 16:00:00.00	0.2183	1.4888	19.85	9.63825744426066	396.234713834679
02-07-2018 17:00:00.00	0.2189	1.4902	19.8507	9.63895173600227	397.304485990543
02-07-2018 18:00:00.00	0.2181	1.4907	19.8482	9.63647212263938	395.845621078966
02-07-2018 19:00:00.00	0.2173	1.4907	19.8511	9.63934847414033	394.393642643097
02-07-2018 20:00:00.00	0.2172	1.4908	19.8509	9.6391501050713	394.210778768112
02-07-2018 21:00:00.00	0.2172	1.4905	19.85	9.63825744426066	394.214878508038
02-07-2018 22:00:00.00	0.2175	1.4896	19.8452	9.6334965866039	394.771690916599
02-07-2018 23:00:00.00	0.2191	1.4891	19.8464	9.63468680101809	397.682651821251
03-07-2018 00:00:00.00	0.2182	1.4889	19.8458	9.634091693811	396.051831531893
03-07-2018 01:00:00.00	0.2178	1.4886	19.8436	9.63190963405165	395.329908617078
03-07-2018 02:00:00.00	0.219	1.4889	19.8388	9.62714877639489	397.50390057509
03-07-2018 03:00:00.00	0.2173	1.4894	19.8431	9.63141371137907	394.411417101527
03-07-2018 04:00:00.00	0.2183	1.4901	19.8361	9.62447079396296	396.21685683654
03-07-2018 05:00:00.00	0.2197	1.4914	19.8391	9.62744632999844	398.739902052638
03-07-2018 06:00:00.00	0.219	1.4916	19.8353	9.62367731768684	397.466696102191
03-07-2018 07:00:00.00	0.2163	1.4926	19.8361	9.62447079396296	392.552813961218
03-07-2018 08:00:00.00	0.2181	1.4924	19.8302	9.61861890642653	395.822294410336
03-07-2018 09:00:00.00	0.2181	1.4927	19.8318	9.62020585897879	395.818178224784
03-07-2018 10:00:00.00	0.2181	1.4926	19.8316	9.62000748990975	395.819550277123
03-07-2018 11:00:00.00	0.2173	1.4927	19.8216	9.61008903645817	394.366300450461
03-07-2018 12:00:00.00	0.2175	1.4929	19.8222	9.61068414366527	394.726533366942
03-07-2018 13:00:00.00	0.2184	1.4932	19.8307	9.61911482909911	396.35576283494
03-07-2018 14:00:00.00	0.2185	1.4927	19.8285	9.61693276933976	396.544117111946
03-07-2018 15:00:00.00	0.2181	1.4927	19.83	9.6184205373575	395.818178224784
03-07-2018 16:00:00.00	0.2189	1.4921	19.8306	9.6190156445646	397.27831865282
03-07-2018 17:00:00.00	0.2177	1.4925	19.83	9.6184205373575	395.094978419048
03-07-2018 18:00:00.00	0.218	1.4916	19.8238	9.61227109621752	395.651779681633
03-07-2018 19:00:00.00	0.2185	1.492	19.8285	9.61693276933976	396.553739293049
03-07-2018 20:00:00.00	0.2187	1.4922	19.8278	9.61623847759815	396.913965785399
03-07-2018 21:00:00.00	0.2188	1.4925	19.8224	9.6108825127343	397.091324198841
03-07-2018 22:00:00.00	0.2185	1.4933	19.8291	9.61752787654686	396.535869899793
03-07-2018 23:00:00.00	0.2195	1.4936	19.8244	9.61286620342462	398.346537023833
04-07-2018 00:00:00.00	0.2186	1.494	19.8276	9.61604010852912	396.707725129819
04-07-2018 01:00:00.00	0.2178	1.4943	19.8327	9.62109851978943	395.251802710262
04-07-2018 02:00:00.00	0.2171	1.4944	19.8341	9.62248710327265	393.980114511563
04-07-2018 03:00:00.00	0.2193	1.4943	19.837	9.62536345477361	397.973922563639
04-07-2018 04:00:00.00	0.2178	1.4944	19.8311	9.61951156723717	395.250432706672
04-07-2018 05:00:00.00	0.2173	1.4946	19.8356	9.62397487129038	394.340328878745
04-07-2018 06:00:00.00	0.2175	1.4951	19.8366	9.62496671663554	394.696434072875
04-07-2018 07:00:00.00	0.2183	1.4954	19.8339	9.62228873420362	396.14407188271
04-07-2018 08:00:00.00	0.2183	1.4956	19.8285	9.61693276933976	396.141325804265
04-07-2018 09:00:00.00	0.2168	1.4959	19.8312	9.61961075177169	393.415237861339
04-07-2018 10:00:00.00	0.218	1.4961	19.8302	9.61861890642653	395.590070769068
04-07-2018 11:00:00.00	0.2176	1.4967	19.8178	9.60632002414657	394.856006121865
04-07-2018 12:00:00.00	0.2198	1.4967	19.8157	9.60423714892174	398.848116477876
04-07-2018 13:00:00.00	0.219	1.4976	19.8136	9.60215427369691	397.38404442456
04-07-2018 14:00:00.00	0.2185	1.4987	19.812	9.60056732114466	396.461660424618
04-07-2018 15:00:00.00	0.2185	1.4998	19.8143	9.60284856543852	396.446547084841
04-07-2018 16:00:00.00	0.2184	1.5014	19.8104	9.5989803685924	396.243136094604
04-07-2018 17:00:00.00	0.2182	1.5026	19.8071	9.59570727895338	395.863814574922
04-07-2018 18:00:00.00	0.2188	1.5034	19.7988	9.58747496258857	396.941345602861
04-07-2018 19:00:00.00	0.2178	1.5044	19.7895	9.5782508008786	395.113480292327
04-07-2018 20:00:00.00	0.2181	1.5054	19.7803	9.56912582370314	395.644004857732
04-07-2018 21:00:00.00	0.2184	1.5059	19.7752	9.56406741244284	396.181355933956
04-07-2018 22:00:00.00	0.2181	1.5062	19.7671	9.55603346514706	395.633038438879
04-07-2018 23:00:00.00	0.2186	1.5064	19.7565	9.54551990448838	396.537289815282
05-07-2018 00:00:00.00	0.217	1.507	19.7509	9.5399655705555	393.626729758199
05-07-2018 01:00:00.00	0.2186	1.5076	19.7461	9.53520471289874	396.520803846709
05-07-2018 02:00:00.00	0.2178	1.5085	19.7304	9.51963274097976	395.057357231341
05-07-2018 03:00:00.00	0.2192	1.5091	19.7276	9.51685557401331	397.588487970436
05-07-2018 04:00:00.00	0.2181	1.5101	19.7184	9.50773059683786	395.579585851571
05-07-2018 05:00:00.00	0.2179	1.5114	19.7086	9.49801051245531	395.199037216069
05-07-2018 06:00:00.00	0.2194	1.5122	19.704	9.49344802386758	397.908517385972
05-07-2018 07:00:00.00	0.2184	1.5123	19.6961	9.48561244564084	396.093523992395
05-07-2018 08:00:00.00	0.2192	1.5125	19.6889	9.4784711591557	397.541661849285
05-07-2018 09:00:00.00	0.2174	1.5138	19.6786	9.46825515210057	394.259423208257
05-07-2018 10:00:00.00	0.2182	1.5147	19.6727	9.46240326456414	395.697904199289
05-07-2018 11:00:00.00	0.2201	1.5154	19.6743	9.46399021711639	399.133808911271
05-07-2018 12:00:00.00	0.2173	1.5163	19.6633	9.45307991831965	394.043948648222
05-07-2018 13:00:00.00	0.2176	1.5179	19.6604	9.45020356681869	394.566092349971
05-07-2018 14:00:00.00	0.2178	1.5184	19.652	9.44187206591937	394.92190627825
05-07-2018 15:00:00.00	0.2198	1.5193	19.647	9.43691283919357	398.535947915304
05-07-2018 16:00:00.00	0.2188	1.5192	19.6484	9.43830142267679	396.724146459241
05-07-2018 17:00:00.00	0.2175	1.5209	19.6461	9.43602017838293	394.343793705871
05-07-2018 18:00:00.00	0.2175	1.5218	19.6383	9.4282837846907	394.331503671417
05-07-2018 19:00:00.00	0.2186	1.5225	19.6393	9.42927563003586	396.316217192527
05-07-2018 20:00:00.00	0.2176	1.5224	19.6349	9.42491151051716	394.504608814596
05-07-2018 21:00:00.00	0.2195	1.5223	19.6246	9.41469550346203	397.950650239578
05-07-2018 22:00:00.00	0.2185	1.5222	19.6282	9.4182661467046	396.139034974852
05-07-2018 23:00:00.00	0.2202	1.5228	19.6184	9.40854606232206	399.212829170195
06-07-2018 00:00:00.00	0.2181	1.523	19.6188	9.40894280046012	395.40288399358
06-07-2018 01:00:00.00	0.2174	1.5233	19.6127	9.40289254385465	394.129729559021
06-07-2018 02:00:00.00	0.2188	1.5231	19.6099	9.40011537688821	396.670570584328
06-07-2018 03:00:00.00	0.219	1.5229	19.6049	9.39515615016242	397.035907583021
06-07-2018 04:00:00.00	0.2202	1.523	19.6051	9.39535451923145	399.210064444687
06-07-2018 05:00:00.00	0.2192	1.5238	19.5997	9.3899985543676	397.38611307397
06-07-2018 06:00:00.00	0.2193	1.5245	19.596	9.38632872659051	397.557766203946
06-07-2018 07:00:00.00	0.218	1.5256	19.5928	9.38315482148601	395.186010792276
06-07-2018 08:00:00.00	0.2181	1.5264	19.5936	9.38394829776213	395.356337694423
06-07-2018 09:00:00.00	0.2191	1.5276	19.5849	9.37531924325926	397.15256654816
06-07-2018 10:00:00.00	0.2189	1.5294	19.5806	9.37105430827508	396.765309639889
06-07-2018 11:00:00.00	0.2184	1.531	19.5776	9.36807877223961	395.837113027989
06-07-2018 12:00:00.00	0.2186	1.5324	19.5715	9.36202851563414	396.180400473503
06-07-2018 13:00:00.00	0.2187	1.5341	19.5655	9.35607744356319	396.338312426261
06-07-2018 14:00:00.00	0.2193	1.5356	19.5667	9.35726765797738	397.405026722362
06-07-2018 15:00:00.00	0.2181	1.538	19.5695	9.36004482494383	395.197615115575
06-07-2018 16:00:00.00	0.2189	1.5394	19.5644	9.35498641368352	396.627998849217
06-07-2018 17:00:00.00	0.2196	1.5409	19.5632	9.35379619926933	397.875684467116
06-07-2018 18:00:00.00	0.2178	1.5429	19.565	9.35558152089062	394.587098389641
06-07-2018 19:00:00.00	0.219	1.5447	19.5614	9.35201087764804	396.736420840024
06-07-2018 20:00:00.00	0.2194	1.547	19.5517	9.34238997780001	397.429425029757
06-07-2018 21:00:00.00	0.2184	1.5487	19.5472	9.3379266737468	395.594719513291
06-07-2018 22:00:00.00	0.2183	1.5506	19.5464	9.33713319747067	395.387596305316
06-07-2018 23:00:00.00	0.2179	1.5533	19.5481	9.33881933455744	394.626251722687
07-07-2018 00:00:00.00	0.2189	1.5554	19.5354	9.32622289867393	396.408499157582
07-07-2018 01:00:00.00	0.2186	1.5576	19.5355	9.32632208320845	395.835104873487
07-07-2018 02:00:00.00	0.2184	1.5605	19.5385	9.32929761924392	395.433288693188
07-07-2018 03:00:00.00	0.219	1.5631	19.5354	9.32622289867393	396.483994420909
07-07-2018 04:00:00.00	0.2207	1.5657	19.5362	9.32701637495006	399.525804325367
07-07-2018 05:00:00.00	0.22	1.5657	19.5333	9.3241400234491	398.258617814141